<?xml version="1.0" encoding="UTF-8"?>
<gpx xmlns="http://www.topografix.com/GPX/1/1" version="1.1" creator="Nokia Sports Tracker" xmlns:xsi="http://www.w3.org/2001/XMLSchema-instance" xsi:schemaLocation="http://www.topografix.com/GPX/1/1 http://www.topografix.com/GPX/1/1/gpx.xsd">
<metadata>
<name>24.03.2011 15:10</name>
<desc>Motor on Neue Route</desc>
<author><name>Alexander</name></author>
<time>2011-03-24T15:10:29.82</time>
</metadata>
<trk>
<name>24.03.2011 15:10</name>
<trkseg>
<trkpt lat="49.530977" lon="9.204400">
<ele>525.5</ele>
<speed>0.0</speed>
<course>84.5</course>
<desc>Speed 0.0 km/h Distance 0.00 km</desc>
<time>2011-03-24T15:11:01.97</time>
<name>1</name>
</trkpt>
<trkpt lat="49.530983" lon="9.204507">
<ele>520.5</ele>
<speed>25.2</speed>
<course>80.5</course>
<desc>Speed 25.2 km/h Distance 0.01 km</desc>
<time>2011-03-24T15:11:03.96</time>
<name>2</name>
</trkpt>
<trkpt lat="49.530993" lon="9.204598">
<ele>519.5</ele>
<speed>25.5</speed>
<course>88.0</course>
<desc>Speed 25.5 km/h Distance 0.01 km</desc>
<time>2011-03-24T15:11:04.96</time>
<name>3</name>
</trkpt>
<trkpt lat="49.530995" lon="9.204672">
<ele>516.5</ele>
<speed>24.5</speed>
<course>90.0</course>
<desc>Speed 24.5 km/h Distance 0.02 km</desc>
<time>2011-03-24T15:11:05.97</time>
<name>4</name>
</trkpt>
<trkpt lat="49.530995" lon="9.204765">
<ele>516.0</ele>
<speed>25.1</speed>
<course>83.0</course>
<desc>Speed 25.1 km/h Distance 0.03 km</desc>
<time>2011-03-24T15:11:06.97</time>
<name>5</name>
</trkpt>
<trkpt lat="49.531002" lon="9.204848">
<ele>515.5</ele>
<speed>23.5</speed>
<course>90.0</course>
<desc>Speed 23.5 km/h Distance 0.03 km</desc>
<time>2011-03-24T15:11:07.97</time>
<name>6</name>
</trkpt>
<trkpt lat="49.531002" lon="9.204902">
<ele>514.0</ele>
<speed>18.9</speed>
<course>81.6</course>
<desc>Speed 18.9 km/h Distance 0.04 km</desc>
<time>2011-03-24T15:11:08.97</time>
<name>7</name>
</trkpt>
<trkpt lat="49.531005" lon="9.204937">
<ele>509.5</ele>
<speed>9.1</speed>
<course>297.4</course>
<desc>Speed 9.1 km/h Distance 0.04 km</desc>
<time>2011-03-24T15:11:10.97</time>
<name>8</name>
</trkpt>
<trkpt lat="49.531008" lon="9.204927">
<ele>510.0</ele>
<speed>3.0</speed>
<course>328.4</course>
<desc>Speed 3.0 km/h Distance 0.04 km</desc>
<time>2011-03-24T15:11:11.97</time>
<name>9</name>
</trkpt>
<trkpt lat="49.531012" lon="9.204923">
<ele>510.0</ele>
<speed>0.3</speed>
<course>347.4</course>
<desc>Speed 0.3 km/h Distance 0.04 km</desc>
<time>2011-03-24T15:11:12.96</time>
<name>10</name>
</trkpt>
<trkpt lat="49.531013" lon="9.204922">
<ele>509.5</ele>
<speed>0.4</speed>
<course>326.3</course>
<desc>Speed 0.4 km/h Distance 0.04 km</desc>
<time>2011-03-24T15:11:13.96</time>
<name>11</name>
</trkpt>
<trkpt lat="49.531017" lon="9.204918">
<ele>509.5</ele>
<speed>0.6</speed>
<course>29.2</course>
<desc>Speed 0.6 km/h Distance 0.04 km</desc>
<time>2011-03-24T15:11:14.96</time>
<name>12</name>
</trkpt>
<trkpt lat="49.531018" lon="9.204918">
<ele>509.5</ele>
<speed>0.7</speed>
<course>150.8</course>
<desc>Speed 0.7 km/h Distance 0.04 km</desc>
<time>2011-03-24T15:11:15.96</time>
<name>13</name>
</trkpt>
<trkpt lat="49.531017" lon="9.204918">
<ele>509.0</ele>
<speed>0.4</speed>
<course>142.8</course>
<desc>Speed 0.4 km/h Distance 0.04 km</desc>
<time>2011-03-24T15:11:16.97</time>
<name>14</name>
</trkpt>
<trkpt lat="49.531015" lon="9.204920">
<ele>509.0</ele>
<speed>0.4</speed>
<course>150.8</course>
<desc>Speed 0.4 km/h Distance 0.04 km</desc>
<time>2011-03-24T15:11:17.97</time>
<name>15</name>
</trkpt>
<trkpt lat="49.531013" lon="9.204922">
<ele>508.5</ele>
<speed>0.8</speed>
<course>148.4</course>
<desc>Speed 0.8 km/h Distance 0.04 km</desc>
<time>2011-03-24T15:11:18.97</time>
<name>16</name>
</trkpt>
<trkpt lat="49.531010" lon="9.204925">
<ele>508.5</ele>
<speed>2.4</speed>
<course>149.5</course>
<desc>Speed 2.4 km/h Distance 0.04 km</desc>
<time>2011-03-24T15:11:19.97</time>
<name>17</name>
</trkpt>
<trkpt lat="49.530992" lon="9.204942">
<ele>508.0</ele>
<speed>8.4</speed>
<course>169.8</course>
<desc>Speed 8.4 km/h Distance 0.04 km</desc>
<time>2011-03-24T15:11:20.97</time>
<name>18</name>
</trkpt>
<trkpt lat="49.530943" lon="9.204955">
<ele>506.5</ele>
<speed>20.7</speed>
<course>190.5</course>
<desc>Speed 20.7 km/h Distance 0.05 km</desc>
<time>2011-03-24T15:11:21.96</time>
<name>19</name>
</trkpt>
<trkpt lat="49.530873" lon="9.204935">
<ele>506.5</ele>
<speed>29.7</speed>
<course>198.3</course>
<desc>Speed 29.7 km/h Distance 0.06 km</desc>
<time>2011-03-24T15:11:22.96</time>
<name>20</name>
</trkpt>
<trkpt lat="49.530792" lon="9.204893">
<ele>506.0</ele>
<speed>34.2</speed>
<course>194.1</course>
<desc>Speed 34.2 km/h Distance 0.07 km</desc>
<time>2011-03-24T15:11:23.96</time>
<name>21</name>
</trkpt>
<trkpt lat="49.530710" lon="9.204862">
<ele>506.0</ele>
<speed>32.8</speed>
<course>195.3</course>
<desc>Speed 32.8 km/h Distance 0.08 km</desc>
<time>2011-03-24T15:11:24.97</time>
<name>22</name>
</trkpt>
<trkpt lat="49.530615" lon="9.204822">
<ele>506.0</ele>
<speed>39.4</speed>
<course>198.9</course>
<desc>Speed 39.4 km/h Distance 0.09 km</desc>
<time>2011-03-24T15:11:25.95</time>
<name>23</name>
</trkpt>
<trkpt lat="49.530492" lon="9.204757">
<ele>506.0</ele>
<speed>52.1</speed>
<course>192.6</course>
<desc>Speed 52.1 km/h Distance 0.10 km</desc>
<time>2011-03-24T15:11:26.96</time>
<name>24</name>
</trkpt>
<trkpt lat="49.530380" lon="9.204718">
<ele>506.0</ele>
<speed>45.4</speed>
<course>191.7</course>
<desc>Speed 45.4 km/h Distance 0.12 km</desc>
<time>2011-03-24T15:11:27.96</time>
<name>25</name>
</trkpt>
<trkpt lat="49.530265" lon="9.204682">
<ele>505.5</ele>
<speed>47.7</speed>
<course>190.3</course>
<desc>Speed 47.7 km/h Distance 0.13 km</desc>
<time>2011-03-24T15:11:28.96</time>
<name>26</name>
</trkpt>
<trkpt lat="49.530140" lon="9.204647">
<ele>505.0</ele>
<speed>50.8</speed>
<course>187.7</course>
<desc>Speed 50.8 km/h Distance 0.14 km</desc>
<time>2011-03-24T15:11:29.95</time>
<name>27</name>
</trkpt>
<trkpt lat="49.530012" lon="9.204620">
<ele>505.5</ele>
<speed>52.4</speed>
<course>185.2</course>
<desc>Speed 52.4 km/h Distance 0.16 km</desc>
<time>2011-03-24T15:11:30.95</time>
<name>28</name>
</trkpt>
<trkpt lat="49.529882" lon="9.204602">
<ele>505.5</ele>
<speed>53.2</speed>
<course>183.9</course>
<desc>Speed 53.2 km/h Distance 0.17 km</desc>
<time>2011-03-24T15:11:31.99</time>
<name>29</name>
</trkpt>
<trkpt lat="49.529753" lon="9.204588">
<ele>505.0</ele>
<speed>52.2</speed>
<course>180.4</course>
<desc>Speed 52.2 km/h Distance 0.19 km</desc>
<time>2011-03-24T15:11:32.96</time>
<name>30</name>
</trkpt>
<trkpt lat="49.529638" lon="9.204587">
<ele>505.0</ele>
<speed>46.4</speed>
<course>170.8</course>
<desc>Speed 46.4 km/h Distance 0.20 km</desc>
<time>2011-03-24T15:11:33.95</time>
<name>31</name>
</trkpt>
<trkpt lat="49.529545" lon="9.204610">
<ele>504.5</ele>
<speed>39.5</speed>
<course>183.3</course>
<desc>Speed 39.5 km/h Distance 0.21 km</desc>
<time>2011-03-24T15:11:34.95</time>
<name>32</name>
</trkpt>
<trkpt lat="49.529452" lon="9.204602">
<ele>504.0</ele>
<speed>38.7</speed>
<course>197.6</course>
<desc>Speed 38.7 km/h Distance 0.22 km</desc>
<time>2011-03-24T15:11:35.95</time>
<name>33</name>
</trkpt>
<trkpt lat="49.529387" lon="9.204570">
<ele>503.5</ele>
<speed>28.0</speed>
<course>211.5</course>
<desc>Speed 28.0 km/h Distance 0.23 km</desc>
<time>2011-03-24T15:11:36.95</time>
<name>34</name>
</trkpt>
<trkpt lat="49.529328" lon="9.204515">
<ele>502.5</ele>
<speed>29.2</speed>
<course>221.1</course>
<desc>Speed 29.2 km/h Distance 0.23 km</desc>
<time>2011-03-24T15:11:37.96</time>
<name>35</name>
</trkpt>
<trkpt lat="49.529275" lon="9.204443">
<ele>504.0</ele>
<speed>29.2</speed>
<course>326.0</course>
<desc>Speed 29.2 km/h Distance 0.24 km</desc>
<time>2011-03-24T15:11:38.95</time>
<name>36</name>
</trkpt>
<trkpt lat="49.529358" lon="9.204357">
<ele>503.5</ele>
<speed>42.2</speed>
<course>277.4</course>
<desc>Speed 42.2 km/h Distance 0.25 km</desc>
<time>2011-03-24T15:11:39.94</time>
<name>37</name>
</trkpt>
<trkpt lat="49.529373" lon="9.204178">
<ele>503.5</ele>
<speed>22.2</speed>
<course>243.5</course>
<desc>Speed 22.2 km/h Distance 0.27 km</desc>
<time>2011-03-24T15:11:41.94</time>
<name>38</name>
</trkpt>
<trkpt lat="49.529353" lon="9.204117">
<ele>502.0</ele>
<speed>17.4</speed>
<course>220.2</course>
<desc>Speed 17.4 km/h Distance 0.27 km</desc>
<time>2011-03-24T15:11:42.95</time>
<name>39</name>
</trkpt>
<trkpt lat="49.529320" lon="9.204073">
<ele>500.0</ele>
<speed>16.9</speed>
<course>179.4</course>
<desc>Speed 16.9 km/h Distance 0.28 km</desc>
<time>2011-03-24T15:11:43.94</time>
<name>40</name>
</trkpt>
<trkpt lat="49.529112" lon="9.204077">
<ele>501.5</ele>
<speed>42.0</speed>
<course>163.9</course>
<desc>Speed 42.0 km/h Distance 0.30 km</desc>
<time>2011-03-24T15:11:45.95</time>
<name>41</name>
</trkpt>
<trkpt lat="49.529022" lon="9.204117">
<ele>501.0</ele>
<speed>37.4</speed>
<course>166.8</course>
<desc>Speed 37.4 km/h Distance 0.31 km</desc>
<time>2011-03-24T15:11:46.95</time>
<name>42</name>
</trkpt>
<trkpt lat="49.528920" lon="9.204153">
<ele>501.5</ele>
<speed>40.9</speed>
<course>163.7</course>
<desc>Speed 40.9 km/h Distance 0.32 km</desc>
<time>2011-03-24T15:11:47.95</time>
<name>43</name>
</trkpt>
<trkpt lat="49.528805" lon="9.204205">
<ele>502.0</ele>
<speed>46.9</speed>
<course>159.4</course>
<desc>Speed 46.9 km/h Distance 0.33 km</desc>
<time>2011-03-24T15:11:48.94</time>
<name>44</name>
</trkpt>
<trkpt lat="49.528667" lon="9.204285">
<ele>502.5</ele>
<speed>58.5</speed>
<course>161.6</course>
<desc>Speed 58.5 km/h Distance 0.35 km</desc>
<time>2011-03-24T15:11:49.94</time>
<name>45</name>
</trkpt>
<trkpt lat="49.528527" lon="9.204357">
<ele>503.0</ele>
<speed>58.5</speed>
<course>160.8</course>
<desc>Speed 58.5 km/h Distance 0.37 km</desc>
<time>2011-03-24T15:11:50.94</time>
<name>46</name>
</trkpt>
<trkpt lat="49.528387" lon="9.204432">
<ele>503.0</ele>
<speed>58.7</speed>
<course>162.0</course>
<desc>Speed 58.7 km/h Distance 0.38 km</desc>
<time>2011-03-24T15:11:51.93</time>
<name>47</name>
</trkpt>
<trkpt lat="49.528233" lon="9.204508">
<ele>503.0</ele>
<speed>63.7</speed>
<course>165.0</course>
<desc>Speed 63.7 km/h Distance 0.40 km</desc>
<time>2011-03-24T15:11:52.93</time>
<name>48</name>
</trkpt>
<trkpt lat="49.528063" lon="9.204578">
<ele>503.0</ele>
<speed>70.0</speed>
<course>169.2</course>
<desc>Speed 70.0 km/h Distance 0.42 km</desc>
<time>2011-03-24T15:11:53.93</time>
<name>49</name>
</trkpt>
<trkpt lat="49.527865" lon="9.204637">
<ele>502.0</ele>
<speed>80.2</speed>
<course>170.5</course>
<desc>Speed 80.2 km/h Distance 0.44 km</desc>
<time>2011-03-24T15:11:54.93</time>
<name>50</name>
</trkpt>
<trkpt lat="49.527677" lon="9.204685">
<ele>501.5</ele>
<speed>76.3</speed>
<course>173.4</course>
<desc>Speed 76.3 km/h Distance 0.47 km</desc>
<time>2011-03-24T15:11:55.94</time>
<name>51</name>
</trkpt>
<trkpt lat="49.527480" lon="9.204720">
<ele>502.5</ele>
<speed>78.7</speed>
<course>175.5</course>
<desc>Speed 78.7 km/h Distance 0.49 km</desc>
<time>2011-03-24T15:11:56.93</time>
<name>52</name>
</trkpt>
<trkpt lat="49.527275" lon="9.204745">
<ele>503.5</ele>
<speed>82.2</speed>
<course>177.3</course>
<desc>Speed 82.2 km/h Distance 0.51 km</desc>
<time>2011-03-24T15:11:57.93</time>
<name>53</name>
</trkpt>
<trkpt lat="49.527043" lon="9.204762">
<ele>503.5</ele>
<speed>92.5</speed>
<course>177.6</course>
<desc>Speed 92.5 km/h Distance 0.54 km</desc>
<time>2011-03-24T15:11:58.94</time>
<name>54</name>
</trkpt>
<trkpt lat="49.526813" lon="9.204777">
<ele>504.0</ele>
<speed>92.5</speed>
<course>178.1</course>
<desc>Speed 92.5 km/h Distance 0.56 km</desc>
<time>2011-03-24T15:11:59.93</time>
<name>55</name>
</trkpt>
<trkpt lat="49.526580" lon="9.204788">
<ele>504.0</ele>
<speed>94.5</speed>
<course>178.2</course>
<desc>Speed 94.5 km/h Distance 0.59 km</desc>
<time>2011-03-24T15:12:00.94</time>
<name>56</name>
</trkpt>
<trkpt lat="49.526333" lon="9.204800">
<ele>504.5</ele>
<speed>99.3</speed>
<course>177.8</course>
<desc>Speed 99.3 km/h Distance 0.62 km</desc>
<time>2011-03-24T15:12:01.93</time>
<name>57</name>
</trkpt>
<trkpt lat="49.526082" lon="9.204815">
<ele>504.5</ele>
<speed>101</speed>
<course>176.6</course>
<desc>Speed 101 km/h Distance 0.64 km</desc>
<time>2011-03-24T15:12:02.93</time>
<name>58</name>
</trkpt>
<trkpt lat="49.525830" lon="9.204838">
<ele>504.0</ele>
<speed>102</speed>
<course>174.1</course>
<desc>Speed 102 km/h Distance 0.67 km</desc>
<time>2011-03-24T15:12:03.94</time>
<name>59</name>
</trkpt>
<trkpt lat="49.525567" lon="9.204880">
<ele>504.0</ele>
<speed>107</speed>
<course>167.6</course>
<desc>Speed 107 km/h Distance 0.70 km</desc>
<time>2011-03-24T15:12:04.94</time>
<name>60</name>
</trkpt>
<trkpt lat="49.525310" lon="9.204967">
<ele>504.5</ele>
<speed>106</speed>
<course>169.3</course>
<desc>Speed 106 km/h Distance 0.73 km</desc>
<time>2011-03-24T15:12:05.93</time>
<name>61</name>
</trkpt>
<trkpt lat="49.525035" lon="9.205047">
<ele>504.5</ele>
<speed>113</speed>
<course>168.6</course>
<desc>Speed 113 km/h Distance 0.76 km</desc>
<time>2011-03-24T15:12:06.93</time>
<name>62</name>
</trkpt>
<trkpt lat="49.524755" lon="9.205133">
<ele>504.0</ele>
<speed>115</speed>
<course>169.3</course>
<desc>Speed 115 km/h Distance 0.79 km</desc>
<time>2011-03-24T15:12:07.93</time>
<name>63</name>
</trkpt>
<trkpt lat="49.524468" lon="9.205217">
<ele>503.5</ele>
<speed>117</speed>
<course>170.7</course>
<desc>Speed 117 km/h Distance 0.83 km</desc>
<time>2011-03-24T15:12:08.93</time>
<name>64</name>
</trkpt>
<trkpt lat="49.524178" lon="9.205290">
<ele>503.0</ele>
<speed>118</speed>
<course>172.0</course>
<desc>Speed 118 km/h Distance 0.86 km</desc>
<time>2011-03-24T15:12:09.93</time>
<name>65</name>
</trkpt>
<trkpt lat="49.523887" lon="9.205353">
<ele>502.0</ele>
<speed>118</speed>
<course>176.1</course>
<desc>Speed 118 km/h Distance 0.89 km</desc>
<time>2011-03-24T15:12:10.93</time>
<name>66</name>
</trkpt>
<trkpt lat="49.523565" lon="9.205387">
<ele>502.5</ele>
<speed>129</speed>
<course>177.8</course>
<desc>Speed 129 km/h Distance 0.93 km</desc>
<time>2011-03-24T15:12:11.93</time>
<name>67</name>
</trkpt>
<trkpt lat="49.523258" lon="9.205405">
<ele>502.5</ele>
<speed>122</speed>
<course>182.3</course>
<desc>Speed 122 km/h Distance 0.96 km</desc>
<time>2011-03-24T15:12:12.93</time>
<name>68</name>
</trkpt>
<trkpt lat="49.522957" lon="9.205387">
<ele>502.5</ele>
<speed>120</speed>
<course>186.9</course>
<desc>Speed 120 km/h Distance 0.99 km</desc>
<time>2011-03-24T15:12:13.92</time>
<name>69</name>
</trkpt>
<trkpt lat="49.522662" lon="9.205332">
<ele>502.5</ele>
<speed>118</speed>
<course>189.9</course>
<desc>Speed 118 km/h Distance 1.03 km</desc>
<time>2011-03-24T15:12:14.92</time>
<name>70</name>
</trkpt>
<trkpt lat="49.522357" lon="9.205250">
<ele>502.5</ele>
<speed>123</speed>
<course>192.3</course>
<desc>Speed 123 km/h Distance 1.06 km</desc>
<time>2011-03-24T15:12:15.93</time>
<name>71</name>
</trkpt>
<trkpt lat="49.522055" lon="9.205148">
<ele>502.5</ele>
<speed>124</speed>
<course>192.4</course>
<desc>Speed 124 km/h Distance 1.10 km</desc>
<time>2011-03-24T15:12:16.92</time>
<name>72</name>
</trkpt>
<trkpt lat="49.521760" lon="9.205048">
<ele>502.0</ele>
<speed>121</speed>
<course>193.9</course>
<desc>Speed 121 km/h Distance 1.13 km</desc>
<time>2011-03-24T15:12:17.93</time>
<name>73</name>
</trkpt>
<trkpt lat="49.521472" lon="9.204938">
<ele>502.0</ele>
<speed>119</speed>
<course>194.6</course>
<desc>Speed 119 km/h Distance 1.16 km</desc>
<time>2011-03-24T15:12:18.92</time>
<name>74</name>
</trkpt>
<trkpt lat="49.521188" lon="9.204825">
<ele>501.5</ele>
<speed>117</speed>
<course>195.5</course>
<desc>Speed 117 km/h Distance 1.20 km</desc>
<time>2011-03-24T15:12:19.93</time>
<name>75</name>
</trkpt>
<trkpt lat="49.520908" lon="9.204705">
<ele>501.0</ele>
<speed>117</speed>
<course>196.5</course>
<desc>Speed 117 km/h Distance 1.23 km</desc>
<time>2011-03-24T15:12:20.93</time>
<name>76</name>
</trkpt>
<trkpt lat="49.520623" lon="9.204575">
<ele>501.0</ele>
<speed>119</speed>
<course>195.8</course>
<desc>Speed 119 km/h Distance 1.26 km</desc>
<time>2011-03-24T15:12:21.92</time>
<name>77</name>
</trkpt>
<trkpt lat="49.520340" lon="9.204452">
<ele>501.0</ele>
<speed>118</speed>
<course>195.9</course>
<desc>Speed 118 km/h Distance 1.29 km</desc>
<time>2011-03-24T15:12:22.92</time>
<name>78</name>
</trkpt>
<trkpt lat="49.520048" lon="9.204323">
<ele>502.0</ele>
<speed>121</speed>
<course>191.9</course>
<desc>Speed 121 km/h Distance 1.33 km</desc>
<time>2011-03-24T15:12:23.92</time>
<name>79</name>
</trkpt>
<trkpt lat="49.519782" lon="9.204237">
<ele>502.0</ele>
<speed>111</speed>
<course>186.1</course>
<desc>Speed 111 km/h Distance 1.36 km</desc>
<time>2011-03-24T15:12:24.92</time>
<name>80</name>
</trkpt>
<trkpt lat="49.519530" lon="9.204195">
<ele>501.5</ele>
<speed>101</speed>
<course>187.6</course>
<desc>Speed 101 km/h Distance 1.39 km</desc>
<time>2011-03-24T15:12:25.92</time>
<name>81</name>
</trkpt>
<trkpt lat="49.519272" lon="9.204142">
<ele>501.5</ele>
<speed>105</speed>
<course>185.2</course>
<desc>Speed 105 km/h Distance 1.42 km</desc>
<time>2011-03-24T15:12:26.92</time>
<name>82</name>
</trkpt>
<trkpt lat="49.518835" lon="9.204080">
<ele>501.5</ele>
<speed>90.0</speed>
<course>182.4</course>
<desc>Speed 90.0 km/h Distance 1.46 km</desc>
<time>2011-03-24T15:12:28.93</time>
<name>83</name>
</trkpt>
<trkpt lat="49.518607" lon="9.204065">
<ele>503.5</ele>
<speed>90.5</speed>
<course>172.8</course>
<desc>Speed 90.5 km/h Distance 1.49 km</desc>
<time>2011-03-24T15:12:29.91</time>
<name>84</name>
</trkpt>
<trkpt lat="49.518410" lon="9.204103">
<ele>505.0</ele>
<speed>79.2</speed>
<course>162.8</course>
<desc>Speed 79.2 km/h Distance 1.51 km</desc>
<time>2011-03-24T15:12:30.91</time>
<name>85</name>
</trkpt>
<trkpt lat="49.518238" lon="9.204185">
<ele>505.0</ele>
<speed>71.4</speed>
<course>159.3</course>
<desc>Speed 71.4 km/h Distance 1.53 km</desc>
<time>2011-03-24T15:12:31.91</time>
<name>86</name>
</trkpt>
<trkpt lat="49.518067" lon="9.204285">
<ele>506.0</ele>
<speed>73.2</speed>
<course>147.6</course>
<desc>Speed 73.2 km/h Distance 1.55 km</desc>
<time>2011-03-24T15:12:32.91</time>
<name>87</name>
</trkpt>
<trkpt lat="49.517925" lon="9.204423">
<ele>504.0</ele>
<speed>67.3</speed>
<course>150.9</course>
<desc>Speed 67.3 km/h Distance 1.57 km</desc>
<time>2011-03-24T15:12:33.91</time>
<name>88</name>
</trkpt>
<trkpt lat="49.517773" lon="9.204553">
<ele>503.0</ele>
<speed>68.7</speed>
<course>144.7</course>
<desc>Speed 68.7 km/h Distance 1.59 km</desc>
<time>2011-03-24T15:12:34.91</time>
<name>89</name>
</trkpt>
<trkpt lat="49.517628" lon="9.204712">
<ele>501.0</ele>
<speed>70.8</speed>
<course>144.7</course>
<desc>Speed 70.8 km/h Distance 1.61 km</desc>
<time>2011-03-24T15:12:35.91</time>
<name>90</name>
</trkpt>
<trkpt lat="49.517482" lon="9.204872">
<ele>500.5</ele>
<speed>72.3</speed>
<course>145.4</course>
<desc>Speed 72.3 km/h Distance 1.63 km</desc>
<time>2011-03-24T15:12:36.92</time>
<name>91</name>
</trkpt>
<trkpt lat="49.517322" lon="9.205042">
<ele>500.5</ele>
<speed>77.9</speed>
<course>143.1</course>
<desc>Speed 77.9 km/h Distance 1.65 km</desc>
<time>2011-03-24T15:12:37.91</time>
<name>92</name>
</trkpt>
<trkpt lat="49.517173" lon="9.205213">
<ele>500.5</ele>
<speed>74.7</speed>
<course>141.5</course>
<desc>Speed 74.7 km/h Distance 1.67 km</desc>
<time>2011-03-24T15:12:38.91</time>
<name>93</name>
</trkpt>
<trkpt lat="49.517027" lon="9.205393">
<ele>500.5</ele>
<speed>75.6</speed>
<course>143.8</course>
<desc>Speed 75.6 km/h Distance 1.69 km</desc>
<time>2011-03-24T15:12:39.91</time>
<name>94</name>
</trkpt>
<trkpt lat="49.516872" lon="9.205568">
<ele>501.5</ele>
<speed>77.7</speed>
<course>140.3</course>
<desc>Speed 77.7 km/h Distance 1.71 km</desc>
<time>2011-03-24T15:12:40.91</time>
<name>95</name>
</trkpt>
<trkpt lat="49.516722" lon="9.205760">
<ele>502.5</ele>
<speed>78.3</speed>
<course>138.1</course>
<desc>Speed 78.3 km/h Distance 1.74 km</desc>
<time>2011-03-24T15:12:41.90</time>
<name>96</name>
</trkpt>
<trkpt lat="49.516573" lon="9.205965">
<ele>502.5</ele>
<speed>79.8</speed>
<course>135.1</course>
<desc>Speed 79.8 km/h Distance 1.76 km</desc>
<time>2011-03-24T15:12:42.90</time>
<name>97</name>
</trkpt>
<trkpt lat="49.516430" lon="9.206185">
<ele>502.5</ele>
<speed>81.2</speed>
<course>128.7</course>
<desc>Speed 81.2 km/h Distance 1.78 km</desc>
<time>2011-03-24T15:12:43.91</time>
<name>98</name>
</trkpt>
<trkpt lat="49.516302" lon="9.206432">
<ele>501.5</ele>
<speed>81.5</speed>
<course>125.5</course>
<desc>Speed 81.5 km/h Distance 1.80 km</desc>
<time>2011-03-24T15:12:44.90</time>
<name>99</name>
</trkpt>
<trkpt lat="49.516173" lon="9.206708">
<ele>501.0</ele>
<speed>87.5</speed>
<course>121.1</course>
<desc>Speed 87.5 km/h Distance 1.83 km</desc>
<time>2011-03-24T15:12:45.91</time>
<name>100</name>
</trkpt>
<trkpt lat="49.516055" lon="9.207010">
<ele>500.5</ele>
<speed>90.3</speed>
<course>116.2</course>
<desc>Speed 90.3 km/h Distance 1.85 km</desc>
<time>2011-03-24T15:12:46.91</time>
<name>101</name>
</trkpt>
<trkpt lat="49.515953" lon="9.207328">
<ele>501.0</ele>
<speed>92.7</speed>
<course>108.8</course>
<desc>Speed 92.7 km/h Distance 1.88 km</desc>
<time>2011-03-24T15:12:47.90</time>
<name>102</name>
</trkpt>
<trkpt lat="49.515878" lon="9.207668">
<ele>501.0</ele>
<speed>94.5</speed>
<course>109.5</course>
<desc>Speed 94.5 km/h Distance 1.91 km</desc>
<time>2011-03-24T15:12:48.91</time>
<name>103</name>
</trkpt>
<trkpt lat="49.515795" lon="9.208030">
<ele>501.0</ele>
<speed>99.8</speed>
<course>108.8</course>
<desc>Speed 99.8 km/h Distance 1.93 km</desc>
<time>2011-03-24T15:12:49.90</time>
<name>104</name>
</trkpt>
<trkpt lat="49.515715" lon="9.208392">
<ele>501.0</ele>
<speed>99.6</speed>
<course>108.7</course>
<desc>Speed 99.6 km/h Distance 1.96 km</desc>
<time>2011-03-24T15:12:50.90</time>
<name>105</name>
</trkpt>
<trkpt lat="49.515630" lon="9.208778">
<ele>499.0</ele>
<speed>106</speed>
<course>110.4</course>
<desc>Speed 106 km/h Distance 1.99 km</desc>
<time>2011-03-24T15:12:51.90</time>
<name>106</name>
</trkpt>
<trkpt lat="49.515540" lon="9.209152">
<ele>499.5</ele>
<speed>105</speed>
<course>108.8</course>
<desc>Speed 105 km/h Distance 2.02 km</desc>
<time>2011-03-24T15:12:52.89</time>
<name>107</name>
</trkpt>
<trkpt lat="49.515455" lon="9.209537">
<ele>499.5</ele>
<speed>106</speed>
<course>110.6</course>
<desc>Speed 106 km/h Distance 2.05 km</desc>
<time>2011-03-24T15:12:53.90</time>
<name>108</name>
</trkpt>
<trkpt lat="49.515360" lon="9.209927">
<ele>499.5</ele>
<speed>108</speed>
<course>111.6</course>
<desc>Speed 108 km/h Distance 2.08 km</desc>
<time>2011-03-24T15:12:54.91</time>
<name>109</name>
</trkpt>
<trkpt lat="49.515260" lon="9.210317">
<ele>499.5</ele>
<speed>109</speed>
<course>110.1</course>
<desc>Speed 109 km/h Distance 2.11 km</desc>
<time>2011-03-24T15:12:55.89</time>
<name>110</name>
</trkpt>
<trkpt lat="49.515165" lon="9.210717">
<ele>499.5</ele>
<speed>112</speed>
<course>107.5</course>
<desc>Speed 112 km/h Distance 2.14 km</desc>
<time>2011-03-24T15:12:56.88</time>
<name>111</name>
</trkpt>
<trkpt lat="49.515075" lon="9.211155">
<ele>499.5</ele>
<speed>119</speed>
<course>109.2</course>
<desc>Speed 119 km/h Distance 2.17 km</desc>
<time>2011-03-24T15:12:57.88</time>
<name>112</name>
</trkpt>
<trkpt lat="49.514978" lon="9.211583">
<ele>499.5</ele>
<speed>117</speed>
<course>108.9</course>
<desc>Speed 117 km/h Distance 2.21 km</desc>
<time>2011-03-24T15:12:58.88</time>
<name>113</name>
</trkpt>
<trkpt lat="49.514883" lon="9.212012">
<ele>499.5</ele>
<speed>118</speed>
<course>109.4</course>
<desc>Speed 118 km/h Distance 2.24 km</desc>
<time>2011-03-24T15:12:59.87</time>
<name>114</name>
</trkpt>
<trkpt lat="49.514783" lon="9.212450">
<ele>499.5</ele>
<speed>121</speed>
<course>111.5</course>
<desc>Speed 121 km/h Distance 2.27 km</desc>
<time>2011-03-24T15:13:00.87</time>
<name>115</name>
</trkpt>
<trkpt lat="49.514673" lon="9.212880">
<ele>499.5</ele>
<speed>119</speed>
<course>113.4</course>
<desc>Speed 119 km/h Distance 2.31 km</desc>
<time>2011-03-24T15:13:01.87</time>
<name>116</name>
</trkpt>
<trkpt lat="49.514550" lon="9.213320">
<ele>500.5</ele>
<speed>121</speed>
<course>115.6</course>
<desc>Speed 121 km/h Distance 2.34 km</desc>
<time>2011-03-24T15:13:02.88</time>
<name>117</name>
</trkpt>
<trkpt lat="49.514422" lon="9.213733">
<ele>500.5</ele>
<speed>119</speed>
<course>119.9</course>
<desc>Speed 119 km/h Distance 2.37 km</desc>
<time>2011-03-24T15:13:03.87</time>
<name>118</name>
</trkpt>
<trkpt lat="49.514273" lon="9.214130">
<ele>499.0</ele>
<speed>121</speed>
<course>122.4</course>
<desc>Speed 121 km/h Distance 2.41 km</desc>
<time>2011-03-24T15:13:04.88</time>
<name>119</name>
</trkpt>
<trkpt lat="49.514115" lon="9.214515">
<ele>499.0</ele>
<speed>120</speed>
<course>124.0</course>
<desc>Speed 120 km/h Distance 2.44 km</desc>
<time>2011-03-24T15:13:05.87</time>
<name>120</name>
</trkpt>
<trkpt lat="49.513945" lon="9.214903">
<ele>499.0</ele>
<speed>123</speed>
<course>126.0</course>
<desc>Speed 123 km/h Distance 2.47 km</desc>
<time>2011-03-24T15:13:06.87</time>
<name>121</name>
</trkpt>
<trkpt lat="49.513753" lon="9.215310">
<ele>498.5</ele>
<speed>132</speed>
<course>126.7</course>
<desc>Speed 132 km/h Distance 2.51 km</desc>
<time>2011-03-24T15:13:07.87</time>
<name>122</name>
</trkpt>
<trkpt lat="49.513558" lon="9.215713">
<ele>498.0</ele>
<speed>133</speed>
<course>130.2</course>
<desc>Speed 133 km/h Distance 2.55 km</desc>
<time>2011-03-24T15:13:08.87</time>
<name>123</name>
</trkpt>
<trkpt lat="49.513362" lon="9.216072">
<ele>497.0</ele>
<speed>123</speed>
<course>130.4</course>
<desc>Speed 123 km/h Distance 2.58 km</desc>
<time>2011-03-24T15:13:09.86</time>
<name>124</name>
</trkpt>
<trkpt lat="49.513153" lon="9.216448">
<ele>496.5</ele>
<speed>128</speed>
<course>129.0</course>
<desc>Speed 128 km/h Distance 2.62 km</desc>
<time>2011-03-24T15:13:10.87</time>
<name>125</name>
</trkpt>
<trkpt lat="49.512785" lon="9.217148">
<ele>497.0</ele>
<speed>131</speed>
<course>126.5</course>
<desc>Speed 131 km/h Distance 2.68 km</desc>
<time>2011-03-24T15:13:12.88</time>
<name>126</name>
</trkpt>
<trkpt lat="49.512587" lon="9.217562">
<ele>497.5</ele>
<speed>131</speed>
<course>126.6</course>
<desc>Speed 131 km/h Distance 2.72 km</desc>
<time>2011-03-24T15:13:13.87</time>
<name>127</name>
</trkpt>
<trkpt lat="49.512385" lon="9.217980">
<ele>498.0</ele>
<speed>133</speed>
<course>123.1</course>
<desc>Speed 133 km/h Distance 2.76 km</desc>
<time>2011-03-24T15:13:14.87</time>
<name>128</name>
</trkpt>
<trkpt lat="49.512198" lon="9.218422">
<ele>497.5</ele>
<speed>133</speed>
<course>124.6</course>
<desc>Speed 133 km/h Distance 2.79 km</desc>
<time>2011-03-24T15:13:15.87</time>
<name>129</name>
</trkpt>
<trkpt lat="49.512007" lon="9.218850">
<ele>498.5</ele>
<speed>135</speed>
<course>125.9</course>
<desc>Speed 135 km/h Distance 2.83 km</desc>
<time>2011-03-24T15:13:16.87</time>
<name>130</name>
</trkpt>
<trkpt lat="49.511798" lon="9.219293">
<ele>498.0</ele>
<speed>142</speed>
<course>123.6</course>
<desc>Speed 142 km/h Distance 2.87 km</desc>
<time>2011-03-24T15:13:17.87</time>
<name>131</name>
</trkpt>
<trkpt lat="49.511608" lon="9.219733">
<ele>498.5</ele>
<speed>137</speed>
<course>122.8</course>
<desc>Speed 137 km/h Distance 2.91 km</desc>
<time>2011-03-24T15:13:18.86</time>
<name>132</name>
</trkpt>
<trkpt lat="49.511423" lon="9.220175">
<ele>498.5</ele>
<speed>136</speed>
<course>121.6</course>
<desc>Speed 136 km/h Distance 2.95 km</desc>
<time>2011-03-24T15:13:19.87</time>
<name>133</name>
</trkpt>
<trkpt lat="49.511247" lon="9.220617">
<ele>499.0</ele>
<speed>134</speed>
<course>121.0</course>
<desc>Speed 134 km/h Distance 2.98 km</desc>
<time>2011-03-24T15:13:20.86</time>
<name>134</name>
</trkpt>
<trkpt lat="49.510933" lon="9.221418">
<ele>498.5</ele>
<speed>134</speed>
<course>122.6</course>
<desc>Speed 134 km/h Distance 3.05 km</desc>
<time>2011-03-24T15:13:22.87</time>
<name>135</name>
</trkpt>
<trkpt lat="49.510602" lon="9.222217">
<ele>499.5</ele>
<speed>135</speed>
<course>120.4</course>
<desc>Speed 135 km/h Distance 3.12 km</desc>
<time>2011-03-24T15:13:24.86</time>
<name>136</name>
</trkpt>
<trkpt lat="49.510072" lon="9.223610">
<ele>502.5</ele>
<speed>136</speed>
<course>117.5</course>
<desc>Speed 136 km/h Distance 3.24 km</desc>
<time>2011-03-24T15:13:28.86</time>
<name>137</name>
</trkpt>
<trkpt lat="49.509688" lon="9.224742">
<ele>500.5</ele>
<speed>136</speed>
<course>115.3</course>
<desc>Speed 136 km/h Distance 3.33 km</desc>
<time>2011-03-24T15:13:32.86</time>
<name>138</name>
</trkpt>
<trkpt lat="49.509417" lon="9.225625">
<ele>502.5</ele>
<speed>136</speed>
<course>90.7</course>
<desc>Speed 136 km/h Distance 3.40 km</desc>
<time>2011-03-24T15:13:38.86</time>
<name>139</name>
</trkpt>
<trkpt lat="49.509413" lon="9.226075">
<ele>498.0</ele>
<speed>136</speed>
<course>110.6</course>
<desc>Speed 136 km/h Distance 3.43 km</desc>
<time>2011-03-24T15:13:44.85</time>
<name>140</name>
</trkpt>
<trkpt lat="49.509263" lon="9.226688">
<ele>497.0</ele>
<speed>136</speed>
<course>119.8</course>
<desc>Speed 136 km/h Distance 3.48 km</desc>
<time>2011-03-24T15:13:50.84</time>
<name>141</name>
</trkpt>
<trkpt lat="49.508410" lon="9.228985">
<ele>497.0</ele>
<speed>143</speed>
<course>100.0</course>
<desc>Speed 143 km/h Distance 3.67 km</desc>
<time>2011-03-24T15:13:54.83</time>
<name>142</name>
</trkpt>
<trkpt lat="49.508278" lon="9.230130">
<ele>496.5</ele>
<speed>143</speed>
<course>107.0</course>
<desc>Speed 143 km/h Distance 3.76 km</desc>
<time>2011-03-24T15:13:57.83</time>
<name>143</name>
</trkpt>
<trkpt lat="49.507777" lon="9.232660">
<ele>496.5</ele>
<speed>143</speed>
<course>122.2</course>
<desc>Speed 143 km/h Distance 3.95 km</desc>
<time>2011-03-24T15:14:01.83</time>
<name>144</name>
</trkpt>
<trkpt lat="49.506378" lon="9.236078">
<ele>471.0</ele>
<speed>138</speed>
<course>131.5</course>
<desc>Speed 138 km/h Distance 4.24 km</desc>
<time>2011-03-24T15:14:06.83</time>
<name>145</name>
</trkpt>
<trkpt lat="49.505808" lon="9.237070">
<ele>470.5</ele>
<speed>138</speed>
<course>135.7</course>
<desc>Speed 138 km/h Distance 4.33 km</desc>
<time>2011-03-24T15:14:10.82</time>
<name>146</name>
</trkpt>
<trkpt lat="49.505407" lon="9.237673">
<ele>469.5</ele>
<speed>138</speed>
<course>147.8</course>
<desc>Speed 138 km/h Distance 4.40 km</desc>
<time>2011-03-24T15:14:12.82</time>
<name>147</name>
</trkpt>
<trkpt lat="49.505117" lon="9.237955">
<ele>466.5</ele>
<speed>138</speed>
<course>135.1</course>
<desc>Speed 138 km/h Distance 4.43 km</desc>
<time>2011-03-24T15:14:13.82</time>
<name>148</name>
</trkpt>
<trkpt lat="49.503370" lon="9.240633">
<ele>467.5</ele>
<speed>131</speed>
<course>121.1</course>
<desc>Speed 131 km/h Distance 4.71 km</desc>
<time>2011-03-24T15:14:18.81</time>
<name>149</name>
</trkpt>
<trkpt lat="49.502558" lon="9.242705">
<ele>472.5</ele>
<speed>132</speed>
<course>121.1</course>
<desc>Speed 132 km/h Distance 4.88 km</desc>
<time>2011-03-24T15:14:24.81</time>
<name>150</name>
</trkpt>
<trkpt lat="49.502023" lon="9.244068">
<ele>474.0</ele>
<speed>132</speed>
<course>119.5</course>
<desc>Speed 132 km/h Distance 5.00 km</desc>
<time>2011-03-24T15:14:27.81</time>
<name>151</name>
</trkpt>
<trkpt lat="49.501182" lon="9.246358">
<ele>471.0</ele>
<speed>132</speed>
<course>128.6</course>
<desc>Speed 132 km/h Distance 5.19 km</desc>
<time>2011-03-24T15:14:31.81</time>
<name>152</name>
</trkpt>
<trkpt lat="49.500230" lon="9.248195">
<ele>458.0</ele>
<speed>139</speed>
<course>129.7</course>
<desc>Speed 139 km/h Distance 5.36 km</desc>
<time>2011-03-24T15:14:35.81</time>
<name>153</name>
</trkpt>
<trkpt lat="49.498730" lon="9.250982">
<ele>469.5</ele>
<speed>139</speed>
<course>132.0</course>
<desc>Speed 139 km/h Distance 5.62 km</desc>
<time>2011-03-24T15:14:39.80</time>
<name>154</name>
</trkpt>
<trkpt lat="49.498167" lon="9.251945">
<ele>453.0</ele>
<speed>139</speed>
<course>134.6</course>
<desc>Speed 139 km/h Distance 5.71 km</desc>
<time>2011-03-24T15:14:44.80</time>
<name>155</name>
</trkpt>
<trkpt lat="49.497380" lon="9.253172">
<ele>451.5</ele>
<speed>139</speed>
<course>118.8</course>
<desc>Speed 139 km/h Distance 5.84 km</desc>
<time>2011-03-24T15:14:49.79</time>
<name>156</name>
</trkpt>
<trkpt lat="49.496282" lon="9.256247">
<ele>456.0</ele>
<speed>76.1</speed>
<course>116.5</course>
<desc>Speed 76.1 km/h Distance 6.09 km</desc>
<time>2011-03-24T15:14:54.80</time>
<name>157</name>
</trkpt>
<trkpt lat="49.495243" lon="9.259455">
<ele>455.0</ele>
<speed>52.1</speed>
<course>127.3</course>
<desc>Speed 52.1 km/h Distance 6.35 km</desc>
<time>2011-03-24T15:15:00.79</time>
<name>158</name>
</trkpt>
<trkpt lat="49.495023" lon="9.259900">
<ele>454.5</ele>
<speed>41.0</speed>
<course>128.2</course>
<desc>Speed 41.0 km/h Distance 6.39 km</desc>
<time>2011-03-24T15:15:02.79</time>
<name>159</name>
</trkpt>
<trkpt lat="49.494947" lon="9.260050">
<ele>454.0</ele>
<speed>36.5</speed>
<course>136.6</course>
<desc>Speed 36.5 km/h Distance 6.41 km</desc>
<time>2011-03-24T15:15:03.79</time>
<name>160</name>
</trkpt>
<trkpt lat="49.494870" lon="9.260162">
<ele>453.5</ele>
<speed>30.1</speed>
<course>135.2</course>
<desc>Speed 30.1 km/h Distance 6.42 km</desc>
<time>2011-03-24T15:15:04.78</time>
<name>161</name>
</trkpt>
<trkpt lat="49.494185" lon="9.261210">
<ele>464.5</ele>
<speed>8.1</speed>
<course>138.7</course>
<desc>Speed 8.1 km/h Distance 6.53 km</desc>
<time>2011-03-24T15:15:09.78</time>
<name>162</name>
</trkpt>
<trkpt lat="49.494133" lon="9.261280">
<ele>468.0</ele>
<speed>2.0</speed>
<course>90.0</course>
<desc>Speed 2.0 km/h Distance 6.53 km</desc>
<time>2011-03-24T15:15:11.77</time>
<name>163</name>
</trkpt>
<trkpt lat="49.494133" lon="9.261328">
<ele>470.0</ele>
<speed>0.1</speed>
<course>97.3</course>
<desc>Speed 0.1 km/h Distance 6.54 km</desc>
<time>2011-03-24T15:15:12.78</time>
<name>164</name>
</trkpt>
<trkpt lat="49.494130" lon="9.261368">
<ele>471.5</ele>
<speed>0.1</speed>
<course>90.0</course>
<desc>Speed 0.1 km/h Distance 6.54 km</desc>
<time>2011-03-24T15:15:13.77</time>
<name>165</name>
</trkpt>
<trkpt lat="49.494130" lon="9.261402">
<ele>473.5</ele>
<speed>0.1</speed>
<course>192.6</course>
<desc>Speed 0.1 km/h Distance 6.54 km</desc>
<time>2011-03-24T15:15:14.77</time>
<name>166</name>
</trkpt>
<trkpt lat="49.494127" lon="9.261400">
<ele>473.5</ele>
<speed>0.1</speed>
<course>90.0</course>
<desc>Speed 0.1 km/h Distance 6.54 km</desc>
<time>2011-03-24T15:15:15.77</time>
<name>167</name>
</trkpt>
<trkpt lat="49.494127" lon="9.261407">
<ele>474.0</ele>
<speed>0.4</speed>
<course>167.4</course>
<desc>Speed 0.4 km/h Distance 6.54 km</desc>
<time>2011-03-24T15:15:16.77</time>
<name>168</name>
</trkpt>
<trkpt lat="49.494125" lon="9.261408">
<ele>474.0</ele>
<speed>0.4</speed>
<course>142.8</course>
<desc>Speed 0.4 km/h Distance 6.54 km</desc>
<time>2011-03-24T15:15:17.77</time>
<name>169</name>
</trkpt>
<trkpt lat="49.494123" lon="9.261410">
<ele>474.0</ele>
<speed>0.4</speed>
<course>117.4</course>
<desc>Speed 0.4 km/h Distance 6.54 km</desc>
<time>2011-03-24T15:15:18.77</time>
<name>170</name>
</trkpt>
<trkpt lat="49.494122" lon="9.261415">
<ele>474.0</ele>
<speed>0.4</speed>
<course>117.2</course>
<desc>Speed 0.4 km/h Distance 6.54 km</desc>
<time>2011-03-24T15:15:19.77</time>
<name>171</name>
</trkpt>
<trkpt lat="49.494118" lon="9.261425">
<ele>474.5</ele>
<speed>1.0</speed>
<course>107.1</course>
<desc>Speed 1.0 km/h Distance 6.54 km</desc>
<time>2011-03-24T15:15:20.77</time>
<name>172</name>
</trkpt>
<trkpt lat="49.494117" lon="9.261433">
<ele>475.5</ele>
<speed>1.0</speed>
<course>90.0</course>
<desc>Speed 1.0 km/h Distance 6.55 km</desc>
<time>2011-03-24T15:15:21.77</time>
<name>173</name>
</trkpt>
<trkpt lat="49.494117" lon="9.261447">
<ele>476.5</ele>
<speed>1.0</speed>
<course>117.1</course>
<desc>Speed 1.0 km/h Distance 6.55 km</desc>
<time>2011-03-24T15:15:22.77</time>
<name>174</name>
</trkpt>
<trkpt lat="49.494112" lon="9.261462">
<ele>477.5</ele>
<speed>0.9</speed>
<course>117.4</course>
<desc>Speed 0.9 km/h Distance 6.55 km</desc>
<time>2011-03-24T15:15:23.77</time>
<name>175</name>
</trkpt>
<trkpt lat="49.494110" lon="9.261467">
<ele>477.5</ele>
<speed>0.5</speed>
<course>111.3</course>
<desc>Speed 0.5 km/h Distance 6.55 km</desc>
<time>2011-03-24T15:15:24.76</time>
<name>176</name>
</trkpt>
<trkpt lat="49.494108" lon="9.261473">
<ele>478.0</ele>
<speed>0.4</speed>
<course>128.1</course>
<desc>Speed 0.4 km/h Distance 6.55 km</desc>
<time>2011-03-24T15:15:25.76</time>
<name>177</name>
</trkpt>
<trkpt lat="49.494105" lon="9.261480">
<ele>478.0</ele>
<speed>0.2</speed>
<course>146.8</course>
<desc>Speed 0.2 km/h Distance 6.55 km</desc>
<time>2011-03-24T15:15:26.77</time>
<name>178</name>
</trkpt>
<trkpt lat="49.494100" lon="9.261485">
<ele>478.5</ele>
<speed>0.1</speed>
<course>150.8</course>
<desc>Speed 0.1 km/h Distance 6.55 km</desc>
<time>2011-03-24T15:15:27.76</time>
<name>179</name>
</trkpt>
<trkpt lat="49.494098" lon="9.261487">
<ele>478.5</ele>
<speed>0.2</speed>
<course>150.8</course>
<desc>Speed 0.2 km/h Distance 6.55 km</desc>
<time>2011-03-24T15:15:28.77</time>
<name>180</name>
</trkpt>
<trkpt lat="49.494097" lon="9.261488">
<ele>479.0</ele>
<speed>0.1</speed>
<course>128.1</course>
<desc>Speed 0.1 km/h Distance 6.55 km</desc>
<time>2011-03-24T15:15:29.76</time>
<name>181</name>
</trkpt>
<trkpt lat="49.494095" lon="9.261492">
<ele>479.0</ele>
<speed>0.5</speed>
<course>90.0</course>
<desc>Speed 0.5 km/h Distance 6.55 km</desc>
<time>2011-03-24T15:15:30.76</time>
<name>182</name>
</trkpt>
<trkpt lat="49.494095" lon="9.261498">
<ele>480.0</ele>
<speed>0.9</speed>
<course>347.4</course>
<desc>Speed 0.9 km/h Distance 6.55 km</desc>
<time>2011-03-24T15:15:31.76</time>
<name>183</name>
</trkpt>
<trkpt lat="49.494098" lon="9.261497">
<ele>480.5</ele>
<speed>2.1</speed>
<course>12.6</course>
<desc>Speed 2.1 km/h Distance 6.55 km</desc>
<time>2011-03-24T15:15:32.76</time>
<name>184</name>
</trkpt>
<trkpt lat="49.494100" lon="9.261497">
<ele>481.0</ele>
<speed>1.9</speed>
<course>90.0</course>
<desc>Speed 1.9 km/h Distance 6.55 km</desc>
<time>2011-03-24T15:15:33.76</time>
<name>185</name>
</trkpt>
<trkpt lat="49.494100" lon="9.261502">
<ele>481.5</ele>
<speed>1.3</speed>
<course>151.4</course>
<desc>Speed 1.3 km/h Distance 6.55 km</desc>
<time>2011-03-24T15:15:34.77</time>
<name>186</name>
</trkpt>
<trkpt lat="49.494090" lon="9.261510">
<ele>482.5</ele>
<speed>0.6</speed>
<course>167.4</course>
<desc>Speed 0.6 km/h Distance 6.55 km</desc>
<time>2011-03-24T15:15:35.77</time>
<name>187</name>
</trkpt>
<trkpt lat="49.494088" lon="9.261512">
<ele>482.5</ele>
<speed>0.2</speed>
<course>161.2</course>
<desc>Speed 0.2 km/h Distance 6.55 km</desc>
<time>2011-03-24T15:15:36.75</time>
<name>188</name>
</trkpt>
<trkpt lat="49.494082" lon="9.261515">
<ele>482.5</ele>
<speed>0.3</speed>
<course>126.1</course>
<desc>Speed 0.3 km/h Distance 6.55 km</desc>
<time>2011-03-24T15:15:37.75</time>
<name>189</name>
</trkpt>
<trkpt lat="49.494080" lon="9.261518">
<ele>482.5</ele>
<speed>0.5</speed>
<course>128.1</course>
<desc>Speed 0.5 km/h Distance 6.55 km</desc>
<time>2011-03-24T15:15:38.76</time>
<name>190</name>
</trkpt>
<trkpt lat="49.494078" lon="9.261522">
<ele>483.0</ele>
<speed>0.2</speed>
<course>139.1</course>
<desc>Speed 0.2 km/h Distance 6.55 km</desc>
<time>2011-03-24T15:15:39.75</time>
<name>191</name>
</trkpt>
<trkpt lat="49.494073" lon="9.261528">
<ele>483.0</ele>
<speed>1.2</speed>
<course>116.1</course>
<desc>Speed 1.2 km/h Distance 6.56 km</desc>
<time>2011-03-24T15:15:40.76</time>
<name>192</name>
</trkpt>
<trkpt lat="49.494062" lon="9.261565">
<ele>481.5</ele>
<speed>9.3</speed>
<course>106.4</course>
<desc>Speed 9.3 km/h Distance 6.56 km</desc>
<time>2011-03-24T15:15:41.75</time>
<name>193</name>
</trkpt>
<trkpt lat="49.494047" lon="9.261643">
<ele>481.5</ele>
<speed>19.6</speed>
<course>69.5</course>
<desc>Speed 19.6 km/h Distance 6.56 km</desc>
<time>2011-03-24T15:15:42.75</time>
<name>194</name>
</trkpt>
<trkpt lat="49.494075" lon="9.261760">
<ele>482.0</ele>
<speed>32.1</speed>
<course>64.7</course>
<desc>Speed 32.1 km/h Distance 6.57 km</desc>
<time>2011-03-24T15:15:43.77</time>
<name>195</name>
</trkpt>
<trkpt lat="49.494175" lon="9.262085">
<ele>481.5</ele>
<speed>48.4</speed>
<course>56.5</course>
<desc>Speed 48.4 km/h Distance 6.60 km</desc>
<time>2011-03-24T15:15:45.76</time>
<name>196</name>
</trkpt>
<trkpt lat="49.494357" lon="9.262508">
<ele>483.0</ele>
<speed>69.3</speed>
<course>58.9</course>
<desc>Speed 69.3 km/h Distance 6.64 km</desc>
<time>2011-03-24T15:15:47.75</time>
<name>197</name>
</trkpt>
<trkpt lat="49.494450" lon="9.262747">
<ele>484.0</ele>
<speed>72.9</speed>
<course>62.4</course>
<desc>Speed 72.9 km/h Distance 6.66 km</desc>
<time>2011-03-24T15:15:48.75</time>
<name>198</name>
</trkpt>
<trkpt lat="49.494548" lon="9.263037">
<ele>484.0</ele>
<speed>84.9</speed>
<course>57.7</course>
<desc>Speed 84.9 km/h Distance 6.68 km</desc>
<time>2011-03-24T15:15:49.76</time>
<name>199</name>
</trkpt>
<trkpt lat="49.494663" lon="9.263317">
<ele>484.5</ele>
<speed>86.3</speed>
<course>59.2</course>
<desc>Speed 86.3 km/h Distance 6.70 km</desc>
<time>2011-03-24T15:15:50.74</time>
<name>200</name>
</trkpt>
<trkpt lat="49.494863" lon="9.263833">
<ele>484.5</ele>
<speed>80.1</speed>
<course>55.3</course>
<desc>Speed 80.1 km/h Distance 6.75 km</desc>
<time>2011-03-24T15:15:52.75</time>
<name>201</name>
</trkpt>
<trkpt lat="49.495340" lon="9.264893">
<ele>485.5</ele>
<speed>112</speed>
<course>54.0</course>
<desc>Speed 112 km/h Distance 6.84 km</desc>
<time>2011-03-24T15:15:55.76</time>
<name>202</name>
</trkpt>
<trkpt lat="49.495483" lon="9.265197">
<ele>486.0</ele>
<speed>112</speed>
<course>53.8</course>
<desc>Speed 112 km/h Distance 6.87 km</desc>
<time>2011-03-24T15:15:56.74</time>
<name>203</name>
</trkpt>
<trkpt lat="49.495892" lon="9.266055">
<ele>486.5</ele>
<speed>123</speed>
<course>52.8</course>
<desc>Speed 123 km/h Distance 6.94 km</desc>
<time>2011-03-24T15:15:58.75</time>
<name>204</name>
</trkpt>
<trkpt lat="49.496082" lon="9.266440">
<ele>486.5</ele>
<speed>126</speed>
<course>52.8</course>
<desc>Speed 126 km/h Distance 6.98 km</desc>
<time>2011-03-24T15:15:59.75</time>
<name>205</name>
</trkpt>
<trkpt lat="49.496280" lon="9.266842">
<ele>486.0</ele>
<speed>132</speed>
<course>50.1</course>
<desc>Speed 132 km/h Distance 7.02 km</desc>
<time>2011-03-24T15:16:00.75</time>
<name>206</name>
</trkpt>
<trkpt lat="49.496498" lon="9.267243">
<ele>486.0</ele>
<speed>132</speed>
<course>49.2</course>
<desc>Speed 132 km/h Distance 7.05 km</desc>
<time>2011-03-24T15:16:01.74</time>
<name>207</name>
</trkpt>
<trkpt lat="49.496723" lon="9.267645">
<ele>486.0</ele>
<speed>133</speed>
<course>48.6</course>
<desc>Speed 133 km/h Distance 7.09 km</desc>
<time>2011-03-24T15:16:02.75</time>
<name>208</name>
</trkpt>
<trkpt lat="49.496948" lon="9.268038">
<ele>486.5</ele>
<speed>134</speed>
<course>47.2</course>
<desc>Speed 134 km/h Distance 7.13 km</desc>
<time>2011-03-24T15:16:03.75</time>
<name>209</name>
</trkpt>
<trkpt lat="49.497177" lon="9.268418">
<ele>485.5</ele>
<speed>134</speed>
<course>46.3</course>
<desc>Speed 134 km/h Distance 7.17 km</desc>
<time>2011-03-24T15:16:04.75</time>
<name>210</name>
</trkpt>
<trkpt lat="49.497408" lon="9.268792">
<ele>485.5</ele>
<speed>134</speed>
<course>47.1</course>
<desc>Speed 134 km/h Distance 7.21 km</desc>
<time>2011-03-24T15:16:05.74</time>
<name>211</name>
</trkpt>
<trkpt lat="49.497637" lon="9.269170">
<ele>485.0</ele>
<speed>134</speed>
<course>46.4</course>
<desc>Speed 134 km/h Distance 7.24 km</desc>
<time>2011-03-24T15:16:06.74</time>
<name>212</name>
</trkpt>
<trkpt lat="49.497867" lon="9.269542">
<ele>485.0</ele>
<speed>134</speed>
<course>47.6</course>
<desc>Speed 134 km/h Distance 7.28 km</desc>
<time>2011-03-24T15:16:07.75</time>
<name>213</name>
</trkpt>
<trkpt lat="49.498090" lon="9.269918">
<ele>484.5</ele>
<speed>133</speed>
<course>47.7</course>
<desc>Speed 133 km/h Distance 7.32 km</desc>
<time>2011-03-24T15:16:08.75</time>
<name>214</name>
</trkpt>
<trkpt lat="49.498313" lon="9.270297">
<ele>484.5</ele>
<speed>132</speed>
<course>47.7</course>
<desc>Speed 132 km/h Distance 7.35 km</desc>
<time>2011-03-24T15:16:09.74</time>
<name>215</name>
</trkpt>
<trkpt lat="49.498532" lon="9.270667">
<ele>484.5</ele>
<speed>130</speed>
<course>48.0</course>
<desc>Speed 130 km/h Distance 7.39 km</desc>
<time>2011-03-24T15:16:10.74</time>
<name>216</name>
</trkpt>
<trkpt lat="49.498745" lon="9.271032">
<ele>484.5</ele>
<speed>128</speed>
<course>47.6</course>
<desc>Speed 128 km/h Distance 7.42 km</desc>
<time>2011-03-24T15:16:11.74</time>
<name>217</name>
</trkpt>
<trkpt lat="49.498957" lon="9.271388">
<ele>484.5</ele>
<speed>125</speed>
<course>47.5</course>
<desc>Speed 125 km/h Distance 7.46 km</desc>
<time>2011-03-24T15:16:12.74</time>
<name>218</name>
</trkpt>
<trkpt lat="49.499163" lon="9.271735">
<ele>483.5</ele>
<speed>121</speed>
<course>47.0</course>
<desc>Speed 121 km/h Distance 7.49 km</desc>
<time>2011-03-24T15:16:13.74</time>
<name>219</name>
</trkpt>
<trkpt lat="49.499358" lon="9.272057">
<ele>483.0</ele>
<speed>115</speed>
<course>47.7</course>
<desc>Speed 115 km/h Distance 7.53 km</desc>
<time>2011-03-24T15:16:14.74</time>
<name>220</name>
</trkpt>
<trkpt lat="49.499538" lon="9.272362">
<ele>483.0</ele>
<speed>108</speed>
<course>48.8</course>
<desc>Speed 108 km/h Distance 7.56 km</desc>
<time>2011-03-24T15:16:15.74</time>
<name>221</name>
</trkpt>
<trkpt lat="49.499703" lon="9.272652">
<ele>482.5</ele>
<speed>101</speed>
<course>48.4</course>
<desc>Speed 101 km/h Distance 7.58 km</desc>
<time>2011-03-24T15:16:16.73</time>
<name>222</name>
</trkpt>
<trkpt lat="49.499865" lon="9.272932">
<ele>482.5</ele>
<speed>97.6</speed>
<course>48.3</course>
<desc>Speed 97.6 km/h Distance 7.61 km</desc>
<time>2011-03-24T15:16:17.73</time>
<name>223</name>
</trkpt>
<trkpt lat="49.500018" lon="9.273197">
<ele>482.0</ele>
<speed>92.4</speed>
<course>48.1</course>
<desc>Speed 92.4 km/h Distance 7.64 km</desc>
<time>2011-03-24T15:16:18.73</time>
<name>224</name>
</trkpt>
<trkpt lat="49.500165" lon="9.273448">
<ele>482.0</ele>
<speed>87.6</speed>
<course>48.7</course>
<desc>Speed 87.6 km/h Distance 7.66 km</desc>
<time>2011-03-24T15:16:19.73</time>
<name>225</name>
</trkpt>
<trkpt lat="49.500305" lon="9.273693">
<ele>481.5</ele>
<speed>84.9</speed>
<course>49.0</course>
<desc>Speed 84.9 km/h Distance 7.68 km</desc>
<time>2011-03-24T15:16:20.74</time>
<name>226</name>
</trkpt>
<trkpt lat="49.500442" lon="9.273935">
<ele>481.5</ele>
<speed>82.9</speed>
<course>50.6</course>
<desc>Speed 82.9 km/h Distance 7.71 km</desc>
<time>2011-03-24T15:16:21.73</time>
<name>227</name>
</trkpt>
<trkpt lat="49.500572" lon="9.274178">
<ele>481.5</ele>
<speed>81.9</speed>
<course>51.8</course>
<desc>Speed 81.9 km/h Distance 7.73 km</desc>
<time>2011-03-24T15:16:22.74</time>
<name>228</name>
</trkpt>
<trkpt lat="49.500697" lon="9.274423">
<ele>481.5</ele>
<speed>80.8</speed>
<course>54.7</course>
<desc>Speed 80.8 km/h Distance 7.75 km</desc>
<time>2011-03-24T15:16:23.72</time>
<name>229</name>
</trkpt>
<trkpt lat="49.500813" lon="9.274677">
<ele>481.5</ele>
<speed>80.5</speed>
<course>55.7</course>
<desc>Speed 80.5 km/h Distance 7.78 km</desc>
<time>2011-03-24T15:16:24.73</time>
<name>230</name>
</trkpt>
<trkpt lat="49.500928" lon="9.274937">
<ele>481.5</ele>
<speed>81.2</speed>
<course>57.7</course>
<desc>Speed 81.2 km/h Distance 7.80 km</desc>
<time>2011-03-24T15:16:25.72</time>
<name>231</name>
</trkpt>
<trkpt lat="49.501038" lon="9.275205">
<ele>481.5</ele>
<speed>81.6</speed>
<course>59.4</course>
<desc>Speed 81.6 km/h Distance 7.82 km</desc>
<time>2011-03-24T15:16:26.73</time>
<name>232</name>
</trkpt>
<trkpt lat="49.501143" lon="9.275478">
<ele>481.5</ele>
<speed>82.1</speed>
<course>61.1</course>
<desc>Speed 82.1 km/h Distance 7.84 km</desc>
<time>2011-03-24T15:16:27.73</time>
<name>233</name>
</trkpt>
<trkpt lat="49.501245" lon="9.275762">
<ele>481.5</ele>
<speed>83.8</speed>
<course>63.2</course>
<desc>Speed 83.8 km/h Distance 7.87 km</desc>
<time>2011-03-24T15:16:28.73</time>
<name>234</name>
</trkpt>
<trkpt lat="49.501340" lon="9.276052">
<ele>481.0</ele>
<speed>84.6</speed>
<course>65.0</course>
<desc>Speed 84.6 km/h Distance 7.89 km</desc>
<time>2011-03-24T15:16:29.73</time>
<name>235</name>
</trkpt>
<trkpt lat="49.501430" lon="9.276348">
<ele>481.0</ele>
<speed>85.0</speed>
<course>67.8</course>
<desc>Speed 85.0 km/h Distance 7.91 km</desc>
<time>2011-03-24T15:16:30.73</time>
<name>236</name>
</trkpt>
<trkpt lat="49.501510" lon="9.276650">
<ele>480.5</ele>
<speed>85.7</speed>
<course>69.4</course>
<desc>Speed 85.7 km/h Distance 7.94 km</desc>
<time>2011-03-24T15:16:31.73</time>
<name>237</name>
</trkpt>
<trkpt lat="49.501583" lon="9.276950">
<ele>479.5</ele>
<speed>83.9</speed>
<course>70.5</course>
<desc>Speed 83.9 km/h Distance 7.96 km</desc>
<time>2011-03-24T15:16:32.73</time>
<name>238</name>
</trkpt>
<trkpt lat="49.501653" lon="9.277255">
<ele>479.5</ele>
<speed>84.1</speed>
<course>72.0</course>
<desc>Speed 84.1 km/h Distance 7.98 km</desc>
<time>2011-03-24T15:16:33.73</time>
<name>239</name>
</trkpt>
<trkpt lat="49.501718" lon="9.277563">
<ele>479.5</ele>
<speed>84.3</speed>
<course>72.0</course>
<desc>Speed 84.3 km/h Distance 8.01 km</desc>
<time>2011-03-24T15:16:34.72</time>
<name>240</name>
</trkpt>
<trkpt lat="49.501783" lon="9.277872">
<ele>480.0</ele>
<speed>83.8</speed>
<course>71.6</course>
<desc>Speed 83.8 km/h Distance 8.03 km</desc>
<time>2011-03-24T15:16:35.72</time>
<name>241</name>
</trkpt>
<trkpt lat="49.501847" lon="9.278165">
<ele>479.0</ele>
<speed>81.3</speed>
<course>71.9</course>
<desc>Speed 81.3 km/h Distance 8.05 km</desc>
<time>2011-03-24T15:16:36.73</time>
<name>242</name>
</trkpt>
<trkpt lat="49.501910" lon="9.278463">
<ele>478.5</ele>
<speed>81.8</speed>
<course>71.9</course>
<desc>Speed 81.8 km/h Distance 8.08 km</desc>
<time>2011-03-24T15:16:37.72</time>
<name>243</name>
</trkpt>
<trkpt lat="49.501973" lon="9.278762">
<ele>478.5</ele>
<speed>82.1</speed>
<course>71.9</course>
<desc>Speed 82.1 km/h Distance 8.10 km</desc>
<time>2011-03-24T15:16:38.72</time>
<name>244</name>
</trkpt>
<trkpt lat="49.502038" lon="9.279068">
<ele>478.0</ele>
<speed>84.3</speed>
<course>73.6</course>
<desc>Speed 84.3 km/h Distance 8.12 km</desc>
<time>2011-03-24T15:16:39.72</time>
<name>245</name>
</trkpt>
<trkpt lat="49.502102" lon="9.279400">
<ele>478.0</ele>
<speed>90.1</speed>
<course>72.9</course>
<desc>Speed 90.1 km/h Distance 8.15 km</desc>
<time>2011-03-24T15:16:40.73</time>
<name>246</name>
</trkpt>
<trkpt lat="49.502168" lon="9.279733">
<ele>477.0</ele>
<speed>91.4</speed>
<course>73.6</course>
<desc>Speed 91.4 km/h Distance 8.17 km</desc>
<time>2011-03-24T15:16:41.72</time>
<name>247</name>
</trkpt>
<trkpt lat="49.502233" lon="9.280073">
<ele>476.5</ele>
<speed>92.6</speed>
<course>74.4</course>
<desc>Speed 92.6 km/h Distance 8.20 km</desc>
<time>2011-03-24T15:16:42.72</time>
<name>248</name>
</trkpt>
<trkpt lat="49.502297" lon="9.280423">
<ele>475.5</ele>
<speed>95.3</speed>
<course>74.5</course>
<desc>Speed 95.3 km/h Distance 8.22 km</desc>
<time>2011-03-24T15:16:43.72</time>
<name>249</name>
</trkpt>
<trkpt lat="49.502363" lon="9.280793">
<ele>474.5</ele>
<speed>101</speed>
<course>75.8</course>
<desc>Speed 101 km/h Distance 8.25 km</desc>
<time>2011-03-24T15:16:44.72</time>
<name>250</name>
</trkpt>
<trkpt lat="49.502432" lon="9.281210">
<ele>474.0</ele>
<speed>112</speed>
<course>78.4</course>
<desc>Speed 112 km/h Distance 8.28 km</desc>
<time>2011-03-24T15:16:45.73</time>
<name>251</name>
</trkpt>
<trkpt lat="49.502492" lon="9.281662">
<ele>474.0</ele>
<speed>120</speed>
<course>78.7</course>
<desc>Speed 120 km/h Distance 8.32 km</desc>
<time>2011-03-24T15:16:46.72</time>
<name>252</name>
</trkpt>
<trkpt lat="49.502550" lon="9.282112">
<ele>474.0</ele>
<speed>119</speed>
<course>79.7</course>
<desc>Speed 119 km/h Distance 8.35 km</desc>
<time>2011-03-24T15:16:47.72</time>
<name>253</name>
</trkpt>
<trkpt lat="49.502603" lon="9.282565">
<ele>474.0</ele>
<speed>121</speed>
<course>81.1</course>
<desc>Speed 121 km/h Distance 8.38 km</desc>
<time>2011-03-24T15:16:48.72</time>
<name>254</name>
</trkpt>
<trkpt lat="49.502648" lon="9.283010">
<ele>474.0</ele>
<speed>118</speed>
<course>81.2</course>
<desc>Speed 118 km/h Distance 8.42 km</desc>
<time>2011-03-24T15:16:49.72</time>
<name>255</name>
</trkpt>
<trkpt lat="49.502693" lon="9.283458">
<ele>473.0</ele>
<speed>118</speed>
<course>80.4</course>
<desc>Speed 118 km/h Distance 8.45 km</desc>
<time>2011-03-24T15:16:50.72</time>
<name>256</name>
</trkpt>
<trkpt lat="49.502742" lon="9.283900">
<ele>471.5</ele>
<speed>117</speed>
<course>79.7</course>
<desc>Speed 117 km/h Distance 8.48 km</desc>
<time>2011-03-24T15:16:51.71</time>
<name>257</name>
</trkpt>
<trkpt lat="49.502793" lon="9.284338">
<ele>470.5</ele>
<speed>117</speed>
<course>79.7</course>
<desc>Speed 117 km/h Distance 8.51 km</desc>
<time>2011-03-24T15:16:52.71</time>
<name>258</name>
</trkpt>
<trkpt lat="49.502845" lon="9.284777">
<ele>469.5</ele>
<speed>116</speed>
<course>79.8</course>
<desc>Speed 116 km/h Distance 8.55 km</desc>
<time>2011-03-24T15:16:53.71</time>
<name>259</name>
</trkpt>
<trkpt lat="49.502895" lon="9.285207">
<ele>469.0</ele>
<speed>114</speed>
<course>80.2</course>
<desc>Speed 114 km/h Distance 8.58 km</desc>
<time>2011-03-24T15:16:54.71</time>
<name>260</name>
</trkpt>
<trkpt lat="49.502943" lon="9.285637">
<ele>469.0</ele>
<speed>114</speed>
<course>79.9</course>
<desc>Speed 114 km/h Distance 8.61 km</desc>
<time>2011-03-24T15:16:55.71</time>
<name>261</name>
</trkpt>
<trkpt lat="49.502993" lon="9.286068">
<ele>469.0</ele>
<speed>115</speed>
<course>83.7</course>
<desc>Speed 115 km/h Distance 8.64 km</desc>
<time>2011-03-24T15:16:56.71</time>
<name>262</name>
</trkpt>
<trkpt lat="49.503027" lon="9.286533">
<ele>469.0</ele>
<speed>122</speed>
<course>83.3</course>
<desc>Speed 122 km/h Distance 8.67 km</desc>
<time>2011-03-24T15:16:57.71</time>
<name>263</name>
</trkpt>
<trkpt lat="49.503065" lon="9.287035">
<ele>468.5</ele>
<speed>131</speed>
<course>83.2</course>
<desc>Speed 131 km/h Distance 8.71 km</desc>
<time>2011-03-24T15:16:58.70</time>
<name>264</name>
</trkpt>
<trkpt lat="49.503105" lon="9.287553">
<ele>468.5</ele>
<speed>136</speed>
<course>82.4</course>
<desc>Speed 136 km/h Distance 8.75 km</desc>
<time>2011-03-24T15:16:59.70</time>
<name>265</name>
</trkpt>
<trkpt lat="49.503153" lon="9.288113">
<ele>468.5</ele>
<speed>147</speed>
<course>81.7</course>
<desc>Speed 147 km/h Distance 8.79 km</desc>
<time>2011-03-24T15:17:00.70</time>
<name>266</name>
</trkpt>
<trkpt lat="49.503207" lon="9.288675">
<ele>467.5</ele>
<speed>148</speed>
<course>82.1</course>
<desc>Speed 148 km/h Distance 8.83 km</desc>
<time>2011-03-24T15:17:01.71</time>
<name>267</name>
</trkpt>
<trkpt lat="49.503258" lon="9.289248">
<ele>467.5</ele>
<speed>151</speed>
<course>80.3</course>
<desc>Speed 151 km/h Distance 8.87 km</desc>
<time>2011-03-24T15:17:02.70</time>
<name>268</name>
</trkpt>
<trkpt lat="49.503322" lon="9.289818">
<ele>467.5</ele>
<speed>151</speed>
<course>78.9</course>
<desc>Speed 151 km/h Distance 8.91 km</desc>
<time>2011-03-24T15:17:03.71</time>
<name>269</name>
</trkpt>
<trkpt lat="49.503393" lon="9.290383">
<ele>467.5</ele>
<speed>150</speed>
<course>78.3</course>
<desc>Speed 150 km/h Distance 8.96 km</desc>
<time>2011-03-24T15:17:04.70</time>
<name>270</name>
</trkpt>
<trkpt lat="49.503470" lon="9.290955">
<ele>467.5</ele>
<speed>152</speed>
<course>78.5</course>
<desc>Speed 152 km/h Distance 9.00 km</desc>
<time>2011-03-24T15:17:05.70</time>
<name>271</name>
</trkpt>
<trkpt lat="49.503545" lon="9.291522">
<ele>466.5</ele>
<speed>151</speed>
<course>78.6</course>
<desc>Speed 151 km/h Distance 9.04 km</desc>
<time>2011-03-24T15:17:06.71</time>
<name>272</name>
</trkpt>
<trkpt lat="49.503618" lon="9.292082">
<ele>466.0</ele>
<speed>149</speed>
<course>83.1</course>
<desc>Speed 149 km/h Distance 9.08 km</desc>
<time>2011-03-24T15:17:07.70</time>
<name>273</name>
</trkpt>
<trkpt lat="49.503665" lon="9.292677">
<ele>466.0</ele>
<speed>156</speed>
<course>79.0</course>
<desc>Speed 156 km/h Distance 9.12 km</desc>
<time>2011-03-24T15:17:08.69</time>
<name>274</name>
</trkpt>
<trkpt lat="49.503735" lon="9.293230">
<ele>465.5</ele>
<speed>147</speed>
<course>77.2</course>
<desc>Speed 147 km/h Distance 9.16 km</desc>
<time>2011-03-24T15:17:09.72</time>
<name>275</name>
</trkpt>
<trkpt lat="49.503813" lon="9.293760">
<ele>465.5</ele>
<speed>141</speed>
<course>76.2</course>
<desc>Speed 141 km/h Distance 9.20 km</desc>
<time>2011-03-24T15:17:10.70</time>
<name>276</name>
</trkpt>
<trkpt lat="49.503895" lon="9.294272">
<ele>465.5</ele>
<speed>137</speed>
<course>77.6</course>
<desc>Speed 137 km/h Distance 9.24 km</desc>
<time>2011-03-24T15:17:11.70</time>
<name>277</name>
</trkpt>
<trkpt lat="49.503968" lon="9.294783">
<ele>465.0</ele>
<speed>137</speed>
<course>76.7</course>
<desc>Speed 137 km/h Distance 9.28 km</desc>
<time>2011-03-24T15:17:12.70</time>
<name>278</name>
</trkpt>
<trkpt lat="49.504043" lon="9.295273">
<ele>464.0</ele>
<speed>131</speed>
<course>75.9</course>
<desc>Speed 131 km/h Distance 9.32 km</desc>
<time>2011-03-24T15:17:13.70</time>
<name>279</name>
</trkpt>
<trkpt lat="49.504123" lon="9.295763">
<ele>464.0</ele>
<speed>131</speed>
<course>72.9</course>
<desc>Speed 131 km/h Distance 9.35 km</desc>
<time>2011-03-24T15:17:14.70</time>
<name>280</name>
</trkpt>
<trkpt lat="49.504217" lon="9.296230">
<ele>463.5</ele>
<speed>127</speed>
<course>67.8</course>
<desc>Speed 127 km/h Distance 9.39 km</desc>
<time>2011-03-24T15:17:15.71</time>
<name>281</name>
</trkpt>
<trkpt lat="49.504337" lon="9.296683">
<ele>463.0</ele>
<speed>129</speed>
<course>60.2</course>
<desc>Speed 129 km/h Distance 9.42 km</desc>
<time>2011-03-24T15:17:16.69</time>
<name>282</name>
</trkpt>
<trkpt lat="49.504497" lon="9.297113">
<ele>463.0</ele>
<speed>130</speed>
<course>65.9</course>
<desc>Speed 130 km/h Distance 9.46 km</desc>
<time>2011-03-24T15:17:17.70</time>
<name>283</name>
</trkpt>
<trkpt lat="49.504627" lon="9.297562">
<ele>460.5</ele>
<speed>129</speed>
<course>59.3</course>
<desc>Speed 129 km/h Distance 9.49 km</desc>
<time>2011-03-24T15:17:18.70</time>
<name>284</name>
</trkpt>
<trkpt lat="49.504788" lon="9.297982">
<ele>460.0</ele>
<speed>128</speed>
<course>56.7</course>
<desc>Speed 128 km/h Distance 9.53 km</desc>
<time>2011-03-24T15:17:19.69</time>
<name>285</name>
</trkpt>
<trkpt lat="49.504962" lon="9.298388">
<ele>460.0</ele>
<speed>127</speed>
<course>55.2</course>
<desc>Speed 127 km/h Distance 9.57 km</desc>
<time>2011-03-24T15:17:20.70</time>
<name>286</name>
</trkpt>
<trkpt lat="49.505142" lon="9.298787">
<ele>459.5</ele>
<speed>127</speed>
<course>53.5</course>
<desc>Speed 127 km/h Distance 9.60 km</desc>
<time>2011-03-24T15:17:21.70</time>
<name>287</name>
</trkpt>
<trkpt lat="49.505328" lon="9.299175">
<ele>459.0</ele>
<speed>127</speed>
<course>52.0</course>
<desc>Speed 127 km/h Distance 9.64 km</desc>
<time>2011-03-24T15:17:22.69</time>
<name>288</name>
</trkpt>
<trkpt lat="49.505522" lon="9.299557">
<ele>458.5</ele>
<speed>126</speed>
<course>46.9</course>
<desc>Speed 126 km/h Distance 9.67 km</desc>
<time>2011-03-24T15:17:23.69</time>
<name>289</name>
</trkpt>
<trkpt lat="49.505737" lon="9.299910">
<ele>458.5</ele>
<speed>127</speed>
<course>59.6</course>
<desc>Speed 127 km/h Distance 9.71 km</desc>
<time>2011-03-24T15:17:24.69</time>
<name>290</name>
</trkpt>
<trkpt lat="49.505897" lon="9.300330">
<ele>458.0</ele>
<speed>127</speed>
<course>57.7</course>
<desc>Speed 127 km/h Distance 9.74 km</desc>
<time>2011-03-24T15:17:25.69</time>
<name>291</name>
</trkpt>
<trkpt lat="49.506063" lon="9.300737">
<ele>458.0</ele>
<speed>125</speed>
<course>59.9</course>
<desc>Speed 125 km/h Distance 9.78 km</desc>
<time>2011-03-24T15:17:26.69</time>
<name>292</name>
</trkpt>
<trkpt lat="49.506218" lon="9.301148">
<ele>458.0</ele>
<speed>124</speed>
<course>65.2</course>
<desc>Speed 124 km/h Distance 9.81 km</desc>
<time>2011-03-24T15:17:27.69</time>
<name>293</name>
</trkpt>
<trkpt lat="49.506348" lon="9.301582">
<ele>457.5</ele>
<speed>125</speed>
<course>70.8</course>
<desc>Speed 125 km/h Distance 9.84 km</desc>
<time>2011-03-24T15:17:28.69</time>
<name>294</name>
</trkpt>
<trkpt lat="49.506453" lon="9.302045">
<ele>455.5</ele>
<speed>127</speed>
<course>74.6</course>
<desc>Speed 127 km/h Distance 9.88 km</desc>
<time>2011-03-24T15:17:29.69</time>
<name>295</name>
</trkpt>
<trkpt lat="49.506537" lon="9.302512">
<ele>453.5</ele>
<speed>125</speed>
<course>75.5</course>
<desc>Speed 125 km/h Distance 9.91 km</desc>
<time>2011-03-24T15:17:30.68</time>
<name>296</name>
</trkpt>
<trkpt lat="49.506612" lon="9.302958">
<ele>453.0</ele>
<speed>119</speed>
<course>74.7</course>
<desc>Speed 119 km/h Distance 9.95 km</desc>
<time>2011-03-24T15:17:31.68</time>
<name>297</name>
</trkpt>
<trkpt lat="49.506685" lon="9.303372">
<ele>453.0</ele>
<speed>112</speed>
<course>74.5</course>
<desc>Speed 112 km/h Distance 9.98 km</desc>
<time>2011-03-24T15:17:32.69</time>
<name>298</name>
</trkpt>
<trkpt lat="49.506758" lon="9.303780">
<ele>451.5</ele>
<speed>111</speed>
<course>74.8</course>
<desc>Speed 111 km/h Distance 10.01 km</desc>
<time>2011-03-24T15:17:33.69</time>
<name>299</name>
</trkpt>
<trkpt lat="49.506825" lon="9.304157">
<ele>451.0</ele>
<speed>102</speed>
<course>76.3</course>
<desc>Speed 102 km/h Distance 10.04 km</desc>
<time>2011-03-24T15:17:34.68</time>
<name>300</name>
</trkpt>
<trkpt lat="49.506885" lon="9.304535">
<ele>451.0</ele>
<speed>102</speed>
<course>77.3</course>
<desc>Speed 102 km/h Distance 10.07 km</desc>
<time>2011-03-24T15:17:35.68</time>
<name>301</name>
</trkpt>
<trkpt lat="49.506940" lon="9.304912">
<ele>450.5</ele>
<speed>99.3</speed>
<course>78.4</course>
<desc>Speed 99.3 km/h Distance 10.09 km</desc>
<time>2011-03-24T15:17:36.68</time>
<name>302</name>
</trkpt>
<trkpt lat="49.506990" lon="9.305287">
<ele>450.0</ele>
<speed>98.2</speed>
<course>78.7</course>
<desc>Speed 98.2 km/h Distance 10.12 km</desc>
<time>2011-03-24T15:17:37.69</time>
<name>303</name>
</trkpt>
<trkpt lat="49.507038" lon="9.305660">
<ele>449.0</ele>
<speed>97.3</speed>
<course>78.9</course>
<desc>Speed 97.3 km/h Distance 10.15 km</desc>
<time>2011-03-24T15:17:38.68</time>
<name>304</name>
</trkpt>
<trkpt lat="49.507085" lon="9.306025">
<ele>449.0</ele>
<speed>96.8</speed>
<course>79.8</course>
<desc>Speed 96.8 km/h Distance 10.18 km</desc>
<time>2011-03-24T15:17:39.68</time>
<name>305</name>
</trkpt>
<trkpt lat="49.507128" lon="9.306395">
<ele>448.0</ele>
<speed>95.1</speed>
<course>79.7</course>
<desc>Speed 95.1 km/h Distance 10.20 km</desc>
<time>2011-03-24T15:17:40.68</time>
<name>306</name>
</trkpt>
<trkpt lat="49.507170" lon="9.306747">
<ele>447.0</ele>
<speed>93.5</speed>
<course>81.5</course>
<desc>Speed 93.5 km/h Distance 10.23 km</desc>
<time>2011-03-24T15:17:41.68</time>
<name>307</name>
</trkpt>
<trkpt lat="49.507205" lon="9.307108">
<ele>446.5</ele>
<speed>94.1</speed>
<course>79.7</course>
<desc>Speed 94.1 km/h Distance 10.26 km</desc>
<time>2011-03-24T15:17:42.68</time>
<name>308</name>
</trkpt>
<trkpt lat="49.507247" lon="9.307462">
<ele>445.5</ele>
<speed>92.6</speed>
<course>81.2</course>
<desc>Speed 92.6 km/h Distance 10.28 km</desc>
<time>2011-03-24T15:17:43.68</time>
<name>309</name>
</trkpt>
<trkpt lat="49.507282" lon="9.307808">
<ele>445.5</ele>
<speed>91.4</speed>
<course>80.7</course>
<desc>Speed 91.4 km/h Distance 10.31 km</desc>
<time>2011-03-24T15:17:44.68</time>
<name>310</name>
</trkpt>
<trkpt lat="49.507318" lon="9.308155">
<ele>444.5</ele>
<speed>91.7</speed>
<course>78.7</course>
<desc>Speed 91.7 km/h Distance 10.33 km</desc>
<time>2011-03-24T15:17:45.68</time>
<name>311</name>
</trkpt>
<trkpt lat="49.507362" lon="9.308488">
<ele>444.5</ele>
<speed>89.4</speed>
<course>83.7</course>
<desc>Speed 89.4 km/h Distance 10.36 km</desc>
<time>2011-03-24T15:17:46.67</time>
<name>312</name>
</trkpt>
<trkpt lat="49.507387" lon="9.308838">
<ele>444.0</ele>
<speed>92.9</speed>
<course>85.1</course>
<desc>Speed 92.9 km/h Distance 10.38 km</desc>
<time>2011-03-24T15:17:47.68</time>
<name>313</name>
</trkpt>
<trkpt lat="49.507407" lon="9.309197">
<ele>443.5</ele>
<speed>93.0</speed>
<course>83.9</course>
<desc>Speed 93.0 km/h Distance 10.41 km</desc>
<time>2011-03-24T15:17:48.68</time>
<name>314</name>
</trkpt>
<trkpt lat="49.507432" lon="9.309557">
<ele>443.0</ele>
<speed>94.1</speed>
<course>86.1</course>
<desc>Speed 94.1 km/h Distance 10.43 km</desc>
<time>2011-03-24T15:17:49.69</time>
<name>315</name>
</trkpt>
<trkpt lat="49.507448" lon="9.309937">
<ele>442.5</ele>
<speed>98.0</speed>
<course>85.1</course>
<desc>Speed 98.0 km/h Distance 10.46 km</desc>
<time>2011-03-24T15:17:50.68</time>
<name>316</name>
</trkpt>
<trkpt lat="49.507470" lon="9.310323">
<ele>442.0</ele>
<speed>99.9</speed>
<course>85.3</course>
<desc>Speed 99.9 km/h Distance 10.49 km</desc>
<time>2011-03-24T15:17:51.68</time>
<name>317</name>
</trkpt>
<trkpt lat="49.507490" lon="9.310702">
<ele>440.5</ele>
<speed>98.2</speed>
<course>82.0</course>
<desc>Speed 98.2 km/h Distance 10.52 km</desc>
<time>2011-03-24T15:17:52.68</time>
<name>318</name>
</trkpt>
<trkpt lat="49.507523" lon="9.311065">
<ele>437.5</ele>
<speed>98.9</speed>
<course>86.4</course>
<desc>Speed 98.9 km/h Distance 10.54 km</desc>
<time>2011-03-24T15:17:53.68</time>
<name>319</name>
</trkpt>
<trkpt lat="49.507555" lon="9.311837">
<ele>435.5</ele>
<speed>103</speed>
<course>87.4</course>
<desc>Speed 103 km/h Distance 10.60 km</desc>
<time>2011-03-24T15:17:55.70</time>
<name>320</name>
</trkpt>
<trkpt lat="49.507567" lon="9.312233">
<ele>434.5</ele>
<speed>104</speed>
<course>86.1</course>
<desc>Speed 104 km/h Distance 10.63 km</desc>
<time>2011-03-24T15:17:56.70</time>
<name>321</name>
</trkpt>
<trkpt lat="49.507583" lon="9.312612">
<ele>432.5</ele>
<speed>106</speed>
<course>87.8</course>
<desc>Speed 106 km/h Distance 10.66 km</desc>
<time>2011-03-24T15:17:57.70</time>
<name>322</name>
</trkpt>
<trkpt lat="49.507593" lon="9.313005">
<ele>431.0</ele>
<speed>102</speed>
<course>87.7</course>
<desc>Speed 102 km/h Distance 10.68 km</desc>
<time>2011-03-24T15:17:58.69</time>
<name>323</name>
</trkpt>
<trkpt lat="49.507603" lon="9.313395">
<ele>429.5</ele>
<speed>103</speed>
<course>89.2</course>
<desc>Speed 103 km/h Distance 10.71 km</desc>
<time>2011-03-24T15:17:59.69</time>
<name>324</name>
</trkpt>
<trkpt lat="49.507607" lon="9.313787">
<ele>427.5</ele>
<speed>103</speed>
<course>89.6</course>
<desc>Speed 103 km/h Distance 10.74 km</desc>
<time>2011-03-24T15:18:00.69</time>
<name>325</name>
</trkpt>
<trkpt lat="49.507608" lon="9.314180">
<ele>425.5</ele>
<speed>104</speed>
<course>90.4</course>
<desc>Speed 104 km/h Distance 10.77 km</desc>
<time>2011-03-24T15:18:01.69</time>
<name>326</name>
</trkpt>
<trkpt lat="49.507607" lon="9.314582">
<ele>424.0</ele>
<speed>105</speed>
<course>90.0</course>
<desc>Speed 105 km/h Distance 10.80 km</desc>
<time>2011-03-24T15:18:02.69</time>
<name>327</name>
</trkpt>
<trkpt lat="49.507607" lon="9.314982">
<ele>422.5</ele>
<speed>105</speed>
<course>89.6</course>
<desc>Speed 105 km/h Distance 10.83 km</desc>
<time>2011-03-24T15:18:03.69</time>
<name>328</name>
</trkpt>
<trkpt lat="49.507608" lon="9.315383">
<ele>421.0</ele>
<speed>105</speed>
<course>89.6</course>
<desc>Speed 105 km/h Distance 10.86 km</desc>
<time>2011-03-24T15:18:04.69</time>
<name>329</name>
</trkpt>
<trkpt lat="49.507610" lon="9.315782">
<ele>419.0</ele>
<speed>105</speed>
<course>90.0</course>
<desc>Speed 105 km/h Distance 10.89 km</desc>
<time>2011-03-24T15:18:05.69</time>
<name>330</name>
</trkpt>
<trkpt lat="49.507610" lon="9.316183">
<ele>417.5</ele>
<speed>106</speed>
<course>90.4</course>
<desc>Speed 106 km/h Distance 10.91 km</desc>
<time>2011-03-24T15:18:06.69</time>
<name>331</name>
</trkpt>
<trkpt lat="49.507608" lon="9.316588">
<ele>416.0</ele>
<speed>106</speed>
<course>90.0</course>
<desc>Speed 106 km/h Distance 10.94 km</desc>
<time>2011-03-24T15:18:07.68</time>
<name>332</name>
</trkpt>
<trkpt lat="49.507608" lon="9.316995">
<ele>414.0</ele>
<speed>106</speed>
<course>91.7</course>
<desc>Speed 106 km/h Distance 10.97 km</desc>
<time>2011-03-24T15:18:08.68</time>
<name>333</name>
</trkpt>
<trkpt lat="49.507600" lon="9.317417">
<ele>414.0</ele>
<speed>110</speed>
<course>89.6</course>
<desc>Speed 110 km/h Distance 11.00 km</desc>
<time>2011-03-24T15:18:09.68</time>
<name>334</name>
</trkpt>
<trkpt lat="49.507602" lon="9.317832">
<ele>414.0</ele>
<speed>108</speed>
<course>89.6</course>
<desc>Speed 108 km/h Distance 11.03 km</desc>
<time>2011-03-24T15:18:10.68</time>
<name>335</name>
</trkpt>
<trkpt lat="49.507603" lon="9.318230">
<ele>412.0</ele>
<speed>105</speed>
<course>91.4</course>
<desc>Speed 105 km/h Distance 11.06 km</desc>
<time>2011-03-24T15:18:11.69</time>
<name>336</name>
</trkpt>
<trkpt lat="49.507597" lon="9.318640">
<ele>411.0</ele>
<speed>107</speed>
<course>93.2</course>
<desc>Speed 107 km/h Distance 11.09 km</desc>
<time>2011-03-24T15:18:12.69</time>
<name>337</name>
</trkpt>
<trkpt lat="49.507582" lon="9.319058">
<ele>410.5</ele>
<speed>109</speed>
<course>93.2</course>
<desc>Speed 109 km/h Distance 11.12 km</desc>
<time>2011-03-24T15:18:13.68</time>
<name>338</name>
</trkpt>
<trkpt lat="49.507567" lon="9.319477">
<ele>410.0</ele>
<speed>109</speed>
<course>92.2</course>
<desc>Speed 109 km/h Distance 11.15 km</desc>
<time>2011-03-24T15:18:14.68</time>
<name>339</name>
</trkpt>
<trkpt lat="49.507557" lon="9.319885">
<ele>409.5</ele>
<speed>107</speed>
<course>91.5</course>
<desc>Speed 107 km/h Distance 11.18 km</desc>
<time>2011-03-24T15:18:15.68</time>
<name>340</name>
</trkpt>
<trkpt lat="49.507550" lon="9.320287">
<ele>408.5</ele>
<speed>105</speed>
<course>90.7</course>
<desc>Speed 105 km/h Distance 11.21 km</desc>
<time>2011-03-24T15:18:16.68</time>
<name>341</name>
</trkpt>
<trkpt lat="49.507547" lon="9.320688">
<ele>407.0</ele>
<speed>105</speed>
<course>89.6</course>
<desc>Speed 105 km/h Distance 11.24 km</desc>
<time>2011-03-24T15:18:17.67</time>
<name>342</name>
</trkpt>
<trkpt lat="49.507548" lon="9.321083">
<ele>406.0</ele>
<speed>105</speed>
<course>89.3</course>
<desc>Speed 105 km/h Distance 11.27 km</desc>
<time>2011-03-24T15:18:18.69</time>
<name>343</name>
</trkpt>
<trkpt lat="49.507552" lon="9.321488">
<ele>405.5</ele>
<speed>106</speed>
<course>88.9</course>
<desc>Speed 106 km/h Distance 11.30 km</desc>
<time>2011-03-24T15:18:19.69</time>
<name>344</name>
</trkpt>
<trkpt lat="49.507557" lon="9.321892">
<ele>405.5</ele>
<speed>105</speed>
<course>87.0</course>
<desc>Speed 105 km/h Distance 11.33 km</desc>
<time>2011-03-24T15:18:20.69</time>
<name>345</name>
</trkpt>
<trkpt lat="49.507570" lon="9.322290">
<ele>404.5</ele>
<speed>104</speed>
<course>86.3</course>
<desc>Speed 104 km/h Distance 11.36 km</desc>
<time>2011-03-24T15:18:21.68</time>
<name>346</name>
</trkpt>
<trkpt lat="49.507588" lon="9.322722">
<ele>404.0</ele>
<speed>113</speed>
<course>83.2</course>
<desc>Speed 113 km/h Distance 11.39 km</desc>
<time>2011-03-24T15:18:22.68</time>
<name>347</name>
</trkpt>
<trkpt lat="49.507618" lon="9.323107">
<ele>404.5</ele>
<speed>101</speed>
<course>82.0</course>
<desc>Speed 101 km/h Distance 11.41 km</desc>
<time>2011-03-24T15:18:23.68</time>
<name>348</name>
</trkpt>
<trkpt lat="49.507655" lon="9.323507">
<ele>404.0</ele>
<speed>106</speed>
<course>79.1</course>
<desc>Speed 106 km/h Distance 11.44 km</desc>
<time>2011-03-24T15:18:24.68</time>
<name>349</name>
</trkpt>
<trkpt lat="49.507705" lon="9.323907">
<ele>403.5</ele>
<speed>106</speed>
<course>76.8</course>
<desc>Speed 106 km/h Distance 11.47 km</desc>
<time>2011-03-24T15:18:25.67</time>
<name>350</name>
</trkpt>
<trkpt lat="49.507765" lon="9.324300">
<ele>403.5</ele>
<speed>106</speed>
<course>74.4</course>
<desc>Speed 106 km/h Distance 11.50 km</desc>
<time>2011-03-24T15:18:26.67</time>
<name>351</name>
</trkpt>
<trkpt lat="49.507835" lon="9.324687">
<ele>403.0</ele>
<speed>105</speed>
<course>71.1</course>
<desc>Speed 105 km/h Distance 11.53 km</desc>
<time>2011-03-24T15:18:27.68</time>
<name>352</name>
</trkpt>
<trkpt lat="49.507920" lon="9.325068">
<ele>402.5</ele>
<speed>106</speed>
<course>62.9</course>
<desc>Speed 106 km/h Distance 11.56 km</desc>
<time>2011-03-24T15:18:28.68</time>
<name>353</name>
</trkpt>
<trkpt lat="49.508040" lon="9.325430">
<ele>401.5</ele>
<speed>106</speed>
<course>64.4</course>
<desc>Speed 106 km/h Distance 11.59 km</desc>
<time>2011-03-24T15:18:29.67</time>
<name>354</name>
</trkpt>
<trkpt lat="49.508152" lon="9.325788">
<ele>400.5</ele>
<speed>106</speed>
<course>62.8</course>
<desc>Speed 106 km/h Distance 11.62 km</desc>
<time>2011-03-24T15:18:30.67</time>
<name>355</name>
</trkpt>
<trkpt lat="49.508273" lon="9.326153">
<ele>401.5</ele>
<speed>107</speed>
<course>60.3</course>
<desc>Speed 107 km/h Distance 11.65 km</desc>
<time>2011-03-24T15:18:31.67</time>
<name>356</name>
</trkpt>
<trkpt lat="49.508405" lon="9.326508">
<ele>401.5</ele>
<speed>106</speed>
<course>56.1</course>
<desc>Speed 106 km/h Distance 11.68 km</desc>
<time>2011-03-24T15:18:32.68</time>
<name>357</name>
</trkpt>
<trkpt lat="49.508555" lon="9.326852">
<ele>402.5</ele>
<speed>108</speed>
<course>52.7</course>
<desc>Speed 108 km/h Distance 11.71 km</desc>
<time>2011-03-24T15:18:33.67</time>
<name>358</name>
</trkpt>
<trkpt lat="49.508718" lon="9.327182">
<ele>403.5</ele>
<speed>109</speed>
<course>52.0</course>
<desc>Speed 109 km/h Distance 11.74 km</desc>
<time>2011-03-24T15:18:34.67</time>
<name>359</name>
</trkpt>
<trkpt lat="49.508878" lon="9.327497">
<ele>403.5</ele>
<speed>104</speed>
<course>50.7</course>
<desc>Speed 104 km/h Distance 11.77 km</desc>
<time>2011-03-24T15:18:35.67</time>
<name>360</name>
</trkpt>
<trkpt lat="49.509037" lon="9.327795">
<ele>404.0</ele>
<speed>101</speed>
<course>47.1</course>
<desc>Speed 101 km/h Distance 11.79 km</desc>
<time>2011-03-24T15:18:36.67</time>
<name>361</name>
</trkpt>
<trkpt lat="49.509203" lon="9.328072">
<ele>404.5</ele>
<speed>98.1</speed>
<course>43.7</course>
<desc>Speed 98.1 km/h Distance 11.82 km</desc>
<time>2011-03-24T15:18:37.67</time>
<name>362</name>
</trkpt>
<trkpt lat="49.509373" lon="9.328322">
<ele>404.0</ele>
<speed>94.6</speed>
<course>41.5</course>
<desc>Speed 94.6 km/h Distance 11.85 km</desc>
<time>2011-03-24T15:18:38.66</time>
<name>363</name>
</trkpt>
<trkpt lat="49.509548" lon="9.328560">
<ele>404.5</ele>
<speed>93.4</speed>
<course>39.6</course>
<desc>Speed 93.4 km/h Distance 11.87 km</desc>
<time>2011-03-24T15:18:39.67</time>
<name>364</name>
</trkpt>
<trkpt lat="49.509723" lon="9.328783">
<ele>405.0</ele>
<speed>91.4</speed>
<course>38.5</course>
<desc>Speed 91.4 km/h Distance 11.90 km</desc>
<time>2011-03-24T15:18:40.67</time>
<name>365</name>
</trkpt>
<trkpt lat="49.509900" lon="9.329000">
<ele>405.5</ele>
<speed>90.7</speed>
<course>37.4</course>
<desc>Speed 90.7 km/h Distance 11.92 km</desc>
<time>2011-03-24T15:18:41.67</time>
<name>366</name>
</trkpt>
<trkpt lat="49.510080" lon="9.329212">
<ele>405.5</ele>
<speed>91.0</speed>
<course>35.5</course>
<desc>Speed 91.0 km/h Distance 11.95 km</desc>
<time>2011-03-24T15:18:42.66</time>
<name>367</name>
</trkpt>
<trkpt lat="49.510263" lon="9.329413">
<ele>406.0</ele>
<speed>91.2</speed>
<course>33.9</course>
<desc>Speed 91.2 km/h Distance 11.98 km</desc>
<time>2011-03-24T15:18:43.67</time>
<name>368</name>
</trkpt>
<trkpt lat="49.510452" lon="9.329608">
<ele>406.5</ele>
<speed>91.5</speed>
<course>32.3</course>
<desc>Speed 91.5 km/h Distance 12.00 km</desc>
<time>2011-03-24T15:18:44.66</time>
<name>369</name>
</trkpt>
<trkpt lat="49.510643" lon="9.329795">
<ele>407.0</ele>
<speed>91.4</speed>
<course>30.5</course>
<desc>Speed 91.4 km/h Distance 12.03 km</desc>
<time>2011-03-24T15:18:45.66</time>
<name>370</name>
</trkpt>
<trkpt lat="49.510840" lon="9.329973">
<ele>407.0</ele>
<speed>92.4</speed>
<course>28.9</course>
<desc>Speed 92.4 km/h Distance 12.05 km</desc>
<time>2011-03-24T15:18:46.66</time>
<name>371</name>
</trkpt>
<trkpt lat="49.511038" lon="9.330142">
<ele>407.5</ele>
<speed>91.4</speed>
<course>26.1</course>
<desc>Speed 91.4 km/h Distance 12.08 km</desc>
<time>2011-03-24T15:18:47.66</time>
<name>372</name>
</trkpt>
<trkpt lat="49.511235" lon="9.330290">
<ele>407.5</ele>
<speed>88.1</speed>
<course>24.7</course>
<desc>Speed 88.1 km/h Distance 12.10 km</desc>
<time>2011-03-24T15:18:48.66</time>
<name>373</name>
</trkpt>
<trkpt lat="49.511423" lon="9.330423">
<ele>407.5</ele>
<speed>83.3</speed>
<course>23.1</course>
<desc>Speed 83.3 km/h Distance 12.12 km</desc>
<time>2011-03-24T15:18:49.66</time>
<name>374</name>
</trkpt>
<trkpt lat="49.511603" lon="9.330542">
<ele>408.0</ele>
<speed>78.6</speed>
<course>22.3</course>
<desc>Speed 78.6 km/h Distance 12.15 km</desc>
<time>2011-03-24T15:18:50.66</time>
<name>375</name>
</trkpt>
<trkpt lat="49.511775" lon="9.330650">
<ele>408.0</ele>
<speed>74.2</speed>
<course>20.4</course>
<desc>Speed 74.2 km/h Distance 12.17 km</desc>
<time>2011-03-24T15:18:51.66</time>
<name>376</name>
</trkpt>
<trkpt lat="49.511938" lon="9.330743">
<ele>408.0</ele>
<speed>69.8</speed>
<course>19.8</course>
<desc>Speed 69.8 km/h Distance 12.19 km</desc>
<time>2011-03-24T15:18:52.66</time>
<name>377</name>
</trkpt>
<trkpt lat="49.512095" lon="9.330830">
<ele>408.0</ele>
<speed>66.9</speed>
<course>21.1</course>
<desc>Speed 66.9 km/h Distance 12.20 km</desc>
<time>2011-03-24T15:18:53.66</time>
<name>378</name>
</trkpt>
<trkpt lat="49.512243" lon="9.330918">
<ele>408.0</ele>
<speed>63.0</speed>
<course>19.4</course>
<desc>Speed 63.0 km/h Distance 12.22 km</desc>
<time>2011-03-24T15:18:54.66</time>
<name>379</name>
</trkpt>
<trkpt lat="49.512382" lon="9.330993">
<ele>408.0</ele>
<speed>58.9</speed>
<course>20.4</course>
<desc>Speed 58.9 km/h Distance 12.24 km</desc>
<time>2011-03-24T15:18:55.67</time>
<name>380</name>
</trkpt>
<trkpt lat="49.512510" lon="9.331067">
<ele>408.0</ele>
<speed>54.5</speed>
<course>51.0</course>
<desc>Speed 54.5 km/h Distance 12.25 km</desc>
<time>2011-03-24T15:18:56.66</time>
<name>381</name>
</trkpt>
<trkpt lat="49.512627" lon="9.331288">
<ele>407.5</ele>
<speed>36.4</speed>
<course>81.9</course>
<desc>Speed 36.4 km/h Distance 12.27 km</desc>
<time>2011-03-24T15:18:58.66</time>
<name>382</name>
</trkpt>
<trkpt lat="49.512642" lon="9.331452">
<ele>406.5</ele>
<speed>43.7</speed>
<course>96.4</course>
<desc>Speed 43.7 km/h Distance 12.29 km</desc>
<time>2011-03-24T15:18:59.66</time>
<name>383</name>
</trkpt>
<trkpt lat="49.512628" lon="9.331633">
<ele>408.0</ele>
<speed>47.6</speed>
<course>112.5</course>
<desc>Speed 47.6 km/h Distance 12.30 km</desc>
<time>2011-03-24T15:19:00.66</time>
<name>384</name>
</trkpt>
<trkpt lat="49.512580" lon="9.331813">
<ele>409.5</ele>
<speed>50.4</speed>
<course>118.9</course>
<desc>Speed 50.4 km/h Distance 12.31 km</desc>
<time>2011-03-24T15:19:01.65</time>
<name>385</name>
</trkpt>
<trkpt lat="49.512405" lon="9.332302">
<ele>409.0</ele>
<speed>75.1</speed>
<course>123.5</course>
<desc>Speed 75.1 km/h Distance 12.35 km</desc>
<time>2011-03-24T15:19:03.66</time>
<name>386</name>
</trkpt>
<trkpt lat="49.512308" lon="9.332527">
<ele>409.0</ele>
<speed>70.5</speed>
<course>132.3</course>
<desc>Speed 70.5 km/h Distance 12.37 km</desc>
<time>2011-03-24T15:19:04.65</time>
<name>387</name>
</trkpt>
<trkpt lat="49.512195" lon="9.332718">
<ele>409.0</ele>
<speed>66.2</speed>
<course>139.8</course>
<desc>Speed 66.2 km/h Distance 12.39 km</desc>
<time>2011-03-24T15:19:05.66</time>
<name>388</name>
</trkpt>
<trkpt lat="49.512062" lon="9.332892">
<ele>411.0</ele>
<speed>69.0</speed>
<course>153.0</course>
<desc>Speed 69.0 km/h Distance 12.41 km</desc>
<time>2011-03-24T15:19:06.65</time>
<name>389</name>
</trkpt>
<trkpt lat="49.511915" lon="9.333007">
<ele>411.0</ele>
<speed>64.9</speed>
<course>161.3</course>
<desc>Speed 64.9 km/h Distance 12.43 km</desc>
<time>2011-03-24T15:19:07.65</time>
<name>390</name>
</trkpt>
<trkpt lat="49.511758" lon="9.333088">
<ele>411.5</ele>
<speed>66.3</speed>
<course>171.4</course>
<desc>Speed 66.3 km/h Distance 12.45 km</desc>
<time>2011-03-24T15:19:08.65</time>
<name>391</name>
</trkpt>
<trkpt lat="49.511593" lon="9.333127">
<ele>411.5</ele>
<speed>66.1</speed>
<course>185.2</course>
<desc>Speed 66.1 km/h Distance 12.47 km</desc>
<time>2011-03-24T15:19:09.65</time>
<name>392</name>
</trkpt>
<trkpt lat="49.511427" lon="9.333103">
<ele>412.5</ele>
<speed>66.3</speed>
<course>189.3</course>
<desc>Speed 66.3 km/h Distance 12.49 km</desc>
<time>2011-03-24T15:19:10.65</time>
<name>393</name>
</trkpt>
<trkpt lat="49.511275" lon="9.333065">
<ele>412.0</ele>
<speed>61.7</speed>
<course>194.1</course>
<desc>Speed 61.7 km/h Distance 12.50 km</desc>
<time>2011-03-24T15:19:11.65</time>
<name>394</name>
</trkpt>
<trkpt lat="49.511137" lon="9.333012">
<ele>412.5</ele>
<speed>57.2</speed>
<course>196.1</course>
<desc>Speed 57.2 km/h Distance 12.52 km</desc>
<time>2011-03-24T15:19:12.66</time>
<name>395</name>
</trkpt>
<trkpt lat="49.511032" lon="9.332965">
<ele>413.0</ele>
<speed>43.2</speed>
<course>201.6</course>
<desc>Speed 43.2 km/h Distance 12.53 km</desc>
<time>2011-03-24T15:19:13.65</time>
<name>396</name>
</trkpt>
<trkpt lat="49.510963" lon="9.332923">
<ele>413.0</ele>
<speed>29.2</speed>
<course>198.6</course>
<desc>Speed 29.2 km/h Distance 12.54 km</desc>
<time>2011-03-24T15:19:14.64</time>
<name>397</name>
</trkpt>
<trkpt lat="49.510918" lon="9.332900">
<ele>413.0</ele>
<speed>18.8</speed>
<course>195.2</course>
<desc>Speed 18.8 km/h Distance 12.54 km</desc>
<time>2011-03-24T15:19:15.64</time>
<name>398</name>
</trkpt>
<trkpt lat="49.510878" lon="9.332883">
<ele>412.5</ele>
<speed>15.0</speed>
<course>187.8</course>
<desc>Speed 15.0 km/h Distance 12.55 km</desc>
<time>2011-03-24T15:19:16.64</time>
<name>399</name>
</trkpt>
<trkpt lat="49.510838" lon="9.332875">
<ele>412.5</ele>
<speed>15.4</speed>
<course>171.3</course>
<desc>Speed 15.4 km/h Distance 12.55 km</desc>
<time>2011-03-24T15:19:17.64</time>
<name>400</name>
</trkpt>
<trkpt lat="49.510782" lon="9.332888">
<ele>413.5</ele>
<speed>22.3</speed>
<course>136.4</course>
<desc>Speed 22.3 km/h Distance 12.56 km</desc>
<time>2011-03-24T15:19:18.65</time>
<name>401</name>
</trkpt>
<trkpt lat="49.510735" lon="9.332957">
<ele>415.0</ele>
<speed>25.3</speed>
<course>126.8</course>
<desc>Speed 25.3 km/h Distance 12.57 km</desc>
<time>2011-03-24T15:19:19.65</time>
<name>402</name>
</trkpt>
<trkpt lat="49.510680" lon="9.333070">
<ele>416.0</ele>
<speed>36.6</speed>
<course>112.2</course>
<desc>Speed 36.6 km/h Distance 12.58 km</desc>
<time>2011-03-24T15:19:20.65</time>
<name>403</name>
</trkpt>
<trkpt lat="49.510643" lon="9.333208">
<ele>415.0</ele>
<speed>38.9</speed>
<course>115.0</course>
<desc>Speed 38.9 km/h Distance 12.59 km</desc>
<time>2011-03-24T15:19:21.64</time>
<name>404</name>
</trkpt>
<trkpt lat="49.510508" lon="9.333655">
<ele>417.0</ele>
<speed>67.6</speed>
<course>113.3</course>
<desc>Speed 67.6 km/h Distance 12.62 km</desc>
<time>2011-03-24T15:19:23.64</time>
<name>405</name>
</trkpt>
<trkpt lat="49.510435" lon="9.333917">
<ele>416.5</ele>
<speed>73.4</speed>
<course>113.8</course>
<desc>Speed 73.4 km/h Distance 12.64 km</desc>
<time>2011-03-24T15:19:24.65</time>
<name>406</name>
</trkpt>
<trkpt lat="49.510355" lon="9.334197">
<ele>418.0</ele>
<speed>78.3</speed>
<course>113.0</course>
<desc>Speed 78.3 km/h Distance 12.67 km</desc>
<time>2011-03-24T15:19:25.65</time>
<name>407</name>
</trkpt>
<trkpt lat="49.510280" lon="9.334468">
<ele>419.0</ele>
<speed>76.3</speed>
<course>112.3</course>
<desc>Speed 76.3 km/h Distance 12.69 km</desc>
<time>2011-03-24T15:19:26.65</time>
<name>408</name>
</trkpt>
<trkpt lat="49.510207" lon="9.334743">
<ele>420.0</ele>
<speed>77.1</speed>
<course>109.3</course>
<desc>Speed 77.1 km/h Distance 12.71 km</desc>
<time>2011-03-24T15:19:27.65</time>
<name>409</name>
</trkpt>
<trkpt lat="49.510137" lon="9.335052">
<ele>420.5</ele>
<speed>82.8</speed>
<course>106.1</course>
<desc>Speed 82.8 km/h Distance 12.73 km</desc>
<time>2011-03-24T15:19:28.64</time>
<name>410</name>
</trkpt>
<trkpt lat="49.510073" lon="9.335390">
<ele>422.5</ele>
<speed>90.9</speed>
<course>105.7</course>
<desc>Speed 90.9 km/h Distance 12.76 km</desc>
<time>2011-03-24T15:19:29.64</time>
<name>411</name>
</trkpt>
<trkpt lat="49.510005" lon="9.335763">
<ele>424.0</ele>
<speed>100</speed>
<course>103.1</course>
<desc>Speed 100 km/h Distance 12.79 km</desc>
<time>2011-03-24T15:19:30.64</time>
<name>412</name>
</trkpt>
<trkpt lat="49.509952" lon="9.336117">
<ele>425.5</ele>
<speed>93.8</speed>
<course>101.3</course>
<desc>Speed 93.8 km/h Distance 12.81 km</desc>
<time>2011-03-24T15:19:31.64</time>
<name>413</name>
</trkpt>
<trkpt lat="49.509907" lon="9.336463">
<ele>427.0</ele>
<speed>91.1</speed>
<course>98.9</course>
<desc>Speed 91.1 km/h Distance 12.84 km</desc>
<time>2011-03-24T15:19:32.64</time>
<name>414</name>
</trkpt>
<trkpt lat="49.509872" lon="9.336808">
<ele>429.0</ele>
<speed>90.1</speed>
<course>97.2</course>
<desc>Speed 90.1 km/h Distance 12.86 km</desc>
<time>2011-03-24T15:19:33.65</time>
<name>415</name>
</trkpt>
<trkpt lat="49.509843" lon="9.337152">
<ele>430.5</ele>
<speed>89.4</speed>
<course>95.2</course>
<desc>Speed 89.4 km/h Distance 12.89 km</desc>
<time>2011-03-24T15:19:34.64</time>
<name>416</name>
</trkpt>
<trkpt lat="49.509823" lon="9.337488">
<ele>432.0</ele>
<speed>88.0</speed>
<course>94.1</course>
<desc>Speed 88.0 km/h Distance 12.91 km</desc>
<time>2011-03-24T15:19:35.64</time>
<name>417</name>
</trkpt>
<trkpt lat="49.509808" lon="9.337808">
<ele>432.0</ele>
<speed>83.4</speed>
<course>93.2</course>
<desc>Speed 83.4 km/h Distance 12.94 km</desc>
<time>2011-03-24T15:19:36.64</time>
<name>418</name>
</trkpt>
<trkpt lat="49.509797" lon="9.338132">
<ele>434.0</ele>
<speed>83.7</speed>
<course>92.9</course>
<desc>Speed 83.7 km/h Distance 12.96 km</desc>
<time>2011-03-24T15:19:37.64</time>
<name>419</name>
</trkpt>
<trkpt lat="49.509787" lon="9.338440">
<ele>435.5</ele>
<speed>80.1</speed>
<course>92.4</course>
<desc>Speed 80.1 km/h Distance 12.98 km</desc>
<time>2011-03-24T15:19:38.64</time>
<name>420</name>
</trkpt>
<trkpt lat="49.509778" lon="9.338743">
<ele>437.0</ele>
<speed>78.6</speed>
<course>93.4</course>
<desc>Speed 78.6 km/h Distance 13.00 km</desc>
<time>2011-03-24T15:19:39.64</time>
<name>421</name>
</trkpt>
<trkpt lat="49.509767" lon="9.339045">
<ele>438.5</ele>
<speed>78.7</speed>
<course>97.2</course>
<desc>Speed 78.7 km/h Distance 13.02 km</desc>
<time>2011-03-24T15:19:40.64</time>
<name>422</name>
</trkpt>
<trkpt lat="49.509742" lon="9.339348">
<ele>440.0</ele>
<speed>79.6</speed>
<course>103.1</course>
<desc>Speed 79.6 km/h Distance 13.05 km</desc>
<time>2011-03-24T15:19:41.65</time>
<name>423</name>
</trkpt>
<trkpt lat="49.509695" lon="9.339658">
<ele>441.5</ele>
<speed>82.8</speed>
<course>107.3</course>
<desc>Speed 82.8 km/h Distance 13.07 km</desc>
<time>2011-03-24T15:19:42.64</time>
<name>424</name>
</trkpt>
<trkpt lat="49.509633" lon="9.339963">
<ele>442.5</ele>
<speed>83.0</speed>
<course>113.2</course>
<desc>Speed 83.0 km/h Distance 13.09 km</desc>
<time>2011-03-24T15:19:43.64</time>
<name>425</name>
</trkpt>
<trkpt lat="49.509550" lon="9.340263">
<ele>443.5</ele>
<speed>84.7</speed>
<course>118.6</course>
<desc>Speed 84.7 km/h Distance 13.12 km</desc>
<time>2011-03-24T15:19:44.64</time>
<name>426</name>
</trkpt>
<trkpt lat="49.509448" lon="9.340550">
<ele>443.5</ele>
<speed>84.7</speed>
<course>124.5</course>
<desc>Speed 84.7 km/h Distance 13.14 km</desc>
<time>2011-03-24T15:19:45.64</time>
<name>427</name>
</trkpt>
<trkpt lat="49.509322" lon="9.340833">
<ele>445.0</ele>
<speed>88.9</speed>
<course>133.4</course>
<desc>Speed 88.9 km/h Distance 13.17 km</desc>
<time>2011-03-24T15:19:46.63</time>
<name>428</name>
</trkpt>
<trkpt lat="49.509168" lon="9.341083">
<ele>446.5</ele>
<speed>89.7</speed>
<course>141.8</course>
<desc>Speed 89.7 km/h Distance 13.19 km</desc>
<time>2011-03-24T15:19:47.63</time>
<name>429</name>
</trkpt>
<trkpt lat="49.508995" lon="9.341293">
<ele>447.0</ele>
<speed>88.5</speed>
<course>143.9</course>
<desc>Speed 88.5 km/h Distance 13.21 km</desc>
<time>2011-03-24T15:19:48.64</time>
<name>430</name>
</trkpt>
<trkpt lat="49.508817" lon="9.341493">
<ele>448.0</ele>
<speed>88.2</speed>
<course>145.1</course>
<desc>Speed 88.2 km/h Distance 13.24 km</desc>
<time>2011-03-24T15:19:49.63</time>
<name>431</name>
</trkpt>
<trkpt lat="49.508637" lon="9.341687">
<ele>449.0</ele>
<speed>88.0</speed>
<course>145.6</course>
<desc>Speed 88.0 km/h Distance 13.26 km</desc>
<time>2011-03-24T15:19:50.64</time>
<name>432</name>
</trkpt>
<trkpt lat="49.508455" lon="9.341878">
<ele>450.5</ele>
<speed>88.7</speed>
<course>143.5</course>
<desc>Speed 88.7 km/h Distance 13.29 km</desc>
<time>2011-03-24T15:19:51.63</time>
<name>433</name>
</trkpt>
<trkpt lat="49.508278" lon="9.342080">
<ele>451.5</ele>
<speed>87.9</speed>
<course>140.0</course>
<desc>Speed 87.9 km/h Distance 13.31 km</desc>
<time>2011-03-24T15:19:52.63</time>
<name>434</name>
</trkpt>
<trkpt lat="49.508112" lon="9.342295">
<ele>452.5</ele>
<speed>87.7</speed>
<course>137.5</course>
<desc>Speed 87.7 km/h Distance 13.34 km</desc>
<time>2011-03-24T15:19:53.63</time>
<name>435</name>
</trkpt>
<trkpt lat="49.507950" lon="9.342523">
<ele>453.5</ele>
<speed>87.9</speed>
<course>133.3</course>
<desc>Speed 87.9 km/h Distance 13.36 km</desc>
<time>2011-03-24T15:19:54.63</time>
<name>436</name>
</trkpt>
<trkpt lat="49.507800" lon="9.342768">
<ele>453.5</ele>
<speed>87.7</speed>
<course>133.8</course>
<desc>Speed 87.7 km/h Distance 13.39 km</desc>
<time>2011-03-24T15:19:55.64</time>
<name>437</name>
</trkpt>
<trkpt lat="49.507647" lon="9.343015">
<ele>454.5</ele>
<speed>89.4</speed>
<course>133.9</course>
<desc>Speed 89.4 km/h Distance 13.41 km</desc>
<time>2011-03-24T15:19:56.63</time>
<name>438</name>
</trkpt>
<trkpt lat="49.507492" lon="9.343263">
<ele>455.5</ele>
<speed>89.6</speed>
<course>138.0</course>
<desc>Speed 89.6 km/h Distance 13.43 km</desc>
<time>2011-03-24T15:19:57.62</time>
<name>439</name>
</trkpt>
<trkpt lat="49.507332" lon="9.343485">
<ele>455.0</ele>
<speed>86.5</speed>
<course>141.8</course>
<desc>Speed 86.5 km/h Distance 13.46 km</desc>
<time>2011-03-24T15:19:58.63</time>
<name>440</name>
</trkpt>
<trkpt lat="49.507152" lon="9.343703">
<ele>455.5</ele>
<speed>91.5</speed>
<course>145.4</course>
<desc>Speed 91.5 km/h Distance 13.48 km</desc>
<time>2011-03-24T15:19:59.63</time>
<name>441</name>
</trkpt>
<trkpt lat="49.506962" lon="9.343905">
<ele>456.0</ele>
<speed>92.8</speed>
<course>147.7</course>
<desc>Speed 92.8 km/h Distance 13.51 km</desc>
<time>2011-03-24T15:20:00.63</time>
<name>442</name>
</trkpt>
<trkpt lat="49.506758" lon="9.344103">
<ele>456.5</ele>
<speed>95.9</speed>
<course>149.1</course>
<desc>Speed 95.9 km/h Distance 13.54 km</desc>
<time>2011-03-24T15:20:01.63</time>
<name>443</name>
</trkpt>
<trkpt lat="49.506548" lon="9.344297">
<ele>456.5</ele>
<speed>97.9</speed>
<course>149.7</course>
<desc>Speed 97.9 km/h Distance 13.56 km</desc>
<time>2011-03-24T15:20:02.63</time>
<name>444</name>
</trkpt>
<trkpt lat="49.506335" lon="9.344488">
<ele>457.0</ele>
<speed>99.6</speed>
<course>150.5</course>
<desc>Speed 99.6 km/h Distance 13.59 km</desc>
<time>2011-03-24T15:20:03.62</time>
<name>445</name>
</trkpt>
<trkpt lat="49.506117" lon="9.344678">
<ele>457.0</ele>
<speed>101</speed>
<course>150.7</course>
<desc>Speed 101 km/h Distance 13.62 km</desc>
<time>2011-03-24T15:20:04.62</time>
<name>446</name>
</trkpt>
<trkpt lat="49.505897" lon="9.344868">
<ele>457.5</ele>
<speed>101</speed>
<course>150.9</course>
<desc>Speed 101 km/h Distance 13.65 km</desc>
<time>2011-03-24T15:20:05.62</time>
<name>447</name>
</trkpt>
<trkpt lat="49.505675" lon="9.345058">
<ele>457.5</ele>
<speed>101</speed>
<course>149.4</course>
<desc>Speed 101 km/h Distance 13.68 km</desc>
<time>2011-03-24T15:20:06.62</time>
<name>448</name>
</trkpt>
<trkpt lat="49.505453" lon="9.345260">
<ele>457.5</ele>
<speed>103</speed>
<course>149.0</course>
<desc>Speed 103 km/h Distance 13.70 km</desc>
<time>2011-03-24T15:20:07.62</time>
<name>449</name>
</trkpt>
<trkpt lat="49.505225" lon="9.345472">
<ele>457.5</ele>
<speed>106</speed>
<course>148.7</course>
<desc>Speed 106 km/h Distance 13.73 km</desc>
<time>2011-03-24T15:20:08.63</time>
<name>450</name>
</trkpt>
<trkpt lat="49.504995" lon="9.345687">
<ele>457.0</ele>
<speed>108</speed>
<course>150.5</course>
<desc>Speed 108 km/h Distance 13.76 km</desc>
<time>2011-03-24T15:20:09.62</time>
<name>451</name>
</trkpt>
<trkpt lat="49.504760" lon="9.345892">
<ele>456.5</ele>
<speed>108</speed>
<course>152.7</course>
<desc>Speed 108 km/h Distance 13.79 km</desc>
<time>2011-03-24T15:20:10.62</time>
<name>452</name>
</trkpt>
<trkpt lat="49.504523" lon="9.346080">
<ele>456.0</ele>
<speed>107</speed>
<course>153.7</course>
<desc>Speed 107 km/h Distance 13.82 km</desc>
<time>2011-03-24T15:20:11.62</time>
<name>453</name>
</trkpt>
<trkpt lat="49.504287" lon="9.346260">
<ele>455.5</ele>
<speed>106</speed>
<course>153.3</course>
<desc>Speed 106 km/h Distance 13.85 km</desc>
<time>2011-03-24T15:20:12.62</time>
<name>454</name>
</trkpt>
<trkpt lat="49.504058" lon="9.346437">
<ele>455.5</ele>
<speed>102</speed>
<course>149.5</course>
<desc>Speed 102 km/h Distance 13.88 km</desc>
<time>2011-03-24T15:20:13.62</time>
<name>455</name>
</trkpt>
<trkpt lat="49.503845" lon="9.346630">
<ele>454.5</ele>
<speed>100</speed>
<course>143.1</course>
<desc>Speed 100 km/h Distance 13.91 km</desc>
<time>2011-03-24T15:20:14.62</time>
<name>456</name>
</trkpt>
<trkpt lat="49.503642" lon="9.346865">
<ele>454.5</ele>
<speed>102</speed>
<course>140.1</course>
<desc>Speed 102 km/h Distance 13.94 km</desc>
<time>2011-03-24T15:20:15.62</time>
<name>457</name>
</trkpt>
<trkpt lat="49.503443" lon="9.347120">
<ele>453.0</ele>
<speed>104</speed>
<course>138.7</course>
<desc>Speed 104 km/h Distance 13.97 km</desc>
<time>2011-03-24T15:20:16.62</time>
<name>458</name>
</trkpt>
<trkpt lat="49.503250" lon="9.347382">
<ele>453.0</ele>
<speed>103</speed>
<course>137.3</course>
<desc>Speed 103 km/h Distance 14.00 km</desc>
<time>2011-03-24T15:20:17.62</time>
<name>459</name>
</trkpt>
<trkpt lat="49.503063" lon="9.347647">
<ele>452.5</ele>
<speed>102</speed>
<course>141.2</course>
<desc>Speed 102 km/h Distance 14.02 km</desc>
<time>2011-03-24T15:20:18.62</time>
<name>460</name>
</trkpt>
<trkpt lat="49.502873" lon="9.347882">
<ele>453.0</ele>
<speed>97.6</speed>
<course>141.3</course>
<desc>Speed 97.6 km/h Distance 14.05 km</desc>
<time>2011-03-24T15:20:19.61</time>
<name>461</name>
</trkpt>
<trkpt lat="49.502695" lon="9.348102">
<ele>453.0</ele>
<speed>92.2</speed>
<course>144.6</course>
<desc>Speed 92.2 km/h Distance 14.08 km</desc>
<time>2011-03-24T15:20:20.62</time>
<name>462</name>
</trkpt>
<trkpt lat="49.502515" lon="9.348298">
<ele>452.5</ele>
<speed>88.1</speed>
<course>147.7</course>
<desc>Speed 88.1 km/h Distance 14.10 km</desc>
<time>2011-03-24T15:20:21.61</time>
<name>463</name>
</trkpt>
<trkpt lat="49.502338" lon="9.348470">
<ele>452.5</ele>
<speed>84.3</speed>
<course>150.1</course>
<desc>Speed 84.3 km/h Distance 14.12 km</desc>
<time>2011-03-24T15:20:22.61</time>
<name>464</name>
</trkpt>
<trkpt lat="49.502163" lon="9.348625">
<ele>452.0</ele>
<speed>80.5</speed>
<course>151.6</course>
<desc>Speed 80.5 km/h Distance 14.15 km</desc>
<time>2011-03-24T15:20:23.61</time>
<name>465</name>
</trkpt>
<trkpt lat="49.501995" lon="9.348765">
<ele>452.0</ele>
<speed>77.0</speed>
<course>151.3</course>
<desc>Speed 77.0 km/h Distance 14.17 km</desc>
<time>2011-03-24T15:20:24.61</time>
<name>466</name>
</trkpt>
<trkpt lat="49.501837" lon="9.348898">
<ele>452.0</ele>
<speed>72.9</speed>
<course>150.9</course>
<desc>Speed 72.9 km/h Distance 14.19 km</desc>
<time>2011-03-24T15:20:25.61</time>
<name>467</name>
</trkpt>
<trkpt lat="49.501685" lon="9.349028">
<ele>452.0</ele>
<speed>69.4</speed>
<course>148.6</course>
<desc>Speed 69.4 km/h Distance 14.21 km</desc>
<time>2011-03-24T15:20:26.62</time>
<name>468</name>
</trkpt>
<trkpt lat="49.501547" lon="9.349158">
<ele>453.5</ele>
<speed>64.9</speed>
<course>149.4</course>
<desc>Speed 64.9 km/h Distance 14.22 km</desc>
<time>2011-03-24T15:20:27.61</time>
<name>469</name>
</trkpt>
<trkpt lat="49.501417" lon="9.349277">
<ele>453.5</ele>
<speed>61.0</speed>
<course>149.1</course>
<desc>Speed 61.0 km/h Distance 14.24 km</desc>
<time>2011-03-24T15:20:28.61</time>
<name>470</name>
</trkpt>
<trkpt lat="49.501292" lon="9.349392">
<ele>453.5</ele>
<speed>58.2</speed>
<course>147.7</course>
<desc>Speed 58.2 km/h Distance 14.26 km</desc>
<time>2011-03-24T15:20:29.60</time>
<name>471</name>
</trkpt>
<trkpt lat="49.501162" lon="9.349518">
<ele>454.0</ele>
<speed>62.1</speed>
<course>147.0</course>
<desc>Speed 62.1 km/h Distance 14.28 km</desc>
<time>2011-03-24T15:20:30.61</time>
<name>472</name>
</trkpt>
<trkpt lat="49.500837" lon="9.349843">
<ele>454.5</ele>
<speed>78.3</speed>
<course>146.4</course>
<desc>Speed 78.3 km/h Distance 14.32 km</desc>
<time>2011-03-24T15:20:32.61</time>
<name>473</name>
</trkpt>
<trkpt lat="49.500425" lon="9.350265">
<ele>457.0</ele>
<speed>106</speed>
<course>147.2</course>
<desc>Speed 106 km/h Distance 14.37 km</desc>
<time>2011-03-24T15:20:34.62</time>
<name>474</name>
</trkpt>
<trkpt lat="49.500183" lon="9.350505">
<ele>458.5</ele>
<speed>116</speed>
<course>144.7</course>
<desc>Speed 116 km/h Distance 14.41 km</desc>
<time>2011-03-24T15:20:35.60</time>
<name>475</name>
</trkpt>
<trkpt lat="49.499942" lon="9.350768">
<ele>457.5</ele>
<speed>120</speed>
<course>145.6</course>
<desc>Speed 120 km/h Distance 14.44 km</desc>
<time>2011-03-24T15:20:36.61</time>
<name>476</name>
</trkpt>
<trkpt lat="49.499693" lon="9.351030">
<ele>457.5</ele>
<speed>121</speed>
<course>145.3</course>
<desc>Speed 121 km/h Distance 14.47 km</desc>
<time>2011-03-24T15:20:37.60</time>
<name>477</name>
</trkpt>
<trkpt lat="49.499440" lon="9.351300">
<ele>458.0</ele>
<speed>124</speed>
<course>142.9</course>
<desc>Speed 124 km/h Distance 14.51 km</desc>
<time>2011-03-24T15:20:38.60</time>
<name>478</name>
</trkpt>
<trkpt lat="49.499207" lon="9.351572">
<ele>457.0</ele>
<speed>118</speed>
<course>146.6</course>
<desc>Speed 118 km/h Distance 14.54 km</desc>
<time>2011-03-24T15:20:39.60</time>
<name>479</name>
</trkpt>
<trkpt lat="49.498987" lon="9.351795">
<ele>457.0</ele>
<speed>106</speed>
<course>142.5</course>
<desc>Speed 106 km/h Distance 14.57 km</desc>
<time>2011-03-24T15:20:40.61</time>
<name>480</name>
</trkpt>
<trkpt lat="49.498777" lon="9.352043">
<ele>456.5</ele>
<speed>106</speed>
<course>141.0</course>
<desc>Speed 106 km/h Distance 14.60 km</desc>
<time>2011-03-24T15:20:41.60</time>
<name>481</name>
</trkpt>
<trkpt lat="49.498573" lon="9.352297">
<ele>455.5</ele>
<speed>105</speed>
<course>140.3</course>
<desc>Speed 105 km/h Distance 14.63 km</desc>
<time>2011-03-24T15:20:42.61</time>
<name>482</name>
</trkpt>
<trkpt lat="49.498365" lon="9.352563">
<ele>454.0</ele>
<speed>109</speed>
<course>139.2</course>
<desc>Speed 109 km/h Distance 14.66 km</desc>
<time>2011-03-24T15:20:43.60</time>
<name>483</name>
</trkpt>
<trkpt lat="49.498148" lon="9.352852">
<ele>452.5</ele>
<speed>115</speed>
<course>138.6</course>
<desc>Speed 115 km/h Distance 14.69 km</desc>
<time>2011-03-24T15:20:44.61</time>
<name>484</name>
</trkpt>
<trkpt lat="49.497925" lon="9.353155">
<ele>452.0</ele>
<speed>120</speed>
<course>137.8</course>
<desc>Speed 120 km/h Distance 14.72 km</desc>
<time>2011-03-24T15:20:45.61</time>
<name>485</name>
</trkpt>
<trkpt lat="49.497702" lon="9.353467">
<ele>450.0</ele>
<speed>121</speed>
<course>137.2</course>
<desc>Speed 121 km/h Distance 14.76 km</desc>
<time>2011-03-24T15:20:46.60</time>
<name>486</name>
</trkpt>
<trkpt lat="49.497472" lon="9.353795">
<ele>448.0</ele>
<speed>126</speed>
<course>136.5</course>
<desc>Speed 126 km/h Distance 14.79 km</desc>
<time>2011-03-24T15:20:47.60</time>
<name>487</name>
</trkpt>
<trkpt lat="49.497243" lon="9.354128">
<ele>446.0</ele>
<speed>126</speed>
<course>136.0</course>
<desc>Speed 126 km/h Distance 14.83 km</desc>
<time>2011-03-24T15:20:48.61</time>
<name>488</name>
</trkpt>
<trkpt lat="49.497020" lon="9.354460">
<ele>444.0</ele>
<speed>124</speed>
<course>136.6</course>
<desc>Speed 124 km/h Distance 14.86 km</desc>
<time>2011-03-24T15:20:49.60</time>
<name>489</name>
</trkpt>
<trkpt lat="49.496797" lon="9.354785">
<ele>442.5</ele>
<speed>124</speed>
<course>138.4</course>
<desc>Speed 124 km/h Distance 14.89 km</desc>
<time>2011-03-24T15:20:50.60</time>
<name>490</name>
</trkpt>
<trkpt lat="49.496568" lon="9.355097">
<ele>441.0</ele>
<speed>122</speed>
<course>140.3</course>
<desc>Speed 122 km/h Distance 14.93 km</desc>
<time>2011-03-24T15:20:51.60</time>
<name>491</name>
</trkpt>
<trkpt lat="49.496335" lon="9.355395">
<ele>439.5</ele>
<speed>121</speed>
<course>143.2</course>
<desc>Speed 121 km/h Distance 14.96 km</desc>
<time>2011-03-24T15:20:52.60</time>
<name>492</name>
</trkpt>
<trkpt lat="49.496095" lon="9.355672">
<ele>438.0</ele>
<speed>120</speed>
<course>147.9</course>
<desc>Speed 120 km/h Distance 15.00 km</desc>
<time>2011-03-24T15:20:53.60</time>
<name>493</name>
</trkpt>
<trkpt lat="49.495842" lon="9.355917">
<ele>437.5</ele>
<speed>120</speed>
<course>151.9</course>
<desc>Speed 120 km/h Distance 15.03 km</desc>
<time>2011-03-24T15:20:54.60</time>
<name>494</name>
</trkpt>
<trkpt lat="49.495578" lon="9.356133">
<ele>436.0</ele>
<speed>119</speed>
<course>156.3</course>
<desc>Speed 119 km/h Distance 15.06 km</desc>
<time>2011-03-24T15:20:55.60</time>
<name>495</name>
</trkpt>
<trkpt lat="49.495307" lon="9.356317">
<ele>434.5</ele>
<speed>119</speed>
<course>160.0</course>
<desc>Speed 119 km/h Distance 15.09 km</desc>
<time>2011-03-24T15:20:56.60</time>
<name>496</name>
</trkpt>
<trkpt lat="49.495027" lon="9.356473">
<ele>433.5</ele>
<speed>119</speed>
<course>164.7</course>
<desc>Speed 119 km/h Distance 15.13 km</desc>
<time>2011-03-24T15:20:57.59</time>
<name>497</name>
</trkpt>
<trkpt lat="49.494750" lon="9.356590">
<ele>433.0</ele>
<speed>115</speed>
<course>168.9</course>
<desc>Speed 115 km/h Distance 15.16 km</desc>
<time>2011-03-24T15:20:58.59</time>
<name>498</name>
</trkpt>
<trkpt lat="49.494468" lon="9.356675">
<ele>431.0</ele>
<speed>115</speed>
<course>176.6</course>
<desc>Speed 115 km/h Distance 15.19 km</desc>
<time>2011-03-24T15:20:59.59</time>
<name>499</name>
</trkpt>
<trkpt lat="49.493810" lon="9.356735">
<ele>432.0</ele>
<speed>133</speed>
<course>179.8</course>
<desc>Speed 133 km/h Distance 15.27 km</desc>
<time>2011-03-24T15:21:01.60</time>
<name>500</name>
</trkpt>
<trkpt lat="49.493480" lon="9.356737">
<ele>431.0</ele>
<speed>132</speed>
<course>176.7</course>
<desc>Speed 132 km/h Distance 15.30 km</desc>
<time>2011-03-24T15:21:02.60</time>
<name>501</name>
</trkpt>
<trkpt lat="49.493128" lon="9.356768">
<ele>432.5</ele>
<speed>141</speed>
<course>173.5</course>
<desc>Speed 141 km/h Distance 15.34 km</desc>
<time>2011-03-24T15:21:03.59</time>
<name>502</name>
</trkpt>
<trkpt lat="49.492775" lon="9.356830">
<ele>432.5</ele>
<speed>142</speed>
<course>173.2</course>
<desc>Speed 142 km/h Distance 15.38 km</desc>
<time>2011-03-24T15:21:04.59</time>
<name>503</name>
</trkpt>
<trkpt lat="49.492412" lon="9.356897">
<ele>434.0</ele>
<speed>147</speed>
<course>172.0</course>
<desc>Speed 147 km/h Distance 15.42 km</desc>
<time>2011-03-24T15:21:05.60</time>
<name>504</name>
</trkpt>
<trkpt lat="49.492043" lon="9.356977">
<ele>435.5</ele>
<speed>149</speed>
<course>171.2</course>
<desc>Speed 149 km/h Distance 15.46 km</desc>
<time>2011-03-24T15:21:06.59</time>
<name>505</name>
</trkpt>
<trkpt lat="49.491672" lon="9.357065">
<ele>437.0</ele>
<speed>151</speed>
<course>170.8</course>
<desc>Speed 151 km/h Distance 15.50 km</desc>
<time>2011-03-24T15:21:07.60</time>
<name>506</name>
</trkpt>
<trkpt lat="49.491298" lon="9.357158">
<ele>439.0</ele>
<speed>152</speed>
<course>169.3</course>
<desc>Speed 152 km/h Distance 15.55 km</desc>
<time>2011-03-24T15:21:08.59</time>
<name>507</name>
</trkpt>
<trkpt lat="49.490920" lon="9.357268">
<ele>439.0</ele>
<speed>154</speed>
<course>168.6</course>
<desc>Speed 154 km/h Distance 15.59 km</desc>
<time>2011-03-24T15:21:09.60</time>
<name>508</name>
</trkpt>
<trkpt lat="49.490538" lon="9.357387">
<ele>439.0</ele>
<speed>156</speed>
<course>168.0</course>
<desc>Speed 156 km/h Distance 15.63 km</desc>
<time>2011-03-24T15:21:10.60</time>
<name>509</name>
</trkpt>
<trkpt lat="49.490167" lon="9.357508">
<ele>440.5</ele>
<speed>151</speed>
<course>169.5</course>
<desc>Speed 151 km/h Distance 15.68 km</desc>
<time>2011-03-24T15:21:11.60</time>
<name>510</name>
</trkpt>
<trkpt lat="49.489823" lon="9.357607">
<ele>442.0</ele>
<speed>140</speed>
<course>171.1</course>
<desc>Speed 140 km/h Distance 15.71 km</desc>
<time>2011-03-24T15:21:12.58</time>
<name>511</name>
</trkpt>
<trkpt lat="49.489505" lon="9.357683">
<ele>440.5</ele>
<speed>129</speed>
<course>175.1</course>
<desc>Speed 129 km/h Distance 15.75 km</desc>
<time>2011-03-24T15:21:13.59</time>
<name>512</name>
</trkpt>
<trkpt lat="49.489190" lon="9.357725">
<ele>440.5</ele>
<speed>126</speed>
<course>178.6</course>
<desc>Speed 126 km/h Distance 15.79 km</desc>
<time>2011-03-24T15:21:14.59</time>
<name>513</name>
</trkpt>
<trkpt lat="49.488890" lon="9.357737">
<ele>440.0</ele>
<speed>120</speed>
<course>181.4</course>
<desc>Speed 120 km/h Distance 15.82 km</desc>
<time>2011-03-24T15:21:15.59</time>
<name>514</name>
</trkpt>
<trkpt lat="49.488580" lon="9.357725">
<ele>440.0</ele>
<speed>124</speed>
<course>184.9</course>
<desc>Speed 124 km/h Distance 15.85 km</desc>
<time>2011-03-24T15:21:16.59</time>
<name>515</name>
</trkpt>
<trkpt lat="49.488275" lon="9.357685">
<ele>437.5</ele>
<speed>122</speed>
<course>187.3</course>
<desc>Speed 122 km/h Distance 15.89 km</desc>
<time>2011-03-24T15:21:17.59</time>
<name>516</name>
</trkpt>
<trkpt lat="49.487963" lon="9.357623">
<ele>437.5</ele>
<speed>125</speed>
<course>188.4</course>
<desc>Speed 125 km/h Distance 15.92 km</desc>
<time>2011-03-24T15:21:18.58</time>
<name>517</name>
</trkpt>
<trkpt lat="49.487647" lon="9.357552">
<ele>437.0</ele>
<speed>128</speed>
<course>189.5</course>
<desc>Speed 128 km/h Distance 15.96 km</desc>
<time>2011-03-24T15:21:19.58</time>
<name>518</name>
</trkpt>
<trkpt lat="49.487362" lon="9.357478">
<ele>435.5</ele>
<speed>116</speed>
<course>189.0</course>
<desc>Speed 116 km/h Distance 15.99 km</desc>
<time>2011-03-24T15:21:20.58</time>
<name>519</name>
</trkpt>
<trkpt lat="49.487073" lon="9.357408">
<ele>435.5</ele>
<speed>117</speed>
<course>187.6</course>
<desc>Speed 117 km/h Distance 16.02 km</desc>
<time>2011-03-24T15:21:21.58</time>
<name>520</name>
</trkpt>
<trkpt lat="49.486797" lon="9.357352">
<ele>435.0</ele>
<speed>112</speed>
<course>185.6</course>
<desc>Speed 112 km/h Distance 16.05 km</desc>
<time>2011-03-24T15:21:22.58</time>
<name>521</name>
</trkpt>
<trkpt lat="49.486533" lon="9.357312">
<ele>435.0</ele>
<speed>106</speed>
<course>184.5</course>
<desc>Speed 106 km/h Distance 16.08 km</desc>
<time>2011-03-24T15:21:23.60</time>
<name>522</name>
</trkpt>
<trkpt lat="49.486273" lon="9.357280">
<ele>434.5</ele>
<speed>104</speed>
<course>184.0</course>
<desc>Speed 104 km/h Distance 16.11 km</desc>
<time>2011-03-24T15:21:24.59</time>
<name>523</name>
</trkpt>
<trkpt lat="49.486013" lon="9.357252">
<ele>432.5</ele>
<speed>104</speed>
<course>176.8</course>
<desc>Speed 104 km/h Distance 16.14 km</desc>
<time>2011-03-24T15:21:25.59</time>
<name>524</name>
</trkpt>
<trkpt lat="49.485765" lon="9.357273">
<ele>432.5</ele>
<speed>100</speed>
<course>171.6</course>
<desc>Speed 100 km/h Distance 16.17 km</desc>
<time>2011-03-24T15:21:26.58</time>
<name>525</name>
</trkpt>
<trkpt lat="49.485523" lon="9.357328">
<ele>432.5</ele>
<speed>97.5</speed>
<course>175.6</course>
<desc>Speed 97.5 km/h Distance 16.20 km</desc>
<time>2011-03-24T15:21:27.58</time>
<name>526</name>
</trkpt>
<trkpt lat="49.485268" lon="9.357358">
<ele>430.0</ele>
<speed>102</speed>
<course>178.4</course>
<desc>Speed 102 km/h Distance 16.22 km</desc>
<time>2011-03-24T15:21:28.59</time>
<name>527</name>
</trkpt>
<trkpt lat="49.484995" lon="9.357370">
<ele>430.0</ele>
<speed>110</speed>
<course>175.4</course>
<desc>Speed 110 km/h Distance 16.25 km</desc>
<time>2011-03-24T15:21:29.59</time>
<name>528</name>
</trkpt>
<trkpt lat="49.484728" lon="9.357403">
<ele>429.5</ele>
<speed>106</speed>
<course>170.6</course>
<desc>Speed 106 km/h Distance 16.28 km</desc>
<time>2011-03-24T15:21:30.58</time>
<name>529</name>
</trkpt>
<trkpt lat="49.484480" lon="9.357467">
<ele>429.0</ele>
<speed>99.2</speed>
<course>158.1</course>
<desc>Speed 99.2 km/h Distance 16.31 km</desc>
<time>2011-03-24T15:21:31.58</time>
<name>530</name>
</trkpt>
<trkpt lat="49.484275" lon="9.357593">
<ele>427.0</ele>
<speed>88.7</speed>
<course>158.1</course>
<desc>Speed 88.7 km/h Distance 16.34 km</desc>
<time>2011-03-24T15:21:32.57</time>
<name>531</name>
</trkpt>
<trkpt lat="49.484070" lon="9.357720">
<ele>424.5</ele>
<speed>87.2</speed>
<course>149.1</course>
<desc>Speed 87.2 km/h Distance 16.36 km</desc>
<time>2011-03-24T15:21:33.58</time>
<name>532</name>
</trkpt>
<trkpt lat="49.483882" lon="9.357893">
<ele>421.5</ele>
<speed>90.9</speed>
<course>153.9</course>
<desc>Speed 90.9 km/h Distance 16.39 km</desc>
<time>2011-03-24T15:21:34.57</time>
<name>533</name>
</trkpt>
<trkpt lat="49.483685" lon="9.358042">
<ele>419.5</ele>
<speed>87.3</speed>
<course>151.7</course>
<desc>Speed 87.3 km/h Distance 16.41 km</desc>
<time>2011-03-24T15:21:35.58</time>
<name>534</name>
</trkpt>
<trkpt lat="49.483502" lon="9.358193">
<ele>418.0</ele>
<speed>83.5</speed>
<course>143.8</course>
<desc>Speed 83.5 km/h Distance 16.43 km</desc>
<time>2011-03-24T15:21:36.57</time>
<name>535</name>
</trkpt>
<trkpt lat="49.483343" lon="9.358372">
<ele>417.5</ele>
<speed>79.2</speed>
<course>140.7</course>
<desc>Speed 79.2 km/h Distance 16.46 km</desc>
<time>2011-03-24T15:21:37.57</time>
<name>536</name>
</trkpt>
<trkpt lat="49.483183" lon="9.358573">
<ele>416.5</ele>
<speed>84.0</speed>
<course>138.8</course>
<desc>Speed 84.0 km/h Distance 16.48 km</desc>
<time>2011-03-24T15:21:38.57</time>
<name>537</name>
</trkpt>
<trkpt lat="49.483030" lon="9.358780">
<ele>414.5</ele>
<speed>82.2</speed>
<course>137.4</course>
<desc>Speed 82.2 km/h Distance 16.50 km</desc>
<time>2011-03-24T15:21:39.57</time>
<name>538</name>
</trkpt>
<trkpt lat="49.482870" lon="9.359007">
<ele>413.5</ele>
<speed>87.9</speed>
<course>137.6</course>
<desc>Speed 87.9 km/h Distance 16.53 km</desc>
<time>2011-03-24T15:21:40.57</time>
<name>539</name>
</trkpt>
<trkpt lat="49.482705" lon="9.359238">
<ele>413.5</ele>
<speed>89.8</speed>
<course>132.7</course>
<desc>Speed 89.8 km/h Distance 16.55 km</desc>
<time>2011-03-24T15:21:41.57</time>
<name>540</name>
</trkpt>
<trkpt lat="49.482543" lon="9.359508">
<ele>413.0</ele>
<speed>96.2</speed>
<course>132.3</course>
<desc>Speed 96.2 km/h Distance 16.58 km</desc>
<time>2011-03-24T15:21:42.57</time>
<name>541</name>
</trkpt>
<trkpt lat="49.482372" lon="9.359798">
<ele>412.5</ele>
<speed>103</speed>
<course>126.1</course>
<desc>Speed 103 km/h Distance 16.61 km</desc>
<time>2011-03-24T15:21:43.57</time>
<name>542</name>
</trkpt>
<trkpt lat="49.482237" lon="9.360083">
<ele>411.5</ele>
<speed>93.9</speed>
<course>125.2</course>
<desc>Speed 93.9 km/h Distance 16.63 km</desc>
<time>2011-03-24T15:21:44.58</time>
<name>543</name>
</trkpt>
<trkpt lat="49.482102" lon="9.360378">
<ele>410.0</ele>
<speed>94.0</speed>
<course>121.8</course>
<desc>Speed 94.0 km/h Distance 16.66 km</desc>
<time>2011-03-24T15:21:45.57</time>
<name>544</name>
</trkpt>
<trkpt lat="49.481978" lon="9.360685">
<ele>409.0</ele>
<speed>94.0</speed>
<course>119.5</course>
<desc>Speed 94.0 km/h Distance 16.68 km</desc>
<time>2011-03-24T15:21:46.57</time>
<name>545</name>
</trkpt>
<trkpt lat="49.481863" lon="9.360998">
<ele>406.5</ele>
<speed>95.3</speed>
<course>115.1</course>
<desc>Speed 95.3 km/h Distance 16.71 km</desc>
<time>2011-03-24T15:21:47.57</time>
<name>546</name>
</trkpt>
<trkpt lat="49.481757" lon="9.361348">
<ele>406.0</ele>
<speed>101</speed>
<course>114.5</course>
<desc>Speed 101 km/h Distance 16.74 km</desc>
<time>2011-03-24T15:21:48.58</time>
<name>547</name>
</trkpt>
<trkpt lat="49.481657" lon="9.361687">
<ele>403.5</ele>
<speed>100</speed>
<course>109.3</course>
<desc>Speed 100 km/h Distance 16.76 km</desc>
<time>2011-03-24T15:21:49.56</time>
<name>548</name>
</trkpt>
<trkpt lat="49.481570" lon="9.362067">
<ele>402.5</ele>
<speed>106</speed>
<course>107.2</course>
<desc>Speed 106 km/h Distance 16.79 km</desc>
<time>2011-03-24T15:21:50.56</time>
<name>549</name>
</trkpt>
<trkpt lat="49.481490" lon="9.362465">
<ele>400.5</ele>
<speed>109</speed>
<course>102.2</course>
<desc>Speed 109 km/h Distance 16.82 km</desc>
<time>2011-03-24T15:21:51.56</time>
<name>550</name>
</trkpt>
<trkpt lat="49.481360" lon="9.363393">
<ele>397.5</ele>
<speed>126</speed>
<course>100.6</course>
<desc>Speed 126 km/h Distance 16.89 km</desc>
<time>2011-03-24T15:21:53.56</time>
<name>551</name>
</trkpt>
<trkpt lat="49.481243" lon="9.364357">
<ele>396.5</ele>
<speed>141</speed>
<course>102.1</course>
<desc>Speed 141 km/h Distance 16.96 km</desc>
<time>2011-03-24T15:21:55.57</time>
<name>552</name>
</trkpt>
<trkpt lat="49.481165" lon="9.364918">
<ele>396.0</ele>
<speed>150</speed>
<course>102.7</course>
<desc>Speed 150 km/h Distance 17.00 km</desc>
<time>2011-03-24T15:21:56.56</time>
<name>553</name>
</trkpt>
<trkpt lat="49.481085" lon="9.365467">
<ele>394.0</ele>
<speed>146</speed>
<course>103.2</course>
<desc>Speed 146 km/h Distance 17.04 km</desc>
<time>2011-03-24T15:21:57.56</time>
<name>554</name>
</trkpt>
<trkpt lat="49.481003" lon="9.366003">
<ele>392.0</ele>
<speed>143</speed>
<course>104.3</course>
<desc>Speed 143 km/h Distance 17.08 km</desc>
<time>2011-03-24T15:21:58.56</time>
<name>555</name>
</trkpt>
<trkpt lat="49.480915" lon="9.366537">
<ele>391.0</ele>
<speed>143</speed>
<course>104.8</course>
<desc>Speed 143 km/h Distance 17.12 km</desc>
<time>2011-03-24T15:21:59.56</time>
<name>556</name>
</trkpt>
<trkpt lat="49.480822" lon="9.367080">
<ele>390.0</ele>
<speed>145</speed>
<course>109.5</course>
<desc>Speed 145 km/h Distance 17.17 km</desc>
<time>2011-03-24T15:22:00.56</time>
<name>557</name>
</trkpt>
<trkpt lat="49.480695" lon="9.367630">
<ele>391.0</ele>
<speed>151</speed>
<course>113.8</course>
<desc>Speed 151 km/h Distance 17.21 km</desc>
<time>2011-03-24T15:22:01.57</time>
<name>558</name>
</trkpt>
<trkpt lat="49.480548" lon="9.368142">
<ele>390.5</ele>
<speed>144</speed>
<course>116.2</course>
<desc>Speed 144 km/h Distance 17.25 km</desc>
<time>2011-03-24T15:22:02.56</time>
<name>559</name>
</trkpt>
<trkpt lat="49.480395" lon="9.368622">
<ele>389.0</ele>
<speed>140</speed>
<course>117.0</course>
<desc>Speed 140 km/h Distance 17.29 km</desc>
<time>2011-03-24T15:22:03.56</time>
<name>560</name>
</trkpt>
<trkpt lat="49.480240" lon="9.369090">
<ele>389.0</ele>
<speed>137</speed>
<course>121.1</course>
<desc>Speed 137 km/h Distance 17.32 km</desc>
<time>2011-03-24T15:22:04.56</time>
<name>561</name>
</trkpt>
<trkpt lat="49.480072" lon="9.369520">
<ele>388.5</ele>
<speed>131</speed>
<course>122.0</course>
<desc>Speed 131 km/h Distance 17.36 km</desc>
<time>2011-03-24T15:22:05.55</time>
<name>562</name>
</trkpt>
<trkpt lat="49.479900" lon="9.369943">
<ele>388.0</ele>
<speed>131</speed>
<course>128.1</course>
<desc>Speed 131 km/h Distance 17.40 km</desc>
<time>2011-03-24T15:22:06.56</time>
<name>563</name>
</trkpt>
<trkpt lat="49.479688" lon="9.370358">
<ele>389.5</ele>
<speed>139</speed>
<course>131.5</course>
<desc>Speed 139 km/h Distance 17.44 km</desc>
<time>2011-03-24T15:22:07.56</time>
<name>564</name>
</trkpt>
<trkpt lat="49.479468" lon="9.370742">
<ele>389.0</ele>
<speed>135</speed>
<course>136.8</course>
<desc>Speed 135 km/h Distance 17.47 km</desc>
<time>2011-03-24T15:22:08.57</time>
<name>565</name>
</trkpt>
<trkpt lat="49.479218" lon="9.371103">
<ele>388.5</ele>
<speed>139</speed>
<course>137.2</course>
<desc>Speed 139 km/h Distance 17.51 km</desc>
<time>2011-03-24T15:22:09.56</time>
<name>566</name>
</trkpt>
<trkpt lat="49.478965" lon="9.371465">
<ele>388.0</ele>
<speed>142</speed>
<course>137.6</course>
<desc>Speed 142 km/h Distance 17.55 km</desc>
<time>2011-03-24T15:22:10.56</time>
<name>567</name>
</trkpt>
<trkpt lat="49.478707" lon="9.371828">
<ele>387.5</ele>
<speed>142</speed>
<course>137.4</course>
<desc>Speed 142 km/h Distance 17.59 km</desc>
<time>2011-03-24T15:22:11.56</time>
<name>568</name>
</trkpt>
<trkpt lat="49.478445" lon="9.372198">
<ele>387.5</ele>
<speed>145</speed>
<course>136.4</course>
<desc>Speed 145 km/h Distance 17.63 km</desc>
<time>2011-03-24T15:22:12.56</time>
<name>569</name>
</trkpt>
<trkpt lat="49.478188" lon="9.372575">
<ele>387.0</ele>
<speed>144</speed>
<course>134.4</course>
<desc>Speed 144 km/h Distance 17.67 km</desc>
<time>2011-03-24T15:22:13.55</time>
<name>570</name>
</trkpt>
<trkpt lat="49.477947" lon="9.372955">
<ele>387.0</ele>
<speed>138</speed>
<course>133.8</course>
<desc>Speed 138 km/h Distance 17.71 km</desc>
<time>2011-03-24T15:22:14.56</time>
<name>571</name>
</trkpt>
<trkpt lat="49.477710" lon="9.373335">
<ele>388.0</ele>
<speed>136</speed>
<course>132.2</course>
<desc>Speed 136 km/h Distance 17.74 km</desc>
<time>2011-03-24T15:22:15.55</time>
<name>572</name>
</trkpt>
<trkpt lat="49.477488" lon="9.373712">
<ele>388.5</ele>
<speed>132</speed>
<course>128.9</course>
<desc>Speed 132 km/h Distance 17.78 km</desc>
<time>2011-03-24T15:22:16.55</time>
<name>573</name>
</trkpt>
<trkpt lat="49.477295" lon="9.374080">
<ele>390.0</ele>
<speed>123</speed>
<course>127.6</course>
<desc>Speed 123 km/h Distance 17.81 km</desc>
<time>2011-03-24T15:22:17.55</time>
<name>574</name>
</trkpt>
<trkpt lat="49.477105" lon="9.374460">
<ele>392.0</ele>
<speed>125</speed>
<course>125.4</course>
<desc>Speed 125 km/h Distance 17.85 km</desc>
<time>2011-03-24T15:22:18.55</time>
<name>575</name>
</trkpt>
<trkpt lat="49.476925" lon="9.374850">
<ele>393.5</ele>
<speed>125</speed>
<course>122.5</course>
<desc>Speed 125 km/h Distance 17.88 km</desc>
<time>2011-03-24T15:22:19.55</time>
<name>576</name>
</trkpt>
<trkpt lat="49.476758" lon="9.375253">
<ele>394.5</ele>
<speed>125</speed>
<course>120.7</course>
<desc>Speed 125 km/h Distance 17.92 km</desc>
<time>2011-03-24T15:22:20.55</time>
<name>577</name>
</trkpt>
<trkpt lat="49.476602" lon="9.375660">
<ele>395.5</ele>
<speed>123</speed>
<course>116.6</course>
<desc>Speed 123 km/h Distance 17.95 km</desc>
<time>2011-03-24T15:22:21.55</time>
<name>578</name>
</trkpt>
<trkpt lat="49.476465" lon="9.376080">
<ele>396.0</ele>
<speed>122</speed>
<course>116.2</course>
<desc>Speed 122 km/h Distance 17.99 km</desc>
<time>2011-03-24T15:22:22.55</time>
<name>579</name>
</trkpt>
<trkpt lat="49.476328" lon="9.376508">
<ele>396.0</ele>
<speed>124</speed>
<course>113.0</course>
<desc>Speed 124 km/h Distance 18.02 km</desc>
<time>2011-03-24T15:22:23.55</time>
<name>580</name>
</trkpt>
<trkpt lat="49.476207" lon="9.376950">
<ele>395.5</ele>
<speed>125</speed>
<course>110.4</course>
<desc>Speed 125 km/h Distance 18.06 km</desc>
<time>2011-03-24T15:22:24.54</time>
<name>581</name>
</trkpt>
<trkpt lat="49.476097" lon="9.377405">
<ele>394.5</ele>
<speed>127</speed>
<course>108.1</course>
<desc>Speed 127 km/h Distance 18.09 km</desc>
<time>2011-03-24T15:22:25.54</time>
<name>582</name>
</trkpt>
<trkpt lat="49.475998" lon="9.377867">
<ele>393.0</ele>
<speed>127</speed>
<course>106.4</course>
<desc>Speed 127 km/h Distance 18.13 km</desc>
<time>2011-03-24T15:22:26.55</time>
<name>583</name>
</trkpt>
<trkpt lat="49.475907" lon="9.378347">
<ele>392.0</ele>
<speed>131</speed>
<course>103.9</course>
<desc>Speed 131 km/h Distance 18.16 km</desc>
<time>2011-03-24T15:22:27.54</time>
<name>584</name>
</trkpt>
<trkpt lat="49.475828" lon="9.378833">
<ele>391.0</ele>
<speed>131</speed>
<course>100.7</course>
<desc>Speed 131 km/h Distance 18.20 km</desc>
<time>2011-03-24T15:22:28.55</time>
<name>585</name>
</trkpt>
<trkpt lat="49.475768" lon="9.379320">
<ele>391.5</ele>
<speed>130</speed>
<course>97.9</course>
<desc>Speed 130 km/h Distance 18.23 km</desc>
<time>2011-03-24T15:22:29.54</time>
<name>586</name>
</trkpt>
<trkpt lat="49.475725" lon="9.379800">
<ele>391.0</ele>
<speed>126</speed>
<course>95.3</course>
<desc>Speed 126 km/h Distance 18.27 km</desc>
<time>2011-03-24T15:22:30.54</time>
<name>587</name>
</trkpt>
<trkpt lat="49.475697" lon="9.380268">
<ele>389.5</ele>
<speed>123</speed>
<course>92.5</course>
<desc>Speed 123 km/h Distance 18.30 km</desc>
<time>2011-03-24T15:22:31.54</time>
<name>588</name>
</trkpt>
<trkpt lat="49.475683" lon="9.380738">
<ele>389.5</ele>
<speed>122</speed>
<course>90.3</course>
<desc>Speed 122 km/h Distance 18.34 km</desc>
<time>2011-03-24T15:22:32.54</time>
<name>589</name>
</trkpt>
<trkpt lat="49.475682" lon="9.381208">
<ele>389.0</ele>
<speed>121</speed>
<course>88.1</course>
<desc>Speed 121 km/h Distance 18.37 km</desc>
<time>2011-03-24T15:22:33.54</time>
<name>590</name>
</trkpt>
<trkpt lat="49.475692" lon="9.381665">
<ele>388.5</ele>
<speed>118</speed>
<course>85.6</course>
<desc>Speed 118 km/h Distance 18.40 km</desc>
<time>2011-03-24T15:22:34.54</time>
<name>591</name>
</trkpt>
<trkpt lat="49.475713" lon="9.382097">
<ele>388.0</ele>
<speed>113</speed>
<course>83.9</course>
<desc>Speed 113 km/h Distance 18.44 km</desc>
<time>2011-03-24T15:22:35.53</time>
<name>592</name>
</trkpt>
<trkpt lat="49.475743" lon="9.382528">
<ele>387.5</ele>
<speed>112</speed>
<course>81.2</course>
<desc>Speed 112 km/h Distance 18.47 km</desc>
<time>2011-03-24T15:22:36.54</time>
<name>593</name>
</trkpt>
<trkpt lat="49.475787" lon="9.382960">
<ele>387.5</ele>
<speed>113</speed>
<course>77.3</course>
<desc>Speed 113 km/h Distance 18.50 km</desc>
<time>2011-03-24T15:22:37.54</time>
<name>594</name>
</trkpt>
<trkpt lat="49.475852" lon="9.383405">
<ele>388.0</ele>
<speed>118</speed>
<course>75.4</course>
<desc>Speed 118 km/h Distance 18.53 km</desc>
<time>2011-03-24T15:22:38.54</time>
<name>595</name>
</trkpt>
<trkpt lat="49.475930" lon="9.383868">
<ele>386.5</ele>
<speed>125</speed>
<course>76.3</course>
<desc>Speed 125 km/h Distance 18.57 km</desc>
<time>2011-03-24T15:22:39.53</time>
<name>596</name>
</trkpt>
<trkpt lat="49.476007" lon="9.384352">
<ele>386.5</ele>
<speed>130</speed>
<course>76.7</course>
<desc>Speed 130 km/h Distance 18.60 km</desc>
<time>2011-03-24T15:22:40.54</time>
<name>597</name>
</trkpt>
<trkpt lat="49.476080" lon="9.384830">
<ele>385.5</ele>
<speed>128</speed>
<course>77.0</course>
<desc>Speed 128 km/h Distance 18.64 km</desc>
<time>2011-03-24T15:22:41.55</time>
<name>598</name>
</trkpt>
<trkpt lat="49.476238" lon="9.385883">
<ele>385.5</ele>
<speed>140</speed>
<course>76.4</course>
<desc>Speed 140 km/h Distance 18.72 km</desc>
<time>2011-03-24T15:22:43.54</time>
<name>599</name>
</trkpt>
<trkpt lat="49.476318" lon="9.386392">
<ele>385.5</ele>
<speed>136</speed>
<course>77.1</course>
<desc>Speed 136 km/h Distance 18.75 km</desc>
<time>2011-03-24T15:22:44.54</time>
<name>600</name>
</trkpt>
<trkpt lat="49.476392" lon="9.386885">
<ele>385.5</ele>
<speed>132</speed>
<course>81.4</course>
<desc>Speed 132 km/h Distance 18.79 km</desc>
<time>2011-03-24T15:22:45.54</time>
<name>601</name>
</trkpt>
<trkpt lat="49.476440" lon="9.387375">
<ele>385.0</ele>
<speed>129</speed>
<course>85.0</course>
<desc>Speed 129 km/h Distance 18.83 km</desc>
<time>2011-03-24T15:22:46.53</time>
<name>602</name>
</trkpt>
<trkpt lat="49.476468" lon="9.387872">
<ele>384.5</ele>
<speed>129</speed>
<course>86.5</course>
<desc>Speed 129 km/h Distance 18.86 km</desc>
<time>2011-03-24T15:22:47.54</time>
<name>603</name>
</trkpt>
<trkpt lat="49.476488" lon="9.388370">
<ele>384.5</ele>
<speed>130</speed>
<course>89.7</course>
<desc>Speed 130 km/h Distance 18.90 km</desc>
<time>2011-03-24T15:22:48.53</time>
<name>604</name>
</trkpt>
<trkpt lat="49.476490" lon="9.388880">
<ele>384.5</ele>
<speed>133</speed>
<course>91.7</course>
<desc>Speed 133 km/h Distance 18.94 km</desc>
<time>2011-03-24T15:22:49.54</time>
<name>605</name>
</trkpt>
<trkpt lat="49.476480" lon="9.389388">
<ele>384.5</ele>
<speed>133</speed>
<course>91.2</course>
<desc>Speed 133 km/h Distance 18.97 km</desc>
<time>2011-03-24T15:22:50.53</time>
<name>606</name>
</trkpt>
<trkpt lat="49.476473" lon="9.389898">
<ele>384.5</ele>
<speed>133</speed>
<course>88.6</course>
<desc>Speed 133 km/h Distance 19.01 km</desc>
<time>2011-03-24T15:22:51.53</time>
<name>607</name>
</trkpt>
<trkpt lat="49.476482" lon="9.390408">
<ele>383.0</ele>
<speed>133</speed>
<course>84.8</course>
<desc>Speed 133 km/h Distance 19.05 km</desc>
<time>2011-03-24T15:22:52.53</time>
<name>608</name>
</trkpt>
<trkpt lat="49.476513" lon="9.390945">
<ele>383.0</ele>
<speed>140</speed>
<course>83.3</course>
<desc>Speed 140 km/h Distance 19.08 km</desc>
<time>2011-03-24T15:22:53.54</time>
<name>609</name>
</trkpt>
<trkpt lat="49.476653" lon="9.392777">
<ele>383.0</ele>
<speed>162</speed>
<course>83.0</course>
<desc>Speed 162 km/h Distance 19.22 km</desc>
<time>2011-03-24T15:22:56.53</time>
<name>610</name>
</trkpt>
<trkpt lat="49.476702" lon="9.393378">
<ele>383.0</ele>
<speed>159</speed>
<course>83.2</course>
<desc>Speed 159 km/h Distance 19.26 km</desc>
<time>2011-03-24T15:22:57.53</time>
<name>611</name>
</trkpt>
<trkpt lat="49.476748" lon="9.393977">
<ele>383.0</ele>
<speed>158</speed>
<course>83.9</course>
<desc>Speed 158 km/h Distance 19.31 km</desc>
<time>2011-03-24T15:22:58.53</time>
<name>612</name>
</trkpt>
<trkpt lat="49.476788" lon="9.394557">
<ele>383.0</ele>
<speed>153</speed>
<course>85.0</course>
<desc>Speed 153 km/h Distance 19.35 km</desc>
<time>2011-03-24T15:22:59.54</time>
<name>613</name>
</trkpt>
<trkpt lat="49.476845" lon="9.395548">
<ele>378.0</ele>
<speed>134</speed>
<course>91.7</course>
<desc>Speed 134 km/h Distance 19.42 km</desc>
<time>2011-03-24T15:23:01.54</time>
<name>614</name>
</trkpt>
<trkpt lat="49.476835" lon="9.396055">
<ele>377.5</ele>
<speed>134</speed>
<course>96.3</course>
<desc>Speed 134 km/h Distance 19.46 km</desc>
<time>2011-03-24T15:23:02.54</time>
<name>615</name>
</trkpt>
<trkpt lat="49.476797" lon="9.396587">
<ele>376.5</ele>
<speed>141</speed>
<course>99.1</course>
<desc>Speed 141 km/h Distance 19.50 km</desc>
<time>2011-03-24T15:23:03.53</time>
<name>616</name>
</trkpt>
<trkpt lat="49.476740" lon="9.397133">
<ele>375.0</ele>
<speed>147</speed>
<course>100.2</course>
<desc>Speed 147 km/h Distance 19.54 km</desc>
<time>2011-03-24T15:23:04.54</time>
<name>617</name>
</trkpt>
<trkpt lat="49.476675" lon="9.397692">
<ele>374.5</ele>
<speed>150</speed>
<course>98.4</course>
<desc>Speed 150 km/h Distance 19.58 km</desc>
<time>2011-03-24T15:23:05.52</time>
<name>618</name>
</trkpt>
<trkpt lat="49.476618" lon="9.398282">
<ele>374.0</ele>
<speed>158</speed>
<course>101.3</course>
<desc>Speed 158 km/h Distance 19.62 km</desc>
<time>2011-03-24T15:23:06.53</time>
<name>619</name>
</trkpt>
<trkpt lat="49.476538" lon="9.398900">
<ele>373.0</ele>
<speed>167</speed>
<course>97.7</course>
<desc>Speed 167 km/h Distance 19.66 km</desc>
<time>2011-03-24T15:23:07.53</time>
<name>620</name>
</trkpt>
<trkpt lat="49.476483" lon="9.399527">
<ele>372.5</ele>
<speed>168</speed>
<course>96.5</course>
<desc>Speed 168 km/h Distance 19.71 km</desc>
<time>2011-03-24T15:23:08.53</time>
<name>621</name>
</trkpt>
<trkpt lat="49.476435" lon="9.400175">
<ele>371.0</ele>
<speed>173</speed>
<course>96.0</course>
<desc>Speed 173 km/h Distance 19.76 km</desc>
<time>2011-03-24T15:23:09.53</time>
<name>622</name>
</trkpt>
<trkpt lat="49.476390" lon="9.400837">
<ele>370.0</ele>
<speed>176</speed>
<course>95.8</course>
<desc>Speed 176 km/h Distance 19.81 km</desc>
<time>2011-03-24T15:23:10.52</time>
<name>623</name>
</trkpt>
<trkpt lat="49.476345" lon="9.401515">
<ele>369.5</ele>
<speed>178</speed>
<course>95.3</course>
<desc>Speed 178 km/h Distance 19.86 km</desc>
<time>2011-03-24T15:23:11.53</time>
<name>624</name>
</trkpt>
<trkpt lat="49.476305" lon="9.402182">
<ele>369.5</ele>
<speed>175</speed>
<course>93.6</course>
<desc>Speed 175 km/h Distance 19.90 km</desc>
<time>2011-03-24T15:23:12.53</time>
<name>625</name>
</trkpt>
<trkpt lat="49.476280" lon="9.402802">
<ele>368.0</ele>
<speed>162</speed>
<course>95.0</course>
<desc>Speed 162 km/h Distance 19.95 km</desc>
<time>2011-03-24T15:23:13.52</time>
<name>626</name>
</trkpt>
<trkpt lat="49.476247" lon="9.403392">
<ele>368.0</ele>
<speed>155</speed>
<course>94.2</course>
<desc>Speed 155 km/h Distance 19.99 km</desc>
<time>2011-03-24T15:23:14.53</time>
<name>627</name>
</trkpt>
<trkpt lat="49.476197" lon="9.404435">
<ele>368.5</ele>
<speed>135</speed>
<course>91.9</course>
<desc>Speed 135 km/h Distance 20.07 km</desc>
<time>2011-03-24T15:23:16.52</time>
<name>628</name>
</trkpt>
<trkpt lat="49.476187" lon="9.404903">
<ele>369.5</ele>
<speed>122</speed>
<course>92.8</course>
<desc>Speed 122 km/h Distance 20.10 km</desc>
<time>2011-03-24T15:23:17.53</time>
<name>629</name>
</trkpt>
<trkpt lat="49.476172" lon="9.405368">
<ele>369.0</ele>
<speed>122</speed>
<course>91.3</course>
<desc>Speed 122 km/h Distance 20.13 km</desc>
<time>2011-03-24T15:23:18.53</time>
<name>630</name>
</trkpt>
<trkpt lat="49.476165" lon="9.405818">
<ele>369.0</ele>
<speed>117</speed>
<course>90.7</course>
<desc>Speed 117 km/h Distance 20.17 km</desc>
<time>2011-03-24T15:23:19.53</time>
<name>631</name>
</trkpt>
<trkpt lat="49.476162" lon="9.406220">
<ele>367.5</ele>
<speed>105</speed>
<course>92.3</course>
<desc>Speed 105 km/h Distance 20.20 km</desc>
<time>2011-03-24T15:23:20.52</time>
<name>632</name>
</trkpt>
<trkpt lat="49.476152" lon="9.406608">
<ele>367.0</ele>
<speed>102</speed>
<course>90.0</course>
<desc>Speed 102 km/h Distance 20.22 km</desc>
<time>2011-03-24T15:23:21.52</time>
<name>633</name>
</trkpt>
<trkpt lat="49.476152" lon="9.406950">
<ele>365.0</ele>
<speed>90.0</speed>
<course>88.5</course>
<desc>Speed 90.0 km/h Distance 20.25 km</desc>
<time>2011-03-24T15:23:22.52</time>
<name>634</name>
</trkpt>
<trkpt lat="49.476157" lon="9.407240">
<ele>363.0</ele>
<speed>77.1</speed>
<course>87.6</course>
<desc>Speed 77.1 km/h Distance 20.27 km</desc>
<time>2011-03-24T15:23:23.51</time>
<name>635</name>
</trkpt>
<trkpt lat="49.476168" lon="9.407660">
<ele>361.0</ele>
<speed>51.4</speed>
<course>92.9</course>
<desc>Speed 51.4 km/h Distance 20.30 km</desc>
<time>2011-03-24T15:23:25.52</time>
<name>636</name>
</trkpt>
<trkpt lat="49.476162" lon="9.407860">
<ele>361.0</ele>
<speed>53.1</speed>
<course>108.9</course>
<desc>Speed 53.1 km/h Distance 20.32 km</desc>
<time>2011-03-24T15:23:26.52</time>
<name>637</name>
</trkpt>
<trkpt lat="49.476097" lon="9.408152">
<ele>361.0</ele>
<speed>42.9</speed>
<course>138.3</course>
<desc>Speed 42.9 km/h Distance 20.34 km</desc>
<time>2011-03-24T15:23:28.52</time>
<name>638</name>
</trkpt>
<trkpt lat="49.476020" lon="9.408257">
<ele>360.5</ele>
<speed>41.3</speed>
<course>159.1</course>
<desc>Speed 41.3 km/h Distance 20.35 km</desc>
<time>2011-03-24T15:23:29.52</time>
<name>639</name>
</trkpt>
<trkpt lat="49.475528" lon="9.408545">
<ele>360.0</ele>
<speed>83.6</speed>
<course>159.5</course>
<desc>Speed 83.6 km/h Distance 20.41 km</desc>
<time>2011-03-24T15:23:32.51</time>
<name>640</name>
</trkpt>
<trkpt lat="49.475328" lon="9.408660">
<ele>359.5</ele>
<speed>86.5</speed>
<course>161.6</course>
<desc>Speed 86.5 km/h Distance 20.43 km</desc>
<time>2011-03-24T15:23:33.51</time>
<name>641</name>
</trkpt>
<trkpt lat="49.475120" lon="9.408767">
<ele>358.5</ele>
<speed>87.8</speed>
<course>159.2</course>
<desc>Speed 87.8 km/h Distance 20.46 km</desc>
<time>2011-03-24T15:23:34.52</time>
<name>642</name>
</trkpt>
<trkpt lat="49.474915" lon="9.408887">
<ele>357.5</ele>
<speed>88.5</speed>
<course>157.4</course>
<desc>Speed 88.5 km/h Distance 20.48 km</desc>
<time>2011-03-24T15:23:35.51</time>
<name>643</name>
</trkpt>
<trkpt lat="49.474715" lon="9.409015">
<ele>357.0</ele>
<speed>87.1</speed>
<course>157.9</course>
<desc>Speed 87.1 km/h Distance 20.50 km</desc>
<time>2011-03-24T15:23:36.51</time>
<name>644</name>
</trkpt>
<trkpt lat="49.474523" lon="9.409135">
<ele>356.5</ele>
<speed>82.9</speed>
<course>157.2</course>
<desc>Speed 82.9 km/h Distance 20.53 km</desc>
<time>2011-03-24T15:23:37.51</time>
<name>645</name>
</trkpt>
<trkpt lat="49.474340" lon="9.409253">
<ele>355.5</ele>
<speed>79.8</speed>
<course>156.9</course>
<desc>Speed 79.8 km/h Distance 20.55 km</desc>
<time>2011-03-24T15:23:38.51</time>
<name>646</name>
</trkpt>
<trkpt lat="49.474160" lon="9.409372">
<ele>355.0</ele>
<speed>78.6</speed>
<course>155.8</course>
<desc>Speed 78.6 km/h Distance 20.57 km</desc>
<time>2011-03-24T15:23:39.51</time>
<name>647</name>
</trkpt>
<trkpt lat="49.473982" lon="9.409495">
<ele>354.5</ele>
<speed>78.4</speed>
<course>150.6</course>
<desc>Speed 78.4 km/h Distance 20.59 km</desc>
<time>2011-03-24T15:23:40.50</time>
<name>648</name>
</trkpt>
<trkpt lat="49.473817" lon="9.409638">
<ele>354.5</ele>
<speed>75.7</speed>
<course>142.9</course>
<desc>Speed 75.7 km/h Distance 20.61 km</desc>
<time>2011-03-24T15:23:41.50</time>
<name>649</name>
</trkpt>
<trkpt lat="49.473683" lon="9.409793">
<ele>353.5</ele>
<speed>67.1</speed>
<course>137.1</course>
<desc>Speed 67.1 km/h Distance 20.63 km</desc>
<time>2011-03-24T15:23:42.51</time>
<name>650</name>
</trkpt>
<trkpt lat="49.473560" lon="9.409970">
<ele>353.5</ele>
<speed>68.2</speed>
<course>138.0</course>
<desc>Speed 68.2 km/h Distance 20.65 km</desc>
<time>2011-03-24T15:23:43.51</time>
<name>651</name>
</trkpt>
<trkpt lat="49.473435" lon="9.410143">
<ele>353.0</ele>
<speed>67.4</speed>
<course>137.7</course>
<desc>Speed 67.4 km/h Distance 20.67 km</desc>
<time>2011-03-24T15:23:44.51</time>
<name>652</name>
</trkpt>
<trkpt lat="49.473318" lon="9.410307">
<ele>352.0</ele>
<speed>63.4</speed>
<course>143.0</course>
<desc>Speed 63.4 km/h Distance 20.69 km</desc>
<time>2011-03-24T15:23:45.51</time>
<name>653</name>
</trkpt>
<trkpt lat="49.473193" lon="9.410452">
<ele>352.0</ele>
<speed>62.7</speed>
<course>146.0</course>
<desc>Speed 62.7 km/h Distance 20.71 km</desc>
<time>2011-03-24T15:23:46.50</time>
<name>654</name>
</trkpt>
<trkpt lat="49.473062" lon="9.410588">
<ele>352.0</ele>
<speed>64.0</speed>
<course>148.6</course>
<desc>Speed 64.0 km/h Distance 20.72 km</desc>
<time>2011-03-24T15:23:47.51</time>
<name>655</name>
</trkpt>
<trkpt lat="49.472927" lon="9.410715">
<ele>352.0</ele>
<speed>63.3</speed>
<course>150.7</course>
<desc>Speed 63.3 km/h Distance 20.74 km</desc>
<time>2011-03-24T15:23:48.51</time>
<name>656</name>
</trkpt>
<trkpt lat="49.472792" lon="9.410832">
<ele>352.0</ele>
<speed>61.6</speed>
<course>152.9</course>
<desc>Speed 61.6 km/h Distance 20.76 km</desc>
<time>2011-03-24T15:23:49.50</time>
<name>657</name>
</trkpt>
<trkpt lat="49.472658" lon="9.410937">
<ele>352.0</ele>
<speed>60.3</speed>
<course>153.1</course>
<desc>Speed 60.3 km/h Distance 20.77 km</desc>
<time>2011-03-24T15:23:50.50</time>
<name>658</name>
</trkpt>
<trkpt lat="49.472530" lon="9.411037">
<ele>352.0</ele>
<speed>58.2</speed>
<course>154.8</course>
<desc>Speed 58.2 km/h Distance 20.79 km</desc>
<time>2011-03-24T15:23:51.51</time>
<name>659</name>
</trkpt>
<trkpt lat="49.472403" lon="9.411128">
<ele>352.0</ele>
<speed>56.9</speed>
<course>150.8</course>
<desc>Speed 56.9 km/h Distance 20.81 km</desc>
<time>2011-03-24T15:23:52.50</time>
<name>660</name>
</trkpt>
<trkpt lat="49.472283" lon="9.411232">
<ele>350.5</ele>
<speed>54.8</speed>
<course>152.4</course>
<desc>Speed 54.8 km/h Distance 20.82 km</desc>
<time>2011-03-24T15:23:53.50</time>
<name>661</name>
</trkpt>
<trkpt lat="49.472165" lon="9.411327">
<ele>351.0</ele>
<speed>53.6</speed>
<course>152.1</course>
<desc>Speed 53.6 km/h Distance 20.84 km</desc>
<time>2011-03-24T15:23:54.50</time>
<name>662</name>
</trkpt>
<trkpt lat="49.472048" lon="9.411422">
<ele>351.5</ele>
<speed>53.0</speed>
<course>149.0</course>
<desc>Speed 53.0 km/h Distance 20.85 km</desc>
<time>2011-03-24T15:23:55.50</time>
<name>663</name>
</trkpt>
<trkpt lat="49.471938" lon="9.411523">
<ele>351.5</ele>
<speed>51.5</speed>
<course>146.6</course>
<desc>Speed 51.5 km/h Distance 20.86 km</desc>
<time>2011-03-24T15:23:56.51</time>
<name>664</name>
</trkpt>
<trkpt lat="49.471837" lon="9.411627">
<ele>351.5</ele>
<speed>49.2</speed>
<course>142.4</course>
<desc>Speed 49.2 km/h Distance 20.88 km</desc>
<time>2011-03-24T15:23:57.50</time>
<name>665</name>
</trkpt>
<trkpt lat="49.471747" lon="9.411733">
<ele>351.5</ele>
<speed>45.6</speed>
<course>138.2</course>
<desc>Speed 45.6 km/h Distance 20.89 km</desc>
<time>2011-03-24T15:23:58.50</time>
<name>666</name>
</trkpt>
<trkpt lat="49.471667" lon="9.411843">
<ele>351.5</ele>
<speed>43.1</speed>
<course>137.4</course>
<desc>Speed 43.1 km/h Distance 20.90 km</desc>
<time>2011-03-24T15:23:59.50</time>
<name>667</name>
</trkpt>
<trkpt lat="49.471587" lon="9.411957">
<ele>350.0</ele>
<speed>43.8</speed>
<course>132.0</course>
<desc>Speed 43.8 km/h Distance 20.92 km</desc>
<time>2011-03-24T15:24:00.51</time>
<name>668</name>
</trkpt>
<trkpt lat="49.471507" lon="9.412093">
<ele>351.5</ele>
<speed>48.2</speed>
<course>134.9</course>
<desc>Speed 48.2 km/h Distance 20.93 km</desc>
<time>2011-03-24T15:24:01.50</time>
<name>669</name>
</trkpt>
<trkpt lat="49.471412" lon="9.412240">
<ele>351.5</ele>
<speed>54.2</speed>
<course>135.0</course>
<desc>Speed 54.2 km/h Distance 20.94 km</desc>
<time>2011-03-24T15:24:02.50</time>
<name>670</name>
</trkpt>
<trkpt lat="49.471307" lon="9.412402">
<ele>352.5</ele>
<speed>60.1</speed>
<course>137.9</course>
<desc>Speed 60.1 km/h Distance 20.96 km</desc>
<time>2011-03-24T15:24:03.50</time>
<name>671</name>
</trkpt>
<trkpt lat="49.471175" lon="9.412585">
<ele>352.5</ele>
<speed>71.2</speed>
<course>136.2</course>
<desc>Speed 71.2 km/h Distance 20.98 km</desc>
<time>2011-03-24T15:24:04.50</time>
<name>672</name>
</trkpt>
<trkpt lat="49.471045" lon="9.412777">
<ele>352.5</ele>
<speed>72.8</speed>
<course>133.6</course>
<desc>Speed 72.8 km/h Distance 21.00 km</desc>
<time>2011-03-24T15:24:05.51</time>
<name>673</name>
</trkpt>
<trkpt lat="49.470902" lon="9.413008">
<ele>353.5</ele>
<speed>83.9</speed>
<course>134.3</course>
<desc>Speed 83.9 km/h Distance 21.02 km</desc>
<time>2011-03-24T15:24:06.49</time>
<name>674</name>
</trkpt>
<trkpt lat="49.470760" lon="9.413232">
<ele>353.0</ele>
<speed>82.2</speed>
<course>133.4</course>
<desc>Speed 82.2 km/h Distance 21.05 km</desc>
<time>2011-03-24T15:24:07.50</time>
<name>675</name>
</trkpt>
<trkpt lat="49.470613" lon="9.413470">
<ele>352.5</ele>
<speed>85.8</speed>
<course>134.9</course>
<desc>Speed 85.8 km/h Distance 21.07 km</desc>
<time>2011-03-24T15:24:08.50</time>
<name>676</name>
</trkpt>
<trkpt lat="49.470445" lon="9.413730">
<ele>352.5</ele>
<speed>96.2</speed>
<course>135.0</course>
<desc>Speed 96.2 km/h Distance 21.10 km</desc>
<time>2011-03-24T15:24:09.50</time>
<name>677</name>
</trkpt>
<trkpt lat="49.470278" lon="9.413987">
<ele>352.5</ele>
<speed>95.1</speed>
<course>136.3</course>
<desc>Speed 95.1 km/h Distance 21.12 km</desc>
<time>2011-03-24T15:24:10.50</time>
<name>678</name>
</trkpt>
<trkpt lat="49.470112" lon="9.414232">
<ele>352.5</ele>
<speed>93.2</speed>
<course>140.2</course>
<desc>Speed 93.2 km/h Distance 21.15 km</desc>
<time>2011-03-24T15:24:11.50</time>
<name>679</name>
</trkpt>
<trkpt lat="49.469935" lon="9.414458">
<ele>352.0</ele>
<speed>92.7</speed>
<course>145.0</course>
<desc>Speed 92.7 km/h Distance 21.17 km</desc>
<time>2011-03-24T15:24:12.49</time>
<name>680</name>
</trkpt>
<trkpt lat="49.469760" lon="9.414647">
<ele>352.0</ele>
<speed>86.4</speed>
<course>153.6</course>
<desc>Speed 86.4 km/h Distance 21.20 km</desc>
<time>2011-03-24T15:24:13.50</time>
<name>681</name>
</trkpt>
<trkpt lat="49.469555" lon="9.414803">
<ele>351.5</ele>
<speed>91.7</speed>
<course>160.0</course>
<desc>Speed 91.7 km/h Distance 21.22 km</desc>
<time>2011-03-24T15:24:14.49</time>
<name>682</name>
</trkpt>
<trkpt lat="49.469323" lon="9.414933">
<ele>351.5</ele>
<speed>99.1</speed>
<course>166.9</course>
<desc>Speed 99.1 km/h Distance 21.25 km</desc>
<time>2011-03-24T15:24:15.49</time>
<name>683</name>
</trkpt>
<trkpt lat="49.469068" lon="9.415025">
<ele>352.0</ele>
<speed>105</speed>
<course>172.1</course>
<desc>Speed 105 km/h Distance 21.28 km</desc>
<time>2011-03-24T15:24:16.49</time>
<name>684</name>
</trkpt>
<trkpt lat="49.468787" lon="9.415085">
<ele>353.0</ele>
<speed>114</speed>
<course>173.8</course>
<desc>Speed 114 km/h Distance 21.31 km</desc>
<time>2011-03-24T15:24:17.49</time>
<name>685</name>
</trkpt>
<trkpt lat="49.468478" lon="9.415137">
<ele>352.5</ele>
<speed>123</speed>
<course>173.8</course>
<desc>Speed 123 km/h Distance 21.35 km</desc>
<time>2011-03-24T15:24:18.49</time>
<name>686</name>
</trkpt>
<trkpt lat="49.468162" lon="9.415190">
<ele>352.5</ele>
<speed>127</speed>
<course>173.3</course>
<desc>Speed 127 km/h Distance 21.38 km</desc>
<time>2011-03-24T15:24:19.49</time>
<name>687</name>
</trkpt>
<trkpt lat="49.467830" lon="9.415250">
<ele>352.0</ele>
<speed>133</speed>
<course>172.6</course>
<desc>Speed 133 km/h Distance 21.42 km</desc>
<time>2011-03-24T15:24:20.50</time>
<name>688</name>
</trkpt>
<trkpt lat="49.467505" lon="9.415315">
<ele>351.5</ele>
<speed>132</speed>
<course>171.9</course>
<desc>Speed 132 km/h Distance 21.45 km</desc>
<time>2011-03-24T15:24:21.50</time>
<name>689</name>
</trkpt>
<trkpt lat="49.467168" lon="9.415388">
<ele>351.5</ele>
<speed>136</speed>
<course>171.3</course>
<desc>Speed 136 km/h Distance 21.49 km</desc>
<time>2011-03-24T15:24:22.49</time>
<name>690</name>
</trkpt>
<trkpt lat="49.466828" lon="9.415468">
<ele>351.5</ele>
<speed>138</speed>
<course>171.1</course>
<desc>Speed 138 km/h Distance 21.53 km</desc>
<time>2011-03-24T15:24:23.49</time>
<name>691</name>
</trkpt>
<trkpt lat="49.466495" lon="9.415548">
<ele>351.0</ele>
<speed>136</speed>
<course>171.1</course>
<desc>Speed 136 km/h Distance 21.57 km</desc>
<time>2011-03-24T15:24:24.49</time>
<name>692</name>
</trkpt>
<trkpt lat="49.466168" lon="9.415627">
<ele>350.0</ele>
<speed>133</speed>
<course>170.3</course>
<desc>Speed 133 km/h Distance 21.60 km</desc>
<time>2011-03-24T15:24:25.49</time>
<name>693</name>
</trkpt>
<trkpt lat="49.465852" lon="9.415710">
<ele>350.0</ele>
<speed>130</speed>
<course>169.4</course>
<desc>Speed 130 km/h Distance 21.64 km</desc>
<time>2011-03-24T15:24:26.49</time>
<name>694</name>
</trkpt>
<trkpt lat="49.465540" lon="9.415800">
<ele>350.0</ele>
<speed>127</speed>
<course>168.1</course>
<desc>Speed 127 km/h Distance 21.68 km</desc>
<time>2011-03-24T15:24:27.49</time>
<name>695</name>
</trkpt>
<trkpt lat="49.465232" lon="9.415900">
<ele>350.0</ele>
<speed>126</speed>
<course>167.1</course>
<desc>Speed 126 km/h Distance 21.71 km</desc>
<time>2011-03-24T15:24:28.49</time>
<name>696</name>
</trkpt>
<trkpt lat="49.464928" lon="9.416007">
<ele>350.5</ele>
<speed>125</speed>
<course>165.6</course>
<desc>Speed 125 km/h Distance 21.75 km</desc>
<time>2011-03-24T15:24:29.49</time>
<name>697</name>
</trkpt>
<trkpt lat="49.464642" lon="9.416120">
<ele>350.0</ele>
<speed>119</speed>
<course>163.9</course>
<desc>Speed 119 km/h Distance 21.78 km</desc>
<time>2011-03-24T15:24:30.49</time>
<name>698</name>
</trkpt>
<trkpt lat="49.464372" lon="9.416240">
<ele>350.5</ele>
<speed>112</speed>
<course>159.4</course>
<desc>Speed 112 km/h Distance 21.81 km</desc>
<time>2011-03-24T15:24:31.50</time>
<name>699</name>
</trkpt>
<trkpt lat="49.464130" lon="9.416380">
<ele>349.5</ele>
<speed>104</speed>
<course>157.8</course>
<desc>Speed 104 km/h Distance 21.84 km</desc>
<time>2011-03-24T15:24:32.49</time>
<name>700</name>
</trkpt>
<trkpt lat="49.463888" lon="9.416532">
<ele>349.5</ele>
<speed>105</speed>
<course>148.4</course>
<desc>Speed 105 km/h Distance 21.87 km</desc>
<time>2011-03-24T15:24:33.48</time>
<name>701</name>
</trkpt>
<trkpt lat="49.463668" lon="9.416740">
<ele>349.5</ele>
<speed>105</speed>
<course>144.2</course>
<desc>Speed 105 km/h Distance 21.90 km</desc>
<time>2011-03-24T15:24:34.48</time>
<name>702</name>
</trkpt>
<trkpt lat="49.463440" lon="9.416993">
<ele>349.5</ele>
<speed>113</speed>
<course>139.8</course>
<desc>Speed 113 km/h Distance 21.93 km</desc>
<time>2011-03-24T15:24:35.49</time>
<name>703</name>
</trkpt>
<trkpt lat="49.463230" lon="9.417267">
<ele>349.5</ele>
<speed>110</speed>
<course>135.2</course>
<desc>Speed 110 km/h Distance 21.96 km</desc>
<time>2011-03-24T15:24:36.49</time>
<name>704</name>
</trkpt>
<trkpt lat="49.463043" lon="9.417552">
<ele>349.5</ele>
<speed>106</speed>
<course>137.7</course>
<desc>Speed 106 km/h Distance 21.99 km</desc>
<time>2011-03-24T15:24:37.48</time>
<name>705</name>
</trkpt>
<trkpt lat="49.462852" lon="9.417820">
<ele>349.5</ele>
<speed>104</speed>
<course>147.2</course>
<desc>Speed 104 km/h Distance 22.02 km</desc>
<time>2011-03-24T15:24:38.48</time>
<name>706</name>
</trkpt>
<trkpt lat="49.462643" lon="9.418027">
<ele>349.5</ele>
<speed>99.3</speed>
<course>150.8</course>
<desc>Speed 99.3 km/h Distance 22.04 km</desc>
<time>2011-03-24T15:24:39.48</time>
<name>707</name>
</trkpt>
<trkpt lat="49.462430" lon="9.418210">
<ele>349.5</ele>
<speed>98.0</speed>
<course>156.7</course>
<desc>Speed 98.0 km/h Distance 22.07 km</desc>
<time>2011-03-24T15:24:40.48</time>
<name>708</name>
</trkpt>
<trkpt lat="49.462208" lon="9.418357">
<ele>349.5</ele>
<speed>96.7</speed>
<course>163.7</course>
<desc>Speed 96.7 km/h Distance 22.10 km</desc>
<time>2011-03-24T15:24:41.48</time>
<name>709</name>
</trkpt>
<trkpt lat="49.461975" lon="9.418462">
<ele>349.0</ele>
<speed>97.4</speed>
<course>169.4</course>
<desc>Speed 97.4 km/h Distance 22.13 km</desc>
<time>2011-03-24T15:24:42.49</time>
<name>710</name>
</trkpt>
<trkpt lat="49.461748" lon="9.418527">
<ele>348.5</ele>
<speed>93.1</speed>
<course>174.1</course>
<desc>Speed 93.1 km/h Distance 22.15 km</desc>
<time>2011-03-24T15:24:43.48</time>
<name>711</name>
</trkpt>
<trkpt lat="49.461528" lon="9.418562">
<ele>349.0</ele>
<speed>88.7</speed>
<course>181.7</course>
<desc>Speed 88.7 km/h Distance 22.18 km</desc>
<time>2011-03-24T15:24:44.49</time>
<name>712</name>
</trkpt>
<trkpt lat="49.461308" lon="9.418552">
<ele>349.0</ele>
<speed>88.2</speed>
<course>194.2</course>
<desc>Speed 88.2 km/h Distance 22.20 km</desc>
<time>2011-03-24T15:24:45.48</time>
<name>713</name>
</trkpt>
<trkpt lat="49.460760" lon="9.418338">
<ele>349.0</ele>
<speed>116</speed>
<course>200.8</course>
<desc>Speed 116 km/h Distance 22.26 km</desc>
<time>2011-03-24T15:24:47.48</time>
<name>714</name>
</trkpt>
<trkpt lat="49.459723" lon="9.417733">
<ele>348.5</ele>
<speed>133</speed>
<course>201.8</course>
<desc>Speed 133 km/h Distance 22.39 km</desc>
<time>2011-03-24T15:24:50.49</time>
<name>715</name>
</trkpt>
<trkpt lat="49.459420" lon="9.417547">
<ele>348.5</ele>
<speed>131</speed>
<course>201.6</course>
<desc>Speed 131 km/h Distance 22.42 km</desc>
<time>2011-03-24T15:24:51.49</time>
<name>716</name>
</trkpt>
<trkpt lat="49.459108" lon="9.417357">
<ele>348.5</ele>
<speed>134</speed>
<course>201.0</course>
<desc>Speed 134 km/h Distance 22.46 km</desc>
<time>2011-03-24T15:24:52.49</time>
<name>717</name>
</trkpt>
<trkpt lat="49.458803" lon="9.417177">
<ele>348.5</ele>
<speed>131</speed>
<course>201.8</course>
<desc>Speed 131 km/h Distance 22.50 km</desc>
<time>2011-03-24T15:24:53.49</time>
<name>718</name>
</trkpt>
<trkpt lat="49.458262" lon="9.416843">
<ele>348.5</ele>
<speed>123</speed>
<course>204.7</course>
<desc>Speed 123 km/h Distance 22.56 km</desc>
<time>2011-03-24T15:24:55.49</time>
<name>719</name>
</trkpt>
<trkpt lat="49.458000" lon="9.416658">
<ele>348.5</ele>
<speed>121</speed>
<course>210.2</course>
<desc>Speed 121 km/h Distance 22.59 km</desc>
<time>2011-03-24T15:24:56.48</time>
<name>720</name>
</trkpt>
<trkpt lat="49.457717" lon="9.416405">
<ele>348.5</ele>
<speed>131</speed>
<course>211.3</course>
<desc>Speed 131 km/h Distance 22.63 km</desc>
<time>2011-03-24T15:24:57.48</time>
<name>721</name>
</trkpt>
<trkpt lat="49.457280" lon="9.415997">
<ele>348.5</ele>
<speed>114</speed>
<course>215.1</course>
<desc>Speed 114 km/h Distance 22.69 km</desc>
<time>2011-03-24T15:24:59.48</time>
<name>722</name>
</trkpt>
<trkpt lat="49.457057" lon="9.415755">
<ele>349.0</ele>
<speed>113</speed>
<course>215.4</course>
<desc>Speed 113 km/h Distance 22.72 km</desc>
<time>2011-03-24T15:25:00.48</time>
<name>723</name>
</trkpt>
<trkpt lat="49.456842" lon="9.415520">
<ele>350.0</ele>
<speed>108</speed>
<course>214.8</course>
<desc>Speed 108 km/h Distance 22.75 km</desc>
<time>2011-03-24T15:25:01.48</time>
<name>724</name>
</trkpt>
<trkpt lat="49.456605" lon="9.415267">
<ele>352.0</ele>
<speed>101</speed>
<course>212.0</course>
<desc>Speed 101 km/h Distance 22.78 km</desc>
<time>2011-03-24T15:25:02.47</time>
<name>725</name>
</trkpt>
<trkpt lat="49.456382" lon="9.415052">
<ele>353.0</ele>
<speed>91.6</speed>
<course>206.4</course>
<desc>Speed 91.6 km/h Distance 22.81 km</desc>
<time>2011-03-24T15:25:03.47</time>
<name>726</name>
</trkpt>
<trkpt lat="49.456177" lon="9.414895">
<ele>353.0</ele>
<speed>89.1</speed>
<course>196.1</course>
<desc>Speed 89.1 km/h Distance 22.83 km</desc>
<time>2011-03-24T15:25:04.47</time>
<name>727</name>
</trkpt>
<trkpt lat="49.455967" lon="9.414802">
<ele>353.5</ele>
<speed>88.1</speed>
<course>188.2</course>
<desc>Speed 88.1 km/h Distance 22.86 km</desc>
<time>2011-03-24T15:25:05.47</time>
<name>728</name>
</trkpt>
<trkpt lat="49.455748" lon="9.414753">
<ele>353.5</ele>
<speed>88.3</speed>
<course>188.1</course>
<desc>Speed 88.3 km/h Distance 22.88 km</desc>
<time>2011-03-24T15:25:06.48</time>
<name>729</name>
</trkpt>
<trkpt lat="49.455535" lon="9.414707">
<ele>352.5</ele>
<speed>83.6</speed>
<course>180.9</course>
<desc>Speed 83.6 km/h Distance 22.91 km</desc>
<time>2011-03-24T15:25:07.47</time>
<name>730</name>
</trkpt>
<trkpt lat="49.455320" lon="9.414702">
<ele>352.5</ele>
<speed>83.9</speed>
<course>172.4</course>
<desc>Speed 83.9 km/h Distance 22.93 km</desc>
<time>2011-03-24T15:25:08.48</time>
<name>731</name>
</trkpt>
<trkpt lat="49.455117" lon="9.414743">
<ele>352.5</ele>
<speed>80.6</speed>
<course>163.0</course>
<desc>Speed 80.6 km/h Distance 22.95 km</desc>
<time>2011-03-24T15:25:09.47</time>
<name>732</name>
</trkpt>
<trkpt lat="49.454943" lon="9.414825">
<ele>353.0</ele>
<speed>71.6</speed>
<course>154.3</course>
<desc>Speed 71.6 km/h Distance 22.97 km</desc>
<time>2011-03-24T15:25:10.48</time>
<name>733</name>
</trkpt>
<trkpt lat="49.454790" lon="9.414938">
<ele>353.5</ele>
<speed>67.7</speed>
<course>135.7</course>
<desc>Speed 67.7 km/h Distance 22.99 km</desc>
<time>2011-03-24T15:25:11.47</time>
<name>734</name>
</trkpt>
<trkpt lat="49.454693" lon="9.415083">
<ele>353.5</ele>
<speed>54.5</speed>
<course>121.6</course>
<desc>Speed 54.5 km/h Distance 23.01 km</desc>
<time>2011-03-24T15:25:12.48</time>
<name>735</name>
</trkpt>
<trkpt lat="49.454500" lon="9.415567">
<ele>354.0</ele>
<speed>78.4</speed>
<course>109.8</course>
<desc>Speed 78.4 km/h Distance 23.05 km</desc>
<time>2011-03-24T15:25:14.47</time>
<name>736</name>
</trkpt>
<trkpt lat="49.454428" lon="9.415873">
<ele>354.0</ele>
<speed>84.5</speed>
<course>108.7</course>
<desc>Speed 84.5 km/h Distance 23.07 km</desc>
<time>2011-03-24T15:25:15.47</time>
<name>737</name>
</trkpt>
<trkpt lat="49.454353" lon="9.416215">
<ele>354.5</ele>
<speed>93.7</speed>
<course>105.8</course>
<desc>Speed 93.7 km/h Distance 23.10 km</desc>
<time>2011-03-24T15:25:16.47</time>
<name>738</name>
</trkpt>
<trkpt lat="49.454285" lon="9.416587">
<ele>353.5</ele>
<speed>99.8</speed>
<course>103.8</course>
<desc>Speed 99.8 km/h Distance 23.13 km</desc>
<time>2011-03-24T15:25:17.47</time>
<name>739</name>
</trkpt>
<trkpt lat="49.454223" lon="9.416972">
<ele>354.0</ele>
<speed>104</speed>
<course>100.3</course>
<desc>Speed 104 km/h Distance 23.15 km</desc>
<time>2011-03-24T15:25:18.47</time>
<name>740</name>
</trkpt>
<trkpt lat="49.454173" lon="9.417395">
<ele>354.0</ele>
<speed>112</speed>
<course>96.3</course>
<desc>Speed 112 km/h Distance 23.19 km</desc>
<time>2011-03-24T15:25:19.47</time>
<name>741</name>
</trkpt>
<trkpt lat="49.454142" lon="9.417837">
<ele>354.0</ele>
<speed>116</speed>
<course>94.4</course>
<desc>Speed 116 km/h Distance 23.22 km</desc>
<time>2011-03-24T15:25:20.48</time>
<name>742</name>
</trkpt>
<trkpt lat="49.454118" lon="9.418298">
<ele>354.5</ele>
<speed>121</speed>
<course>93.5</course>
<desc>Speed 121 km/h Distance 23.25 km</desc>
<time>2011-03-24T15:25:21.47</time>
<name>743</name>
</trkpt>
<trkpt lat="49.454100" lon="9.418763">
<ele>355.0</ele>
<speed>122</speed>
<course>93.1</course>
<desc>Speed 122 km/h Distance 23.29 km</desc>
<time>2011-03-24T15:25:22.47</time>
<name>744</name>
</trkpt>
<trkpt lat="49.454083" lon="9.419237">
<ele>355.0</ele>
<speed>123</speed>
<course>92.8</course>
<desc>Speed 123 km/h Distance 23.32 km</desc>
<time>2011-03-24T15:25:23.47</time>
<name>745</name>
</trkpt>
<trkpt lat="49.454068" lon="9.419705">
<ele>355.5</ele>
<speed>122</speed>
<course>92.5</course>
<desc>Speed 122 km/h Distance 23.35 km</desc>
<time>2011-03-24T15:25:24.47</time>
<name>746</name>
</trkpt>
<trkpt lat="49.454055" lon="9.420167">
<ele>356.5</ele>
<speed>120</speed>
<course>94.0</course>
<desc>Speed 120 km/h Distance 23.39 km</desc>
<time>2011-03-24T15:25:25.47</time>
<name>747</name>
</trkpt>
<trkpt lat="49.454035" lon="9.420608">
<ele>356.5</ele>
<speed>116</speed>
<course>95.4</course>
<desc>Speed 116 km/h Distance 23.42 km</desc>
<time>2011-03-24T15:25:26.47</time>
<name>748</name>
</trkpt>
<trkpt lat="49.454008" lon="9.421038">
<ele>356.5</ele>
<speed>113</speed>
<course>99.4</course>
<desc>Speed 113 km/h Distance 23.45 km</desc>
<time>2011-03-24T15:25:27.47</time>
<name>749</name>
</trkpt>
<trkpt lat="49.453965" lon="9.421442">
<ele>356.5</ele>
<speed>107</speed>
<course>102.6</course>
<desc>Speed 107 km/h Distance 23.48 km</desc>
<time>2011-03-24T15:25:28.46</time>
<name>750</name>
</trkpt>
<trkpt lat="49.453910" lon="9.421820">
<ele>356.5</ele>
<speed>102</speed>
<course>110.0</course>
<desc>Speed 102 km/h Distance 23.51 km</desc>
<time>2011-03-24T15:25:29.47</time>
<name>751</name>
</trkpt>
<trkpt lat="49.453833" lon="9.422143">
<ele>356.5</ele>
<speed>90.2</speed>
<course>110.0</course>
<desc>Speed 90.2 km/h Distance 23.53 km</desc>
<time>2011-03-24T15:25:30.46</time>
<name>752</name>
</trkpt>
<trkpt lat="49.453757" lon="9.422467">
<ele>356.5</ele>
<speed>91.1</speed>
<course>112.8</course>
<desc>Speed 91.1 km/h Distance 23.56 km</desc>
<time>2011-03-24T15:25:31.46</time>
<name>753</name>
</trkpt>
<trkpt lat="49.453672" lon="9.422778">
<ele>356.5</ele>
<speed>88.1</speed>
<course>117.7</course>
<desc>Speed 88.1 km/h Distance 23.58 km</desc>
<time>2011-03-24T15:25:32.46</time>
<name>754</name>
</trkpt>
<trkpt lat="49.453572" lon="9.423072">
<ele>356.5</ele>
<speed>85.8</speed>
<course>122.4</course>
<desc>Speed 85.8 km/h Distance 23.61 km</desc>
<time>2011-03-24T15:25:33.46</time>
<name>755</name>
</trkpt>
<trkpt lat="49.453457" lon="9.423350">
<ele>357.0</ele>
<speed>86.4</speed>
<course>134.6</course>
<desc>Speed 86.4 km/h Distance 23.63 km</desc>
<time>2011-03-24T15:25:34.46</time>
<name>756</name>
</trkpt>
<trkpt lat="49.453320" lon="9.423563">
<ele>357.0</ele>
<speed>76.8</speed>
<course>141.1</course>
<desc>Speed 76.8 km/h Distance 23.65 km</desc>
<time>2011-03-24T15:25:35.46</time>
<name>757</name>
</trkpt>
<trkpt lat="49.452963" lon="9.424007">
<ele>357.0</ele>
<speed>88.1</speed>
<course>139.5</course>
<desc>Speed 88.1 km/h Distance 23.70 km</desc>
<time>2011-03-24T15:25:37.46</time>
<name>758</name>
</trkpt>
<trkpt lat="49.452805" lon="9.424215">
<ele>357.0</ele>
<speed>81.2</speed>
<course>141.0</course>
<desc>Speed 81.2 km/h Distance 23.73 km</desc>
<time>2011-03-24T15:25:38.46</time>
<name>759</name>
</trkpt>
<trkpt lat="49.452573" lon="9.424503">
<ele>357.0</ele>
<speed>81.2</speed>
<course>142.4</course>
<desc>Speed 81.2 km/h Distance 23.76 km</desc>
<time>2011-03-24T15:25:40.45</time>
<name>760</name>
</trkpt>
<trkpt lat="49.452348" lon="9.424770">
<ele>357.0</ele>
<speed>66.7</speed>
<course>155.7</course>
<desc>Speed 66.7 km/h Distance 23.79 km</desc>
<time>2011-03-24T15:25:42.46</time>
<name>761</name>
</trkpt>
<trkpt lat="49.452202" lon="9.424872">
<ele>357.0</ele>
<speed>66.7</speed>
<course>165.6</course>
<desc>Speed 66.7 km/h Distance 23.81 km</desc>
<time>2011-03-24T15:25:43.48</time>
<name>762</name>
</trkpt>
<trkpt lat="49.451055" lon="9.425325">
<ele>358.0</ele>
<speed>111</speed>
<course>161.7</course>
<desc>Speed 111 km/h Distance 23.94 km</desc>
<time>2011-03-24T15:25:47.48</time>
<name>763</name>
</trkpt>
<trkpt lat="49.450453" lon="9.425632">
<ele>359.0</ele>
<speed>115</speed>
<course>152.0</course>
<desc>Speed 115 km/h Distance 24.01 km</desc>
<time>2011-03-24T15:25:49.46</time>
<name>764</name>
</trkpt>
<trkpt lat="49.450187" lon="9.425850">
<ele>358.5</ele>
<speed>112</speed>
<course>147.9</course>
<desc>Speed 112 km/h Distance 24.04 km</desc>
<time>2011-03-24T15:25:50.45</time>
<name>765</name>
</trkpt>
<trkpt lat="49.449950" lon="9.426078">
<ele>358.0</ele>
<speed>101</speed>
<course>147.0</course>
<desc>Speed 101 km/h Distance 24.08 km</desc>
<time>2011-03-24T15:25:51.46</time>
<name>766</name>
</trkpt>
<trkpt lat="49.449715" lon="9.426313">
<ele>357.5</ele>
<speed>101</speed>
<course>159.4</course>
<desc>Speed 101 km/h Distance 24.11 km</desc>
<time>2011-03-24T15:25:52.46</time>
<name>767</name>
</trkpt>
<trkpt lat="49.449455" lon="9.426463">
<ele>358.0</ele>
<speed>103</speed>
<course>153.4</course>
<desc>Speed 103 km/h Distance 24.14 km</desc>
<time>2011-03-24T15:25:53.45</time>
<name>768</name>
</trkpt>
<trkpt lat="49.449207" lon="9.426655">
<ele>358.5</ele>
<speed>109</speed>
<course>165.5</course>
<desc>Speed 109 km/h Distance 24.17 km</desc>
<time>2011-03-24T15:25:54.46</time>
<name>769</name>
</trkpt>
<trkpt lat="49.448918" lon="9.426770">
<ele>357.5</ele>
<speed>109</speed>
<course>169.8</course>
<desc>Speed 109 km/h Distance 24.20 km</desc>
<time>2011-03-24T15:25:55.46</time>
<name>770</name>
</trkpt>
<trkpt lat="49.448618" lon="9.426853">
<ele>357.0</ele>
<speed>115</speed>
<course>172.1</course>
<desc>Speed 115 km/h Distance 24.24 km</desc>
<time>2011-03-24T15:25:56.46</time>
<name>771</name>
</trkpt>
<trkpt lat="49.448328" lon="9.426915">
<ele>357.0</ele>
<speed>116</speed>
<course>179.6</course>
<desc>Speed 116 km/h Distance 24.27 km</desc>
<time>2011-03-24T15:25:57.45</time>
<name>772</name>
</trkpt>
<trkpt lat="49.447675" lon="9.426922">
<ele>355.0</ele>
<speed>127</speed>
<course>186.3</course>
<desc>Speed 127 km/h Distance 24.34 km</desc>
<time>2011-03-24T15:25:59.45</time>
<name>773</name>
</trkpt>
<trkpt lat="49.446965" lon="9.426802">
<ele>349.5</ele>
<speed>127</speed>
<course>180.6</course>
<desc>Speed 127 km/h Distance 24.42 km</desc>
<time>2011-03-24T15:26:01.44</time>
<name>774</name>
</trkpt>
<trkpt lat="49.446637" lon="9.426797">
<ele>348.0</ele>
<speed>130</speed>
<course>177.0</course>
<desc>Speed 130 km/h Distance 24.46 km</desc>
<time>2011-03-24T15:26:02.45</time>
<name>775</name>
</trkpt>
<trkpt lat="49.446310" lon="9.426823">
<ele>347.5</ele>
<speed>130</speed>
<course>174.4</course>
<desc>Speed 130 km/h Distance 24.49 km</desc>
<time>2011-03-24T15:26:03.45</time>
<name>776</name>
</trkpt>
<trkpt lat="49.446002" lon="9.426870">
<ele>346.5</ele>
<speed>123</speed>
<course>173.8</course>
<desc>Speed 123 km/h Distance 24.53 km</desc>
<time>2011-03-24T15:26:04.44</time>
<name>777</name>
</trkpt>
<trkpt lat="49.445690" lon="9.426922">
<ele>344.5</ele>
<speed>122</speed>
<course>171.7</course>
<desc>Speed 122 km/h Distance 24.56 km</desc>
<time>2011-03-24T15:26:05.44</time>
<name>778</name>
</trkpt>
<trkpt lat="49.445385" lon="9.426990">
<ele>343.5</ele>
<speed>120</speed>
<course>169.2</course>
<desc>Speed 120 km/h Distance 24.60 km</desc>
<time>2011-03-24T15:26:06.45</time>
<name>779</name>
</trkpt>
<trkpt lat="49.445090" lon="9.427077">
<ele>344.0</ele>
<speed>118</speed>
<course>168.6</course>
<desc>Speed 118 km/h Distance 24.63 km</desc>
<time>2011-03-24T15:26:07.44</time>
<name>780</name>
</trkpt>
<trkpt lat="49.444805" lon="9.427165">
<ele>343.5</ele>
<speed>116</speed>
<course>168.4</course>
<desc>Speed 116 km/h Distance 24.66 km</desc>
<time>2011-03-24T15:26:08.44</time>
<name>781</name>
</trkpt>
<trkpt lat="49.444542" lon="9.427248">
<ele>343.0</ele>
<speed>107</speed>
<course>166.9</course>
<desc>Speed 107 km/h Distance 24.69 km</desc>
<time>2011-03-24T15:26:09.44</time>
<name>782</name>
</trkpt>
<trkpt lat="49.444285" lon="9.427340">
<ele>342.0</ele>
<speed>105</speed>
<course>167.1</course>
<desc>Speed 105 km/h Distance 24.72 km</desc>
<time>2011-03-24T15:26:10.44</time>
<name>783</name>
</trkpt>
<trkpt lat="49.444038" lon="9.427427">
<ele>340.5</ele>
<speed>99.9</speed>
<course>165.6</course>
<desc>Speed 99.9 km/h Distance 24.75 km</desc>
<time>2011-03-24T15:26:11.45</time>
<name>784</name>
</trkpt>
<trkpt lat="49.443807" lon="9.427518">
<ele>339.5</ele>
<speed>95.6</speed>
<course>165.3</course>
<desc>Speed 95.6 km/h Distance 24.78 km</desc>
<time>2011-03-24T15:26:12.43</time>
<name>785</name>
</trkpt>
<trkpt lat="49.443583" lon="9.427608">
<ele>338.5</ele>
<speed>92.4</speed>
<course>166.6</course>
<desc>Speed 92.4 km/h Distance 24.80 km</desc>
<time>2011-03-24T15:26:13.44</time>
<name>786</name>
</trkpt>
<trkpt lat="49.443357" lon="9.427692">
<ele>337.5</ele>
<speed>92.5</speed>
<course>167.7</course>
<desc>Speed 92.5 km/h Distance 24.83 km</desc>
<time>2011-03-24T15:26:14.43</time>
<name>787</name>
</trkpt>
<trkpt lat="49.443128" lon="9.427768">
<ele>336.0</ele>
<speed>93.1</speed>
<course>169.3</course>
<desc>Speed 93.1 km/h Distance 24.85 km</desc>
<time>2011-03-24T15:26:15.43</time>
<name>788</name>
</trkpt>
<trkpt lat="49.442893" lon="9.427837">
<ele>335.0</ele>
<speed>94.3</speed>
<course>169.4</course>
<desc>Speed 94.3 km/h Distance 24.88 km</desc>
<time>2011-03-24T15:26:16.43</time>
<name>789</name>
</trkpt>
<trkpt lat="49.442657" lon="9.427905">
<ele>334.0</ele>
<speed>95.7</speed>
<course>169.9</course>
<desc>Speed 95.7 km/h Distance 24.91 km</desc>
<time>2011-03-24T15:26:17.43</time>
<name>790</name>
</trkpt>
<trkpt lat="49.442418" lon="9.427970">
<ele>333.0</ele>
<speed>96.9</speed>
<course>170.8</course>
<desc>Speed 96.9 km/h Distance 24.94 km</desc>
<time>2011-03-24T15:26:18.44</time>
<name>791</name>
</trkpt>
<trkpt lat="49.442177" lon="9.428030">
<ele>332.5</ele>
<speed>96.6</speed>
<course>172.5</course>
<desc>Speed 96.6 km/h Distance 24.96 km</desc>
<time>2011-03-24T15:26:19.43</time>
<name>792</name>
</trkpt>
<trkpt lat="49.441937" lon="9.428078">
<ele>331.5</ele>
<speed>95.4</speed>
<course>172.8</course>
<desc>Speed 95.4 km/h Distance 24.99 km</desc>
<time>2011-03-24T15:26:20.43</time>
<name>793</name>
</trkpt>
<trkpt lat="49.441705" lon="9.428123">
<ele>331.0</ele>
<speed>92.2</speed>
<course>172.2</course>
<desc>Speed 92.2 km/h Distance 25.02 km</desc>
<time>2011-03-24T15:26:21.43</time>
<name>794</name>
</trkpt>
<trkpt lat="49.441483" lon="9.428170">
<ele>330.5</ele>
<speed>87.4</speed>
<course>171.4</course>
<desc>Speed 87.4 km/h Distance 25.04 km</desc>
<time>2011-03-24T15:26:22.43</time>
<name>795</name>
</trkpt>
<trkpt lat="49.441282" lon="9.428217">
<ele>331.5</ele>
<speed>79.1</speed>
<course>171.7</course>
<desc>Speed 79.1 km/h Distance 25.06 km</desc>
<time>2011-03-24T15:26:23.43</time>
<name>796</name>
</trkpt>
<trkpt lat="49.441088" lon="9.428260">
<ele>331.5</ele>
<speed>76.9</speed>
<course>171.2</course>
<desc>Speed 76.9 km/h Distance 25.08 km</desc>
<time>2011-03-24T15:26:24.43</time>
<name>797</name>
</trkpt>
<trkpt lat="49.440907" lon="9.428303">
<ele>331.5</ele>
<speed>72.3</speed>
<course>170.6</course>
<desc>Speed 72.3 km/h Distance 25.11 km</desc>
<time>2011-03-24T15:26:25.43</time>
<name>798</name>
</trkpt>
<trkpt lat="49.440730" lon="9.428348">
<ele>331.0</ele>
<speed>70.8</speed>
<course>169.5</course>
<desc>Speed 70.8 km/h Distance 25.13 km</desc>
<time>2011-03-24T15:26:26.43</time>
<name>799</name>
</trkpt>
<trkpt lat="49.440537" lon="9.428403">
<ele>331.5</ele>
<speed>77.9</speed>
<course>166.6</course>
<desc>Speed 77.9 km/h Distance 25.15 km</desc>
<time>2011-03-24T15:26:27.43</time>
<name>800</name>
</trkpt>
<trkpt lat="49.440318" lon="9.428483">
<ele>331.0</ele>
<speed>89.8</speed>
<course>170.1</course>
<desc>Speed 89.8 km/h Distance 25.17 km</desc>
<time>2011-03-24T15:26:28.43</time>
<name>801</name>
</trkpt>
<trkpt lat="49.440083" lon="9.428547">
<ele>330.0</ele>
<speed>94.5</speed>
<course>167.6</course>
<desc>Speed 94.5 km/h Distance 25.20 km</desc>
<time>2011-03-24T15:26:29.44</time>
<name>802</name>
</trkpt>
<trkpt lat="49.439832" lon="9.428632">
<ele>329.5</ele>
<speed>102</speed>
<course>166.9</course>
<desc>Speed 102 km/h Distance 25.23 km</desc>
<time>2011-03-24T15:26:30.43</time>
<name>803</name>
</trkpt>
<trkpt lat="49.439570" lon="9.428725">
<ele>329.5</ele>
<speed>108</speed>
<course>166.4</course>
<desc>Speed 108 km/h Distance 25.26 km</desc>
<time>2011-03-24T15:26:31.43</time>
<name>804</name>
</trkpt>
<trkpt lat="49.439318" lon="9.428818">
<ele>329.0</ele>
<speed>104</speed>
<course>166.7</course>
<desc>Speed 104 km/h Distance 25.29 km</desc>
<time>2011-03-24T15:26:32.43</time>
<name>805</name>
</trkpt>
<trkpt lat="49.439085" lon="9.428903">
<ele>329.0</ele>
<speed>96.5</speed>
<course>167.0</course>
<desc>Speed 96.5 km/h Distance 25.31 km</desc>
<time>2011-03-24T15:26:33.43</time>
<name>806</name>
</trkpt>
<trkpt lat="49.438865" lon="9.428982">
<ele>329.0</ele>
<speed>90.6</speed>
<course>166.7</course>
<desc>Speed 90.6 km/h Distance 25.34 km</desc>
<time>2011-03-24T15:26:34.43</time>
<name>807</name>
</trkpt>
<trkpt lat="49.438658" lon="9.429057">
<ele>329.0</ele>
<speed>85.4</speed>
<course>163.4</course>
<desc>Speed 85.4 km/h Distance 25.36 km</desc>
<time>2011-03-24T15:26:35.42</time>
<name>808</name>
</trkpt>
<trkpt lat="49.438483" lon="9.429137">
<ele>329.5</ele>
<speed>74.2</speed>
<course>162.7</course>
<desc>Speed 74.2 km/h Distance 25.38 km</desc>
<time>2011-03-24T15:26:36.44</time>
<name>809</name>
</trkpt>
<trkpt lat="49.438218" lon="9.429263">
<ele>330.0</ele>
<speed>50.9</speed>
<course>164.9</course>
<desc>Speed 50.9 km/h Distance 25.41 km</desc>
<time>2011-03-24T15:26:38.43</time>
<name>810</name>
</trkpt>
<trkpt lat="49.438110" lon="9.429308">
<ele>330.0</ele>
<speed>45.9</speed>
<course>165.8</course>
<desc>Speed 45.9 km/h Distance 25.43 km</desc>
<time>2011-03-24T15:26:39.42</time>
<name>811</name>
</trkpt>
<trkpt lat="49.438012" lon="9.429347">
<ele>329.5</ele>
<speed>40.9</speed>
<course>168.8</course>
<desc>Speed 40.9 km/h Distance 25.44 km</desc>
<time>2011-03-24T15:26:40.42</time>
<name>812</name>
</trkpt>
<trkpt lat="49.437918" lon="9.429375">
<ele>329.5</ele>
<speed>38.7</speed>
<course>171.1</course>
<desc>Speed 38.7 km/h Distance 25.45 km</desc>
<time>2011-03-24T15:26:41.43</time>
<name>813</name>
</trkpt>
<trkpt lat="49.437828" lon="9.429397">
<ele>329.0</ele>
<speed>36.5</speed>
<course>173.0</course>
<desc>Speed 36.5 km/h Distance 25.46 km</desc>
<time>2011-03-24T15:26:42.42</time>
<name>814</name>
</trkpt>
<trkpt lat="49.437740" lon="9.429413">
<ele>329.0</ele>
<speed>35.3</speed>
<course>175.6</course>
<desc>Speed 35.3 km/h Distance 25.47 km</desc>
<time>2011-03-24T15:26:43.42</time>
<name>815</name>
</trkpt>
<trkpt lat="49.437655" lon="9.429423">
<ele>329.0</ele>
<speed>34.3</speed>
<course>178.5</course>
<desc>Speed 34.3 km/h Distance 25.48 km</desc>
<time>2011-03-24T15:26:44.43</time>
<name>816</name>
</trkpt>
<trkpt lat="49.437570" lon="9.429427">
<ele>329.0</ele>
<speed>34.3</speed>
<course>181.6</course>
<desc>Speed 34.3 km/h Distance 25.49 km</desc>
<time>2011-03-24T15:26:45.42</time>
<name>817</name>
</trkpt>
<trkpt lat="49.437483" lon="9.429423">
<ele>329.0</ele>
<speed>34.4</speed>
<course>183.9</course>
<desc>Speed 34.4 km/h Distance 25.50 km</desc>
<time>2011-03-24T15:26:46.43</time>
<name>818</name>
</trkpt>
<trkpt lat="49.437403" lon="9.429415">
<ele>329.0</ele>
<speed>32.1</speed>
<course>184.6</course>
<desc>Speed 32.1 km/h Distance 25.50 km</desc>
<time>2011-03-24T15:26:47.43</time>
<name>819</name>
</trkpt>
<trkpt lat="49.437350" lon="9.429408">
<ele>329.5</ele>
<speed>20.9</speed>
<course>187.1</course>
<desc>Speed 20.9 km/h Distance 25.51 km</desc>
<time>2011-03-24T15:26:48.42</time>
<name>820</name>
</trkpt>
<trkpt lat="49.437307" lon="9.429400">
<ele>329.5</ele>
<speed>16.3</speed>
<course>190.4</course>
<desc>Speed 16.3 km/h Distance 25.52 km</desc>
<time>2011-03-24T15:26:49.42</time>
<name>821</name>
</trkpt>
<trkpt lat="49.437265" lon="9.429388">
<ele>329.5</ele>
<speed>16.1</speed>
<course>193.9</course>
<desc>Speed 16.1 km/h Distance 25.52 km</desc>
<time>2011-03-24T15:26:50.43</time>
<name>822</name>
</trkpt>
<trkpt lat="49.437230" lon="9.429375">
<ele>329.5</ele>
<speed>14.7</speed>
<course>193.3</course>
<desc>Speed 14.7 km/h Distance 25.52 km</desc>
<time>2011-03-24T15:26:51.43</time>
<name>823</name>
</trkpt>
<trkpt lat="49.437193" lon="9.429362">
<ele>329.5</ele>
<speed>14.7</speed>
<course>194.6</course>
<desc>Speed 14.7 km/h Distance 25.53 km</desc>
<time>2011-03-24T15:26:52.42</time>
<name>824</name>
</trkpt>
<trkpt lat="49.437110" lon="9.429328">
<ele>329.5</ele>
<speed>17.5</speed>
<course>194.3</course>
<desc>Speed 17.5 km/h Distance 25.54 km</desc>
<time>2011-03-24T15:26:54.42</time>
<name>825</name>
</trkpt>
<trkpt lat="49.437063" lon="9.429310">
<ele>329.5</ele>
<speed>19.3</speed>
<course>200.5</course>
<desc>Speed 19.3 km/h Distance 25.54 km</desc>
<time>2011-03-24T15:26:55.43</time>
<name>826</name>
</trkpt>
<trkpt lat="49.436953" lon="9.429247">
<ele>329.5</ele>
<speed>23.9</speed>
<course>207.5</course>
<desc>Speed 23.9 km/h Distance 25.56 km</desc>
<time>2011-03-24T15:26:57.42</time>
<name>827</name>
</trkpt>
<trkpt lat="49.436845" lon="9.429160">
<ele>329.0</ele>
<speed>24.8</speed>
<course>206.4</course>
<desc>Speed 24.8 km/h Distance 25.57 km</desc>
<time>2011-03-24T15:26:59.42</time>
<name>828</name>
</trkpt>
<trkpt lat="49.436760" lon="9.429095">
<ele>329.0</ele>
<speed>17.6</speed>
<course>205.5</course>
<desc>Speed 17.6 km/h Distance 25.58 km</desc>
<time>2011-03-24T15:27:01.42</time>
<name>829</name>
</trkpt>
<trkpt lat="49.436685" lon="9.429040">
<ele>329.0</ele>
<speed>15.5</speed>
<course>209.2</course>
<desc>Speed 15.5 km/h Distance 25.59 km</desc>
<time>2011-03-24T15:27:03.42</time>
<name>830</name>
</trkpt>
<trkpt lat="49.436613" lon="9.428978">
<ele>329.0</ele>
<speed>16.5</speed>
<course>215.0</course>
<desc>Speed 16.5 km/h Distance 25.60 km</desc>
<time>2011-03-24T15:27:05.41</time>
<name>831</name>
</trkpt>
<trkpt lat="49.436525" lon="9.428883">
<ele>329.0</ele>
<speed>23.1</speed>
<course>223.5</course>
<desc>Speed 23.1 km/h Distance 25.61 km</desc>
<time>2011-03-24T15:27:07.43</time>
<name>832</name>
</trkpt>
<trkpt lat="49.436427" lon="9.428740">
<ele>329.0</ele>
<speed>28.0</speed>
<course>227.0</course>
<desc>Speed 28.0 km/h Distance 25.63 km</desc>
<time>2011-03-24T15:27:09.41</time>
<name>833</name>
</trkpt>
<trkpt lat="49.436332" lon="9.428583">
<ele>328.5</ele>
<speed>27.4</speed>
<course>229.6</course>
<desc>Speed 27.4 km/h Distance 25.64 km</desc>
<time>2011-03-24T15:27:11.42</time>
<name>834</name>
</trkpt>
<trkpt lat="49.436237" lon="9.428412">
<ele>327.5</ele>
<speed>28.2</speed>
<course>234.1</course>
<desc>Speed 28.2 km/h Distance 25.66 km</desc>
<time>2011-03-24T15:27:13.41</time>
<name>835</name>
</trkpt>
<trkpt lat="49.436142" lon="9.428210">
<ele>327.0</ele>
<speed>32.8</speed>
<course>237.9</course>
<desc>Speed 32.8 km/h Distance 25.68 km</desc>
<time>2011-03-24T15:27:15.42</time>
<name>836</name>
</trkpt>
<trkpt lat="49.436053" lon="9.427993">
<ele>326.5</ele>
<speed>33.0</speed>
<course>241.5</course>
<desc>Speed 33.0 km/h Distance 25.69 km</desc>
<time>2011-03-24T15:27:17.42</time>
<name>837</name>
</trkpt>
<trkpt lat="49.435967" lon="9.427748">
<ele>324.5</ele>
<speed>39.4</speed>
<course>242.9</course>
<desc>Speed 39.4 km/h Distance 25.71 km</desc>
<time>2011-03-24T15:27:19.41</time>
<name>838</name>
</trkpt>
<trkpt lat="49.435867" lon="9.427448">
<ele>323.5</ele>
<speed>46.5</speed>
<course>243.0</course>
<desc>Speed 46.5 km/h Distance 25.74 km</desc>
<time>2011-03-24T15:27:21.41</time>
<name>839</name>
</trkpt>
<trkpt lat="49.435755" lon="9.427112">
<ele>322.5</ele>
<speed>50.9</speed>
<course>240.8</course>
<desc>Speed 50.9 km/h Distance 25.77 km</desc>
<time>2011-03-24T15:27:23.41</time>
<name>840</name>
</trkpt>
<trkpt lat="49.435632" lon="9.426772">
<ele>321.0</ele>
<speed>50.6</speed>
<course>236.3</course>
<desc>Speed 50.6 km/h Distance 25.79 km</desc>
<time>2011-03-24T15:27:25.42</time>
<name>841</name>
</trkpt>
<trkpt lat="49.435483" lon="9.426430">
<ele>320.0</ele>
<speed>53.9</speed>
<course>232.4</course>
<desc>Speed 53.9 km/h Distance 25.82 km</desc>
<time>2011-03-24T15:27:27.41</time>
<name>842</name>
</trkpt>
<trkpt lat="49.435313" lon="9.426090">
<ele>319.5</ele>
<speed>55.3</speed>
<course>228.1</course>
<desc>Speed 55.3 km/h Distance 25.86 km</desc>
<time>2011-03-24T15:27:29.41</time>
<name>843</name>
</trkpt>
<trkpt lat="49.435127" lon="9.425770">
<ele>318.5</ele>
<speed>55.7</speed>
<course>223.2</course>
<desc>Speed 55.7 km/h Distance 25.89 km</desc>
<time>2011-03-24T15:27:31.41</time>
<name>844</name>
</trkpt>
<trkpt lat="49.434932" lon="9.425488">
<ele>317.5</ele>
<speed>53.1</speed>
<course>219.7</course>
<desc>Speed 53.1 km/h Distance 25.92 km</desc>
<time>2011-03-24T15:27:33.41</time>
<name>845</name>
</trkpt>
<trkpt lat="49.434728" lon="9.425228">
<ele>316.0</ele>
<speed>52.8</speed>
<course>215.4</course>
<desc>Speed 52.8 km/h Distance 25.95 km</desc>
<time>2011-03-24T15:27:35.40</time>
<name>846</name>
</trkpt>
<trkpt lat="49.434513" lon="9.424993">
<ele>315.0</ele>
<speed>52.6</speed>
<course>211.8</course>
<desc>Speed 52.6 km/h Distance 25.98 km</desc>
<time>2011-03-24T15:27:37.40</time>
<name>847</name>
</trkpt>
<trkpt lat="49.434302" lon="9.424792">
<ele>314.5</ele>
<speed>48.9</speed>
<course>208.3</course>
<desc>Speed 48.9 km/h Distance 26.00 km</desc>
<time>2011-03-24T15:27:39.41</time>
<name>848</name>
</trkpt>
<trkpt lat="49.434107" lon="9.424630">
<ele>314.0</ele>
<speed>43.8</speed>
<course>199.4</course>
<desc>Speed 43.8 km/h Distance 26.03 km</desc>
<time>2011-03-24T15:27:41.40</time>
<name>849</name>
</trkpt>
<trkpt lat="49.433903" lon="9.424520">
<ele>313.5</ele>
<speed>43.5</speed>
<course>188.0</course>
<desc>Speed 43.5 km/h Distance 26.05 km</desc>
<time>2011-03-24T15:27:43.41</time>
<name>850</name>
</trkpt>
<trkpt lat="49.433680" lon="9.424472">
<ele>313.5</ele>
<speed>45.3</speed>
<course>179.7</course>
<desc>Speed 45.3 km/h Distance 26.08 km</desc>
<time>2011-03-24T15:27:45.40</time>
<name>851</name>
</trkpt>
<trkpt lat="49.433458" lon="9.424473">
<ele>311.0</ele>
<speed>46.1</speed>
<course>186.1</course>
<desc>Speed 46.1 km/h Distance 26.10 km</desc>
<time>2011-03-24T15:27:47.40</time>
<name>852</name>
</trkpt>
<trkpt lat="49.433227" lon="9.424435">
<ele>310.0</ele>
<speed>46.5</speed>
<course>187.8</course>
<desc>Speed 46.5 km/h Distance 26.13 km</desc>
<time>2011-03-24T15:27:49.40</time>
<name>853</name>
</trkpt>
<trkpt lat="49.432990" lon="9.424385">
<ele>309.0</ele>
<speed>47.8</speed>
<course>188.3</course>
<desc>Speed 47.8 km/h Distance 26.15 km</desc>
<time>2011-03-24T15:27:51.40</time>
<name>854</name>
</trkpt>
<trkpt lat="49.432753" lon="9.424332">
<ele>307.0</ele>
<speed>48.5</speed>
<course>183.0</course>
<desc>Speed 48.5 km/h Distance 26.18 km</desc>
<time>2011-03-24T15:27:53.40</time>
<name>855</name>
</trkpt>
<trkpt lat="49.432505" lon="9.424312">
<ele>306.5</ele>
<speed>49.5</speed>
<course>177.6</course>
<desc>Speed 49.5 km/h Distance 26.21 km</desc>
<time>2011-03-24T15:27:55.41</time>
<name>856</name>
</trkpt>
<trkpt lat="49.432270" lon="9.424327">
<ele>306.5</ele>
<speed>45.2</speed>
<course>180.6</course>
<desc>Speed 45.2 km/h Distance 26.23 km</desc>
<time>2011-03-24T15:27:57.40</time>
<name>857</name>
</trkpt>
<trkpt lat="49.432053" lon="9.424323">
<ele>306.0</ele>
<speed>42.3</speed>
<course>182.9</course>
<desc>Speed 42.3 km/h Distance 26.26 km</desc>
<time>2011-03-24T15:27:59.40</time>
<name>858</name>
</trkpt>
<trkpt lat="49.431838" lon="9.424307">
<ele>306.0</ele>
<speed>43.0</speed>
<course>184.1</course>
<desc>Speed 43.0 km/h Distance 26.28 km</desc>
<time>2011-03-24T15:28:01.39</time>
<name>859</name>
</trkpt>
<trkpt lat="49.431628" lon="9.424283">
<ele>305.5</ele>
<speed>41.1</speed>
<course>181.1</course>
<desc>Speed 41.1 km/h Distance 26.31 km</desc>
<time>2011-03-24T15:28:03.39</time>
<name>860</name>
</trkpt>
<trkpt lat="49.431463" lon="9.424278">
<ele>307.0</ele>
<speed>28.4</speed>
<course>180.3</course>
<desc>Speed 28.4 km/h Distance 26.32 km</desc>
<time>2011-03-24T15:28:05.40</time>
<name>861</name>
</trkpt>
<trkpt lat="49.431320" lon="9.424277">
<ele>308.5</ele>
<speed>25.5</speed>
<course>185.4</course>
<desc>Speed 25.5 km/h Distance 26.34 km</desc>
<time>2011-03-24T15:28:07.39</time>
<name>862</name>
</trkpt>
<trkpt lat="49.431193" lon="9.424258">
<ele>307.5</ele>
<speed>24.0</speed>
<course>205.4</course>
<desc>Speed 24.0 km/h Distance 26.35 km</desc>
<time>2011-03-24T15:28:09.39</time>
<name>863</name>
</trkpt>
<trkpt lat="49.431070" lon="9.424168">
<ele>308.0</ele>
<speed>29.9</speed>
<course>225.6</course>
<desc>Speed 29.9 km/h Distance 26.37 km</desc>
<time>2011-03-24T15:28:11.40</time>
<name>864</name>
</trkpt>
<trkpt lat="49.430973" lon="9.424017">
<ele>306.5</ele>
<speed>28.2</speed>
<course>231.8</course>
<desc>Speed 28.2 km/h Distance 26.38 km</desc>
<time>2011-03-24T15:28:13.40</time>
<name>865</name>
</trkpt>
<trkpt lat="49.430865" lon="9.423805">
<ele>306.0</ele>
<speed>34.7</speed>
<course>234.6</course>
<desc>Speed 34.7 km/h Distance 26.40 km</desc>
<time>2011-03-24T15:28:15.39</time>
<name>866</name>
</trkpt>
<trkpt lat="49.430762" lon="9.423582">
<ele>305.5</ele>
<speed>35.1</speed>
<course>235.4</course>
<desc>Speed 35.1 km/h Distance 26.42 km</desc>
<time>2011-03-24T15:28:17.39</time>
<name>867</name>
</trkpt>
<trkpt lat="49.430660" lon="9.423355">
<ele>307.0</ele>
<speed>36.1</speed>
<course>237.8</course>
<desc>Speed 36.1 km/h Distance 26.44 km</desc>
<time>2011-03-24T15:28:19.40</time>
<name>868</name>
</trkpt>
<trkpt lat="49.430565" lon="9.423123">
<ele>306.0</ele>
<speed>37.3</speed>
<course>238.4</course>
<desc>Speed 37.3 km/h Distance 26.46 km</desc>
<time>2011-03-24T15:28:21.39</time>
<name>869</name>
</trkpt>
<trkpt lat="49.430458" lon="9.422857">
<ele>305.0</ele>
<speed>39.3</speed>
<course>237.5</course>
<desc>Speed 39.3 km/h Distance 26.49 km</desc>
<time>2011-03-24T15:28:23.39</time>
<name>870</name>
</trkpt>
<trkpt lat="49.430353" lon="9.422603">
<ele>305.0</ele>
<speed>38.3</speed>
<course>239.5</course>
<desc>Speed 38.3 km/h Distance 26.51 km</desc>
<time>2011-03-24T15:28:25.39</time>
<name>871</name>
</trkpt>
<trkpt lat="49.430258" lon="9.422355">
<ele>304.5</ele>
<speed>36.3</speed>
<course>237.5</course>
<desc>Speed 36.3 km/h Distance 26.53 km</desc>
<time>2011-03-24T15:28:27.39</time>
<name>872</name>
</trkpt>
<trkpt lat="49.430170" lon="9.422142">
<ele>303.5</ele>
<speed>30.6</speed>
<course>238.3</course>
<desc>Speed 30.6 km/h Distance 26.55 km</desc>
<time>2011-03-24T15:28:29.38</time>
<name>873</name>
</trkpt>
<trkpt lat="49.430098" lon="9.421963">
<ele>303.0</ele>
<speed>26.0</speed>
<course>239.0</course>
<desc>Speed 26.0 km/h Distance 26.56 km</desc>
<time>2011-03-24T15:28:31.38</time>
<name>874</name>
</trkpt>
<trkpt lat="49.430042" lon="9.421818">
<ele>302.0</ele>
<speed>22.0</speed>
<course>237.3</course>
<desc>Speed 22.0 km/h Distance 26.57 km</desc>
<time>2011-03-24T15:28:33.39</time>
<name>875</name>
</trkpt>
<trkpt lat="49.429987" lon="9.421687">
<ele>302.0</ele>
<speed>19.8</speed>
<course>237.0</course>
<desc>Speed 19.8 km/h Distance 26.59 km</desc>
<time>2011-03-24T15:28:35.39</time>
<name>876</name>
</trkpt>
<trkpt lat="49.429937" lon="9.421568">
<ele>302.0</ele>
<speed>18.0</speed>
<course>237.8</course>
<desc>Speed 18.0 km/h Distance 26.60 km</desc>
<time>2011-03-24T15:28:37.38</time>
<name>877</name>
</trkpt>
<trkpt lat="49.429892" lon="9.421458">
<ele>301.0</ele>
<speed>16.4</speed>
<course>241.1</course>
<desc>Speed 16.4 km/h Distance 26.61 km</desc>
<time>2011-03-24T15:28:39.38</time>
<name>878</name>
</trkpt>
<trkpt lat="49.429860" lon="9.421370">
<ele>300.5</ele>
<speed>11.5</speed>
<course>244.9</course>
<desc>Speed 11.5 km/h Distance 26.61 km</desc>
<time>2011-03-24T15:28:41.38</time>
<name>879</name>
</trkpt>
<trkpt lat="49.429848" lon="9.421332">
<ele>300.0</ele>
<speed>3.5</speed>
<course>122.1</course>
<desc>Speed 3.5 km/h Distance 26.62 km</desc>
<time>2011-03-24T15:28:43.37</time>
<name>880</name>
</trkpt>
<trkpt lat="49.429845" lon="9.421340">
<ele>300.5</ele>
<speed>0.4</speed>
<course>122.1</course>
<desc>Speed 0.4 km/h Distance 26.62 km</desc>
<time>2011-03-24T15:28:45.37</time>
<name>881</name>
</trkpt>
<trkpt lat="49.429845" lon="9.421340">
<ele>299.5</ele>
<speed>0.3</speed>
<course>297.4</course>
<desc>Speed 0.3 km/h Distance 26.62 km</desc>
<time>2011-03-24T15:28:47.38</time>
<name>882</name>
</trkpt>
<trkpt lat="49.429847" lon="9.421335">
<ele>299.0</ele>
<speed>1.7</speed>
<course>238.4</course>
<desc>Speed 1.7 km/h Distance 26.62 km</desc>
<time>2011-03-24T15:28:49.38</time>
<name>883</name>
</trkpt>
<trkpt lat="49.429833" lon="9.421302">
<ele>299.0</ele>
<speed>6.7</speed>
<course>238.8</course>
<desc>Speed 6.7 km/h Distance 26.62 km</desc>
<time>2011-03-24T15:28:51.38</time>
<name>884</name>
</trkpt>
<trkpt lat="49.429812" lon="9.421247">
<ele>299.0</ele>
<speed>8.7</speed>
<course>246.6</course>
<desc>Speed 8.7 km/h Distance 26.62 km</desc>
<time>2011-03-24T15:28:53.37</time>
<name>885</name>
</trkpt>
<trkpt lat="49.429793" lon="9.421182">
<ele>299.0</ele>
<speed>9.7</speed>
<course>251.3</course>
<desc>Speed 9.7 km/h Distance 26.63 km</desc>
<time>2011-03-24T15:28:55.37</time>
<name>886</name>
</trkpt>
<trkpt lat="49.429772" lon="9.421083">
<ele>299.0</ele>
<speed>13.8</speed>
<course>257.8</course>
<desc>Speed 13.8 km/h Distance 26.64 km</desc>
<time>2011-03-24T15:28:57.37</time>
<name>887</name>
</trkpt>
<trkpt lat="49.429758" lon="9.420988">
<ele>299.5</ele>
<speed>12.0</speed>
<course>270.0</course>
<desc>Speed 12.0 km/h Distance 26.64 km</desc>
<time>2011-03-24T15:28:59.36</time>
<name>888</name>
</trkpt>
<trkpt lat="49.429758" lon="9.420903">
<ele>299.5</ele>
<speed>11.4</speed>
<course>309.1</course>
<desc>Speed 11.4 km/h Distance 26.65 km</desc>
<time>2011-03-24T15:29:01.37</time>
<name>889</name>
</trkpt>
<trkpt lat="49.429805" lon="9.420815">
<ele>299.5</ele>
<speed>18.2</speed>
<course>354.8</course>
<desc>Speed 18.2 km/h Distance 26.66 km</desc>
<time>2011-03-24T15:29:03.36</time>
<name>890</name>
</trkpt>
<trkpt lat="49.429888" lon="9.420803">
<ele>299.5</ele>
<speed>16.8</speed>
<course>20.6</course>
<desc>Speed 16.8 km/h Distance 26.67 km</desc>
<time>2011-03-24T15:29:05.36</time>
<name>891</name>
</trkpt>
<trkpt lat="49.429995" lon="9.420865">
<ele>300.0</ele>
<speed>25.5</speed>
<course>25.6</course>
<desc>Speed 25.5 km/h Distance 26.68 km</desc>
<time>2011-03-24T15:29:07.36</time>
<name>892</name>
</trkpt>
<trkpt lat="49.430115" lon="9.420953">
<ele>301.5</ele>
<speed>26.9</speed>
<course>29.2</course>
<desc>Speed 26.9 km/h Distance 26.70 km</desc>
<time>2011-03-24T15:29:09.36</time>
<name>893</name>
</trkpt>
<trkpt lat="49.430233" lon="9.421055">
<ele>303.0</ele>
<speed>27.1</speed>
<course>37.6</course>
<desc>Speed 27.1 km/h Distance 26.71 km</desc>
<time>2011-03-24T15:29:11.36</time>
<name>894</name>
</trkpt>
<trkpt lat="49.430377" lon="9.421225">
<ele>303.0</ele>
<speed>38.7</speed>
<course>46.9</course>
<desc>Speed 38.7 km/h Distance 26.73 km</desc>
<time>2011-03-24T15:29:13.37</time>
<name>895</name>
</trkpt>
<trkpt lat="49.430517" lon="9.421455">
<ele>304.5</ele>
<speed>41.5</speed>
<course>56.7</course>
<desc>Speed 41.5 km/h Distance 26.75 km</desc>
<time>2011-03-24T15:29:15.37</time>
<name>896</name>
</trkpt>
<trkpt lat="49.430628" lon="9.421717">
<ele>305.0</ele>
<speed>40.7</speed>
<course>68.0</course>
<desc>Speed 40.7 km/h Distance 26.78 km</desc>
<time>2011-03-24T15:29:17.36</time>
<name>897</name>
</trkpt>
<trkpt lat="49.430703" lon="9.422002">
<ele>306.0</ele>
<speed>41.7</speed>
<course>80.2</course>
<desc>Speed 41.7 km/h Distance 26.80 km</desc>
<time>2011-03-24T15:29:19.36</time>
<name>898</name>
</trkpt>
<trkpt lat="49.430740" lon="9.422327">
<ele>306.5</ele>
<speed>43.3</speed>
<course>92.1</course>
<desc>Speed 43.3 km/h Distance 26.82 km</desc>
<time>2011-03-24T15:29:21.37</time>
<name>899</name>
</trkpt>
<trkpt lat="49.430732" lon="9.422677">
<ele>307.0</ele>
<speed>45.6</speed>
<course>104.6</course>
<desc>Speed 45.6 km/h Distance 26.85 km</desc>
<time>2011-03-24T15:29:23.36</time>
<name>900</name>
</trkpt>
<trkpt lat="49.430675" lon="9.423010">
<ele>307.5</ele>
<speed>43.7</speed>
<course>111.0</course>
<desc>Speed 43.7 km/h Distance 26.87 km</desc>
<time>2011-03-24T15:29:25.36</time>
<name>901</name>
</trkpt>
<trkpt lat="49.430600" lon="9.423310">
<ele>307.0</ele>
<speed>42.0</speed>
<course>114.0</course>
<desc>Speed 42.0 km/h Distance 26.90 km</desc>
<time>2011-03-24T15:29:27.35</time>
<name>902</name>
</trkpt>
<trkpt lat="49.430512" lon="9.423615">
<ele>307.0</ele>
<speed>43.8</speed>
<course>113.1</course>
<desc>Speed 43.8 km/h Distance 26.92 km</desc>
<time>2011-03-24T15:29:29.35</time>
<name>903</name>
</trkpt>
<trkpt lat="49.430427" lon="9.423922">
<ele>306.0</ele>
<speed>43.8</speed>
<course>112.5</course>
<desc>Speed 43.8 km/h Distance 26.94 km</desc>
<time>2011-03-24T15:29:31.35</time>
<name>904</name>
</trkpt>
<trkpt lat="49.430343" lon="9.424232">
<ele>305.0</ele>
<speed>44.5</speed>
<course>113.5</course>
<desc>Speed 44.5 km/h Distance 26.97 km</desc>
<time>2011-03-24T15:29:33.35</time>
<name>905</name>
</trkpt>
<trkpt lat="49.430255" lon="9.424543">
<ele>304.0</ele>
<speed>44.7</speed>
<course>114.5</course>
<desc>Speed 44.7 km/h Distance 26.99 km</desc>
<time>2011-03-24T15:29:35.35</time>
<name>906</name>
</trkpt>
<trkpt lat="49.430162" lon="9.424858">
<ele>302.0</ele>
<speed>45.5</speed>
<course>111.2</course>
<desc>Speed 45.5 km/h Distance 27.02 km</desc>
<time>2011-03-24T15:29:37.36</time>
<name>907</name>
</trkpt>
<trkpt lat="49.430080" lon="9.425182">
<ele>300.5</ele>
<speed>45.7</speed>
<course>98.9</course>
<desc>Speed 45.7 km/h Distance 27.04 km</desc>
<time>2011-03-24T15:29:39.35</time>
<name>908</name>
</trkpt>
<trkpt lat="49.430047" lon="9.425510">
<ele>299.5</ele>
<speed>42.2</speed>
<course>83.1</course>
<desc>Speed 42.2 km/h Distance 27.07 km</desc>
<time>2011-03-24T15:29:41.35</time>
<name>909</name>
</trkpt>
<trkpt lat="49.430070" lon="9.425805">
<ele>299.0</ele>
<speed>38.1</speed>
<course>67.7</course>
<desc>Speed 38.1 km/h Distance 27.09 km</desc>
<time>2011-03-24T15:29:43.35</time>
<name>910</name>
</trkpt>
<trkpt lat="49.430137" lon="9.426055">
<ele>298.0</ele>
<speed>34.8</speed>
<course>49.6</course>
<desc>Speed 34.8 km/h Distance 27.11 km</desc>
<time>2011-03-24T15:29:45.35</time>
<name>911</name>
</trkpt>
<trkpt lat="49.430250" lon="9.426260">
<ele>295.5</ele>
<speed>36.6</speed>
<course>38.6</course>
<desc>Speed 36.6 km/h Distance 27.13 km</desc>
<time>2011-03-24T15:29:47.35</time>
<name>912</name>
</trkpt>
<trkpt lat="49.430382" lon="9.426422">
<ele>296.0</ele>
<speed>33.2</speed>
<course>33.0</course>
<desc>Speed 33.2 km/h Distance 27.15 km</desc>
<time>2011-03-24T15:29:49.35</time>
<name>913</name>
</trkpt>
<trkpt lat="49.430483" lon="9.426523">
<ele>296.0</ele>
<speed>22.7</speed>
<course>27.8</course>
<desc>Speed 22.7 km/h Distance 27.16 km</desc>
<time>2011-03-24T15:29:51.35</time>
<name>914</name>
</trkpt>
<trkpt lat="49.430588" lon="9.426608">
<ele>297.5</ele>
<speed>22.7</speed>
<course>33.9</course>
<desc>Speed 22.7 km/h Distance 27.17 km</desc>
<time>2011-03-24T15:29:53.35</time>
<name>915</name>
</trkpt>
<trkpt lat="49.430685" lon="9.426708">
<ele>297.5</ele>
<speed>21.3</speed>
<course>30.6</course>
<desc>Speed 21.3 km/h Distance 27.19 km</desc>
<time>2011-03-24T15:29:55.36</time>
<name>916</name>
</trkpt>
<trkpt lat="49.430740" lon="9.426758">
<ele>297.5</ele>
<speed>10.4</speed>
<course>21.6</course>
<desc>Speed 10.4 km/h Distance 27.19 km</desc>
<time>2011-03-24T15:29:57.34</time>
<name>917</name>
</trkpt>
<trkpt lat="49.430770" lon="9.426777">
<ele>300.0</ele>
<speed>5.2</speed>
<course>35.0</course>
<desc>Speed 5.2 km/h Distance 27.20 km</desc>
<time>2011-03-24T15:29:59.34</time>
<name>918</name>
</trkpt>
<trkpt lat="49.430792" lon="9.426800">
<ele>300.0</ele>
<speed>4.8</speed>
<course>38.7</course>
<desc>Speed 4.8 km/h Distance 27.20 km</desc>
<time>2011-03-24T15:30:01.35</time>
<name>919</name>
</trkpt>
<trkpt lat="49.430835" lon="9.426853">
<ele>300.0</ele>
<speed>14.0</speed>
<course>39.5</course>
<desc>Speed 14.0 km/h Distance 27.21 km</desc>
<time>2011-03-24T15:30:03.34</time>
<name>920</name>
</trkpt>
<trkpt lat="49.430942" lon="9.426988">
<ele>298.5</ele>
<speed>25.2</speed>
<course>44.6</course>
<desc>Speed 25.2 km/h Distance 27.22 km</desc>
<time>2011-03-24T15:30:05.34</time>
<name>921</name>
</trkpt>
<trkpt lat="49.431048" lon="9.427150">
<ele>298.5</ele>
<speed>31.6</speed>
<course>48.3</course>
<desc>Speed 31.6 km/h Distance 27.24 km</desc>
<time>2011-03-24T15:30:07.34</time>
<name>922</name>
</trkpt>
<trkpt lat="49.431157" lon="9.427337">
<ele>299.5</ele>
<speed>33.7</speed>
<course>72.7</course>
<desc>Speed 33.7 km/h Distance 27.26 km</desc>
<time>2011-03-24T15:30:09.33</time>
<name>923</name>
</trkpt>
<trkpt lat="49.431208" lon="9.427592">
<ele>296.5</ele>
<speed>35.8</speed>
<course>121.0</course>
<desc>Speed 35.8 km/h Distance 27.28 km</desc>
<time>2011-03-24T15:30:11.34</time>
<name>924</name>
</trkpt>
<trkpt lat="49.431118" lon="9.427822">
<ele>297.0</ele>
<speed>38.0</speed>
<course>131.6</course>
<desc>Speed 38.0 km/h Distance 27.30 km</desc>
<time>2011-03-24T15:30:13.34</time>
<name>925</name>
</trkpt>
<trkpt lat="49.430988" lon="9.428047">
<ele>297.5</ele>
<speed>39.9</speed>
<course>135.3</course>
<desc>Speed 39.9 km/h Distance 27.32 km</desc>
<time>2011-03-24T15:30:15.33</time>
<name>926</name>
</trkpt>
<trkpt lat="49.430848" lon="9.428260">
<ele>298.0</ele>
<speed>39.5</speed>
<course>166.3</course>
<desc>Speed 39.5 km/h Distance 27.34 km</desc>
<time>2011-03-24T15:30:17.33</time>
<name>927</name>
</trkpt>
<trkpt lat="49.430667" lon="9.428328">
<ele>300.0</ele>
<speed>37.2</speed>
<course>201.0</course>
<desc>Speed 37.2 km/h Distance 27.36 km</desc>
<time>2011-03-24T15:30:19.33</time>
<name>928</name>
</trkpt>
<trkpt lat="49.430528" lon="9.428247">
<ele>303.0</ele>
<speed>43.1</speed>
<course>217.2</course>
<desc>Speed 43.1 km/h Distance 27.38 km</desc>
<time>2011-03-24T15:30:21.33</time>
<name>929</name>
</trkpt>
<trkpt lat="49.430378" lon="9.428072">
<ele>307.0</ele>
<speed>36.6</speed>
<course>219.5</course>
<desc>Speed 36.6 km/h Distance 27.40 km</desc>
<time>2011-03-24T15:30:23.33</time>
<name>930</name>
</trkpt>
<trkpt lat="49.430228" lon="9.427882">
<ele>309.5</ele>
<speed>40.1</speed>
<course>219.3</course>
<desc>Speed 40.1 km/h Distance 27.42 km</desc>
<time>2011-03-24T15:30:25.34</time>
<name>931</name>
</trkpt>
<trkpt lat="49.430098" lon="9.427718">
<ele>310.0</ele>
<speed>30.9</speed>
<course>227.7</course>
<desc>Speed 30.9 km/h Distance 27.44 km</desc>
<time>2011-03-24T15:30:27.33</time>
<name>932</name>
</trkpt>
<trkpt lat="49.430050" lon="9.427637">
<ele>311.0</ele>
<speed>12.1</speed>
<course>222.1</course>
<desc>Speed 12.1 km/h Distance 27.45 km</desc>
<time>2011-03-24T15:30:29.32</time>
<name>933</name>
</trkpt>
<trkpt lat="49.430020" lon="9.427595">
<ele>311.5</ele>
<speed>7.1</speed>
<course>219.0</course>
<desc>Speed 7.1 km/h Distance 27.45 km</desc>
<time>2011-03-24T15:30:31.33</time>
<name>934</name>
</trkpt>
<trkpt lat="49.430007" lon="9.427578">
<ele>311.5</ele>
<speed>3.9</speed>
<course>223.3</course>
<desc>Speed 3.9 km/h Distance 27.45 km</desc>
<time>2011-03-24T15:30:33.32</time>
<name>935</name>
</trkpt>
<trkpt lat="49.429973" lon="9.427530">
<ele>312.0</ele>
<speed>11.8</speed>
<course>216.1</course>
<desc>Speed 11.8 km/h Distance 27.46 km</desc>
<time>2011-03-24T15:30:35.32</time>
<name>936</name>
</trkpt>
<trkpt lat="49.429905" lon="9.427453">
<ele>312.5</ele>
<speed>19.8</speed>
<course>210.7</course>
<desc>Speed 19.8 km/h Distance 27.47 km</desc>
<time>2011-03-24T15:30:37.32</time>
<name>937</name>
</trkpt>
<trkpt lat="49.429810" lon="9.427367">
<ele>312.5</ele>
<speed>22.5</speed>
<course>208.1</course>
<desc>Speed 22.5 km/h Distance 27.48 km</desc>
<time>2011-03-24T15:30:39.32</time>
<name>938</name>
</trkpt>
<trkpt lat="49.429680" lon="9.427260">
<ele>313.0</ele>
<speed>33.0</speed>
<course>203.4</course>
<desc>Speed 33.0 km/h Distance 27.50 km</desc>
<time>2011-03-24T15:30:41.32</time>
<name>939</name>
</trkpt>
<trkpt lat="49.429530" lon="9.427160">
<ele>314.5</ele>
<speed>34.1</speed>
<course>200.8</course>
<desc>Speed 34.1 km/h Distance 27.51 km</desc>
<time>2011-03-24T15:30:43.32</time>
<name>940</name>
</trkpt>
<trkpt lat="49.429342" lon="9.427050">
<ele>316.5</ele>
<speed>43.1</speed>
<course>203.4</course>
<desc>Speed 43.1 km/h Distance 27.54 km</desc>
<time>2011-03-24T15:30:45.32</time>
<name>941</name>
</trkpt>
<trkpt lat="49.429142" lon="9.426917">
<ele>317.5</ele>
<speed>43.8</speed>
<course>203.2</course>
<desc>Speed 43.8 km/h Distance 27.56 km</desc>
<time>2011-03-24T15:30:47.32</time>
<name>942</name>
</trkpt>
<trkpt lat="49.428922" lon="9.426772">
<ele>318.5</ele>
<speed>47.6</speed>
<course>203.0</course>
<desc>Speed 47.6 km/h Distance 27.59 km</desc>
<time>2011-03-24T15:30:49.32</time>
<name>943</name>
</trkpt>
<trkpt lat="49.428710" lon="9.426633">
<ele>318.5</ele>
<speed>45.8</speed>
<course>198.3</course>
<desc>Speed 45.8 km/h Distance 27.61 km</desc>
<time>2011-03-24T15:30:51.32</time>
<name>944</name>
</trkpt>
<trkpt lat="49.428480" lon="9.426517">
<ele>320.0</ele>
<speed>49.1</speed>
<course>174.8</course>
<desc>Speed 49.1 km/h Distance 27.64 km</desc>
<time>2011-03-24T15:30:53.32</time>
<name>945</name>
</trkpt>
<trkpt lat="49.428252" lon="9.426548">
<ele>318.5</ele>
<speed>46.1</speed>
<course>156.0</course>
<desc>Speed 46.1 km/h Distance 27.66 km</desc>
<time>2011-03-24T15:30:55.32</time>
<name>946</name>
</trkpt>
<trkpt lat="49.427988" lon="9.426728">
<ele>319.0</ele>
<speed>60.2</speed>
<course>154.7</course>
<desc>Speed 60.2 km/h Distance 27.70 km</desc>
<time>2011-03-24T15:30:57.32</time>
<name>947</name>
</trkpt>
<trkpt lat="49.427670" lon="9.426960">
<ele>321.0</ele>
<speed>68.7</speed>
<course>143.6</course>
<desc>Speed 68.7 km/h Distance 27.74 km</desc>
<time>2011-03-24T15:30:59.32</time>
<name>948</name>
</trkpt>
<trkpt lat="49.427373" lon="9.427297">
<ele>325.5</ele>
<speed>76.5</speed>
<course>140.4</course>
<desc>Speed 76.5 km/h Distance 27.78 km</desc>
<time>2011-03-24T15:31:01.31</time>
<name>949</name>
</trkpt>
<trkpt lat="49.427048" lon="9.427710">
<ele>327.0</ele>
<speed>88.6</speed>
<course>133.7</course>
<desc>Speed 88.6 km/h Distance 27.82 km</desc>
<time>2011-03-24T15:31:03.32</time>
<name>950</name>
</trkpt>
<trkpt lat="49.426740" lon="9.428207">
<ele>327.0</ele>
<speed>91.6</speed>
<course>126.5</course>
<desc>Speed 91.6 km/h Distance 27.87 km</desc>
<time>2011-03-24T15:31:05.32</time>
<name>951</name>
</trkpt>
<trkpt lat="49.426442" lon="9.428827">
<ele>328.5</ele>
<speed>102</speed>
<course>119.1</course>
<desc>Speed 102 km/h Distance 27.93 km</desc>
<time>2011-03-24T15:31:07.31</time>
<name>952</name>
</trkpt>
<trkpt lat="49.426185" lon="9.429537">
<ele>329.0</ele>
<speed>105</speed>
<course>112.1</course>
<desc>Speed 105 km/h Distance 27.99 km</desc>
<time>2011-03-24T15:31:09.32</time>
<name>953</name>
</trkpt>
<trkpt lat="49.425983" lon="9.430300">
<ele>329.0</ele>
<speed>106</speed>
<course>103.7</course>
<desc>Speed 106 km/h Distance 28.05 km</desc>
<time>2011-03-24T15:31:11.32</time>
<name>954</name>
</trkpt>
<trkpt lat="49.425863" lon="9.431055">
<ele>331.5</ele>
<speed>101</speed>
<course>98.6</course>
<desc>Speed 101 km/h Distance 28.10 km</desc>
<time>2011-03-24T15:31:13.31</time>
<name>955</name>
</trkpt>
<trkpt lat="49.425790" lon="9.431802">
<ele>333.5</ele>
<speed>99.5</speed>
<course>91.4</course>
<desc>Speed 99.5 km/h Distance 28.16 km</desc>
<time>2011-03-24T15:31:15.31</time>
<name>956</name>
</trkpt>
<trkpt lat="49.425778" lon="9.432557">
<ele>337.0</ele>
<speed>98.6</speed>
<course>85.7</course>
<desc>Speed 98.6 km/h Distance 28.21 km</desc>
<time>2011-03-24T15:31:17.30</time>
<name>957</name>
</trkpt>
<trkpt lat="49.425813" lon="9.433280">
<ele>341.0</ele>
<speed>94.5</speed>
<course>85.7</course>
<desc>Speed 94.5 km/h Distance 28.27 km</desc>
<time>2011-03-24T15:31:19.30</time>
<name>958</name>
</trkpt>
<trkpt lat="49.425845" lon="9.433922">
<ele>342.5</ele>
<speed>85.6</speed>
<course>84.7</course>
<desc>Speed 85.6 km/h Distance 28.31 km</desc>
<time>2011-03-24T15:31:21.31</time>
<name>959</name>
</trkpt>
<trkpt lat="49.425880" lon="9.434500">
<ele>345.0</ele>
<speed>77.8</speed>
<course>87.7</course>
<desc>Speed 77.8 km/h Distance 28.36 km</desc>
<time>2011-03-24T15:31:23.30</time>
<name>960</name>
</trkpt>
<trkpt lat="49.425895" lon="9.435078">
<ele>349.0</ele>
<speed>74.2</speed>
<course>90.5</course>
<desc>Speed 74.2 km/h Distance 28.40 km</desc>
<time>2011-03-24T15:31:25.30</time>
<name>961</name>
</trkpt>
<trkpt lat="49.425892" lon="9.435635">
<ele>352.5</ele>
<speed>69.9</speed>
<course>92.0</course>
<desc>Speed 69.9 km/h Distance 28.44 km</desc>
<time>2011-03-24T15:31:27.30</time>
<name>962</name>
</trkpt>
<trkpt lat="49.425880" lon="9.436160">
<ele>354.0</ele>
<speed>68.7</speed>
<course>97.3</course>
<desc>Speed 68.7 km/h Distance 28.48 km</desc>
<time>2011-03-24T15:31:29.30</time>
<name>963</name>
</trkpt>
<trkpt lat="49.425837" lon="9.436682">
<ele>355.0</ele>
<speed>69.6</speed>
<course>102.6</course>
<desc>Speed 69.6 km/h Distance 28.51 km</desc>
<time>2011-03-24T15:31:31.30</time>
<name>964</name>
</trkpt>
<trkpt lat="49.425762" lon="9.437197">
<ele>356.0</ele>
<speed>69.1</speed>
<course>106.2</course>
<desc>Speed 69.1 km/h Distance 28.55 km</desc>
<time>2011-03-24T15:31:33.31</time>
<name>965</name>
</trkpt>
<trkpt lat="49.425665" lon="9.437707">
<ele>358.5</ele>
<speed>69.4</speed>
<course>112.9</course>
<desc>Speed 69.4 km/h Distance 28.59 km</desc>
<time>2011-03-24T15:31:35.30</time>
<name>966</name>
</trkpt>
<trkpt lat="49.425532" lon="9.438192">
<ele>361.0</ele>
<speed>69.4</speed>
<course>119.3</course>
<desc>Speed 69.4 km/h Distance 28.63 km</desc>
<time>2011-03-24T15:31:37.29</time>
<name>967</name>
</trkpt>
<trkpt lat="49.425367" lon="9.438643">
<ele>362.5</ele>
<speed>68.6</speed>
<course>124.6</course>
<desc>Speed 68.6 km/h Distance 28.67 km</desc>
<time>2011-03-24T15:31:39.30</time>
<name>968</name>
</trkpt>
<trkpt lat="49.425172" lon="9.439078">
<ele>365.0</ele>
<speed>68.9</speed>
<course>131.3</course>
<desc>Speed 68.9 km/h Distance 28.70 km</desc>
<time>2011-03-24T15:31:41.29</time>
<name>969</name>
</trkpt>
<trkpt lat="49.424945" lon="9.439475">
<ele>367.0</ele>
<speed>69.0</speed>
<course>137.2</course>
<desc>Speed 69.0 km/h Distance 28.74 km</desc>
<time>2011-03-24T15:31:43.30</time>
<name>970</name>
</trkpt>
<trkpt lat="49.424693" lon="9.439833">
<ele>369.0</ele>
<speed>68.7</speed>
<course>141.4</course>
<desc>Speed 68.7 km/h Distance 28.78 km</desc>
<time>2011-03-24T15:31:45.29</time>
<name>971</name>
</trkpt>
<trkpt lat="49.424422" lon="9.440167">
<ele>373.5</ele>
<speed>69.4</speed>
<course>142.2</course>
<desc>Speed 69.4 km/h Distance 28.82 km</desc>
<time>2011-03-24T15:31:47.29</time>
<name>972</name>
</trkpt>
<trkpt lat="49.424138" lon="9.440505">
<ele>376.0</ele>
<speed>72.6</speed>
<course>142.8</course>
<desc>Speed 72.6 km/h Distance 28.86 km</desc>
<time>2011-03-24T15:31:49.29</time>
<name>973</name>
</trkpt>
<trkpt lat="49.423840" lon="9.440853">
<ele>379.5</ele>
<speed>75.6</speed>
<course>143.2</course>
<desc>Speed 75.6 km/h Distance 28.90 km</desc>
<time>2011-03-24T15:31:51.29</time>
<name>974</name>
</trkpt>
<trkpt lat="49.423520" lon="9.441222">
<ele>383.0</ele>
<speed>81.3</speed>
<course>141.3</course>
<desc>Speed 81.3 km/h Distance 28.95 km</desc>
<time>2011-03-24T15:31:53.29</time>
<name>975</name>
</trkpt>
<trkpt lat="49.423177" lon="9.441645">
<ele>387.0</ele>
<speed>91.3</speed>
<course>142.2</course>
<desc>Speed 91.3 km/h Distance 28.99 km</desc>
<time>2011-03-24T15:31:55.29</time>
<name>976</name>
</trkpt>
<trkpt lat="49.422775" lon="9.442123">
<ele>389.0</ele>
<speed>105</speed>
<course>143.9</course>
<desc>Speed 105 km/h Distance 29.05 km</desc>
<time>2011-03-24T15:31:57.29</time>
<name>977</name>
</trkpt>
<trkpt lat="49.422322" lon="9.442632">
<ele>391.5</ele>
<speed>112</speed>
<course>143.0</course>
<desc>Speed 112 km/h Distance 29.11 km</desc>
<time>2011-03-24T15:31:59.29</time>
<name>978</name>
</trkpt>
<trkpt lat="49.421863" lon="9.443163">
<ele>396.0</ele>
<speed>117</speed>
<course>142.0</course>
<desc>Speed 117 km/h Distance 29.18 km</desc>
<time>2011-03-24T15:32:01.28</time>
<name>979</name>
</trkpt>
<trkpt lat="49.421392" lon="9.443730">
<ele>396.5</ele>
<speed>120</speed>
<course>142.2</course>
<desc>Speed 120 km/h Distance 29.24 km</desc>
<time>2011-03-24T15:32:03.28</time>
<name>980</name>
</trkpt>
<trkpt lat="49.420908" lon="9.444307">
<ele>401.0</ele>
<speed>122</speed>
<course>142.8</course>
<desc>Speed 122 km/h Distance 29.31 km</desc>
<time>2011-03-24T15:32:05.28</time>
<name>981</name>
</trkpt>
<trkpt lat="49.420445" lon="9.444847">
<ele>402.0</ele>
<speed>115</speed>
<course>143.5</course>
<desc>Speed 115 km/h Distance 29.38 km</desc>
<time>2011-03-24T15:32:07.28</time>
<name>982</name>
</trkpt>
<trkpt lat="49.419990" lon="9.445363">
<ele>402.5</ele>
<speed>112</speed>
<course>144.4</course>
<desc>Speed 112 km/h Distance 29.44 km</desc>
<time>2011-03-24T15:32:09.29</time>
<name>983</name>
</trkpt>
<trkpt lat="49.419535" lon="9.445863">
<ele>404.5</ele>
<speed>113</speed>
<course>146.1</course>
<desc>Speed 113 km/h Distance 29.50 km</desc>
<time>2011-03-24T15:32:11.28</time>
<name>984</name>
</trkpt>
<trkpt lat="49.419067" lon="9.446347">
<ele>409.0</ele>
<speed>112</speed>
<course>152.1</course>
<desc>Speed 112 km/h Distance 29.56 km</desc>
<time>2011-03-24T15:32:13.28</time>
<name>985</name>
</trkpt>
<trkpt lat="49.418598" lon="9.446728">
<ele>411.0</ele>
<speed>99.6</speed>
<course>148.8</course>
<desc>Speed 99.6 km/h Distance 29.62 km</desc>
<time>2011-03-24T15:32:15.28</time>
<name>986</name>
</trkpt>
<trkpt lat="49.418202" lon="9.447098">
<ele>412.5</ele>
<speed>91.3</speed>
<course>143.8</course>
<desc>Speed 91.3 km/h Distance 29.68 km</desc>
<time>2011-03-24T15:32:17.27</time>
<name>987</name>
</trkpt>
<trkpt lat="49.417877" lon="9.447463">
<ele>413.0</ele>
<speed>80.2</speed>
<course>140.1</course>
<desc>Speed 80.2 km/h Distance 29.72 km</desc>
<time>2011-03-24T15:32:19.28</time>
<name>988</name>
</trkpt>
<trkpt lat="49.417572" lon="9.447855">
<ele>413.5</ele>
<speed>80.1</speed>
<course>140.1</course>
<desc>Speed 80.1 km/h Distance 29.76 km</desc>
<time>2011-03-24T15:32:21.27</time>
<name>989</name>
</trkpt>
<trkpt lat="49.417250" lon="9.448268">
<ele>412.5</ele>
<speed>84.2</speed>
<course>147.5</course>
<desc>Speed 84.2 km/h Distance 29.81 km</desc>
<time>2011-03-24T15:32:23.28</time>
<name>990</name>
</trkpt>
<trkpt lat="49.416910" lon="9.448602">
<ele>412.0</ele>
<speed>77.1</speed>
<course>162.1</course>
<desc>Speed 77.1 km/h Distance 29.86 km</desc>
<time>2011-03-24T15:32:25.27</time>
<name>991</name>
</trkpt>
<trkpt lat="49.416622" lon="9.448745">
<ele>411.5</ele>
<speed>50.9</speed>
<course>174.2</course>
<desc>Speed 50.9 km/h Distance 29.89 km</desc>
<time>2011-03-24T15:32:27.28</time>
<name>992</name>
</trkpt>
<trkpt lat="49.416387" lon="9.448782">
<ele>413.0</ele>
<speed>45.0</speed>
<course>169.3</course>
<desc>Speed 45.0 km/h Distance 29.92 km</desc>
<time>2011-03-24T15:32:29.28</time>
<name>993</name>
</trkpt>
<trkpt lat="49.416267" lon="9.448817">
<ele>414.5</ele>
<speed>18.5</speed>
<course>129.9</course>
<desc>Speed 18.5 km/h Distance 29.93 km</desc>
<time>2011-03-24T15:32:31.27</time>
<name>994</name>
</trkpt>
<trkpt lat="49.416185" lon="9.448967">
<ele>414.0</ele>
<speed>27.8</speed>
<course>93.0</course>
<desc>Speed 27.8 km/h Distance 29.94 km</desc>
<time>2011-03-24T15:32:33.27</time>
<name>995</name>
</trkpt>
<trkpt lat="49.416162" lon="9.449648">
<ele>415.0</ele>
<speed>70.4</speed>
<course>98.3</course>
<desc>Speed 70.4 km/h Distance 29.99 km</desc>
<time>2011-03-24T15:32:36.28</time>
<name>996</name>
</trkpt>
<trkpt lat="49.416100" lon="9.450300">
<ele>415.5</ele>
<speed>94.5</speed>
<course>104.4</course>
<desc>Speed 94.5 km/h Distance 30.04 km</desc>
<time>2011-03-24T15:32:38.27</time>
<name>997</name>
</trkpt>
<trkpt lat="49.415963" lon="9.451120">
<ele>416.0</ele>
<speed>114</speed>
<course>112.2</course>
<desc>Speed 114 km/h Distance 30.10 km</desc>
<time>2011-03-24T15:32:40.27</time>
<name>998</name>
</trkpt>
<trkpt lat="49.415738" lon="9.451968">
<ele>416.0</ele>
<speed>123</speed>
<course>117.2</course>
<desc>Speed 123 km/h Distance 30.17 km</desc>
<time>2011-03-24T15:32:42.26</time>
<name>999</name>
</trkpt>
<trkpt lat="49.415463" lon="9.452790">
<ele>415.0</ele>
<speed>118</speed>
<course>123.8</course>
<desc>Speed 118 km/h Distance 30.24 km</desc>
<time>2011-03-24T15:32:44.27</time>
<name>1000</name>
</trkpt>
<trkpt lat="49.415110" lon="9.453600">
<ele>412.5</ele>
<speed>132</speed>
<course>129.4</course>
<desc>Speed 132 km/h Distance 30.31 km</desc>
<time>2011-03-24T15:32:46.28</time>
<name>1001</name>
</trkpt>
<trkpt lat="49.414685" lon="9.454397">
<ele>411.0</ele>
<speed>131</speed>
<course>129.9</course>
<desc>Speed 131 km/h Distance 30.38 km</desc>
<time>2011-03-24T15:32:48.26</time>
<name>1002</name>
</trkpt>
<trkpt lat="49.414297" lon="9.455112">
<ele>411.0</ele>
<speed>117</speed>
<course>129.1</course>
<desc>Speed 117 km/h Distance 30.45 km</desc>
<time>2011-03-24T15:32:50.26</time>
<name>1003</name>
</trkpt>
<trkpt lat="49.413953" lon="9.455762">
<ele>409.5</ele>
<speed>106</speed>
<course>129.1</course>
<desc>Speed 106 km/h Distance 30.51 km</desc>
<time>2011-03-24T15:32:52.27</time>
<name>1004</name>
</trkpt>
<trkpt lat="49.413645" lon="9.456345">
<ele>408.5</ele>
<speed>94.4</speed>
<course>130.0</course>
<desc>Speed 94.4 km/h Distance 30.56 km</desc>
<time>2011-03-24T15:32:55.95</time>
<name>1005</name>
</trkpt>
<trkpt lat="49.413220" lon="9.457123">
<ele>408.0</ele>
<speed>82.1</speed>
<course>129.6</course>
<desc>Speed 82.1 km/h Distance 30.64 km</desc>
<time>2011-03-24T15:32:58.24</time>
<name>1006</name>
</trkpt>
<trkpt lat="49.412978" lon="9.457572">
<ele>407.5</ele>
<speed>74.1</speed>
<course>128.0</course>
<desc>Speed 74.1 km/h Distance 30.68 km</desc>
<time>2011-03-24T15:33:00.24</time>
<name>1007</name>
</trkpt>
<trkpt lat="49.412793" lon="9.457935">
<ele>407.5</ele>
<speed>54.5</speed>
<course>139.5</course>
<desc>Speed 54.5 km/h Distance 30.71 km</desc>
<time>2011-03-24T15:33:02.24</time>
<name>1008</name>
</trkpt>
<trkpt lat="49.412655" lon="9.458117">
<ele>407.0</ele>
<speed>26.8</speed>
<course>191.3</course>
<desc>Speed 26.8 km/h Distance 30.73 km</desc>
<time>2011-03-24T15:33:04.24</time>
<name>1009</name>
</trkpt>
<trkpt lat="49.412525" lon="9.458077">
<ele>408.5</ele>
<speed>31.5</speed>
<course>232.8</course>
<desc>Speed 31.5 km/h Distance 30.75 km</desc>
<time>2011-03-24T15:33:06.24</time>
<name>1010</name>
</trkpt>
<trkpt lat="49.412398" lon="9.457820">
<ele>408.0</ele>
<speed>40.2</speed>
<course>242.3</course>
<desc>Speed 40.2 km/h Distance 30.77 km</desc>
<time>2011-03-24T15:33:08.24</time>
<name>1011</name>
</trkpt>
<trkpt lat="49.412283" lon="9.457483">
<ele>408.0</ele>
<speed>55.2</speed>
<course>237.7</course>
<desc>Speed 55.2 km/h Distance 30.80 km</desc>
<time>2011-03-24T15:33:10.24</time>
<name>1012</name>
</trkpt>
<trkpt lat="49.412085" lon="9.457002">
<ele>406.0</ele>
<speed>78.9</speed>
<course>235.3</course>
<desc>Speed 78.9 km/h Distance 30.84 km</desc>
<time>2011-03-24T15:33:12.23</time>
<name>1013</name>
</trkpt>
<trkpt lat="49.411833" lon="9.456443">
<ele>405.5</ele>
<speed>88.4</speed>
<course>234.2</course>
<desc>Speed 88.4 km/h Distance 30.89 km</desc>
<time>2011-03-24T15:33:14.23</time>
<name>1014</name>
</trkpt>
<trkpt lat="49.411597" lon="9.455938">
<ele>405.0</ele>
<speed>80.0</speed>
<course>232.7</course>
<desc>Speed 80.0 km/h Distance 30.93 km</desc>
<time>2011-03-24T15:33:16.23</time>
<name>1015</name>
</trkpt>
<trkpt lat="49.411373" lon="9.455488">
<ele>405.0</ele>
<speed>73.3</speed>
<course>233.3</course>
<desc>Speed 73.3 km/h Distance 30.97 km</desc>
<time>2011-03-24T15:33:18.23</time>
<name>1016</name>
</trkpt>
<trkpt lat="49.411157" lon="9.455042">
<ele>404.5</ele>
<speed>71.5</speed>
<course>232.1</course>
<desc>Speed 71.5 km/h Distance 31.02 km</desc>
<time>2011-03-24T15:33:20.23</time>
<name>1017</name>
</trkpt>
<trkpt lat="49.410942" lon="9.454617">
<ele>403.5</ele>
<speed>69.2</speed>
<course>237.0</course>
<desc>Speed 69.2 km/h Distance 31.05 km</desc>
<time>2011-03-24T15:33:22.22</time>
<name>1018</name>
</trkpt>
<trkpt lat="49.410750" lon="9.454163">
<ele>402.5</ele>
<speed>63.1</speed>
<course>256.6</course>
<desc>Speed 63.1 km/h Distance 31.09 km</desc>
<time>2011-03-24T15:33:24.22</time>
<name>1019</name>
</trkpt>
<trkpt lat="49.410677" lon="9.453692">
<ele>401.5</ele>
<speed>65.0</speed>
<course>271.7</course>
<desc>Speed 65.0 km/h Distance 31.13 km</desc>
<time>2011-03-24T15:33:26.22</time>
<name>1020</name>
</trkpt>
<trkpt lat="49.410688" lon="9.453100">
<ele>401.0</ele>
<speed>77.1</speed>
<course>275.8</course>
<desc>Speed 77.1 km/h Distance 31.17 km</desc>
<time>2011-03-24T15:33:28.22</time>
<name>1021</name>
</trkpt>
<trkpt lat="49.410732" lon="9.452440">
<ele>402.5</ele>
<speed>85.3</speed>
<course>275.8</course>
<desc>Speed 85.3 km/h Distance 31.22 km</desc>
<time>2011-03-24T15:33:30.22</time>
<name>1022</name>
</trkpt>
<trkpt lat="49.410778" lon="9.451735">
<ele>403.5</ele>
<speed>90.3</speed>
<course>277.7</course>
<desc>Speed 90.3 km/h Distance 31.27 km</desc>
<time>2011-03-24T15:33:32.22</time>
<name>1023</name>
</trkpt>
<trkpt lat="49.410838" lon="9.451050">
<ele>404.5</ele>
<speed>90.5</speed>
<course>278.5</course>
<desc>Speed 90.5 km/h Distance 31.32 km</desc>
<time>2011-03-24T15:33:34.22</time>
<name>1024</name>
</trkpt>
<trkpt lat="49.410912" lon="9.450295">
<ele>404.5</ele>
<speed>99.7</speed>
<course>278.6</course>
<desc>Speed 99.7 km/h Distance 31.38 km</desc>
<time>2011-03-24T15:33:36.22</time>
<name>1025</name>
</trkpt>
<trkpt lat="49.410985" lon="9.449553">
<ele>406.0</ele>
<speed>96.5</speed>
<course>277.9</course>
<desc>Speed 96.5 km/h Distance 31.43 km</desc>
<time>2011-03-24T15:33:38.22</time>
<name>1026</name>
</trkpt>
<trkpt lat="49.411052" lon="9.448817">
<ele>407.0</ele>
<speed>96.4</speed>
<course>277.6</course>
<desc>Speed 96.4 km/h Distance 31.48 km</desc>
<time>2011-03-24T15:33:40.22</time>
<name>1027</name>
</trkpt>
<trkpt lat="49.411117" lon="9.448072">
<ele>408.5</ele>
<speed>97.5</speed>
<course>278.7</course>
<desc>Speed 97.5 km/h Distance 31.54 km</desc>
<time>2011-03-24T15:33:42.21</time>
<name>1028</name>
</trkpt>
<trkpt lat="49.411192" lon="9.447322">
<ele>409.5</ele>
<speed>98.7</speed>
<course>277.5</course>
<desc>Speed 98.7 km/h Distance 31.59 km</desc>
<time>2011-03-24T15:33:44.21</time>
<name>1029</name>
</trkpt>
<trkpt lat="49.411257" lon="9.446565">
<ele>411.5</ele>
<speed>99.6</speed>
<course>277.8</course>
<desc>Speed 99.6 km/h Distance 31.65 km</desc>
<time>2011-03-24T15:33:46.21</time>
<name>1030</name>
</trkpt>
<trkpt lat="49.411325" lon="9.445802">
<ele>413.0</ele>
<speed>100</speed>
<course>278.6</course>
<desc>Speed 100 km/h Distance 31.70 km</desc>
<time>2011-03-24T15:33:48.21</time>
<name>1031</name>
</trkpt>
<trkpt lat="49.411400" lon="9.445035">
<ele>415.0</ele>
<speed>100</speed>
<course>279.2</course>
<desc>Speed 100 km/h Distance 31.76 km</desc>
<time>2011-03-24T15:33:50.22</time>
<name>1032</name>
</trkpt>
<trkpt lat="49.411478" lon="9.444288">
<ele>416.5</ele>
<speed>97.2</speed>
<course>278.3</course>
<desc>Speed 97.2 km/h Distance 31.82 km</desc>
<time>2011-03-24T15:33:52.21</time>
<name>1033</name>
</trkpt>
<trkpt lat="49.411543" lon="9.443607">
<ele>417.5</ele>
<speed>86.8</speed>
<course>271.1</course>
<desc>Speed 86.8 km/h Distance 31.87 km</desc>
<time>2011-03-24T15:33:54.21</time>
<name>1034</name>
</trkpt>
<trkpt lat="49.411552" lon="9.442965">
<ele>418.5</ele>
<speed>81.3</speed>
<course>262.1</course>
<desc>Speed 81.3 km/h Distance 31.91 km</desc>
<time>2011-03-24T15:33:56.21</time>
<name>1035</name>
</trkpt>
<trkpt lat="49.411495" lon="9.442337">
<ele>416.5</ele>
<speed>87.0</speed>
<course>249.7</course>
<desc>Speed 87.0 km/h Distance 31.96 km</desc>
<time>2011-03-24T15:33:58.21</time>
<name>1036</name>
</trkpt>
<trkpt lat="49.411347" lon="9.441722">
<ele>417.0</ele>
<speed>85.6</speed>
<course>239.2</course>
<desc>Speed 85.6 km/h Distance 32.01 km</desc>
<time>2011-03-24T15:34:00.20</time>
<name>1037</name>
</trkpt>
<trkpt lat="49.411235" lon="9.441433">
<ele>417.0</ele>
<speed>87.7</speed>
<course>237.4</course>
<desc>Speed 87.7 km/h Distance 32.03 km</desc>
<time>2011-03-24T15:34:01.21</time>
<name>1038</name>
</trkpt>
<trkpt lat="49.410998" lon="9.440865">
<ele>418.0</ele>
<speed>87.7</speed>
<course>230.9</course>
<desc>Speed 87.7 km/h Distance 32.08 km</desc>
<time>2011-03-24T15:34:03.21</time>
<name>1039</name>
</trkpt>
<trkpt lat="49.410875" lon="9.440632">
<ele>418.0</ele>
<speed>78.8</speed>
<course>230.7</course>
<desc>Speed 78.8 km/h Distance 32.10 km</desc>
<time>2011-03-24T15:34:04.21</time>
<name>1040</name>
</trkpt>
<trkpt lat="49.410628" lon="9.440168">
<ele>418.0</ele>
<speed>78.7</speed>
<course>228.0</course>
<desc>Speed 78.7 km/h Distance 32.14 km</desc>
<time>2011-03-24T15:34:06.21</time>
<name>1041</name>
</trkpt>
<trkpt lat="49.410353" lon="9.439698">
<ele>418.5</ele>
<speed>82.9</speed>
<course>227.3</course>
<desc>Speed 82.9 km/h Distance 32.19 km</desc>
<time>2011-03-24T15:34:08.20</time>
<name>1042</name>
</trkpt>
<trkpt lat="49.410210" lon="9.439460">
<ele>418.5</ele>
<speed>84.7</speed>
<course>227.5</course>
<desc>Speed 84.7 km/h Distance 32.21 km</desc>
<time>2011-03-24T15:34:09.20</time>
<name>1043</name>
</trkpt>
<trkpt lat="49.410075" lon="9.439233">
<ele>418.0</ele>
<speed>80.6</speed>
<course>227.5</course>
<desc>Speed 80.6 km/h Distance 32.24 km</desc>
<time>2011-03-24T15:34:10.21</time>
<name>1044</name>
</trkpt>
<trkpt lat="49.409947" lon="9.439018">
<ele>417.0</ele>
<speed>78.8</speed>
<course>226.6</course>
<desc>Speed 78.8 km/h Distance 32.26 km</desc>
<time>2011-03-24T15:34:11.21</time>
<name>1045</name>
</trkpt>
<trkpt lat="49.409822" lon="9.438815">
<ele>415.0</ele>
<speed>73.6</speed>
<course>225.6</course>
<desc>Speed 73.6 km/h Distance 32.28 km</desc>
<time>2011-03-24T15:34:12.21</time>
<name>1046</name>
</trkpt>
<trkpt lat="49.409565" lon="9.438412">
<ele>415.0</ele>
<speed>73.4</speed>
<course>236.8</course>
<desc>Speed 73.4 km/h Distance 32.32 km</desc>
<time>2011-03-24T15:34:14.20</time>
<name>1047</name>
</trkpt>
<trkpt lat="49.409480" lon="9.438212">
<ele>414.5</ele>
<speed>63.1</speed>
<course>244.8</course>
<desc>Speed 63.1 km/h Distance 32.33 km</desc>
<time>2011-03-24T15:34:15.21</time>
<name>1048</name>
</trkpt>
<trkpt lat="49.409378" lon="9.437880">
<ele>414.0</ele>
<speed>63.1</speed>
<course>247.6</course>
<desc>Speed 63.1 km/h Distance 32.36 km</desc>
<time>2011-03-24T15:34:17.20</time>
<name>1049</name>
</trkpt>
<trkpt lat="49.409295" lon="9.437570">
<ele>413.5</ele>
<speed>63.1</speed>
<course>262.8</course>
<desc>Speed 63.1 km/h Distance 32.39 km</desc>
<time>2011-03-24T15:34:20.19</time>
<name>1050</name>
</trkpt>
<trkpt lat="49.409270" lon="9.437267">
<ele>410.5</ele>
<speed>63.1</speed>
<course>272.9</course>
<desc>Speed 63.1 km/h Distance 32.41 km</desc>
<time>2011-03-24T15:34:23.19</time>
<name>1051</name>
</trkpt>
<trkpt lat="49.409285" lon="9.436807">
<ele>414.5</ele>
<speed>76.7</speed>
<course>269.4</course>
<desc>Speed 76.7 km/h Distance 32.44 km</desc>
<time>2011-03-24T15:34:25.20</time>
<name>1052</name>
</trkpt>
<trkpt lat="49.409280" lon="9.436102">
<ele>421.0</ele>
<speed>74.6</speed>
<course>259.0</course>
<desc>Speed 74.6 km/h Distance 32.49 km</desc>
<time>2011-03-24T15:34:27.20</time>
<name>1053</name>
</trkpt>
<trkpt lat="49.409188" lon="9.435377">
<ele>428.5</ele>
<speed>77.4</speed>
<course>256.2</course>
<desc>Speed 77.4 km/h Distance 32.55 km</desc>
<time>2011-03-24T15:34:29.20</time>
<name>1054</name>
</trkpt>
<trkpt lat="49.409078" lon="9.434690">
<ele>428.5</ele>
<speed>78.5</speed>
<course>249.7</course>
<desc>Speed 78.5 km/h Distance 32.60 km</desc>
<time>2011-03-24T15:34:31.20</time>
<name>1055</name>
</trkpt>
<trkpt lat="49.409003" lon="9.434378">
<ele>427.5</ele>
<speed>82.9</speed>
<course>250.0</course>
<desc>Speed 82.9 km/h Distance 32.62 km</desc>
<time>2011-03-24T15:34:32.19</time>
<name>1056</name>
</trkpt>
<trkpt lat="49.408928" lon="9.434062">
<ele>427.0</ele>
<speed>81.6</speed>
<course>247.9</course>
<desc>Speed 81.6 km/h Distance 32.65 km</desc>
<time>2011-03-24T15:34:33.19</time>
<name>1057</name>
</trkpt>
<trkpt lat="49.408840" lon="9.433727">
<ele>428.0</ele>
<speed>84.9</speed>
<course>249.5</course>
<desc>Speed 84.9 km/h Distance 32.67 km</desc>
<time>2011-03-24T15:34:34.19</time>
<name>1058</name>
</trkpt>
<trkpt lat="49.408763" lon="9.433412">
<ele>427.5</ele>
<speed>85.0</speed>
<course>246.3</course>
<desc>Speed 85.0 km/h Distance 32.70 km</desc>
<time>2011-03-24T15:34:35.19</time>
<name>1059</name>
</trkpt>
<trkpt lat="49.408677" lon="9.433108">
<ele>428.5</ele>
<speed>77.8</speed>
<course>247.5</course>
<desc>Speed 77.8 km/h Distance 32.72 km</desc>
<time>2011-03-24T15:34:36.19</time>
<name>1060</name>
</trkpt>
<trkpt lat="49.408590" lon="9.432787">
<ele>423.0</ele>
<speed>83.5</speed>
<course>245.7</course>
<desc>Speed 83.5 km/h Distance 32.75 km</desc>
<time>2011-03-24T15:34:37.19</time>
<name>1061</name>
</trkpt>
<trkpt lat="49.408503" lon="9.432492">
<ele>418.5</ele>
<speed>78.7</speed>
<course>246.1</course>
<desc>Speed 78.7 km/h Distance 32.77 km</desc>
<time>2011-03-24T15:34:38.19</time>
<name>1062</name>
</trkpt>
<trkpt lat="49.408422" lon="9.432208">
<ele>418.0</ele>
<speed>79.4</speed>
<course>246.8</course>
<desc>Speed 79.4 km/h Distance 32.79 km</desc>
<time>2011-03-24T15:34:39.19</time>
<name>1063</name>
</trkpt>
<trkpt lat="49.408342" lon="9.431922">
<ele>417.5</ele>
<speed>79.0</speed>
<course>249.1</course>
<desc>Speed 79.0 km/h Distance 32.81 km</desc>
<time>2011-03-24T15:34:40.19</time>
<name>1064</name>
</trkpt>
<trkpt lat="49.408270" lon="9.431633">
<ele>415.0</ele>
<speed>78.2</speed>
<course>248.5</course>
<desc>Speed 78.2 km/h Distance 32.84 km</desc>
<time>2011-03-24T15:34:41.19</time>
<name>1065</name>
</trkpt>
<trkpt lat="49.408190" lon="9.431322">
<ele>416.0</ele>
<speed>82.9</speed>
<course>254.2</course>
<desc>Speed 82.9 km/h Distance 32.86 km</desc>
<time>2011-03-24T15:34:42.19</time>
<name>1066</name>
</trkpt>
<trkpt lat="49.408127" lon="9.430978">
<ele>414.5</ele>
<speed>84.9</speed>
<course>254.6</course>
<desc>Speed 84.9 km/h Distance 32.89 km</desc>
<time>2011-03-24T15:34:43.19</time>
<name>1067</name>
</trkpt>
<trkpt lat="49.408068" lon="9.430653">
<ele>412.5</ele>
<speed>81.0</speed>
<course>258.7</course>
<desc>Speed 81.0 km/h Distance 32.91 km</desc>
<time>2011-03-24T15:34:44.19</time>
<name>1068</name>
</trkpt>
<trkpt lat="49.408025" lon="9.430320">
<ele>408.5</ele>
<speed>80.9</speed>
<course>259.3</course>
<desc>Speed 80.9 km/h Distance 32.94 km</desc>
<time>2011-03-24T15:34:45.19</time>
<name>1069</name>
</trkpt>
<trkpt lat="49.407985" lon="9.429995">
<ele>404.5</ele>
<speed>78.4</speed>
<course>254.9</course>
<desc>Speed 78.4 km/h Distance 32.96 km</desc>
<time>2011-03-24T15:34:46.18</time>
<name>1070</name>
</trkpt>
<trkpt lat="49.407933" lon="9.429702">
<ele>403.5</ele>
<speed>75.5</speed>
<course>254.5</course>
<desc>Speed 75.5 km/h Distance 32.98 km</desc>
<time>2011-03-24T15:34:47.18</time>
<name>1071</name>
</trkpt>
<trkpt lat="49.407882" lon="9.429415">
<ele>401.5</ele>
<speed>73.2</speed>
<course>252.7</course>
<desc>Speed 73.2 km/h Distance 33.00 km</desc>
<time>2011-03-24T15:34:48.18</time>
<name>1072</name>
</trkpt>
<trkpt lat="49.407827" lon="9.429143">
<ele>400.0</ele>
<speed>69.4</speed>
<course>253.5</course>
<desc>Speed 69.4 km/h Distance 33.02 km</desc>
<time>2011-03-24T15:34:49.18</time>
<name>1073</name>
</trkpt>
<trkpt lat="49.407782" lon="9.428910">
<ele>399.0</ele>
<speed>62.5</speed>
<course>245.9</course>
<desc>Speed 62.5 km/h Distance 33.04 km</desc>
<time>2011-03-24T15:34:50.19</time>
<name>1074</name>
</trkpt>
<trkpt lat="49.407720" lon="9.428698">
<ele>400.0</ele>
<speed>53.7</speed>
<course>246.1</course>
<desc>Speed 53.7 km/h Distance 33.06 km</desc>
<time>2011-03-24T15:34:51.18</time>
<name>1075</name>
</trkpt>
<trkpt lat="49.407670" lon="9.428525">
<ele>398.5</ele>
<speed>47.7</speed>
<course>244.5</course>
<desc>Speed 47.7 km/h Distance 33.07 km</desc>
<time>2011-03-24T15:34:52.18</time>
<name>1076</name>
</trkpt>
<trkpt lat="49.407618" lon="9.428358">
<ele>397.0</ele>
<speed>47.7</speed>
<course>244.5</course>
<desc>Speed 47.7 km/h Distance 33.08 km</desc>
<time>2011-03-24T15:34:53.17</time>
<name>1077</name>
</trkpt>
<trkpt lat="49.407567" lon="9.428192">
<ele>395.5</ele>
<speed>49.3</speed>
<course>247.3</course>
<desc>Speed 49.3 km/h Distance 33.10 km</desc>
<time>2011-03-24T15:34:54.17</time>
<name>1078</name>
</trkpt>
<trkpt lat="49.407515" lon="9.428002">
<ele>393.5</ele>
<speed>52.2</speed>
<course>256.2</course>
<desc>Speed 52.2 km/h Distance 33.11 km</desc>
<time>2011-03-24T15:34:55.18</time>
<name>1079</name>
</trkpt>
<trkpt lat="49.407478" lon="9.427772">
<ele>392.0</ele>
<speed>60.9</speed>
<course>256.3</course>
<desc>Speed 60.9 km/h Distance 33.13 km</desc>
<time>2011-03-24T15:34:56.18</time>
<name>1080</name>
</trkpt>
<trkpt lat="49.407440" lon="9.427530">
<ele>392.0</ele>
<speed>64.2</speed>
<course>258.4</course>
<desc>Speed 64.2 km/h Distance 33.15 km</desc>
<time>2011-03-24T15:34:57.17</time>
<name>1081</name>
</trkpt>
<trkpt lat="49.407410" lon="9.427305">
<ele>390.5</ele>
<speed>59.8</speed>
<course>256.0</course>
<desc>Speed 59.8 km/h Distance 33.16 km</desc>
<time>2011-03-24T15:34:58.17</time>
<name>1082</name>
</trkpt>
<trkpt lat="49.407375" lon="9.427090">
<ele>389.0</ele>
<speed>57.5</speed>
<course>247.5</course>
<desc>Speed 57.5 km/h Distance 33.18 km</desc>
<time>2011-03-24T15:34:59.18</time>
<name>1083</name>
</trkpt>
<trkpt lat="49.407323" lon="9.426898">
<ele>387.5</ele>
<speed>55.7</speed>
<course>235.2</course>
<desc>Speed 55.7 km/h Distance 33.20 km</desc>
<time>2011-03-24T15:35:00.17</time>
<name>1084</name>
</trkpt>
<trkpt lat="49.407243" lon="9.426722">
<ele>386.5</ele>
<speed>56.5</speed>
<course>227.7</course>
<desc>Speed 56.5 km/h Distance 33.21 km</desc>
<time>2011-03-24T15:35:01.17</time>
<name>1085</name>
</trkpt>
<trkpt lat="49.407158" lon="9.426578">
<ele>385.0</ele>
<speed>50.7</speed>
<course>221.3</course>
<desc>Speed 50.7 km/h Distance 33.23 km</desc>
<time>2011-03-24T15:35:02.17</time>
<name>1086</name>
</trkpt>
<trkpt lat="49.407053" lon="9.426437">
<ele>384.0</ele>
<speed>56.7</speed>
<course>220.0</course>
<desc>Speed 56.7 km/h Distance 33.24 km</desc>
<time>2011-03-24T15:35:03.17</time>
<name>1087</name>
</trkpt>
<trkpt lat="49.406955" lon="9.426310">
<ele>382.0</ele>
<speed>53.9</speed>
<course>217.5</course>
<desc>Speed 53.9 km/h Distance 33.26 km</desc>
<time>2011-03-24T15:35:04.17</time>
<name>1088</name>
</trkpt>
<trkpt lat="49.406852" lon="9.426188">
<ele>380.0</ele>
<speed>54.5</speed>
<course>214.7</course>
<desc>Speed 54.5 km/h Distance 33.27 km</desc>
<time>2011-03-24T15:35:05.17</time>
<name>1089</name>
</trkpt>
<trkpt lat="49.406745" lon="9.426075">
<ele>378.5</ele>
<speed>55.0</speed>
<course>213.0</course>
<desc>Speed 55.0 km/h Distance 33.28 km</desc>
<time>2011-03-24T15:35:06.17</time>
<name>1090</name>
</trkpt>
<trkpt lat="49.406638" lon="9.425968">
<ele>377.0</ele>
<speed>53.3</speed>
<course>213.5</course>
<desc>Speed 53.3 km/h Distance 33.30 km</desc>
<time>2011-03-24T15:35:07.16</time>
<name>1091</name>
</trkpt>
<trkpt lat="49.406537" lon="9.425865">
<ele>375.0</ele>
<speed>51.3</speed>
<course>203.9</course>
<desc>Speed 51.3 km/h Distance 33.31 km</desc>
<time>2011-03-24T15:35:08.17</time>
<name>1092</name>
</trkpt>
<trkpt lat="49.406427" lon="9.425790">
<ele>375.0</ele>
<speed>49.3</speed>
<course>208.6</course>
<desc>Speed 49.3 km/h Distance 33.33 km</desc>
<time>2011-03-24T15:35:09.16</time>
<name>1093</name>
</trkpt>
<trkpt lat="49.406335" lon="9.425713">
<ele>374.5</ele>
<speed>42.7</speed>
<course>216.4</course>
<desc>Speed 42.7 km/h Distance 33.34 km</desc>
<time>2011-03-24T15:35:10.16</time>
<name>1094</name>
</trkpt>
<trkpt lat="49.406247" lon="9.425613">
<ele>374.0</ele>
<speed>44.3</speed>
<course>229.5</course>
<desc>Speed 44.3 km/h Distance 33.35 km</desc>
<time>2011-03-24T15:35:11.17</time>
<name>1095</name>
</trkpt>
<trkpt lat="49.406148" lon="9.425437">
<ele>373.5</ele>
<speed>33.2</speed>
<course>218.7</course>
<desc>Speed 33.2 km/h Distance 33.37 km</desc>
<time>2011-03-24T15:35:13.16</time>
<name>1096</name>
</trkpt>
<trkpt lat="49.406083" lon="9.425357">
<ele>373.0</ele>
<speed>33.0</speed>
<course>203.1</course>
<desc>Speed 33.0 km/h Distance 33.38 km</desc>
<time>2011-03-24T15:35:14.16</time>
<name>1097</name>
</trkpt>
<trkpt lat="49.405982" lon="9.425290">
<ele>373.0</ele>
<speed>44.9</speed>
<course>190.1</course>
<desc>Speed 44.9 km/h Distance 33.39 km</desc>
<time>2011-03-24T15:35:15.16</time>
<name>1098</name>
</trkpt>
<trkpt lat="49.405890" lon="9.425265">
<ele>372.5</ele>
<speed>37.3</speed>
<course>183.2</course>
<desc>Speed 37.3 km/h Distance 33.40 km</desc>
<time>2011-03-24T15:35:16.17</time>
<name>1099</name>
</trkpt>
<trkpt lat="49.405792" lon="9.425257">
<ele>372.5</ele>
<speed>39.2</speed>
<course>178.5</course>
<desc>Speed 39.2 km/h Distance 33.41 km</desc>
<time>2011-03-24T15:35:17.17</time>
<name>1100</name>
</trkpt>
<trkpt lat="49.405702" lon="9.425260">
<ele>372.0</ele>
<speed>37.7</speed>
<course>167.5</course>
<desc>Speed 37.7 km/h Distance 33.42 km</desc>
<time>2011-03-24T15:35:18.17</time>
<name>1101</name>
</trkpt>
<trkpt lat="49.405603" lon="9.425293">
<ele>371.5</ele>
<speed>40.2</speed>
<course>164.8</course>
<desc>Speed 40.2 km/h Distance 33.43 km</desc>
<time>2011-03-24T15:35:19.16</time>
<name>1102</name>
</trkpt>
<trkpt lat="49.405480" lon="9.425345">
<ele>371.5</ele>
<speed>51.0</speed>
<course>167.1</course>
<desc>Speed 51.0 km/h Distance 33.44 km</desc>
<time>2011-03-24T15:35:20.16</time>
<name>1103</name>
</trkpt>
<trkpt lat="49.405385" lon="9.425378">
<ele>372.0</ele>
<speed>39.2</speed>
<course>173.6</course>
<desc>Speed 39.2 km/h Distance 33.46 km</desc>
<time>2011-03-24T15:35:21.16</time>
<name>1104</name>
</trkpt>
<trkpt lat="49.405278" lon="9.425397">
<ele>373.5</ele>
<speed>43.5</speed>
<course>185.2</course>
<desc>Speed 43.5 km/h Distance 33.47 km</desc>
<time>2011-03-24T15:35:22.15</time>
<name>1105</name>
</trkpt>
<trkpt lat="49.405172" lon="9.425382">
<ele>373.0</ele>
<speed>43.8</speed>
<course>188.3</course>
<desc>Speed 43.8 km/h Distance 33.48 km</desc>
<time>2011-03-24T15:35:23.15</time>
<name>1106</name>
</trkpt>
<trkpt lat="49.405060" lon="9.425357">
<ele>373.0</ele>
<speed>45.5</speed>
<course>192.2</course>
<desc>Speed 45.5 km/h Distance 33.49 km</desc>
<time>2011-03-24T15:35:24.15</time>
<name>1107</name>
</trkpt>
<trkpt lat="49.404950" lon="9.425320">
<ele>373.0</ele>
<speed>46.0</speed>
<course>193.4</course>
<desc>Speed 46.0 km/h Distance 33.50 km</desc>
<time>2011-03-24T15:35:25.16</time>
<name>1108</name>
</trkpt>
<trkpt lat="49.404845" lon="9.425282">
<ele>372.0</ele>
<speed>43.6</speed>
<course>184.5</course>
<desc>Speed 43.6 km/h Distance 33.52 km</desc>
<time>2011-03-24T15:35:26.16</time>
<name>1109</name>
</trkpt>
<trkpt lat="49.404748" lon="9.425270">
<ele>370.0</ele>
<speed>40.4</speed>
<course>183.2</course>
<desc>Speed 40.4 km/h Distance 33.53 km</desc>
<time>2011-03-24T15:35:27.15</time>
<name>1110</name>
</trkpt>
<trkpt lat="49.404650" lon="9.425262">
<ele>370.5</ele>
<speed>40.4</speed>
<course>175.7</course>
<desc>Speed 40.4 km/h Distance 33.54 km</desc>
<time>2011-03-24T15:35:28.15</time>
<name>1111</name>
</trkpt>
<trkpt lat="49.404563" lon="9.425272">
<ele>370.0</ele>
<speed>35.4</speed>
<course>174.6</course>
<desc>Speed 35.4 km/h Distance 33.55 km</desc>
<time>2011-03-24T15:35:29.14</time>
<name>1112</name>
</trkpt>
<trkpt lat="49.404472" lon="9.425285">
<ele>369.0</ele>
<speed>37.2</speed>
<course>169.2</course>
<desc>Speed 37.2 km/h Distance 33.56 km</desc>
<time>2011-03-24T15:35:30.14</time>
<name>1113</name>
</trkpt>
<trkpt lat="49.404347" lon="9.425322">
<ele>369.0</ele>
<speed>51.1</speed>
<course>155.8</course>
<desc>Speed 51.1 km/h Distance 33.57 km</desc>
<time>2011-03-24T15:35:31.14</time>
<name>1114</name>
</trkpt>
<trkpt lat="49.404228" lon="9.425403">
<ele>369.0</ele>
<speed>52.5</speed>
<course>149.9</course>
<desc>Speed 52.5 km/h Distance 33.59 km</desc>
<time>2011-03-24T15:35:32.14</time>
<name>1115</name>
</trkpt>
<trkpt lat="49.404122" lon="9.425498">
<ele>369.0</ele>
<speed>49.5</speed>
<course>157.0</course>
<desc>Speed 49.5 km/h Distance 33.60 km</desc>
<time>2011-03-24T15:35:33.14</time>
<name>1116</name>
</trkpt>
<trkpt lat="49.404012" lon="9.425570">
<ele>369.5</ele>
<speed>48.6</speed>
<course>161.4</course>
<desc>Speed 48.6 km/h Distance 33.61 km</desc>
<time>2011-03-24T15:35:34.15</time>
<name>1117</name>
</trkpt>
<trkpt lat="49.403908" lon="9.425623">
<ele>369.5</ele>
<speed>44.9</speed>
<course>175.2</course>
<desc>Speed 44.9 km/h Distance 33.63 km</desc>
<time>2011-03-24T15:35:35.14</time>
<name>1118</name>
</trkpt>
<trkpt lat="49.403792" lon="9.425638">
<ele>369.0</ele>
<speed>47.6</speed>
<course>183.5</course>
<desc>Speed 47.6 km/h Distance 33.64 km</desc>
<time>2011-03-24T15:35:36.14</time>
<name>1119</name>
</trkpt>
<trkpt lat="49.403668" lon="9.425627">
<ele>369.0</ele>
<speed>49.6</speed>
<course>182.0</course>
<desc>Speed 49.6 km/h Distance 33.65 km</desc>
<time>2011-03-24T15:35:37.14</time>
<name>1120</name>
</trkpt>
<trkpt lat="49.403548" lon="9.425620">
<ele>369.0</ele>
<speed>48.0</speed>
<course>187.0</course>
<desc>Speed 48.0 km/h Distance 33.67 km</desc>
<time>2011-03-24T15:35:38.13</time>
<name>1121</name>
</trkpt>
<trkpt lat="49.403425" lon="9.425597">
<ele>370.0</ele>
<speed>49.8</speed>
<course>183.6</course>
<desc>Speed 49.8 km/h Distance 33.68 km</desc>
<time>2011-03-24T15:35:39.14</time>
<name>1122</name>
</trkpt>
<trkpt lat="49.403305" lon="9.425585">
<ele>370.5</ele>
<speed>49.1</speed>
<course>179.0</course>
<desc>Speed 49.1 km/h Distance 33.69 km</desc>
<time>2011-03-24T15:35:40.14</time>
<name>1123</name>
</trkpt>
<trkpt lat="49.403182" lon="9.425588">
<ele>370.5</ele>
<speed>49.1</speed>
<course>179.0</course>
<desc>Speed 49.1 km/h Distance 33.71 km</desc>
<time>2011-03-24T15:35:41.15</time>
<name>1124</name>
</trkpt>
<trkpt lat="49.403063" lon="9.425592">
<ele>370.5</ele>
<speed>47.8</speed>
<course>177.7</course>
<desc>Speed 47.8 km/h Distance 33.72 km</desc>
<time>2011-03-24T15:35:42.14</time>
<name>1125</name>
</trkpt>
<trkpt lat="49.402955" lon="9.425598">
<ele>370.5</ele>
<speed>44.6</speed>
<course>181.9</course>
<desc>Speed 44.6 km/h Distance 33.73 km</desc>
<time>2011-03-24T15:35:43.14</time>
<name>1126</name>
</trkpt>
<trkpt lat="49.402855" lon="9.425593">
<ele>371.0</ele>
<speed>40.0</speed>
<course>184.7</course>
<desc>Speed 40.0 km/h Distance 33.74 km</desc>
<time>2011-03-24T15:35:44.14</time>
<name>1127</name>
</trkpt>
<trkpt lat="49.402763" lon="9.425582">
<ele>372.0</ele>
<speed>36.2</speed>
<course>194.8</course>
<desc>Speed 36.2 km/h Distance 33.75 km</desc>
<time>2011-03-24T15:35:45.14</time>
<name>1128</name>
</trkpt>
<trkpt lat="49.402673" lon="9.425545">
<ele>373.0</ele>
<speed>38.1</speed>
<course>211.5</course>
<desc>Speed 38.1 km/h Distance 33.76 km</desc>
<time>2011-03-24T15:35:46.14</time>
<name>1129</name>
</trkpt>
<trkpt lat="49.402590" lon="9.425467">
<ele>372.5</ele>
<speed>38.7</speed>
<course>222.4</course>
<desc>Speed 38.7 km/h Distance 33.77 km</desc>
<time>2011-03-24T15:35:47.13</time>
<name>1130</name>
</trkpt>
<trkpt lat="49.402512" lon="9.425357">
<ele>373.0</ele>
<speed>41.7</speed>
<course>232.2</course>
<desc>Speed 41.7 km/h Distance 33.79 km</desc>
<time>2011-03-24T15:35:48.13</time>
<name>1131</name>
</trkpt>
<trkpt lat="49.402327" lon="9.424990">
<ele>373.0</ele>
<speed>55.2</speed>
<course>238.8</course>
<desc>Speed 55.2 km/h Distance 33.82 km</desc>
<time>2011-03-24T15:35:50.13</time>
<name>1132</name>
</trkpt>
<trkpt lat="49.402258" lon="9.424817">
<ele>373.5</ele>
<speed>54.9</speed>
<course>238.4</course>
<desc>Speed 54.9 km/h Distance 33.83 km</desc>
<time>2011-03-24T15:35:51.13</time>
<name>1133</name>
</trkpt>
<trkpt lat="49.402188" lon="9.424642">
<ele>373.5</ele>
<speed>50.8</speed>
<course>241.5</course>
<desc>Speed 50.8 km/h Distance 33.85 km</desc>
<time>2011-03-24T15:35:52.13</time>
<name>1134</name>
</trkpt>
<trkpt lat="49.402130" lon="9.424477">
<ele>375.5</ele>
<speed>53.6</speed>
<course>240.3</course>
<desc>Speed 53.6 km/h Distance 33.86 km</desc>
<time>2011-03-24T15:35:53.14</time>
<name>1135</name>
</trkpt>
<trkpt lat="49.402070" lon="9.424315">
<ele>375.5</ele>
<speed>50.9</speed>
<course>239.8</course>
<desc>Speed 50.9 km/h Distance 33.88 km</desc>
<time>2011-03-24T15:35:54.13</time>
<name>1136</name>
</trkpt>
<trkpt lat="49.402005" lon="9.424143">
<ele>377.0</ele>
<speed>54.9</speed>
<course>241.3</course>
<desc>Speed 54.9 km/h Distance 33.89 km</desc>
<time>2011-03-24T15:35:55.13</time>
<name>1137</name>
</trkpt>
<trkpt lat="49.401943" lon="9.423970">
<ele>377.0</ele>
<speed>54.2</speed>
<course>238.8</course>
<desc>Speed 54.2 km/h Distance 33.91 km</desc>
<time>2011-03-24T15:35:56.14</time>
<name>1138</name>
</trkpt>
<trkpt lat="49.401872" lon="9.423788">
<ele>378.0</ele>
<speed>55.8</speed>
<course>238.4</course>
<desc>Speed 55.8 km/h Distance 33.92 km</desc>
<time>2011-03-24T15:35:57.13</time>
<name>1139</name>
</trkpt>
<trkpt lat="49.401805" lon="9.423622">
<ele>379.5</ele>
<speed>56.1</speed>
<course>229.1</course>
<desc>Speed 56.1 km/h Distance 33.94 km</desc>
<time>2011-03-24T15:35:58.13</time>
<name>1140</name>
</trkpt>
<trkpt lat="49.401657" lon="9.423358">
<ele>377.5</ele>
<speed>49.8</speed>
<course>213.9</course>
<desc>Speed 49.8 km/h Distance 33.96 km</desc>
<time>2011-03-24T15:36:00.13</time>
<name>1141</name>
</trkpt>
<trkpt lat="49.401550" lon="9.423248">
<ele>378.0</ele>
<speed>48.0</speed>
<course>208.1</course>
<desc>Speed 48.0 km/h Distance 33.97 km</desc>
<time>2011-03-24T15:36:01.13</time>
<name>1142</name>
</trkpt>
<trkpt lat="49.401420" lon="9.423142">
<ele>378.0</ele>
<speed>58.9</speed>
<course>207.0</course>
<desc>Speed 58.9 km/h Distance 33.99 km</desc>
<time>2011-03-24T15:36:02.12</time>
<name>1143</name>
</trkpt>
<trkpt lat="49.401297" lon="9.423045">
<ele>379.5</ele>
<speed>52.6</speed>
<course>203.5</course>
<desc>Speed 52.6 km/h Distance 34.01 km</desc>
<time>2011-03-24T15:36:03.12</time>
<name>1144</name>
</trkpt>
<trkpt lat="49.401172" lon="9.422962">
<ele>381.0</ele>
<speed>52.9</speed>
<course>198.7</course>
<desc>Speed 52.9 km/h Distance 34.02 km</desc>
<time>2011-03-24T15:36:04.12</time>
<name>1145</name>
</trkpt>
<trkpt lat="49.401043" lon="9.422895">
<ele>383.0</ele>
<speed>54.3</speed>
<course>194.3</course>
<desc>Speed 54.3 km/h Distance 34.04 km</desc>
<time>2011-03-24T15:36:05.12</time>
<name>1146</name>
</trkpt>
<trkpt lat="49.400920" lon="9.422847">
<ele>383.5</ele>
<speed>49.9</speed>
<course>196.7</course>
<desc>Speed 49.9 km/h Distance 34.05 km</desc>
<time>2011-03-24T15:36:06.13</time>
<name>1147</name>
</trkpt>
<trkpt lat="49.400775" lon="9.422780">
<ele>385.5</ele>
<speed>58.2</speed>
<course>193.1</course>
<desc>Speed 58.2 km/h Distance 34.07 km</desc>
<time>2011-03-24T15:36:07.12</time>
<name>1148</name>
</trkpt>
<trkpt lat="49.400645" lon="9.422733">
<ele>386.0</ele>
<speed>53.1</speed>
<course>194.4</course>
<desc>Speed 53.1 km/h Distance 34.08 km</desc>
<time>2011-03-24T15:36:08.12</time>
<name>1149</name>
</trkpt>
<trkpt lat="49.400510" lon="9.422680">
<ele>387.0</ele>
<speed>55.0</speed>
<course>191.1</course>
<desc>Speed 55.0 km/h Distance 34.10 km</desc>
<time>2011-03-24T15:36:09.12</time>
<name>1150</name>
</trkpt>
<trkpt lat="49.400388" lon="9.422643">
<ele>387.0</ele>
<speed>51.4</speed>
<course>191.6</course>
<desc>Speed 51.4 km/h Distance 34.11 km</desc>
<time>2011-03-24T15:36:10.12</time>
<name>1151</name>
</trkpt>
<trkpt lat="49.400262" lon="9.422603">
<ele>387.0</ele>
<speed>52.1</speed>
<course>183.5</course>
<desc>Speed 52.1 km/h Distance 34.13 km</desc>
<time>2011-03-24T15:36:11.12</time>
<name>1152</name>
</trkpt>
<trkpt lat="49.400050" lon="9.422583">
<ele>389.0</ele>
<speed>49.7</speed>
<course>175.0</course>
<desc>Speed 49.7 km/h Distance 34.15 km</desc>
<time>2011-03-24T15:36:13.12</time>
<name>1153</name>
</trkpt>
<trkpt lat="49.399927" lon="9.422600">
<ele>390.0</ele>
<speed>46.1</speed>
<course>166.6</course>
<desc>Speed 46.1 km/h Distance 34.16 km</desc>
<time>2011-03-24T15:36:14.12</time>
<name>1154</name>
</trkpt>
<trkpt lat="49.399803" lon="9.422645">
<ele>391.5</ele>
<speed>50.7</speed>
<course>157.9</course>
<desc>Speed 50.7 km/h Distance 34.18 km</desc>
<time>2011-03-24T15:36:15.12</time>
<name>1155</name>
</trkpt>
<trkpt lat="49.399675" lon="9.422725">
<ele>392.0</ele>
<speed>54.9</speed>
<course>165.4</course>
<desc>Speed 54.9 km/h Distance 34.19 km</desc>
<time>2011-03-24T15:36:16.11</time>
<name>1156</name>
</trkpt>
<trkpt lat="49.399533" lon="9.422782">
<ele>394.5</ele>
<speed>55.8</speed>
<course>161.2</course>
<desc>Speed 55.8 km/h Distance 34.21 km</desc>
<time>2011-03-24T15:36:17.11</time>
<name>1157</name>
</trkpt>
<trkpt lat="49.399397" lon="9.422853">
<ele>396.5</ele>
<speed>57.8</speed>
<course>156.5</course>
<desc>Speed 57.8 km/h Distance 34.23 km</desc>
<time>2011-03-24T15:36:18.12</time>
<name>1158</name>
</trkpt>
<trkpt lat="49.399267" lon="9.422940">
<ele>396.0</ele>
<speed>55.3</speed>
<course>152.6</course>
<desc>Speed 55.3 km/h Distance 34.24 km</desc>
<time>2011-03-24T15:36:19.12</time>
<name>1159</name>
</trkpt>
<trkpt lat="49.399128" lon="9.423050">
<ele>396.5</ele>
<speed>61.5</speed>
<course>150.7</course>
<desc>Speed 61.5 km/h Distance 34.26 km</desc>
<time>2011-03-24T15:36:20.11</time>
<name>1160</name>
</trkpt>
<trkpt lat="49.398995" lon="9.423165">
<ele>397.5</ele>
<speed>61.4</speed>
<course>149.9</course>
<desc>Speed 61.4 km/h Distance 34.28 km</desc>
<time>2011-03-24T15:36:21.11</time>
<name>1161</name>
</trkpt>
<trkpt lat="49.398858" lon="9.423287">
<ele>398.0</ele>
<speed>63.5</speed>
<course>146.9</course>
<desc>Speed 63.5 km/h Distance 34.29 km</desc>
<time>2011-03-24T15:36:22.11</time>
<name>1162</name>
</trkpt>
<trkpt lat="49.398730" lon="9.423415">
<ele>396.0</ele>
<speed>61.3</speed>
<course>138.3</course>
<desc>Speed 61.3 km/h Distance 34.31 km</desc>
<time>2011-03-24T15:36:23.10</time>
<name>1163</name>
</trkpt>
<trkpt lat="49.398590" lon="9.423607">
<ele>397.0</ele>
<speed>74.6</speed>
<course>137.6</course>
<desc>Speed 74.6 km/h Distance 34.33 km</desc>
<time>2011-03-24T15:36:24.10</time>
<name>1164</name>
</trkpt>
<trkpt lat="49.398437" lon="9.423822">
<ele>396.5</ele>
<speed>83.7</speed>
<course>136.7</course>
<desc>Speed 83.7 km/h Distance 34.35 km</desc>
<time>2011-03-24T15:36:25.11</time>
<name>1165</name>
</trkpt>
<trkpt lat="49.398283" lon="9.424043">
<ele>397.0</ele>
<speed>84.3</speed>
<course>135.9</course>
<desc>Speed 84.3 km/h Distance 34.38 km</desc>
<time>2011-03-24T15:36:26.10</time>
<name>1166</name>
</trkpt>
<trkpt lat="49.398133" lon="9.424267">
<ele>397.5</ele>
<speed>83.8</speed>
<course>136.6</course>
<desc>Speed 83.8 km/h Distance 34.40 km</desc>
<time>2011-03-24T15:36:27.10</time>
<name>1167</name>
</trkpt>
<trkpt lat="49.397978" lon="9.424492">
<ele>398.0</ele>
<speed>85.4</speed>
<course>133.0</course>
<desc>Speed 85.4 km/h Distance 34.42 km</desc>
<time>2011-03-24T15:36:28.10</time>
<name>1168</name>
</trkpt>
<trkpt lat="49.397822" lon="9.424750">
<ele>400.0</ele>
<speed>93.0</speed>
<course>135.5</course>
<desc>Speed 93.0 km/h Distance 34.45 km</desc>
<time>2011-03-24T15:36:29.10</time>
<name>1169</name>
</trkpt>
<trkpt lat="49.397672" lon="9.424977">
<ele>399.5</ele>
<speed>84.5</speed>
<course>135.4</course>
<desc>Speed 84.5 km/h Distance 34.47 km</desc>
<time>2011-03-24T15:36:30.10</time>
<name>1170</name>
</trkpt>
<trkpt lat="49.397513" lon="9.425217">
<ele>399.5</ele>
<speed>88.8</speed>
<course>135.1</course>
<desc>Speed 88.8 km/h Distance 34.50 km</desc>
<time>2011-03-24T15:36:31.11</time>
<name>1171</name>
</trkpt>
<trkpt lat="49.397357" lon="9.425457">
<ele>400.5</ele>
<speed>89.0</speed>
<course>133.8</course>
<desc>Speed 89.0 km/h Distance 34.52 km</desc>
<time>2011-03-24T15:36:32.10</time>
<name>1172</name>
</trkpt>
<trkpt lat="49.397205" lon="9.425700">
<ele>401.5</ele>
<speed>88.5</speed>
<course>133.2</course>
<desc>Speed 88.5 km/h Distance 34.55 km</desc>
<time>2011-03-24T15:36:33.10</time>
<name>1173</name>
</trkpt>
<trkpt lat="49.397053" lon="9.425948">
<ele>402.0</ele>
<speed>88.7</speed>
<course>132.8</course>
<desc>Speed 88.7 km/h Distance 34.57 km</desc>
<time>2011-03-24T15:36:34.10</time>
<name>1174</name>
</trkpt>
<trkpt lat="49.396907" lon="9.426192">
<ele>402.5</ele>
<speed>87.2</speed>
<course>131.9</course>
<desc>Speed 87.2 km/h Distance 34.60 km</desc>
<time>2011-03-24T15:36:35.10</time>
<name>1175</name>
</trkpt>
<trkpt lat="49.396762" lon="9.426440">
<ele>403.0</ele>
<speed>87.7</speed>
<course>131.3</course>
<desc>Speed 87.7 km/h Distance 34.62 km</desc>
<time>2011-03-24T15:36:36.10</time>
<name>1176</name>
</trkpt>
<trkpt lat="49.396622" lon="9.426685">
<ele>403.0</ele>
<speed>85.3</speed>
<course>129.9</course>
<desc>Speed 85.3 km/h Distance 34.64 km</desc>
<time>2011-03-24T15:36:37.09</time>
<name>1177</name>
</trkpt>
<trkpt lat="49.396488" lon="9.426930">
<ele>404.0</ele>
<speed>83.3</speed>
<course>130.0</course>
<desc>Speed 83.3 km/h Distance 34.67 km</desc>
<time>2011-03-24T15:36:38.09</time>
<name>1178</name>
</trkpt>
<trkpt lat="49.396362" lon="9.427162">
<ele>405.0</ele>
<speed>79.9</speed>
<course>129.6</course>
<desc>Speed 79.9 km/h Distance 34.69 km</desc>
<time>2011-03-24T15:36:39.10</time>
<name>1179</name>
</trkpt>
<trkpt lat="49.396243" lon="9.427382">
<ele>405.5</ele>
<speed>75.1</speed>
<course>131.2</course>
<desc>Speed 75.1 km/h Distance 34.71 km</desc>
<time>2011-03-24T15:36:40.10</time>
<name>1180</name>
</trkpt>
<trkpt lat="49.396127" lon="9.427587">
<ele>406.5</ele>
<speed>71.2</speed>
<course>128.0</course>
<desc>Speed 71.2 km/h Distance 34.73 km</desc>
<time>2011-03-24T15:36:41.10</time>
<name>1181</name>
</trkpt>
<trkpt lat="49.396032" lon="9.427773">
<ele>406.5</ele>
<speed>62.2</speed>
<course>124.5</course>
<desc>Speed 62.2 km/h Distance 34.75 km</desc>
<time>2011-03-24T15:36:42.09</time>
<name>1182</name>
</trkpt>
<trkpt lat="49.395953" lon="9.427948">
<ele>406.0</ele>
<speed>55.5</speed>
<course>116.6</course>
<desc>Speed 55.5 km/h Distance 34.76 km</desc>
<time>2011-03-24T15:36:43.09</time>
<name>1183</name>
</trkpt>
<trkpt lat="49.395903" lon="9.428102">
<ele>407.0</ele>
<speed>44.6</speed>
<course>120.5</course>
<desc>Speed 44.6 km/h Distance 34.77 km</desc>
<time>2011-03-24T15:36:44.10</time>
<name>1184</name>
</trkpt>
<trkpt lat="49.395852" lon="9.428237">
<ele>409.0</ele>
<speed>40.8</speed>
<course>131.9</course>
<desc>Speed 40.8 km/h Distance 34.79 km</desc>
<time>2011-03-24T15:36:45.09</time>
<name>1185</name>
</trkpt>
<trkpt lat="49.395793" lon="9.428337">
<ele>409.5</ele>
<speed>34.8</speed>
<course>135.7</course>
<desc>Speed 34.8 km/h Distance 34.80 km</desc>
<time>2011-03-24T15:36:46.10</time>
<name>1186</name>
</trkpt>
<trkpt lat="49.395740" lon="9.428417">
<ele>410.5</ele>
<speed>28.8</speed>
<course>140.9</course>
<desc>Speed 28.8 km/h Distance 34.80 km</desc>
<time>2011-03-24T15:36:47.10</time>
<name>1187</name>
</trkpt>
<trkpt lat="49.395700" lon="9.428467">
<ele>410.5</ele>
<speed>28.8</speed>
<course>204.1</course>
<desc>Speed 28.8 km/h Distance 34.81 km</desc>
<time>2011-03-24T15:36:48.09</time>
<name>1188</name>
</trkpt>
<trkpt lat="49.395647" lon="9.428430">
<ele>410.0</ele>
<speed>23.8</speed>
<course>211.9</course>
<desc>Speed 23.8 km/h Distance 34.82 km</desc>
<time>2011-03-24T15:36:49.09</time>
<name>1189</name>
</trkpt>
<trkpt lat="49.395568" lon="9.428355">
<ele>410.0</ele>
<speed>37.2</speed>
<course>212.6</course>
<desc>Speed 37.2 km/h Distance 34.83 km</desc>
<time>2011-03-24T15:36:50.09</time>
<name>1190</name>
</trkpt>
<trkpt lat="49.395470" lon="9.428258">
<ele>410.5</ele>
<speed>45.5</speed>
<course>210.4</course>
<desc>Speed 45.5 km/h Distance 34.84 km</desc>
<time>2011-03-24T15:36:51.09</time>
<name>1191</name>
</trkpt>
<trkpt lat="49.395370" lon="9.428168">
<ele>409.5</ele>
<speed>45.3</speed>
<course>209.8</course>
<desc>Speed 45.3 km/h Distance 34.85 km</desc>
<time>2011-03-24T15:36:52.09</time>
<name>1192</name>
</trkpt>
<trkpt lat="49.395258" lon="9.428070">
<ele>409.5</ele>
<speed>51.9</speed>
<course>209.9</course>
<desc>Speed 51.9 km/h Distance 34.87 km</desc>
<time>2011-03-24T15:36:53.09</time>
<name>1193</name>
</trkpt>
<trkpt lat="49.395145" lon="9.427970">
<ele>409.5</ele>
<speed>52.0</speed>
<course>207.5</course>
<desc>Speed 52.0 km/h Distance 34.88 km</desc>
<time>2011-03-24T15:36:54.09</time>
<name>1194</name>
</trkpt>
<trkpt lat="49.395045" lon="9.427890">
<ele>409.0</ele>
<speed>45.1</speed>
<course>209.7</course>
<desc>Speed 45.1 km/h Distance 34.89 km</desc>
<time>2011-03-24T15:36:55.09</time>
<name>1195</name>
</trkpt>
<trkpt lat="49.394923" lon="9.427783">
<ele>409.0</ele>
<speed>56.0</speed>
<course>207.7</course>
<desc>Speed 56.0 km/h Distance 34.91 km</desc>
<time>2011-03-24T15:36:56.09</time>
<name>1196</name>
</trkpt>
<trkpt lat="49.394803" lon="9.427687">
<ele>408.5</ele>
<speed>54.3</speed>
<course>206.2</course>
<desc>Speed 54.3 km/h Distance 34.92 km</desc>
<time>2011-03-24T15:36:57.08</time>
<name>1197</name>
</trkpt>
<trkpt lat="49.394687" lon="9.427598">
<ele>408.5</ele>
<speed>53.1</speed>
<course>207.8</course>
<desc>Speed 53.1 km/h Distance 34.94 km</desc>
<time>2011-03-24T15:36:58.09</time>
<name>1198</name>
</trkpt>
<trkpt lat="49.394573" lon="9.427507">
<ele>408.0</ele>
<speed>53.2</speed>
<course>211.9</course>
<desc>Speed 53.2 km/h Distance 34.95 km</desc>
<time>2011-03-24T15:36:59.09</time>
<name>1199</name>
</trkpt>
<trkpt lat="49.394455" lon="9.427393">
<ele>408.0</ele>
<speed>56.1</speed>
<course>213.1</course>
<desc>Speed 56.1 km/h Distance 34.97 km</desc>
<time>2011-03-24T15:37:00.08</time>
<name>1200</name>
</trkpt>
<trkpt lat="49.394342" lon="9.427280">
<ele>408.0</ele>
<speed>55.2</speed>
<course>212.7</course>
<desc>Speed 55.2 km/h Distance 34.98 km</desc>
<time>2011-03-24T15:37:01.09</time>
<name>1201</name>
</trkpt>
<trkpt lat="49.394225" lon="9.427165">
<ele>408.0</ele>
<speed>56.1</speed>
<course>211.1</course>
<desc>Speed 56.1 km/h Distance 35.00 km</desc>
<time>2011-03-24T15:37:02.07</time>
<name>1202</name>
</trkpt>
<trkpt lat="49.394110" lon="9.427058">
<ele>408.0</ele>
<speed>55.3</speed>
<course>212.3</course>
<desc>Speed 55.3 km/h Distance 35.01 km</desc>
<time>2011-03-24T15:37:03.08</time>
<name>1203</name>
</trkpt>
<trkpt lat="49.393995" lon="9.426947">
<ele>408.0</ele>
<speed>55.7</speed>
<course>213.8</course>
<desc>Speed 55.7 km/h Distance 35.03 km</desc>
<time>2011-03-24T15:37:04.07</time>
<name>1204</name>
</trkpt>
<trkpt lat="49.393882" lon="9.426830">
<ele>408.5</ele>
<speed>55.5</speed>
<course>215.3</course>
<desc>Speed 55.5 km/h Distance 35.04 km</desc>
<time>2011-03-24T15:37:05.09</time>
<name>1205</name>
</trkpt>
<trkpt lat="49.393767" lon="9.426705">
<ele>408.5</ele>
<speed>55.8</speed>
<course>213.8</course>
<desc>Speed 55.8 km/h Distance 35.06 km</desc>
<time>2011-03-24T15:37:06.07</time>
<name>1206</name>
</trkpt>
<trkpt lat="49.393652" lon="9.426587">
<ele>408.5</ele>
<speed>55.6</speed>
<course>214.2</course>
<desc>Speed 55.6 km/h Distance 35.08 km</desc>
<time>2011-03-24T15:37:07.09</time>
<name>1207</name>
</trkpt>
<trkpt lat="49.393540" lon="9.426470">
<ele>409.5</ele>
<speed>54.3</speed>
<course>215.1</course>
<desc>Speed 54.3 km/h Distance 35.09 km</desc>
<time>2011-03-24T15:37:08.08</time>
<name>1208</name>
</trkpt>
<trkpt lat="49.393433" lon="9.426355">
<ele>410.5</ele>
<speed>52.8</speed>
<course>215.2</course>
<desc>Speed 52.8 km/h Distance 35.11 km</desc>
<time>2011-03-24T15:37:09.08</time>
<name>1209</name>
</trkpt>
<trkpt lat="49.393333" lon="9.426247">
<ele>411.0</ele>
<speed>48.9</speed>
<course>215.3</course>
<desc>Speed 48.9 km/h Distance 35.12 km</desc>
<time>2011-03-24T15:37:10.08</time>
<name>1210</name>
</trkpt>
<trkpt lat="49.393258" lon="9.426165">
<ele>411.0</ele>
<speed>48.9</speed>
<course>217.1</course>
<desc>Speed 48.9 km/h Distance 35.13 km</desc>
<time>2011-03-24T15:37:11.07</time>
<name>1211</name>
</trkpt>
<trkpt lat="49.393175" lon="9.426068">
<ele>409.5</ele>
<speed>24.9</speed>
<course>211.9</course>
<desc>Speed 24.9 km/h Distance 35.14 km</desc>
<time>2011-03-24T15:37:13.07</time>
<name>1212</name>
</trkpt>
<trkpt lat="49.393137" lon="9.426032">
<ele>409.5</ele>
<speed>18.1</speed>
<course>209.9</course>
<desc>Speed 18.1 km/h Distance 35.15 km</desc>
<time>2011-03-24T15:37:14.07</time>
<name>1213</name>
</trkpt>
<trkpt lat="49.393108" lon="9.426007">
<ele>410.0</ele>
<speed>13.3</speed>
<course>207.2</course>
<desc>Speed 13.3 km/h Distance 35.15 km</desc>
<time>2011-03-24T15:37:15.07</time>
<name>1214</name>
</trkpt>
<trkpt lat="49.393077" lon="9.425982">
<ele>410.0</ele>
<speed>12.9</speed>
<course>206.4</course>
<desc>Speed 12.9 km/h Distance 35.15 km</desc>
<time>2011-03-24T15:37:16.07</time>
<name>1215</name>
</trkpt>
<trkpt lat="49.393042" lon="9.425955">
<ele>409.5</ele>
<speed>14.9</speed>
<course>202.6</course>
<desc>Speed 14.9 km/h Distance 35.16 km</desc>
<time>2011-03-24T15:37:17.07</time>
<name>1216</name>
</trkpt>
<trkpt lat="49.393000" lon="9.425928">
<ele>409.0</ele>
<speed>18.3</speed>
<course>202.4</course>
<desc>Speed 18.3 km/h Distance 35.16 km</desc>
<time>2011-03-24T15:37:18.07</time>
<name>1217</name>
</trkpt>
<trkpt lat="49.392950" lon="9.425897">
<ele>408.5</ele>
<speed>21.4</speed>
<course>200.0</course>
<desc>Speed 21.4 km/h Distance 35.17 km</desc>
<time>2011-03-24T15:37:19.07</time>
<name>1218</name>
</trkpt>
<trkpt lat="49.392893" lon="9.425865">
<ele>408.0</ele>
<speed>24.2</speed>
<course>198.0</course>
<desc>Speed 24.2 km/h Distance 35.18 km</desc>
<time>2011-03-24T15:37:20.06</time>
<name>1219</name>
</trkpt>
<trkpt lat="49.392823" lon="9.425830">
<ele>408.0</ele>
<speed>29.5</speed>
<course>199.5</course>
<desc>Speed 29.5 km/h Distance 35.18 km</desc>
<time>2011-03-24T15:37:21.06</time>
<name>1220</name>
</trkpt>
<trkpt lat="49.392728" lon="9.425778">
<ele>406.5</ele>
<speed>40.2</speed>
<course>198.5</course>
<desc>Speed 40.2 km/h Distance 35.19 km</desc>
<time>2011-03-24T15:37:22.06</time>
<name>1221</name>
</trkpt>
<trkpt lat="49.392612" lon="9.425718">
<ele>406.5</ele>
<speed>49.2</speed>
<course>201.6</course>
<desc>Speed 49.2 km/h Distance 35.21 km</desc>
<time>2011-03-24T15:37:23.08</time>
<name>1222</name>
</trkpt>
<trkpt lat="49.392497" lon="9.425648">
<ele>405.5</ele>
<speed>48.4</speed>
<course>203.0</course>
<desc>Speed 48.4 km/h Distance 35.22 km</desc>
<time>2011-03-24T15:37:24.06</time>
<name>1223</name>
</trkpt>
<trkpt lat="49.392377" lon="9.425570">
<ele>404.0</ele>
<speed>52.1</speed>
<course>203.1</course>
<desc>Speed 52.1 km/h Distance 35.24 km</desc>
<time>2011-03-24T15:37:25.06</time>
<name>1224</name>
</trkpt>
<trkpt lat="49.392247" lon="9.425485">
<ele>403.0</ele>
<speed>55.8</speed>
<course>201.6</course>
<desc>Speed 55.8 km/h Distance 35.25 km</desc>
<time>2011-03-24T15:37:26.06</time>
<name>1225</name>
</trkpt>
<trkpt lat="49.392110" lon="9.425402">
<ele>402.5</ele>
<speed>58.6</speed>
<course>201.1</course>
<desc>Speed 58.6 km/h Distance 35.27 km</desc>
<time>2011-03-24T15:37:27.06</time>
<name>1226</name>
</trkpt>
<trkpt lat="49.391967" lon="9.425317">
<ele>402.0</ele>
<speed>61.1</speed>
<course>201.2</course>
<desc>Speed 61.1 km/h Distance 35.29 km</desc>
<time>2011-03-24T15:37:28.06</time>
<name>1227</name>
</trkpt>
<trkpt lat="49.391827" lon="9.425233">
<ele>401.0</ele>
<speed>60.1</speed>
<course>200.3</course>
<desc>Speed 60.1 km/h Distance 35.30 km</desc>
<time>2011-03-24T15:37:29.06</time>
<name>1228</name>
</trkpt>
<trkpt lat="49.391683" lon="9.425152">
<ele>400.5</ele>
<speed>60.7</speed>
<course>200.3</course>
<desc>Speed 60.7 km/h Distance 35.32 km</desc>
<time>2011-03-24T15:37:30.07</time>
<name>1229</name>
</trkpt>
<trkpt lat="49.391537" lon="9.425068">
<ele>400.0</ele>
<speed>62.2</speed>
<course>206.9</course>
<desc>Speed 62.2 km/h Distance 35.34 km</desc>
<time>2011-03-24T15:37:31.06</time>
<name>1230</name>
</trkpt>
<trkpt lat="49.391402" lon="9.424963">
<ele>400.0</ele>
<speed>60.9</speed>
<course>217.7</course>
<desc>Speed 60.9 km/h Distance 35.35 km</desc>
<time>2011-03-24T15:37:32.06</time>
<name>1231</name>
</trkpt>
<trkpt lat="49.391278" lon="9.424817">
<ele>400.0</ele>
<speed>61.6</speed>
<course>221.8</course>
<desc>Speed 61.6 km/h Distance 35.37 km</desc>
<time>2011-03-24T15:37:33.06</time>
<name>1232</name>
</trkpt>
<trkpt lat="49.391158" lon="9.424652">
<ele>400.0</ele>
<speed>64.2</speed>
<course>222.2</course>
<desc>Speed 64.2 km/h Distance 35.39 km</desc>
<time>2011-03-24T15:37:34.06</time>
<name>1233</name>
</trkpt>
<trkpt lat="49.391032" lon="9.424475">
<ele>399.5</ele>
<speed>68.2</speed>
<course>229.4</course>
<desc>Speed 68.2 km/h Distance 35.41 km</desc>
<time>2011-03-24T15:37:35.05</time>
<name>1234</name>
</trkpt>
<trkpt lat="49.390918" lon="9.424272">
<ele>399.5</ele>
<speed>69.4</speed>
<course>227.2</course>
<desc>Speed 69.4 km/h Distance 35.43 km</desc>
<time>2011-03-24T15:37:36.06</time>
<name>1235</name>
</trkpt>
<trkpt lat="49.390800" lon="9.424075">
<ele>399.5</ele>
<speed>69.7</speed>
<course>226.9</course>
<desc>Speed 69.7 km/h Distance 35.45 km</desc>
<time>2011-03-24T15:37:37.06</time>
<name>1236</name>
</trkpt>
<trkpt lat="49.390675" lon="9.423870">
<ele>399.5</ele>
<speed>73.2</speed>
<course>228.0</course>
<desc>Speed 73.2 km/h Distance 35.47 km</desc>
<time>2011-03-24T15:37:38.06</time>
<name>1237</name>
</trkpt>
<trkpt lat="49.390550" lon="9.423657">
<ele>400.0</ele>
<speed>74.2</speed>
<course>230.4</course>
<desc>Speed 74.2 km/h Distance 35.49 km</desc>
<time>2011-03-24T15:37:39.05</time>
<name>1238</name>
</trkpt>
<trkpt lat="49.390435" lon="9.423443">
<ele>400.0</ele>
<speed>72.6</speed>
<course>234.0</course>
<desc>Speed 72.6 km/h Distance 35.51 km</desc>
<time>2011-03-24T15:37:40.05</time>
<name>1239</name>
</trkpt>
<trkpt lat="49.390332" lon="9.423225">
<ele>400.5</ele>
<speed>71.7</speed>
<course>235.3</course>
<desc>Speed 71.7 km/h Distance 35.53 km</desc>
<time>2011-03-24T15:37:41.05</time>
<name>1240</name>
</trkpt>
<trkpt lat="49.390227" lon="9.422992">
<ele>400.5</ele>
<speed>74.5</speed>
<course>234.8</course>
<desc>Speed 74.5 km/h Distance 35.55 km</desc>
<time>2011-03-24T15:37:42.06</time>
<name>1241</name>
</trkpt>
<trkpt lat="49.390115" lon="9.422748">
<ele>400.5</ele>
<speed>78.0</speed>
<course>234.3</course>
<desc>Speed 78.0 km/h Distance 35.57 km</desc>
<time>2011-03-24T15:37:43.06</time>
<name>1242</name>
</trkpt>
<trkpt lat="49.390007" lon="9.422517">
<ele>401.0</ele>
<speed>76.3</speed>
<course>232.3</course>
<desc>Speed 76.3 km/h Distance 35.59 km</desc>
<time>2011-03-24T15:37:44.05</time>
<name>1243</name>
</trkpt>
<trkpt lat="49.389895" lon="9.422295">
<ele>401.0</ele>
<speed>72.7</speed>
<course>230.8</course>
<desc>Speed 72.7 km/h Distance 35.61 km</desc>
<time>2011-03-24T15:37:45.06</time>
<name>1244</name>
</trkpt>
<trkpt lat="49.389778" lon="9.422075">
<ele>400.5</ele>
<speed>73.6</speed>
<course>230.9</course>
<desc>Speed 73.6 km/h Distance 35.63 km</desc>
<time>2011-03-24T15:37:46.05</time>
<name>1245</name>
</trkpt>
<trkpt lat="49.389658" lon="9.421848">
<ele>400.5</ele>
<speed>75.5</speed>
<course>232.3</course>
<desc>Speed 75.5 km/h Distance 35.65 km</desc>
<time>2011-03-24T15:37:47.05</time>
<name>1246</name>
</trkpt>
<trkpt lat="49.389547" lon="9.421627">
<ele>400.5</ele>
<speed>75.0</speed>
<course>235.7</course>
<desc>Speed 75.0 km/h Distance 35.67 km</desc>
<time>2011-03-24T15:37:48.05</time>
<name>1247</name>
</trkpt>
<trkpt lat="49.389367" lon="9.421222">
<ele>400.0</ele>
<speed>69.7</speed>
<course>235.1</course>
<desc>Speed 69.7 km/h Distance 35.71 km</desc>
<time>2011-03-24T15:37:50.05</time>
<name>1248</name>
</trkpt>
<trkpt lat="49.389268" lon="9.421005">
<ele>400.0</ele>
<speed>71.7</speed>
<course>233.1</course>
<desc>Speed 71.7 km/h Distance 35.73 km</desc>
<time>2011-03-24T15:37:51.05</time>
<name>1249</name>
</trkpt>
<trkpt lat="49.389160" lon="9.420783">
<ele>400.0</ele>
<speed>75.8</speed>
<course>230.0</course>
<desc>Speed 75.8 km/h Distance 35.75 km</desc>
<time>2011-03-24T15:37:52.05</time>
<name>1250</name>
</trkpt>
<trkpt lat="49.389043" lon="9.420570">
<ele>400.5</ele>
<speed>72.3</speed>
<course>226.8</course>
<desc>Speed 72.3 km/h Distance 35.77 km</desc>
<time>2011-03-24T15:37:53.05</time>
<name>1251</name>
</trkpt>
<trkpt lat="49.388920" lon="9.420368">
<ele>400.5</ele>
<speed>71.5</speed>
<course>224.2</course>
<desc>Speed 71.5 km/h Distance 35.79 km</desc>
<time>2011-03-24T15:37:54.04</time>
<name>1252</name>
</trkpt>
<trkpt lat="49.388570" lon="9.419845">
<ele>400.5</ele>
<speed>58.4</speed>
<course>223.5</course>
<desc>Speed 58.4 km/h Distance 35.84 km</desc>
<time>2011-03-24T15:37:57.06</time>
<name>1253</name>
</trkpt>
<trkpt lat="49.388450" lon="9.419670">
<ele>401.5</ele>
<speed>55.8</speed>
<course>224.2</course>
<desc>Speed 55.8 km/h Distance 35.86 km</desc>
<time>2011-03-24T15:37:58.06</time>
<name>1254</name>
</trkpt>
<trkpt lat="49.388338" lon="9.419503">
<ele>402.5</ele>
<speed>56.4</speed>
<course>225.7</course>
<desc>Speed 56.4 km/h Distance 35.88 km</desc>
<time>2011-03-24T15:37:59.05</time>
<name>1255</name>
</trkpt>
<trkpt lat="49.388237" lon="9.419343">
<ele>402.5</ele>
<speed>59.3</speed>
<course>226.1</course>
<desc>Speed 59.3 km/h Distance 35.89 km</desc>
<time>2011-03-24T15:38:00.06</time>
<name>1256</name>
</trkpt>
<trkpt lat="49.388130" lon="9.419173">
<ele>402.5</ele>
<speed>61.8</speed>
<course>224.8</course>
<desc>Speed 61.8 km/h Distance 35.91 km</desc>
<time>2011-03-24T15:38:01.05</time>
<name>1257</name>
</trkpt>
<trkpt lat="49.388022" lon="9.419008">
<ele>402.5</ele>
<speed>61.6</speed>
<course>223.0</course>
<desc>Speed 61.6 km/h Distance 35.93 km</desc>
<time>2011-03-24T15:38:02.05</time>
<name>1258</name>
</trkpt>
<trkpt lat="49.387907" lon="9.418843">
<ele>402.5</ele>
<speed>61.0</speed>
<course>222.5</course>
<desc>Speed 61.0 km/h Distance 35.95 km</desc>
<time>2011-03-24T15:38:03.06</time>
<name>1259</name>
</trkpt>
<trkpt lat="49.387788" lon="9.418677">
<ele>403.0</ele>
<speed>64.7</speed>
<course>222.0</course>
<desc>Speed 64.7 km/h Distance 35.96 km</desc>
<time>2011-03-24T15:38:04.05</time>
<name>1260</name>
</trkpt>
<trkpt lat="49.387675" lon="9.418520">
<ele>402.5</ele>
<speed>61.1</speed>
<course>222.0</course>
<desc>Speed 61.1 km/h Distance 35.98 km</desc>
<time>2011-03-24T15:38:05.06</time>
<name>1261</name>
</trkpt>
<trkpt lat="49.387567" lon="9.418370">
<ele>402.5</ele>
<speed>59.3</speed>
<course>222.5</course>
<desc>Speed 59.3 km/h Distance 36.00 km</desc>
<time>2011-03-24T15:38:06.05</time>
<name>1262</name>
</trkpt>
<trkpt lat="49.387457" lon="9.418215">
<ele>403.0</ele>
<speed>60.7</speed>
<course>224.9</course>
<desc>Speed 60.7 km/h Distance 36.01 km</desc>
<time>2011-03-24T15:38:07.05</time>
<name>1263</name>
</trkpt>
<trkpt lat="49.387350" lon="9.418052">
<ele>403.0</ele>
<speed>60.2</speed>
<course>226.6</course>
<desc>Speed 60.2 km/h Distance 36.03 km</desc>
<time>2011-03-24T15:38:08.04</time>
<name>1264</name>
</trkpt>
<trkpt lat="49.387235" lon="9.417865">
<ele>403.0</ele>
<speed>66.5</speed>
<course>227.9</course>
<desc>Speed 66.5 km/h Distance 36.05 km</desc>
<time>2011-03-24T15:38:09.05</time>
<name>1265</name>
</trkpt>
<trkpt lat="49.387123" lon="9.417675">
<ele>403.0</ele>
<speed>66.6</speed>
<course>229.4</course>
<desc>Speed 66.6 km/h Distance 36.07 km</desc>
<time>2011-03-24T15:38:10.04</time>
<name>1266</name>
</trkpt>
<trkpt lat="49.387020" lon="9.417490">
<ele>403.0</ele>
<speed>63.9</speed>
<course>231.5</course>
<desc>Speed 63.9 km/h Distance 36.09 km</desc>
<time>2011-03-24T15:38:11.05</time>
<name>1267</name>
</trkpt>
<trkpt lat="49.386923" lon="9.417303">
<ele>403.0</ele>
<speed>62.2</speed>
<course>232.2</course>
<desc>Speed 62.2 km/h Distance 36.10 km</desc>
<time>2011-03-24T15:38:12.04</time>
<name>1268</name>
</trkpt>
<trkpt lat="49.386823" lon="9.417105">
<ele>403.0</ele>
<speed>66.7</speed>
<course>236.7</course>
<desc>Speed 66.7 km/h Distance 36.12 km</desc>
<time>2011-03-24T15:38:13.05</time>
<name>1269</name>
</trkpt>
<trkpt lat="49.386740" lon="9.416910">
<ele>403.0</ele>
<speed>62.9</speed>
<course>240.2</course>
<desc>Speed 62.9 km/h Distance 36.14 km</desc>
<time>2011-03-24T15:38:14.04</time>
<name>1270</name>
</trkpt>
<trkpt lat="49.386667" lon="9.416713">
<ele>403.0</ele>
<speed>60.9</speed>
<course>241.9</course>
<desc>Speed 60.9 km/h Distance 36.15 km</desc>
<time>2011-03-24T15:38:15.04</time>
<name>1271</name>
</trkpt>
<trkpt lat="49.386597" lon="9.416512">
<ele>403.0</ele>
<speed>60.4</speed>
<course>247.3</course>
<desc>Speed 60.4 km/h Distance 36.17 km</desc>
<time>2011-03-24T15:38:16.05</time>
<name>1272</name>
</trkpt>
<trkpt lat="49.386542" lon="9.416310">
<ele>403.0</ele>
<speed>60.2</speed>
<course>249.8</course>
<desc>Speed 60.2 km/h Distance 36.19 km</desc>
<time>2011-03-24T15:38:17.05</time>
<name>1273</name>
</trkpt>
<trkpt lat="49.386492" lon="9.416102">
<ele>403.0</ele>
<speed>60.1</speed>
<course>251.2</course>
<desc>Speed 60.1 km/h Distance 36.20 km</desc>
<time>2011-03-24T15:38:18.04</time>
<name>1274</name>
</trkpt>
<trkpt lat="49.386443" lon="9.415883">
<ele>403.5</ele>
<speed>60.3</speed>
<course>253.0</course>
<desc>Speed 60.3 km/h Distance 36.22 km</desc>
<time>2011-03-24T15:38:19.04</time>
<name>1275</name>
</trkpt>
<trkpt lat="49.386398" lon="9.415657">
<ele>403.0</ele>
<speed>61.1</speed>
<course>253.3</course>
<desc>Speed 61.1 km/h Distance 36.24 km</desc>
<time>2011-03-24T15:38:20.04</time>
<name>1276</name>
</trkpt>
<trkpt lat="49.386353" lon="9.415427">
<ele>403.0</ele>
<speed>62.4</speed>
<course>254.6</course>
<desc>Speed 62.4 km/h Distance 36.25 km</desc>
<time>2011-03-24T15:38:21.04</time>
<name>1277</name>
</trkpt>
<trkpt lat="49.386313" lon="9.415203">
<ele>402.5</ele>
<speed>60.7</speed>
<course>255.8</course>
<desc>Speed 60.7 km/h Distance 36.27 km</desc>
<time>2011-03-24T15:38:22.03</time>
<name>1278</name>
</trkpt>
<trkpt lat="49.386277" lon="9.414980">
<ele>402.0</ele>
<speed>60.6</speed>
<course>253.5</course>
<desc>Speed 60.6 km/h Distance 36.29 km</desc>
<time>2011-03-24T15:38:23.04</time>
<name>1279</name>
</trkpt>
<trkpt lat="49.386232" lon="9.414747">
<ele>402.0</ele>
<speed>63.4</speed>
<course>258.1</course>
<desc>Speed 63.4 km/h Distance 36.30 km</desc>
<time>2011-03-24T15:38:24.03</time>
<name>1280</name>
</trkpt>
<trkpt lat="49.386202" lon="9.414528">
<ele>402.0</ele>
<speed>58.5</speed>
<course>259.8</course>
<desc>Speed 58.5 km/h Distance 36.32 km</desc>
<time>2011-03-24T15:38:25.03</time>
<name>1281</name>
</trkpt>
<trkpt lat="49.386178" lon="9.414328">
<ele>402.0</ele>
<speed>52.8</speed>
<course>259.9</course>
<desc>Speed 52.8 km/h Distance 36.34 km</desc>
<time>2011-03-24T15:38:26.03</time>
<name>1282</name>
</trkpt>
<trkpt lat="49.386155" lon="9.414127">
<ele>402.0</ele>
<speed>53.6</speed>
<course>262.7</course>
<desc>Speed 53.6 km/h Distance 36.35 km</desc>
<time>2011-03-24T15:38:27.03</time>
<name>1283</name>
</trkpt>
<trkpt lat="49.386138" lon="9.413927">
<ele>401.5</ele>
<speed>53.5</speed>
<course>261.5</course>
<desc>Speed 53.5 km/h Distance 36.37 km</desc>
<time>2011-03-24T15:38:28.04</time>
<name>1284</name>
</trkpt>
<trkpt lat="49.386118" lon="9.413722">
<ele>401.0</ele>
<speed>53.6</speed>
<course>260.9</course>
<desc>Speed 53.6 km/h Distance 36.38 km</desc>
<time>2011-03-24T15:38:29.04</time>
<name>1285</name>
</trkpt>
<trkpt lat="49.386097" lon="9.413515">
<ele>401.0</ele>
<speed>53.7</speed>
<course>261.6</course>
<desc>Speed 53.7 km/h Distance 36.40 km</desc>
<time>2011-03-24T15:38:30.02</time>
<name>1286</name>
</trkpt>
<trkpt lat="49.386077" lon="9.413307">
<ele>399.5</ele>
<speed>54.0</speed>
<course>257.5</course>
<desc>Speed 54.0 km/h Distance 36.41 km</desc>
<time>2011-03-24T15:38:31.04</time>
<name>1287</name>
</trkpt>
<trkpt lat="49.386047" lon="9.413098">
<ele>399.0</ele>
<speed>54.3</speed>
<course>253.1</course>
<desc>Speed 54.3 km/h Distance 36.43 km</desc>
<time>2011-03-24T15:38:32.03</time>
<name>1288</name>
</trkpt>
<trkpt lat="49.386007" lon="9.412897">
<ele>398.5</ele>
<speed>54.5</speed>
<course>249.8</course>
<desc>Speed 54.5 km/h Distance 36.44 km</desc>
<time>2011-03-24T15:38:33.03</time>
<name>1289</name>
</trkpt>
<trkpt lat="49.385960" lon="9.412702">
<ele>398.0</ele>
<speed>53.4</speed>
<course>248.1</course>
<desc>Speed 53.4 km/h Distance 36.46 km</desc>
<time>2011-03-24T15:38:34.02</time>
<name>1290</name>
</trkpt>
<trkpt lat="49.385912" lon="9.412517">
<ele>397.5</ele>
<speed>51.9</speed>
<course>247.1</course>
<desc>Speed 51.9 km/h Distance 36.47 km</desc>
<time>2011-03-24T15:38:35.03</time>
<name>1291</name>
</trkpt>
<trkpt lat="49.385862" lon="9.412335">
<ele>397.5</ele>
<speed>50.1</speed>
<course>248.6</course>
<desc>Speed 50.1 km/h Distance 36.49 km</desc>
<time>2011-03-24T15:38:36.02</time>
<name>1292</name>
</trkpt>
<trkpt lat="49.385815" lon="9.412152">
<ele>396.5</ele>
<speed>50.8</speed>
<course>251.3</course>
<desc>Speed 50.8 km/h Distance 36.50 km</desc>
<time>2011-03-24T15:38:37.03</time>
<name>1293</name>
</trkpt>
<trkpt lat="49.385772" lon="9.411955">
<ele>396.5</ele>
<speed>53.7</speed>
<course>257.9</course>
<desc>Speed 53.7 km/h Distance 36.51 km</desc>
<time>2011-03-24T15:38:38.03</time>
<name>1294</name>
</trkpt>
<trkpt lat="49.385743" lon="9.411752">
<ele>395.5</ele>
<speed>54.8</speed>
<course>260.5</course>
<desc>Speed 54.8 km/h Distance 36.53 km</desc>
<time>2011-03-24T15:38:39.03</time>
<name>1295</name>
</trkpt>
<trkpt lat="49.385722" lon="9.411553">
<ele>394.5</ele>
<speed>53.6</speed>
<course>258.3</course>
<desc>Speed 53.6 km/h Distance 36.54 km</desc>
<time>2011-03-24T15:38:40.02</time>
<name>1296</name>
</trkpt>
<trkpt lat="49.385693" lon="9.411343">
<ele>394.0</ele>
<speed>56.7</speed>
<course>259.5</course>
<desc>Speed 56.7 km/h Distance 36.56 km</desc>
<time>2011-03-24T15:38:41.02</time>
<name>1297</name>
</trkpt>
<trkpt lat="49.385668" lon="9.411137">
<ele>393.5</ele>
<speed>55.1</speed>
<course>256.5</course>
<desc>Speed 55.1 km/h Distance 36.57 km</desc>
<time>2011-03-24T15:38:42.02</time>
<name>1298</name>
</trkpt>
<trkpt lat="49.385638" lon="9.410945">
<ele>392.5</ele>
<speed>52.3</speed>
<course>255.0</course>
<desc>Speed 52.3 km/h Distance 36.59 km</desc>
<time>2011-03-24T15:38:43.02</time>
<name>1299</name>
</trkpt>
<trkpt lat="49.385607" lon="9.410763">
<ele>392.5</ele>
<speed>49.4</speed>
<course>260.1</course>
<desc>Speed 49.4 km/h Distance 36.60 km</desc>
<time>2011-03-24T15:38:44.02</time>
<name>1300</name>
</trkpt>
<trkpt lat="49.385588" lon="9.410602">
<ele>392.5</ele>
<speed>43.6</speed>
<course>276.5</course>
<desc>Speed 43.6 km/h Distance 36.61 km</desc>
<time>2011-03-24T15:38:45.02</time>
<name>1301</name>
</trkpt>
<trkpt lat="49.385600" lon="9.410443">
<ele>393.0</ele>
<speed>42.1</speed>
<course>295.5</course>
<desc>Speed 42.1 km/h Distance 36.63 km</desc>
<time>2011-03-24T15:38:46.02</time>
<name>1302</name>
</trkpt>
<trkpt lat="49.385647" lon="9.410293">
<ele>392.0</ele>
<speed>43.7</speed>
<course>303.6</course>
<desc>Speed 43.7 km/h Distance 36.64 km</desc>
<time>2011-03-24T15:38:47.02</time>
<name>1303</name>
</trkpt>
<trkpt lat="49.385710" lon="9.410147">
<ele>391.5</ele>
<speed>45.9</speed>
<course>310.5</course>
<desc>Speed 45.9 km/h Distance 36.65 km</desc>
<time>2011-03-24T15:38:48.02</time>
<name>1304</name>
</trkpt>
<trkpt lat="49.385785" lon="9.410012">
<ele>391.5</ele>
<speed>46.6</speed>
<course>316.1</course>
<desc>Speed 46.6 km/h Distance 36.66 km</desc>
<time>2011-03-24T15:38:49.02</time>
<name>1305</name>
</trkpt>
<trkpt lat="49.385872" lon="9.409883">
<ele>390.5</ele>
<speed>48.5</speed>
<course>318.9</course>
<desc>Speed 48.5 km/h Distance 36.68 km</desc>
<time>2011-03-24T15:38:50.02</time>
<name>1306</name>
</trkpt>
<trkpt lat="49.385960" lon="9.409765">
<ele>389.5</ele>
<speed>47.1</speed>
<course>307.5</course>
<desc>Speed 47.1 km/h Distance 36.69 km</desc>
<time>2011-03-24T15:38:51.01</time>
<name>1307</name>
</trkpt>
<trkpt lat="49.386023" lon="9.409638">
<ele>389.5</ele>
<speed>41.8</speed>
<course>302.5</course>
<desc>Speed 41.8 km/h Distance 36.70 km</desc>
<time>2011-03-24T15:38:52.02</time>
<name>1308</name>
</trkpt>
<trkpt lat="49.386080" lon="9.409502">
<ele>388.0</ele>
<speed>42.2</speed>
<course>279.9</course>
<desc>Speed 42.2 km/h Distance 36.71 km</desc>
<time>2011-03-24T15:38:53.01</time>
<name>1309</name>
</trkpt>
<trkpt lat="49.386098" lon="9.409340">
<ele>387.5</ele>
<speed>43.6</speed>
<course>283.5</course>
<desc>Speed 43.6 km/h Distance 36.73 km</desc>
<time>2011-03-24T15:38:54.02</time>
<name>1310</name>
</trkpt>
<trkpt lat="49.386125" lon="9.409170">
<ele>386.0</ele>
<speed>45.8</speed>
<course>282.3</course>
<desc>Speed 45.8 km/h Distance 36.74 km</desc>
<time>2011-03-24T15:38:55.02</time>
<name>1311</name>
</trkpt>
<trkpt lat="49.386150" lon="9.408993">
<ele>385.0</ele>
<speed>47.2</speed>
<course>282.2</course>
<desc>Speed 47.2 km/h Distance 36.75 km</desc>
<time>2011-03-24T15:38:56.02</time>
<name>1312</name>
</trkpt>
<trkpt lat="49.386175" lon="9.408815">
<ele>384.0</ele>
<speed>47.4</speed>
<course>282.7</course>
<desc>Speed 47.4 km/h Distance 36.76 km</desc>
<time>2011-03-24T15:38:57.02</time>
<name>1313</name>
</trkpt>
<trkpt lat="49.386200" lon="9.408645">
<ele>383.0</ele>
<speed>45.9</speed>
<course>274.8</course>
<desc>Speed 45.9 km/h Distance 36.78 km</desc>
<time>2011-03-24T15:38:58.01</time>
<name>1314</name>
</trkpt>
<trkpt lat="49.386208" lon="9.408492">
<ele>382.0</ele>
<speed>40.4</speed>
<course>253.1</course>
<desc>Speed 40.4 km/h Distance 36.79 km</desc>
<time>2011-03-24T15:38:59.01</time>
<name>1315</name>
</trkpt>
<trkpt lat="49.386180" lon="9.408348">
<ele>382.5</ele>
<speed>38.6</speed>
<course>253.3</course>
<desc>Speed 38.6 km/h Distance 36.80 km</desc>
<time>2011-03-24T15:39:00.01</time>
<name>1316</name>
</trkpt>
<trkpt lat="49.386155" lon="9.408220">
<ele>381.5</ele>
<speed>35.0</speed>
<course>250.8</course>
<desc>Speed 35.0 km/h Distance 36.81 km</desc>
<time>2011-03-24T15:39:01.01</time>
<name>1317</name>
</trkpt>
<trkpt lat="49.386130" lon="9.408110">
<ele>381.0</ele>
<speed>30.6</speed>
<course>251.5</course>
<desc>Speed 30.6 km/h Distance 36.82 km</desc>
<time>2011-03-24T15:39:02.01</time>
<name>1318</name>
</trkpt>
<trkpt lat="49.386110" lon="9.408018">
<ele>380.0</ele>
<speed>25.7</speed>
<course>245.3</course>
<desc>Speed 25.7 km/h Distance 36.82 km</desc>
<time>2011-03-24T15:39:03.01</time>
<name>1319</name>
</trkpt>
<trkpt lat="49.386090" lon="9.407952">
<ele>381.0</ele>
<speed>19.0</speed>
<course>247.6</course>
<desc>Speed 19.0 km/h Distance 36.83 km</desc>
<time>2011-03-24T15:39:04.01</time>
<name>1320</name>
</trkpt>
<trkpt lat="49.386072" lon="9.407883">
<ele>380.5</ele>
<speed>20.1</speed>
<course>245.6</course>
<desc>Speed 20.1 km/h Distance 36.83 km</desc>
<time>2011-03-24T15:39:05.01</time>
<name>1321</name>
</trkpt>
<trkpt lat="49.386050" lon="9.407810">
<ele>380.0</ele>
<speed>21.2</speed>
<course>243.8</course>
<desc>Speed 21.2 km/h Distance 36.84 km</desc>
<time>2011-03-24T15:39:06.01</time>
<name>1322</name>
</trkpt>
<trkpt lat="49.386023" lon="9.407727">
<ele>379.5</ele>
<speed>24.4</speed>
<course>248.1</course>
<desc>Speed 24.4 km/h Distance 36.85 km</desc>
<time>2011-03-24T15:39:07.01</time>
<name>1323</name>
</trkpt>
<trkpt lat="49.385997" lon="9.407625">
<ele>378.5</ele>
<speed>28.9</speed>
<course>251.7</course>
<desc>Speed 28.9 km/h Distance 36.86 km</desc>
<time>2011-03-24T15:39:08.01</time>
<name>1324</name>
</trkpt>
<trkpt lat="49.385968" lon="9.407493">
<ele>378.0</ele>
<speed>36.3</speed>
<course>244.3</course>
<desc>Speed 36.3 km/h Distance 36.87 km</desc>
<time>2011-03-24T15:39:09.00</time>
<name>1325</name>
</trkpt>
<trkpt lat="49.385915" lon="9.407323">
<ele>377.5</ele>
<speed>48.0</speed>
<course>248.6</course>
<desc>Speed 48.0 km/h Distance 36.88 km</desc>
<time>2011-03-24T15:39:10.01</time>
<name>1326</name>
</trkpt>
<trkpt lat="49.385875" lon="9.407167">
<ele>377.0</ele>
<speed>43.5</speed>
<course>248.0</course>
<desc>Speed 43.5 km/h Distance 36.89 km</desc>
<time>2011-03-24T15:39:11.01</time>
<name>1327</name>
</trkpt>
<trkpt lat="49.385833" lon="9.407008">
<ele>376.5</ele>
<speed>44.6</speed>
<course>247.4</course>
<desc>Speed 44.6 km/h Distance 36.90 km</desc>
<time>2011-03-24T15:39:12.00</time>
<name>1328</name>
</trkpt>
<trkpt lat="49.385790" lon="9.406848">
<ele>376.0</ele>
<speed>44.9</speed>
<course>247.7</course>
<desc>Speed 44.9 km/h Distance 36.92 km</desc>
<time>2011-03-24T15:39:13.00</time>
<name>1329</name>
</trkpt>
<trkpt lat="49.385750" lon="9.406698">
<ele>376.0</ele>
<speed>42.4</speed>
<course>246.3</course>
<desc>Speed 42.4 km/h Distance 36.93 km</desc>
<time>2011-03-24T15:39:14.00</time>
<name>1330</name>
</trkpt>
<trkpt lat="49.385710" lon="9.406558">
<ele>375.5</ele>
<speed>39.9</speed>
<course>247.0</course>
<desc>Speed 39.9 km/h Distance 36.94 km</desc>
<time>2011-03-24T15:39:15.00</time>
<name>1331</name>
</trkpt>
<trkpt lat="49.385675" lon="9.406432">
<ele>375.0</ele>
<speed>36.2</speed>
<course>247.6</course>
<desc>Speed 36.2 km/h Distance 36.95 km</desc>
<time>2011-03-24T15:39:16.00</time>
<name>1332</name>
</trkpt>
<trkpt lat="49.385645" lon="9.406320">
<ele>375.0</ele>
<speed>31.0</speed>
<course>255.0</course>
<desc>Speed 31.0 km/h Distance 36.96 km</desc>
<time>2011-03-24T15:39:17.00</time>
<name>1333</name>
</trkpt>
<trkpt lat="49.385632" lon="9.406243">
<ele>374.5</ele>
<speed>21.1</speed>
<course>240.1</course>
<desc>Speed 21.1 km/h Distance 36.96 km</desc>
<time>2011-03-24T15:39:17.99</time>
<name>1334</name>
</trkpt>
<trkpt lat="49.385602" lon="9.406163">
<ele>375.5</ele>
<speed>23.7</speed>
<course>237.2</course>
<desc>Speed 23.7 km/h Distance 36.97 km</desc>
<time>2011-03-24T15:39:19.00</time>
<name>1335</name>
</trkpt>
<trkpt lat="49.385580" lon="9.406112">
<ele>375.0</ele>
<speed>16.3</speed>
<course>224.3</course>
<desc>Speed 16.3 km/h Distance 36.97 km</desc>
<time>2011-03-24T15:39:20.00</time>
<name>1336</name>
</trkpt>
<trkpt lat="49.385560" lon="9.406082">
<ele>373.5</ele>
<speed>12.0</speed>
<course>180.8</course>
<desc>Speed 12.0 km/h Distance 36.98 km</desc>
<time>2011-03-24T15:39:21.00</time>
<name>1337</name>
</trkpt>
<trkpt lat="49.385405" lon="9.406078">
<ele>375.0</ele>
<speed>35.9</speed>
<course>166.0</course>
<desc>Speed 35.9 km/h Distance 37.00 km</desc>
<time>2011-03-24T15:39:23.00</time>
<name>1338</name>
</trkpt>
<trkpt lat="49.385292" lon="9.406122">
<ele>373.5</ele>
<speed>47.2</speed>
<course>167.3</course>
<desc>Speed 47.2 km/h Distance 37.01 km</desc>
<time>2011-03-24T15:39:23.99</time>
<name>1339</name>
</trkpt>
<trkpt lat="49.384958" lon="9.406237">
<ele>372.5</ele>
<speed>75.6</speed>
<course>161.1</course>
<desc>Speed 75.6 km/h Distance 37.05 km</desc>
<time>2011-03-24T15:39:25.99</time>
<name>1340</name>
</trkpt>
<trkpt lat="49.384755" lon="9.406343">
<ele>372.0</ele>
<speed>87.3</speed>
<course>161.7</course>
<desc>Speed 87.3 km/h Distance 37.07 km</desc>
<time>2011-03-24T15:39:27.00</time>
<name>1341</name>
</trkpt>
<trkpt lat="49.384552" lon="9.406447">
<ele>371.5</ele>
<speed>86.6</speed>
<course>162.9</course>
<desc>Speed 86.6 km/h Distance 37.09 km</desc>
<time>2011-03-24T15:39:27.99</time>
<name>1342</name>
</trkpt>
<trkpt lat="49.384337" lon="9.406548">
<ele>369.5</ele>
<speed>90.6</speed>
<course>158.5</course>
<desc>Speed 90.6 km/h Distance 37.12 km</desc>
<time>2011-03-24T15:39:29.00</time>
<name>1343</name>
</trkpt>
<trkpt lat="49.383852" lon="9.406842">
<ele>367.5</ele>
<speed>105</speed>
<course>156.3</course>
<desc>Speed 105 km/h Distance 37.18 km</desc>
<time>2011-03-24T15:39:30.99</time>
<name>1344</name>
</trkpt>
<trkpt lat="49.383595" lon="9.407015">
<ele>367.5</ele>
<speed>113</speed>
<course>152.5</course>
<desc>Speed 113 km/h Distance 37.21 km</desc>
<time>2011-03-24T15:39:31.98</time>
<name>1345</name>
</trkpt>
<trkpt lat="49.383335" lon="9.407223">
<ele>367.0</ele>
<speed>118</speed>
<course>150.0</course>
<desc>Speed 118 km/h Distance 37.24 km</desc>
<time>2011-03-24T15:39:33.00</time>
<name>1346</name>
</trkpt>
<trkpt lat="49.383082" lon="9.407448">
<ele>367.0</ele>
<speed>118</speed>
<course>151.5</course>
<desc>Speed 118 km/h Distance 37.27 km</desc>
<time>2011-03-24T15:39:34.00</time>
<name>1347</name>
</trkpt>
<trkpt lat="49.382828" lon="9.407660">
<ele>367.0</ele>
<speed>116</speed>
<course>150.5</course>
<desc>Speed 116 km/h Distance 37.31 km</desc>
<time>2011-03-24T15:39:34.99</time>
<name>1348</name>
</trkpt>
<trkpt lat="49.382573" lon="9.407882">
<ele>367.0</ele>
<speed>118</speed>
<course>149.1</course>
<desc>Speed 118 km/h Distance 37.34 km</desc>
<time>2011-03-24T15:39:35.99</time>
<name>1349</name>
</trkpt>
<trkpt lat="49.382310" lon="9.408123">
<ele>368.0</ele>
<speed>123</speed>
<course>150.0</course>
<desc>Speed 123 km/h Distance 37.37 km</desc>
<time>2011-03-24T15:39:36.99</time>
<name>1350</name>
</trkpt>
<trkpt lat="49.382042" lon="9.408362">
<ele>368.0</ele>
<speed>124</speed>
<course>149.4</course>
<desc>Speed 124 km/h Distance 37.41 km</desc>
<time>2011-03-24T15:39:37.99</time>
<name>1351</name>
</trkpt>
<trkpt lat="49.381763" lon="9.408615">
<ele>370.0</ele>
<speed>130</speed>
<course>148.5</course>
<desc>Speed 130 km/h Distance 37.44 km</desc>
<time>2011-03-24T15:39:38.99</time>
<name>1352</name>
</trkpt>
<trkpt lat="49.381480" lon="9.408882">
<ele>370.5</ele>
<speed>133</speed>
<course>150.9</course>
<desc>Speed 133 km/h Distance 37.48 km</desc>
<time>2011-03-24T15:39:39.99</time>
<name>1353</name>
</trkpt>
<trkpt lat="49.381180" lon="9.409138">
<ele>372.5</ele>
<speed>138</speed>
<course>152.5</course>
<desc>Speed 138 km/h Distance 37.52 km</desc>
<time>2011-03-24T15:39:40.99</time>
<name>1354</name>
</trkpt>
<trkpt lat="49.380870" lon="9.409387">
<ele>374.0</ele>
<speed>140</speed>
<course>153.9</course>
<desc>Speed 140 km/h Distance 37.56 km</desc>
<time>2011-03-24T15:39:41.99</time>
<name>1355</name>
</trkpt>
<trkpt lat="49.380555" lon="9.409623">
<ele>376.0</ele>
<speed>141</speed>
<course>155.8</course>
<desc>Speed 141 km/h Distance 37.60 km</desc>
<time>2011-03-24T15:39:42.98</time>
<name>1356</name>
</trkpt>
<trkpt lat="49.380233" lon="9.409845">
<ele>378.0</ele>
<speed>141</speed>
<course>157.2</course>
<desc>Speed 141 km/h Distance 37.64 km</desc>
<time>2011-03-24T15:39:43.99</time>
<name>1357</name>
</trkpt>
<trkpt lat="49.379913" lon="9.410052">
<ele>380.5</ele>
<speed>139</speed>
<course>159.3</course>
<desc>Speed 139 km/h Distance 37.67 km</desc>
<time>2011-03-24T15:39:44.99</time>
<name>1358</name>
</trkpt>
<trkpt lat="49.379600" lon="9.410233">
<ele>381.0</ele>
<speed>133</speed>
<course>160.4</course>
<desc>Speed 133 km/h Distance 37.71 km</desc>
<time>2011-03-24T15:39:45.98</time>
<name>1359</name>
</trkpt>
<trkpt lat="49.379287" lon="9.410405">
<ele>383.0</ele>
<speed>133</speed>
<course>164.3</course>
<desc>Speed 133 km/h Distance 37.75 km</desc>
<time>2011-03-24T15:39:46.98</time>
<name>1360</name>
</trkpt>
<trkpt lat="49.378975" lon="9.410540">
<ele>384.0</ele>
<speed>129</speed>
<course>162.9</course>
<desc>Speed 129 km/h Distance 37.78 km</desc>
<time>2011-03-24T15:39:47.99</time>
<name>1361</name>
</trkpt>
<trkpt lat="49.378672" lon="9.410683">
<ele>384.5</ele>
<speed>128</speed>
<course>163.1</course>
<desc>Speed 128 km/h Distance 37.82 km</desc>
<time>2011-03-24T15:39:48.98</time>
<name>1362</name>
</trkpt>
<trkpt lat="49.378378" lon="9.410820">
<ele>384.5</ele>
<speed>122</speed>
<course>164.3</course>
<desc>Speed 122 km/h Distance 37.85 km</desc>
<time>2011-03-24T15:39:49.99</time>
<name>1363</name>
</trkpt>
<trkpt lat="49.378085" lon="9.410947">
<ele>384.5</ele>
<speed>122</speed>
<course>166.4</course>
<desc>Speed 122 km/h Distance 37.89 km</desc>
<time>2011-03-24T15:39:50.98</time>
<name>1364</name>
</trkpt>
<trkpt lat="49.377788" lon="9.411057">
<ele>384.5</ele>
<speed>122</speed>
<course>165.2</course>
<desc>Speed 122 km/h Distance 37.92 km</desc>
<time>2011-03-24T15:39:51.99</time>
<name>1365</name>
</trkpt>
<trkpt lat="49.377502" lon="9.411173">
<ele>385.0</ele>
<speed>118</speed>
<course>163.9</course>
<desc>Speed 118 km/h Distance 37.95 km</desc>
<time>2011-03-24T15:39:52.98</time>
<name>1366</name>
</trkpt>
<trkpt lat="49.377223" lon="9.411297">
<ele>385.0</ele>
<speed>116</speed>
<course>162.4</course>
<desc>Speed 116 km/h Distance 37.99 km</desc>
<time>2011-03-24T15:39:53.98</time>
<name>1367</name>
</trkpt>
<trkpt lat="49.376950" lon="9.411430">
<ele>385.0</ele>
<speed>115</speed>
<course>162.7</course>
<desc>Speed 115 km/h Distance 38.02 km</desc>
<time>2011-03-24T15:39:54.98</time>
<name>1368</name>
</trkpt>
<trkpt lat="49.376682" lon="9.411558">
<ele>383.5</ele>
<speed>112</speed>
<course>161.1</course>
<desc>Speed 112 km/h Distance 38.05 km</desc>
<time>2011-03-24T15:39:56.00</time>
<name>1369</name>
</trkpt>
<trkpt lat="49.376412" lon="9.411700">
<ele>383.0</ele>
<speed>114</speed>
<course>158.7</course>
<desc>Speed 114 km/h Distance 38.08 km</desc>
<time>2011-03-24T15:39:56.97</time>
<name>1370</name>
</trkpt>
<trkpt lat="49.376137" lon="9.411865">
<ele>383.0</ele>
<speed>118</speed>
<course>157.4</course>
<desc>Speed 118 km/h Distance 38.11 km</desc>
<time>2011-03-24T15:39:57.97</time>
<name>1371</name>
</trkpt>
<trkpt lat="49.375863" lon="9.412040">
<ele>383.0</ele>
<speed>119</speed>
<course>157.8</course>
<desc>Speed 119 km/h Distance 38.15 km</desc>
<time>2011-03-24T15:39:58.98</time>
<name>1372</name>
</trkpt>
<trkpt lat="49.375600" lon="9.412205">
<ele>381.0</ele>
<speed>114</speed>
<course>153.9</course>
<desc>Speed 114 km/h Distance 38.18 km</desc>
<time>2011-03-24T15:39:59.97</time>
<name>1373</name>
</trkpt>
<trkpt lat="49.375352" lon="9.412392">
<ele>381.5</ele>
<speed>111</speed>
<course>151.9</course>
<desc>Speed 111 km/h Distance 38.21 km</desc>
<time>2011-03-24T15:40:00.97</time>
<name>1374</name>
</trkpt>
<trkpt lat="49.375112" lon="9.412588">
<ele>381.5</ele>
<speed>109</speed>
<course>147.8</course>
<desc>Speed 109 km/h Distance 38.24 km</desc>
<time>2011-03-24T15:40:01.97</time>
<name>1375</name>
</trkpt>
<trkpt lat="49.374910" lon="9.412783">
<ele>381.5</ele>
<speed>95.9</speed>
<course>147.8</course>
<desc>Speed 95.9 km/h Distance 38.27 km</desc>
<time>2011-03-24T15:40:02.97</time>
<name>1376</name>
</trkpt>
<trkpt lat="49.374707" lon="9.412980">
<ele>380.0</ele>
<speed>96.9</speed>
<course>141.4</course>
<desc>Speed 96.9 km/h Distance 38.29 km</desc>
<time>2011-03-24T15:40:03.97</time>
<name>1377</name>
</trkpt>
<trkpt lat="49.374502" lon="9.413232">
<ele>380.0</ele>
<speed>106</speed>
<course>141.8</course>
<desc>Speed 106 km/h Distance 38.32 km</desc>
<time>2011-03-24T15:40:04.97</time>
<name>1378</name>
</trkpt>
<trkpt lat="49.374300" lon="9.413475">
<ele>379.5</ele>
<speed>104</speed>
<course>140.2</course>
<desc>Speed 104 km/h Distance 38.35 km</desc>
<time>2011-03-24T15:40:05.97</time>
<name>1379</name>
</trkpt>
<trkpt lat="49.374108" lon="9.413720">
<ele>377.0</ele>
<speed>102</speed>
<course>140.9</course>
<desc>Speed 102 km/h Distance 38.38 km</desc>
<time>2011-03-24T15:40:06.97</time>
<name>1380</name>
</trkpt>
<trkpt lat="49.373920" lon="9.413955">
<ele>376.0</ele>
<speed>100</speed>
<course>140.4</course>
<desc>Speed 100 km/h Distance 38.41 km</desc>
<time>2011-03-24T15:40:07.97</time>
<name>1381</name>
</trkpt>
<trkpt lat="49.373735" lon="9.414190">
<ele>376.5</ele>
<speed>95.7</speed>
<course>142.2</course>
<desc>Speed 95.7 km/h Distance 38.43 km</desc>
<time>2011-03-24T15:40:08.97</time>
<name>1382</name>
</trkpt>
<trkpt lat="49.373560" lon="9.414398">
<ele>373.5</ele>
<speed>91.8</speed>
<course>143.5</course>
<desc>Speed 91.8 km/h Distance 38.46 km</desc>
<time>2011-03-24T15:40:09.97</time>
<name>1383</name>
</trkpt>
<trkpt lat="49.373387" lon="9.414595">
<ele>371.5</ele>
<speed>91.5</speed>
<course>140.5</course>
<desc>Speed 91.5 km/h Distance 38.48 km</desc>
<time>2011-03-24T15:40:10.96</time>
<name>1384</name>
</trkpt>
<trkpt lat="49.373210" lon="9.414818">
<ele>371.5</ele>
<speed>91.5</speed>
<course>143.1</course>
<desc>Speed 91.5 km/h Distance 38.51 km</desc>
<time>2011-03-24T15:40:11.96</time>
<name>1385</name>
</trkpt>
<trkpt lat="49.373025" lon="9.415032">
<ele>369.5</ele>
<speed>93.9</speed>
<course>147.1</course>
<desc>Speed 93.9 km/h Distance 38.53 km</desc>
<time>2011-03-24T15:40:12.97</time>
<name>1386</name>
</trkpt>
<trkpt lat="49.372800" lon="9.415255">
<ele>368.0</ele>
<speed>108</speed>
<course>148.1</course>
<desc>Speed 108 km/h Distance 38.56 km</desc>
<time>2011-03-24T15:40:13.97</time>
<name>1387</name>
</trkpt>
<trkpt lat="49.372577" lon="9.415468">
<ele>367.0</ele>
<speed>108</speed>
<course>148.5</course>
<desc>Speed 108 km/h Distance 38.59 km</desc>
<time>2011-03-24T15:40:14.97</time>
<name>1388</name>
</trkpt>
<trkpt lat="49.372347" lon="9.415685">
<ele>366.5</ele>
<speed>108</speed>
<course>149.4</course>
<desc>Speed 108 km/h Distance 38.62 km</desc>
<time>2011-03-24T15:40:15.97</time>
<name>1389</name>
</trkpt>
<trkpt lat="49.372127" lon="9.415885">
<ele>365.5</ele>
<speed>105</speed>
<course>149.4</course>
<desc>Speed 105 km/h Distance 38.65 km</desc>
<time>2011-03-24T15:40:16.97</time>
<name>1390</name>
</trkpt>
<trkpt lat="49.371907" lon="9.416085">
<ele>365.0</ele>
<speed>104</speed>
<course>149.4</course>
<desc>Speed 104 km/h Distance 38.68 km</desc>
<time>2011-03-24T15:40:17.96</time>
<name>1391</name>
</trkpt>
<trkpt lat="49.371692" lon="9.416280">
<ele>364.5</ele>
<speed>102</speed>
<course>151.4</course>
<desc>Speed 102 km/h Distance 38.71 km</desc>
<time>2011-03-24T15:40:18.97</time>
<name>1392</name>
</trkpt>
<trkpt lat="49.371345" lon="9.416570">
<ele>361.5</ele>
<speed>78.6</speed>
<course>153.8</course>
<desc>Speed 78.6 km/h Distance 38.75 km</desc>
<time>2011-03-24T15:40:20.97</time>
<name>1393</name>
</trkpt>
<trkpt lat="49.371188" lon="9.416688">
<ele>358.0</ele>
<speed>74.2</speed>
<course>150.8</course>
<desc>Speed 74.2 km/h Distance 38.77 km</desc>
<time>2011-03-24T15:40:21.96</time>
<name>1394</name>
</trkpt>
<trkpt lat="49.371035" lon="9.416820">
<ele>356.0</ele>
<speed>72.7</speed>
<course>151.3</course>
<desc>Speed 72.7 km/h Distance 38.79 km</desc>
<time>2011-03-24T15:40:22.96</time>
<name>1395</name>
</trkpt>
<trkpt lat="49.370890" lon="9.416942">
<ele>354.0</ele>
<speed>68.0</speed>
<course>155.6</course>
<desc>Speed 68.0 km/h Distance 38.81 km</desc>
<time>2011-03-24T15:40:23.96</time>
<name>1396</name>
</trkpt>
<trkpt lat="49.370758" lon="9.417033">
<ele>349.5</ele>
<speed>68.5</speed>
<course>156.2</course>
<desc>Speed 68.5 km/h Distance 38.82 km</desc>
<time>2011-03-24T15:40:24.96</time>
<name>1397</name>
</trkpt>
<trkpt lat="49.370552" lon="9.417173">
<ele>344.0</ele>
<speed>46.2</speed>
<course>148.2</course>
<desc>Speed 46.2 km/h Distance 38.85 km</desc>
<time>2011-03-24T15:40:26.95</time>
<name>1398</name>
</trkpt>
<trkpt lat="49.370443" lon="9.417277">
<ele>343.5</ele>
<speed>51.0</speed>
<course>163.4</course>
<desc>Speed 51.0 km/h Distance 38.86 km</desc>
<time>2011-03-24T15:40:27.96</time>
<name>1399</name>
</trkpt>
<trkpt lat="49.370305" lon="9.417340">
<ele>344.0</ele>
<speed>25.2</speed>
<course>193.9</course>
<desc>Speed 25.2 km/h Distance 38.88 km</desc>
<time>2011-03-24T15:40:29.96</time>
<name>1400</name>
</trkpt>
<trkpt lat="49.370270" lon="9.417327">
<ele>343.5</ele>
<speed>15.0</speed>
<course>262.4</course>
<desc>Speed 15.0 km/h Distance 38.88 km</desc>
<time>2011-03-24T15:40:30.96</time>
<name>1401</name>
</trkpt>
<trkpt lat="49.370267" lon="9.417288">
<ele>342.0</ele>
<speed>7.1</speed>
<course>319.1</course>
<desc>Speed 7.1 km/h Distance 38.89 km</desc>
<time>2011-03-24T15:40:31.96</time>
<name>1402</name>
</trkpt>
<trkpt lat="49.370292" lon="9.417255">
<ele>340.5</ele>
<speed>7.9</speed>
<course>333.9</course>
<desc>Speed 7.9 km/h Distance 38.89 km</desc>
<time>2011-03-24T15:40:32.95</time>
<name>1403</name>
</trkpt>
<trkpt lat="49.370312" lon="9.417240">
<ele>340.0</ele>
<speed>7.9</speed>
<course>317.1</course>
<desc>Speed 7.9 km/h Distance 38.89 km</desc>
<time>2011-03-24T15:40:33.96</time>
<name>1404</name>
</trkpt>
<trkpt lat="49.370323" lon="9.417223">
<ele>339.0</ele>
<speed>7.9</speed>
<course>297.3</course>
<desc>Speed 7.9 km/h Distance 38.89 km</desc>
<time>2011-03-24T15:40:34.96</time>
<name>1405</name>
</trkpt>
<trkpt lat="49.370385" lon="9.417040">
<ele>334.0</ele>
<speed>7.9</speed>
<course>260.2</course>
<desc>Speed 7.9 km/h Distance 38.91 km</desc>
<time>2011-03-24T15:40:36.96</time>
<name>1406</name>
</trkpt>
<trkpt lat="49.370167" lon="9.415105">
<ele>322.5</ele>
<speed>109</speed>
<course>243.8</course>
<desc>Speed 109 km/h Distance 39.05 km</desc>
<time>2011-03-24T15:40:42.95</time>
<name>1407</name>
</trkpt>
<trkpt lat="49.369892" lon="9.414248">
<ele>322.0</ele>
<speed>119</speed>
<course>238.1</course>
<desc>Speed 119 km/h Distance 39.12 km</desc>
<time>2011-03-24T15:40:44.95</time>
<name>1408</name>
</trkpt>
<trkpt lat="49.369535" lon="9.413368">
<ele>321.0</ele>
<speed>113</speed>
<course>234.3</course>
<desc>Speed 113 km/h Distance 39.20 km</desc>
<time>2011-03-24T15:40:46.95</time>
<name>1409</name>
</trkpt>
<trkpt lat="49.369353" lon="9.412980">
<ele>319.5</ele>
<speed>117</speed>
<course>233.0</course>
<desc>Speed 117 km/h Distance 39.23 km</desc>
<time>2011-03-24T15:40:47.94</time>
<name>1410</name>
</trkpt>
<trkpt lat="49.369162" lon="9.412590">
<ele>318.5</ele>
<speed>120</speed>
<course>231.9</course>
<desc>Speed 120 km/h Distance 39.27 km</desc>
<time>2011-03-24T15:40:48.95</time>
<name>1411</name>
</trkpt>
<trkpt lat="49.368972" lon="9.412218">
<ele>318.5</ele>
<speed>119</speed>
<course>232.0</course>
<desc>Speed 119 km/h Distance 39.30 km</desc>
<time>2011-03-24T15:40:49.95</time>
<name>1412</name>
</trkpt>
<trkpt lat="49.368785" lon="9.411852">
<ele>318.5</ele>
<speed>120</speed>
<course>232.7</course>
<desc>Speed 120 km/h Distance 39.33 km</desc>
<time>2011-03-24T15:40:50.94</time>
<name>1413</name>
</trkpt>
<trkpt lat="49.368605" lon="9.411488">
<ele>318.5</ele>
<speed>118</speed>
<course>234.2</course>
<desc>Speed 118 km/h Distance 39.37 km</desc>
<time>2011-03-24T15:40:51.94</time>
<name>1414</name>
</trkpt>
<trkpt lat="49.368440" lon="9.411137">
<ele>318.0</ele>
<speed>111</speed>
<course>242.9</course>
<desc>Speed 111 km/h Distance 39.40 km</desc>
<time>2011-03-24T15:40:52.94</time>
<name>1415</name>
</trkpt>
<trkpt lat="49.368225" lon="9.410492">
<ele>318.5</ele>
<speed>89.2</speed>
<course>244.5</course>
<desc>Speed 89.2 km/h Distance 39.45 km</desc>
<time>2011-03-24T15:40:54.94</time>
<name>1416</name>
</trkpt>
<trkpt lat="49.368127" lon="9.410175">
<ele>318.0</ele>
<speed>90.9</speed>
<course>248.0</course>
<desc>Speed 90.9 km/h Distance 39.48 km</desc>
<time>2011-03-24T15:40:55.94</time>
<name>1417</name>
</trkpt>
<trkpt lat="49.368037" lon="9.409833">
<ele>317.5</ele>
<speed>95.2</speed>
<course>253.7</course>
<desc>Speed 95.2 km/h Distance 39.50 km</desc>
<time>2011-03-24T15:40:56.93</time>
<name>1418</name>
</trkpt>
<trkpt lat="49.367972" lon="9.409492">
<ele>317.5</ele>
<speed>91.5</speed>
<course>255.4</course>
<desc>Speed 91.5 km/h Distance 39.53 km</desc>
<time>2011-03-24T15:40:57.93</time>
<name>1419</name>
</trkpt>
<trkpt lat="49.367910" lon="9.409128">
<ele>317.5</ele>
<speed>96.9</speed>
<course>256.0</course>
<desc>Speed 96.9 km/h Distance 39.56 km</desc>
<time>2011-03-24T15:40:58.94</time>
<name>1420</name>
</trkpt>
<trkpt lat="49.367793" lon="9.408410">
<ele>319.0</ele>
<speed>103</speed>
<course>254.3</course>
<desc>Speed 103 km/h Distance 39.61 km</desc>
<time>2011-03-24T15:41:00.94</time>
<name>1421</name>
</trkpt>
<trkpt lat="49.367717" lon="9.407992">
<ele>319.5</ele>
<speed>102</speed>
<course>253.8</course>
<desc>Speed 102 km/h Distance 39.64 km</desc>
<time>2011-03-24T15:41:01.93</time>
<name>1422</name>
</trkpt>
<trkpt lat="49.367643" lon="9.407605">
<ele>318.0</ele>
<speed>99.4</speed>
<course>251.0</course>
<desc>Speed 99.4 km/h Distance 39.67 km</desc>
<time>2011-03-24T15:41:02.94</time>
<name>1423</name>
</trkpt>
<trkpt lat="49.367557" lon="9.407218">
<ele>317.5</ele>
<speed>99.4</speed>
<course>241.7</course>
<desc>Speed 99.4 km/h Distance 39.70 km</desc>
<time>2011-03-24T15:41:03.94</time>
<name>1424</name>
</trkpt>
<trkpt lat="49.367430" lon="9.406857">
<ele>317.5</ele>
<speed>100</speed>
<course>236.7</course>
<desc>Speed 100 km/h Distance 39.73 km</desc>
<time>2011-03-24T15:41:04.94</time>
<name>1425</name>
</trkpt>
<trkpt lat="49.367288" lon="9.406525">
<ele>318.5</ele>
<speed>97.8</speed>
<course>234.1</course>
<desc>Speed 97.8 km/h Distance 39.76 km</desc>
<time>2011-03-24T15:41:05.94</time>
<name>1426</name>
</trkpt>
<trkpt lat="49.367138" lon="9.406207">
<ele>318.0</ele>
<speed>99.1</speed>
<course>226.5</course>
<desc>Speed 99.1 km/h Distance 39.79 km</desc>
<time>2011-03-24T15:41:06.94</time>
<name>1427</name>
</trkpt>
<trkpt lat="49.366958" lon="9.405915">
<ele>318.5</ele>
<speed>103</speed>
<course>222.2</course>
<desc>Speed 103 km/h Distance 39.82 km</desc>
<time>2011-03-24T15:41:07.93</time>
<name>1428</name>
</trkpt>
<trkpt lat="49.366758" lon="9.405637">
<ele>318.0</ele>
<speed>107</speed>
<course>215.6</course>
<desc>Speed 107 km/h Distance 39.85 km</desc>
<time>2011-03-24T15:41:08.93</time>
<name>1429</name>
</trkpt>
<trkpt lat="49.366520" lon="9.405375">
<ele>318.0</ele>
<speed>115</speed>
<course>211.1</course>
<desc>Speed 115 km/h Distance 39.88 km</desc>
<time>2011-03-24T15:41:09.93</time>
<name>1430</name>
</trkpt>
<trkpt lat="49.366250" lon="9.405125">
<ele>318.0</ele>
<speed>123</speed>
<course>209.4</course>
<desc>Speed 123 km/h Distance 39.91 km</desc>
<time>2011-03-24T15:41:10.93</time>
<name>1431</name>
</trkpt>
<trkpt lat="49.365980" lon="9.404892">
<ele>317.5</ele>
<speed>121</speed>
<course>210.5</course>
<desc>Speed 121 km/h Distance 39.95 km</desc>
<time>2011-03-24T15:41:11.93</time>
<name>1432</name>
</trkpt>
<trkpt lat="49.365705" lon="9.404643">
<ele>317.5</ele>
<speed>129</speed>
<course>209.1</course>
<desc>Speed 129 km/h Distance 39.98 km</desc>
<time>2011-03-24T15:41:12.93</time>
<name>1433</name>
</trkpt>
<trkpt lat="49.365452" lon="9.404427">
<ele>317.5</ele>
<speed>116</speed>
<course>208.8</course>
<desc>Speed 116 km/h Distance 40.02 km</desc>
<time>2011-03-24T15:41:13.93</time>
<name>1434</name>
</trkpt>
<trkpt lat="49.365215" lon="9.404227">
<ele>317.0</ele>
<speed>109</speed>
<course>209.5</course>
<desc>Speed 109 km/h Distance 40.05 km</desc>
<time>2011-03-24T15:41:14.92</time>
<name>1435</name>
</trkpt>
<trkpt lat="49.364985" lon="9.404027">
<ele>317.5</ele>
<speed>112</speed>
<course>212.3</course>
<desc>Speed 112 km/h Distance 40.08 km</desc>
<time>2011-03-24T15:41:15.93</time>
<name>1436</name>
</trkpt>
<trkpt lat="49.364753" lon="9.403802">
<ele>317.5</ele>
<speed>111</speed>
<course>215.9</course>
<desc>Speed 111 km/h Distance 40.11 km</desc>
<time>2011-03-24T15:41:16.93</time>
<name>1437</name>
</trkpt>
<trkpt lat="49.364340" lon="9.403342">
<ele>318.0</ele>
<speed>82.7</speed>
<course>233.1</course>
<desc>Speed 82.7 km/h Distance 40.16 km</desc>
<time>2011-03-24T15:41:19.92</time>
<name>1438</name>
</trkpt>
<trkpt lat="49.364108" lon="9.402868">
<ele>318.0</ele>
<speed>82.7</speed>
<course>249.4</course>
<desc>Speed 82.7 km/h Distance 40.21 km</desc>
<time>2011-03-24T15:41:23.92</time>
<name>1439</name>
</trkpt>
<trkpt lat="49.364023" lon="9.402522">
<ele>318.0</ele>
<speed>88.2</speed>
<course>243.2</course>
<desc>Speed 88.2 km/h Distance 40.23 km</desc>
<time>2011-03-24T15:41:24.92</time>
<name>1440</name>
</trkpt>
<trkpt lat="49.363923" lon="9.402218">
<ele>318.0</ele>
<speed>82.5</speed>
<course>225.0</course>
<desc>Speed 82.5 km/h Distance 40.26 km</desc>
<time>2011-03-24T15:41:25.92</time>
<name>1441</name>
</trkpt>
<trkpt lat="49.363348" lon="9.401337">
<ele>320.5</ele>
<speed>88.3</speed>
<course>214.5</course>
<desc>Speed 88.3 km/h Distance 40.35 km</desc>
<time>2011-03-24T15:41:28.92</time>
<name>1442</name>
</trkpt>
<trkpt lat="49.362880" lon="9.400842">
<ele>319.5</ele>
<speed>88.3</speed>
<course>211.5</course>
<desc>Speed 88.3 km/h Distance 40.41 km</desc>
<time>2011-03-24T15:41:31.91</time>
<name>1443</name>
</trkpt>
<trkpt lat="49.362560" lon="9.400540">
<ele>319.5</ele>
<speed>88.3</speed>
<course>214.9</course>
<desc>Speed 88.3 km/h Distance 40.45 km</desc>
<time>2011-03-24T15:41:34.90</time>
<name>1444</name>
</trkpt>
<trkpt lat="49.362395" lon="9.400363">
<ele>323.0</ele>
<speed>88.3</speed>
<course>203.9</course>
<desc>Speed 88.3 km/h Distance 40.48 km</desc>
<time>2011-03-24T15:41:35.90</time>
<name>1445</name>
</trkpt>
<trkpt lat="49.360687" lon="9.399202">
<ele>316.5</ele>
<speed>167</speed>
<course>211.0</course>
<desc>Speed 167 km/h Distance 40.68 km</desc>
<time>2011-03-24T15:41:40.91</time>
<name>1446</name>
</trkpt>
<trkpt lat="49.359492" lon="9.398100">
<ele>312.5</ele>
<speed>110</speed>
<course>194.5</course>
<desc>Speed 110 km/h Distance 40.84 km</desc>
<time>2011-03-24T15:41:45.90</time>
<name>1447</name>
</trkpt>
<trkpt lat="49.359207" lon="9.397987">
<ele>311.5</ele>
<speed>105</speed>
<course>188.1</course>
<desc>Speed 105 km/h Distance 40.87 km</desc>
<time>2011-03-24T15:41:46.89</time>
<name>1448</name>
</trkpt>
<trkpt lat="49.358563" lon="9.397847">
<ele>310.0</ele>
<speed>106</speed>
<course>185.9</course>
<desc>Speed 106 km/h Distance 40.94 km</desc>
<time>2011-03-24T15:41:48.89</time>
<name>1449</name>
</trkpt>
<trkpt lat="49.358312" lon="9.397807">
<ele>309.5</ele>
<speed>99.7</speed>
<course>190.5</course>
<desc>Speed 99.7 km/h Distance 40.97 km</desc>
<time>2011-03-24T15:41:49.90</time>
<name>1450</name>
</trkpt>
<trkpt lat="49.358088" lon="9.397743">
<ele>309.5</ele>
<speed>89.2</speed>
<course>185.4</course>
<desc>Speed 89.2 km/h Distance 41.00 km</desc>
<time>2011-03-24T15:41:50.90</time>
<name>1451</name>
</trkpt>
<trkpt lat="49.357870" lon="9.397712">
<ele>309.5</ele>
<speed>87.3</speed>
<course>185.1</course>
<desc>Speed 87.3 km/h Distance 41.02 km</desc>
<time>2011-03-24T15:41:51.89</time>
<name>1452</name>
</trkpt>
<trkpt lat="49.357677" lon="9.397685">
<ele>309.0</ele>
<speed>76.8</speed>
<course>184.1</course>
<desc>Speed 76.8 km/h Distance 41.04 km</desc>
<time>2011-03-24T15:41:52.90</time>
<name>1453</name>
</trkpt>
<trkpt lat="49.357482" lon="9.397663">
<ele>310.0</ele>
<speed>78.9</speed>
<course>183.6</course>
<desc>Speed 78.9 km/h Distance 41.07 km</desc>
<time>2011-03-24T15:41:53.89</time>
<name>1454</name>
</trkpt>
<trkpt lat="49.357293" lon="9.397645">
<ele>312.0</ele>
<speed>74.3</speed>
<course>189.1</course>
<desc>Speed 74.3 km/h Distance 41.09 km</desc>
<time>2011-03-24T15:41:54.89</time>
<name>1455</name>
</trkpt>
<trkpt lat="49.357137" lon="9.397607">
<ele>312.0</ele>
<speed>61.6</speed>
<course>187.3</course>
<desc>Speed 61.6 km/h Distance 41.10 km</desc>
<time>2011-03-24T15:41:55.90</time>
<name>1456</name>
</trkpt>
<trkpt lat="49.356983" lon="9.397577">
<ele>311.0</ele>
<speed>59.5</speed>
<course>186.0</course>
<desc>Speed 59.5 km/h Distance 41.12 km</desc>
<time>2011-03-24T15:41:56.89</time>
<name>1457</name>
</trkpt>
<trkpt lat="49.356838" lon="9.397553">
<ele>311.0</ele>
<speed>57.6</speed>
<course>188.4</course>
<desc>Speed 57.6 km/h Distance 41.14 km</desc>
<time>2011-03-24T15:41:57.89</time>
<name>1458</name>
</trkpt>
<trkpt lat="49.356720" lon="9.397527">
<ele>311.0</ele>
<speed>57.6</speed>
<course>164.1</course>
<desc>Speed 57.6 km/h Distance 41.15 km</desc>
<time>2011-03-24T15:41:58.89</time>
<name>1459</name>
</trkpt>
<trkpt lat="49.356495" lon="9.397625">
<ele>311.5</ele>
<speed>46.4</speed>
<course>153.4</course>
<desc>Speed 46.4 km/h Distance 41.18 km</desc>
<time>2011-03-24T15:42:00.89</time>
<name>1460</name>
</trkpt>
<trkpt lat="49.356408" lon="9.397692">
<ele>311.5</ele>
<speed>35.6</speed>
<course>150.7</course>
<desc>Speed 35.6 km/h Distance 41.19 km</desc>
<time>2011-03-24T15:42:01.88</time>
<name>1461</name>
</trkpt>
<trkpt lat="49.356325" lon="9.397763">
<ele>311.0</ele>
<speed>32.5</speed>
<course>146.9</course>
<desc>Speed 32.5 km/h Distance 41.20 km</desc>
<time>2011-03-24T15:42:02.88</time>
<name>1462</name>
</trkpt>
<trkpt lat="49.356248" lon="9.397840">
<ele>311.0</ele>
<speed>34.4</speed>
<course>144.7</course>
<desc>Speed 34.4 km/h Distance 41.21 km</desc>
<time>2011-03-24T15:42:03.88</time>
<name>1463</name>
</trkpt>
<trkpt lat="49.356192" lon="9.397902">
<ele>311.0</ele>
<speed>34.4</speed>
<course>202.0</course>
<desc>Speed 34.4 km/h Distance 41.22 km</desc>
<time>2011-03-24T15:42:04.88</time>
<name>1464</name>
</trkpt>
<trkpt lat="49.356143" lon="9.397872">
<ele>310.5</ele>
<speed>21.6</speed>
<course>209.2</course>
<desc>Speed 21.6 km/h Distance 41.22 km</desc>
<time>2011-03-24T15:42:05.88</time>
<name>1465</name>
</trkpt>
<trkpt lat="49.356108" lon="9.397842">
<ele>310.0</ele>
<speed>21.6</speed>
<course>233.7</course>
<desc>Speed 21.6 km/h Distance 41.23 km</desc>
<time>2011-03-24T15:42:06.88</time>
<name>1466</name>
</trkpt>
<trkpt lat="49.356090" lon="9.397803">
<ele>309.0</ele>
<speed>21.6</speed>
<course>235.1</course>
<desc>Speed 21.6 km/h Distance 41.23 km</desc>
<time>2011-03-24T15:42:07.88</time>
<name>1467</name>
</trkpt>
<trkpt lat="49.356073" lon="9.397767">
<ele>308.5</ele>
<speed>21.6</speed>
<course>264.8</course>
<desc>Speed 21.6 km/h Distance 41.23 km</desc>
<time>2011-03-24T15:42:08.89</time>
<name>1468</name>
</trkpt>
<trkpt lat="49.356070" lon="9.397710">
<ele>307.0</ele>
<speed>21.6</speed>
<course>235.3</course>
<desc>Speed 21.6 km/h Distance 41.24 km</desc>
<time>2011-03-24T15:42:09.88</time>
<name>1469</name>
</trkpt>
<trkpt lat="49.355690" lon="9.396868">
<ele>305.0</ele>
<speed>69.8</speed>
<course>231.7</course>
<desc>Speed 69.8 km/h Distance 41.31 km</desc>
<time>2011-03-24T15:42:13.87</time>
<name>1470</name>
</trkpt>
<trkpt lat="49.355567" lon="9.396628">
<ele>306.0</ele>
<speed>80.1</speed>
<course>232.1</course>
<desc>Speed 80.1 km/h Distance 41.33 km</desc>
<time>2011-03-24T15:42:14.87</time>
<name>1471</name>
</trkpt>
<trkpt lat="49.355455" lon="9.396408">
<ele>306.0</ele>
<speed>71.9</speed>
<course>231.3</course>
<desc>Speed 71.9 km/h Distance 41.35 km</desc>
<time>2011-03-24T15:42:15.87</time>
<name>1472</name>
</trkpt>
<trkpt lat="49.355188" lon="9.395897">
<ele>305.5</ele>
<speed>83.6</speed>
<course>230.8</course>
<desc>Speed 83.6 km/h Distance 41.40 km</desc>
<time>2011-03-24T15:42:17.87</time>
<name>1473</name>
</trkpt>
<trkpt lat="49.355060" lon="9.395655">
<ele>305.5</ele>
<speed>82.2</speed>
<course>229.8</course>
<desc>Speed 82.2 km/h Distance 41.42 km</desc>
<time>2011-03-24T15:42:18.88</time>
<name>1474</name>
</trkpt>
<trkpt lat="49.354915" lon="9.395392">
<ele>307.0</ele>
<speed>87.3</speed>
<course>227.6</course>
<desc>Speed 87.3 km/h Distance 41.45 km</desc>
<time>2011-03-24T15:42:19.87</time>
<name>1475</name>
</trkpt>
<trkpt lat="49.354753" lon="9.395120">
<ele>308.5</ele>
<speed>86.1</speed>
<course>223.3</course>
<desc>Speed 86.1 km/h Distance 41.48 km</desc>
<time>2011-03-24T15:42:20.87</time>
<name>1476</name>
</trkpt>
<trkpt lat="49.354393" lon="9.394598">
<ele>309.0</ele>
<speed>88.1</speed>
<course>218.8</course>
<desc>Speed 88.1 km/h Distance 41.53 km</desc>
<time>2011-03-24T15:42:22.86</time>
<name>1477</name>
</trkpt>
<trkpt lat="49.354202" lon="9.394362">
<ele>307.0</ele>
<speed>88.6</speed>
<course>211.4</course>
<desc>Speed 88.6 km/h Distance 41.56 km</desc>
<time>2011-03-24T15:42:23.87</time>
<name>1478</name>
</trkpt>
<trkpt lat="49.353767" lon="9.393953">
<ele>307.5</ele>
<speed>95.7</speed>
<course>214.2</course>
<desc>Speed 95.7 km/h Distance 41.61 km</desc>
<time>2011-03-24T15:42:25.86</time>
<name>1479</name>
</trkpt>
<trkpt lat="49.353287" lon="9.393452">
<ele>307.5</ele>
<speed>107</speed>
<course>213.2</course>
<desc>Speed 107 km/h Distance 41.68 km</desc>
<time>2011-03-24T15:42:27.86</time>
<name>1480</name>
</trkpt>
<trkpt lat="49.352807" lon="9.392970">
<ele>306.5</ele>
<speed>106</speed>
<course>210.4</course>
<desc>Speed 106 km/h Distance 41.74 km</desc>
<time>2011-03-24T15:42:29.86</time>
<name>1481</name>
</trkpt>
<trkpt lat="49.352575" lon="9.392762">
<ele>305.5</ele>
<speed>104</speed>
<course>211.6</course>
<desc>Speed 104 km/h Distance 41.77 km</desc>
<time>2011-03-24T15:42:30.86</time>
<name>1482</name>
</trkpt>
<trkpt lat="49.352340" lon="9.392540">
<ele>305.0</ele>
<speed>108</speed>
<course>216.4</course>
<desc>Speed 108 km/h Distance 41.80 km</desc>
<time>2011-03-24T15:42:31.86</time>
<name>1483</name>
</trkpt>
<trkpt lat="49.352115" lon="9.392285">
<ele>305.0</ele>
<speed>111</speed>
<course>220.3</course>
<desc>Speed 111 km/h Distance 41.83 km</desc>
<time>2011-03-24T15:42:32.86</time>
<name>1484</name>
</trkpt>
<trkpt lat="49.351632" lon="9.391655">
<ele>305.5</ele>
<speed>125</speed>
<course>221.9</course>
<desc>Speed 125 km/h Distance 41.91 km</desc>
<time>2011-03-24T15:42:34.86</time>
<name>1485</name>
</trkpt>
<trkpt lat="49.351398" lon="9.391333">
<ele>305.5</ele>
<speed>123</speed>
<course>221.2</course>
<desc>Speed 123 km/h Distance 41.94 km</desc>
<time>2011-03-24T15:42:35.86</time>
<name>1486</name>
</trkpt>
<trkpt lat="49.351175" lon="9.391033">
<ele>305.5</ele>
<speed>116</speed>
<course>220.9</course>
<desc>Speed 116 km/h Distance 41.97 km</desc>
<time>2011-03-24T15:42:36.85</time>
<name>1487</name>
</trkpt>
<trkpt lat="49.350963" lon="9.390752">
<ele>305.5</ele>
<speed>111</speed>
<course>220.8</course>
<desc>Speed 111 km/h Distance 42.00 km</desc>
<time>2011-03-24T15:42:37.85</time>
<name>1488</name>
</trkpt>
<trkpt lat="49.350773" lon="9.390500">
<ele>303.5</ele>
<speed>101</speed>
<course>221.4</course>
<desc>Speed 101 km/h Distance 42.03 km</desc>
<time>2011-03-24T15:42:38.85</time>
<name>1489</name>
</trkpt>
<trkpt lat="49.350038" lon="9.389505">
<ele>304.5</ele>
<speed>141</speed>
<course>221.6</course>
<desc>Speed 141 km/h Distance 42.14 km</desc>
<time>2011-03-24T15:42:41.84</time>
<name>1490</name>
</trkpt>
<trkpt lat="49.349767" lon="9.389135">
<ele>304.5</ele>
<speed>146</speed>
<course>221.5</course>
<desc>Speed 146 km/h Distance 42.18 km</desc>
<time>2011-03-24T15:42:42.85</time>
<name>1491</name>
</trkpt>
<trkpt lat="49.349497" lon="9.388768">
<ele>304.5</ele>
<speed>147</speed>
<course>220.8</course>
<desc>Speed 147 km/h Distance 42.22 km</desc>
<time>2011-03-24T15:42:43.84</time>
<name>1492</name>
</trkpt>
<trkpt lat="49.348842" lon="9.387900">
<ele>304.5</ele>
<speed>114</speed>
<course>225.0</course>
<desc>Speed 114 km/h Distance 42.32 km</desc>
<time>2011-03-24T15:42:46.84</time>
<name>1493</name>
</trkpt>
<trkpt lat="49.348652" lon="9.387608">
<ele>304.5</ele>
<speed>115</speed>
<course>228.8</course>
<desc>Speed 115 km/h Distance 42.35 km</desc>
<time>2011-03-24T15:42:47.84</time>
<name>1494</name>
</trkpt>
<trkpt lat="49.348482" lon="9.387310">
<ele>305.5</ele>
<speed>111</speed>
<course>259.7</course>
<desc>Speed 111 km/h Distance 42.38 km</desc>
<time>2011-03-24T15:42:48.83</time>
<name>1495</name>
</trkpt>
<trkpt lat="49.348347" lon="9.386170">
<ele>306.5</ele>
<speed>77.9</speed>
<course>260.9</course>
<desc>Speed 77.9 km/h Distance 42.46 km</desc>
<time>2011-03-24T15:42:53.84</time>
<name>1496</name>
</trkpt>
<trkpt lat="49.348297" lon="9.385693">
<ele>308.0</ele>
<speed>77.9</speed>
<course>251.1</course>
<desc>Speed 77.9 km/h Distance 42.50 km</desc>
<time>2011-03-24T15:42:55.93</time>
<name>1497</name>
</trkpt>
<trkpt lat="49.348172" lon="9.385133">
<ele>310.5</ele>
<speed>77.9</speed>
<course>283.7</course>
<desc>Speed 77.9 km/h Distance 42.54 km</desc>
<time>2011-03-24T15:42:58.84</time>
<name>1498</name>
</trkpt>
<trkpt lat="49.348220" lon="9.384830">
<ele>311.5</ele>
<speed>71.2</speed>
<course>303.9</course>
<desc>Speed 71.2 km/h Distance 42.56 km</desc>
<time>2011-03-24T15:42:59.84</time>
<name>1499</name>
</trkpt>
<trkpt lat="49.348820" lon="9.383458">
<ele>313.5</ele>
<speed>93.3</speed>
<course>312.7</course>
<desc>Speed 93.3 km/h Distance 42.68 km</desc>
<time>2011-03-24T15:43:03.88</time>
<name>1500</name>
</trkpt>
<trkpt lat="49.349177" lon="9.382865">
<ele>313.5</ele>
<speed>105</speed>
<course>322.4</course>
<desc>Speed 105 km/h Distance 42.74 km</desc>
<time>2011-03-24T15:43:05.83</time>
<name>1501</name>
</trkpt>
<trkpt lat="49.349738" lon="9.382202">
<ele>316.5</ele>
<speed>67.5</speed>
<course>330.5</course>
<desc>Speed 67.5 km/h Distance 42.82 km</desc>
<time>2011-03-24T15:43:08.83</time>
<name>1502</name>
</trkpt>
<trkpt lat="49.350118" lon="9.381872">
<ele>324.5</ele>
<speed>63.1</speed>
<course>342.3</course>
<desc>Speed 63.1 km/h Distance 42.87 km</desc>
<time>2011-03-24T15:43:10.83</time>
<name>1503</name>
</trkpt>
<trkpt lat="49.350380" lon="9.381743">
<ele>327.5</ele>
<speed>39.8</speed>
<course>9.6</course>
<desc>Speed 39.8 km/h Distance 42.90 km</desc>
<time>2011-03-24T15:43:12.82</time>
<name>1504</name>
</trkpt>
<trkpt lat="49.350688" lon="9.381823">
<ele>329.5</ele>
<speed>54.9</speed>
<course>26.4</course>
<desc>Speed 54.9 km/h Distance 42.93 km</desc>
<time>2011-03-24T15:43:14.82</time>
<name>1505</name>
</trkpt>
<trkpt lat="49.350842" lon="9.381940">
<ele>330.0</ele>
<speed>67.4</speed>
<course>47.3</course>
<desc>Speed 67.4 km/h Distance 42.95 km</desc>
<time>2011-03-24T15:43:15.82</time>
<name>1506</name>
</trkpt>
<trkpt lat="49.350945" lon="9.382112">
<ele>330.5</ele>
<speed>62.2</speed>
<course>45.2</course>
<desc>Speed 62.2 km/h Distance 42.97 km</desc>
<time>2011-03-24T15:43:16.82</time>
<name>1507</name>
</trkpt>
<trkpt lat="49.351040" lon="9.382258">
<ele>331.0</ele>
<speed>55.0</speed>
<course>56.1</course>
<desc>Speed 55.0 km/h Distance 42.98 km</desc>
<time>2011-03-24T15:43:17.83</time>
<name>1508</name>
</trkpt>
<trkpt lat="49.351098" lon="9.382392">
<ele>332.0</ele>
<speed>41.7</speed>
<course>35.6</course>
<desc>Speed 41.7 km/h Distance 43.00 km</desc>
<time>2011-03-24T15:43:18.82</time>
<name>1509</name>
</trkpt>
<trkpt lat="49.351182" lon="9.382483">
<ele>333.0</ele>
<speed>41.8</speed>
<course>36.4</course>
<desc>Speed 41.8 km/h Distance 43.01 km</desc>
<time>2011-03-24T15:43:19.81</time>
<name>1510</name>
</trkpt>
<trkpt lat="49.351245" lon="9.382555">
<ele>333.5</ele>
<speed>41.8</speed>
<course>11.6</course>
<desc>Speed 41.8 km/h Distance 43.02 km</desc>
<time>2011-03-24T15:43:20.82</time>
<name>1511</name>
</trkpt>
<trkpt lat="49.351340" lon="9.382585">
<ele>334.0</ele>
<speed>41.8</speed>
<course>343.5</course>
<desc>Speed 41.8 km/h Distance 43.03 km</desc>
<time>2011-03-24T15:43:22.81</time>
<name>1512</name>
</trkpt>
<trkpt lat="49.351468" lon="9.382527">
<ele>334.0</ele>
<speed>41.8</speed>
<course>338.5</course>
<desc>Speed 41.8 km/h Distance 43.04 km</desc>
<time>2011-03-24T15:43:24.81</time>
<name>1513</name>
</trkpt>
<trkpt lat="49.351573" lon="9.382463">
<ele>334.5</ele>
<speed>41.8</speed>
<course>330.7</course>
<desc>Speed 41.8 km/h Distance 43.05 km</desc>
<time>2011-03-24T15:43:25.81</time>
<name>1514</name>
</trkpt>
<trkpt lat="49.351840" lon="9.382233">
<ele>336.0</ele>
<speed>41.8</speed>
<course>314.6</course>
<desc>Speed 41.8 km/h Distance 43.09 km</desc>
<time>2011-03-24T15:43:27.81</time>
<name>1515</name>
</trkpt>
<trkpt lat="49.352068" lon="9.381878">
<ele>339.5</ele>
<speed>58.3</speed>
<course>304.5</course>
<desc>Speed 58.3 km/h Distance 43.12 km</desc>
<time>2011-03-24T15:43:29.80</time>
<name>1516</name>
</trkpt>
<trkpt lat="49.352160" lon="9.381673">
<ele>340.5</ele>
<speed>59.3</speed>
<course>302.5</course>
<desc>Speed 59.3 km/h Distance 43.14 km</desc>
<time>2011-03-24T15:43:30.81</time>
<name>1517</name>
</trkpt>
<trkpt lat="49.352250" lon="9.381457">
<ele>342.0</ele>
<speed>59.7</speed>
<course>301.4</course>
<desc>Speed 59.7 km/h Distance 43.16 km</desc>
<time>2011-03-24T15:43:31.80</time>
<name>1518</name>
</trkpt>
<trkpt lat="49.352340" lon="9.381230">
<ele>343.0</ele>
<speed>60.8</speed>
<course>306.1</course>
<desc>Speed 60.8 km/h Distance 43.18 km</desc>
<time>2011-03-24T15:43:32.80</time>
<name>1519</name>
</trkpt>
<trkpt lat="49.352438" lon="9.381023">
<ele>342.5</ele>
<speed>55.5</speed>
<course>306.3</course>
<desc>Speed 55.5 km/h Distance 43.20 km</desc>
<time>2011-03-24T15:43:33.80</time>
<name>1520</name>
</trkpt>
<trkpt lat="49.352533" lon="9.380825">
<ele>342.0</ele>
<speed>54.0</speed>
<course>308.2</course>
<desc>Speed 54.0 km/h Distance 43.22 km</desc>
<time>2011-03-24T15:43:34.80</time>
<name>1521</name>
</trkpt>
<trkpt lat="49.352743" lon="9.380415">
<ele>343.5</ele>
<speed>54.4</speed>
<course>314.1</course>
<desc>Speed 54.4 km/h Distance 43.25 km</desc>
<time>2011-03-24T15:43:36.79</time>
<name>1522</name>
</trkpt>
<trkpt lat="49.352855" lon="9.380238">
<ele>344.5</ele>
<speed>51.9</speed>
<course>312.3</course>
<desc>Speed 51.9 km/h Distance 43.27 km</desc>
<time>2011-03-24T15:43:37.80</time>
<name>1523</name>
</trkpt>
<trkpt lat="49.352952" lon="9.380075">
<ele>345.5</ele>
<speed>47.8</speed>
<course>304.2</course>
<desc>Speed 47.8 km/h Distance 43.29 km</desc>
<time>2011-03-24T15:43:38.80</time>
<name>1524</name>
</trkpt>
<trkpt lat="49.353028" lon="9.379902">
<ele>346.0</ele>
<speed>47.6</speed>
<course>281.6</course>
<desc>Speed 47.6 km/h Distance 43.30 km</desc>
<time>2011-03-24T15:43:39.80</time>
<name>1525</name>
</trkpt>
<trkpt lat="49.353055" lon="9.379702">
<ele>346.5</ele>
<speed>49.0</speed>
<course>283.1</course>
<desc>Speed 49.0 km/h Distance 43.32 km</desc>
<time>2011-03-24T15:43:40.79</time>
<name>1526</name>
</trkpt>
<trkpt lat="49.353090" lon="9.379470">
<ele>347.5</ele>
<speed>54.9</speed>
<course>271.6</course>
<desc>Speed 54.9 km/h Distance 43.34 km</desc>
<time>2011-03-24T15:43:41.79</time>
<name>1527</name>
</trkpt>
<trkpt lat="49.353093" lon="9.379288">
<ele>347.0</ele>
<speed>54.9</speed>
<course>254.0</course>
<desc>Speed 54.9 km/h Distance 43.35 km</desc>
<time>2011-03-24T15:43:42.79</time>
<name>1528</name>
</trkpt>
<trkpt lat="49.352988" lon="9.378727">
<ele>345.5</ele>
<speed>74.6</speed>
<course>245.6</course>
<desc>Speed 74.6 km/h Distance 43.39 km</desc>
<time>2011-03-24T15:43:44.79</time>
<name>1529</name>
</trkpt>
<trkpt lat="49.352792" lon="9.378060">
<ele>344.5</ele>
<speed>92.1</speed>
<course>245.3</course>
<desc>Speed 92.1 km/h Distance 43.44 km</desc>
<time>2011-03-24T15:43:46.80</time>
<name>1530</name>
</trkpt>
<trkpt lat="49.352688" lon="9.377715">
<ele>345.0</ele>
<speed>97.1</speed>
<course>246.1</course>
<desc>Speed 97.1 km/h Distance 43.47 km</desc>
<time>2011-03-24T15:43:47.79</time>
<name>1531</name>
</trkpt>
<trkpt lat="49.352592" lon="9.377380">
<ele>345.5</ele>
<speed>97.7</speed>
<course>242.1</course>
<desc>Speed 97.7 km/h Distance 43.50 km</desc>
<time>2011-03-24T15:43:48.80</time>
<name>1532</name>
</trkpt>
<trkpt lat="49.352467" lon="9.377018">
<ele>347.5</ele>
<speed>107</speed>
<course>248.0</course>
<desc>Speed 107 km/h Distance 43.53 km</desc>
<time>2011-03-24T15:43:49.79</time>
<name>1533</name>
</trkpt>
<trkpt lat="49.352205" lon="9.376022">
<ele>356.5</ele>
<speed>39.6</speed>
<course>218.9</course>
<desc>Speed 39.6 km/h Distance 43.61 km</desc>
<time>2011-03-24T15:43:54.79</time>
<name>1534</name>
</trkpt>
<trkpt lat="49.352093" lon="9.375883">
<ele>356.5</ele>
<speed>39.6</speed>
<course>205.6</course>
<desc>Speed 39.6 km/h Distance 43.62 km</desc>
<time>2011-03-24T15:43:56.79</time>
<name>1535</name>
</trkpt>
<trkpt lat="49.351998" lon="9.375813">
<ele>355.5</ele>
<speed>39.6</speed>
<course>197.7</course>
<desc>Speed 39.6 km/h Distance 43.63 km</desc>
<time>2011-03-24T15:43:58.79</time>
<name>1536</name>
</trkpt>
<trkpt lat="49.351913" lon="9.375772">
<ele>353.5</ele>
<speed>39.6</speed>
<course>177.0</course>
<desc>Speed 39.6 km/h Distance 43.64 km</desc>
<time>2011-03-24T15:43:59.78</time>
<name>1537</name>
</trkpt>
<trkpt lat="49.351850" lon="9.375777">
<ele>351.5</ele>
<speed>39.6</speed>
<course>211.0</course>
<desc>Speed 39.6 km/h Distance 43.65 km</desc>
<time>2011-03-24T15:44:00.79</time>
<name>1538</name>
</trkpt>
<trkpt lat="49.351608" lon="9.375553">
<ele>353.0</ele>
<speed>39.6</speed>
<course>187.3</course>
<desc>Speed 39.6 km/h Distance 43.68 km</desc>
<time>2011-03-24T15:44:02.79</time>
<name>1539</name>
</trkpt>
<trkpt lat="49.351447" lon="9.375522">
<ele>349.5</ele>
<speed>39.6</speed>
<course>179.5</course>
<desc>Speed 39.6 km/h Distance 43.70 km</desc>
<time>2011-03-24T15:44:04.78</time>
<name>1540</name>
</trkpt>
<trkpt lat="49.349410" lon="9.375552">
<ele>344.5</ele>
<speed>128</speed>
<course>175.7</course>
<desc>Speed 128 km/h Distance 43.93 km</desc>
<time>2011-03-24T15:44:10.78</time>
<name>1541</name>
</trkpt>
<trkpt lat="49.347750" lon="9.375745">
<ele>346.0</ele>
<speed>114</speed>
<course>174.6</course>
<desc>Speed 114 km/h Distance 44.11 km</desc>
<time>2011-03-24T15:44:14.78</time>
<name>1542</name>
</trkpt>
<trkpt lat="49.347450" lon="9.375788">
<ele>346.0</ele>
<speed>110</speed>
<course>175.6</course>
<desc>Speed 110 km/h Distance 44.15 km</desc>
<time>2011-03-24T15:44:15.78</time>
<name>1543</name>
</trkpt>
<trkpt lat="49.346880" lon="9.375855">
<ele>345.5</ele>
<speed>123</speed>
<course>176.6</course>
<desc>Speed 123 km/h Distance 44.21 km</desc>
<time>2011-03-24T15:44:17.78</time>
<name>1544</name>
</trkpt>
<trkpt lat="49.346352" lon="9.375903">
<ele>345.5</ele>
<speed>98.0</speed>
<course>176.2</course>
<desc>Speed 98.0 km/h Distance 44.27 km</desc>
<time>2011-03-24T15:44:19.78</time>
<name>1545</name>
</trkpt>
<trkpt lat="49.345993" lon="9.375940">
<ele>345.5</ele>
<speed>98.0</speed>
<course>181.1</course>
<desc>Speed 98.0 km/h Distance 44.31 km</desc>
<time>2011-03-24T15:44:21.77</time>
<name>1546</name>
</trkpt>
<trkpt lat="49.345428" lon="9.375923">
<ele>347.5</ele>
<speed>98.0</speed>
<course>200.8</course>
<desc>Speed 98.0 km/h Distance 44.37 km</desc>
<time>2011-03-24T15:44:24.78</time>
<name>1547</name>
</trkpt>
<trkpt lat="49.344957" lon="9.375648">
<ele>348.0</ele>
<speed>109</speed>
<course>211.1</course>
<desc>Speed 109 km/h Distance 44.43 km</desc>
<time>2011-03-24T15:44:26.77</time>
<name>1548</name>
</trkpt>
<trkpt lat="49.343988" lon="9.374750">
<ele>346.0</ele>
<speed>108</speed>
<course>218.0</course>
<desc>Speed 108 km/h Distance 44.55 km</desc>
<time>2011-03-24T15:44:29.77</time>
<name>1549</name>
</trkpt>
<trkpt lat="49.343797" lon="9.374520">
<ele>346.0</ele>
<speed>108</speed>
<course>218.8</course>
<desc>Speed 108 km/h Distance 44.58 km</desc>
<time>2011-03-24T15:44:30.77</time>
<name>1550</name>
</trkpt>
<trkpt lat="49.343323" lon="9.373937">
<ele>347.0</ele>
<speed>108</speed>
<course>208.4</course>
<desc>Speed 108 km/h Distance 44.65 km</desc>
<time>2011-03-24T15:44:33.77</time>
<name>1551</name>
</trkpt>
<trkpt lat="49.342633" lon="9.373363">
<ele>341.5</ele>
<speed>83.7</speed>
<course>204.1</course>
<desc>Speed 83.7 km/h Distance 44.74 km</desc>
<time>2011-03-24T15:44:39.76</time>
<name>1552</name>
</trkpt>
<trkpt lat="49.342158" lon="9.373037">
<ele>340.5</ele>
<speed>85.7</speed>
<course>199.0</course>
<desc>Speed 85.7 km/h Distance 44.79 km</desc>
<time>2011-03-24T15:44:41.76</time>
<name>1553</name>
</trkpt>
<trkpt lat="49.341925" lon="9.372913">
<ele>339.5</ele>
<speed>85.1</speed>
<course>206.7</course>
<desc>Speed 85.1 km/h Distance 44.82 km</desc>
<time>2011-03-24T15:44:42.76</time>
<name>1554</name>
</trkpt>
<trkpt lat="49.341425" lon="9.372527">
<ele>339.5</ele>
<speed>82.2</speed>
<course>209.6</course>
<desc>Speed 82.2 km/h Distance 44.88 km</desc>
<time>2011-03-24T15:44:44.76</time>
<name>1555</name>
</trkpt>
<trkpt lat="49.340637" lon="9.371838">
<ele>344.5</ele>
<speed>80.9</speed>
<course>206.1</course>
<desc>Speed 80.9 km/h Distance 44.98 km</desc>
<time>2011-03-24T15:44:47.76</time>
<name>1556</name>
</trkpt>
<trkpt lat="49.339848" lon="9.371245">
<ele>340.0</ele>
<speed>94.2</speed>
<course>203.8</course>
<desc>Speed 94.2 km/h Distance 45.08 km</desc>
<time>2011-03-24T15:44:50.75</time>
<name>1557</name>
</trkpt>
<trkpt lat="49.339617" lon="9.371088">
<ele>339.0</ele>
<speed>95.7</speed>
<course>204.8</course>
<desc>Speed 95.7 km/h Distance 45.11 km</desc>
<time>2011-03-24T15:44:51.76</time>
<name>1558</name>
</trkpt>
<trkpt lat="49.339375" lon="9.370917">
<ele>338.5</ele>
<speed>103</speed>
<course>204.9</course>
<desc>Speed 103 km/h Distance 45.14 km</desc>
<time>2011-03-24T15:44:52.76</time>
<name>1559</name>
</trkpt>
<trkpt lat="49.338847" lon="9.370540">
<ele>337.0</ele>
<speed>109</speed>
<course>204.1</course>
<desc>Speed 109 km/h Distance 45.20 km</desc>
<time>2011-03-24T15:44:54.75</time>
<name>1560</name>
</trkpt>
<trkpt lat="49.338577" lon="9.370355">
<ele>336.5</ele>
<speed>114</speed>
<course>202.3</course>
<desc>Speed 114 km/h Distance 45.24 km</desc>
<time>2011-03-24T15:44:55.79</time>
<name>1561</name>
</trkpt>
<trkpt lat="49.338307" lon="9.370185">
<ele>337.5</ele>
<speed>114</speed>
<course>201.0</course>
<desc>Speed 114 km/h Distance 45.27 km</desc>
<time>2011-03-24T15:44:56.76</time>
<name>1562</name>
</trkpt>
<trkpt lat="49.338072" lon="9.370047">
<ele>339.0</ele>
<speed>114</speed>
<course>202.6</course>
<desc>Speed 114 km/h Distance 45.30 km</desc>
<time>2011-03-24T15:44:57.75</time>
<name>1563</name>
</trkpt>
<trkpt lat="49.337818" lon="9.369885">
<ele>340.0</ele>
<speed>107</speed>
<course>202.9</course>
<desc>Speed 107 km/h Distance 45.33 km</desc>
<time>2011-03-24T15:44:58.75</time>
<name>1564</name>
</trkpt>
<trkpt lat="49.337567" lon="9.369722">
<ele>341.0</ele>
<speed>106</speed>
<course>204.9</course>
<desc>Speed 106 km/h Distance 45.36 km</desc>
<time>2011-03-24T15:44:59.75</time>
<name>1565</name>
</trkpt>
<trkpt lat="49.337027" lon="9.369337">
<ele>344.0</ele>
<speed>106</speed>
<course>205.0</course>
<desc>Speed 106 km/h Distance 45.43 km</desc>
<time>2011-03-24T15:45:01.74</time>
<name>1566</name>
</trkpt>
<trkpt lat="49.336770" lon="9.369153">
<ele>344.5</ele>
<speed>108</speed>
<course>205.4</course>
<desc>Speed 108 km/h Distance 45.46 km</desc>
<time>2011-03-24T15:45:02.74</time>
<name>1567</name>
</trkpt>
<trkpt lat="49.336530" lon="9.368978">
<ele>346.0</ele>
<speed>106</speed>
<course>205.1</course>
<desc>Speed 106 km/h Distance 45.49 km</desc>
<time>2011-03-24T15:45:03.74</time>
<name>1568</name>
</trkpt>
<trkpt lat="49.336305" lon="9.368817">
<ele>346.5</ele>
<speed>97.2</speed>
<course>203.9</course>
<desc>Speed 97.2 km/h Distance 45.51 km</desc>
<time>2011-03-24T15:45:04.75</time>
<name>1569</name>
</trkpt>
<trkpt lat="49.336097" lon="9.368675">
<ele>346.5</ele>
<speed>90.7</speed>
<course>205.1</course>
<desc>Speed 90.7 km/h Distance 45.54 km</desc>
<time>2011-03-24T15:45:05.75</time>
<name>1570</name>
</trkpt>
<trkpt lat="49.335777" lon="9.368445">
<ele>345.5</ele>
<speed>90.7</speed>
<course>192.8</course>
<desc>Speed 90.7 km/h Distance 45.58 km</desc>
<time>2011-03-24T15:45:07.75</time>
<name>1571</name>
</trkpt>
<trkpt lat="49.335383" lon="9.368308">
<ele>344.5</ele>
<speed>75.7</speed>
<course>191.9</course>
<desc>Speed 75.7 km/h Distance 45.62 km</desc>
<time>2011-03-24T15:45:09.75</time>
<name>1572</name>
</trkpt>
<trkpt lat="49.335198" lon="9.368248">
<ele>343.5</ele>
<speed>74.0</speed>
<course>195.8</course>
<desc>Speed 74.0 km/h Distance 45.64 km</desc>
<time>2011-03-24T15:45:10.74</time>
<name>1573</name>
</trkpt>
<trkpt lat="49.334998" lon="9.368162">
<ele>341.5</ele>
<speed>80.8</speed>
<course>197.2</course>
<desc>Speed 80.8 km/h Distance 45.67 km</desc>
<time>2011-03-24T15:45:11.74</time>
<name>1574</name>
</trkpt>
<trkpt lat="49.334792" lon="9.368063">
<ele>340.0</ele>
<speed>85.6</speed>
<course>200.1</course>
<desc>Speed 85.6 km/h Distance 45.69 km</desc>
<time>2011-03-24T15:45:12.74</time>
<name>1575</name>
</trkpt>
<trkpt lat="49.334313" lon="9.367795">
<ele>340.0</ele>
<speed>94.7</speed>
<course>200.1</course>
<desc>Speed 94.7 km/h Distance 45.75 km</desc>
<time>2011-03-24T15:45:14.74</time>
<name>1576</name>
</trkpt>
<trkpt lat="49.333755" lon="9.367482">
<ele>342.5</ele>
<speed>121</speed>
<course>199.6</course>
<desc>Speed 121 km/h Distance 45.81 km</desc>
<time>2011-03-24T15:45:16.74</time>
<name>1577</name>
</trkpt>
<trkpt lat="49.333453" lon="9.367317">
<ele>343.0</ele>
<speed>122</speed>
<course>198.2</course>
<desc>Speed 122 km/h Distance 45.85 km</desc>
<time>2011-03-24T15:45:17.74</time>
<name>1578</name>
</trkpt>
<trkpt lat="49.333173" lon="9.367175">
<ele>341.0</ele>
<speed>114</speed>
<course>199.3</course>
<desc>Speed 114 km/h Distance 45.88 km</desc>
<time>2011-03-24T15:45:18.74</time>
<name>1579</name>
</trkpt>
<trkpt lat="49.332897" lon="9.367027">
<ele>341.0</ele>
<speed>116</speed>
<course>195.5</course>
<desc>Speed 116 km/h Distance 45.92 km</desc>
<time>2011-03-24T15:45:19.74</time>
<name>1580</name>
</trkpt>
<trkpt lat="49.332623" lon="9.366910">
<ele>341.0</ele>
<speed>111</speed>
<course>198.9</course>
<desc>Speed 111 km/h Distance 45.95 km</desc>
<time>2011-03-24T15:45:20.73</time>
<name>1581</name>
</trkpt>
<trkpt lat="49.332363" lon="9.366773">
<ele>341.0</ele>
<speed>109</speed>
<course>198.9</course>
<desc>Speed 109 km/h Distance 45.98 km</desc>
<time>2011-03-24T15:45:21.73</time>
<name>1582</name>
</trkpt>
<trkpt lat="49.332100" lon="9.366635">
<ele>341.0</ele>
<speed>109</speed>
<course>199.9</course>
<desc>Speed 109 km/h Distance 46.01 km</desc>
<time>2011-03-24T15:45:22.74</time>
<name>1583</name>
</trkpt>
<trkpt lat="49.331848" lon="9.366495">
<ele>340.0</ele>
<speed>104</speed>
<course>200.0</course>
<desc>Speed 104 km/h Distance 46.04 km</desc>
<time>2011-03-24T15:45:23.73</time>
<name>1584</name>
</trkpt>
<trkpt lat="49.331603" lon="9.366358">
<ele>339.0</ele>
<speed>103</speed>
<course>198.9</course>
<desc>Speed 103 km/h Distance 46.07 km</desc>
<time>2011-03-24T15:45:24.74</time>
<name>1585</name>
</trkpt>
<trkpt lat="49.331368" lon="9.366235">
<ele>338.0</ele>
<speed>97.0</speed>
<course>201.1</course>
<desc>Speed 97.0 km/h Distance 46.10 km</desc>
<time>2011-03-24T15:45:25.74</time>
<name>1586</name>
</trkpt>
<trkpt lat="49.331115" lon="9.366085">
<ele>339.0</ele>
<speed>93.3</speed>
<course>199.9</course>
<desc>Speed 93.3 km/h Distance 46.13 km</desc>
<time>2011-03-24T15:45:26.73</time>
<name>1587</name>
</trkpt>
<trkpt lat="49.330872" lon="9.365950">
<ele>339.5</ele>
<speed>90.4</speed>
<course>197.8</course>
<desc>Speed 90.4 km/h Distance 46.15 km</desc>
<time>2011-03-24T15:45:27.73</time>
<name>1588</name>
</trkpt>
<trkpt lat="49.330652" lon="9.365842">
<ele>338.5</ele>
<speed>85.0</speed>
<course>201.2</course>
<desc>Speed 85.0 km/h Distance 46.18 km</desc>
<time>2011-03-24T15:45:28.73</time>
<name>1589</name>
</trkpt>
<trkpt lat="49.330478" lon="9.365738">
<ele>339.0</ele>
<speed>73.2</speed>
<course>209.9</course>
<desc>Speed 73.2 km/h Distance 46.20 km</desc>
<time>2011-03-24T15:45:29.73</time>
<name>1590</name>
</trkpt>
<trkpt lat="49.330307" lon="9.365587">
<ele>339.0</ele>
<speed>78.8</speed>
<course>214.4</course>
<desc>Speed 78.8 km/h Distance 46.22 km</desc>
<time>2011-03-24T15:45:30.72</time>
<name>1591</name>
</trkpt>
<trkpt lat="49.330140" lon="9.365412">
<ele>339.0</ele>
<speed>78.6</speed>
<course>218.9</course>
<desc>Speed 78.6 km/h Distance 46.25 km</desc>
<time>2011-03-24T15:45:31.73</time>
<name>1592</name>
</trkpt>
<trkpt lat="49.329762" lon="9.364943">
<ele>338.5</ele>
<speed>94.1</speed>
<course>216.7</course>
<desc>Speed 94.1 km/h Distance 46.30 km</desc>
<time>2011-03-24T15:45:33.72</time>
<name>1593</name>
</trkpt>
<trkpt lat="49.329578" lon="9.364733">
<ele>338.0</ele>
<speed>91.3</speed>
<course>217.4</course>
<desc>Speed 91.3 km/h Distance 46.32 km</desc>
<time>2011-03-24T15:45:34.72</time>
<name>1594</name>
</trkpt>
<trkpt lat="49.329393" lon="9.364517">
<ele>337.5</ele>
<speed>91.3</speed>
<course>219.4</course>
<desc>Speed 91.3 km/h Distance 46.35 km</desc>
<time>2011-03-24T15:45:35.72</time>
<name>1595</name>
</trkpt>
<trkpt lat="49.329213" lon="9.364290">
<ele>337.0</ele>
<speed>90.7</speed>
<course>219.4</course>
<desc>Speed 90.7 km/h Distance 46.38 km</desc>
<time>2011-03-24T15:45:36.72</time>
<name>1596</name>
</trkpt>
<trkpt lat="49.329027" lon="9.364055">
<ele>336.5</ele>
<speed>95.7</speed>
<course>226.2</course>
<desc>Speed 95.7 km/h Distance 46.40 km</desc>
<time>2011-03-24T15:45:37.73</time>
<name>1597</name>
</trkpt>
<trkpt lat="49.328720" lon="9.363565">
<ele>335.0</ele>
<speed>99.1</speed>
<course>228.2</course>
<desc>Speed 99.1 km/h Distance 46.45 km</desc>
<time>2011-03-24T15:45:39.73</time>
<name>1598</name>
</trkpt>
<trkpt lat="49.328567" lon="9.363302">
<ele>334.5</ele>
<speed>91.4</speed>
<course>230.3</course>
<desc>Speed 91.4 km/h Distance 46.48 km</desc>
<time>2011-03-24T15:45:40.72</time>
<name>1599</name>
</trkpt>
<trkpt lat="49.328435" lon="9.363058">
<ele>333.0</ele>
<speed>81.9</speed>
<course>228.5</course>
<desc>Speed 81.9 km/h Distance 46.50 km</desc>
<time>2011-03-24T15:45:41.72</time>
<name>1600</name>
</trkpt>
<trkpt lat="49.328298" lon="9.362822">
<ele>332.5</ele>
<speed>82.0</speed>
<course>229.6</course>
<desc>Speed 82.0 km/h Distance 46.52 km</desc>
<time>2011-03-24T15:45:42.72</time>
<name>1601</name>
</trkpt>
<trkpt lat="49.328173" lon="9.362597">
<ele>330.5</ele>
<speed>75.1</speed>
<course>229.9</course>
<desc>Speed 75.1 km/h Distance 46.55 km</desc>
<time>2011-03-24T15:45:43.72</time>
<name>1602</name>
</trkpt>
<trkpt lat="49.328060" lon="9.362390">
<ele>329.0</ele>
<speed>68.0</speed>
<course>228.6</course>
<desc>Speed 68.0 km/h Distance 46.57 km</desc>
<time>2011-03-24T15:45:44.72</time>
<name>1603</name>
</trkpt>
<trkpt lat="49.327952" lon="9.362202">
<ele>327.5</ele>
<speed>62.1</speed>
<course>229.2</course>
<desc>Speed 62.1 km/h Distance 46.58 km</desc>
<time>2011-03-24T15:45:45.72</time>
<name>1604</name>
</trkpt>
<trkpt lat="49.327853" lon="9.362027">
<ele>326.5</ele>
<speed>58.9</speed>
<course>238.2</course>
<desc>Speed 58.9 km/h Distance 46.60 km</desc>
<time>2011-03-24T15:45:46.72</time>
<name>1605</name>
</trkpt>
<trkpt lat="49.327783" lon="9.361853">
<ele>326.0</ele>
<speed>52.8</speed>
<course>237.8</course>
<desc>Speed 52.8 km/h Distance 46.62 km</desc>
<time>2011-03-24T15:45:47.72</time>
<name>1606</name>
</trkpt>
<trkpt lat="49.327727" lon="9.361715">
<ele>325.5</ele>
<speed>52.8</speed>
<course>269.2</course>
<desc>Speed 52.8 km/h Distance 46.63 km</desc>
<time>2011-03-24T15:45:48.72</time>
<name>1607</name>
</trkpt>
<trkpt lat="49.327725" lon="9.361540">
<ele>325.5</ele>
<speed>45.1</speed>
<course>282.8</course>
<desc>Speed 45.1 km/h Distance 46.64 km</desc>
<time>2011-03-24T15:45:49.72</time>
<name>1608</name>
</trkpt>
<trkpt lat="49.327750" lon="9.361372">
<ele>325.0</ele>
<speed>43.8</speed>
<course>282.6</course>
<desc>Speed 43.8 km/h Distance 46.65 km</desc>
<time>2011-03-24T15:45:50.71</time>
<name>1609</name>
</trkpt>
<trkpt lat="49.327775" lon="9.361200">
<ele>324.0</ele>
<speed>43.9</speed>
<course>278.1</course>
<desc>Speed 43.9 km/h Distance 46.66 km</desc>
<time>2011-03-24T15:45:51.71</time>
<name>1610</name>
</trkpt>
<trkpt lat="49.327790" lon="9.361038">
<ele>322.5</ele>
<speed>42.2</speed>
<course>253.8</course>
<desc>Speed 42.2 km/h Distance 46.68 km</desc>
<time>2011-03-24T15:45:52.71</time>
<name>1611</name>
</trkpt>
<trkpt lat="49.327765" lon="9.360907">
<ele>322.5</ele>
<speed>35.5</speed>
<course>237.2</course>
<desc>Speed 35.5 km/h Distance 46.69 km</desc>
<time>2011-03-24T15:45:53.71</time>
<name>1612</name>
</trkpt>
<trkpt lat="49.327722" lon="9.360803">
<ele>321.0</ele>
<speed>32.4</speed>
<course>230.3</course>
<desc>Speed 32.4 km/h Distance 46.70 km</desc>
<time>2011-03-24T15:45:54.71</time>
<name>1613</name>
</trkpt>
<trkpt lat="49.327678" lon="9.360723">
<ele>321.5</ele>
<speed>26.9</speed>
<course>228.5</course>
<desc>Speed 26.9 km/h Distance 46.70 km</desc>
<time>2011-03-24T15:45:55.72</time>
<name>1614</name>
</trkpt>
<trkpt lat="49.327647" lon="9.360668">
<ele>320.5</ele>
<speed>17.3</speed>
<course>230.3</course>
<desc>Speed 17.3 km/h Distance 46.71 km</desc>
<time>2011-03-24T15:45:56.72</time>
<name>1615</name>
</trkpt>
<trkpt lat="49.327625" lon="9.360628">
<ele>321.0</ele>
<speed>11.8</speed>
<course>222.1</course>
<desc>Speed 11.8 km/h Distance 46.71 km</desc>
<time>2011-03-24T15:45:57.71</time>
<name>1616</name>
</trkpt>
<trkpt lat="49.327603" lon="9.360598">
<ele>320.0</ele>
<speed>9.7</speed>
<course>227.3</course>
<desc>Speed 9.7 km/h Distance 46.72 km</desc>
<time>2011-03-24T15:45:58.71</time>
<name>1617</name>
</trkpt>
<trkpt lat="49.327588" lon="9.360573">
<ele>319.0</ele>
<speed>6.9</speed>
<course>270.0</course>
<desc>Speed 6.9 km/h Distance 46.72 km</desc>
<time>2011-03-24T15:45:59.70</time>
<name>1618</name>
</trkpt>
<trkpt lat="49.327588" lon="9.360572">
<ele>318.5</ele>
<speed>1.6</speed>
<course>249.1</course>
<desc>Speed 1.6 km/h Distance 46.72 km</desc>
<time>2011-03-24T15:46:00.72</time>
<name>1619</name>
</trkpt>
<trkpt lat="49.327587" lon="9.360565">
<ele>318.5</ele>
<speed>0.3</speed>
<course>214.1</course>
<desc>Speed 0.3 km/h Distance 46.72 km</desc>
<time>2011-03-24T15:46:01.71</time>
<name>1620</name>
</trkpt>
<trkpt lat="49.327582" lon="9.360560">
<ele>318.0</ele>
<speed>0.1</speed>
<course>202.2</course>
<desc>Speed 0.1 km/h Distance 46.72 km</desc>
<time>2011-03-24T15:46:02.71</time>
<name>1621</name>
</trkpt>
<trkpt lat="49.327577" lon="9.360557">
<ele>318.5</ele>
<speed>1.9</speed>
<course>209.2</course>
<desc>Speed 1.9 km/h Distance 46.72 km</desc>
<time>2011-03-24T15:46:03.70</time>
<name>1622</name>
</trkpt>
<trkpt lat="49.327575" lon="9.360555">
<ele>318.0</ele>
<speed>0.2</speed>
<course>209.2</course>
<desc>Speed 0.2 km/h Distance 46.72 km</desc>
<time>2011-03-24T15:46:04.70</time>
<name>1623</name>
</trkpt>
<trkpt lat="49.327575" lon="9.360555">
<ele>318.0</ele>
<speed>0.6</speed>
<course>209.2</course>
<desc>Speed 0.6 km/h Distance 46.72 km</desc>
<time>2011-03-24T15:46:05.70</time>
<name>1624</name>
</trkpt>
<trkpt lat="49.327575" lon="9.360555">
<ele>318.0</ele>
<speed>0.3</speed>
<course>209.2</course>
<desc>Speed 0.3 km/h Distance 46.72 km</desc>
<time>2011-03-24T15:46:06.70</time>
<name>1625</name>
</trkpt>
<trkpt lat="49.327575" lon="9.360555">
<ele>318.0</ele>
<speed>0.6</speed>
<course>46.1</course>
<desc>Speed 0.6 km/h Distance 46.72 km</desc>
<time>2011-03-24T15:46:07.70</time>
<name>1626</name>
</trkpt>
<trkpt lat="49.327583" lon="9.360568">
<ele>316.0</ele>
<speed>0.9</speed>
<course>46.1</course>
<desc>Speed 0.9 km/h Distance 46.72 km</desc>
<time>2011-03-24T15:46:08.71</time>
<name>1627</name>
</trkpt>
<trkpt lat="49.327583" lon="9.360568">
<ele>316.0</ele>
<speed>0.3</speed>
<course>270.0</course>
<desc>Speed 0.3 km/h Distance 46.72 km</desc>
<time>2011-03-24T15:46:09.71</time>
<name>1628</name>
</trkpt>
<trkpt lat="49.327583" lon="9.360567">
<ele>316.0</ele>
<speed>0.2</speed>
<course>232.5</course>
<desc>Speed 0.2 km/h Distance 46.72 km</desc>
<time>2011-03-24T15:46:10.71</time>
<name>1629</name>
</trkpt>
<trkpt lat="49.327568" lon="9.360537">
<ele>316.0</ele>
<speed>9.8</speed>
<course>270.0</course>
<desc>Speed 9.8 km/h Distance 46.72 km</desc>
<time>2011-03-24T15:46:11.71</time>
<name>1630</name>
</trkpt>
<trkpt lat="49.327568" lon="9.360535">
<ele>316.0</ele>
<speed>0.9</speed>
<course>322.8</course>
<desc>Speed 0.9 km/h Distance 46.72 km</desc>
<time>2011-03-24T15:46:12.70</time>
<name>1631</name>
</trkpt>
<trkpt lat="49.327570" lon="9.360533">
<ele>315.5</ele>
<speed>0.5</speed>
<course>191.7</course>
<desc>Speed 0.5 km/h Distance 46.72 km</desc>
<time>2011-03-24T15:46:13.71</time>
<name>1632</name>
</trkpt>
<trkpt lat="49.327555" lon="9.360528">
<ele>317.0</ele>
<speed>6.4</speed>
<course>191.7</course>
<desc>Speed 6.4 km/h Distance 46.73 km</desc>
<time>2011-03-24T15:46:14.71</time>
<name>1633</name>
</trkpt>
<trkpt lat="49.327555" lon="9.360528">
<ele>317.0</ele>
<speed>0.2</speed>
<course>270.0</course>
<desc>Speed 0.2 km/h Distance 46.73 km</desc>
<time>2011-03-24T15:46:15.71</time>
<name>1634</name>
</trkpt>
<trkpt lat="49.327555" lon="9.360525">
<ele>317.0</ele>
<speed>0.1</speed>
<course>270.0</course>
<desc>Speed 0.1 km/h Distance 46.73 km</desc>
<time>2011-03-24T15:46:16.71</time>
<name>1635</name>
</trkpt>
<trkpt lat="49.327555" lon="9.360522">
<ele>317.0</ele>
<speed>0.0</speed>
<course>0.0</course>
<desc>Speed 0.0 km/h Distance 46.73 km</desc>
<time>2011-03-24T15:46:17.70</time>
<name>1636</name>
</trkpt>
<trkpt lat="49.327557" lon="9.360522">
<ele>317.0</ele>
<speed>0.2</speed>
<course>37.2</course>
<desc>Speed 0.2 km/h Distance 46.73 km</desc>
<time>2011-03-24T15:46:18.70</time>
<name>1637</name>
</trkpt>
<trkpt lat="49.327558" lon="9.360523">
<ele>316.5</ele>
<speed>0.2</speed>
<course>37.2</course>
<desc>Speed 0.2 km/h Distance 46.73 km</desc>
<time>2011-03-24T15:46:19.70</time>
<name>1638</name>
</trkpt>
<trkpt lat="49.327558" lon="9.360523">
<ele>316.5</ele>
<speed>0.1</speed>
<course>37.2</course>
<desc>Speed 0.1 km/h Distance 46.73 km</desc>
<time>2011-03-24T15:46:20.70</time>
<name>1639</name>
</trkpt>
<trkpt lat="49.327558" lon="9.360523">
<ele>316.5</ele>
<speed>0.3</speed>
<course>32.6</course>
<desc>Speed 0.3 km/h Distance 46.73 km</desc>
<time>2011-03-24T15:46:21.70</time>
<name>1640</name>
</trkpt>
<trkpt lat="49.327565" lon="9.360530">
<ele>315.5</ele>
<speed>0.4</speed>
<course>6.6</course>
<desc>Speed 0.4 km/h Distance 46.73 km</desc>
<time>2011-03-24T15:46:22.70</time>
<name>1641</name>
</trkpt>
<trkpt lat="49.327575" lon="9.360532">
<ele>314.5</ele>
<speed>2.8</speed>
<course>6.6</course>
<desc>Speed 2.8 km/h Distance 46.73 km</desc>
<time>2011-03-24T15:46:23.70</time>
<name>1642</name>
</trkpt>
<trkpt lat="49.327575" lon="9.360532">
<ele>314.0</ele>
<speed>0.7</speed>
<course>6.6</course>
<desc>Speed 0.7 km/h Distance 46.73 km</desc>
<time>2011-03-24T15:46:24.69</time>
<name>1643</name>
</trkpt>
<trkpt lat="49.327575" lon="9.360532">
<ele>314.0</ele>
<speed>0.3</speed>
<course>6.6</course>
<desc>Speed 0.3 km/h Distance 46.73 km</desc>
<time>2011-03-24T15:46:25.70</time>
<name>1644</name>
</trkpt>
<trkpt lat="49.327575" lon="9.360532">
<ele>314.0</ele>
<speed>0.4</speed>
<course>33.7</course>
<desc>Speed 0.4 km/h Distance 46.73 km</desc>
<time>2011-03-24T15:46:26.70</time>
<name>1645</name>
</trkpt>
<trkpt lat="49.327578" lon="9.360535">
<ele>313.5</ele>
<speed>0.7</speed>
<course>33.7</course>
<desc>Speed 0.7 km/h Distance 46.73 km</desc>
<time>2011-03-24T15:46:27.69</time>
<name>1646</name>
</trkpt>
<trkpt lat="49.327578" lon="9.360537">
<ele>313.5</ele>
<speed>1.9</speed>
<course>1.2</course>
<desc>Speed 1.9 km/h Distance 46.73 km</desc>
<time>2011-03-24T15:46:28.69</time>
<name>1647</name>
</trkpt>
<trkpt lat="49.327585" lon="9.360537">
<ele>313.0</ele>
<speed>0.6</speed>
<course>355.6</course>
<desc>Speed 0.6 km/h Distance 46.73 km</desc>
<time>2011-03-24T15:46:29.70</time>
<name>1648</name>
</trkpt>
<trkpt lat="49.327595" lon="9.360535">
<ele>312.0</ele>
<speed>0.4</speed>
<course>356.1</course>
<desc>Speed 0.4 km/h Distance 46.73 km</desc>
<time>2011-03-24T15:46:30.70</time>
<name>1649</name>
</trkpt>
<trkpt lat="49.327608" lon="9.360533">
<ele>311.0</ele>
<speed>0.9</speed>
<course>150.8</course>
<desc>Speed 0.9 km/h Distance 46.73 km</desc>
<time>2011-03-24T15:46:31.70</time>
<name>1650</name>
</trkpt>
<trkpt lat="49.327607" lon="9.360535">
<ele>311.0</ele>
<speed>0.7</speed>
<course>69.1</course>
<desc>Speed 0.7 km/h Distance 46.73 km</desc>
<time>2011-03-24T15:46:32.69</time>
<name>1651</name>
</trkpt>
<trkpt lat="49.327608" lon="9.360542">
<ele>310.5</ele>
<speed>1.0</speed>
<course>40.9</course>
<desc>Speed 1.0 km/h Distance 46.73 km</desc>
<time>2011-03-24T15:46:33.70</time>
<name>1652</name>
</trkpt>
<trkpt lat="49.327618" lon="9.360555">
<ele>309.0</ele>
<speed>0.4</speed>
<course>90.0</course>
<desc>Speed 0.4 km/h Distance 46.74 km</desc>
<time>2011-03-24T15:46:34.70</time>
<name>1653</name>
</trkpt>
<trkpt lat="49.327618" lon="9.360557">
<ele>309.0</ele>
<speed>0.9</speed>
<course>142.8</course>
<desc>Speed 0.9 km/h Distance 46.74 km</desc>
<time>2011-03-24T15:46:35.70</time>
<name>1654</name>
</trkpt>
<trkpt lat="49.327617" lon="9.360558">
<ele>309.5</ele>
<speed>0.8</speed>
<course>171.9</course>
<desc>Speed 0.8 km/h Distance 46.74 km</desc>
<time>2011-03-24T15:46:36.70</time>
<name>1655</name>
</trkpt>
<trkpt lat="49.327612" lon="9.360558">
<ele>309.5</ele>
<speed>0.3</speed>
<course>29.8</course>
<desc>Speed 0.3 km/h Distance 46.74 km</desc>
<time>2011-03-24T15:46:37.70</time>
<name>1656</name>
</trkpt>
<trkpt lat="49.327625" lon="9.360570">
<ele>307.5</ele>
<speed>0.4</speed>
<course>29.2</course>
<desc>Speed 0.4 km/h Distance 46.74 km</desc>
<time>2011-03-24T15:46:38.70</time>
<name>1657</name>
</trkpt>
<trkpt lat="49.327637" lon="9.360580">
<ele>305.5</ele>
<speed>0.1</speed>
<course>29.2</course>
<desc>Speed 0.1 km/h Distance 46.74 km</desc>
<time>2011-03-24T15:46:39.70</time>
<name>1658</name>
</trkpt>
<trkpt lat="49.327637" lon="9.360578">
<ele>305.5</ele>
<speed>0.8</speed>
<course>12.6</course>
<desc>Speed 0.8 km/h Distance 46.74 km</desc>
<time>2011-03-24T15:46:40.69</time>
<name>1659</name>
</trkpt>
<trkpt lat="49.327640" lon="9.360580">
<ele>305.0</ele>
<speed>0.5</speed>
<course>12.6</course>
<desc>Speed 0.5 km/h Distance 46.74 km</desc>
<time>2011-03-24T15:46:41.70</time>
<name>1660</name>
</trkpt>
<trkpt lat="49.327642" lon="9.360582">
<ele>304.5</ele>
<speed>0.3</speed>
<course>12.6</course>
<desc>Speed 0.3 km/h Distance 46.74 km</desc>
<time>2011-03-24T15:46:42.69</time>
<name>1661</name>
</trkpt>
<trkpt lat="49.327642" lon="9.360583">
<ele>304.5</ele>
<speed>0.4</speed>
<course>12.6</course>
<desc>Speed 0.4 km/h Distance 46.74 km</desc>
<time>2011-03-24T15:46:43.69</time>
<name>1662</name>
</trkpt>
<trkpt lat="49.327642" lon="9.360582">
<ele>305.0</ele>
<speed>1.3</speed>
<course>326.8</course>
<desc>Speed 1.3 km/h Distance 46.74 km</desc>
<time>2011-03-24T15:46:44.69</time>
<name>1663</name>
</trkpt>
<trkpt lat="49.327665" lon="9.360558">
<ele>305.0</ele>
<speed>11.6</speed>
<course>329.1</course>
<desc>Speed 11.6 km/h Distance 46.74 km</desc>
<time>2011-03-24T15:46:45.70</time>
<name>1664</name>
</trkpt>
<trkpt lat="49.327685" lon="9.360540">
<ele>305.0</ele>
<speed>11.6</speed>
<course>166.9</course>
<desc>Speed 11.6 km/h Distance 46.75 km</desc>
<time>2011-03-24T15:46:46.69</time>
<name>1665</name>
</trkpt>
<trkpt lat="49.327667" lon="9.360547">
<ele>305.0</ele>
<speed>5.5</speed>
<course>346.5</course>
<desc>Speed 5.5 km/h Distance 46.75 km</desc>
<time>2011-03-24T15:46:47.69</time>
<name>1666</name>
</trkpt>
<trkpt lat="49.327680" lon="9.360542">
<ele>305.0</ele>
<speed>7.5</speed>
<course>242.9</course>
<desc>Speed 7.5 km/h Distance 46.75 km</desc>
<time>2011-03-24T15:46:48.69</time>
<name>1667</name>
</trkpt>
<trkpt lat="49.327673" lon="9.360522">
<ele>305.0</ele>
<speed>6.8</speed>
<course>213.7</course>
<desc>Speed 6.8 km/h Distance 46.75 km</desc>
<time>2011-03-24T15:46:49.69</time>
<name>1668</name>
</trkpt>
<trkpt lat="49.327670" lon="9.360518">
<ele>305.0</ele>
<speed>2.0</speed>
<course>209.2</course>
<desc>Speed 2.0 km/h Distance 46.75 km</desc>
<time>2011-03-24T15:46:50.69</time>
<name>1669</name>
</trkpt>
<trkpt lat="49.327668" lon="9.360517">
<ele>305.0</ele>
<speed>2.0</speed>
<course>231.9</course>
<desc>Speed 2.0 km/h Distance 46.75 km</desc>
<time>2011-03-24T15:46:51.68</time>
<name>1670</name>
</trkpt>
<trkpt lat="49.327667" lon="9.360513">
<ele>304.5</ele>
<speed>2.0</speed>
<course>330.8</course>
<desc>Speed 2.0 km/h Distance 46.75 km</desc>
<time>2011-03-24T15:46:52.75</time>
<name>1671</name>
</trkpt>
<trkpt lat="49.327668" lon="9.360512">
<ele>304.5</ele>
<speed>2.0</speed>
<course>72.9</course>
<desc>Speed 2.0 km/h Distance 46.75 km</desc>
<time>2011-03-24T15:46:53.68</time>
<name>1672</name>
</trkpt>
<trkpt lat="49.327670" lon="9.360520">
<ele>304.0</ele>
<speed>2.0</speed>
<course>270.0</course>
<desc>Speed 2.0 km/h Distance 46.75 km</desc>
<time>2011-03-24T15:46:54.68</time>
<name>1673</name>
</trkpt>
<trkpt lat="49.327670" lon="9.360518">
<ele>304.0</ele>
<speed>2.0</speed>
<course>46.5</course>
<desc>Speed 2.0 km/h Distance 46.75 km</desc>
<time>2011-03-24T15:46:57.55</time>
<name>1674</name>
</trkpt>
<trkpt lat="49.327692" lon="9.360553">
<ele>303.5</ele>
<speed>2.0</speed>
<course>130.5</course>
<desc>Speed 2.0 km/h Distance 46.76 km</desc>
<time>2011-03-24T15:46:59.60</time>
<name>1675</name>
</trkpt>
<trkpt lat="49.327683" lon="9.360568">
<ele>303.5</ele>
<speed>2.0</speed>
<course>42.7</course>
<desc>Speed 2.0 km/h Distance 46.76 km</desc>
<time>2011-03-24T15:47:01.86</time>
<name>1676</name>
</trkpt>
<trkpt lat="49.327703" lon="9.360597">
<ele>302.5</ele>
<speed>3.2</speed>
<course>98.7</course>
<desc>Speed 3.2 km/h Distance 46.76 km</desc>
<time>2011-03-24T15:47:03.70</time>
<name>1677</name>
</trkpt>
<trkpt lat="49.327702" lon="9.360613">
<ele>302.5</ele>
<speed>3.2</speed>
<course>229.5</course>
<desc>Speed 3.2 km/h Distance 46.76 km</desc>
<time>2011-03-24T15:47:07.32</time>
<name>1678</name>
</trkpt>
<trkpt lat="49.327693" lon="9.360598">
<ele>301.0</ele>
<speed>3.2</speed>
<course>354.7</course>
<desc>Speed 3.2 km/h Distance 46.76 km</desc>
<time>2011-03-24T15:47:18.81</time>
<name>1679</name>
</trkpt>
<trkpt lat="49.327707" lon="9.360597">
<ele>301.0</ele>
<speed>3.2</speed>
<course>74.4</course>
<desc>Speed 3.2 km/h Distance 46.77 km</desc>
<time>2011-03-24T15:47:22.15</time>
<name>1680</name>
</trkpt>
<trkpt lat="49.327710" lon="9.360615">
<ele>302.0</ele>
<speed>0.8</speed>
<course>323.5</course>
<desc>Speed 0.8 km/h Distance 46.77 km</desc>
<time>2011-03-24T15:47:24.87</time>
<name>1681</name>
</trkpt>
<trkpt lat="49.327747" lon="9.360573">
<ele>301.5</ele>
<speed>2.7</speed>
<course>261.0</course>
<desc>Speed 2.7 km/h Distance 46.77 km</desc>
<time>2011-03-24T15:47:27.07</time>
<name>1682</name>
</trkpt>
<trkpt lat="49.327742" lon="9.360525">
<ele>306.0</ele>
<speed>0.5</speed>
<course>343.4</course>
<desc>Speed 0.5 km/h Distance 46.78 km</desc>
<time>2011-03-24T15:47:35.05</time>
<name>1683</name>
</trkpt>
<trkpt lat="49.327760" lon="9.360517">
<ele>308.0</ele>
<speed>1.9</speed>
<course>250.1</course>
<desc>Speed 1.9 km/h Distance 46.78 km</desc>
<time>2011-03-24T15:47:38.25</time>
<name>1684</name>
</trkpt>
<trkpt lat="49.327753" lon="9.360488">
<ele>308.5</ele>
<speed>8.8</speed>
<course>52.4</course>
<desc>Speed 8.8 km/h Distance 46.78 km</desc>
<time>2011-03-24T15:47:39.69</time>
<name>1685</name>
</trkpt>
<trkpt lat="49.327758" lon="9.360498">
<ele>306.5</ele>
<speed>3.1</speed>
<course>40.9</course>
<desc>Speed 3.1 km/h Distance 46.78 km</desc>
<time>2011-03-24T15:47:40.67</time>
<name>1686</name>
</trkpt>
<trkpt lat="49.327763" lon="9.360505">
<ele>304.5</ele>
<speed>2.2</speed>
<course>77.6</course>
<desc>Speed 2.2 km/h Distance 46.78 km</desc>
<time>2011-03-24T15:47:41.67</time>
<name>1687</name>
</trkpt>
<trkpt lat="49.327767" lon="9.360528">
<ele>304.0</ele>
<speed>4.6</speed>
<course>127.5</course>
<desc>Speed 4.6 km/h Distance 46.78 km</desc>
<time>2011-03-24T15:47:46.00</time>
<name>1688</name>
</trkpt>
<trkpt lat="49.327752" lon="9.360558">
<ele>299.0</ele>
<speed>0.8</speed>
<course>83.3</course>
<desc>Speed 0.8 km/h Distance 46.79 km</desc>
<time>2011-03-24T15:47:47.68</time>
<name>1689</name>
</trkpt>
<trkpt lat="49.327753" lon="9.360580">
<ele>298.0</ele>
<speed>0.6</speed>
<course>66.3</course>
<desc>Speed 0.6 km/h Distance 46.79 km</desc>
<time>2011-03-24T15:47:48.67</time>
<name>1690</name>
</trkpt>
<trkpt lat="49.327757" lon="9.360592">
<ele>297.0</ele>
<speed>0.6</speed>
<course>348.9</course>
<desc>Speed 0.6 km/h Distance 46.79 km</desc>
<time>2011-03-24T15:47:49.68</time>
<name>1691</name>
</trkpt>
<trkpt lat="49.327778" lon="9.360585">
<ele>297.0</ele>
<speed>7.8</speed>
<course>92.3</course>
<desc>Speed 7.8 km/h Distance 46.79 km</desc>
<time>2011-03-24T15:47:54.11</time>
<name>1692</name>
</trkpt>
<trkpt lat="49.327777" lon="9.360648">
<ele>294.5</ele>
<speed>4.9</speed>
<course>90.0</course>
<desc>Speed 4.9 km/h Distance 46.80 km</desc>
<time>2011-03-24T15:47:56.68</time>
<name>1693</name>
</trkpt>
<trkpt lat="49.327777" lon="9.360653">
<ele>293.5</ele>
<speed>0.4</speed>
<course>217.2</course>
<desc>Speed 0.4 km/h Distance 46.80 km</desc>
<time>2011-03-24T15:47:57.59</time>
<name>1694</name>
</trkpt>
<trkpt lat="49.327775" lon="9.360652">
<ele>293.5</ele>
<speed>0.5</speed>
<course>169.7</course>
<desc>Speed 0.5 km/h Distance 46.80 km</desc>
<time>2011-03-24T15:47:59.87</time>
<name>1695</name>
</trkpt>
<trkpt lat="49.327768" lon="9.360653">
<ele>293.0</ele>
<speed>1.6</speed>
<course>294.7</course>
<desc>Speed 1.6 km/h Distance 46.80 km</desc>
<time>2011-03-24T15:48:01.21</time>
<name>1696</name>
</trkpt>
<trkpt lat="49.327773" lon="9.360637">
<ele>293.0</ele>
<speed>1.6</speed>
<course>290.9</course>
<desc>Speed 1.6 km/h Distance 46.80 km</desc>
<time>2011-03-24T15:48:02.61</time>
<name>1697</name>
</trkpt>
<trkpt lat="49.327775" lon="9.360630">
<ele>293.0</ele>
<speed>1.6</speed>
<course>127.6</course>
<desc>Speed 1.6 km/h Distance 46.80 km</desc>
<time>2011-03-24T15:48:03.61</time>
<name>1698</name>
</trkpt>
<trkpt lat="49.327770" lon="9.360640">
<ele>293.5</ele>
<speed>1.0</speed>
<course>242.6</course>
<desc>Speed 1.0 km/h Distance 46.80 km</desc>
<time>2011-03-24T15:48:04.67</time>
<name>1699</name>
</trkpt>
<trkpt lat="49.327768" lon="9.360635">
<ele>294.0</ele>
<speed>0.4</speed>
<course>257.6</course>
<desc>Speed 0.4 km/h Distance 46.80 km</desc>
<time>2011-03-24T15:48:05.59</time>
<name>1700</name>
</trkpt>
<trkpt lat="49.327767" lon="9.360623">
<ele>293.5</ele>
<speed>2.4</speed>
<course>242.6</course>
<desc>Speed 2.4 km/h Distance 46.80 km</desc>
<time>2011-03-24T15:48:06.59</time>
<name>1701</name>
</trkpt>
<trkpt lat="49.327765" lon="9.360618">
<ele>293.5</ele>
<speed>1.5</speed>
<course>169.7</course>
<desc>Speed 1.5 km/h Distance 46.80 km</desc>
<time>2011-03-24T15:48:07.58</time>
<name>1702</name>
</trkpt>
<trkpt lat="49.327758" lon="9.360620">
<ele>295.0</ele>
<speed>2.4</speed>
<course>168.3</course>
<desc>Speed 2.4 km/h Distance 46.80 km</desc>
<time>2011-03-24T15:48:08.58</time>
<name>1703</name>
</trkpt>
<trkpt lat="49.327743" lon="9.360625">
<ele>296.5</ele>
<speed>1.3</speed>
<course>108.9</course>
<desc>Speed 1.3 km/h Distance 46.80 km</desc>
<time>2011-03-24T15:48:09.58</time>
<name>1704</name>
</trkpt>
<trkpt lat="49.327740" lon="9.360640">
<ele>295.5</ele>
<speed>0.3</speed>
<course>117.0</course>
<desc>Speed 0.3 km/h Distance 46.80 km</desc>
<time>2011-03-24T15:48:10.58</time>
<name>1705</name>
</trkpt>
<trkpt lat="49.327735" lon="9.360655">
<ele>294.5</ele>
<speed>0.3</speed>
<course>119.9</course>
<desc>Speed 0.3 km/h Distance 46.81 km</desc>
<time>2011-03-24T15:48:11.57</time>
<name>1706</name>
</trkpt>
<trkpt lat="49.327730" lon="9.360668">
<ele>294.5</ele>
<speed>0.5</speed>
<course>139.1</course>
<desc>Speed 0.5 km/h Distance 46.81 km</desc>
<time>2011-03-24T15:48:12.57</time>
<name>1707</name>
</trkpt>
<trkpt lat="49.327725" lon="9.360675">
<ele>294.0</ele>
<speed>0.5</speed>
<course>121.8</course>
<desc>Speed 0.5 km/h Distance 46.81 km</desc>
<time>2011-03-24T15:48:13.56</time>
<name>1708</name>
</trkpt>
<trkpt lat="49.327722" lon="9.360683">
<ele>293.5</ele>
<speed>0.3</speed>
<course>12.6</course>
<desc>Speed 0.3 km/h Distance 46.81 km</desc>
<time>2011-03-24T15:48:14.57</time>
<name>1709</name>
</trkpt>
<trkpt lat="49.327723" lon="9.360683">
<ele>293.0</ele>
<speed>0.2</speed>
<course>29.2</course>
<desc>Speed 0.2 km/h Distance 46.81 km</desc>
<time>2011-03-24T15:48:15.56</time>
<name>1710</name>
</trkpt>
<trkpt lat="49.327725" lon="9.360685">
<ele>292.5</ele>
<speed>0.2</speed>
<course>90.0</course>
<desc>Speed 0.2 km/h Distance 46.81 km</desc>
<time>2011-03-24T15:48:16.55</time>
<name>1711</name>
</trkpt>
<trkpt lat="49.327725" lon="9.360687">
<ele>292.0</ele>
<speed>0.2</speed>
<course>90.0</course>
<desc>Speed 0.2 km/h Distance 46.81 km</desc>
<time>2011-03-24T15:48:17.55</time>
<name>1712</name>
</trkpt>
<trkpt lat="49.327725" lon="9.360687">
<ele>291.5</ele>
<speed>0.2</speed>
<course>150.8</course>
<desc>Speed 0.2 km/h Distance 46.81 km</desc>
<time>2011-03-24T15:48:18.55</time>
<name>1713</name>
</trkpt>
<trkpt lat="49.327723" lon="9.360688">
<ele>291.5</ele>
<speed>0.2</speed>
<course>90.0</course>
<desc>Speed 0.2 km/h Distance 46.81 km</desc>
<time>2011-03-24T15:48:19.55</time>
<name>1714</name>
</trkpt>
<trkpt lat="49.327723" lon="9.360692">
<ele>292.0</ele>
<speed>0.1</speed>
<course>150.8</course>
<desc>Speed 0.1 km/h Distance 46.81 km</desc>
<time>2011-03-24T15:48:20.54</time>
<name>1715</name>
</trkpt>
<trkpt lat="49.327722" lon="9.360693">
<ele>292.0</ele>
<speed>0.3</speed>
<course>142.8</course>
<desc>Speed 0.3 km/h Distance 46.81 km</desc>
<time>2011-03-24T15:48:21.54</time>
<name>1716</name>
</trkpt>
<trkpt lat="49.327720" lon="9.360695">
<ele>292.5</ele>
<speed>0.2</speed>
<course>90.0</course>
<desc>Speed 0.2 km/h Distance 46.81 km</desc>
<time>2011-03-24T15:48:22.54</time>
<name>1717</name>
</trkpt>
<trkpt lat="49.327720" lon="9.360697">
<ele>293.0</ele>
<speed>0.2</speed>
<course>217.2</course>
<desc>Speed 0.2 km/h Distance 46.81 km</desc>
<time>2011-03-24T15:48:23.54</time>
<name>1718</name>
</trkpt>
<trkpt lat="49.327718" lon="9.360695">
<ele>293.0</ele>
<speed>0.4</speed>
<course>217.2</course>
<desc>Speed 0.4 km/h Distance 46.81 km</desc>
<time>2011-03-24T15:48:24.53</time>
<name>1719</name>
</trkpt>
<trkpt lat="49.327718" lon="9.360695">
<ele>293.0</ele>
<speed>0.2</speed>
<course>90.0</course>
<desc>Speed 0.2 km/h Distance 46.81 km</desc>
<time>2011-03-24T15:48:25.54</time>
<name>1720</name>
</trkpt>
<trkpt lat="49.327718" lon="9.360697">
<ele>293.0</ele>
<speed>0.1</speed>
<course>90.0</course>
<desc>Speed 0.1 km/h Distance 46.81 km</desc>
<time>2011-03-24T15:48:26.53</time>
<name>1721</name>
</trkpt>
<trkpt lat="49.327718" lon="9.360697">
<ele>293.0</ele>
<speed>0.3</speed>
<course>90.0</course>
<desc>Speed 0.3 km/h Distance 46.81 km</desc>
<time>2011-03-24T15:48:27.53</time>
<name>1722</name>
</trkpt>
<trkpt lat="49.327718" lon="9.360697">
<ele>293.5</ele>
<speed>0.4</speed>
<course>90.0</course>
<desc>Speed 0.4 km/h Distance 46.81 km</desc>
<time>2011-03-24T15:48:28.52</time>
<name>1723</name>
</trkpt>
<trkpt lat="49.327718" lon="9.360697">
<ele>293.5</ele>
<speed>0.1</speed>
<course>90.0</course>
<desc>Speed 0.1 km/h Distance 46.81 km</desc>
<time>2011-03-24T15:48:29.52</time>
<name>1724</name>
</trkpt>
<trkpt lat="49.327718" lon="9.360697">
<ele>293.5</ele>
<speed>0.0</speed>
<course>90.0</course>
<desc>Speed 0.0 km/h Distance 46.81 km</desc>
<time>2011-03-24T15:48:30.51</time>
<name>1725</name>
</trkpt>
<trkpt lat="49.327718" lon="9.360697">
<ele>293.5</ele>
<speed>0.2</speed>
<course>90.0</course>
<desc>Speed 0.2 km/h Distance 46.81 km</desc>
<time>2011-03-24T15:48:31.51</time>
<name>1726</name>
</trkpt>
<trkpt lat="49.327718" lon="9.360697">
<ele>293.5</ele>
<speed>0.4</speed>
<course>90.0</course>
<desc>Speed 0.4 km/h Distance 46.81 km</desc>
<time>2011-03-24T15:48:32.51</time>
<name>1727</name>
</trkpt>
<trkpt lat="49.327718" lon="9.360697">
<ele>293.5</ele>
<speed>0.3</speed>
<course>90.0</course>
<desc>Speed 0.3 km/h Distance 46.81 km</desc>
<time>2011-03-24T15:48:33.51</time>
<name>1728</name>
</trkpt>
<trkpt lat="49.327718" lon="9.360697">
<ele>293.5</ele>
<speed>0.3</speed>
<course>90.0</course>
<desc>Speed 0.3 km/h Distance 46.81 km</desc>
<time>2011-03-24T15:48:34.51</time>
<name>1729</name>
</trkpt>
<trkpt lat="49.327718" lon="9.360697">
<ele>293.5</ele>
<speed>0.6</speed>
<course>90.0</course>
<desc>Speed 0.6 km/h Distance 46.81 km</desc>
<time>2011-03-24T15:48:35.51</time>
<name>1730</name>
</trkpt>
<trkpt lat="49.327718" lon="9.360697">
<ele>293.5</ele>
<speed>0.6</speed>
<course>90.0</course>
<desc>Speed 0.6 km/h Distance 46.81 km</desc>
<time>2011-03-24T15:48:36.52</time>
<name>1731</name>
</trkpt>
<trkpt lat="49.327718" lon="9.360697">
<ele>293.0</ele>
<speed>0.6</speed>
<course>297.4</course>
<desc>Speed 0.6 km/h Distance 46.81 km</desc>
<time>2011-03-24T15:48:38.54</time>
<name>1732</name>
</trkpt>
<trkpt lat="49.327720" lon="9.360692">
<ele>293.0</ele>
<speed>1.7</speed>
<course>320.0</course>
<desc>Speed 1.7 km/h Distance 46.81 km</desc>
<time>2011-03-24T15:48:39.64</time>
<name>1733</name>
</trkpt>
<trkpt lat="49.327732" lon="9.360677">
<ele>292.5</ele>
<speed>1.5</speed>
<course>56.3</course>
<desc>Speed 1.5 km/h Distance 46.81 km</desc>
<time>2011-03-24T15:48:41.59</time>
<name>1734</name>
</trkpt>
<trkpt lat="49.327748" lon="9.360715">
<ele>293.5</ele>
<speed>4.0</speed>
<course>84.3</course>
<desc>Speed 4.0 km/h Distance 46.82 km</desc>
<time>2011-03-24T15:48:44.84</time>
<name>1735</name>
</trkpt>
<trkpt lat="49.327752" lon="9.360767">
<ele>294.5</ele>
<speed>8.4</speed>
<course>73.7</course>
<desc>Speed 8.4 km/h Distance 46.82 km</desc>
<time>2011-03-24T15:48:47.49</time>
<name>1736</name>
</trkpt>
<trkpt lat="49.327758" lon="9.360802">
<ele>294.5</ele>
<speed>1.8</speed>
<course>79.1</course>
<desc>Speed 1.8 km/h Distance 46.82 km</desc>
<time>2011-03-24T15:48:50.95</time>
<name>1737</name>
</trkpt>
<trkpt lat="49.327762" lon="9.360828">
<ele>295.5</ele>
<speed>1.0</speed>
<course>290.9</course>
<desc>Speed 1.0 km/h Distance 46.82 km</desc>
<time>2011-03-24T15:48:53.63</time>
<name>1738</name>
</trkpt>
<trkpt lat="49.327765" lon="9.360815">
<ele>295.5</ele>
<speed>1.2</speed>
<course>213.7</course>
<desc>Speed 1.2 km/h Distance 46.83 km</desc>
<time>2011-03-24T15:48:54.49</time>
<name>1739</name>
</trkpt>
<trkpt lat="49.327762" lon="9.360812">
<ele>296.5</ele>
<speed>0.4</speed>
<course>127.4</course>
<desc>Speed 0.4 km/h Distance 46.83 km</desc>
<time>2011-03-24T15:48:55.52</time>
<name>1740</name>
</trkpt>
<trkpt lat="49.327757" lon="9.360822">
<ele>300.5</ele>
<speed>1.8</speed>
<course>180.0</course>
<desc>Speed 1.8 km/h Distance 46.83 km</desc>
<time>2011-03-24T15:49:01.74</time>
<name>1741</name>
</trkpt>
<trkpt lat="49.327752" lon="9.360822">
<ele>300.0</ele>
<speed>0.5</speed>
<course>244.7</course>
<desc>Speed 0.5 km/h Distance 46.83 km</desc>
<time>2011-03-24T15:49:07.11</time>
<name>1742</name>
</trkpt>
<trkpt lat="49.327738" lon="9.360778">
<ele>298.5</ele>
<speed>1.2</speed>
<course>270.0</course>
<desc>Speed 1.2 km/h Distance 46.83 km</desc>
<time>2011-03-24T15:49:09.44</time>
<name>1743</name>
</trkpt>
<trkpt lat="49.327738" lon="9.360748">
<ele>297.5</ele>
<speed>0.5</speed>
<course>270.0</course>
<desc>Speed 0.5 km/h Distance 46.83 km</desc>
<time>2011-03-24T15:49:11.33</time>
<name>1744</name>
</trkpt>
<trkpt lat="49.327738" lon="9.360732">
<ele>296.0</ele>
<speed>0.1</speed>
<course>270.0</course>
<desc>Speed 0.1 km/h Distance 46.83 km</desc>
<time>2011-03-24T15:49:12.50</time>
<name>1745</name>
</trkpt>
<trkpt lat="49.327738" lon="9.360723">
<ele>296.0</ele>
<speed>1.1</speed>
<course>47.4</course>
<desc>Speed 1.1 km/h Distance 46.83 km</desc>
<time>2011-03-24T15:49:13.48</time>
<name>1746</name>
</trkpt>
<trkpt lat="49.327748" lon="9.360740">
<ele>294.5</ele>
<speed>1.6</speed>
<course>192.6</course>
<desc>Speed 1.6 km/h Distance 46.84 km</desc>
<time>2011-03-24T15:49:14.48</time>
<name>1747</name>
</trkpt>
<trkpt lat="49.327743" lon="9.360738">
<ele>294.5</ele>
<speed>1.5</speed>
<course>242.6</course>
<desc>Speed 1.5 km/h Distance 46.84 km</desc>
<time>2011-03-24T15:49:15.48</time>
<name>1748</name>
</trkpt>
<trkpt lat="49.327742" lon="9.360733">
<ele>294.0</ele>
<speed>0.6</speed>
<course>231.9</course>
<desc>Speed 0.6 km/h Distance 46.84 km</desc>
<time>2011-03-24T15:49:16.48</time>
<name>1749</name>
</trkpt>
<trkpt lat="49.327740" lon="9.360730">
<ele>293.5</ele>
<speed>0.1</speed>
<course>224.5</course>
<desc>Speed 0.1 km/h Distance 46.84 km</desc>
<time>2011-03-24T15:49:17.47</time>
<name>1750</name>
</trkpt>
<trkpt lat="49.327737" lon="9.360725">
<ele>294.0</ele>
<speed>0.6</speed>
<course>270.0</course>
<desc>Speed 0.6 km/h Distance 46.84 km</desc>
<time>2011-03-24T15:49:18.47</time>
<name>1751</name>
</trkpt>
<trkpt lat="49.327737" lon="9.360722">
<ele>293.5</ele>
<speed>0.5</speed>
<course>224.5</course>
<desc>Speed 0.5 km/h Distance 46.84 km</desc>
<time>2011-03-24T15:49:19.47</time>
<name>1752</name>
</trkpt>
<trkpt lat="49.327733" lon="9.360717">
<ele>293.5</ele>
<speed>0.5</speed>
<course>233.0</course>
<desc>Speed 0.5 km/h Distance 46.84 km</desc>
<time>2011-03-24T15:49:20.46</time>
<name>1753</name>
</trkpt>
<trkpt lat="49.327730" lon="9.360710">
<ele>294.0</ele>
<speed>0.4</speed>
<course>232.4</course>
<desc>Speed 0.4 km/h Distance 46.84 km</desc>
<time>2011-03-24T15:49:21.46</time>
<name>1754</name>
</trkpt>
<trkpt lat="49.327727" lon="9.360703">
<ele>294.0</ele>
<speed>0.3</speed>
<course>204.9</course>
<desc>Speed 0.3 km/h Distance 46.84 km</desc>
<time>2011-03-24T15:49:22.46</time>
<name>1755</name>
</trkpt>
<trkpt lat="49.327715" lon="9.360695">
<ele>296.0</ele>
<speed>1.4</speed>
<course>227.1</course>
<desc>Speed 1.4 km/h Distance 46.84 km</desc>
<time>2011-03-24T15:49:23.46</time>
<name>1756</name>
</trkpt>
<trkpt lat="49.327710" lon="9.360687">
<ele>297.0</ele>
<speed>0.1</speed>
<course>192.6</course>
<desc>Speed 0.1 km/h Distance 46.84 km</desc>
<time>2011-03-24T15:49:24.45</time>
<name>1757</name>
</trkpt>
<trkpt lat="49.327707" lon="9.360685">
<ele>297.0</ele>
<speed>0.3</speed>
<course>209.2</course>
<desc>Speed 0.3 km/h Distance 46.84 km</desc>
<time>2011-03-24T15:49:25.45</time>
<name>1758</name>
</trkpt>
<trkpt lat="49.327705" lon="9.360683">
<ele>297.0</ele>
<speed>0.3</speed>
<course>180.0</course>
<desc>Speed 0.3 km/h Distance 46.84 km</desc>
<time>2011-03-24T15:49:26.45</time>
<name>1759</name>
</trkpt>
<trkpt lat="49.327702" lon="9.360683">
<ele>297.0</ele>
<speed>0.3</speed>
<course>180.0</course>
<desc>Speed 0.3 km/h Distance 46.84 km</desc>
<time>2011-03-24T15:49:27.46</time>
<name>1760</name>
</trkpt>
<trkpt lat="49.327702" lon="9.360683">
<ele>297.0</ele>
<speed>0.3</speed>
<course>142.8</course>
<desc>Speed 0.3 km/h Distance 46.84 km</desc>
<time>2011-03-24T15:49:28.44</time>
<name>1761</name>
</trkpt>
<trkpt lat="49.327700" lon="9.360685">
<ele>297.0</ele>
<speed>0.2</speed>
<course>270.0</course>
<desc>Speed 0.2 km/h Distance 46.84 km</desc>
<time>2011-03-24T15:49:29.44</time>
<name>1762</name>
</trkpt>
<trkpt lat="49.327700" lon="9.360683">
<ele>297.0</ele>
<speed>0.2</speed>
<course>270.0</course>
<desc>Speed 0.2 km/h Distance 46.84 km</desc>
<time>2011-03-24T15:49:30.43</time>
<name>1763</name>
</trkpt>
<trkpt lat="49.327700" lon="9.360683">
<ele>297.0</ele>
<speed>0.2</speed>
<course>12.6</course>
<desc>Speed 0.2 km/h Distance 46.84 km</desc>
<time>2011-03-24T15:49:31.44</time>
<name>1764</name>
</trkpt>
<trkpt lat="49.327702" lon="9.360683">
<ele>297.0</ele>
<speed>0.4</speed>
<course>12.6</course>
<desc>Speed 0.4 km/h Distance 46.84 km</desc>
<time>2011-03-24T15:49:32.43</time>
<name>1765</name>
</trkpt>
<trkpt lat="49.327702" lon="9.360683">
<ele>297.0</ele>
<speed>0.5</speed>
<course>69.1</course>
<desc>Speed 0.5 km/h Distance 46.84 km</desc>
<time>2011-03-24T15:49:33.43</time>
<name>1766</name>
</trkpt>
<trkpt lat="49.327703" lon="9.360690">
<ele>296.5</ele>
<speed>1.8</speed>
<course>308.1</course>
<desc>Speed 1.8 km/h Distance 46.84 km</desc>
<time>2011-03-24T15:49:34.42</time>
<name>1767</name>
</trkpt>
<trkpt lat="49.327705" lon="9.360687">
<ele>296.5</ele>
<speed>1.2</speed>
<course>308.1</course>
<desc>Speed 1.2 km/h Distance 46.84 km</desc>
<time>2011-03-24T15:49:35.42</time>
<name>1768</name>
</trkpt>
<trkpt lat="49.327707" lon="9.360683">
<ele>296.5</ele>
<speed>1.2</speed>
<course>308.1</course>
<desc>Speed 1.2 km/h Distance 46.85 km</desc>
<time>2011-03-24T15:49:36.43</time>
<name>1769</name>
</trkpt>
<trkpt lat="49.327707" lon="9.360683">
<ele>296.5</ele>
<speed>1.2</speed>
<course>150.8</course>
<desc>Speed 1.2 km/h Distance 46.85 km</desc>
<time>2011-03-24T15:49:37.43</time>
<name>1770</name>
</trkpt>
<trkpt lat="49.327703" lon="9.360687">
<ele>296.5</ele>
<speed>1.2</speed>
<course>135.5</course>
<desc>Speed 1.2 km/h Distance 46.85 km</desc>
<time>2011-03-24T15:49:38.43</time>
<name>1771</name>
</trkpt>
<trkpt lat="49.327700" lon="9.360692">
<ele>296.5</ele>
<speed>1.2</speed>
<course>121.4</course>
<desc>Speed 1.2 km/h Distance 46.85 km</desc>
<time>2011-03-24T15:49:39.42</time>
<name>1772</name>
</trkpt>
<trkpt lat="49.327697" lon="9.360700">
<ele>296.5</ele>
<speed>1.2</speed>
<course>129.9</course>
<desc>Speed 1.2 km/h Distance 46.85 km</desc>
<time>2011-03-24T15:49:40.42</time>
<name>1773</name>
</trkpt>
<trkpt lat="49.327687" lon="9.360718">
<ele>296.5</ele>
<speed>1.2</speed>
<course>90.0</course>
<desc>Speed 1.2 km/h Distance 46.85 km</desc>
<time>2011-03-24T15:49:41.43</time>
<name>1774</name>
</trkpt>
<trkpt lat="49.327687" lon="9.360725">
<ele>296.5</ele>
<speed>1.2</speed>
<course>85.4</course>
<desc>Speed 1.2 km/h Distance 46.85 km</desc>
<time>2011-03-24T15:49:42.42</time>
<name>1775</name>
</trkpt>
<trkpt lat="49.327688" lon="9.360757">
<ele>297.0</ele>
<speed>1.7</speed>
<course>90.0</course>
<desc>Speed 1.7 km/h Distance 46.85 km</desc>
<time>2011-03-24T15:49:43.42</time>
<name>1776</name>
</trkpt>
<trkpt lat="49.327688" lon="9.360760">
<ele>297.0</ele>
<speed>1.5</speed>
<course>104.4</course>
<desc>Speed 1.5 km/h Distance 46.85 km</desc>
<time>2011-03-24T15:49:44.40</time>
<name>1777</name>
</trkpt>
<trkpt lat="49.327687" lon="9.360770">
<ele>297.0</ele>
<speed>0.2</speed>
<course>72.9</course>
<desc>Speed 0.2 km/h Distance 46.85 km</desc>
<time>2011-03-24T15:49:45.40</time>
<name>1778</name>
</trkpt>
<trkpt lat="49.327688" lon="9.360778">
<ele>297.5</ele>
<speed>0.2</speed>
<course>72.9</course>
<desc>Speed 0.2 km/h Distance 46.85 km</desc>
<time>2011-03-24T15:49:46.41</time>
<name>1779</name>
</trkpt>
<trkpt lat="49.327690" lon="9.360787">
<ele>297.0</ele>
<speed>0.5</speed>
<course>51.9</course>
<desc>Speed 0.5 km/h Distance 46.85 km</desc>
<time>2011-03-24T15:49:47.41</time>
<name>1780</name>
</trkpt>
<trkpt lat="49.327692" lon="9.360790">
<ele>297.0</ele>
<speed>0.1</speed>
<course>25.6</course>
<desc>Speed 0.1 km/h Distance 46.85 km</desc>
<time>2011-03-24T15:49:48.39</time>
<name>1781</name>
</trkpt>
<trkpt lat="49.327698" lon="9.360795">
<ele>297.5</ele>
<speed>1.3</speed>
<course>287.1</course>
<desc>Speed 1.3 km/h Distance 46.85 km</desc>
<time>2011-03-24T15:49:49.39</time>
<name>1782</name>
</trkpt>
<trkpt lat="49.327700" lon="9.360787">
<ele>297.5</ele>
<speed>3.1</speed>
<course>38.1</course>
<desc>Speed 3.1 km/h Distance 46.86 km</desc>
<time>2011-03-24T15:49:50.38</time>
<name>1783</name>
</trkpt>
<trkpt lat="49.327708" lon="9.360797">
<ele>297.0</ele>
<speed>2.1</speed>
<course>1.2</course>
<desc>Speed 2.1 km/h Distance 46.86 km</desc>
<time>2011-03-24T15:49:51.38</time>
<name>1784</name>
</trkpt>
<trkpt lat="49.327715" lon="9.360797">
<ele>297.0</ele>
<speed>2.1</speed>
<course>22.2</course>
<desc>Speed 2.1 km/h Distance 46.86 km</desc>
<time>2011-03-24T15:49:52.39</time>
<name>1785</name>
</trkpt>
<trkpt lat="49.327720" lon="9.360800">
<ele>297.0</ele>
<speed>2.1</speed>
<course>270.0</course>
<desc>Speed 2.1 km/h Distance 46.86 km</desc>
<time>2011-03-24T15:49:53.39</time>
<name>1786</name>
</trkpt>
<trkpt lat="49.327720" lon="9.360795">
<ele>297.0</ele>
<speed>2.1</speed>
<course>232.4</course>
<desc>Speed 2.1 km/h Distance 46.86 km</desc>
<time>2011-03-24T15:49:54.39</time>
<name>1787</name>
</trkpt>
<trkpt lat="49.327715" lon="9.360785">
<ele>296.5</ele>
<speed>2.7</speed>
<course>232.4</course>
<desc>Speed 2.7 km/h Distance 46.86 km</desc>
<time>2011-03-24T15:49:55.39</time>
<name>1788</name>
</trkpt>
<trkpt lat="49.327710" lon="9.360775">
<ele>296.5</ele>
<speed>2.1</speed>
<course>287.0</course>
<desc>Speed 2.1 km/h Distance 46.86 km</desc>
<time>2011-03-24T15:49:56.37</time>
<name>1789</name>
</trkpt>
<trkpt lat="49.327713" lon="9.360758">
<ele>296.0</ele>
<speed>0.4</speed>
<course>301.6</course>
<desc>Speed 0.4 km/h Distance 46.86 km</desc>
<time>2011-03-24T15:49:57.48</time>
<name>1790</name>
</trkpt>
<trkpt lat="49.327723" lon="9.360733">
<ele>295.5</ele>
<speed>0.1</speed>
<course>312.9</course>
<desc>Speed 0.1 km/h Distance 46.86 km</desc>
<time>2011-03-24T15:50:00.37</time>
<name>1791</name>
</trkpt>
<trkpt lat="49.327728" lon="9.360725">
<ele>294.5</ele>
<speed>0.3</speed>
<course>51.9</course>
<desc>Speed 0.3 km/h Distance 46.86 km</desc>
<time>2011-03-24T15:50:03.82</time>
<name>1792</name>
</trkpt>
<trkpt lat="49.327730" lon="9.360728">
<ele>294.0</ele>
<speed>0.3</speed>
<course>51.9</course>
<desc>Speed 0.3 km/h Distance 46.86 km</desc>
<time>2011-03-24T15:50:05.36</time>
<name>1793</name>
</trkpt>
<trkpt lat="49.327730" lon="9.360728">
<ele>294.0</ele>
<speed>0.1</speed>
<course>167.4</course>
<desc>Speed 0.1 km/h Distance 46.86 km</desc>
<time>2011-03-24T15:50:07.36</time>
<name>1794</name>
</trkpt>
<trkpt lat="49.327727" lon="9.360730">
<ele>293.5</ele>
<speed>1.1</speed>
<course>135.5</course>
<desc>Speed 1.1 km/h Distance 46.87 km</desc>
<time>2011-03-24T15:50:09.34</time>
<name>1795</name>
</trkpt>
<trkpt lat="49.327723" lon="9.360735">
<ele>293.5</ele>
<speed>0.3</speed>
<course>135.5</course>
<desc>Speed 0.3 km/h Distance 46.87 km</desc>
<time>2011-03-24T15:50:11.35</time>
<name>1796</name>
</trkpt>
<trkpt lat="49.327723" lon="9.360735">
<ele>293.5</ele>
<speed>0.1</speed>
<course>150.8</course>
<desc>Speed 0.1 km/h Distance 46.87 km</desc>
<time>2011-03-24T15:50:13.34</time>
<name>1797</name>
</trkpt>
<trkpt lat="49.327722" lon="9.360737">
<ele>293.5</ele>
<speed>0.8</speed>
<course>209.7</course>
<desc>Speed 0.8 km/h Distance 46.87 km</desc>
<time>2011-03-24T15:50:15.33</time>
<name>1798</name>
</trkpt>
<trkpt lat="49.327695" lon="9.360713">
<ele>292.5</ele>
<speed>10.6</speed>
<course>90.0</course>
<desc>Speed 10.6 km/h Distance 46.87 km</desc>
<time>2011-03-24T15:50:17.34</time>
<name>1799</name>
</trkpt>
<trkpt lat="49.327695" lon="9.360720">
<ele>292.5</ele>
<speed>0.9</speed>
<course>40.9</course>
<desc>Speed 0.9 km/h Distance 46.87 km</desc>
<time>2011-03-24T15:50:19.31</time>
<name>1800</name>
</trkpt>
<trkpt lat="49.327700" lon="9.360727">
<ele>292.0</ele>
<speed>0.3</speed>
<course>346.5</course>
<desc>Speed 0.3 km/h Distance 46.87 km</desc>
<time>2011-03-24T15:50:21.31</time>
<name>1801</name>
</trkpt>
<trkpt lat="49.327732" lon="9.360715">
<ele>292.5</ele>
<speed>2.9</speed>
<course>270.0</course>
<desc>Speed 2.9 km/h Distance 46.87 km</desc>
<time>2011-03-24T15:50:23.31</time>
<name>1802</name>
</trkpt>
<trkpt lat="49.327732" lon="9.360700">
<ele>292.0</ele>
<speed>0.1</speed>
<course>277.0</course>
<desc>Speed 0.1 km/h Distance 46.88 km</desc>
<time>2011-03-24T15:50:25.30</time>
<name>1803</name>
</trkpt>
<trkpt lat="49.327735" lon="9.360658">
<ele>292.5</ele>
<speed>9.3</speed>
<course>180.0</course>
<desc>Speed 9.3 km/h Distance 46.88 km</desc>
<time>2011-03-24T15:50:28.69</time>
<name>1804</name>
</trkpt>
<trkpt lat="49.327712" lon="9.360658">
<ele>295.0</ele>
<speed>0.3</speed>
<course>209.8</course>
<desc>Speed 0.3 km/h Distance 46.88 km</desc>
<time>2011-03-24T15:50:30.30</time>
<name>1805</name>
</trkpt>
<trkpt lat="49.327698" lon="9.360647">
<ele>296.5</ele>
<speed>0.9</speed>
<course>166.5</course>
<desc>Speed 0.9 km/h Distance 46.88 km</desc>
<time>2011-03-24T15:50:31.44</time>
<name>1806</name>
</trkpt>
<trkpt lat="49.327685" lon="9.360652">
<ele>298.0</ele>
<speed>1.0</speed>
<course>255.6</course>
<desc>Speed 1.0 km/h Distance 46.88 km</desc>
<time>2011-03-24T15:50:33.34</time>
<name>1807</name>
</trkpt>
<trkpt lat="49.327683" lon="9.360642">
<ele>299.0</ele>
<speed>3.9</speed>
<course>153.6</course>
<desc>Speed 3.9 km/h Distance 46.88 km</desc>
<time>2011-03-24T15:50:35.71</time>
<name>1808</name>
</trkpt>
<trkpt lat="49.327677" lon="9.360647">
<ele>300.5</ele>
<speed>1.5</speed>
<course>150.8</course>
<desc>Speed 1.5 km/h Distance 46.89 km</desc>
<time>2011-03-24T15:50:37.29</time>
<name>1809</name>
</trkpt>
<trkpt lat="49.327675" lon="9.360648">
<ele>300.5</ele>
<speed>0.6</speed>
<course>90.0</course>
<desc>Speed 0.6 km/h Distance 46.89 km</desc>
<time>2011-03-24T15:50:38.29</time>
<name>1810</name>
</trkpt>
<trkpt lat="49.327675" lon="9.360655">
<ele>300.0</ele>
<speed>0.5</speed>
<course>330.8</course>
<desc>Speed 0.5 km/h Distance 46.89 km</desc>
<time>2011-03-24T15:50:39.29</time>
<name>1811</name>
</trkpt>
<trkpt lat="49.327677" lon="9.360653">
<ele>300.0</ele>
<speed>0.7</speed>
<course>37.2</course>
<desc>Speed 0.7 km/h Distance 46.89 km</desc>
<time>2011-03-24T15:50:40.28</time>
<name>1812</name>
</trkpt>
<trkpt lat="49.327678" lon="9.360655">
<ele>300.5</ele>
<speed>1.3</speed>
<course>117.4</course>
<desc>Speed 1.3 km/h Distance 46.89 km</desc>
<time>2011-03-24T15:50:41.28</time>
<name>1813</name>
</trkpt>
<trkpt lat="49.327677" lon="9.360660">
<ele>302.0</ele>
<speed>2.3</speed>
<course>0.0</course>
<desc>Speed 2.3 km/h Distance 46.89 km</desc>
<time>2011-03-24T15:50:42.32</time>
<name>1814</name>
</trkpt>
<trkpt lat="49.327680" lon="9.360660">
<ele>302.0</ele>
<speed>0.5</speed>
<course>337.0</course>
<desc>Speed 0.5 km/h Distance 46.89 km</desc>
<time>2011-03-24T15:50:45.07</time>
<name>1815</name>
</trkpt>
<trkpt lat="49.327690" lon="9.360653">
<ele>301.5</ele>
<speed>0.3</speed>
<course>90.0</course>
<desc>Speed 0.3 km/h Distance 46.89 km</desc>
<time>2011-03-24T15:50:48.10</time>
<name>1816</name>
</trkpt>
<trkpt lat="49.327690" lon="9.360660">
<ele>302.0</ele>
<speed>1.3</speed>
<course>330.8</course>
<desc>Speed 1.3 km/h Distance 46.89 km</desc>
<time>2011-03-24T15:50:50.21</time>
<name>1817</name>
</trkpt>
<trkpt lat="49.327693" lon="9.360657">
<ele>301.5</ele>
<speed>0.4</speed>
<course>312.9</course>
<desc>Speed 0.4 km/h Distance 46.89 km</desc>
<time>2011-03-24T15:50:51.28</time>
<name>1818</name>
</trkpt>
<trkpt lat="49.327698" lon="9.360648">
<ele>299.0</ele>
<speed>1.4</speed>
<course>90.0</course>
<desc>Speed 1.4 km/h Distance 46.89 km</desc>
<time>2011-03-24T15:50:57.27</time>
<name>1819</name>
</trkpt>
<trkpt lat="49.327698" lon="9.360652">
<ele>298.5</ele>
<speed>0.4</speed>
<course>116.6</course>
<desc>Speed 0.4 km/h Distance 46.89 km</desc>
<time>2011-03-24T15:51:01.46</time>
<name>1820</name>
</trkpt>
<trkpt lat="49.327697" lon="9.360657">
<ele>298.0</ele>
<speed>1.1</speed>
<course>37.2</course>
<desc>Speed 1.1 km/h Distance 46.89 km</desc>
<time>2011-03-24T15:51:04.27</time>
<name>1821</name>
</trkpt>
<trkpt lat="49.327698" lon="9.360658">
<ele>298.0</ele>
<speed>0.4</speed>
<course>135.5</course>
<desc>Speed 0.4 km/h Distance 46.89 km</desc>
<time>2011-03-24T15:51:05.27</time>
<name>1822</name>
</trkpt>
<trkpt lat="49.327695" lon="9.360663">
<ele>299.0</ele>
<speed>0.4</speed>
<course>128.1</course>
<desc>Speed 0.4 km/h Distance 46.89 km</desc>
<time>2011-03-24T15:51:06.26</time>
<name>1823</name>
</trkpt>
<trkpt lat="49.327692" lon="9.360670">
<ele>300.5</ele>
<speed>2.2</speed>
<course>90.0</course>
<desc>Speed 2.2 km/h Distance 46.89 km</desc>
<time>2011-03-24T15:51:07.51</time>
<name>1824</name>
</trkpt>
<trkpt lat="49.327692" lon="9.360673">
<ele>300.5</ele>
<speed>0.6</speed>
<course>72.9</course>
<desc>Speed 0.6 km/h Distance 46.89 km</desc>
<time>2011-03-24T15:51:09.26</time>
<name>1825</name>
</trkpt>
<trkpt lat="49.327693" lon="9.360682">
<ele>300.5</ele>
<speed>1.7</speed>
<course>72.9</course>
<desc>Speed 1.7 km/h Distance 46.89 km</desc>
<time>2011-03-24T15:51:10.25</time>
<name>1826</name>
</trkpt>
<trkpt lat="49.327693" lon="9.360682">
<ele>300.5</ele>
<speed>0.3</speed>
<course>12.6</course>
<desc>Speed 0.3 km/h Distance 46.89 km</desc>
<time>2011-03-24T15:51:11.25</time>
<name>1827</name>
</trkpt>
<trkpt lat="49.327695" lon="9.360682">
<ele>300.0</ele>
<speed>0.4</speed>
<course>322.8</course>
<desc>Speed 0.4 km/h Distance 46.89 km</desc>
<time>2011-03-24T15:51:12.25</time>
<name>1828</name>
</trkpt>
<trkpt lat="49.327697" lon="9.360680">
<ele>299.5</ele>
<speed>1.0</speed>
<course>270.0</course>
<desc>Speed 1.0 km/h Distance 46.89 km</desc>
<time>2011-03-24T15:51:14.79</time>
<name>1829</name>
</trkpt>
<trkpt lat="49.327697" lon="9.360662">
<ele>298.0</ele>
<speed>2.2</speed>
<course>7.4</course>
<desc>Speed 2.2 km/h Distance 46.90 km</desc>
<time>2011-03-24T15:51:20.67</time>
<name>1830</name>
</trkpt>
<trkpt lat="49.327703" lon="9.360663">
<ele>298.0</ele>
<speed>0.3</speed>
<course>127.6</course>
<desc>Speed 0.3 km/h Distance 46.90 km</desc>
<time>2011-03-24T15:51:22.24</time>
<name>1831</name>
</trkpt>
<trkpt lat="49.327698" lon="9.360673">
<ele>299.0</ele>
<speed>2.2</speed>
<course>39.4</course>
<desc>Speed 2.2 km/h Distance 46.90 km</desc>
<time>2011-03-24T15:51:24.24</time>
<name>1832</name>
</trkpt>
<trkpt lat="49.327705" lon="9.360682">
<ele>298.0</ele>
<speed>1.2</speed>
<course>341.2</course>
<desc>Speed 1.2 km/h Distance 46.90 km</desc>
<time>2011-03-24T15:51:26.23</time>
<name>1833</name>
</trkpt>
<trkpt lat="49.327712" lon="9.360678">
<ele>297.5</ele>
<speed>1.0</speed>
<course>29.2</course>
<desc>Speed 1.0 km/h Distance 46.90 km</desc>
<time>2011-03-24T15:51:27.23</time>
<name>1834</name>
</trkpt>
<trkpt lat="49.327713" lon="9.360680">
<ele>298.0</ele>
<speed>0.5</speed>
<course>90.0</course>
<desc>Speed 0.5 km/h Distance 46.90 km</desc>
<time>2011-03-24T15:51:28.22</time>
<name>1835</name>
</trkpt>
<trkpt lat="49.327713" lon="9.360683">
<ele>299.0</ele>
<speed>0.2</speed>
<course>171.9</course>
<desc>Speed 0.2 km/h Distance 46.90 km</desc>
<time>2011-03-24T15:51:29.22</time>
<name>1836</name>
</trkpt>
<trkpt lat="49.327708" lon="9.360683">
<ele>299.5</ele>
<speed>1.1</speed>
<course>52.4</course>
<desc>Speed 1.1 km/h Distance 46.90 km</desc>
<time>2011-03-24T15:51:30.48</time>
<name>1837</name>
</trkpt>
<trkpt lat="49.327712" lon="9.360690">
<ele>299.5</ele>
<speed>4.3</speed>
<course>140.1</course>
<desc>Speed 4.3 km/h Distance 46.90 km</desc>
<time>2011-03-24T15:51:36.52</time>
<name>1838</name>
</trkpt>
<trkpt lat="49.327700" lon="9.360705">
<ele>299.0</ele>
<speed>0.1</speed>
<course>135.5</course>
<desc>Speed 0.1 km/h Distance 46.90 km</desc>
<time>2011-03-24T15:51:38.21</time>
<name>1839</name>
</trkpt>
<trkpt lat="49.327697" lon="9.360710">
<ele>300.0</ele>
<speed>0.1</speed>
<course>270.0</course>
<desc>Speed 0.1 km/h Distance 46.90 km</desc>
<time>2011-03-24T15:51:39.21</time>
<name>1840</name>
</trkpt>
<trkpt lat="49.327697" lon="9.360708">
<ele>300.5</ele>
<speed>0.3</speed>
<course>270.0</course>
<desc>Speed 0.3 km/h Distance 46.90 km</desc>
<time>2011-03-24T15:51:40.21</time>
<name>1841</name>
</trkpt>
<trkpt lat="49.327697" lon="9.360708">
<ele>300.5</ele>
<speed>1.3</speed>
<course>270.0</course>
<desc>Speed 1.3 km/h Distance 46.90 km</desc>
<time>2011-03-24T15:51:41.21</time>
<name>1842</name>
</trkpt>
<trkpt lat="49.327697" lon="9.360707">
<ele>300.5</ele>
<speed>0.5</speed>
<course>63.4</course>
<desc>Speed 0.5 km/h Distance 46.90 km</desc>
<time>2011-03-24T15:51:42.20</time>
<name>1843</name>
</trkpt>
<trkpt lat="49.327698" lon="9.360712">
<ele>299.0</ele>
<speed>1.7</speed>
<course>12.6</course>
<desc>Speed 1.7 km/h Distance 46.90 km</desc>
<time>2011-03-24T15:51:43.20</time>
<name>1844</name>
</trkpt>
<trkpt lat="49.327700" lon="9.360712">
<ele>298.0</ele>
<speed>1.0</speed>
<course>217.2</course>
<desc>Speed 1.0 km/h Distance 46.90 km</desc>
<time>2011-03-24T15:51:44.21</time>
<name>1845</name>
</trkpt>
<trkpt lat="49.327698" lon="9.360710">
<ele>296.5</ele>
<speed>1.0</speed>
<course>220.9</course>
<desc>Speed 1.0 km/h Distance 46.90 km</desc>
<time>2011-03-24T15:51:45.20</time>
<name>1846</name>
</trkpt>
<trkpt lat="49.327693" lon="9.360703">
<ele>296.0</ele>
<speed>4.3</speed>
<course>97.3</course>
<desc>Speed 4.3 km/h Distance 46.90 km</desc>
<time>2011-03-24T15:51:46.20</time>
<name>1847</name>
</trkpt>
<trkpt lat="49.327692" lon="9.360723">
<ele>295.0</ele>
<speed>4.4</speed>
<course>249.0</course>
<desc>Speed 4.4 km/h Distance 46.91 km</desc>
<time>2011-03-24T15:51:47.21</time>
<name>1848</name>
</trkpt>
<trkpt lat="49.327685" lon="9.360697">
<ele>292.0</ele>
<speed>6.4</speed>
<course>131.3</course>
<desc>Speed 6.4 km/h Distance 46.91 km</desc>
<time>2011-03-24T15:51:48.19</time>
<name>1849</name>
</trkpt>
<trkpt lat="49.327678" lon="9.360708">
<ele>292.0</ele>
<speed>2.1</speed>
<course>90.0</course>
<desc>Speed 2.1 km/h Distance 46.91 km</desc>
<time>2011-03-24T15:51:49.19</time>
<name>1850</name>
</trkpt>
<trkpt lat="49.327678" lon="9.360710">
<ele>292.0</ele>
<speed>2.1</speed>
<course>5.8</course>
<desc>Speed 2.1 km/h Distance 46.91 km</desc>
<time>2011-03-24T15:51:50.20</time>
<name>1851</name>
</trkpt>
<trkpt lat="49.327710" lon="9.360715">
<ele>290.0</ele>
<speed>9.2</speed>
<course>2.7</course>
<desc>Speed 9.2 km/h Distance 46.91 km</desc>
<time>2011-03-24T15:51:51.20</time>
<name>1852</name>
</trkpt>
<trkpt lat="49.327730" lon="9.360717">
<ele>290.5</ele>
<speed>9.2</speed>
<course>135.7</course>
<desc>Speed 9.2 km/h Distance 46.91 km</desc>
<time>2011-03-24T15:51:52.19</time>
<name>1853</name>
</trkpt>
<trkpt lat="49.327723" lon="9.360727">
<ele>290.5</ele>
<speed>0.9</speed>
<course>180.0</course>
<desc>Speed 0.9 km/h Distance 46.92 km</desc>
<time>2011-03-24T15:51:53.19</time>
<name>1854</name>
</trkpt>
<trkpt lat="49.327720" lon="9.360727">
<ele>291.0</ele>
<speed>1.3</speed>
<course>69.1</course>
<desc>Speed 1.3 km/h Distance 46.92 km</desc>
<time>2011-03-24T15:51:54.17</time>
<name>1855</name>
</trkpt>
<trkpt lat="49.327722" lon="9.360733">
<ele>292.0</ele>
<speed>1.6</speed>
<course>157.8</course>
<desc>Speed 1.6 km/h Distance 46.92 km</desc>
<time>2011-03-24T15:51:55.17</time>
<name>1856</name>
</trkpt>
<trkpt lat="49.327717" lon="9.360737">
<ele>292.0</ele>
<speed>1.6</speed>
<course>130.6</course>
<desc>Speed 1.6 km/h Distance 46.92 km</desc>
<time>2011-03-24T15:51:56.18</time>
<name>1857</name>
</trkpt>
<trkpt lat="49.327715" lon="9.360740">
<ele>292.0</ele>
<speed>1.6</speed>
<course>139.1</course>
<desc>Speed 1.6 km/h Distance 46.92 km</desc>
<time>2011-03-24T15:51:57.18</time>
<name>1858</name>
</trkpt>
<trkpt lat="49.327710" lon="9.360747">
<ele>292.0</ele>
<speed>1.6</speed>
<course>25.6</course>
<desc>Speed 1.6 km/h Distance 46.92 km</desc>
<time>2011-03-24T15:51:58.17</time>
<name>1859</name>
</trkpt>
<trkpt lat="49.327717" lon="9.360752">
<ele>292.5</ele>
<speed>0.9</speed>
<course>127.6</course>
<desc>Speed 0.9 km/h Distance 46.92 km</desc>
<time>2011-03-24T15:51:59.17</time>
<name>1860</name>
</trkpt>
<trkpt lat="49.327710" lon="9.360765">
<ele>292.0</ele>
<speed>1.8</speed>
<course>169.6</course>
<desc>Speed 1.8 km/h Distance 46.92 km</desc>
<time>2011-03-24T15:52:00.16</time>
<name>1861</name>
</trkpt>
<trkpt lat="49.327698" lon="9.360768">
<ele>292.0</ele>
<speed>4.4</speed>
<course>154.4</course>
<desc>Speed 4.4 km/h Distance 46.92 km</desc>
<time>2011-03-24T15:52:01.16</time>
<name>1862</name>
</trkpt>
<trkpt lat="49.327692" lon="9.360773">
<ele>291.5</ele>
<speed>4.4</speed>
<course>0.0</course>
<desc>Speed 4.4 km/h Distance 46.92 km</desc>
<time>2011-03-24T15:52:02.17</time>
<name>1863</name>
</trkpt>
<trkpt lat="49.327707" lon="9.360773">
<ele>290.5</ele>
<speed>4.9</speed>
<course>322.8</course>
<desc>Speed 4.9 km/h Distance 46.92 km</desc>
<time>2011-03-24T15:52:03.16</time>
<name>1864</name>
</trkpt>
<trkpt lat="49.327708" lon="9.360772">
<ele>290.0</ele>
<speed>1.5</speed>
<course>167.4</course>
<desc>Speed 1.5 km/h Distance 46.92 km</desc>
<time>2011-03-24T15:52:04.15</time>
<name>1865</name>
</trkpt>
<trkpt lat="49.327703" lon="9.360773">
<ele>290.0</ele>
<speed>2.0</speed>
<course>213.7</course>
<desc>Speed 2.0 km/h Distance 46.92 km</desc>
<time>2011-03-24T15:52:05.15</time>
<name>1866</name>
</trkpt>
<trkpt lat="49.327700" lon="9.360770">
<ele>290.0</ele>
<speed>2.0</speed>
<course>336.6</course>
<desc>Speed 2.0 km/h Distance 46.93 km</desc>
<time>2011-03-24T15:52:06.15</time>
<name>1867</name>
</trkpt>
<trkpt lat="49.327710" lon="9.360763">
<ele>288.0</ele>
<speed>3.4</speed>
<course>25.3</course>
<desc>Speed 3.4 km/h Distance 46.93 km</desc>
<time>2011-03-24T15:52:07.15</time>
<name>1868</name>
</trkpt>
<trkpt lat="49.327728" lon="9.360777">
<ele>289.0</ele>
<speed>2.7</speed>
<course>319.1</course>
<desc>Speed 2.7 km/h Distance 46.93 km</desc>
<time>2011-03-24T15:52:08.14</time>
<name>1869</name>
</trkpt>
<trkpt lat="49.327733" lon="9.360770">
<ele>289.5</ele>
<speed>0.5</speed>
<course>336.2</course>
<desc>Speed 0.5 km/h Distance 46.93 km</desc>
<time>2011-03-24T15:52:09.14</time>
<name>1870</name>
</trkpt>
<trkpt lat="49.327743" lon="9.360763">
<ele>289.5</ele>
<speed>1.2</speed>
<course>252.9</course>
<desc>Speed 1.2 km/h Distance 46.93 km</desc>
<time>2011-03-24T15:52:10.13</time>
<name>1871</name>
</trkpt>
<trkpt lat="49.327740" lon="9.360747">
<ele>288.5</ele>
<speed>1.2</speed>
<course>12.6</course>
<desc>Speed 1.2 km/h Distance 46.93 km</desc>
<time>2011-03-24T15:52:11.13</time>
<name>1872</name>
</trkpt>
<trkpt lat="49.327743" lon="9.360748">
<ele>289.5</ele>
<speed>0.8</speed>
<course>301.8</course>
<desc>Speed 0.8 km/h Distance 46.93 km</desc>
<time>2011-03-24T15:52:12.13</time>
<name>1873</name>
</trkpt>
<trkpt lat="49.327747" lon="9.360740">
<ele>289.5</ele>
<speed>0.2</speed>
<course>270.0</course>
<desc>Speed 0.2 km/h Distance 46.93 km</desc>
<time>2011-03-24T15:52:13.13</time>
<name>1874</name>
</trkpt>
<trkpt lat="49.327747" lon="9.360735">
<ele>289.5</ele>
<speed>0.2</speed>
<course>270.0</course>
<desc>Speed 0.2 km/h Distance 46.93 km</desc>
<time>2011-03-24T15:52:14.12</time>
<name>1875</name>
</trkpt>
<trkpt lat="49.327747" lon="9.360723">
<ele>289.5</ele>
<speed>0.3</speed>
<course>187.7</course>
<desc>Speed 0.3 km/h Distance 46.93 km</desc>
<time>2011-03-24T15:52:15.12</time>
<name>1876</name>
</trkpt>
<trkpt lat="49.327738" lon="9.360722">
<ele>291.0</ele>
<speed>2.9</speed>
<course>203.0</course>
<desc>Speed 2.9 km/h Distance 46.94 km</desc>
<time>2011-03-24T15:52:16.12</time>
<name>1877</name>
</trkpt>
<trkpt lat="49.327735" lon="9.360720">
<ele>291.0</ele>
<speed>0.4</speed>
<course>167.4</course>
<desc>Speed 0.4 km/h Distance 46.94 km</desc>
<time>2011-03-24T15:52:17.12</time>
<name>1878</name>
</trkpt>
<trkpt lat="49.327733" lon="9.360720">
<ele>290.5</ele>
<speed>0.4</speed>
<course>192.6</course>
<desc>Speed 0.4 km/h Distance 46.94 km</desc>
<time>2011-03-24T15:52:18.13</time>
<name>1879</name>
</trkpt>
<trkpt lat="49.327732" lon="9.360718">
<ele>290.5</ele>
<speed>0.4</speed>
<course>291.1</course>
<desc>Speed 0.4 km/h Distance 46.94 km</desc>
<time>2011-03-24T15:52:19.13</time>
<name>1880</name>
</trkpt>
<trkpt lat="49.327735" lon="9.360705">
<ele>289.5</ele>
<speed>0.4</speed>
<course>291.1</course>
<desc>Speed 0.4 km/h Distance 46.94 km</desc>
<time>2011-03-24T15:52:20.12</time>
<name>1881</name>
</trkpt>
<trkpt lat="49.327735" lon="9.360705">
<ele>289.5</ele>
<speed>1.7</speed>
<course>308.1</course>
<desc>Speed 1.7 km/h Distance 46.94 km</desc>
<time>2011-03-24T15:52:21.13</time>
<name>1882</name>
</trkpt>
<trkpt lat="49.327737" lon="9.360702">
<ele>289.0</ele>
<speed>1.7</speed>
<course>197.5</course>
<desc>Speed 1.7 km/h Distance 46.94 km</desc>
<time>2011-03-24T15:52:22.11</time>
<name>1883</name>
</trkpt>
<trkpt lat="49.327730" lon="9.360698">
<ele>288.5</ele>
<speed>2.2</speed>
<course>326.8</course>
<desc>Speed 2.2 km/h Distance 46.94 km</desc>
<time>2011-03-24T15:52:23.11</time>
<name>1884</name>
</trkpt>
<trkpt lat="49.327735" lon="9.360693">
<ele>288.0</ele>
<speed>3.0</speed>
<course>231.9</course>
<desc>Speed 3.0 km/h Distance 46.94 km</desc>
<time>2011-03-24T15:52:24.09</time>
<name>1885</name>
</trkpt>
<trkpt lat="49.327733" lon="9.360690">
<ele>287.5</ele>
<speed>1.5</speed>
<course>6.6</course>
<desc>Speed 1.5 km/h Distance 46.94 km</desc>
<time>2011-03-24T15:52:25.09</time>
<name>1886</name>
</trkpt>
<trkpt lat="49.327743" lon="9.360692">
<ele>287.5</ele>
<speed>4.1</speed>
<course>17.0</course>
<desc>Speed 4.1 km/h Distance 46.94 km</desc>
<time>2011-03-24T15:52:26.09</time>
<name>1887</name>
</trkpt>
<trkpt lat="49.327753" lon="9.360697">
<ele>287.5</ele>
<speed>3.7</speed>
<course>345.0</course>
<desc>Speed 3.7 km/h Distance 46.94 km</desc>
<time>2011-03-24T15:52:27.25</time>
<name>1888</name>
</trkpt>
<trkpt lat="49.327773" lon="9.360688">
<ele>286.5</ele>
<speed>4.0</speed>
<course>219.4</course>
<desc>Speed 4.0 km/h Distance 46.94 km</desc>
<time>2011-03-24T15:52:29.10</time>
<name>1889</name>
</trkpt>
<trkpt lat="49.327697" lon="9.360592">
<ele>284.5</ele>
<speed>27.9</speed>
<course>20.3</course>
<desc>Speed 27.9 km/h Distance 46.95 km</desc>
<time>2011-03-24T15:52:31.08</time>
<name>1890</name>
</trkpt>
<trkpt lat="49.327758" lon="9.360627">
<ele>285.0</ele>
<speed>3.4</speed>
<course>317.7</course>
<desc>Speed 3.4 km/h Distance 46.96 km</desc>
<time>2011-03-24T15:52:33.07</time>
<name>1891</name>
</trkpt>
<trkpt lat="49.327767" lon="9.360615">
<ele>285.0</ele>
<speed>4.4</speed>
<course>228.1</course>
<desc>Speed 4.4 km/h Distance 46.96 km</desc>
<time>2011-03-24T15:52:34.37</time>
<name>1892</name>
</trkpt>
<trkpt lat="49.327755" lon="9.360595">
<ele>285.5</ele>
<speed>1.7</speed>
<course>197.5</course>
<desc>Speed 1.7 km/h Distance 46.97 km</desc>
<time>2011-03-24T15:52:36.14</time>
<name>1893</name>
</trkpt>
<trkpt lat="49.327748" lon="9.360592">
<ele>285.0</ele>
<speed>5.3</speed>
<course>60.1</course>
<desc>Speed 5.3 km/h Distance 46.97 km</desc>
<time>2011-03-24T15:52:37.07</time>
<name>1894</name>
</trkpt>
<trkpt lat="49.327753" lon="9.360605">
<ele>285.5</ele>
<speed>0.6</speed>
<course>0.0</course>
<desc>Speed 0.6 km/h Distance 46.97 km</desc>
<time>2011-03-24T15:52:38.06</time>
<name>1895</name>
</trkpt>
<trkpt lat="49.327755" lon="9.360605">
<ele>284.5</ele>
<speed>2.6</speed>
<course>180.0</course>
<desc>Speed 2.6 km/h Distance 46.97 km</desc>
<time>2011-03-24T15:52:39.07</time>
<name>1896</name>
</trkpt>
<trkpt lat="49.327753" lon="9.360605">
<ele>284.5</ele>
<speed>0.3</speed>
<course>90.0</course>
<desc>Speed 0.3 km/h Distance 46.97 km</desc>
<time>2011-03-24T15:52:40.07</time>
<name>1897</name>
</trkpt>
<trkpt lat="49.327753" lon="9.360608">
<ele>284.5</ele>
<speed>0.8</speed>
<course>52.4</course>
<desc>Speed 0.8 km/h Distance 46.97 km</desc>
<time>2011-03-24T15:52:41.06</time>
<name>1898</name>
</trkpt>
<trkpt lat="49.327757" lon="9.360615">
<ele>284.0</ele>
<speed>0.8</speed>
<course>90.0</course>
<desc>Speed 0.8 km/h Distance 46.97 km</desc>
<time>2011-03-24T15:52:42.06</time>
<name>1899</name>
</trkpt>
<trkpt lat="49.327757" lon="9.360618">
<ele>284.0</ele>
<speed>0.8</speed>
<course>58.6</course>
<desc>Speed 0.8 km/h Distance 46.97 km</desc>
<time>2011-03-24T15:52:43.06</time>
<name>1900</name>
</trkpt>
<trkpt lat="49.327760" lon="9.360627">
<ele>284.0</ele>
<speed>0.8</speed>
<course>18.8</course>
<desc>Speed 0.8 km/h Distance 46.97 km</desc>
<time>2011-03-24T15:52:44.15</time>
<name>1901</name>
</trkpt>
<trkpt lat="49.327767" lon="9.360630">
<ele>284.0</ele>
<speed>1.8</speed>
<course>90.0</course>
<desc>Speed 1.8 km/h Distance 46.97 km</desc>
<time>2011-03-24T15:52:45.06</time>
<name>1902</name>
</trkpt>
<trkpt lat="49.327767" lon="9.360632">
<ele>284.0</ele>
<speed>1.0</speed>
<course>80.3</course>
<desc>Speed 1.0 km/h Distance 46.97 km</desc>
<time>2011-03-24T15:52:46.06</time>
<name>1903</name>
</trkpt>
<trkpt lat="49.327768" lon="9.360647">
<ele>284.5</ele>
<speed>1.8</speed>
<course>18.8</course>
<desc>Speed 1.8 km/h Distance 46.97 km</desc>
<time>2011-03-24T15:52:47.07</time>
<name>1904</name>
</trkpt>
<trkpt lat="49.327772" lon="9.360648">
<ele>284.5</ele>
<speed>1.0</speed>
<course>117.4</course>
<desc>Speed 1.0 km/h Distance 46.97 km</desc>
<time>2011-03-24T15:52:48.06</time>
<name>1905</name>
</trkpt>
<trkpt lat="49.327770" lon="9.360653">
<ele>284.5</ele>
<speed>0.6</speed>
<course>68.9</course>
<desc>Speed 0.6 km/h Distance 46.97 km</desc>
<time>2011-03-24T15:52:49.05</time>
<name>1906</name>
</trkpt>
<trkpt lat="49.327773" lon="9.360667">
<ele>285.5</ele>
<speed>1.5</speed>
<course>79.2</course>
<desc>Speed 1.5 km/h Distance 46.97 km</desc>
<time>2011-03-24T15:52:50.06</time>
<name>1907</name>
</trkpt>
<trkpt lat="49.327775" lon="9.360680">
<ele>286.0</ele>
<speed>2.0</speed>
<course>347.4</course>
<desc>Speed 2.0 km/h Distance 46.97 km</desc>
<time>2011-03-24T15:52:51.06</time>
<name>1908</name>
</trkpt>
<trkpt lat="49.327780" lon="9.360678">
<ele>286.0</ele>
<speed>0.5</speed>
<course>315.5</course>
<desc>Speed 0.5 km/h Distance 46.97 km</desc>
<time>2011-03-24T15:52:52.15</time>
<name>1909</name>
</trkpt>
<trkpt lat="49.327783" lon="9.360673">
<ele>286.5</ele>
<speed>0.5</speed>
<course>219.4</course>
<desc>Speed 0.5 km/h Distance 46.98 km</desc>
<time>2011-03-24T15:52:53.06</time>
<name>1910</name>
</trkpt>
<trkpt lat="49.327777" lon="9.360665">
<ele>286.5</ele>
<speed>1.4</speed>
<course>191.6</course>
<desc>Speed 1.4 km/h Distance 46.98 km</desc>
<time>2011-03-24T15:52:54.06</time>
<name>1911</name>
</trkpt>
<trkpt lat="49.327767" lon="9.360662">
<ele>286.5</ele>
<speed>2.4</speed>
<course>0.0</course>
<desc>Speed 2.4 km/h Distance 46.98 km</desc>
<time>2011-03-24T15:52:56.14</time>
<name>1912</name>
</trkpt>
<trkpt lat="49.327778" lon="9.360662">
<ele>286.5</ele>
<speed>6.0</speed>
<course>160.1</course>
<desc>Speed 6.0 km/h Distance 46.98 km</desc>
<time>2011-03-24T15:52:57.11</time>
<name>1913</name>
</trkpt>
<trkpt lat="49.327763" lon="9.360670">
<ele>288.0</ele>
<speed>0.8</speed>
<course>142.3</course>
<desc>Speed 0.8 km/h Distance 46.98 km</desc>
<time>2011-03-24T15:52:58.11</time>
<name>1914</name>
</trkpt>
<trkpt lat="49.327755" lon="9.360680">
<ele>289.0</ele>
<speed>0.3</speed>
<course>180.0</course>
<desc>Speed 0.3 km/h Distance 46.98 km</desc>
<time>2011-03-24T15:52:59.10</time>
<name>1915</name>
</trkpt>
<trkpt lat="49.327753" lon="9.360680">
<ele>289.0</ele>
<speed>0.6</speed>
<course>167.4</course>
<desc>Speed 0.6 km/h Distance 46.98 km</desc>
<time>2011-03-24T15:53:00.10</time>
<name>1916</name>
</trkpt>
<trkpt lat="49.327748" lon="9.360682">
<ele>289.0</ele>
<speed>0.8</speed>
<course>162.5</course>
<desc>Speed 0.8 km/h Distance 46.98 km</desc>
<time>2011-03-24T15:53:01.18</time>
<name>1917</name>
</trkpt>
<trkpt lat="49.327742" lon="9.360685">
<ele>290.0</ele>
<speed>0.3</speed>
<course>146.8</course>
<desc>Speed 0.3 km/h Distance 46.98 km</desc>
<time>2011-03-24T15:53:02.10</time>
<name>1918</name>
</trkpt>
<trkpt lat="49.327737" lon="9.360690">
<ele>290.5</ele>
<speed>0.0</speed>
<course>147.7</course>
<desc>Speed 0.0 km/h Distance 46.98 km</desc>
<time>2011-03-24T15:53:03.10</time>
<name>1919</name>
</trkpt>
<trkpt lat="49.327732" lon="9.360695">
<ele>290.5</ele>
<speed>0.5</speed>
<course>147.7</course>
<desc>Speed 0.5 km/h Distance 46.98 km</desc>
<time>2011-03-24T15:53:04.10</time>
<name>1920</name>
</trkpt>
<trkpt lat="49.327727" lon="9.360700">
<ele>291.0</ele>
<speed>0.0</speed>
<course>153.6</course>
<desc>Speed 0.0 km/h Distance 46.99 km</desc>
<time>2011-03-24T15:53:05.11</time>
<name>1921</name>
</trkpt>
<trkpt lat="49.327720" lon="9.360705">
<ele>291.5</ele>
<speed>0.1</speed>
<course>146.8</course>
<desc>Speed 0.1 km/h Distance 46.99 km</desc>
<time>2011-03-24T15:53:06.10</time>
<name>1922</name>
</trkpt>
<trkpt lat="49.327713" lon="9.360712">
<ele>292.0</ele>
<speed>0.3</speed>
<course>157.0</course>
<desc>Speed 0.3 km/h Distance 46.99 km</desc>
<time>2011-03-24T15:53:07.11</time>
<name>1923</name>
</trkpt>
<trkpt lat="49.327710" lon="9.360713">
<ele>292.5</ele>
<speed>0.1</speed>
<course>146.3</course>
<desc>Speed 0.1 km/h Distance 46.99 km</desc>
<time>2011-03-24T15:53:08.11</time>
<name>1924</name>
</trkpt>
<trkpt lat="49.327707" lon="9.360717">
<ele>293.0</ele>
<speed>0.3</speed>
<course>150.8</course>
<desc>Speed 0.3 km/h Distance 46.99 km</desc>
<time>2011-03-24T15:53:09.16</time>
<name>1925</name>
</trkpt>
<trkpt lat="49.327705" lon="9.360718">
<ele>293.5</ele>
<speed>0.0</speed>
<course>128.1</course>
<desc>Speed 0.0 km/h Distance 46.99 km</desc>
<time>2011-03-24T15:53:10.10</time>
<name>1926</name>
</trkpt>
<trkpt lat="49.327703" lon="9.360722">
<ele>293.5</ele>
<speed>0.2</speed>
<course>128.1</course>
<desc>Speed 0.2 km/h Distance 46.99 km</desc>
<time>2011-03-24T15:53:11.09</time>
<name>1927</name>
</trkpt>
<trkpt lat="49.327703" lon="9.360722">
<ele>293.5</ele>
<speed>0.2</speed>
<course>128.1</course>
<desc>Speed 0.2 km/h Distance 46.99 km</desc>
<time>2011-03-24T15:53:12.09</time>
<name>1928</name>
</trkpt>
<trkpt lat="49.327703" lon="9.360722">
<ele>293.5</ele>
<speed>0.3</speed>
<course>167.4</course>
<desc>Speed 0.3 km/h Distance 46.99 km</desc>
<time>2011-03-24T15:53:13.10</time>
<name>1929</name>
</trkpt>
<trkpt lat="49.327702" lon="9.360722">
<ele>293.5</ele>
<speed>0.3</speed>
<course>167.4</course>
<desc>Speed 0.3 km/h Distance 46.99 km</desc>
<time>2011-03-24T15:53:14.10</time>
<name>1930</name>
</trkpt>
<trkpt lat="49.327702" lon="9.360722">
<ele>293.5</ele>
<speed>0.4</speed>
<course>167.4</course>
<desc>Speed 0.4 km/h Distance 46.99 km</desc>
<time>2011-03-24T15:53:15.09</time>
<name>1931</name>
</trkpt>
<trkpt lat="49.327702" lon="9.360722">
<ele>294.0</ele>
<speed>0.1</speed>
<course>167.4</course>
<desc>Speed 0.1 km/h Distance 46.99 km</desc>
<time>2011-03-24T15:53:16.09</time>
<name>1932</name>
</trkpt>
<trkpt lat="49.327700" lon="9.360722">
<ele>294.0</ele>
<speed>0.2</speed>
<course>167.4</course>
<desc>Speed 0.2 km/h Distance 46.99 km</desc>
<time>2011-03-24T15:53:17.17</time>
<name>1933</name>
</trkpt>
<trkpt lat="49.327700" lon="9.360722">
<ele>294.0</ele>
<speed>0.2</speed>
<course>270.0</course>
<desc>Speed 0.2 km/h Distance 46.99 km</desc>
<time>2011-03-24T15:53:18.09</time>
<name>1934</name>
</trkpt>
<trkpt lat="49.327700" lon="9.360720">
<ele>294.0</ele>
<speed>0.2</speed>
<course>90.0</course>
<desc>Speed 0.2 km/h Distance 46.99 km</desc>
<time>2011-03-24T15:53:19.09</time>
<name>1935</name>
</trkpt>
<trkpt lat="49.327700" lon="9.360732">
<ele>295.5</ele>
<speed>3.0</speed>
<course>167.4</course>
<desc>Speed 3.0 km/h Distance 46.99 km</desc>
<time>2011-03-24T15:53:20.10</time>
<name>1936</name>
</trkpt>
<trkpt lat="49.327698" lon="9.360732">
<ele>296.0</ele>
<speed>0.3</speed>
<course>322.8</course>
<desc>Speed 0.3 km/h Distance 46.99 km</desc>
<time>2011-03-24T15:53:21.10</time>
<name>1937</name>
</trkpt>
<trkpt lat="49.327700" lon="9.360730">
<ele>295.5</ele>
<speed>0.1</speed>
<course>217.2</course>
<desc>Speed 0.1 km/h Distance 46.99 km</desc>
<time>2011-03-24T15:53:22.09</time>
<name>1938</name>
</trkpt>
<trkpt lat="49.327698" lon="9.360728">
<ele>295.5</ele>
<speed>0.1</speed>
<course>270.0</course>
<desc>Speed 0.1 km/h Distance 46.99 km</desc>
<time>2011-03-24T15:53:23.09</time>
<name>1939</name>
</trkpt>
<trkpt lat="49.327698" lon="9.360725">
<ele>295.0</ele>
<speed>0.3</speed>
<course>217.2</course>
<desc>Speed 0.3 km/h Distance 46.99 km</desc>
<time>2011-03-24T15:53:24.10</time>
<name>1940</name>
</trkpt>
<trkpt lat="49.327697" lon="9.360723">
<ele>295.0</ele>
<speed>0.1</speed>
<course>217.2</course>
<desc>Speed 0.1 km/h Distance 46.99 km</desc>
<time>2011-03-24T15:53:25.18</time>
<name>1941</name>
</trkpt>
<trkpt lat="49.327697" lon="9.360723">
<ele>295.0</ele>
<speed>0.2</speed>
<course>167.4</course>
<desc>Speed 0.2 km/h Distance 46.99 km</desc>
<time>2011-03-24T15:53:26.10</time>
<name>1942</name>
</trkpt>
<trkpt lat="49.327695" lon="9.360723">
<ele>295.0</ele>
<speed>0.1</speed>
<course>202.2</course>
<desc>Speed 0.1 km/h Distance 46.99 km</desc>
<time>2011-03-24T15:53:27.10</time>
<name>1943</name>
</trkpt>
<trkpt lat="49.327690" lon="9.360720">
<ele>294.5</ele>
<speed>2.7</speed>
<course>218.0</course>
<desc>Speed 2.7 km/h Distance 46.99 km</desc>
<time>2011-03-24T15:53:28.09</time>
<name>1944</name>
</trkpt>
<trkpt lat="49.327673" lon="9.360700">
<ele>293.0</ele>
<speed>7.8</speed>
<course>204.3</course>
<desc>Speed 7.8 km/h Distance 46.99 km</desc>
<time>2011-03-24T15:53:29.09</time>
<name>1945</name>
</trkpt>
<trkpt lat="49.327652" lon="9.360685">
<ele>292.5</ele>
<speed>9.7</speed>
<course>211.5</course>
<desc>Speed 9.7 km/h Distance 47.00 km</desc>
<time>2011-03-24T15:53:30.09</time>
<name>1946</name>
</trkpt>
<trkpt lat="49.327623" lon="9.360658">
<ele>292.0</ele>
<speed>13.7</speed>
<course>208.7</course>
<desc>Speed 13.7 km/h Distance 47.00 km</desc>
<time>2011-03-24T15:53:31.09</time>
<name>1947</name>
</trkpt>
<trkpt lat="49.327582" lon="9.360623">
<ele>291.0</ele>
<speed>18.5</speed>
<course>215.3</course>
<desc>Speed 18.5 km/h Distance 47.01 km</desc>
<time>2011-03-24T15:53:32.09</time>
<name>1948</name>
</trkpt>
<trkpt lat="49.327523" lon="9.360560">
<ele>291.0</ele>
<speed>28.3</speed>
<course>222.2</course>
<desc>Speed 28.3 km/h Distance 47.01 km</desc>
<time>2011-03-24T15:53:33.17</time>
<name>1949</name>
</trkpt>
<trkpt lat="49.327477" lon="9.360495">
<ele>290.0</ele>
<speed>25.3</speed>
<course>235.5</course>
<desc>Speed 25.3 km/h Distance 47.02 km</desc>
<time>2011-03-24T15:53:34.09</time>
<name>1950</name>
</trkpt>
<trkpt lat="49.327433" lon="9.360398">
<ele>289.5</ele>
<speed>30.5</speed>
<course>269.1</course>
<desc>Speed 30.5 km/h Distance 47.03 km</desc>
<time>2011-03-24T15:53:35.61</time>
<name>1951</name>
</trkpt>
<trkpt lat="49.327432" lon="9.360237">
<ele>289.5</ele>
<speed>21.1</speed>
<course>274.5</course>
<desc>Speed 21.1 km/h Distance 47.04 km</desc>
<time>2011-03-24T15:53:37.09</time>
<name>1952</name>
</trkpt>
<trkpt lat="49.327437" lon="9.360140">
<ele>288.5</ele>
<speed>24.6</speed>
<course>263.7</course>
<desc>Speed 24.6 km/h Distance 47.05 km</desc>
<time>2011-03-24T15:53:38.09</time>
<name>1953</name>
</trkpt>
<trkpt lat="49.327428" lon="9.360025">
<ele>288.0</ele>
<speed>30.3</speed>
<course>278.6</course>
<desc>Speed 30.3 km/h Distance 47.06 km</desc>
<time>2011-03-24T15:53:39.09</time>
<name>1954</name>
</trkpt>
<trkpt lat="49.327438" lon="9.359923">
<ele>288.0</ele>
<speed>27.5</speed>
<course>289.8</course>
<desc>Speed 27.5 km/h Distance 47.06 km</desc>
<time>2011-03-24T15:53:40.09</time>
<name>1955</name>
</trkpt>
<trkpt lat="49.327458" lon="9.359838">
<ele>287.0</ele>
<speed>24.5</speed>
<course>285.3</course>
<desc>Speed 24.5 km/h Distance 47.07 km</desc>
<time>2011-03-24T15:53:41.09</time>
<name>1956</name>
</trkpt>
<trkpt lat="49.327472" lon="9.359763">
<ele>287.0</ele>
<speed>24.5</speed>
<course>284.3</course>
<desc>Speed 24.5 km/h Distance 47.08 km</desc>
<time>2011-03-24T15:53:42.09</time>
<name>1957</name>
</trkpt>
<trkpt lat="49.327482" lon="9.359703">
<ele>287.0</ele>
<speed>24.5</speed>
<course>238.5</course>
<desc>Speed 24.5 km/h Distance 47.08 km</desc>
<time>2011-03-24T15:53:43.08</time>
<name>1958</name>
</trkpt>
<trkpt lat="49.327435" lon="9.359587">
<ele>287.0</ele>
<speed>35.7</speed>
<course>241.6</course>
<desc>Speed 35.7 km/h Distance 47.09 km</desc>
<time>2011-03-24T15:53:44.09</time>
<name>1959</name>
</trkpt>
<trkpt lat="49.327405" lon="9.359502">
<ele>286.5</ele>
<speed>23.3</speed>
<course>231.9</course>
<desc>Speed 23.3 km/h Distance 47.10 km</desc>
<time>2011-03-24T15:53:45.08</time>
<name>1960</name>
</trkpt>
<trkpt lat="49.327367" lon="9.359427">
<ele>287.5</ele>
<speed>25.4</speed>
<course>229.8</course>
<desc>Speed 25.4 km/h Distance 47.10 km</desc>
<time>2011-03-24T15:53:46.08</time>
<name>1961</name>
</trkpt>
<trkpt lat="49.327330" lon="9.359360">
<ele>287.5</ele>
<speed>25.1</speed>
<course>225.6</course>
<desc>Speed 25.1 km/h Distance 47.11 km</desc>
<time>2011-03-24T15:53:47.08</time>
<name>1962</name>
</trkpt>
<trkpt lat="49.327292" lon="9.359300">
<ele>287.5</ele>
<speed>25.1</speed>
<course>203.7</course>
<desc>Speed 25.1 km/h Distance 47.12 km</desc>
<time>2011-03-24T15:53:48.08</time>
<name>1963</name>
</trkpt>
<trkpt lat="49.327205" lon="9.359242">
<ele>287.0</ele>
<speed>35.2</speed>
<course>191.8</course>
<desc>Speed 35.2 km/h Distance 47.13 km</desc>
<time>2011-03-24T15:53:49.07</time>
<name>1964</name>
</trkpt>
<trkpt lat="49.327107" lon="9.359210">
<ele>287.0</ele>
<speed>36.8</speed>
<course>170.6</course>
<desc>Speed 36.8 km/h Distance 47.14 km</desc>
<time>2011-03-24T15:53:50.07</time>
<name>1965</name>
</trkpt>
<trkpt lat="49.327015" lon="9.359233">
<ele>286.5</ele>
<speed>39.3</speed>
<course>156.5</course>
<desc>Speed 39.3 km/h Distance 47.15 km</desc>
<time>2011-03-24T15:53:51.08</time>
<name>1966</name>
</trkpt>
<trkpt lat="49.326915" lon="9.359300">
<ele>286.0</ele>
<speed>44.0</speed>
<course>154.2</course>
<desc>Speed 44.0 km/h Distance 47.16 km</desc>
<time>2011-03-24T15:53:52.08</time>
<name>1967</name>
</trkpt>
<trkpt lat="49.326812" lon="9.359377">
<ele>285.5</ele>
<speed>45.2</speed>
<course>159.2</course>
<desc>Speed 45.2 km/h Distance 47.17 km</desc>
<time>2011-03-24T15:53:53.07</time>
<name>1968</name>
</trkpt>
<trkpt lat="49.326712" lon="9.359435">
<ele>283.0</ele>
<speed>42.2</speed>
<course>149.4</course>
<desc>Speed 42.2 km/h Distance 47.19 km</desc>
<time>2011-03-24T15:53:54.08</time>
<name>1969</name>
</trkpt>
<trkpt lat="49.326620" lon="9.359518">
<ele>283.0</ele>
<speed>42.7</speed>
<course>145.8</course>
<desc>Speed 42.7 km/h Distance 47.20 km</desc>
<time>2011-03-24T15:53:55.07</time>
<name>1970</name>
</trkpt>
<trkpt lat="49.326542" lon="9.359600">
<ele>282.0</ele>
<speed>37.9</speed>
<course>136.6</course>
<desc>Speed 37.9 km/h Distance 47.21 km</desc>
<time>2011-03-24T15:53:56.07</time>
<name>1971</name>
</trkpt>
<trkpt lat="49.326472" lon="9.359702">
<ele>282.0</ele>
<speed>37.8</speed>
<course>121.9</course>
<desc>Speed 37.8 km/h Distance 47.22 km</desc>
<time>2011-03-24T15:53:57.08</time>
<name>1972</name>
</trkpt>
<trkpt lat="49.326407" lon="9.359862">
<ele>280.0</ele>
<speed>29.4</speed>
<course>106.8</course>
<desc>Speed 29.4 km/h Distance 47.23 km</desc>
<time>2011-03-24T15:53:59.07</time>
<name>1973</name>
</trkpt>
<trkpt lat="49.326385" lon="9.359972">
<ele>280.0</ele>
<speed>30.6</speed>
<course>119.9</course>
<desc>Speed 30.6 km/h Distance 47.24 km</desc>
<time>2011-03-24T15:54:00.07</time>
<name>1974</name>
</trkpt>
<trkpt lat="49.326350" lon="9.360065">
<ele>280.0</ele>
<speed>28.4</speed>
<course>128.7</course>
<desc>Speed 28.4 km/h Distance 47.25 km</desc>
<time>2011-03-24T15:54:01.07</time>
<name>1975</name>
</trkpt>
<trkpt lat="49.326310" lon="9.360142">
<ele>279.5</ele>
<speed>25.2</speed>
<course>160.1</course>
<desc>Speed 25.2 km/h Distance 47.26 km</desc>
<time>2011-03-24T15:54:02.07</time>
<name>1976</name>
</trkpt>
<trkpt lat="49.326250" lon="9.360175">
<ele>279.5</ele>
<speed>24.4</speed>
<course>178.4</course>
<desc>Speed 24.4 km/h Distance 47.26 km</desc>
<time>2011-03-24T15:54:03.06</time>
<name>1977</name>
</trkpt>
<trkpt lat="49.326173" lon="9.360178">
<ele>279.5</ele>
<speed>30.3</speed>
<course>183.0</course>
<desc>Speed 30.3 km/h Distance 47.27 km</desc>
<time>2011-03-24T15:54:04.07</time>
<name>1978</name>
</trkpt>
<trkpt lat="49.326112" lon="9.360173">
<ele>279.5</ele>
<speed>30.3</speed>
<course>241.9</course>
<desc>Speed 30.3 km/h Distance 47.28 km</desc>
<time>2011-03-24T15:54:05.06</time>
<name>1979</name>
</trkpt>
<trkpt lat="49.326073" lon="9.360063">
<ele>278.5</ele>
<speed>30.7</speed>
<course>260.2</course>
<desc>Speed 30.7 km/h Distance 47.29 km</desc>
<time>2011-03-24T15:54:06.06</time>
<name>1980</name>
</trkpt>
<trkpt lat="49.326057" lon="9.359915">
<ele>278.5</ele>
<speed>38.1</speed>
<course>259.7</course>
<desc>Speed 38.1 km/h Distance 47.30 km</desc>
<time>2011-03-24T15:54:07.06</time>
<name>1981</name>
</trkpt>
<trkpt lat="49.326037" lon="9.359747">
<ele>278.0</ele>
<speed>43.3</speed>
<course>267.4</course>
<desc>Speed 43.3 km/h Distance 47.31 km</desc>
<time>2011-03-24T15:54:08.06</time>
<name>1982</name>
</trkpt>
<trkpt lat="49.326032" lon="9.359578">
<ele>278.0</ele>
<speed>42.6</speed>
<course>279.8</course>
<desc>Speed 42.6 km/h Distance 47.32 km</desc>
<time>2011-03-24T15:54:09.06</time>
<name>1983</name>
</trkpt>
<trkpt lat="49.326050" lon="9.359415">
<ele>277.5</ele>
<speed>41.2</speed>
<course>292.7</course>
<desc>Speed 41.2 km/h Distance 47.33 km</desc>
<time>2011-03-24T15:54:10.06</time>
<name>1984</name>
</trkpt>
<trkpt lat="49.326095" lon="9.359250">
<ele>277.0</ele>
<speed>44.8</speed>
<course>301.3</course>
<desc>Speed 44.8 km/h Distance 47.35 km</desc>
<time>2011-03-24T15:54:11.06</time>
<name>1985</name>
</trkpt>
<trkpt lat="49.326155" lon="9.359098">
<ele>275.5</ele>
<speed>44.6</speed>
<course>310.0</course>
<desc>Speed 44.6 km/h Distance 47.36 km</desc>
<time>2011-03-24T15:54:12.06</time>
<name>1986</name>
</trkpt>
<trkpt lat="49.326232" lon="9.358958">
<ele>275.0</ele>
<speed>47.7</speed>
<course>313.2</course>
<desc>Speed 47.7 km/h Distance 47.37 km</desc>
<time>2011-03-24T15:54:13.06</time>
<name>1987</name>
</trkpt>
<trkpt lat="49.326313" lon="9.358825">
<ele>275.0</ele>
<speed>46.7</speed>
<course>317.0</course>
<desc>Speed 46.7 km/h Distance 47.39 km</desc>
<time>2011-03-24T15:54:14.06</time>
<name>1988</name>
</trkpt>
<trkpt lat="49.326398" lon="9.358703">
<ele>274.5</ele>
<speed>45.2</speed>
<course>306.5</course>
<desc>Speed 45.2 km/h Distance 47.40 km</desc>
<time>2011-03-24T15:54:15.05</time>
<name>1989</name>
</trkpt>
<trkpt lat="49.326463" lon="9.358568">
<ele>274.5</ele>
<speed>43.1</speed>
<course>308.6</course>
<desc>Speed 43.1 km/h Distance 47.41 km</desc>
<time>2011-03-24T15:54:16.05</time>
<name>1990</name>
</trkpt>
<trkpt lat="49.326525" lon="9.358450">
<ele>273.0</ele>
<speed>38.7</speed>
<course>310.7</course>
<desc>Speed 38.7 km/h Distance 47.42 km</desc>
<time>2011-03-24T15:54:17.05</time>
<name>1991</name>
</trkpt>
<trkpt lat="49.326578" lon="9.358355">
<ele>273.0</ele>
<speed>38.7</speed>
<course>312.4</course>
<desc>Speed 38.7 km/h Distance 47.43 km</desc>
<time>2011-03-24T15:54:18.06</time>
<name>1992</name>
</trkpt>
<trkpt lat="49.326625" lon="9.358277">
<ele>273.0</ele>
<speed>38.7</speed>
<course>312.1</course>
<desc>Speed 38.7 km/h Distance 47.44 km</desc>
<time>2011-03-24T15:54:19.05</time>
<name>1993</name>
</trkpt>
<trkpt lat="49.326692" lon="9.358163">
<ele>272.0</ele>
<speed>38.7</speed>
<course>221.3</course>
<desc>Speed 38.7 km/h Distance 47.45 km</desc>
<time>2011-03-24T15:54:21.05</time>
<name>1994</name>
</trkpt>
<trkpt lat="49.326648" lon="9.358105">
<ele>271.5</ele>
<speed>25.8</speed>
<course>206.8</course>
<desc>Speed 25.8 km/h Distance 47.46 km</desc>
<time>2011-03-24T15:54:23.05</time>
<name>1995</name>
</trkpt>
<trkpt lat="49.326582" lon="9.358053">
<ele>270.5</ele>
<speed>25.8</speed>
<course>198.8</course>
<desc>Speed 25.8 km/h Distance 47.47 km</desc>
<time>2011-03-24T15:54:24.05</time>
<name>1996</name>
</trkpt>
<trkpt lat="49.326502" lon="9.358012">
<ele>270.0</ele>
<speed>21.4</speed>
<course>158.0</course>
<desc>Speed 21.4 km/h Distance 47.48 km</desc>
<time>2011-03-24T15:54:25.05</time>
<name>1997</name>
</trkpt>
<trkpt lat="49.326432" lon="9.358055">
<ele>269.5</ele>
<speed>30.5</speed>
<course>130.6</course>
<desc>Speed 30.5 km/h Distance 47.48 km</desc>
<time>2011-03-24T15:54:26.05</time>
<name>1998</name>
</trkpt>
<trkpt lat="49.326383" lon="9.358142">
<ele>269.0</ele>
<speed>29.2</speed>
<course>139.9</course>
<desc>Speed 29.2 km/h Distance 47.49 km</desc>
<time>2011-03-24T15:54:27.05</time>
<name>1999</name>
</trkpt>
<trkpt lat="49.326315" lon="9.358230">
<ele>269.0</ele>
<speed>36.4</speed>
<course>143.0</course>
<desc>Speed 36.4 km/h Distance 47.50 km</desc>
<time>2011-03-24T15:54:28.04</time>
<name>2000</name>
</trkpt>
<trkpt lat="49.326240" lon="9.358317">
<ele>268.5</ele>
<speed>38.3</speed>
<course>145.4</course>
<desc>Speed 38.3 km/h Distance 47.51 km</desc>
<time>2011-03-24T15:54:29.04</time>
<name>2001</name>
</trkpt>
<trkpt lat="49.326152" lon="9.358410">
<ele>268.5</ele>
<speed>42.2</speed>
<course>147.8</course>
<desc>Speed 42.2 km/h Distance 47.52 km</desc>
<time>2011-03-24T15:54:30.05</time>
<name>2002</name>
</trkpt>
<trkpt lat="49.326052" lon="9.358507">
<ele>268.0</ele>
<speed>45.5</speed>
<course>147.4</course>
<desc>Speed 45.5 km/h Distance 47.54 km</desc>
<time>2011-03-24T15:54:31.05</time>
<name>2003</name>
</trkpt>
<trkpt lat="49.325955" lon="9.358602">
<ele>268.0</ele>
<speed>45.6</speed>
<course>164.8</course>
<desc>Speed 45.6 km/h Distance 47.55 km</desc>
<time>2011-03-24T15:54:32.04</time>
<name>2004</name>
</trkpt>
<trkpt lat="49.325843" lon="9.358648">
<ele>267.0</ele>
<speed>45.1</speed>
<course>152.0</course>
<desc>Speed 45.1 km/h Distance 47.56 km</desc>
<time>2011-03-24T15:54:33.04</time>
<name>2005</name>
</trkpt>
<trkpt lat="49.325743" lon="9.358730">
<ele>267.0</ele>
<speed>44.9</speed>
<course>168.5</course>
<desc>Speed 44.9 km/h Distance 47.58 km</desc>
<time>2011-03-24T15:54:34.04</time>
<name>2006</name>
</trkpt>
<trkpt lat="49.325637" lon="9.358763">
<ele>267.0</ele>
<speed>41.9</speed>
<course>150.2</course>
<desc>Speed 41.9 km/h Distance 47.59 km</desc>
<time>2011-03-24T15:54:35.05</time>
<name>2007</name>
</trkpt>
<trkpt lat="49.325540" lon="9.358848">
<ele>267.0</ele>
<speed>46.5</speed>
<course>154.5</course>
<desc>Speed 46.5 km/h Distance 47.60 km</desc>
<time>2011-03-24T15:54:36.04</time>
<name>2008</name>
</trkpt>
<trkpt lat="49.325440" lon="9.358922">
<ele>267.0</ele>
<speed>43.2</speed>
<course>150.9</course>
<desc>Speed 43.2 km/h Distance 47.61 km</desc>
<time>2011-03-24T15:54:37.04</time>
<name>2009</name>
</trkpt>
<trkpt lat="49.325348" lon="9.359000">
<ele>267.0</ele>
<speed>42.6</speed>
<course>155.0</course>
<desc>Speed 42.6 km/h Distance 47.62 km</desc>
<time>2011-03-24T15:54:38.04</time>
<name>2010</name>
</trkpt>
<trkpt lat="49.325248" lon="9.359072">
<ele>267.0</ele>
<speed>43.0</speed>
<course>151.2</course>
<desc>Speed 43.0 km/h Distance 47.64 km</desc>
<time>2011-03-24T15:54:39.04</time>
<name>2011</name>
</trkpt>
<trkpt lat="49.325153" lon="9.359152">
<ele>267.0</ele>
<speed>42.8</speed>
<course>151.6</course>
<desc>Speed 42.8 km/h Distance 47.65 km</desc>
<time>2011-03-24T15:54:40.04</time>
<name>2012</name>
</trkpt>
<trkpt lat="49.325055" lon="9.359233">
<ele>267.0</ele>
<speed>43.2</speed>
<course>153.5</course>
<desc>Speed 43.2 km/h Distance 47.66 km</desc>
<time>2011-03-24T15:54:41.04</time>
<name>2013</name>
</trkpt>
<trkpt lat="49.324955" lon="9.359310">
<ele>266.5</ele>
<speed>44.6</speed>
<course>159.7</course>
<desc>Speed 44.6 km/h Distance 47.67 km</desc>
<time>2011-03-24T15:54:42.04</time>
<name>2014</name>
</trkpt>
<trkpt lat="49.324855" lon="9.359367">
<ele>266.0</ele>
<speed>43.2</speed>
<course>163.0</course>
<desc>Speed 43.2 km/h Distance 47.69 km</desc>
<time>2011-03-24T15:54:43.04</time>
<name>2015</name>
</trkpt>
<trkpt lat="49.324752" lon="9.359415">
<ele>266.0</ele>
<speed>42.3</speed>
<course>174.3</course>
<desc>Speed 42.3 km/h Distance 47.70 km</desc>
<time>2011-03-24T15:54:44.03</time>
<name>2016</name>
</trkpt>
<trkpt lat="49.324643" lon="9.359432">
<ele>265.5</ele>
<speed>44.0</speed>
<course>170.7</course>
<desc>Speed 44.0 km/h Distance 47.71 km</desc>
<time>2011-03-24T15:54:45.04</time>
<name>2017</name>
</trkpt>
<trkpt lat="49.324537" lon="9.359458">
<ele>264.5</ele>
<speed>41.0</speed>
<course>185.1</course>
<desc>Speed 41.0 km/h Distance 47.72 km</desc>
<time>2011-03-24T15:54:46.04</time>
<name>2018</name>
</trkpt>
<trkpt lat="49.324427" lon="9.359443">
<ele>263.5</ele>
<speed>41.2</speed>
<course>179.6</course>
<desc>Speed 41.2 km/h Distance 47.73 km</desc>
<time>2011-03-24T15:54:47.03</time>
<name>2019</name>
</trkpt>
<trkpt lat="49.324335" lon="9.359445">
<ele>263.0</ele>
<speed>37.2</speed>
<course>182.2</course>
<desc>Speed 37.2 km/h Distance 47.74 km</desc>
<time>2011-03-24T15:54:48.03</time>
<name>2020</name>
</trkpt>
<trkpt lat="49.324248" lon="9.359440">
<ele>262.0</ele>
<speed>36.6</speed>
<course>183.9</course>
<desc>Speed 36.6 km/h Distance 47.75 km</desc>
<time>2011-03-24T15:54:49.04</time>
<name>2021</name>
</trkpt>
<trkpt lat="49.324153" lon="9.359430">
<ele>262.0</ele>
<speed>38.9</speed>
<course>154.5</course>
<desc>Speed 38.9 km/h Distance 47.76 km</desc>
<time>2011-03-24T15:54:50.04</time>
<name>2022</name>
</trkpt>
<trkpt lat="49.324060" lon="9.359498">
<ele>262.0</ele>
<speed>41.1</speed>
<course>168.6</course>
<desc>Speed 41.1 km/h Distance 47.78 km</desc>
<time>2011-03-24T15:54:51.04</time>
<name>2023</name>
</trkpt>
<trkpt lat="49.323968" lon="9.359527">
<ele>262.0</ele>
<speed>36.8</speed>
<course>163.3</course>
<desc>Speed 36.8 km/h Distance 47.79 km</desc>
<time>2011-03-24T15:54:52.04</time>
<name>2024</name>
</trkpt>
<trkpt lat="49.323882" lon="9.359567">
<ele>262.0</ele>
<speed>36.2</speed>
<course>168.0</course>
<desc>Speed 36.2 km/h Distance 47.80 km</desc>
<time>2011-03-24T15:54:53.03</time>
<name>2025</name>
</trkpt>
<trkpt lat="49.323795" lon="9.359595">
<ele>261.5</ele>
<speed>35.7</speed>
<course>172.4</course>
<desc>Speed 35.7 km/h Distance 47.81 km</desc>
<time>2011-03-24T15:54:54.03</time>
<name>2026</name>
</trkpt>
<trkpt lat="49.323705" lon="9.359613">
<ele>261.5</ele>
<speed>37.0</speed>
<course>173.9</course>
<desc>Speed 37.0 km/h Distance 47.82 km</desc>
<time>2011-03-24T15:54:55.03</time>
<name>2027</name>
</trkpt>
<trkpt lat="49.323613" lon="9.359628">
<ele>261.5</ele>
<speed>37.5</speed>
<course>147.9</course>
<desc>Speed 37.5 km/h Distance 47.83 km</desc>
<time>2011-03-24T15:54:56.04</time>
<name>2028</name>
</trkpt>
<trkpt lat="49.323443" lon="9.359792">
<ele>261.5</ele>
<speed>34.0</speed>
<course>185.7</course>
<desc>Speed 34.0 km/h Distance 47.85 km</desc>
<time>2011-03-24T15:54:58.03</time>
<name>2029</name>
</trkpt>
<trkpt lat="49.323378" lon="9.359782">
<ele>261.0</ele>
<speed>34.0</speed>
<course>182.5</course>
<desc>Speed 34.0 km/h Distance 47.86 km</desc>
<time>2011-03-24T15:54:59.03</time>
<name>2030</name>
</trkpt>
<trkpt lat="49.323307" lon="9.359777">
<ele>260.5</ele>
<speed>28.1</speed>
<course>197.6</course>
<desc>Speed 28.1 km/h Distance 47.86 km</desc>
<time>2011-03-24T15:55:00.03</time>
<name>2031</name>
</trkpt>
<trkpt lat="49.323248" lon="9.359748">
<ele>259.0</ele>
<speed>25.6</speed>
<course>185.0</course>
<desc>Speed 25.6 km/h Distance 47.87 km</desc>
<time>2011-03-24T15:55:01.02</time>
<name>2032</name>
</trkpt>
<trkpt lat="49.323198" lon="9.359742">
<ele>258.5</ele>
<speed>20.7</speed>
<course>186.7</course>
<desc>Speed 20.7 km/h Distance 47.88 km</desc>
<time>2011-03-24T15:55:02.02</time>
<name>2033</name>
</trkpt>
<trkpt lat="49.323152" lon="9.359733">
<ele>258.0</ele>
<speed>17.1</speed>
<course>153.0</course>
<desc>Speed 17.1 km/h Distance 47.88 km</desc>
<time>2011-03-24T15:55:03.02</time>
<name>2034</name>
</trkpt>
<trkpt lat="49.323113" lon="9.359763">
<ele>258.0</ele>
<speed>17.9</speed>
<course>154.0</course>
<desc>Speed 17.9 km/h Distance 47.89 km</desc>
<time>2011-03-24T15:55:04.02</time>
<name>2035</name>
</trkpt>
<trkpt lat="49.323080" lon="9.359788">
<ele>258.0</ele>
<speed>17.9</speed>
<course>170.0</course>
<desc>Speed 17.9 km/h Distance 47.89 km</desc>
<time>2011-03-24T15:55:05.01</time>
<name>2036</name>
</trkpt>
<trkpt lat="49.323055" lon="9.359795">
<ele>258.0</ele>
<speed>17.9</speed>
<course>193.0</course>
<desc>Speed 17.9 km/h Distance 47.89 km</desc>
<time>2011-03-24T15:55:06.02</time>
<name>2037</name>
</trkpt>
<trkpt lat="49.323003" lon="9.359777">
<ele>258.0</ele>
<speed>21.3</speed>
<course>203.9</course>
<desc>Speed 21.3 km/h Distance 47.90 km</desc>
<time>2011-03-24T15:55:07.02</time>
<name>2038</name>
</trkpt>
<trkpt lat="49.322962" lon="9.359748">
<ele>257.5</ele>
<speed>21.3</speed>
<course>265.1</course>
<desc>Speed 21.3 km/h Distance 47.90 km</desc>
<time>2011-03-24T15:55:08.01</time>
<name>2039</name>
</trkpt>
<trkpt lat="49.322958" lon="9.359688">
<ele>257.0</ele>
<speed>0.1</speed>
<course>270.0</course>
<desc>Speed 0.1 km/h Distance 47.91 km</desc>
<time>2011-03-24T15:55:10.02</time>
<name>2040</name>
</trkpt>
<trkpt lat="49.322958" lon="9.359650">
<ele>256.5</ele>
<speed>0.8</speed>
<course>294.3</course>
<desc>Speed 0.8 km/h Distance 47.91 km</desc>
<time>2011-03-24T15:55:11.01</time>
<name>2041</name>
</trkpt>
<trkpt lat="49.322967" lon="9.359622">
<ele>256.0</ele>
<speed>0.8</speed>
<course>305.3</course>
<desc>Speed 0.8 km/h Distance 47.91 km</desc>
<time>2011-03-24T15:55:12.01</time>
<name>2042</name>
</trkpt>
<trkpt lat="49.322977" lon="9.359600">
<ele>255.5</ele>
<speed>0.8</speed>
<course>299.9</course>
<desc>Speed 0.8 km/h Distance 47.92 km</desc>
<time>2011-03-24T15:55:13.01</time>
<name>2043</name>
</trkpt>
<trkpt lat="49.322982" lon="9.359587">
<ele>255.0</ele>
<speed>0.8</speed>
<course>279.4</course>
<desc>Speed 0.8 km/h Distance 47.92 km</desc>
<time>2011-03-24T15:55:14.01</time>
<name>2044</name>
</trkpt>
<trkpt lat="49.322988" lon="9.359525">
<ele>255.0</ele>
<speed>18.5</speed>
<course>343.2</course>
<desc>Speed 18.5 km/h Distance 47.92 km</desc>
<time>2011-03-24T15:55:16.01</time>
<name>2045</name>
</trkpt>
<trkpt lat="49.323032" lon="9.359505">
<ele>255.0</ele>
<speed>18.5</speed>
<course>350.6</course>
<desc>Speed 18.5 km/h Distance 47.93 km</desc>
<time>2011-03-24T15:55:17.01</time>
<name>2046</name>
</trkpt>
<trkpt lat="49.323065" lon="9.359497">
<ele>255.0</ele>
<speed>18.5</speed>
<course>348.5</course>
<desc>Speed 18.5 km/h Distance 47.93 km</desc>
<time>2011-03-24T15:55:18.01</time>
<name>2047</name>
</trkpt>
<trkpt lat="49.323092" lon="9.359488">
<ele>255.0</ele>
<speed>18.5</speed>
<course>295.6</course>
<desc>Speed 18.5 km/h Distance 47.93 km</desc>
<time>2011-03-24T15:55:19.01</time>
<name>2048</name>
</trkpt>
<trkpt lat="49.323100" lon="9.359462">
<ele>255.0</ele>
<speed>2.5</speed>
<course>257.7</course>
<desc>Speed 2.5 km/h Distance 47.94 km</desc>
<time>2011-03-24T15:55:21.01</time>
<name>2049</name>
</trkpt>
<trkpt lat="49.323098" lon="9.359450">
<ele>255.0</ele>
<speed>2.5</speed>
<course>243.0</course>
<desc>Speed 2.5 km/h Distance 47.94 km</desc>
<time>2011-03-24T15:55:22.01</time>
<name>2050</name>
</trkpt>
<trkpt lat="49.323093" lon="9.359435">
<ele>255.0</ele>
<speed>2.5</speed>
<course>242.6</course>
<desc>Speed 2.5 km/h Distance 47.94 km</desc>
<time>2011-03-24T15:55:23.00</time>
<name>2051</name>
</trkpt>
<trkpt lat="49.323092" lon="9.359430">
<ele>255.0</ele>
<speed>2.5</speed>
<course>270.0</course>
<desc>Speed 2.5 km/h Distance 47.94 km</desc>
<time>2011-03-24T15:55:24.00</time>
<name>2052</name>
</trkpt>
<trkpt lat="49.323092" lon="9.359422">
<ele>255.0</ele>
<speed>2.5</speed>
<course>23.7</course>
<desc>Speed 2.5 km/h Distance 47.94 km</desc>
<time>2011-03-24T15:55:25.00</time>
<name>2053</name>
</trkpt>
<trkpt lat="49.323107" lon="9.359432">
<ele>255.0</ele>
<speed>4.8</speed>
<course>4.7</course>
<desc>Speed 4.8 km/h Distance 47.94 km</desc>
<time>2011-03-24T15:55:26.01</time>
<name>2054</name>
</trkpt>
<trkpt lat="49.323118" lon="9.359432">
<ele>255.0</ele>
<speed>2.2</speed>
<course>330.8</course>
<desc>Speed 2.2 km/h Distance 47.94 km</desc>
<time>2011-03-24T15:55:27.00</time>
<name>2055</name>
</trkpt>
<trkpt lat="49.323120" lon="9.359430">
<ele>255.0</ele>
<speed>0.3</speed>
<course>242.6</course>
<desc>Speed 0.3 km/h Distance 47.94 km</desc>
<time>2011-03-24T15:55:28.00</time>
<name>2056</name>
</trkpt>
<trkpt lat="49.323118" lon="9.359425">
<ele>255.0</ele>
<speed>0.7</speed>
<course>14.9</course>
<desc>Speed 0.7 km/h Distance 47.94 km</desc>
<time>2011-03-24T15:55:29.00</time>
<name>2057</name>
</trkpt>
<trkpt lat="49.323127" lon="9.359428">
<ele>255.0</ele>
<speed>0.6</speed>
<course>336.2</course>
<desc>Speed 0.6 km/h Distance 47.94 km</desc>
<time>2011-03-24T15:55:30.01</time>
<name>2058</name>
</trkpt>
<trkpt lat="49.323132" lon="9.359425">
<ele>255.0</ele>
<speed>0.1</speed>
<course>0.0</course>
<desc>Speed 0.1 km/h Distance 47.94 km</desc>
<time>2011-03-24T15:55:31.00</time>
<name>2059</name>
</trkpt>
<trkpt lat="49.323135" lon="9.359425">
<ele>255.0</ele>
<speed>0.4</speed>
<course>347.4</course>
<desc>Speed 0.4 km/h Distance 47.94 km</desc>
<time>2011-03-24T15:55:31.99</time>
<name>2060</name>
</trkpt>
<trkpt lat="49.323138" lon="9.359423">
<ele>255.0</ele>
<speed>0.1</speed>
<course>228.5</course>
<desc>Speed 0.1 km/h Distance 47.94 km</desc>
<time>2011-03-24T15:55:32.99</time>
<name>2061</name>
</trkpt>
<trkpt lat="49.323113" lon="9.359380">
<ele>255.0</ele>
<speed>1.7</speed>
<course>12.6</course>
<desc>Speed 1.7 km/h Distance 47.95 km</desc>
<time>2011-03-24T15:55:35.00</time>
<name>2062</name>
</trkpt>
<trkpt lat="49.323117" lon="9.359382">
<ele>255.0</ele>
<speed>0.2</speed>
<course>90.0</course>
<desc>Speed 0.2 km/h Distance 47.95 km</desc>
<time>2011-03-24T15:55:36.00</time>
<name>2063</name>
</trkpt>
<trkpt lat="49.323117" lon="9.359383">
<ele>255.0</ele>
<speed>1.0</speed>
<course>217.2</course>
<desc>Speed 1.0 km/h Distance 47.95 km</desc>
<time>2011-03-24T15:55:37.00</time>
<name>2064</name>
</trkpt>
<trkpt lat="49.323115" lon="9.359382">
<ele>255.0</ele>
<speed>0.8</speed>
<course>217.2</course>
<desc>Speed 0.8 km/h Distance 47.95 km</desc>
<time>2011-03-24T15:55:37.99</time>
<name>2065</name>
</trkpt>
<trkpt lat="49.323115" lon="9.359382">
<ele>255.0</ele>
<speed>0.4</speed>
<course>217.2</course>
<desc>Speed 0.4 km/h Distance 47.95 km</desc>
<time>2011-03-24T15:55:38.99</time>
<name>2066</name>
</trkpt>
<trkpt lat="49.323115" lon="9.359380">
<ele>255.0</ele>
<speed>0.5</speed>
<course>297.4</course>
<desc>Speed 0.5 km/h Distance 47.95 km</desc>
<time>2011-03-24T15:55:40.00</time>
<name>2067</name>
</trkpt>
<trkpt lat="49.323117" lon="9.359375">
<ele>255.0</ele>
<speed>0.5</speed>
<course>270.0</course>
<desc>Speed 0.5 km/h Distance 47.95 km</desc>
<time>2011-03-24T15:55:41.00</time>
<name>2068</name>
</trkpt>
<trkpt lat="49.323117" lon="9.359372">
<ele>255.0</ele>
<speed>0.5</speed>
<course>0.0</course>
<desc>Speed 0.5 km/h Distance 47.95 km</desc>
<time>2011-03-24T15:55:41.99</time>
<name>2069</name>
</trkpt>
<trkpt lat="49.323122" lon="9.359372">
<ele>255.0</ele>
<speed>1.3</speed>
<course>44.3</course>
<desc>Speed 1.3 km/h Distance 47.95 km</desc>
<time>2011-03-24T15:55:43.00</time>
<name>2070</name>
</trkpt>
<trkpt lat="49.323132" lon="9.359387">
<ele>255.0</ele>
<speed>5.2</speed>
<course>44.3</course>
<desc>Speed 5.2 km/h Distance 47.95 km</desc>
<time>2011-03-24T15:55:43.99</time>
<name>2071</name>
</trkpt>
<trkpt lat="49.323132" lon="9.359387">
<ele>255.0</ele>
<speed>0.4</speed>
<course>270.0</course>
<desc>Speed 0.4 km/h Distance 47.95 km</desc>
<time>2011-03-24T15:55:44.99</time>
<name>2072</name>
</trkpt>
<trkpt lat="49.323132" lon="9.359385">
<ele>255.0</ele>
<speed>0.1</speed>
<course>308.1</course>
<desc>Speed 0.1 km/h Distance 47.95 km</desc>
<time>2011-03-24T15:55:45.99</time>
<name>2073</name>
</trkpt>
<trkpt lat="49.323133" lon="9.359382">
<ele>255.0</ele>
<speed>0.6</speed>
<course>316.5</course>
<desc>Speed 0.6 km/h Distance 47.95 km</desc>
<time>2011-03-24T15:55:47.00</time>
<name>2074</name>
</trkpt>
<trkpt lat="49.323137" lon="9.359377">
<ele>255.0</ele>
<speed>0.3</speed>
<course>297.4</course>
<desc>Speed 0.3 km/h Distance 47.95 km</desc>
<time>2011-03-24T15:55:47.99</time>
<name>2075</name>
</trkpt>
<trkpt lat="49.323138" lon="9.359372">
<ele>255.0</ele>
<speed>0.3</speed>
<course>224.5</course>
<desc>Speed 0.3 km/h Distance 47.95 km</desc>
<time>2011-03-24T15:55:48.99</time>
<name>2076</name>
</trkpt>
<trkpt lat="49.323135" lon="9.359367">
<ele>255.0</ele>
<speed>0.5</speed>
<course>347.4</course>
<desc>Speed 0.5 km/h Distance 47.95 km</desc>
<time>2011-03-24T15:55:49.98</time>
<name>2077</name>
</trkpt>
<trkpt lat="49.323137" lon="9.359365">
<ele>255.0</ele>
<speed>0.3</speed>
<course>308.1</course>
<desc>Speed 0.3 km/h Distance 47.95 km</desc>
<time>2011-03-24T15:55:50.99</time>
<name>2078</name>
</trkpt>
<trkpt lat="49.323138" lon="9.359362">
<ele>255.0</ele>
<speed>0.1</speed>
<course>339.4</course>
<desc>Speed 0.1 km/h Distance 47.95 km</desc>
<time>2011-03-24T15:55:51.99</time>
<name>2079</name>
</trkpt>
<trkpt lat="49.323150" lon="9.359355">
<ele>255.0</ele>
<speed>0.8</speed>
<course>326.8</course>
<desc>Speed 0.8 km/h Distance 47.96 km</desc>
<time>2011-03-24T15:55:52.99</time>
<name>2080</name>
</trkpt>
<trkpt lat="49.323157" lon="9.359348">
<ele>255.0</ele>
<speed>0.4</speed>
<course>0.0</course>
<desc>Speed 0.4 km/h Distance 47.96 km</desc>
<time>2011-03-24T15:55:53.99</time>
<name>2081</name>
</trkpt>
<trkpt lat="49.323167" lon="9.359348">
<ele>255.0</ele>
<speed>1.9</speed>
<course>242.6</course>
<desc>Speed 1.9 km/h Distance 47.96 km</desc>
<time>2011-03-24T15:55:54.98</time>
<name>2082</name>
</trkpt>
<trkpt lat="49.323165" lon="9.359343">
<ele>255.0</ele>
<speed>0.1</speed>
<course>270.0</course>
<desc>Speed 0.1 km/h Distance 47.96 km</desc>
<time>2011-03-24T15:55:55.99</time>
<name>2083</name>
</trkpt>
<trkpt lat="49.323165" lon="9.359338">
<ele>255.0</ele>
<speed>0.4</speed>
<course>187.4</course>
<desc>Speed 0.4 km/h Distance 47.96 km</desc>
<time>2011-03-24T15:55:56.98</time>
<name>2084</name>
</trkpt>
<trkpt lat="49.323158" lon="9.359337">
<ele>255.0</ele>
<speed>0.2</speed>
<course>355.0</course>
<desc>Speed 0.2 km/h Distance 47.96 km</desc>
<time>2011-03-24T15:55:57.98</time>
<name>2085</name>
</trkpt>
<trkpt lat="49.323167" lon="9.359335">
<ele>255.0</ele>
<speed>0.1</speed>
<course>330.8</course>
<desc>Speed 0.1 km/h Distance 47.96 km</desc>
<time>2011-03-24T15:55:58.98</time>
<name>2086</name>
</trkpt>
<trkpt lat="49.323168" lon="9.359333">
<ele>255.0</ele>
<speed>0.2</speed>
<course>209.2</course>
<desc>Speed 0.2 km/h Distance 47.96 km</desc>
<time>2011-03-24T15:55:59.98</time>
<name>2087</name>
</trkpt>
<trkpt lat="49.323167" lon="9.359332">
<ele>255.0</ele>
<speed>0.2</speed>
<course>217.2</course>
<desc>Speed 0.2 km/h Distance 47.96 km</desc>
<time>2011-03-24T15:56:00.98</time>
<name>2088</name>
</trkpt>
<trkpt lat="49.323165" lon="9.359330">
<ele>255.0</ele>
<speed>0.5</speed>
<course>337.0</course>
<desc>Speed 0.5 km/h Distance 47.96 km</desc>
<time>2011-03-24T15:56:01.98</time>
<name>2089</name>
</trkpt>
<trkpt lat="49.323168" lon="9.359328">
<ele>255.0</ele>
<speed>0.2</speed>
<course>337.0</course>
<desc>Speed 0.2 km/h Distance 47.96 km</desc>
<time>2011-03-24T15:56:02.98</time>
<name>2090</name>
</trkpt>
<trkpt lat="49.323168" lon="9.359328">
<ele>255.0</ele>
<speed>0.4</speed>
<course>337.0</course>
<desc>Speed 0.4 km/h Distance 47.96 km</desc>
<time>2011-03-24T15:56:03.98</time>
<name>2091</name>
</trkpt>
<trkpt lat="49.323168" lon="9.359328">
<ele>255.0</ele>
<speed>0.3</speed>
<course>337.0</course>
<desc>Speed 0.3 km/h Distance 47.96 km</desc>
<time>2011-03-24T15:56:04.98</time>
<name>2092</name>
</trkpt>
<trkpt lat="49.323168" lon="9.359328">
<ele>255.0</ele>
<speed>0.3</speed>
<course>12.6</course>
<desc>Speed 0.3 km/h Distance 47.96 km</desc>
<time>2011-03-24T15:56:05.98</time>
<name>2093</name>
</trkpt>
<trkpt lat="49.323170" lon="9.359328">
<ele>255.0</ele>
<speed>0.4</speed>
<course>12.6</course>
<desc>Speed 0.4 km/h Distance 47.96 km</desc>
<time>2011-03-24T15:56:06.98</time>
<name>2094</name>
</trkpt>
<trkpt lat="49.323170" lon="9.359328">
<ele>255.0</ele>
<speed>0.5</speed>
<course>242.8</course>
<desc>Speed 0.5 km/h Distance 47.96 km</desc>
<time>2011-03-24T15:56:07.98</time>
<name>2095</name>
</trkpt>
<trkpt lat="49.323167" lon="9.359318">
<ele>255.0</ele>
<speed>3.0</speed>
<course>234.0</course>
<desc>Speed 3.0 km/h Distance 47.96 km</desc>
<time>2011-03-24T15:56:08.98</time>
<name>2096</name>
</trkpt>
<trkpt lat="49.323152" lon="9.359287">
<ele>255.0</ele>
<speed>11.1</speed>
<course>279.7</course>
<desc>Speed 11.1 km/h Distance 47.97 km</desc>
<time>2011-03-24T15:56:09.98</time>
<name>2097</name>
</trkpt>
<trkpt lat="49.323160" lon="9.359212">
<ele>255.0</ele>
<speed>19.7</speed>
<course>268.2</course>
<desc>Speed 19.7 km/h Distance 47.97 km</desc>
<time>2011-03-24T15:56:10.98</time>
<name>2098</name>
</trkpt>
<trkpt lat="49.323158" lon="9.359128">
<ele>255.0</ele>
<speed>21.6</speed>
<course>267.4</course>
<desc>Speed 21.6 km/h Distance 47.98 km</desc>
<time>2011-03-24T15:56:11.98</time>
<name>2099</name>
</trkpt>
<trkpt lat="49.323155" lon="9.359017">
<ele>255.0</ele>
<speed>28.1</speed>
<course>266.2</course>
<desc>Speed 28.1 km/h Distance 47.99 km</desc>
<time>2011-03-24T15:56:12.97</time>
<name>2100</name>
</trkpt>
<trkpt lat="49.323150" lon="9.358900">
<ele>255.0</ele>
<speed>29.6</speed>
<course>260.8</course>
<desc>Speed 29.6 km/h Distance 47.99 km</desc>
<time>2011-03-24T15:56:13.97</time>
<name>2101</name>
</trkpt>
<trkpt lat="49.323138" lon="9.358790">
<ele>255.0</ele>
<speed>29.4</speed>
<course>257.3</course>
<desc>Speed 29.4 km/h Distance 48.00 km</desc>
<time>2011-03-24T15:56:14.98</time>
<name>2102</name>
</trkpt>
<trkpt lat="49.323120" lon="9.358665">
<ele>255.0</ele>
<speed>33.4</speed>
<course>254.6</course>
<desc>Speed 33.4 km/h Distance 48.01 km</desc>
<time>2011-03-24T15:56:15.97</time>
<name>2103</name>
</trkpt>
<trkpt lat="49.323097" lon="9.358535">
<ele>255.0</ele>
<speed>35.2</speed>
<course>255.1</course>
<desc>Speed 35.2 km/h Distance 48.02 km</desc>
<time>2011-03-24T15:56:16.97</time>
<name>2104</name>
</trkpt>
<trkpt lat="49.323073" lon="9.358400">
<ele>255.0</ele>
<speed>36.1</speed>
<course>257.0</course>
<desc>Speed 36.1 km/h Distance 48.03 km</desc>
<time>2011-03-24T15:56:17.97</time>
<name>2105</name>
</trkpt>
<trkpt lat="49.323053" lon="9.358267">
<ele>255.0</ele>
<speed>36.1</speed>
<course>261.3</course>
<desc>Speed 36.1 km/h Distance 48.04 km</desc>
<time>2011-03-24T15:56:18.97</time>
<name>2106</name>
</trkpt>
<trkpt lat="49.323040" lon="9.358133">
<ele>255.0</ele>
<speed>35.6</speed>
<course>271.2</course>
<desc>Speed 35.6 km/h Distance 48.05 km</desc>
<time>2011-03-24T15:56:19.98</time>
<name>2107</name>
</trkpt>
<trkpt lat="49.323042" lon="9.358007">
<ele>255.0</ele>
<speed>33.6</speed>
<course>322.7</course>
<desc>Speed 33.6 km/h Distance 48.06 km</desc>
<time>2011-03-24T15:56:20.98</time>
<name>2108</name>
</trkpt>
<trkpt lat="49.323102" lon="9.357937">
<ele>255.0</ele>
<speed>30.3</speed>
<course>270.0</course>
<desc>Speed 30.3 km/h Distance 48.07 km</desc>
<time>2011-03-24T15:56:21.98</time>
<name>2109</name>
</trkpt>
<trkpt lat="49.323102" lon="9.357627">
<ele>255.0</ele>
<speed>45.5</speed>
<course>309.9</course>
<desc>Speed 45.5 km/h Distance 48.09 km</desc>
<time>2011-03-24T15:56:23.98</time>
<name>2110</name>
</trkpt>
<trkpt lat="49.323192" lon="9.357462">
<ele>255.0</ele>
<speed>36.3</speed>
<course>353.0</course>
<desc>Speed 36.3 km/h Distance 48.11 km</desc>
<time>2011-03-24T15:56:25.98</time>
<name>2111</name>
</trkpt>
<trkpt lat="49.323465" lon="9.357410">
<ele>254.5</ele>
<speed>42.2</speed>
<course>343.5</course>
<desc>Speed 42.2 km/h Distance 48.14 km</desc>
<time>2011-03-24T15:56:27.96</time>
<name>2112</name>
</trkpt>
<trkpt lat="49.323575" lon="9.357360">
<ele>254.5</ele>
<speed>41.3</speed>
<course>332.8</course>
<desc>Speed 41.3 km/h Distance 48.15 km</desc>
<time>2011-03-24T15:56:28.97</time>
<name>2113</name>
</trkpt>
<trkpt lat="49.323677" lon="9.357280">
<ele>254.5</ele>
<speed>45.5</speed>
<course>335.6</course>
<desc>Speed 45.5 km/h Distance 48.16 km</desc>
<time>2011-03-24T15:56:29.97</time>
<name>2114</name>
</trkpt>
<trkpt lat="49.323787" lon="9.357203">
<ele>254.5</ele>
<speed>44.2</speed>
<course>332.3</course>
<desc>Speed 44.2 km/h Distance 48.18 km</desc>
<time>2011-03-24T15:56:30.97</time>
<name>2115</name>
</trkpt>
<trkpt lat="49.323872" lon="9.357135">
<ele>254.5</ele>
<speed>44.2</speed>
<course>326.2</course>
<desc>Speed 44.2 km/h Distance 48.19 km</desc>
<time>2011-03-24T15:56:31.96</time>
<name>2116</name>
</trkpt>
<trkpt lat="49.323935" lon="9.357070">
<ele>254.5</ele>
<speed>44.2</speed>
<course>326.4</course>
<desc>Speed 44.2 km/h Distance 48.20 km</desc>
<time>2011-03-24T15:56:32.96</time>
<name>2117</name>
</trkpt>
<trkpt lat="49.324025" lon="9.356978">
<ele>254.5</ele>
<speed>44.2</speed>
<course>315.1</course>
<desc>Speed 44.2 km/h Distance 48.21 km</desc>
<time>2011-03-24T15:56:34.96</time>
<name>2118</name>
</trkpt>
<trkpt lat="49.324113" lon="9.356843">
<ele>254.5</ele>
<speed>45.5</speed>
<course>315.5</course>
<desc>Speed 45.5 km/h Distance 48.22 km</desc>
<time>2011-03-24T15:56:35.97</time>
<name>2119</name>
</trkpt>
<trkpt lat="49.324208" lon="9.356700">
<ele>254.0</ele>
<speed>48.6</speed>
<course>319.2</course>
<desc>Speed 48.6 km/h Distance 48.24 km</desc>
<time>2011-03-24T15:56:36.97</time>
<name>2120</name>
</trkpt>
<trkpt lat="49.324312" lon="9.356563">
<ele>254.0</ele>
<speed>49.1</speed>
<course>318.6</course>
<desc>Speed 49.1 km/h Distance 48.25 km</desc>
<time>2011-03-24T15:56:37.97</time>
<name>2121</name>
</trkpt>
<trkpt lat="49.324415" lon="9.356423">
<ele>254.0</ele>
<speed>49.8</speed>
<course>320.2</course>
<desc>Speed 49.8 km/h Distance 48.27 km</desc>
<time>2011-03-24T15:56:38.97</time>
<name>2122</name>
</trkpt>
<trkpt lat="49.324528" lon="9.356278">
<ele>253.5</ele>
<speed>53.0</speed>
<course>322.1</course>
<desc>Speed 53.0 km/h Distance 48.28 km</desc>
<time>2011-03-24T15:56:39.97</time>
<name>2123</name>
</trkpt>
<trkpt lat="49.324640" lon="9.356145">
<ele>253.5</ele>
<speed>53.8</speed>
<course>322.0</course>
<desc>Speed 53.8 km/h Distance 48.30 km</desc>
<time>2011-03-24T15:56:40.96</time>
<name>2124</name>
</trkpt>
<trkpt lat="49.324758" lon="9.356003">
<ele>253.0</ele>
<speed>55.2</speed>
<course>322.0</course>
<desc>Speed 55.2 km/h Distance 48.32 km</desc>
<time>2011-03-24T15:56:41.96</time>
<name>2125</name>
</trkpt>
<trkpt lat="49.324885" lon="9.355852">
<ele>253.0</ele>
<speed>58.1</speed>
<course>321.1</course>
<desc>Speed 58.1 km/h Distance 48.33 km</desc>
<time>2011-03-24T15:56:42.95</time>
<name>2126</name>
</trkpt>
<trkpt lat="49.325018" lon="9.355687">
<ele>253.0</ele>
<speed>60.7</speed>
<course>322.1</course>
<desc>Speed 60.7 km/h Distance 48.35 km</desc>
<time>2011-03-24T15:56:43.96</time>
<name>2127</name>
</trkpt>
<trkpt lat="49.325155" lon="9.355523">
<ele>252.5</ele>
<speed>63.1</speed>
<course>320.2</course>
<desc>Speed 63.1 km/h Distance 48.37 km</desc>
<time>2011-03-24T15:56:44.96</time>
<name>2128</name>
</trkpt>
<trkpt lat="49.325462" lon="9.355132">
<ele>252.5</ele>
<speed>71.2</speed>
<course>316.2</course>
<desc>Speed 71.2 km/h Distance 48.42 km</desc>
<time>2011-03-24T15:56:46.96</time>
<name>2129</name>
</trkpt>
<trkpt lat="49.325585" lon="9.354950">
<ele>252.5</ele>
<speed>67.8</speed>
<course>315.3</course>
<desc>Speed 67.8 km/h Distance 48.43 km</desc>
<time>2011-03-24T15:56:47.96</time>
<name>2130</name>
</trkpt>
<trkpt lat="49.325707" lon="9.354765">
<ele>252.5</ele>
<speed>67.8</speed>
<course>314.3</course>
<desc>Speed 67.8 km/h Distance 48.45 km</desc>
<time>2011-03-24T15:56:48.96</time>
<name>2131</name>
</trkpt>
<trkpt lat="49.325823" lon="9.354582">
<ele>252.0</ele>
<speed>65.7</speed>
<course>314.1</course>
<desc>Speed 65.7 km/h Distance 48.47 km</desc>
<time>2011-03-24T15:56:49.96</time>
<name>2132</name>
</trkpt>
<trkpt lat="49.325932" lon="9.354410">
<ele>252.0</ele>
<speed>61.7</speed>
<course>311.6</course>
<desc>Speed 61.7 km/h Distance 48.49 km</desc>
<time>2011-03-24T15:56:50.96</time>
<name>2133</name>
</trkpt>
<trkpt lat="49.326012" lon="9.354272">
<ele>251.5</ele>
<speed>47.7</speed>
<course>312.8</course>
<desc>Speed 47.7 km/h Distance 48.50 km</desc>
<time>2011-03-24T15:56:51.96</time>
<name>2134</name>
</trkpt>
<trkpt lat="49.326090" lon="9.354142">
<ele>251.5</ele>
<speed>46.5</speed>
<course>316.8</course>
<desc>Speed 46.5 km/h Distance 48.52 km</desc>
<time>2011-03-24T15:56:52.95</time>
<name>2135</name>
</trkpt>
<trkpt lat="49.326177" lon="9.354017">
<ele>251.5</ele>
<speed>46.5</speed>
<course>296.2</course>
<desc>Speed 46.5 km/h Distance 48.53 km</desc>
<time>2011-03-24T15:56:53.95</time>
<name>2136</name>
</trkpt>
<trkpt lat="49.326218" lon="9.353887">
<ele>251.0</ele>
<speed>38.2</speed>
<course>294.1</course>
<desc>Speed 38.2 km/h Distance 48.54 km</desc>
<time>2011-03-24T15:56:54.94</time>
<name>2137</name>
</trkpt>
<trkpt lat="49.326257" lon="9.353755">
<ele>250.5</ele>
<speed>39.0</speed>
<course>279.0</course>
<desc>Speed 39.0 km/h Distance 48.55 km</desc>
<time>2011-03-24T15:56:55.96</time>
<name>2138</name>
</trkpt>
<trkpt lat="49.326273" lon="9.353593">
<ele>249.5</ele>
<speed>43.6</speed>
<course>276.1</course>
<desc>Speed 43.6 km/h Distance 48.56 km</desc>
<time>2011-03-24T15:56:56.95</time>
<name>2139</name>
</trkpt>
<trkpt lat="49.326287" lon="9.353403">
<ele>250.0</ele>
<speed>48.7</speed>
<course>285.8</course>
<desc>Speed 48.7 km/h Distance 48.58 km</desc>
<time>2011-03-24T15:56:57.95</time>
<name>2140</name>
</trkpt>
<trkpt lat="49.326325" lon="9.353195">
<ele>250.0</ele>
<speed>56.2</speed>
<course>287.1</course>
<desc>Speed 56.2 km/h Distance 48.59 km</desc>
<time>2011-03-24T15:56:58.95</time>
<name>2141</name>
</trkpt>
<trkpt lat="49.326373" lon="9.352953">
<ele>249.5</ele>
<speed>65.4</speed>
<course>284.8</course>
<desc>Speed 65.4 km/h Distance 48.61 km</desc>
<time>2011-03-24T15:56:59.95</time>
<name>2142</name>
</trkpt>
<trkpt lat="49.326413" lon="9.352722">
<ele>249.5</ele>
<speed>64.6</speed>
<course>272.9</course>
<desc>Speed 64.6 km/h Distance 48.63 km</desc>
<time>2011-03-24T15:57:00.95</time>
<name>2143</name>
</trkpt>
<trkpt lat="49.326422" lon="9.352470">
<ele>249.0</ele>
<speed>66.3</speed>
<course>275.0</course>
<desc>Speed 66.3 km/h Distance 48.65 km</desc>
<time>2011-03-24T15:57:01.95</time>
<name>2144</name>
</trkpt>
<trkpt lat="49.326433" lon="9.352263">
<ele>249.0</ele>
<speed>66.3</speed>
<course>271.4</course>
<desc>Speed 66.3 km/h Distance 48.66 km</desc>
<time>2011-03-24T15:57:02.94</time>
<name>2145</name>
</trkpt>
<trkpt lat="49.326438" lon="9.351950">
<ele>248.5</ele>
<speed>66.3</speed>
<course>273.2</course>
<desc>Speed 66.3 km/h Distance 48.68 km</desc>
<time>2011-03-24T15:57:04.95</time>
<name>2146</name>
</trkpt>
<trkpt lat="49.326452" lon="9.351578">
<ele>247.5</ele>
<speed>66.3</speed>
<course>269.3</course>
<desc>Speed 66.3 km/h Distance 48.71 km</desc>
<time>2011-03-24T15:57:07.94</time>
<name>2147</name>
</trkpt>
<trkpt lat="49.326450" lon="9.351363">
<ele>248.0</ele>
<speed>66.3</speed>
<course>336.5</course>
<desc>Speed 66.3 km/h Distance 48.73 km</desc>
<time>2011-03-24T15:57:08.95</time>
<name>2148</name>
</trkpt>
<trkpt lat="49.327443" lon="9.350700">
<ele>248.0</ele>
<speed>96.3</speed>
<course>339.5</course>
<desc>Speed 96.3 km/h Distance 48.85 km</desc>
<time>2011-03-24T15:57:12.94</time>
<name>2149</name>
</trkpt>
<trkpt lat="49.327673" lon="9.350568">
<ele>247.5</ele>
<speed>91.8</speed>
<course>345.4</course>
<desc>Speed 91.8 km/h Distance 48.87 km</desc>
<time>2011-03-24T15:57:13.94</time>
<name>2150</name>
</trkpt>
<trkpt lat="49.328215" lon="9.350352">
<ele>250.0</ele>
<speed>93.2</speed>
<course>347.7</course>
<desc>Speed 93.2 km/h Distance 48.94 km</desc>
<time>2011-03-24T15:57:15.94</time>
<name>2151</name>
</trkpt>
<trkpt lat="49.328445" lon="9.350275">
<ele>250.5</ele>
<speed>91.5</speed>
<course>347.6</course>
<desc>Speed 91.5 km/h Distance 48.96 km</desc>
<time>2011-03-24T15:57:16.94</time>
<name>2152</name>
</trkpt>
<trkpt lat="49.328633" lon="9.350212">
<ele>250.5</ele>
<speed>91.5</speed>
<course>339.4</course>
<desc>Speed 91.5 km/h Distance 48.98 km</desc>
<time>2011-03-24T15:57:17.94</time>
<name>2153</name>
</trkpt>
<trkpt lat="49.329038" lon="9.349978">
<ele>250.5</ele>
<speed>83.1</speed>
<course>343.9</course>
<desc>Speed 83.1 km/h Distance 49.03 km</desc>
<time>2011-03-24T15:57:19.94</time>
<name>2154</name>
</trkpt>
<trkpt lat="49.329268" lon="9.349877">
<ele>251.0</ele>
<speed>87.7</speed>
<course>341.8</course>
<desc>Speed 87.7 km/h Distance 49.06 km</desc>
<time>2011-03-24T15:57:20.93</time>
<name>2155</name>
</trkpt>
<trkpt lat="49.329490" lon="9.349765">
<ele>251.5</ele>
<speed>86.8</speed>
<course>341.2</course>
<desc>Speed 86.8 km/h Distance 49.08 km</desc>
<time>2011-03-24T15:57:21.94</time>
<name>2156</name>
</trkpt>
<trkpt lat="49.329703" lon="9.349653">
<ele>252.5</ele>
<speed>83.1</speed>
<course>343.2</course>
<desc>Speed 83.1 km/h Distance 49.11 km</desc>
<time>2011-03-24T15:57:22.93</time>
<name>2157</name>
</trkpt>
<trkpt lat="49.330030" lon="9.349502">
<ele>255.0</ele>
<speed>67.5</speed>
<course>349.3</course>
<desc>Speed 67.5 km/h Distance 49.15 km</desc>
<time>2011-03-24T15:57:24.93</time>
<name>2158</name>
</trkpt>
<trkpt lat="49.330243" lon="9.349440">
<ele>255.0</ele>
<speed>67.5</speed>
<course>359.8</course>
<desc>Speed 67.5 km/h Distance 49.17 km</desc>
<time>2011-03-24T15:57:26.93</time>
<name>2159</name>
</trkpt>
<trkpt lat="49.330542" lon="9.349438">
<ele>255.0</ele>
<speed>49.6</speed>
<course>331.4</course>
<desc>Speed 49.6 km/h Distance 49.21 km</desc>
<time>2011-03-24T15:57:28.93</time>
<name>2160</name>
</trkpt>
<trkpt lat="49.330675" lon="9.349327">
<ele>254.5</ele>
<speed>43.6</speed>
<course>320.6</course>
<desc>Speed 43.6 km/h Distance 49.22 km</desc>
<time>2011-03-24T15:57:29.92</time>
<name>2161</name>
</trkpt>
<trkpt lat="49.330880" lon="9.349068">
<ele>253.0</ele>
<speed>42.9</speed>
<course>303.4</course>
<desc>Speed 42.9 km/h Distance 49.25 km</desc>
<time>2011-03-24T15:57:31.93</time>
<name>2162</name>
</trkpt>
<trkpt lat="49.330942" lon="9.348925">
<ele>252.0</ele>
<speed>42.9</speed>
<course>305.1</course>
<desc>Speed 42.9 km/h Distance 49.26 km</desc>
<time>2011-03-24T15:57:32.92</time>
<name>2163</name>
</trkpt>
<trkpt lat="49.330997" lon="9.348805">
<ele>251.5</ele>
<speed>42.9</speed>
<course>324.8</course>
<desc>Speed 42.9 km/h Distance 49.27 km</desc>
<time>2011-03-24T15:57:33.93</time>
<name>2164</name>
</trkpt>
<trkpt lat="49.331098" lon="9.348695">
<ele>251.0</ele>
<speed>42.9</speed>
<course>292.0</course>
<desc>Speed 42.9 km/h Distance 49.29 km</desc>
<time>2011-03-24T15:57:34.93</time>
<name>2165</name>
</trkpt>
<trkpt lat="49.331583" lon="9.346857">
<ele>255.0</ele>
<speed>91.3</speed>
<course>300.6</course>
<desc>Speed 91.3 km/h Distance 49.43 km</desc>
<time>2011-03-24T15:57:39.93</time>
<name>2166</name>
</trkpt>
<trkpt lat="49.331835" lon="9.346203">
<ele>255.5</ele>
<speed>93.0</speed>
<course>300.3</course>
<desc>Speed 93.0 km/h Distance 49.49 km</desc>
<time>2011-03-24T15:57:41.93</time>
<name>2167</name>
</trkpt>
<trkpt lat="49.331955" lon="9.345888">
<ele>256.0</ele>
<speed>94.6</speed>
<course>301.5</course>
<desc>Speed 94.6 km/h Distance 49.51 km</desc>
<time>2011-03-24T15:57:42.92</time>
<name>2168</name>
</trkpt>
<trkpt lat="49.332092" lon="9.345547">
<ele>256.0</ele>
<speed>98.6</speed>
<course>295.1</course>
<desc>Speed 98.6 km/h Distance 49.54 km</desc>
<time>2011-03-24T15:57:43.92</time>
<name>2169</name>
</trkpt>
<trkpt lat="49.332200" lon="9.345192">
<ele>256.5</ele>
<speed>101</speed>
<course>291.6</course>
<desc>Speed 101 km/h Distance 49.57 km</desc>
<time>2011-03-24T15:57:44.92</time>
<name>2170</name>
</trkpt>
<trkpt lat="49.332290" lon="9.344843">
<ele>256.5</ele>
<speed>96.2</speed>
<course>291.9</course>
<desc>Speed 96.2 km/h Distance 49.60 km</desc>
<time>2011-03-24T15:57:45.92</time>
<name>2171</name>
</trkpt>
<trkpt lat="49.332375" lon="9.344518">
<ele>256.5</ele>
<speed>89.7</speed>
<course>293.7</course>
<desc>Speed 89.7 km/h Distance 49.62 km</desc>
<time>2011-03-24T15:57:46.92</time>
<name>2172</name>
</trkpt>
<trkpt lat="49.332460" lon="9.344222">
<ele>256.5</ele>
<speed>83.4</speed>
<course>284.3</course>
<desc>Speed 83.4 km/h Distance 49.65 km</desc>
<time>2011-03-24T15:57:47.92</time>
<name>2173</name>
</trkpt>
<trkpt lat="49.332512" lon="9.343910">
<ele>256.5</ele>
<speed>81.7</speed>
<course>278.9</course>
<desc>Speed 81.7 km/h Distance 49.67 km</desc>
<time>2011-03-24T15:57:48.93</time>
<name>2174</name>
</trkpt>
<trkpt lat="49.332545" lon="9.343585">
<ele>256.5</ele>
<speed>85.5</speed>
<course>272.9</course>
<desc>Speed 85.5 km/h Distance 49.70 km</desc>
<time>2011-03-24T15:57:49.92</time>
<name>2175</name>
</trkpt>
<trkpt lat="49.332557" lon="9.343237">
<ele>256.0</ele>
<speed>89.7</speed>
<course>260.1</course>
<desc>Speed 89.7 km/h Distance 49.72 km</desc>
<time>2011-03-24T15:57:50.92</time>
<name>2176</name>
</trkpt>
<trkpt lat="49.332513" lon="9.342855">
<ele>256.0</ele>
<speed>100</speed>
<course>263.5</course>
<desc>Speed 100 km/h Distance 49.75 km</desc>
<time>2011-03-24T15:57:51.92</time>
<name>2177</name>
</trkpt>
<trkpt lat="49.332470" lon="9.342272">
<ele>255.0</ele>
<speed>100</speed>
<course>296.8</course>
<desc>Speed 100 km/h Distance 49.79 km</desc>
<time>2011-03-24T15:57:53.92</time>
<name>2178</name>
</trkpt>
<trkpt lat="49.332722" lon="9.341507">
<ele>255.5</ele>
<speed>103</speed>
<course>287.9</course>
<desc>Speed 103 km/h Distance 49.85 km</desc>
<time>2011-03-24T15:57:55.93</time>
<name>2179</name>
</trkpt>
<trkpt lat="49.332878" lon="9.340763">
<ele>256.5</ele>
<speed>99.0</speed>
<course>289.6</course>
<desc>Speed 99.0 km/h Distance 49.91 km</desc>
<time>2011-03-24T15:57:57.93</time>
<name>2180</name>
</trkpt>
<trkpt lat="49.332960" lon="9.340412">
<ele>257.0</ele>
<speed>95.6</speed>
<course>288.7</course>
<desc>Speed 95.6 km/h Distance 49.94 km</desc>
<time>2011-03-24T15:57:58.93</time>
<name>2181</name>
</trkpt>
<trkpt lat="49.333032" lon="9.340087">
<ele>257.0</ele>
<speed>85.8</speed>
<course>284.1</course>
<desc>Speed 85.8 km/h Distance 49.96 km</desc>
<time>2011-03-24T15:57:59.93</time>
<name>2182</name>
</trkpt>
<trkpt lat="49.333087" lon="9.339752">
<ele>260.0</ele>
<speed>76.0</speed>
<course>296.3</course>
<desc>Speed 76.0 km/h Distance 49.99 km</desc>
<time>2011-03-24T15:58:00.92</time>
<name>2183</name>
</trkpt>
<trkpt lat="49.333163" lon="9.339513">
<ele>260.0</ele>
<speed>76.0</speed>
<course>301.6</course>
<desc>Speed 76.0 km/h Distance 50.01 km</desc>
<time>2011-03-24T15:58:01.92</time>
<name>2184</name>
</trkpt>
<trkpt lat="49.333245" lon="9.339310">
<ele>260.0</ele>
<speed>76.0</speed>
<course>323.4</course>
<desc>Speed 76.0 km/h Distance 50.02 km</desc>
<time>2011-03-24T15:58:02.92</time>
<name>2185</name>
</trkpt>
<trkpt lat="49.333473" lon="9.339050">
<ele>261.5</ele>
<speed>61.5</speed>
<course>324.0</course>
<desc>Speed 61.5 km/h Distance 50.06 km</desc>
<time>2011-03-24T15:58:04.92</time>
<name>2186</name>
</trkpt>
<trkpt lat="49.333620" lon="9.338887">
<ele>261.5</ele>
<speed>61.5</speed>
<course>316.7</course>
<desc>Speed 61.5 km/h Distance 50.08 km</desc>
<time>2011-03-24T15:58:06.92</time>
<name>2187</name>
</trkpt>
<trkpt lat="49.333725" lon="9.338735">
<ele>262.5</ele>
<speed>54.3</speed>
<course>304.7</course>
<desc>Speed 54.3 km/h Distance 50.09 km</desc>
<time>2011-03-24T15:58:07.93</time>
<name>2188</name>
</trkpt>
<trkpt lat="49.333818" lon="9.338528">
<ele>263.0</ele>
<speed>60.7</speed>
<course>290.4</course>
<desc>Speed 60.7 km/h Distance 50.11 km</desc>
<time>2011-03-24T15:58:08.92</time>
<name>2189</name>
</trkpt>
<trkpt lat="49.333875" lon="9.338295">
<ele>262.5</ele>
<speed>63.1</speed>
<course>278.6</course>
<desc>Speed 63.1 km/h Distance 50.13 km</desc>
<time>2011-03-24T15:58:09.92</time>
<name>2190</name>
</trkpt>
<trkpt lat="49.333895" lon="9.338092">
<ele>263.0</ele>
<speed>51.4</speed>
<course>288.1</course>
<desc>Speed 51.4 km/h Distance 50.14 km</desc>
<time>2011-03-24T15:58:10.91</time>
<name>2191</name>
</trkpt>
<trkpt lat="49.333938" lon="9.337888">
<ele>264.5</ele>
<speed>52.4</speed>
<course>281.5</course>
<desc>Speed 52.4 km/h Distance 50.16 km</desc>
<time>2011-03-24T15:58:11.92</time>
<name>2192</name>
</trkpt>
<trkpt lat="49.333960" lon="9.337725">
<ele>265.0</ele>
<speed>52.4</speed>
<course>263.6</course>
<desc>Speed 52.4 km/h Distance 50.17 km</desc>
<time>2011-03-24T15:58:12.92</time>
<name>2193</name>
</trkpt>
<trkpt lat="49.333947" lon="9.337543">
<ele>265.5</ele>
<speed>49.5</speed>
<course>263.3</course>
<desc>Speed 49.5 km/h Distance 50.18 km</desc>
<time>2011-03-24T15:58:13.92</time>
<name>2194</name>
</trkpt>
<trkpt lat="49.333932" lon="9.337347">
<ele>266.5</ele>
<speed>51.8</speed>
<course>247.5</course>
<desc>Speed 51.8 km/h Distance 50.20 km</desc>
<time>2011-03-24T15:58:14.91</time>
<name>2195</name>
</trkpt>
<trkpt lat="49.333882" lon="9.337162">
<ele>267.0</ele>
<speed>53.3</speed>
<course>274.1</course>
<desc>Speed 53.3 km/h Distance 50.21 km</desc>
<time>2011-03-24T15:58:15.92</time>
<name>2196</name>
</trkpt>
<trkpt lat="49.333892" lon="9.336948">
<ele>268.0</ele>
<speed>47.9</speed>
<course>284.3</course>
<desc>Speed 47.9 km/h Distance 50.23 km</desc>
<time>2011-03-24T15:58:16.92</time>
<name>2197</name>
</trkpt>
<trkpt lat="49.333920" lon="9.336778">
<ele>269.5</ele>
<speed>43.2</speed>
<course>306.2</course>
<desc>Speed 43.2 km/h Distance 50.24 km</desc>
<time>2011-03-24T15:58:17.91</time>
<name>2198</name>
</trkpt>
<trkpt lat="49.333992" lon="9.336628">
<ele>270.0</ele>
<speed>42.2</speed>
<course>326.9</course>
<desc>Speed 42.2 km/h Distance 50.25 km</desc>
<time>2011-03-24T15:58:18.92</time>
<name>2199</name>
</trkpt>
<trkpt lat="49.334203" lon="9.336417">
<ele>270.0</ele>
<speed>49.2</speed>
<course>325.5</course>
<desc>Speed 49.2 km/h Distance 50.28 km</desc>
<time>2011-03-24T15:58:20.92</time>
<name>2200</name>
</trkpt>
<trkpt lat="49.334328" lon="9.336285">
<ele>270.0</ele>
<speed>49.2</speed>
<course>315.4</course>
<desc>Speed 49.2 km/h Distance 50.30 km</desc>
<time>2011-03-24T15:58:22.92</time>
<name>2201</name>
</trkpt>
<trkpt lat="49.334403" lon="9.336172">
<ele>269.5</ele>
<speed>49.2</speed>
<course>336.1</course>
<desc>Speed 49.2 km/h Distance 50.31 km</desc>
<time>2011-03-24T15:58:24.91</time>
<name>2202</name>
</trkpt>
<trkpt lat="49.335005" lon="9.335763">
<ele>268.0</ele>
<speed>65.2</speed>
<course>344.1</course>
<desc>Speed 65.2 km/h Distance 50.38 km</desc>
<time>2011-03-24T15:58:27.92</time>
<name>2203</name>
</trkpt>
<trkpt lat="49.335135" lon="9.335707">
<ele>267.5</ele>
<speed>50.9</speed>
<course>339.8</course>
<desc>Speed 50.9 km/h Distance 50.40 km</desc>
<time>2011-03-24T15:58:28.91</time>
<name>2204</name>
</trkpt>
<trkpt lat="49.335250" lon="9.335642">
<ele>267.5</ele>
<speed>46.2</speed>
<course>331.3</course>
<desc>Speed 46.2 km/h Distance 50.41 km</desc>
<time>2011-03-24T15:58:29.91</time>
<name>2205</name>
</trkpt>
<trkpt lat="49.335343" lon="9.335563">
<ele>267.0</ele>
<speed>39.6</speed>
<course>321.1</course>
<desc>Speed 39.6 km/h Distance 50.42 km</desc>
<time>2011-03-24T15:58:30.91</time>
<name>2206</name>
</trkpt>
<trkpt lat="49.335420" lon="9.335468">
<ele>266.5</ele>
<speed>36.3</speed>
<course>319.7</course>
<desc>Speed 36.3 km/h Distance 50.44 km</desc>
<time>2011-03-24T15:58:31.91</time>
<name>2207</name>
</trkpt>
<trkpt lat="49.335602" lon="9.335232">
<ele>271.5</ele>
<speed>35.9</speed>
<course>306.9</course>
<desc>Speed 35.9 km/h Distance 50.46 km</desc>
<time>2011-03-24T15:58:33.91</time>
<name>2208</name>
</trkpt>
<trkpt lat="49.335638" lon="9.335157">
<ele>271.5</ele>
<speed>35.9</speed>
<course>274.0</course>
<desc>Speed 35.9 km/h Distance 50.47 km</desc>
<time>2011-03-24T15:58:34.91</time>
<name>2209</name>
</trkpt>
<trkpt lat="49.335645" lon="9.335010">
<ele>273.5</ele>
<speed>35.9</speed>
<course>167.7</course>
<desc>Speed 35.9 km/h Distance 50.48 km</desc>
<time>2011-03-24T15:58:36.90</time>
<name>2210</name>
</trkpt>
<trkpt lat="49.335132" lon="9.335182">
<ele>276.5</ele>
<speed>66.7</speed>
<course>180.6</course>
<desc>Speed 66.7 km/h Distance 50.54 km</desc>
<time>2011-03-24T15:58:39.91</time>
<name>2211</name>
</trkpt>
<trkpt lat="49.334737" lon="9.335175">
<ele>277.5</ele>
<speed>69.4</speed>
<course>183.7</course>
<desc>Speed 69.4 km/h Distance 50.58 km</desc>
<time>2011-03-24T15:58:41.91</time>
<name>2212</name>
</trkpt>
<trkpt lat="49.334568" lon="9.335158">
<ele>278.0</ele>
<speed>64.9</speed>
<course>196.5</course>
<desc>Speed 64.9 km/h Distance 50.60 km</desc>
<time>2011-03-24T15:58:42.90</time>
<name>2213</name>
</trkpt>
<trkpt lat="49.334422" lon="9.335092">
<ele>279.0</ele>
<speed>57.7</speed>
<course>227.7</course>
<desc>Speed 57.7 km/h Distance 50.62 km</desc>
<time>2011-03-24T15:58:43.91</time>
<name>2214</name>
</trkpt>
<trkpt lat="49.334293" lon="9.334875">
<ele>280.0</ele>
<speed>42.4</speed>
<course>231.3</course>
<desc>Speed 42.4 km/h Distance 50.64 km</desc>
<time>2011-03-24T15:58:45.90</time>
<name>2215</name>
</trkpt>
<trkpt lat="49.334232" lon="9.334757">
<ele>282.0</ele>
<speed>42.4</speed>
<course>286.4</course>
<desc>Speed 42.4 km/h Distance 50.65 km</desc>
<time>2011-03-24T15:58:46.91</time>
<name>2216</name>
</trkpt>
<trkpt lat="49.334255" lon="9.334635">
<ele>283.5</ele>
<speed>42.4</speed>
<course>297.1</course>
<desc>Speed 42.4 km/h Distance 50.66 km</desc>
<time>2011-03-24T15:58:47.90</time>
<name>2217</name>
</trkpt>
<trkpt lat="49.334302" lon="9.334495">
<ele>285.0</ele>
<speed>42.4</speed>
<course>299.7</course>
<desc>Speed 42.4 km/h Distance 50.67 km</desc>
<time>2011-03-24T15:58:48.90</time>
<name>2218</name>
</trkpt>
<trkpt lat="49.334360" lon="9.334338">
<ele>287.0</ele>
<speed>42.4</speed>
<course>304.5</course>
<desc>Speed 42.4 km/h Distance 50.68 km</desc>
<time>2011-03-24T15:58:49.90</time>
<name>2219</name>
</trkpt>
<trkpt lat="49.334403" lon="9.334242">
<ele>288.0</ele>
<speed>42.4</speed>
<course>285.2</course>
<desc>Speed 42.4 km/h Distance 50.69 km</desc>
<time>2011-03-24T15:58:50.90</time>
<name>2220</name>
</trkpt>
<trkpt lat="49.334627" lon="9.332978">
<ele>287.5</ele>
<speed>68.3</speed>
<course>288.1</course>
<desc>Speed 68.3 km/h Distance 50.79 km</desc>
<time>2011-03-24T15:58:54.90</time>
<name>2221</name>
</trkpt>
<trkpt lat="49.334688" lon="9.332688">
<ele>287.0</ele>
<speed>71.3</speed>
<course>299.2</course>
<desc>Speed 71.3 km/h Distance 50.81 km</desc>
<time>2011-03-24T15:58:55.91</time>
<name>2222</name>
</trkpt>
<trkpt lat="49.334768" lon="9.332468">
<ele>287.0</ele>
<speed>63.3</speed>
<course>304.1</course>
<desc>Speed 63.3 km/h Distance 50.83 km</desc>
<time>2011-03-24T15:58:56.90</time>
<name>2223</name>
</trkpt>
<trkpt lat="49.334868" lon="9.332242">
<ele>286.0</ele>
<speed>57.3</speed>
<course>285.9</course>
<desc>Speed 57.3 km/h Distance 50.85 km</desc>
<time>2011-03-24T15:58:57.90</time>
<name>2224</name>
</trkpt>
<trkpt lat="49.334950" lon="9.331802">
<ele>285.0</ele>
<speed>57.3</speed>
<course>314.7</course>
<desc>Speed 57.3 km/h Distance 50.88 km</desc>
<time>2011-03-24T15:58:59.90</time>
<name>2225</name>
</trkpt>
<trkpt lat="49.335227" lon="9.331373">
<ele>299.0</ele>
<speed>73.3</speed>
<course>313.6</course>
<desc>Speed 73.3 km/h Distance 50.92 km</desc>
<time>2011-03-24T15:59:01.90</time>
<name>2226</name>
</trkpt>
<trkpt lat="49.335555" lon="9.330845">
<ele>313.5</ele>
<speed>94.2</speed>
<course>322.1</course>
<desc>Speed 94.2 km/h Distance 50.98 km</desc>
<time>2011-03-24T15:59:03.90</time>
<name>2227</name>
</trkpt>
<trkpt lat="49.335762" lon="9.330598">
<ele>315.0</ele>
<speed>102</speed>
<course>317.8</course>
<desc>Speed 102 km/h Distance 51.01 km</desc>
<time>2011-03-24T15:59:04.90</time>
<name>2228</name>
</trkpt>
<trkpt lat="49.335957" lon="9.330327">
<ele>318.5</ele>
<speed>106</speed>
<course>313.5</course>
<desc>Speed 106 km/h Distance 51.04 km</desc>
<time>2011-03-24T15:59:05.90</time>
<name>2229</name>
</trkpt>
<trkpt lat="49.336140" lon="9.330030">
<ele>323.5</ele>
<speed>106</speed>
<course>312.7</course>
<desc>Speed 106 km/h Distance 51.07 km</desc>
<time>2011-03-24T15:59:06.90</time>
<name>2230</name>
</trkpt>
<trkpt lat="49.336405" lon="9.329590">
<ele>324.5</ele>
<speed>106</speed>
<course>314.1</course>
<desc>Speed 106 km/h Distance 51.11 km</desc>
<time>2011-03-24T15:59:08.90</time>
<name>2231</name>
</trkpt>
<trkpt lat="49.336835" lon="9.328910">
<ele>327.5</ele>
<speed>118</speed>
<course>309.5</course>
<desc>Speed 118 km/h Distance 51.18 km</desc>
<time>2011-03-24T15:59:10.89</time>
<name>2232</name>
</trkpt>
<trkpt lat="49.337025" lon="9.328557">
<ele>327.5</ele>
<speed>116</speed>
<course>304.6</course>
<desc>Speed 116 km/h Distance 51.21 km</desc>
<time>2011-03-24T15:59:11.89</time>
<name>2233</name>
</trkpt>
<trkpt lat="49.337313" lon="9.327915">
<ele>327.5</ele>
<speed>104</speed>
<course>301.1</course>
<desc>Speed 104 km/h Distance 51.27 km</desc>
<time>2011-03-24T15:59:13.89</time>
<name>2234</name>
</trkpt>
<trkpt lat="49.337452" lon="9.327563">
<ele>327.5</ele>
<speed>104</speed>
<course>296.1</course>
<desc>Speed 104 km/h Distance 51.30 km</desc>
<time>2011-03-24T15:59:14.89</time>
<name>2235</name>
</trkpt>
<trkpt lat="49.337580" lon="9.327162">
<ele>327.5</ele>
<speed>110</speed>
<course>296.2</course>
<desc>Speed 110 km/h Distance 51.33 km</desc>
<time>2011-03-24T15:59:15.90</time>
<name>2236</name>
</trkpt>
<trkpt lat="49.337703" lon="9.326777">
<ele>330.5</ele>
<speed>108</speed>
<course>296.0</course>
<desc>Speed 108 km/h Distance 51.36 km</desc>
<time>2011-03-24T15:59:16.89</time>
<name>2237</name>
</trkpt>
<trkpt lat="49.337820" lon="9.326410">
<ele>330.5</ele>
<speed>106</speed>
<course>297.5</course>
<desc>Speed 106 km/h Distance 51.39 km</desc>
<time>2011-03-24T15:59:17.90</time>
<name>2238</name>
</trkpt>
<trkpt lat="49.337942" lon="9.326052">
<ele>332.5</ele>
<speed>96.2</speed>
<course>299.1</course>
<desc>Speed 96.2 km/h Distance 51.42 km</desc>
<time>2011-03-24T15:59:18.90</time>
<name>2239</name>
</trkpt>
<trkpt lat="49.338065" lon="9.325712">
<ele>334.5</ele>
<speed>93.3</speed>
<course>302.0</course>
<desc>Speed 93.3 km/h Distance 51.45 km</desc>
<time>2011-03-24T15:59:19.89</time>
<name>2240</name>
</trkpt>
<trkpt lat="49.338190" lon="9.325405">
<ele>337.0</ele>
<speed>85.4</speed>
<course>302.0</course>
<desc>Speed 85.4 km/h Distance 51.47 km</desc>
<time>2011-03-24T15:59:20.89</time>
<name>2241</name>
</trkpt>
<trkpt lat="49.338307" lon="9.325118">
<ele>337.5</ele>
<speed>86.1</speed>
<course>308.1</course>
<desc>Speed 86.1 km/h Distance 51.50 km</desc>
<time>2011-03-24T15:59:21.89</time>
<name>2242</name>
</trkpt>
<trkpt lat="49.338452" lon="9.324835">
<ele>340.0</ele>
<speed>91.0</speed>
<course>311.0</course>
<desc>Speed 91.0 km/h Distance 51.52 km</desc>
<time>2011-03-24T15:59:22.88</time>
<name>2243</name>
</trkpt>
<trkpt lat="49.338595" lon="9.324582">
<ele>339.5</ele>
<speed>87.9</speed>
<course>314.0</course>
<desc>Speed 87.9 km/h Distance 51.55 km</desc>
<time>2011-03-24T15:59:23.89</time>
<name>2244</name>
</trkpt>
<trkpt lat="49.338758" lon="9.324322">
<ele>340.0</ele>
<speed>91.3</speed>
<course>301.1</course>
<desc>Speed 91.3 km/h Distance 51.58 km</desc>
<time>2011-03-24T15:59:24.89</time>
<name>2245</name>
</trkpt>
<trkpt lat="49.338872" lon="9.324033">
<ele>340.0</ele>
<speed>86.6</speed>
<course>297.0</course>
<desc>Speed 86.6 km/h Distance 51.60 km</desc>
<time>2011-03-24T15:59:25.89</time>
<name>2246</name>
</trkpt>
<trkpt lat="49.338972" lon="9.323732">
<ele>341.0</ele>
<speed>88.8</speed>
<course>296.0</course>
<desc>Speed 88.8 km/h Distance 51.62 km</desc>
<time>2011-03-24T15:59:26.89</time>
<name>2247</name>
</trkpt>
<trkpt lat="49.339067" lon="9.323433">
<ele>341.5</ele>
<speed>88.2</speed>
<course>295.8</course>
<desc>Speed 88.2 km/h Distance 51.65 km</desc>
<time>2011-03-24T15:59:27.89</time>
<name>2248</name>
</trkpt>
<trkpt lat="49.339158" lon="9.323142">
<ele>341.5</ele>
<speed>81.8</speed>
<course>293.9</course>
<desc>Speed 81.8 km/h Distance 51.67 km</desc>
<time>2011-03-24T15:59:28.88</time>
<name>2249</name>
</trkpt>
<trkpt lat="49.339243" lon="9.322847">
<ele>343.5</ele>
<speed>79.3</speed>
<course>289.1</course>
<desc>Speed 79.3 km/h Distance 51.70 km</desc>
<time>2011-03-24T15:59:29.89</time>
<name>2250</name>
</trkpt>
<trkpt lat="49.339308" lon="9.322558">
<ele>343.5</ele>
<speed>77.6</speed>
<course>286.9</course>
<desc>Speed 77.6 km/h Distance 51.72 km</desc>
<time>2011-03-24T15:59:30.89</time>
<name>2251</name>
</trkpt>
<trkpt lat="49.339363" lon="9.322280">
<ele>344.0</ele>
<speed>74.4</speed>
<course>286.1</course>
<desc>Speed 74.4 km/h Distance 51.74 km</desc>
<time>2011-03-24T15:59:31.88</time>
<name>2252</name>
</trkpt>
<trkpt lat="49.339413" lon="9.322015">
<ele>344.5</ele>
<speed>72.1</speed>
<course>280.9</course>
<desc>Speed 72.1 km/h Distance 51.76 km</desc>
<time>2011-03-24T15:59:32.88</time>
<name>2253</name>
</trkpt>
<trkpt lat="49.339448" lon="9.321737">
<ele>347.5</ele>
<speed>70.2</speed>
<course>287.7</course>
<desc>Speed 70.2 km/h Distance 51.78 km</desc>
<time>2011-03-24T15:59:33.88</time>
<name>2254</name>
</trkpt>
<trkpt lat="49.339502" lon="9.321480">
<ele>347.5</ele>
<speed>67.6</speed>
<course>286.7</course>
<desc>Speed 67.6 km/h Distance 51.80 km</desc>
<time>2011-03-24T15:59:34.88</time>
<name>2255</name>
</trkpt>
<trkpt lat="49.339550" lon="9.321233">
<ele>348.0</ele>
<speed>66.3</speed>
<course>284.3</course>
<desc>Speed 66.3 km/h Distance 51.82 km</desc>
<time>2011-03-24T15:59:35.88</time>
<name>2256</name>
</trkpt>
<trkpt lat="49.339592" lon="9.320983">
<ele>349.0</ele>
<speed>65.5</speed>
<course>286.1</course>
<desc>Speed 65.5 km/h Distance 51.84 km</desc>
<time>2011-03-24T15:59:36.89</time>
<name>2257</name>
</trkpt>
<trkpt lat="49.339635" lon="9.320753">
<ele>349.0</ele>
<speed>62.5</speed>
<course>286.6</course>
<desc>Speed 62.5 km/h Distance 51.85 km</desc>
<time>2011-03-24T15:59:37.88</time>
<name>2258</name>
</trkpt>
<trkpt lat="49.339678" lon="9.320530">
<ele>348.5</ele>
<speed>59.8</speed>
<course>283.8</course>
<desc>Speed 59.8 km/h Distance 51.87 km</desc>
<time>2011-03-24T15:59:38.88</time>
<name>2259</name>
</trkpt>
<trkpt lat="49.339713" lon="9.320312">
<ele>349.0</ele>
<speed>57.6</speed>
<course>280.4</course>
<desc>Speed 57.6 km/h Distance 51.89 km</desc>
<time>2011-03-24T15:59:39.87</time>
<name>2260</name>
</trkpt>
<trkpt lat="49.339738" lon="9.320102">
<ele>349.0</ele>
<speed>55.0</speed>
<course>277.9</course>
<desc>Speed 55.0 km/h Distance 51.90 km</desc>
<time>2011-03-24T15:59:40.87</time>
<name>2261</name>
</trkpt>
<trkpt lat="49.339757" lon="9.319900">
<ele>349.5</ele>
<speed>52.9</speed>
<course>272.9</course>
<desc>Speed 52.9 km/h Distance 51.92 km</desc>
<time>2011-03-24T15:59:41.87</time>
<name>2262</name>
</trkpt>
<trkpt lat="49.339763" lon="9.319697">
<ele>350.0</ele>
<speed>52.2</speed>
<course>254.3</course>
<desc>Speed 52.2 km/h Distance 51.93 km</desc>
<time>2011-03-24T15:59:42.87</time>
<name>2263</name>
</trkpt>
<trkpt lat="49.339720" lon="9.319460">
<ele>350.5</ele>
<speed>63.0</speed>
<course>256.1</course>
<desc>Speed 63.0 km/h Distance 51.95 km</desc>
<time>2011-03-24T15:59:43.87</time>
<name>2264</name>
</trkpt>
<trkpt lat="49.339627" lon="9.318880">
<ele>351.0</ele>
<speed>44.5</speed>
<course>261.9</course>
<desc>Speed 44.5 km/h Distance 51.99 km</desc>
<time>2011-03-24T15:59:46.87</time>
<name>2265</name>
</trkpt>
<trkpt lat="49.339607" lon="9.318665">
<ele>351.0</ele>
<speed>57.2</speed>
<course>285.6</course>
<desc>Speed 57.2 km/h Distance 52.01 km</desc>
<time>2011-03-24T15:59:47.86</time>
<name>2266</name>
</trkpt>
<trkpt lat="49.339640" lon="9.318482">
<ele>349.5</ele>
<speed>49.3</speed>
<course>283.3</course>
<desc>Speed 49.3 km/h Distance 52.02 km</desc>
<time>2011-03-24T15:59:48.87</time>
<name>2267</name>
</trkpt>
<trkpt lat="49.339670" lon="9.318287">
<ele>349.5</ele>
<speed>52.4</speed>
<course>285.2</course>
<desc>Speed 52.4 km/h Distance 52.04 km</desc>
<time>2011-03-24T15:59:49.87</time>
<name>2268</name>
</trkpt>
<trkpt lat="49.339703" lon="9.318098">
<ele>349.5</ele>
<speed>51.6</speed>
<course>276.4</course>
<desc>Speed 51.6 km/h Distance 52.05 km</desc>
<time>2011-03-24T15:59:50.87</time>
<name>2269</name>
</trkpt>
<trkpt lat="49.339718" lon="9.317892">
<ele>350.0</ele>
<speed>49.5</speed>
<course>284.2</course>
<desc>Speed 49.5 km/h Distance 52.07 km</desc>
<time>2011-03-24T15:59:51.86</time>
<name>2270</name>
</trkpt>
<trkpt lat="49.339748" lon="9.317710">
<ele>350.0</ele>
<speed>49.5</speed>
<course>284.0</course>
<desc>Speed 49.5 km/h Distance 52.08 km</desc>
<time>2011-03-24T15:59:52.87</time>
<name>2271</name>
</trkpt>
<trkpt lat="49.339778" lon="9.317525">
<ele>350.0</ele>
<speed>50.1</speed>
<course>282.6</course>
<desc>Speed 50.1 km/h Distance 52.09 km</desc>
<time>2011-03-24T15:59:53.86</time>
<name>2272</name>
</trkpt>
<trkpt lat="49.339807" lon="9.317330">
<ele>350.0</ele>
<speed>51.0</speed>
<course>276.9</course>
<desc>Speed 51.0 km/h Distance 52.11 km</desc>
<time>2011-03-24T15:59:54.87</time>
<name>2273</name>
</trkpt>
<trkpt lat="49.339822" lon="9.317140">
<ele>350.0</ele>
<speed>50.0</speed>
<course>275.9</course>
<desc>Speed 50.0 km/h Distance 52.12 km</desc>
<time>2011-03-24T15:59:55.87</time>
<name>2274</name>
</trkpt>
<trkpt lat="49.339835" lon="9.316943">
<ele>349.5</ele>
<speed>51.3</speed>
<course>277.4</course>
<desc>Speed 51.3 km/h Distance 52.14 km</desc>
<time>2011-03-24T15:59:56.87</time>
<name>2275</name>
</trkpt>
<trkpt lat="49.339848" lon="9.316785">
<ele>349.5</ele>
<speed>51.3</speed>
<course>272.1</course>
<desc>Speed 51.3 km/h Distance 52.15 km</desc>
<time>2011-03-24T15:59:57.86</time>
<name>2276</name>
</trkpt>
<trkpt lat="49.339853" lon="9.316572">
<ele>349.0</ele>
<speed>51.9</speed>
<course>274.8</course>
<desc>Speed 51.9 km/h Distance 52.16 km</desc>
<time>2011-03-24T15:59:58.87</time>
<name>2277</name>
</trkpt>
<trkpt lat="49.339865" lon="9.316360">
<ele>349.0</ele>
<speed>53.9</speed>
<course>274.2</course>
<desc>Speed 53.9 km/h Distance 52.18 km</desc>
<time>2011-03-24T16:00:00.01</time>
<name>2278</name>
</trkpt>
<trkpt lat="49.339875" lon="9.316152">
<ele>349.5</ele>
<speed>53.7</speed>
<course>270.7</course>
<desc>Speed 53.7 km/h Distance 52.19 km</desc>
<time>2011-03-24T16:00:00.87</time>
<name>2279</name>
</trkpt>
<trkpt lat="49.339877" lon="9.315942">
<ele>349.5</ele>
<speed>54.3</speed>
<course>272.7</course>
<desc>Speed 54.3 km/h Distance 52.21 km</desc>
<time>2011-03-24T16:00:01.86</time>
<name>2280</name>
</trkpt>
<trkpt lat="49.339883" lon="9.315728">
<ele>350.0</ele>
<speed>55.0</speed>
<course>272.7</course>
<desc>Speed 55.0 km/h Distance 52.22 km</desc>
<time>2011-03-24T16:00:02.86</time>
<name>2281</name>
</trkpt>
<trkpt lat="49.339890" lon="9.315512">
<ele>350.5</ele>
<speed>55.6</speed>
<course>272.8</course>
<desc>Speed 55.6 km/h Distance 52.24 km</desc>
<time>2011-03-24T16:00:03.86</time>
<name>2282</name>
</trkpt>
<trkpt lat="49.339897" lon="9.315300">
<ele>350.5</ele>
<speed>54.6</speed>
<course>272.2</course>
<desc>Speed 54.6 km/h Distance 52.26 km</desc>
<time>2011-03-24T16:00:04.87</time>
<name>2283</name>
</trkpt>
<trkpt lat="49.339902" lon="9.315100">
<ele>350.5</ele>
<speed>51.2</speed>
<course>270.0</course>
<desc>Speed 51.2 km/h Distance 52.27 km</desc>
<time>2011-03-24T16:00:05.86</time>
<name>2284</name>
</trkpt>
<trkpt lat="49.339902" lon="9.314917">
<ele>351.0</ele>
<speed>47.7</speed>
<course>271.7</course>
<desc>Speed 47.7 km/h Distance 52.28 km</desc>
<time>2011-03-24T16:00:06.86</time>
<name>2285</name>
</trkpt>
<trkpt lat="49.339905" lon="9.314742">
<ele>351.0</ele>
<speed>46.9</speed>
<course>271.6</course>
<desc>Speed 46.9 km/h Distance 52.30 km</desc>
<time>2011-03-24T16:00:07.86</time>
<name>2286</name>
</trkpt>
<trkpt lat="49.339908" lon="9.314560">
<ele>351.0</ele>
<speed>47.1</speed>
<course>280.0</course>
<desc>Speed 47.1 km/h Distance 52.31 km</desc>
<time>2011-03-24T16:00:08.86</time>
<name>2287</name>
</trkpt>
<trkpt lat="49.339952" lon="9.314182">
<ele>351.5</ele>
<speed>44.0</speed>
<course>291.5</course>
<desc>Speed 44.0 km/h Distance 52.34 km</desc>
<time>2011-03-24T16:00:10.86</time>
<name>2288</name>
</trkpt>
<trkpt lat="49.339997" lon="9.314007">
<ele>352.0</ele>
<speed>49.1</speed>
<course>284.0</course>
<desc>Speed 49.1 km/h Distance 52.35 km</desc>
<time>2011-03-24T16:00:11.86</time>
<name>2289</name>
</trkpt>
<trkpt lat="49.340032" lon="9.313792">
<ele>352.0</ele>
<speed>58.9</speed>
<course>293.7</course>
<desc>Speed 58.9 km/h Distance 52.37 km</desc>
<time>2011-03-24T16:00:12.85</time>
<name>2290</name>
</trkpt>
<trkpt lat="49.340088" lon="9.313593">
<ele>351.5</ele>
<speed>57.1</speed>
<course>291.1</course>
<desc>Speed 57.1 km/h Distance 52.38 km</desc>
<time>2011-03-24T16:00:13.85</time>
<name>2291</name>
</trkpt>
<trkpt lat="49.340145" lon="9.313368">
<ele>351.5</ele>
<speed>63.6</speed>
<course>306.1</course>
<desc>Speed 63.6 km/h Distance 52.40 km</desc>
<time>2011-03-24T16:00:14.86</time>
<name>2292</name>
</trkpt>
<trkpt lat="49.340238" lon="9.313172">
<ele>350.0</ele>
<speed>63.6</speed>
<course>301.2</course>
<desc>Speed 63.6 km/h Distance 52.42 km</desc>
<time>2011-03-24T16:00:15.85</time>
<name>2293</name>
</trkpt>
<trkpt lat="49.340325" lon="9.312952">
<ele>350.0</ele>
<speed>67.1</speed>
<course>298.1</course>
<desc>Speed 67.1 km/h Distance 52.44 km</desc>
<time>2011-03-24T16:00:16.86</time>
<name>2294</name>
</trkpt>
<trkpt lat="49.340503" lon="9.312440">
<ele>348.5</ele>
<speed>75.9</speed>
<course>316.8</course>
<desc>Speed 75.9 km/h Distance 52.48 km</desc>
<time>2011-03-24T16:00:18.85</time>
<name>2295</name>
</trkpt>
<trkpt lat="49.340617" lon="9.312277">
<ele>347.0</ele>
<speed>75.9</speed>
<course>317.2</course>
<desc>Speed 75.9 km/h Distance 52.50 km</desc>
<time>2011-03-24T16:00:19.85</time>
<name>2296</name>
</trkpt>
<trkpt lat="49.340795" lon="9.312023">
<ele>347.5</ele>
<speed>75.9</speed>
<course>280.4</course>
<desc>Speed 75.9 km/h Distance 52.52 km</desc>
<time>2011-03-24T16:00:21.87</time>
<name>2297</name>
</trkpt>
<trkpt lat="49.340838" lon="9.311662">
<ele>346.0</ele>
<speed>75.9</speed>
<course>287.7</course>
<desc>Speed 75.9 km/h Distance 52.55 km</desc>
<time>2011-03-24T16:00:23.86</time>
<name>2298</name>
</trkpt>
<trkpt lat="49.341200" lon="9.309922">
<ele>342.0</ele>
<speed>107</speed>
<course>283.2</course>
<desc>Speed 107 km/h Distance 52.68 km</desc>
<time>2011-03-24T16:00:27.85</time>
<name>2299</name>
</trkpt>
<trkpt lat="49.341265" lon="9.309497">
<ele>342.0</ele>
<speed>109</speed>
<course>278.0</course>
<desc>Speed 109 km/h Distance 52.71 km</desc>
<time>2011-03-24T16:00:28.86</time>
<name>2300</name>
</trkpt>
<trkpt lat="49.341307" lon="9.309040">
<ele>341.5</ele>
<speed>109</speed>
<course>276.5</course>
<desc>Speed 109 km/h Distance 52.75 km</desc>
<time>2011-03-24T16:00:29.86</time>
<name>2301</name>
</trkpt>
<trkpt lat="49.341338" lon="9.308615">
<ele>343.5</ele>
<speed>107</speed>
<course>273.7</course>
<desc>Speed 107 km/h Distance 52.78 km</desc>
<time>2011-03-24T16:00:30.86</time>
<name>2302</name>
</trkpt>
<trkpt lat="49.341357" lon="9.308185">
<ele>344.5</ele>
<speed>107</speed>
<course>271.1</course>
<desc>Speed 107 km/h Distance 52.81 km</desc>
<time>2011-03-24T16:00:31.85</time>
<name>2303</name>
</trkpt>
<trkpt lat="49.341362" lon="9.307768">
<ele>344.5</ele>
<speed>105</speed>
<course>266.7</course>
<desc>Speed 105 km/h Distance 52.84 km</desc>
<time>2011-03-24T16:00:32.85</time>
<name>2304</name>
</trkpt>
<trkpt lat="49.341345" lon="9.307330">
<ele>344.5</ele>
<speed>103</speed>
<course>265.7</course>
<desc>Speed 103 km/h Distance 52.87 km</desc>
<time>2011-03-24T16:00:33.84</time>
<name>2305</name>
</trkpt>
<trkpt lat="49.341323" lon="9.306888">
<ele>344.0</ele>
<speed>102</speed>
<course>266.5</course>
<desc>Speed 102 km/h Distance 52.90 km</desc>
<time>2011-03-24T16:00:34.84</time>
<name>2306</name>
</trkpt>
<trkpt lat="49.341307" lon="9.306470">
<ele>346.5</ele>
<speed>102</speed>
<course>266.1</course>
<desc>Speed 102 km/h Distance 52.93 km</desc>
<time>2011-03-24T16:00:35.84</time>
<name>2307</name>
</trkpt>
<trkpt lat="49.341288" lon="9.306055">
<ele>347.5</ele>
<speed>102</speed>
<course>264.3</course>
<desc>Speed 102 km/h Distance 52.96 km</desc>
<time>2011-03-24T16:00:36.83</time>
<name>2308</name>
</trkpt>
<trkpt lat="49.341262" lon="9.305647">
<ele>349.0</ele>
<speed>103</speed>
<course>261.5</course>
<desc>Speed 103 km/h Distance 52.99 km</desc>
<time>2011-03-24T16:00:37.84</time>
<name>2309</name>
</trkpt>
<trkpt lat="49.341223" lon="9.305255">
<ele>348.5</ele>
<speed>98.2</speed>
<course>258.4</course>
<desc>Speed 98.2 km/h Distance 53.02 km</desc>
<time>2011-03-24T16:00:38.84</time>
<name>2310</name>
</trkpt>
<trkpt lat="49.341172" lon="9.304868">
<ele>349.5</ele>
<speed>103</speed>
<course>255.4</course>
<desc>Speed 103 km/h Distance 53.05 km</desc>
<time>2011-03-24T16:00:39.85</time>
<name>2311</name>
</trkpt>
<trkpt lat="49.341102" lon="9.304455">
<ele>348.5</ele>
<speed>104</speed>
<course>254.3</course>
<desc>Speed 104 km/h Distance 53.08 km</desc>
<time>2011-03-24T16:00:40.84</time>
<name>2312</name>
</trkpt>
<trkpt lat="49.341028" lon="9.304053">
<ele>348.0</ele>
<speed>107</speed>
<course>253.3</course>
<desc>Speed 107 km/h Distance 53.11 km</desc>
<time>2011-03-24T16:00:41.84</time>
<name>2313</name>
</trkpt>
<trkpt lat="49.340948" lon="9.303643">
<ele>348.5</ele>
<speed>110</speed>
<course>250.8</course>
<desc>Speed 110 km/h Distance 53.14 km</desc>
<time>2011-03-24T16:00:42.84</time>
<name>2314</name>
</trkpt>
<trkpt lat="49.340852" lon="9.303217">
<ele>348.5</ele>
<speed>116</speed>
<course>249.3</course>
<desc>Speed 116 km/h Distance 53.18 km</desc>
<time>2011-03-24T16:00:43.83</time>
<name>2315</name>
</trkpt>
<trkpt lat="49.340737" lon="9.302750">
<ele>349.0</ele>
<speed>128</speed>
<course>250.1</course>
<desc>Speed 128 km/h Distance 53.21 km</desc>
<time>2011-03-24T16:00:44.84</time>
<name>2316</name>
</trkpt>
<trkpt lat="49.340622" lon="9.302263">
<ele>349.5</ele>
<speed>133</speed>
<course>253.4</course>
<desc>Speed 133 km/h Distance 53.25 km</desc>
<time>2011-03-24T16:00:45.84</time>
<name>2317</name>
</trkpt>
<trkpt lat="49.340530" lon="9.301792">
<ele>350.5</ele>
<speed>127</speed>
<course>252.4</course>
<desc>Speed 127 km/h Distance 53.29 km</desc>
<time>2011-03-24T16:00:46.83</time>
<name>2318</name>
</trkpt>
<trkpt lat="49.340442" lon="9.301365">
<ele>350.5</ele>
<speed>116</speed>
<course>248.5</course>
<desc>Speed 116 km/h Distance 53.32 km</desc>
<time>2011-03-24T16:00:47.84</time>
<name>2319</name>
</trkpt>
<trkpt lat="49.340338" lon="9.300963">
<ele>350.5</ele>
<speed>114</speed>
<course>239.5</course>
<desc>Speed 114 km/h Distance 53.35 km</desc>
<time>2011-03-24T16:00:48.84</time>
<name>2320</name>
</trkpt>
<trkpt lat="49.340190" lon="9.300577">
<ele>353.0</ele>
<speed>113</speed>
<course>241.5</course>
<desc>Speed 113 km/h Distance 53.38 km</desc>
<time>2011-03-24T16:00:49.84</time>
<name>2321</name>
</trkpt>
<trkpt lat="49.340062" lon="9.300213">
<ele>353.5</ele>
<speed>101</speed>
<course>249.2</course>
<desc>Speed 101 km/h Distance 53.41 km</desc>
<time>2011-03-24T16:00:50.83</time>
<name>2322</name>
</trkpt>
<trkpt lat="49.339908" lon="9.299593">
<ele>353.5</ele>
<speed>88.8</speed>
<course>257.8</course>
<desc>Speed 88.8 km/h Distance 53.46 km</desc>
<time>2011-03-24T16:00:52.83</time>
<name>2323</name>
</trkpt>
<trkpt lat="49.339860" lon="9.299250">
<ele>354.0</ele>
<speed>91.5</speed>
<course>267.0</course>
<desc>Speed 91.5 km/h Distance 53.49 km</desc>
<time>2011-03-24T16:00:53.83</time>
<name>2324</name>
</trkpt>
<trkpt lat="49.339837" lon="9.298570">
<ele>353.5</ele>
<speed>103</speed>
<course>280.9</course>
<desc>Speed 103 km/h Distance 53.54 km</desc>
<time>2011-03-24T16:00:55.84</time>
<name>2325</name>
</trkpt>
<trkpt lat="49.339887" lon="9.298172">
<ele>353.5</ele>
<speed>105</speed>
<course>281.9</course>
<desc>Speed 105 km/h Distance 53.56 km</desc>
<time>2011-03-24T16:00:56.83</time>
<name>2326</name>
</trkpt>
<trkpt lat="49.339947" lon="9.297733">
<ele>353.5</ele>
<speed>114</speed>
<course>282.9</course>
<desc>Speed 114 km/h Distance 53.60 km</desc>
<time>2011-03-24T16:00:57.83</time>
<name>2327</name>
</trkpt>
<trkpt lat="49.340013" lon="9.297285">
<ele>354.5</ele>
<speed>117</speed>
<course>282.1</course>
<desc>Speed 117 km/h Distance 53.63 km</desc>
<time>2011-03-24T16:00:58.83</time>
<name>2328</name>
</trkpt>
<trkpt lat="49.340075" lon="9.296843">
<ele>355.5</ele>
<speed>116</speed>
<course>281.1</course>
<desc>Speed 116 km/h Distance 53.66 km</desc>
<time>2011-03-24T16:00:59.85</time>
<name>2329</name>
</trkpt>
<trkpt lat="49.340130" lon="9.296415">
<ele>356.0</ele>
<speed>113</speed>
<course>282.2</course>
<desc>Speed 113 km/h Distance 53.69 km</desc>
<time>2011-03-24T16:01:00.83</time>
<name>2330</name>
</trkpt>
<trkpt lat="49.340187" lon="9.296012">
<ele>356.5</ele>
<speed>106</speed>
<course>269.6</course>
<desc>Speed 106 km/h Distance 53.72 km</desc>
<time>2011-03-24T16:01:01.83</time>
<name>2331</name>
</trkpt>
<trkpt lat="49.340185" lon="9.295613">
<ele>356.0</ele>
<speed>102</speed>
<course>270.8</course>
<desc>Speed 102 km/h Distance 53.75 km</desc>
<time>2011-03-24T16:01:02.83</time>
<name>2332</name>
</trkpt>
<trkpt lat="49.340188" lon="9.295242">
<ele>356.0</ele>
<speed>94.1</speed>
<course>267.2</course>
<desc>Speed 94.1 km/h Distance 53.78 km</desc>
<time>2011-03-24T16:01:03.83</time>
<name>2333</name>
</trkpt>
<trkpt lat="49.340177" lon="9.294877">
<ele>356.0</ele>
<speed>95.5</speed>
<course>250.8</course>
<desc>Speed 95.5 km/h Distance 53.81 km</desc>
<time>2011-03-24T16:01:04.83</time>
<name>2334</name>
</trkpt>
<trkpt lat="49.340030" lon="9.294232">
<ele>355.5</ele>
<speed>95.7</speed>
<course>237.6</course>
<desc>Speed 95.7 km/h Distance 53.86 km</desc>
<time>2011-03-24T16:01:06.82</time>
<name>2335</name>
</trkpt>
<trkpt lat="49.339895" lon="9.293905">
<ele>356.0</ele>
<speed>100</speed>
<course>241.0</course>
<desc>Speed 100 km/h Distance 53.88 km</desc>
<time>2011-03-24T16:01:07.82</time>
<name>2336</name>
</trkpt>
<trkpt lat="49.339775" lon="9.293573">
<ele>357.5</ele>
<speed>99.3</speed>
<course>237.2</course>
<desc>Speed 99.3 km/h Distance 53.91 km</desc>
<time>2011-03-24T16:01:08.82</time>
<name>2337</name>
</trkpt>
<trkpt lat="49.339460" lon="9.292823">
<ele>360.5</ele>
<speed>106</speed>
<course>235.8</course>
<desc>Speed 106 km/h Distance 53.98 km</desc>
<time>2011-03-24T16:01:10.81</time>
<name>2338</name>
</trkpt>
<trkpt lat="49.339327" lon="9.292522">
<ele>360.0</ele>
<speed>95.0</speed>
<course>233.0</course>
<desc>Speed 95.0 km/h Distance 54.00 km</desc>
<time>2011-03-24T16:01:11.82</time>
<name>2339</name>
</trkpt>
<trkpt lat="49.339177" lon="9.292217">
<ele>360.5</ele>
<speed>96.1</speed>
<course>234.5</course>
<desc>Speed 96.1 km/h Distance 54.03 km</desc>
<time>2011-03-24T16:01:12.81</time>
<name>2340</name>
</trkpt>
<trkpt lat="49.338928" lon="9.291682">
<ele>361.0</ele>
<speed>90.2</speed>
<course>242.6</course>
<desc>Speed 90.2 km/h Distance 54.08 km</desc>
<time>2011-03-24T16:01:14.82</time>
<name>2341</name>
</trkpt>
<trkpt lat="49.338830" lon="9.291390">
<ele>361.5</ele>
<speed>84.5</speed>
<course>241.7</course>
<desc>Speed 84.5 km/h Distance 54.10 km</desc>
<time>2011-03-24T16:01:15.81</time>
<name>2342</name>
</trkpt>
<trkpt lat="49.338495" lon="9.290437">
<ele>362.0</ele>
<speed>117</speed>
<course>264.9</course>
<desc>Speed 117 km/h Distance 54.18 km</desc>
<time>2011-03-24T16:01:18.81</time>
<name>2343</name>
</trkpt>
<trkpt lat="49.338427" lon="9.289257">
<ele>354.0</ele>
<speed>117</speed>
<course>302.2</course>
<desc>Speed 117 km/h Distance 54.27 km</desc>
<time>2011-03-24T16:01:23.82</time>
<name>2344</name>
</trkpt>
<trkpt lat="49.339065" lon="9.287702">
<ele>355.0</ele>
<speed>117</speed>
<course>294.8</course>
<desc>Speed 117 km/h Distance 54.40 km</desc>
<time>2011-03-24T16:01:26.80</time>
<name>2345</name>
</trkpt>
<trkpt lat="49.339332" lon="9.286815">
<ele>355.5</ele>
<speed>117</speed>
<course>247.6</course>
<desc>Speed 117 km/h Distance 54.47 km</desc>
<time>2011-03-24T16:01:29.80</time>
<name>2346</name>
</trkpt>
<trkpt lat="49.339055" lon="9.285785">
<ele>356.5</ele>
<speed>117</speed>
<course>271.7</course>
<desc>Speed 117 km/h Distance 54.55 km</desc>
<time>2011-03-24T16:01:31.80</time>
<name>2347</name>
</trkpt>
<trkpt lat="49.339068" lon="9.285105">
<ele>356.5</ele>
<speed>117</speed>
<course>228.4</course>
<desc>Speed 117 km/h Distance 54.60 km</desc>
<time>2011-03-24T16:01:33.80</time>
<name>2348</name>
</trkpt>
<trkpt lat="49.338897" lon="9.284808">
<ele>354.0</ele>
<speed>117</speed>
<course>285.7</course>
<desc>Speed 117 km/h Distance 54.63 km</desc>
<time>2011-03-24T16:01:34.79</time>
<name>2349</name>
</trkpt>
<trkpt lat="49.339123" lon="9.283570">
<ele>349.5</ele>
<speed>83.5</speed>
<course>260.7</course>
<desc>Speed 83.5 km/h Distance 54.72 km</desc>
<time>2011-03-24T16:01:37.79</time>
<name>2350</name>
</trkpt>
<trkpt lat="49.339083" lon="9.283195">
<ele>350.0</ele>
<speed>85.9</speed>
<course>249.3</course>
<desc>Speed 85.9 km/h Distance 54.75 km</desc>
<time>2011-03-24T16:01:38.80</time>
<name>2351</name>
</trkpt>
<trkpt lat="49.338908" lon="9.282483">
<ele>350.0</ele>
<speed>90.6</speed>
<course>238.7</course>
<desc>Speed 90.6 km/h Distance 54.81 km</desc>
<time>2011-03-24T16:01:40.85</time>
<name>2352</name>
</trkpt>
<trkpt lat="49.338793" lon="9.282193">
<ele>350.5</ele>
<speed>87.1</speed>
<course>234.5</course>
<desc>Speed 87.1 km/h Distance 54.83 km</desc>
<time>2011-03-24T16:01:41.79</time>
<name>2353</name>
</trkpt>
<trkpt lat="49.338660" lon="9.281907">
<ele>352.5</ele>
<speed>93.3</speed>
<course>236.8</course>
<desc>Speed 93.3 km/h Distance 54.86 km</desc>
<time>2011-03-24T16:01:42.80</time>
<name>2354</name>
</trkpt>
<trkpt lat="49.338378" lon="9.281247">
<ele>355.0</ele>
<speed>118</speed>
<course>204.0</course>
<desc>Speed 118 km/h Distance 54.91 km</desc>
<time>2011-03-24T16:01:44.80</time>
<name>2355</name>
</trkpt>
<trkpt lat="49.337697" lon="9.280782">
<ele>352.5</ele>
<speed>89.6</speed>
<course>167.2</course>
<desc>Speed 89.6 km/h Distance 55.00 km</desc>
<time>2011-03-24T16:01:48.79</time>
<name>2356</name>
</trkpt>
<trkpt lat="49.337155" lon="9.280970">
<ele>352.0</ele>
<speed>112</speed>
<course>155.6</course>
<desc>Speed 112 km/h Distance 55.06 km</desc>
<time>2011-03-24T16:01:50.79</time>
<name>2357</name>
</trkpt>
<trkpt lat="49.336892" lon="9.281153">
<ele>351.0</ele>
<speed>112</speed>
<course>154.3</course>
<desc>Speed 112 km/h Distance 55.09 km</desc>
<time>2011-03-24T16:01:51.79</time>
<name>2358</name>
</trkpt>
<trkpt lat="49.336617" lon="9.281357">
<ele>351.5</ele>
<speed>117</speed>
<course>154.5</course>
<desc>Speed 117 km/h Distance 55.12 km</desc>
<time>2011-03-24T16:01:52.79</time>
<name>2359</name>
</trkpt>
<trkpt lat="49.336332" lon="9.281565">
<ele>352.0</ele>
<speed>122</speed>
<course>154.7</course>
<desc>Speed 122 km/h Distance 55.16 km</desc>
<time>2011-03-24T16:01:53.78</time>
<name>2360</name>
</trkpt>
<trkpt lat="49.336045" lon="9.281773">
<ele>351.5</ele>
<speed>125</speed>
<course>156.0</course>
<desc>Speed 125 km/h Distance 55.20 km</desc>
<time>2011-03-24T16:01:54.78</time>
<name>2361</name>
</trkpt>
<trkpt lat="49.335738" lon="9.281983">
<ele>353.5</ele>
<speed>126</speed>
<course>159.9</course>
<desc>Speed 126 km/h Distance 55.23 km</desc>
<time>2011-03-24T16:01:55.79</time>
<name>2362</name>
</trkpt>
<trkpt lat="49.335438" lon="9.282152">
<ele>352.5</ele>
<speed>125</speed>
<course>158.6</course>
<desc>Speed 125 km/h Distance 55.27 km</desc>
<time>2011-03-24T16:01:56.78</time>
<name>2363</name>
</trkpt>
<trkpt lat="49.335170" lon="9.282313">
<ele>354.0</ele>
<speed>113</speed>
<course>159.1</course>
<desc>Speed 113 km/h Distance 55.30 km</desc>
<time>2011-03-24T16:01:57.78</time>
<name>2364</name>
</trkpt>
<trkpt lat="49.334900" lon="9.282472">
<ele>359.0</ele>
<speed>105</speed>
<course>167.3</course>
<desc>Speed 105 km/h Distance 55.33 km</desc>
<time>2011-03-24T16:01:58.78</time>
<name>2365</name>
</trkpt>
<trkpt lat="49.334655" lon="9.282557">
<ele>358.5</ele>
<speed>100</speed>
<course>173.8</course>
<desc>Speed 100 km/h Distance 55.36 km</desc>
<time>2011-03-24T16:01:59.79</time>
<name>2366</name>
</trkpt>
<trkpt lat="49.334393" lon="9.282600">
<ele>360.0</ele>
<speed>102</speed>
<course>180.1</course>
<desc>Speed 102 km/h Distance 55.39 km</desc>
<time>2011-03-24T16:02:00.78</time>
<name>2367</name>
</trkpt>
<trkpt lat="49.334135" lon="9.282598">
<ele>360.0</ele>
<speed>103</speed>
<course>180.0</course>
<desc>Speed 103 km/h Distance 55.42 km</desc>
<time>2011-03-24T16:02:01.77</time>
<name>2368</name>
</trkpt>
<trkpt lat="49.333898" lon="9.282598">
<ele>360.5</ele>
<speed>94.6</speed>
<course>179.1</course>
<desc>Speed 94.6 km/h Distance 55.44 km</desc>
<time>2011-03-24T16:02:02.78</time>
<name>2369</name>
</trkpt>
<trkpt lat="49.333678" lon="9.282603">
<ele>361.5</ele>
<speed>88.1</speed>
<course>181.3</course>
<desc>Speed 88.1 km/h Distance 55.47 km</desc>
<time>2011-03-24T16:02:03.78</time>
<name>2370</name>
</trkpt>
<trkpt lat="49.333480" lon="9.282597">
<ele>361.5</ele>
<speed>79.1</speed>
<course>188.6</course>
<desc>Speed 79.1 km/h Distance 55.49 km</desc>
<time>2011-03-24T16:02:04.77</time>
<name>2371</name>
</trkpt>
<trkpt lat="49.333307" lon="9.282557">
<ele>361.5</ele>
<speed>70.0</speed>
<course>202.2</course>
<desc>Speed 70.0 km/h Distance 55.51 km</desc>
<time>2011-03-24T16:02:05.78</time>
<name>2372</name>
</trkpt>
<trkpt lat="49.333160" lon="9.282465">
<ele>362.0</ele>
<speed>63.5</speed>
<course>204.4</course>
<desc>Speed 63.5 km/h Distance 55.53 km</desc>
<time>2011-03-24T16:02:06.78</time>
<name>2373</name>
</trkpt>
<trkpt lat="49.332885" lon="9.282273">
<ele>362.0</ele>
<speed>65.5</speed>
<course>205.8</course>
<desc>Speed 65.5 km/h Distance 55.56 km</desc>
<time>2011-03-24T16:02:08.77</time>
<name>2374</name>
</trkpt>
<trkpt lat="49.332532" lon="9.282012">
<ele>365.5</ele>
<speed>75.9</speed>
<course>211.8</course>
<desc>Speed 75.9 km/h Distance 55.61 km</desc>
<time>2011-03-24T16:02:10.77</time>
<name>2375</name>
</trkpt>
<trkpt lat="49.332365" lon="9.281853">
<ele>366.5</ele>
<speed>71.6</speed>
<course>223.3</course>
<desc>Speed 71.6 km/h Distance 55.63 km</desc>
<time>2011-03-24T16:02:11.78</time>
<name>2376</name>
</trkpt>
<trkpt lat="49.332238" lon="9.281670">
<ele>366.5</ele>
<speed>68.9</speed>
<course>232.5</course>
<desc>Speed 68.9 km/h Distance 55.65 km</desc>
<time>2011-03-24T16:02:12.77</time>
<name>2377</name>
</trkpt>
<trkpt lat="49.332130" lon="9.281453">
<ele>367.0</ele>
<speed>70.0</speed>
<course>242.3</course>
<desc>Speed 70.0 km/h Distance 55.67 km</desc>
<time>2011-03-24T16:02:13.78</time>
<name>2378</name>
</trkpt>
<trkpt lat="49.332038" lon="9.281185">
<ele>367.5</ele>
<speed>77.4</speed>
<course>254.6</course>
<desc>Speed 77.4 km/h Distance 55.69 km</desc>
<time>2011-03-24T16:02:14.77</time>
<name>2379</name>
</trkpt>
<trkpt lat="49.331857" lon="9.280173">
<ele>368.5</ele>
<speed>112</speed>
<course>264.7</course>
<desc>Speed 112 km/h Distance 55.76 km</desc>
<time>2011-03-24T16:02:17.77</time>
<name>2380</name>
</trkpt>
<trkpt lat="49.331807" lon="9.279342">
<ele>368.0</ele>
<speed>98.9</speed>
<course>265.4</course>
<desc>Speed 98.9 km/h Distance 55.83 km</desc>
<time>2011-03-24T16:02:20.77</time>
<name>2381</name>
</trkpt>
<trkpt lat="49.331760" lon="9.278445">
<ele>367.0</ele>
<speed>118</speed>
<course>270.6</course>
<desc>Speed 118 km/h Distance 55.89 km</desc>
<time>2011-03-24T16:02:22.77</time>
<name>2382</name>
</trkpt>
<trkpt lat="49.331763" lon="9.277988">
<ele>368.0</ele>
<speed>109</speed>
<course>266.8</course>
<desc>Speed 109 km/h Distance 55.92 km</desc>
<time>2011-03-24T16:02:23.77</time>
<name>2383</name>
</trkpt>
<trkpt lat="49.331748" lon="9.277578">
<ele>369.0</ele>
<speed>102</speed>
<course>262.3</course>
<desc>Speed 102 km/h Distance 55.95 km</desc>
<time>2011-03-24T16:02:24.77</time>
<name>2384</name>
</trkpt>
<trkpt lat="49.331717" lon="9.277220">
<ele>371.0</ele>
<speed>91.0</speed>
<course>262.1</course>
<desc>Speed 91.0 km/h Distance 55.98 km</desc>
<time>2011-03-24T16:02:25.77</time>
<name>2385</name>
</trkpt>
<trkpt lat="49.331690" lon="9.276925">
<ele>373.5</ele>
<speed>91.0</speed>
<course>249.9</course>
<desc>Speed 91.0 km/h Distance 56.00 km</desc>
<time>2011-03-24T16:02:26.76</time>
<name>2386</name>
</trkpt>
<trkpt lat="49.331600" lon="9.276547">
<ele>376.0</ele>
<speed>101</speed>
<course>257.6</course>
<desc>Speed 101 km/h Distance 56.03 km</desc>
<time>2011-03-24T16:02:27.76</time>
<name>2387</name>
</trkpt>
<trkpt lat="49.331550" lon="9.276197">
<ele>378.5</ele>
<speed>87.3</speed>
<course>258.5</course>
<desc>Speed 87.3 km/h Distance 56.06 km</desc>
<time>2011-03-24T16:02:28.76</time>
<name>2388</name>
</trkpt>
<trkpt lat="49.331503" lon="9.275843">
<ele>377.0</ele>
<speed>89.6</speed>
<course>261.9</course>
<desc>Speed 89.6 km/h Distance 56.08 km</desc>
<time>2011-03-24T16:02:29.76</time>
<name>2389</name>
</trkpt>
<trkpt lat="49.331473" lon="9.275520">
<ele>378.5</ele>
<speed>84.4</speed>
<course>270.0</course>
<desc>Speed 84.4 km/h Distance 56.11 km</desc>
<time>2011-03-24T16:02:30.76</time>
<name>2390</name>
</trkpt>
<trkpt lat="49.331473" lon="9.275200">
<ele>383.5</ele>
<speed>82.5</speed>
<course>274.2</course>
<desc>Speed 82.5 km/h Distance 56.13 km</desc>
<time>2011-03-24T16:02:31.76</time>
<name>2391</name>
</trkpt>
<trkpt lat="49.331490" lon="9.274848">
<ele>383.0</ele>
<speed>90.4</speed>
<course>279.8</course>
<desc>Speed 90.4 km/h Distance 56.16 km</desc>
<time>2011-03-24T16:02:32.76</time>
<name>2392</name>
</trkpt>
<trkpt lat="49.331528" lon="9.274508">
<ele>384.5</ele>
<speed>88.5</speed>
<course>287.9</course>
<desc>Speed 88.5 km/h Distance 56.18 km</desc>
<time>2011-03-24T16:02:33.75</time>
<name>2393</name>
</trkpt>
<trkpt lat="49.331598" lon="9.274175">
<ele>385.0</ele>
<speed>89.6</speed>
<course>296.4</course>
<desc>Speed 89.6 km/h Distance 56.21 km</desc>
<time>2011-03-24T16:02:34.76</time>
<name>2394</name>
</trkpt>
<trkpt lat="49.331697" lon="9.273872">
<ele>383.5</ele>
<speed>85.9</speed>
<course>310.2</course>
<desc>Speed 85.9 km/h Distance 56.23 km</desc>
<time>2011-03-24T16:02:35.76</time>
<name>2395</name>
</trkpt>
<trkpt lat="49.331832" lon="9.273627">
<ele>383.5</ele>
<speed>83.5</speed>
<course>300.1</course>
<desc>Speed 83.5 km/h Distance 56.25 km</desc>
<time>2011-03-24T16:02:36.76</time>
<name>2396</name>
</trkpt>
<trkpt lat="49.331945" lon="9.273327">
<ele>384.5</ele>
<speed>89.5</speed>
<course>308.2</course>
<desc>Speed 89.5 km/h Distance 56.28 km</desc>
<time>2011-03-24T16:02:37.77</time>
<name>2397</name>
</trkpt>
<trkpt lat="49.332075" lon="9.273073">
<ele>385.0</ele>
<speed>83.2</speed>
<course>313.9</course>
<desc>Speed 83.2 km/h Distance 56.30 km</desc>
<time>2011-03-24T16:02:38.75</time>
<name>2398</name>
</trkpt>
<trkpt lat="49.332215" lon="9.272850">
<ele>385.5</ele>
<speed>80.5</speed>
<course>318.5</course>
<desc>Speed 80.5 km/h Distance 56.32 km</desc>
<time>2011-03-24T16:02:39.76</time>
<name>2399</name>
</trkpt>
<trkpt lat="49.332368" lon="9.272642">
<ele>385.0</ele>
<speed>81.6</speed>
<course>323.5</course>
<desc>Speed 81.6 km/h Distance 56.35 km</desc>
<time>2011-03-24T16:02:40.75</time>
<name>2400</name>
</trkpt>
<trkpt lat="49.332542" lon="9.272445">
<ele>384.5</ele>
<speed>85.8</speed>
<course>325.0</course>
<desc>Speed 85.8 km/h Distance 56.37 km</desc>
<time>2011-03-24T16:02:41.75</time>
<name>2401</name>
</trkpt>
<trkpt lat="49.332725" lon="9.272248">
<ele>384.5</ele>
<speed>88.8</speed>
<course>328.2</course>
<desc>Speed 88.8 km/h Distance 56.40 km</desc>
<time>2011-03-24T16:02:42.75</time>
<name>2402</name>
</trkpt>
<trkpt lat="49.332930" lon="9.272053">
<ele>386.5</ele>
<speed>95.3</speed>
<course>324.8</course>
<desc>Speed 95.3 km/h Distance 56.42 km</desc>
<time>2011-03-24T16:02:43.75</time>
<name>2403</name>
</trkpt>
<trkpt lat="49.333128" lon="9.271838">
<ele>386.0</ele>
<speed>96.6</speed>
<course>325.2</course>
<desc>Speed 96.6 km/h Distance 56.45 km</desc>
<time>2011-03-24T16:02:44.75</time>
<name>2404</name>
</trkpt>
<trkpt lat="49.333328" lon="9.271625">
<ele>386.0</ele>
<speed>97.2</speed>
<course>327.1</course>
<desc>Speed 97.2 km/h Distance 56.48 km</desc>
<time>2011-03-24T16:02:45.75</time>
<name>2405</name>
</trkpt>
<trkpt lat="49.333515" lon="9.271440">
<ele>388.5</ele>
<speed>90.2</speed>
<course>327.4</course>
<desc>Speed 90.2 km/h Distance 56.50 km</desc>
<time>2011-03-24T16:02:46.75</time>
<name>2406</name>
</trkpt>
<trkpt lat="49.333683" lon="9.271275">
<ele>389.5</ele>
<speed>79.5</speed>
<course>330.5</course>
<desc>Speed 79.5 km/h Distance 56.52 km</desc>
<time>2011-03-24T16:02:47.75</time>
<name>2407</name>
</trkpt>
<trkpt lat="49.333872" lon="9.271112">
<ele>389.5</ele>
<speed>85.8</speed>
<course>334.4</course>
<desc>Speed 85.8 km/h Distance 56.55 km</desc>
<time>2011-03-24T16:02:48.74</time>
<name>2408</name>
</trkpt>
<trkpt lat="49.334062" lon="9.270972">
<ele>389.5</ele>
<speed>83.6</speed>
<course>333.1</course>
<desc>Speed 83.6 km/h Distance 56.57 km</desc>
<time>2011-03-24T16:02:49.75</time>
<name>2409</name>
</trkpt>
<trkpt lat="49.334235" lon="9.270837">
<ele>390.0</ele>
<speed>77.4</speed>
<course>331.6</course>
<desc>Speed 77.4 km/h Distance 56.59 km</desc>
<time>2011-03-24T16:02:50.74</time>
<name>2410</name>
</trkpt>
<trkpt lat="49.334382" lon="9.270715">
<ele>390.0</ele>
<speed>67.0</speed>
<course>329.2</course>
<desc>Speed 67.0 km/h Distance 56.61 km</desc>
<time>2011-03-24T16:02:51.74</time>
<name>2411</name>
</trkpt>
<trkpt lat="49.334500" lon="9.270607">
<ele>389.0</ele>
<speed>53.9</speed>
<course>324.9</course>
<desc>Speed 53.9 km/h Distance 56.63 km</desc>
<time>2011-03-24T16:02:52.75</time>
<name>2412</name>
</trkpt>
<trkpt lat="49.334583" lon="9.270517">
<ele>388.5</ele>
<speed>42.9</speed>
<course>321.4</course>
<desc>Speed 42.9 km/h Distance 56.64 km</desc>
<time>2011-03-24T16:02:53.75</time>
<name>2413</name>
</trkpt>
<trkpt lat="49.334650" lon="9.270435">
<ele>388.0</ele>
<speed>36.2</speed>
<course>303.3</course>
<desc>Speed 36.2 km/h Distance 56.65 km</desc>
<time>2011-03-24T16:02:54.75</time>
<name>2414</name>
</trkpt>
<trkpt lat="49.334695" lon="9.270330">
<ele>388.0</ele>
<speed>33.7</speed>
<course>309.2</course>
<desc>Speed 33.7 km/h Distance 56.66 km</desc>
<time>2011-03-24T16:02:55.75</time>
<name>2415</name>
</trkpt>
<trkpt lat="49.334752" lon="9.270223">
<ele>387.5</ele>
<speed>38.0</speed>
<course>310.0</course>
<desc>Speed 38.0 km/h Distance 56.67 km</desc>
<time>2011-03-24T16:02:56.94</time>
<name>2416</name>
</trkpt>
<trkpt lat="49.334800" lon="9.270135">
<ele>387.5</ele>
<speed>38.0</speed>
<course>298.3</course>
<desc>Speed 38.0 km/h Distance 56.68 km</desc>
<time>2011-03-24T16:02:57.74</time>
<name>2417</name>
</trkpt>
<trkpt lat="49.334935" lon="9.269750">
<ele>386.5</ele>
<speed>61.2</speed>
<course>321.2</course>
<desc>Speed 61.2 km/h Distance 56.71 km</desc>
<time>2011-03-24T16:02:59.73</time>
<name>2418</name>
</trkpt>
<trkpt lat="49.335070" lon="9.269583">
<ele>386.5</ele>
<speed>69.7</speed>
<course>317.4</course>
<desc>Speed 69.7 km/h Distance 56.73 km</desc>
<time>2011-03-24T16:03:00.74</time>
<name>2419</name>
</trkpt>
<trkpt lat="49.335180" lon="9.269428">
<ele>386.0</ele>
<speed>69.7</speed>
<course>331.4</course>
<desc>Speed 69.7 km/h Distance 56.74 km</desc>
<time>2011-03-24T16:03:01.74</time>
<name>2420</name>
</trkpt>
<trkpt lat="49.335363" lon="9.269275">
<ele>385.5</ele>
<speed>80.4</speed>
<course>324.2</course>
<desc>Speed 80.4 km/h Distance 56.77 km</desc>
<time>2011-03-24T16:03:02.74</time>
<name>2421</name>
</trkpt>
<trkpt lat="49.335517" lon="9.269105">
<ele>385.0</ele>
<speed>69.7</speed>
<course>321.9</course>
<desc>Speed 69.7 km/h Distance 56.79 km</desc>
<time>2011-03-24T16:03:03.73</time>
<name>2422</name>
</trkpt>
<trkpt lat="49.335655" lon="9.268938">
<ele>384.0</ele>
<speed>71.4</speed>
<course>312.7</course>
<desc>Speed 71.4 km/h Distance 56.81 km</desc>
<time>2011-03-24T16:03:04.74</time>
<name>2423</name>
</trkpt>
<trkpt lat="49.335950" lon="9.268448">
<ele>384.0</ele>
<speed>85.1</speed>
<course>302.9</course>
<desc>Speed 85.1 km/h Distance 56.86 km</desc>
<time>2011-03-24T16:03:06.74</time>
<name>2424</name>
</trkpt>
<trkpt lat="49.336048" lon="9.268215">
<ele>382.5</ele>
<speed>85.1</speed>
<course>302.2</course>
<desc>Speed 85.1 km/h Distance 56.88 km</desc>
<time>2011-03-24T16:03:07.73</time>
<name>2425</name>
</trkpt>
<trkpt lat="49.336143" lon="9.267983">
<ele>382.0</ele>
<speed>85.1</speed>
<course>300.6</course>
<desc>Speed 85.1 km/h Distance 56.90 km</desc>
<time>2011-03-24T16:03:08.73</time>
<name>2426</name>
</trkpt>
<trkpt lat="49.336602" lon="9.266795">
<ele>381.0</ele>
<speed>120</speed>
<course>298.5</course>
<desc>Speed 120 km/h Distance 57.00 km</desc>
<time>2011-03-24T16:03:11.74</time>
<name>2427</name>
</trkpt>
<trkpt lat="49.336750" lon="9.266375">
<ele>382.0</ele>
<speed>116</speed>
<course>294.5</course>
<desc>Speed 116 km/h Distance 57.03 km</desc>
<time>2011-03-24T16:03:12.74</time>
<name>2428</name>
</trkpt>
<trkpt lat="49.336875" lon="9.265953">
<ele>381.5</ele>
<speed>113</speed>
<course>291.6</course>
<desc>Speed 113 km/h Distance 57.06 km</desc>
<time>2011-03-24T16:03:13.73</time>
<name>2429</name>
</trkpt>
<trkpt lat="49.336975" lon="9.265567">
<ele>382.0</ele>
<speed>107</speed>
<course>297.6</course>
<desc>Speed 107 km/h Distance 57.09 km</desc>
<time>2011-03-24T16:03:14.73</time>
<name>2430</name>
</trkpt>
<trkpt lat="49.337108" lon="9.265175">
<ele>383.5</ele>
<speed>110</speed>
<course>298.1</course>
<desc>Speed 110 km/h Distance 57.13 km</desc>
<time>2011-03-24T16:03:15.73</time>
<name>2431</name>
</trkpt>
<trkpt lat="49.337237" lon="9.264807">
<ele>382.5</ele>
<speed>104</speed>
<course>302.2</course>
<desc>Speed 104 km/h Distance 57.16 km</desc>
<time>2011-03-24T16:03:16.73</time>
<name>2432</name>
</trkpt>
<trkpt lat="49.337373" lon="9.264473">
<ele>382.5</ele>
<speed>102</speed>
<course>304.0</course>
<desc>Speed 102 km/h Distance 57.18 km</desc>
<time>2011-03-24T16:03:17.73</time>
<name>2433</name>
</trkpt>
<trkpt lat="49.337617" lon="9.263920">
<ele>381.5</ele>
<speed>87.4</speed>
<course>309.1</course>
<desc>Speed 87.4 km/h Distance 57.23 km</desc>
<time>2011-03-24T16:03:19.73</time>
<name>2434</name>
</trkpt>
<trkpt lat="49.337830" lon="9.263517">
<ele>382.0</ele>
<speed>87.4</speed>
<course>314.4</course>
<desc>Speed 87.4 km/h Distance 57.27 km</desc>
<time>2011-03-24T16:03:21.72</time>
<name>2435</name>
</trkpt>
<trkpt lat="49.338173" lon="9.262978">
<ele>379.5</ele>
<speed>104</speed>
<course>317.4</course>
<desc>Speed 104 km/h Distance 57.33 km</desc>
<time>2011-03-24T16:03:23.72</time>
<name>2436</name>
</trkpt>
<trkpt lat="49.338467" lon="9.262565">
<ele>371.0</ele>
<speed>104</speed>
<course>309.6</course>
<desc>Speed 104 km/h Distance 57.37 km</desc>
<time>2011-03-24T16:03:25.72</time>
<name>2437</name>
</trkpt>
<trkpt lat="49.338788" lon="9.261968">
<ele>347.0</ele>
<speed>104</speed>
<course>318.0</course>
<desc>Speed 104 km/h Distance 57.43 km</desc>
<time>2011-03-24T16:03:29.72</time>
<name>2438</name>
</trkpt>
<trkpt lat="49.339207" lon="9.261390">
<ele>360.5</ele>
<speed>111</speed>
<course>315.7</course>
<desc>Speed 111 km/h Distance 57.49 km</desc>
<time>2011-03-24T16:03:31.72</time>
<name>2439</name>
</trkpt>
<trkpt lat="49.339413" lon="9.261080">
<ele>360.5</ele>
<speed>112</speed>
<course>316.6</course>
<desc>Speed 112 km/h Distance 57.52 km</desc>
<time>2011-03-24T16:03:32.72</time>
<name>2440</name>
</trkpt>
<trkpt lat="49.339862" lon="9.260430">
<ele>356.5</ele>
<speed>131</speed>
<course>319.4</course>
<desc>Speed 131 km/h Distance 57.59 km</desc>
<time>2011-03-24T16:03:34.71</time>
<name>2441</name>
</trkpt>
<trkpt lat="49.340508" lon="9.259578">
<ele>336.0</ele>
<speed>131</speed>
<course>333.4</course>
<desc>Speed 131 km/h Distance 57.68 km</desc>
<time>2011-03-24T16:03:39.71</time>
<name>2442</name>
</trkpt>
<trkpt lat="49.341168" lon="9.259072">
<ele>333.0</ele>
<speed>120</speed>
<course>351.7</course>
<desc>Speed 120 km/h Distance 57.77 km</desc>
<time>2011-03-24T16:03:45.71</time>
<name>2443</name>
</trkpt>
<trkpt lat="49.341802" lon="9.258930">
<ele>330.5</ele>
<speed>120</speed>
<course>356.0</course>
<desc>Speed 120 km/h Distance 57.84 km</desc>
<time>2011-03-24T16:03:47.71</time>
<name>2444</name>
</trkpt>
<trkpt lat="49.342392" lon="9.258867">
<ele>329.0</ele>
<speed>120</speed>
<course>341.3</course>
<desc>Speed 120 km/h Distance 57.90 km</desc>
<time>2011-03-24T16:03:50.71</time>
<name>2445</name>
</trkpt>
<trkpt lat="49.343003" lon="9.258548">
<ele>317.0</ele>
<speed>120</speed>
<course>3.6</course>
<desc>Speed 120 km/h Distance 57.98 km</desc>
<time>2011-03-24T16:03:55.71</time>
<name>2446</name>
</trkpt>
<trkpt lat="49.343678" lon="9.258613">
<ele>313.5</ele>
<speed>96.9</speed>
<course>17.1</course>
<desc>Speed 96.9 km/h Distance 58.05 km</desc>
<time>2011-03-24T16:03:59.70</time>
<name>2447</name>
</trkpt>
<trkpt lat="49.343887" lon="9.258712">
<ele>312.0</ele>
<speed>96.9</speed>
<course>10.4</course>
<desc>Speed 96.9 km/h Distance 58.08 km</desc>
<time>2011-03-24T16:04:00.70</time>
<name>2448</name>
</trkpt>
<trkpt lat="49.344800" lon="9.258968">
<ele>306.0</ele>
<speed>93.0</speed>
<course>9.0</course>
<desc>Speed 93.0 km/h Distance 58.18 km</desc>
<time>2011-03-24T16:04:03.70</time>
<name>2449</name>
</trkpt>
<trkpt lat="49.345348" lon="9.259102">
<ele>304.0</ele>
<speed>84.0</speed>
<course>7.5</course>
<desc>Speed 84.0 km/h Distance 58.24 km</desc>
<time>2011-03-24T16:04:05.70</time>
<name>2450</name>
</trkpt>
<trkpt lat="49.347007" lon="9.259437">
<ele>312.0</ele>
<speed>72.1</speed>
<course>14.2</course>
<desc>Speed 72.1 km/h Distance 58.43 km</desc>
<time>2011-03-24T16:04:10.69</time>
<name>2451</name>
</trkpt>
<trkpt lat="49.347217" lon="9.259518">
<ele>310.5</ele>
<speed>75.2</speed>
<course>24.9</course>
<desc>Speed 75.2 km/h Distance 58.45 km</desc>
<time>2011-03-24T16:04:11.70</time>
<name>2452</name>
</trkpt>
<trkpt lat="49.347640" lon="9.259820">
<ele>306.5</ele>
<speed>49.4</speed>
<course>353.1</course>
<desc>Speed 49.4 km/h Distance 58.50 km</desc>
<time>2011-03-24T16:04:13.69</time>
<name>2453</name>
</trkpt>
<trkpt lat="49.348505" lon="9.259658">
<ele>306.5</ele>
<speed>52.4</speed>
<course>327.7</course>
<desc>Speed 52.4 km/h Distance 58.60 km</desc>
<time>2011-03-24T16:04:17.69</time>
<name>2454</name>
</trkpt>
<trkpt lat="49.348618" lon="9.259548">
<ele>304.5</ele>
<speed>47.8</speed>
<course>354.6</course>
<desc>Speed 47.8 km/h Distance 58.61 km</desc>
<time>2011-03-24T16:04:18.69</time>
<name>2455</name>
</trkpt>
<trkpt lat="49.348767" lon="9.259527">
<ele>303.5</ele>
<speed>43.7</speed>
<course>5.1</course>
<desc>Speed 43.7 km/h Distance 58.63 km</desc>
<time>2011-03-24T16:04:19.69</time>
<name>2456</name>
</trkpt>
<trkpt lat="49.349120" lon="9.259575">
<ele>302.5</ele>
<speed>59.0</speed>
<course>20.2</course>
<desc>Speed 59.0 km/h Distance 58.67 km</desc>
<time>2011-03-24T16:04:21.69</time>
<name>2457</name>
</trkpt>
<trkpt lat="49.349250" lon="9.259648">
<ele>303.0</ele>
<speed>54.1</speed>
<course>14.0</course>
<desc>Speed 54.1 km/h Distance 58.69 km</desc>
<time>2011-03-24T16:04:22.70</time>
<name>2458</name>
</trkpt>
<trkpt lat="49.349372" lon="9.259695">
<ele>303.0</ele>
<speed>44.4</speed>
<course>355.8</course>
<desc>Speed 44.4 km/h Distance 58.70 km</desc>
<time>2011-03-24T16:04:23.69</time>
<name>2459</name>
</trkpt>
<trkpt lat="49.349505" lon="9.259680">
<ele>304.0</ele>
<speed>40.8</speed>
<course>338.7</course>
<desc>Speed 40.8 km/h Distance 58.71 km</desc>
<time>2011-03-24T16:04:24.69</time>
<name>2460</name>
</trkpt>
<trkpt lat="49.349617" lon="9.259613">
<ele>304.0</ele>
<speed>45.1</speed>
<course>316.5</course>
<desc>Speed 45.1 km/h Distance 58.73 km</desc>
<time>2011-03-24T16:04:25.69</time>
<name>2461</name>
</trkpt>
<trkpt lat="49.349712" lon="9.259475">
<ele>303.0</ele>
<speed>47.9</speed>
<course>280.3</course>
<desc>Speed 47.9 km/h Distance 58.74 km</desc>
<time>2011-03-24T16:04:26.69</time>
<name>2462</name>
</trkpt>
<trkpt lat="49.349732" lon="9.259307">
<ele>303.5</ele>
<speed>43.2</speed>
<course>292.7</course>
<desc>Speed 43.2 km/h Distance 58.76 km</desc>
<time>2011-03-24T16:04:27.69</time>
<name>2463</name>
</trkpt>
<trkpt lat="49.349772" lon="9.259160">
<ele>303.5</ele>
<speed>39.7</speed>
<course>261.4</course>
<desc>Speed 39.7 km/h Distance 58.77 km</desc>
<time>2011-03-24T16:04:28.69</time>
<name>2464</name>
</trkpt>
<trkpt lat="49.349755" lon="9.258990">
<ele>303.0</ele>
<speed>52.2</speed>
<course>243.0</course>
<desc>Speed 52.2 km/h Distance 58.78 km</desc>
<time>2011-03-24T16:04:29.69</time>
<name>2465</name>
</trkpt>
<trkpt lat="49.349603" lon="9.258533">
<ele>302.0</ele>
<speed>77.5</speed>
<course>248.2</course>
<desc>Speed 77.5 km/h Distance 58.82 km</desc>
<time>2011-03-24T16:04:31.69</time>
<name>2466</name>
</trkpt>
<trkpt lat="49.349540" lon="9.258290">
<ele>299.5</ele>
<speed>86.2</speed>
<course>187.0</course>
<desc>Speed 86.2 km/h Distance 58.84 km</desc>
<time>2011-03-24T16:04:32.68</time>
<name>2467</name>
</trkpt>
<trkpt lat="49.349092" lon="9.258205">
<ele>298.0</ele>
<speed>43.7</speed>
<course>239.0</course>
<desc>Speed 43.7 km/h Distance 58.89 km</desc>
<time>2011-03-24T16:04:36.68</time>
<name>2468</name>
</trkpt>
<trkpt lat="49.349020" lon="9.258022">
<ele>294.5</ele>
<speed>38.5</speed>
<course>227.9</course>
<desc>Speed 38.5 km/h Distance 58.90 km</desc>
<time>2011-03-24T16:04:38.68</time>
<name>2469</name>
</trkpt>
<trkpt lat="49.348965" lon="9.257928">
<ele>294.5</ele>
<speed>39.5</speed>
<course>212.6</course>
<desc>Speed 39.5 km/h Distance 58.91 km</desc>
<time>2011-03-24T16:04:39.68</time>
<name>2470</name>
</trkpt>
<trkpt lat="49.348868" lon="9.257833">
<ele>293.5</ele>
<speed>46.4</speed>
<course>188.9</course>
<desc>Speed 46.4 km/h Distance 58.92 km</desc>
<time>2011-03-24T16:04:40.67</time>
<name>2471</name>
</trkpt>
<trkpt lat="49.348785" lon="9.257813">
<ele>292.5</ele>
<speed>41.8</speed>
<course>193.5</course>
<desc>Speed 41.8 km/h Distance 58.93 km</desc>
<time>2011-03-24T16:04:41.68</time>
<name>2472</name>
</trkpt>
<trkpt lat="49.348672" lon="9.257772">
<ele>291.5</ele>
<speed>47.1</speed>
<course>191.9</course>
<desc>Speed 47.1 km/h Distance 58.95 km</desc>
<time>2011-03-24T16:04:42.68</time>
<name>2473</name>
</trkpt>
<trkpt lat="49.348388" lon="9.257680">
<ele>293.0</ele>
<speed>51.8</speed>
<course>191.6</course>
<desc>Speed 51.8 km/h Distance 58.98 km</desc>
<time>2011-03-24T16:04:44.67</time>
<name>2474</name>
</trkpt>
<trkpt lat="49.348262" lon="9.257640">
<ele>293.0</ele>
<speed>53.6</speed>
<course>190.0</course>
<desc>Speed 53.6 km/h Distance 58.99 km</desc>
<time>2011-03-24T16:04:45.67</time>
<name>2475</name>
</trkpt>
<trkpt lat="49.348138" lon="9.257607">
<ele>293.0</ele>
<speed>54.0</speed>
<course>195.9</course>
<desc>Speed 54.0 km/h Distance 59.01 km</desc>
<time>2011-03-24T16:04:46.68</time>
<name>2476</name>
</trkpt>
<trkpt lat="49.348008" lon="9.257550">
<ele>293.0</ele>
<speed>55.7</speed>
<course>191.2</course>
<desc>Speed 55.7 km/h Distance 59.02 km</desc>
<time>2011-03-24T16:04:47.68</time>
<name>2477</name>
</trkpt>
<trkpt lat="49.347893" lon="9.257515">
<ele>292.0</ele>
<speed>48.7</speed>
<course>192.4</course>
<desc>Speed 48.7 km/h Distance 59.03 km</desc>
<time>2011-03-24T16:04:48.68</time>
<name>2478</name>
</trkpt>
<trkpt lat="49.347785" lon="9.257478">
<ele>292.5</ele>
<speed>45.3</speed>
<course>189.7</course>
<desc>Speed 45.3 km/h Distance 59.05 km</desc>
<time>2011-03-24T16:04:49.68</time>
<name>2479</name>
</trkpt>
<trkpt lat="49.347690" lon="9.257453">
<ele>292.5</ele>
<speed>38.5</speed>
<course>198.3</course>
<desc>Speed 38.5 km/h Distance 59.06 km</desc>
<time>2011-03-24T16:04:50.68</time>
<name>2480</name>
</trkpt>
<trkpt lat="49.347592" lon="9.257403">
<ele>292.5</ele>
<speed>40.9</speed>
<course>195.3</course>
<desc>Speed 40.9 km/h Distance 59.07 km</desc>
<time>2011-03-24T16:04:51.67</time>
<name>2481</name>
</trkpt>
<trkpt lat="49.347497" lon="9.257363">
<ele>292.5</ele>
<speed>38.2</speed>
<course>196.8</course>
<desc>Speed 38.2 km/h Distance 59.08 km</desc>
<time>2011-03-24T16:04:52.68</time>
<name>2482</name>
</trkpt>
<trkpt lat="49.347403" lon="9.257320">
<ele>293.0</ele>
<speed>39.8</speed>
<course>200.7</course>
<desc>Speed 39.8 km/h Distance 59.09 km</desc>
<time>2011-03-24T16:04:53.68</time>
<name>2483</name>
</trkpt>
<trkpt lat="49.347320" lon="9.257272">
<ele>292.0</ele>
<speed>37.5</speed>
<course>215.0</course>
<desc>Speed 37.5 km/h Distance 59.10 km</desc>
<time>2011-03-24T16:04:54.67</time>
<name>2484</name>
</trkpt>
<trkpt lat="49.347253" lon="9.257200">
<ele>291.0</ele>
<speed>35.7</speed>
<course>223.3</course>
<desc>Speed 35.7 km/h Distance 59.11 km</desc>
<time>2011-03-24T16:04:55.68</time>
<name>2485</name>
</trkpt>
<trkpt lat="49.347178" lon="9.257092">
<ele>289.5</ele>
<speed>44.2</speed>
<course>226.1</course>
<desc>Speed 44.2 km/h Distance 59.12 km</desc>
<time>2011-03-24T16:04:56.66</time>
<name>2486</name>
</trkpt>
<trkpt lat="49.347117" lon="9.256993">
<ele>289.0</ele>
<speed>44.2</speed>
<course>230.3</course>
<desc>Speed 44.2 km/h Distance 59.13 km</desc>
<time>2011-03-24T16:04:57.67</time>
<name>2487</name>
</trkpt>
<trkpt lat="49.347052" lon="9.256873">
<ele>289.5</ele>
<speed>41.6</speed>
<course>246.2</course>
<desc>Speed 41.6 km/h Distance 59.14 km</desc>
<time>2011-03-24T16:04:58.67</time>
<name>2488</name>
</trkpt>
<trkpt lat="49.347017" lon="9.256752">
<ele>289.0</ele>
<speed>41.6</speed>
<course>298.1</course>
<desc>Speed 41.6 km/h Distance 59.15 km</desc>
<time>2011-03-24T16:04:59.67</time>
<name>2489</name>
</trkpt>
<trkpt lat="49.347072" lon="9.256593">
<ele>290.0</ele>
<speed>37.5</speed>
<course>297.9</course>
<desc>Speed 37.5 km/h Distance 59.16 km</desc>
<time>2011-03-24T16:05:00.67</time>
<name>2490</name>
</trkpt>
<trkpt lat="49.347107" lon="9.256492">
<ele>289.0</ele>
<speed>27.6</speed>
<course>325.7</course>
<desc>Speed 27.6 km/h Distance 59.17 km</desc>
<time>2011-03-24T16:05:01.67</time>
<name>2491</name>
</trkpt>
<trkpt lat="49.347142" lon="9.256455">
<ele>289.0</ele>
<speed>14.9</speed>
<course>304.6</course>
<desc>Speed 14.9 km/h Distance 59.18 km</desc>
<time>2011-03-24T16:05:02.66</time>
<name>2492</name>
</trkpt>
<trkpt lat="49.347172" lon="9.256388">
<ele>289.0</ele>
<speed>18.6</speed>
<course>301.6</course>
<desc>Speed 18.6 km/h Distance 59.18 km</desc>
<time>2011-03-24T16:05:03.66</time>
<name>2493</name>
</trkpt>
<trkpt lat="49.347195" lon="9.256330">
<ele>289.0</ele>
<speed>16.8</speed>
<course>300.8</course>
<desc>Speed 16.8 km/h Distance 59.19 km</desc>
<time>2011-03-24T16:05:04.66</time>
<name>2494</name>
</trkpt>
<trkpt lat="49.347218" lon="9.256270">
<ele>289.5</ele>
<speed>16.7</speed>
<course>297.5</course>
<desc>Speed 16.7 km/h Distance 59.19 km</desc>
<time>2011-03-24T16:05:05.66</time>
<name>2495</name>
</trkpt>
<trkpt lat="49.347252" lon="9.256172">
<ele>290.0</ele>
<speed>27.0</speed>
<course>308.9</course>
<desc>Speed 27.0 km/h Distance 59.20 km</desc>
<time>2011-03-24T16:05:06.67</time>
<name>2496</name>
</trkpt>
<trkpt lat="49.347303" lon="9.256073">
<ele>290.0</ele>
<speed>32.1</speed>
<course>318.5</course>
<desc>Speed 32.1 km/h Distance 59.21 km</desc>
<time>2011-03-24T16:05:07.67</time>
<name>2497</name>
</trkpt>
<trkpt lat="49.347373" lon="9.255978">
<ele>289.5</ele>
<speed>34.3</speed>
<course>314.9</course>
<desc>Speed 34.3 km/h Distance 59.22 km</desc>
<time>2011-03-24T16:05:08.67</time>
<name>2498</name>
</trkpt>
<trkpt lat="49.347432" lon="9.255888">
<ele>289.5</ele>
<speed>34.3</speed>
<course>301.5</course>
<desc>Speed 34.3 km/h Distance 59.23 km</desc>
<time>2011-03-24T16:05:09.67</time>
<name>2499</name>
</trkpt>
<trkpt lat="49.347488" lon="9.255747">
<ele>289.5</ele>
<speed>40.9</speed>
<course>302.0</course>
<desc>Speed 40.9 km/h Distance 59.24 km</desc>
<time>2011-03-24T16:05:10.66</time>
<name>2500</name>
</trkpt>
<trkpt lat="49.347543" lon="9.255612">
<ele>289.5</ele>
<speed>40.6</speed>
<course>298.2</course>
<desc>Speed 40.6 km/h Distance 59.25 km</desc>
<time>2011-03-24T16:05:11.66</time>
<name>2501</name>
</trkpt>
<trkpt lat="49.347593" lon="9.255468">
<ele>289.5</ele>
<speed>41.4</speed>
<course>291.6</course>
<desc>Speed 41.4 km/h Distance 59.27 km</desc>
<time>2011-03-24T16:05:12.66</time>
<name>2502</name>
</trkpt>
<trkpt lat="49.347633" lon="9.255313">
<ele>290.0</ele>
<speed>42.0</speed>
<course>287.2</course>
<desc>Speed 42.0 km/h Distance 59.28 km</desc>
<time>2011-03-24T16:05:13.66</time>
<name>2503</name>
</trkpt>
<trkpt lat="49.347665" lon="9.255157">
<ele>290.5</ele>
<speed>41.4</speed>
<course>280.2</course>
<desc>Speed 41.4 km/h Distance 59.29 km</desc>
<time>2011-03-24T16:05:14.65</time>
<name>2504</name>
</trkpt>
<trkpt lat="49.347683" lon="9.255000">
<ele>290.5</ele>
<speed>40.6</speed>
<course>264.2</course>
<desc>Speed 40.6 km/h Distance 59.30 km</desc>
<time>2011-03-24T16:05:15.65</time>
<name>2505</name>
</trkpt>
<trkpt lat="49.347673" lon="9.254850">
<ele>290.5</ele>
<speed>38.9</speed>
<course>260.4</course>
<desc>Speed 38.9 km/h Distance 59.31 km</desc>
<time>2011-03-24T16:05:16.65</time>
<name>2506</name>
</trkpt>
<trkpt lat="49.347657" lon="9.254698">
<ele>290.5</ele>
<speed>39.7</speed>
<course>254.6</course>
<desc>Speed 39.7 km/h Distance 59.32 km</desc>
<time>2011-03-24T16:05:17.65</time>
<name>2507</name>
</trkpt>
<trkpt lat="49.347630" lon="9.254550">
<ele>290.5</ele>
<speed>39.9</speed>
<course>248.8</course>
<desc>Speed 39.9 km/h Distance 59.33 km</desc>
<time>2011-03-24T16:05:18.65</time>
<name>2508</name>
</trkpt>
<trkpt lat="49.347595" lon="9.254412">
<ele>290.5</ele>
<speed>38.5</speed>
<course>235.4</course>
<desc>Speed 38.5 km/h Distance 59.35 km</desc>
<time>2011-03-24T16:05:19.65</time>
<name>2509</name>
</trkpt>
<trkpt lat="49.347535" lon="9.254278">
<ele>290.5</ele>
<speed>41.8</speed>
<course>230.4</course>
<desc>Speed 41.8 km/h Distance 59.36 km</desc>
<time>2011-03-24T16:05:20.65</time>
<name>2510</name>
</trkpt>
<trkpt lat="49.347467" lon="9.254152">
<ele>290.5</ele>
<speed>42.7</speed>
<course>231.0</course>
<desc>Speed 42.7 km/h Distance 59.37 km</desc>
<time>2011-03-24T16:05:21.66</time>
<name>2511</name>
</trkpt>
<trkpt lat="49.347403" lon="9.254032">
<ele>290.5</ele>
<speed>40.1</speed>
<course>232.0</course>
<desc>Speed 40.1 km/h Distance 59.38 km</desc>
<time>2011-03-24T16:05:22.65</time>
<name>2512</name>
</trkpt>
<trkpt lat="49.347353" lon="9.253933">
<ele>290.5</ele>
<speed>40.1</speed>
<course>238.5</course>
<desc>Speed 40.1 km/h Distance 59.39 km</desc>
<time>2011-03-24T16:05:23.65</time>
<name>2513</name>
</trkpt>
<trkpt lat="49.347297" lon="9.253792">
<ele>290.5</ele>
<speed>44.1</speed>
<course>252.6</course>
<desc>Speed 44.1 km/h Distance 59.40 km</desc>
<time>2011-03-24T16:05:24.66</time>
<name>2514</name>
</trkpt>
<trkpt lat="49.347263" lon="9.253628">
<ele>290.5</ele>
<speed>44.0</speed>
<course>268.4</course>
<desc>Speed 44.0 km/h Distance 59.41 km</desc>
<time>2011-03-24T16:05:25.65</time>
<name>2515</name>
</trkpt>
<trkpt lat="49.347260" lon="9.253442">
<ele>290.0</ele>
<speed>46.9</speed>
<course>280.3</course>
<desc>Speed 46.9 km/h Distance 59.43 km</desc>
<time>2011-03-24T16:05:26.65</time>
<name>2516</name>
</trkpt>
<trkpt lat="49.347282" lon="9.253258">
<ele>289.5</ele>
<speed>46.6</speed>
<course>281.0</course>
<desc>Speed 46.6 km/h Distance 59.44 km</desc>
<time>2011-03-24T16:05:27.64</time>
<name>2517</name>
</trkpt>
<trkpt lat="49.347303" lon="9.253087">
<ele>289.5</ele>
<speed>44.8</speed>
<course>293.4</course>
<desc>Speed 44.8 km/h Distance 59.45 km</desc>
<time>2011-03-24T16:05:28.65</time>
<name>2518</name>
</trkpt>
<trkpt lat="49.347348" lon="9.252927">
<ele>290.0</ele>
<speed>44.7</speed>
<course>302.9</course>
<desc>Speed 44.7 km/h Distance 59.47 km</desc>
<time>2011-03-24T16:05:29.65</time>
<name>2519</name>
</trkpt>
<trkpt lat="49.347415" lon="9.252768">
<ele>290.0</ele>
<speed>49.1</speed>
<course>309.1</course>
<desc>Speed 49.1 km/h Distance 59.48 km</desc>
<time>2011-03-24T16:05:30.65</time>
<name>2520</name>
</trkpt>
<trkpt lat="49.347492" lon="9.252623">
<ele>289.5</ele>
<speed>50.7</speed>
<course>306.6</course>
<desc>Speed 50.7 km/h Distance 59.49 km</desc>
<time>2011-03-24T16:05:31.65</time>
<name>2521</name>
</trkpt>
<trkpt lat="49.347567" lon="9.252468">
<ele>289.5</ele>
<speed>50.0</speed>
<course>309.0</course>
<desc>Speed 50.0 km/h Distance 59.51 km</desc>
<time>2011-03-24T16:05:32.65</time>
<name>2522</name>
</trkpt>
<trkpt lat="49.347645" lon="9.252320">
<ele>289.5</ele>
<speed>48.9</speed>
<course>308.4</course>
<desc>Speed 48.9 km/h Distance 59.52 km</desc>
<time>2011-03-24T16:05:33.64</time>
<name>2523</name>
</trkpt>
<trkpt lat="49.347722" lon="9.252172">
<ele>289.5</ele>
<speed>48.5</speed>
<course>309.1</course>
<desc>Speed 48.5 km/h Distance 59.54 km</desc>
<time>2011-03-24T16:05:34.65</time>
<name>2524</name>
</trkpt>
<trkpt lat="49.347797" lon="9.252030">
<ele>289.5</ele>
<speed>47.6</speed>
<course>305.3</course>
<desc>Speed 47.6 km/h Distance 59.55 km</desc>
<time>2011-03-24T16:05:35.65</time>
<name>2525</name>
</trkpt>
<trkpt lat="49.347865" lon="9.251882">
<ele>290.0</ele>
<speed>47.4</speed>
<course>303.8</course>
<desc>Speed 47.4 km/h Distance 59.56 km</desc>
<time>2011-03-24T16:05:36.65</time>
<name>2526</name>
</trkpt>
<trkpt lat="49.347928" lon="9.251737">
<ele>291.0</ele>
<speed>45.8</speed>
<course>308.2</course>
<desc>Speed 45.8 km/h Distance 59.57 km</desc>
<time>2011-03-24T16:05:37.64</time>
<name>2527</name>
</trkpt>
<trkpt lat="49.347995" lon="9.251607">
<ele>291.0</ele>
<speed>43.4</speed>
<course>307.9</course>
<desc>Speed 43.4 km/h Distance 59.59 km</desc>
<time>2011-03-24T16:05:38.64</time>
<name>2528</name>
</trkpt>
<trkpt lat="49.348058" lon="9.251482">
<ele>291.0</ele>
<speed>41.4</speed>
<course>308.7</course>
<desc>Speed 41.4 km/h Distance 59.60 km</desc>
<time>2011-03-24T16:05:39.64</time>
<name>2529</name>
</trkpt>
<trkpt lat="49.348118" lon="9.251367">
<ele>291.0</ele>
<speed>38.8</speed>
<course>297.8</course>
<desc>Speed 38.8 km/h Distance 59.61 km</desc>
<time>2011-03-24T16:05:40.63</time>
<name>2530</name>
</trkpt>
<trkpt lat="49.348157" lon="9.251255">
<ele>291.0</ele>
<speed>33.0</speed>
<course>313.2</course>
<desc>Speed 33.0 km/h Distance 59.62 km</desc>
<time>2011-03-24T16:05:41.64</time>
<name>2531</name>
</trkpt>
<trkpt lat="49.348193" lon="9.251195">
<ele>291.0</ele>
<speed>21.9</speed>
<course>306.3</course>
<desc>Speed 21.9 km/h Distance 59.62 km</desc>
<time>2011-03-24T16:05:42.63</time>
<name>2532</name>
</trkpt>
<trkpt lat="49.348230" lon="9.251118">
<ele>291.0</ele>
<speed>25.1</speed>
<course>302.1</course>
<desc>Speed 25.1 km/h Distance 59.63 km</desc>
<time>2011-03-24T16:05:43.64</time>
<name>2533</name>
</trkpt>
<trkpt lat="49.348260" lon="9.251045">
<ele>291.0</ele>
<speed>22.8</speed>
<course>301.3</course>
<desc>Speed 22.8 km/h Distance 59.64 km</desc>
<time>2011-03-24T16:05:44.63</time>
<name>2534</name>
</trkpt>
<trkpt lat="49.348288" lon="9.250973">
<ele>291.5</ele>
<speed>21.3</speed>
<course>304.9</course>
<desc>Speed 21.3 km/h Distance 59.64 km</desc>
<time>2011-03-24T16:05:45.64</time>
<name>2535</name>
</trkpt>
<trkpt lat="49.348322" lon="9.250900">
<ele>291.5</ele>
<speed>23.1</speed>
<course>303.2</course>
<desc>Speed 23.1 km/h Distance 59.65 km</desc>
<time>2011-03-24T16:05:46.63</time>
<name>2536</name>
</trkpt>
<trkpt lat="49.348360" lon="9.250810">
<ele>291.5</ele>
<speed>27.8</speed>
<course>305.2</course>
<desc>Speed 27.8 km/h Distance 59.66 km</desc>
<time>2011-03-24T16:05:47.64</time>
<name>2537</name>
</trkpt>
<trkpt lat="49.348407" lon="9.250708">
<ele>291.5</ele>
<speed>32.5</speed>
<course>301.2</course>
<desc>Speed 32.5 km/h Distance 59.67 km</desc>
<time>2011-03-24T16:05:48.64</time>
<name>2538</name>
</trkpt>
<trkpt lat="49.348460" lon="9.250573">
<ele>291.5</ele>
<speed>40.3</speed>
<course>302.7</course>
<desc>Speed 40.3 km/h Distance 59.68 km</desc>
<time>2011-03-24T16:05:49.64</time>
<name>2539</name>
</trkpt>
<trkpt lat="49.348515" lon="9.250442">
<ele>290.0</ele>
<speed>40.1</speed>
<course>292.7</course>
<desc>Speed 40.1 km/h Distance 59.69 km</desc>
<time>2011-03-24T16:05:50.64</time>
<name>2540</name>
</trkpt>
<trkpt lat="49.348555" lon="9.250295">
<ele>290.5</ele>
<speed>40.7</speed>
<course>290.8</course>
<desc>Speed 40.7 km/h Distance 59.70 km</desc>
<time>2011-03-24T16:05:51.64</time>
<name>2541</name>
</trkpt>
<trkpt lat="49.348593" lon="9.250140">
<ele>291.0</ele>
<speed>43.3</speed>
<course>292.8</course>
<desc>Speed 43.3 km/h Distance 59.71 km</desc>
<time>2011-03-24T16:05:52.63</time>
<name>2542</name>
</trkpt>
<trkpt lat="49.348642" lon="9.249963">
<ele>290.5</ele>
<speed>49.9</speed>
<course>288.6</course>
<desc>Speed 49.9 km/h Distance 59.73 km</desc>
<time>2011-03-24T16:05:53.63</time>
<name>2543</name>
</trkpt>
<trkpt lat="49.348683" lon="9.249773">
<ele>292.0</ele>
<speed>51.9</speed>
<course>292.0</course>
<desc>Speed 51.9 km/h Distance 59.74 km</desc>
<time>2011-03-24T16:05:54.63</time>
<name>2544</name>
</trkpt>
<trkpt lat="49.348735" lon="9.249577">
<ele>292.5</ele>
<speed>54.8</speed>
<course>301.9</course>
<desc>Speed 54.8 km/h Distance 59.76 km</desc>
<time>2011-03-24T16:05:55.64</time>
<name>2545</name>
</trkpt>
<trkpt lat="49.348817" lon="9.249375">
<ele>292.5</ele>
<speed>62.0</speed>
<course>308.9</course>
<desc>Speed 62.0 km/h Distance 59.77 km</desc>
<time>2011-03-24T16:05:56.63</time>
<name>2546</name>
</trkpt>
<trkpt lat="49.348920" lon="9.249178">
<ele>293.0</ele>
<speed>65.4</speed>
<course>307.0</course>
<desc>Speed 65.4 km/h Distance 59.79 km</desc>
<time>2011-03-24T16:05:57.63</time>
<name>2547</name>
</trkpt>
<trkpt lat="49.349013" lon="9.248988">
<ele>294.5</ele>
<speed>62.2</speed>
<course>308.8</course>
<desc>Speed 62.2 km/h Distance 59.81 km</desc>
<time>2011-03-24T16:05:58.63</time>
<name>2548</name>
</trkpt>
<trkpt lat="49.349107" lon="9.248810">
<ele>296.0</ele>
<speed>59.8</speed>
<course>311.4</course>
<desc>Speed 59.8 km/h Distance 59.83 km</desc>
<time>2011-03-24T16:05:59.63</time>
<name>2549</name>
</trkpt>
<trkpt lat="49.349210" lon="9.248630">
<ele>297.5</ele>
<speed>62.2</speed>
<course>312.4</course>
<desc>Speed 62.2 km/h Distance 59.84 km</desc>
<time>2011-03-24T16:06:00.63</time>
<name>2550</name>
</trkpt>
<trkpt lat="49.349315" lon="9.248453">
<ele>298.5</ele>
<speed>62.2</speed>
<course>312.9</course>
<desc>Speed 62.2 km/h Distance 59.86 km</desc>
<time>2011-03-24T16:06:01.63</time>
<name>2551</name>
</trkpt>
<trkpt lat="49.349425" lon="9.248272">
<ele>299.0</ele>
<speed>64.8</speed>
<course>304.8</course>
<desc>Speed 64.8 km/h Distance 59.88 km</desc>
<time>2011-03-24T16:06:02.63</time>
<name>2552</name>
</trkpt>
<trkpt lat="49.349528" lon="9.248043">
<ele>299.0</ele>
<speed>72.9</speed>
<course>303.2</course>
<desc>Speed 72.9 km/h Distance 59.90 km</desc>
<time>2011-03-24T16:06:03.63</time>
<name>2553</name>
</trkpt>
<trkpt lat="49.349610" lon="9.247852">
<ele>299.0</ele>
<speed>72.9</speed>
<course>303.2</course>
<desc>Speed 72.9 km/h Distance 59.92 km</desc>
<time>2011-03-24T16:06:04.64</time>
<name>2554</name>
</trkpt>
<trkpt lat="49.349763" lon="9.247492">
<ele>298.5</ele>
<speed>72.9</speed>
<course>304.1</course>
<desc>Speed 72.9 km/h Distance 59.95 km</desc>
<time>2011-03-24T16:06:06.64</time>
<name>2555</name>
</trkpt>
<trkpt lat="49.350248" lon="9.246392">
<ele>301.5</ele>
<speed>103</speed>
<course>303.0</course>
<desc>Speed 103 km/h Distance 60.04 km</desc>
<time>2011-03-24T16:06:09.63</time>
<name>2556</name>
</trkpt>
<trkpt lat="49.350385" lon="9.246068">
<ele>302.5</ele>
<speed>100.0</speed>
<course>306.0</course>
<desc>Speed 100.0 km/h Distance 60.07 km</desc>
<time>2011-03-24T16:06:10.63</time>
<name>2557</name>
</trkpt>
<trkpt lat="49.350532" lon="9.245758">
<ele>304.5</ele>
<speed>98.1</speed>
<course>310.1</course>
<desc>Speed 98.1 km/h Distance 60.10 km</desc>
<time>2011-03-24T16:06:11.63</time>
<name>2558</name>
</trkpt>
<trkpt lat="49.350698" lon="9.245455">
<ele>305.0</ele>
<speed>101</speed>
<course>312.7</course>
<desc>Speed 101 km/h Distance 60.13 km</desc>
<time>2011-03-24T16:06:12.63</time>
<name>2559</name>
</trkpt>
<trkpt lat="49.350872" lon="9.245167">
<ele>306.5</ele>
<speed>101</speed>
<course>316.0</course>
<desc>Speed 101 km/h Distance 60.16 km</desc>
<time>2011-03-24T16:06:13.62</time>
<name>2560</name>
</trkpt>
<trkpt lat="49.351048" lon="9.244905">
<ele>307.5</ele>
<speed>98.1</speed>
<course>318.2</course>
<desc>Speed 98.1 km/h Distance 60.18 km</desc>
<time>2011-03-24T16:06:14.63</time>
<name>2561</name>
</trkpt>
<trkpt lat="49.351213" lon="9.244678">
<ele>307.5</ele>
<speed>88.9</speed>
<course>317.3</course>
<desc>Speed 88.9 km/h Distance 60.21 km</desc>
<time>2011-03-24T16:06:15.62</time>
<name>2562</name>
</trkpt>
<trkpt lat="49.351497" lon="9.244277">
<ele>309.0</ele>
<speed>79.1</speed>
<course>315.6</course>
<desc>Speed 79.1 km/h Distance 60.25 km</desc>
<time>2011-03-24T16:06:17.63</time>
<name>2563</name>
</trkpt>
<trkpt lat="49.351645" lon="9.244053">
<ele>309.5</ele>
<speed>81.5</speed>
<course>304.5</course>
<desc>Speed 81.5 km/h Distance 60.27 km</desc>
<time>2011-03-24T16:06:18.63</time>
<name>2564</name>
</trkpt>
<trkpt lat="49.351758" lon="9.243800">
<ele>310.5</ele>
<speed>77.6</speed>
<course>297.5</course>
<desc>Speed 77.6 km/h Distance 60.30 km</desc>
<time>2011-03-24T16:06:19.63</time>
<name>2565</name>
</trkpt>
<trkpt lat="49.351852" lon="9.243525">
<ele>312.5</ele>
<speed>78.3</speed>
<course>284.7</course>
<desc>Speed 78.3 km/h Distance 60.32 km</desc>
<time>2011-03-24T16:06:20.62</time>
<name>2566</name>
</trkpt>
<trkpt lat="49.351902" lon="9.243232">
<ele>314.0</ele>
<speed>76.1</speed>
<course>273.9</course>
<desc>Speed 76.1 km/h Distance 60.34 km</desc>
<time>2011-03-24T16:06:21.62</time>
<name>2567</name>
</trkpt>
<trkpt lat="49.351915" lon="9.242932">
<ele>313.5</ele>
<speed>76.1</speed>
<course>267.6</course>
<desc>Speed 76.1 km/h Distance 60.36 km</desc>
<time>2011-03-24T16:06:22.63</time>
<name>2568</name>
</trkpt>
<trkpt lat="49.351907" lon="9.242632">
<ele>313.5</ele>
<speed>78.4</speed>
<course>257.4</course>
<desc>Speed 78.4 km/h Distance 60.38 km</desc>
<time>2011-03-24T16:06:23.62</time>
<name>2569</name>
</trkpt>
<trkpt lat="49.351863" lon="9.242333">
<ele>315.0</ele>
<speed>79.8</speed>
<course>249.0</course>
<desc>Speed 79.8 km/h Distance 60.41 km</desc>
<time>2011-03-24T16:06:24.62</time>
<name>2570</name>
</trkpt>
<trkpt lat="49.351790" lon="9.242040">
<ele>313.5</ele>
<speed>81.7</speed>
<course>242.0</course>
<desc>Speed 81.7 km/h Distance 60.43 km</desc>
<time>2011-03-24T16:06:25.62</time>
<name>2571</name>
</trkpt>
<trkpt lat="49.351687" lon="9.241742">
<ele>314.0</ele>
<speed>88.2</speed>
<course>231.0</course>
<desc>Speed 88.2 km/h Distance 60.45 km</desc>
<time>2011-03-24T16:06:26.61</time>
<name>2572</name>
</trkpt>
<trkpt lat="49.351557" lon="9.241495">
<ele>314.5</ele>
<speed>82.1</speed>
<course>222.5</course>
<desc>Speed 82.1 km/h Distance 60.48 km</desc>
<time>2011-03-24T16:06:27.61</time>
<name>2573</name>
</trkpt>
<trkpt lat="49.351405" lon="9.241282">
<ele>314.5</ele>
<speed>82.5</speed>
<course>218.3</course>
<desc>Speed 82.5 km/h Distance 60.50 km</desc>
<time>2011-03-24T16:06:28.61</time>
<name>2574</name>
</trkpt>
<trkpt lat="49.351097" lon="9.240908">
<ele>317.0</ele>
<speed>81.0</speed>
<course>195.0</course>
<desc>Speed 81.0 km/h Distance 60.54 km</desc>
<time>2011-03-24T16:06:30.62</time>
<name>2575</name>
</trkpt>
<trkpt lat="49.350570" lon="9.240692">
<ele>319.0</ele>
<speed>97.3</speed>
<course>206.3</course>
<desc>Speed 97.3 km/h Distance 60.60 km</desc>
<time>2011-03-24T16:06:32.62</time>
<name>2576</name>
</trkpt>
<trkpt lat="49.350383" lon="9.240550">
<ele>319.0</ele>
<speed>83.2</speed>
<course>214.4</course>
<desc>Speed 83.2 km/h Distance 60.63 km</desc>
<time>2011-03-24T16:06:33.62</time>
<name>2577</name>
</trkpt>
<trkpt lat="49.350217" lon="9.240375">
<ele>319.0</ele>
<speed>81.6</speed>
<course>217.4</course>
<desc>Speed 81.6 km/h Distance 60.65 km</desc>
<time>2011-03-24T16:06:34.62</time>
<name>2578</name>
</trkpt>
<trkpt lat="49.350082" lon="9.240217">
<ele>319.0</ele>
<speed>81.6</speed>
<course>220.2</course>
<desc>Speed 81.6 km/h Distance 60.67 km</desc>
<time>2011-03-24T16:06:35.62</time>
<name>2579</name>
</trkpt>
<trkpt lat="49.349937" lon="9.240028">
<ele>319.0</ele>
<speed>75.5</speed>
<course>260.0</course>
<desc>Speed 75.5 km/h Distance 60.69 km</desc>
<time>2011-03-24T16:06:36.62</time>
<name>2580</name>
</trkpt>
<trkpt lat="49.349853" lon="9.239303">
<ele>321.5</ele>
<speed>89.9</speed>
<course>255.1</course>
<desc>Speed 89.9 km/h Distance 60.74 km</desc>
<time>2011-03-24T16:06:38.61</time>
<name>2581</name>
</trkpt>
<trkpt lat="49.349795" lon="9.238967">
<ele>321.5</ele>
<speed>88.6</speed>
<course>253.5</course>
<desc>Speed 88.6 km/h Distance 60.77 km</desc>
<time>2011-03-24T16:06:39.61</time>
<name>2582</name>
</trkpt>
<trkpt lat="49.349700" lon="9.238475">
<ele>321.5</ele>
<speed>88.6</speed>
<course>227.0</course>
<desc>Speed 88.6 km/h Distance 60.81 km</desc>
<time>2011-03-24T16:06:41.61</time>
<name>2583</name>
</trkpt>
<trkpt lat="49.349483" lon="9.238118">
<ele>321.0</ele>
<speed>63.7</speed>
<course>215.1</course>
<desc>Speed 63.7 km/h Distance 60.84 km</desc>
<time>2011-03-24T16:06:43.61</time>
<name>2584</name>
</trkpt>
<trkpt lat="49.349188" lon="9.237800">
<ele>324.5</ele>
<speed>63.7</speed>
<course>178.1</course>
<desc>Speed 63.7 km/h Distance 60.88 km</desc>
<time>2011-03-24T16:06:45.62</time>
<name>2585</name>
</trkpt>
<trkpt lat="49.348735" lon="9.237823">
<ele>324.5</ele>
<speed>74.2</speed>
<course>196.0</course>
<desc>Speed 74.2 km/h Distance 60.93 km</desc>
<time>2011-03-24T16:06:47.61</time>
<name>2586</name>
</trkpt>
<trkpt lat="49.348542" lon="9.237738">
<ele>325.5</ele>
<speed>70.3</speed>
<course>203.6</course>
<desc>Speed 70.3 km/h Distance 60.95 km</desc>
<time>2011-03-24T16:06:48.61</time>
<name>2587</name>
</trkpt>
<trkpt lat="49.348365" lon="9.237620">
<ele>325.5</ele>
<speed>74.2</speed>
<course>206.0</course>
<desc>Speed 74.2 km/h Distance 60.98 km</desc>
<time>2011-03-24T16:06:49.61</time>
<name>2588</name>
</trkpt>
<trkpt lat="49.348220" lon="9.237512">
<ele>326.0</ele>
<speed>74.2</speed>
<course>221.1</course>
<desc>Speed 74.2 km/h Distance 60.99 km</desc>
<time>2011-03-24T16:06:50.62</time>
<name>2589</name>
</trkpt>
<trkpt lat="49.348063" lon="9.237302">
<ele>326.5</ele>
<speed>84.3</speed>
<course>228.5</course>
<desc>Speed 84.3 km/h Distance 61.02 km</desc>
<time>2011-03-24T16:06:51.61</time>
<name>2590</name>
</trkpt>
<trkpt lat="49.347913" lon="9.237042">
<ele>326.5</ele>
<speed>90.2</speed>
<course>228.3</course>
<desc>Speed 90.2 km/h Distance 61.04 km</desc>
<time>2011-03-24T16:06:52.61</time>
<name>2591</name>
</trkpt>
<trkpt lat="49.347758" lon="9.236775">
<ele>327.0</ele>
<speed>90.1</speed>
<course>229.4</course>
<desc>Speed 90.1 km/h Distance 61.07 km</desc>
<time>2011-03-24T16:06:53.61</time>
<name>2592</name>
</trkpt>
<trkpt lat="49.347608" lon="9.236507">
<ele>327.0</ele>
<speed>89.4</speed>
<course>226.3</course>
<desc>Speed 89.4 km/h Distance 61.09 km</desc>
<time>2011-03-24T16:06:54.60</time>
<name>2593</name>
</trkpt>
<trkpt lat="49.347335" lon="9.236068">
<ele>327.5</ele>
<speed>83.5</speed>
<course>227.4</course>
<desc>Speed 83.5 km/h Distance 61.14 km</desc>
<time>2011-03-24T16:06:56.61</time>
<name>2594</name>
</trkpt>
<trkpt lat="49.347185" lon="9.235818">
<ele>328.5</ele>
<speed>85.1</speed>
<course>226.0</course>
<desc>Speed 85.1 km/h Distance 61.16 km</desc>
<time>2011-03-24T16:06:57.61</time>
<name>2595</name>
</trkpt>
<trkpt lat="49.347038" lon="9.235585">
<ele>327.0</ele>
<speed>82.1</speed>
<course>233.7</course>
<desc>Speed 82.1 km/h Distance 61.19 km</desc>
<time>2011-03-24T16:06:58.61</time>
<name>2596</name>
</trkpt>
<trkpt lat="49.346925" lon="9.235348">
<ele>327.5</ele>
<speed>76.8</speed>
<course>242.2</course>
<desc>Speed 76.8 km/h Distance 61.21 km</desc>
<time>2011-03-24T16:06:59.60</time>
<name>2597</name>
</trkpt>
<trkpt lat="49.346828" lon="9.235067">
<ele>327.5</ele>
<speed>83.6</speed>
<course>244.3</course>
<desc>Speed 83.6 km/h Distance 61.23 km</desc>
<time>2011-03-24T16:07:00.61</time>
<name>2598</name>
</trkpt>
<trkpt lat="49.346695" lon="9.234642">
<ele>327.5</ele>
<speed>83.6</speed>
<course>265.1</course>
<desc>Speed 83.6 km/h Distance 61.26 km</desc>
<time>2011-03-24T16:07:02.60</time>
<name>2599</name>
</trkpt>
<trkpt lat="49.346678" lon="9.234342">
<ele>327.5</ele>
<speed>77.7</speed>
<course>278.2</course>
<desc>Speed 77.7 km/h Distance 61.29 km</desc>
<time>2011-03-24T16:07:03.60</time>
<name>2600</name>
</trkpt>
<trkpt lat="49.346800" lon="9.233047">
<ele>328.5</ele>
<speed>108</speed>
<course>272.4</course>
<desc>Speed 108 km/h Distance 61.38 km</desc>
<time>2011-03-24T16:07:06.59</time>
<name>2601</name>
</trkpt>
<trkpt lat="49.346812" lon="9.232620">
<ele>328.5</ele>
<speed>107</speed>
<course>263.6</course>
<desc>Speed 107 km/h Distance 61.41 km</desc>
<time>2011-03-24T16:07:07.59</time>
<name>2602</name>
</trkpt>
<trkpt lat="49.346780" lon="9.232185">
<ele>328.5</ele>
<speed>114</speed>
<course>265.5</course>
<desc>Speed 114 km/h Distance 61.44 km</desc>
<time>2011-03-24T16:07:08.59</time>
<name>2603</name>
</trkpt>
<trkpt lat="49.346758" lon="9.231765">
<ele>327.0</ele>
<speed>110</speed>
<course>261.1</course>
<desc>Speed 110 km/h Distance 61.47 km</desc>
<time>2011-03-24T16:07:09.60</time>
<name>2604</name>
</trkpt>
<trkpt lat="49.346718" lon="9.231372">
<ele>327.5</ele>
<speed>104</speed>
<course>258.9</course>
<desc>Speed 104 km/h Distance 61.50 km</desc>
<time>2011-03-24T16:07:10.59</time>
<name>2605</name>
</trkpt>
<trkpt lat="49.346663" lon="9.230943">
<ele>328.0</ele>
<speed>102</speed>
<course>252.1</course>
<desc>Speed 102 km/h Distance 61.53 km</desc>
<time>2011-03-24T16:07:11.59</time>
<name>2606</name>
</trkpt>
<trkpt lat="49.346587" lon="9.230580">
<ele>328.5</ele>
<speed>96.3</speed>
<course>253.6</course>
<desc>Speed 96.3 km/h Distance 61.56 km</desc>
<time>2011-03-24T16:07:12.59</time>
<name>2607</name>
</trkpt>
<trkpt lat="49.346528" lon="9.230275">
<ele>328.5</ele>
<speed>96.3</speed>
<course>245.2</course>
<desc>Speed 96.3 km/h Distance 61.59 km</desc>
<time>2011-03-24T16:07:13.60</time>
<name>2608</name>
</trkpt>
<trkpt lat="49.346350" lon="9.229683">
<ele>329.0</ele>
<speed>75.3</speed>
<course>251.9</course>
<desc>Speed 75.3 km/h Distance 61.63 km</desc>
<time>2011-03-24T16:07:15.59</time>
<name>2609</name>
</trkpt>
<trkpt lat="49.346287" lon="9.229387">
<ele>330.0</ele>
<speed>71.8</speed>
<course>258.8</course>
<desc>Speed 71.8 km/h Distance 61.66 km</desc>
<time>2011-03-24T16:07:16.59</time>
<name>2610</name>
</trkpt>
<trkpt lat="49.346252" lon="9.229115">
<ele>330.0</ele>
<speed>69.9</speed>
<course>263.0</course>
<desc>Speed 69.9 km/h Distance 61.68 km</desc>
<time>2011-03-24T16:07:17.58</time>
<name>2611</name>
</trkpt>
<trkpt lat="49.346230" lon="9.228843">
<ele>330.0</ele>
<speed>70.6</speed>
<course>275.9</course>
<desc>Speed 70.6 km/h Distance 61.69 km</desc>
<time>2011-03-24T16:07:18.59</time>
<name>2612</name>
</trkpt>
<trkpt lat="49.346248" lon="9.228570">
<ele>330.0</ele>
<speed>71.2</speed>
<course>283.8</course>
<desc>Speed 71.2 km/h Distance 61.71 km</desc>
<time>2011-03-24T16:07:19.59</time>
<name>2613</name>
</trkpt>
<trkpt lat="49.346292" lon="9.228300">
<ele>330.5</ele>
<speed>72.3</speed>
<course>300.7</course>
<desc>Speed 72.3 km/h Distance 61.74 km</desc>
<time>2011-03-24T16:07:20.59</time>
<name>2614</name>
</trkpt>
<trkpt lat="49.346383" lon="9.228063">
<ele>330.5</ele>
<speed>70.6</speed>
<course>328.6</course>
<desc>Speed 70.6 km/h Distance 61.75 km</desc>
<time>2011-03-24T16:07:21.59</time>
<name>2615</name>
</trkpt>
<trkpt lat="49.346538" lon="9.227918">
<ele>330.5</ele>
<speed>72.1</speed>
<course>344.3</course>
<desc>Speed 72.1 km/h Distance 61.78 km</desc>
<time>2011-03-24T16:07:22.59</time>
<name>2616</name>
</trkpt>
<trkpt lat="49.346723" lon="9.227838">
<ele>332.5</ele>
<speed>75.9</speed>
<course>341.6</course>
<desc>Speed 75.9 km/h Distance 61.80 km</desc>
<time>2011-03-24T16:07:23.59</time>
<name>2617</name>
</trkpt>
<trkpt lat="49.346880" lon="9.227758">
<ele>332.5</ele>
<speed>66.3</speed>
<course>357.3</course>
<desc>Speed 66.3 km/h Distance 61.81 km</desc>
<time>2011-03-24T16:07:24.58</time>
<name>2618</name>
</trkpt>
<trkpt lat="49.347043" lon="9.227747">
<ele>330.5</ele>
<speed>63.8</speed>
<course>352.6</course>
<desc>Speed 63.8 km/h Distance 61.83 km</desc>
<time>2011-03-24T16:07:25.59</time>
<name>2619</name>
</trkpt>
<trkpt lat="49.347202" lon="9.227715">
<ele>331.0</ele>
<speed>63.4</speed>
<course>321.7</course>
<desc>Speed 63.4 km/h Distance 61.85 km</desc>
<time>2011-03-24T16:07:26.58</time>
<name>2620</name>
</trkpt>
<trkpt lat="49.347312" lon="9.227582">
<ele>331.0</ele>
<speed>56.6</speed>
<course>333.8</course>
<desc>Speed 56.6 km/h Distance 61.87 km</desc>
<time>2011-03-24T16:07:27.59</time>
<name>2621</name>
</trkpt>
<trkpt lat="49.347613" lon="9.227353">
<ele>331.0</ele>
<speed>74.5</speed>
<course>317.1</course>
<desc>Speed 74.5 km/h Distance 61.90 km</desc>
<time>2011-03-24T16:07:29.59</time>
<name>2622</name>
</trkpt>
<trkpt lat="49.347870" lon="9.226987">
<ele>330.5</ele>
<speed>58.8</speed>
<course>296.2</course>
<desc>Speed 58.8 km/h Distance 61.94 km</desc>
<time>2011-03-24T16:07:32.58</time>
<name>2623</name>
</trkpt>
<trkpt lat="49.347943" lon="9.226758">
<ele>332.5</ele>
<speed>58.9</speed>
<course>320.9</course>
<desc>Speed 58.9 km/h Distance 61.96 km</desc>
<time>2011-03-24T16:07:33.58</time>
<name>2624</name>
</trkpt>
<trkpt lat="49.348072" lon="9.226598">
<ele>332.0</ele>
<speed>59.3</speed>
<course>326.3</course>
<desc>Speed 59.3 km/h Distance 61.98 km</desc>
<time>2011-03-24T16:07:34.58</time>
<name>2625</name>
</trkpt>
<trkpt lat="49.348203" lon="9.226463">
<ele>332.0</ele>
<speed>61.3</speed>
<course>353.5</course>
<desc>Speed 61.3 km/h Distance 62.00 km</desc>
<time>2011-03-24T16:07:35.57</time>
<name>2626</name>
</trkpt>
<trkpt lat="49.348733" lon="9.226370">
<ele>331.5</ele>
<speed>75.1</speed>
<course>340.3</course>
<desc>Speed 75.1 km/h Distance 62.06 km</desc>
<time>2011-03-24T16:07:38.57</time>
<name>2627</name>
</trkpt>
<trkpt lat="49.348973" lon="9.226238">
<ele>330.5</ele>
<speed>75.1</speed>
<course>329.1</course>
<desc>Speed 75.1 km/h Distance 62.09 km</desc>
<time>2011-03-24T16:07:40.58</time>
<name>2628</name>
</trkpt>
<trkpt lat="49.349238" lon="9.225995">
<ele>329.0</ele>
<speed>75.1</speed>
<course>319.7</course>
<desc>Speed 75.1 km/h Distance 62.12 km</desc>
<time>2011-03-24T16:07:43.57</time>
<name>2629</name>
</trkpt>
<trkpt lat="49.349865" lon="9.225180">
<ele>328.5</ele>
<speed>90.5</speed>
<course>317.2</course>
<desc>Speed 90.5 km/h Distance 62.21 km</desc>
<time>2011-03-24T16:07:46.57</time>
<name>2630</name>
</trkpt>
<trkpt lat="49.350223" lon="9.224670">
<ele>329.5</ele>
<speed>82.1</speed>
<course>332.4</course>
<desc>Speed 82.1 km/h Distance 62.27 km</desc>
<time>2011-03-24T16:07:48.56</time>
<name>2631</name>
</trkpt>
<trkpt lat="49.350418" lon="9.224513">
<ele>329.5</ele>
<speed>87.2</speed>
<course>336.9</course>
<desc>Speed 87.2 km/h Distance 62.29 km</desc>
<time>2011-03-24T16:07:49.56</time>
<name>2632</name>
</trkpt>
<trkpt lat="49.350602" lon="9.224393">
<ele>330.0</ele>
<speed>80.0</speed>
<course>339.0</course>
<desc>Speed 80.0 km/h Distance 62.31 km</desc>
<time>2011-03-24T16:07:50.57</time>
<name>2633</name>
</trkpt>
<trkpt lat="49.350777" lon="9.224290">
<ele>330.0</ele>
<speed>75.1</speed>
<course>338.8</course>
<desc>Speed 75.1 km/h Distance 62.33 km</desc>
<time>2011-03-24T16:07:51.57</time>
<name>2634</name>
</trkpt>
<trkpt lat="49.350945" lon="9.224190">
<ele>330.0</ele>
<speed>72.9</speed>
<course>340.5</course>
<desc>Speed 72.9 km/h Distance 62.35 km</desc>
<time>2011-03-24T16:07:52.56</time>
<name>2635</name>
</trkpt>
<trkpt lat="49.351245" lon="9.224027">
<ele>330.0</ele>
<speed>69.3</speed>
<course>341.0</course>
<desc>Speed 69.3 km/h Distance 62.39 km</desc>
<time>2011-03-24T16:07:54.57</time>
<name>2636</name>
</trkpt>
<trkpt lat="49.351415" lon="9.223937">
<ele>329.5</ele>
<speed>68.3</speed>
<course>331.9</course>
<desc>Speed 68.3 km/h Distance 62.41 km</desc>
<time>2011-03-24T16:07:55.57</time>
<name>2637</name>
</trkpt>
<trkpt lat="49.351675" lon="9.223723">
<ele>329.5</ele>
<speed>55.2</speed>
<course>305.3</course>
<desc>Speed 55.2 km/h Distance 62.44 km</desc>
<time>2011-03-24T16:07:57.56</time>
<name>2638</name>
</trkpt>
<trkpt lat="49.351753" lon="9.223553">
<ele>329.5</ele>
<speed>47.7</speed>
<course>287.8</course>
<desc>Speed 47.7 km/h Distance 62.46 km</desc>
<time>2011-03-24T16:07:58.57</time>
<name>2639</name>
</trkpt>
<trkpt lat="49.351857" lon="9.223060">
<ele>330.5</ele>
<speed>58.0</speed>
<course>296.9</course>
<desc>Speed 58.0 km/h Distance 62.49 km</desc>
<time>2011-03-24T16:08:00.56</time>
<name>2640</name>
</trkpt>
<trkpt lat="49.351928" lon="9.222843">
<ele>331.0</ele>
<speed>58.0</speed>
<course>288.8</course>
<desc>Speed 58.0 km/h Distance 62.51 km</desc>
<time>2011-03-24T16:08:01.57</time>
<name>2641</name>
</trkpt>
<trkpt lat="49.351972" lon="9.222648">
<ele>331.5</ele>
<speed>58.0</speed>
<course>241.4</course>
<desc>Speed 58.0 km/h Distance 62.53 km</desc>
<time>2011-03-24T16:08:02.56</time>
<name>2642</name>
</trkpt>
<trkpt lat="49.351890" lon="9.222418">
<ele>330.5</ele>
<speed>56.6</speed>
<course>243.1</course>
<desc>Speed 56.6 km/h Distance 62.55 km</desc>
<time>2011-03-24T16:08:03.56</time>
<name>2643</name>
</trkpt>
<trkpt lat="49.351828" lon="9.222232">
<ele>331.0</ele>
<speed>52.4</speed>
<course>246.7</course>
<desc>Speed 52.4 km/h Distance 62.56 km</desc>
<time>2011-03-24T16:08:04.56</time>
<name>2644</name>
</trkpt>
<trkpt lat="49.351778" lon="9.222053">
<ele>331.5</ele>
<speed>48.5</speed>
<course>251.4</course>
<desc>Speed 48.5 km/h Distance 62.57 km</desc>
<time>2011-03-24T16:08:05.56</time>
<name>2645</name>
</trkpt>
<trkpt lat="49.351740" lon="9.221878">
<ele>332.5</ele>
<speed>46.4</speed>
<course>246.5</course>
<desc>Speed 46.4 km/h Distance 62.59 km</desc>
<time>2011-03-24T16:08:06.56</time>
<name>2646</name>
</trkpt>
<trkpt lat="49.351690" lon="9.221702">
<ele>333.0</ele>
<speed>49.7</speed>
<course>245.1</course>
<desc>Speed 49.7 km/h Distance 62.60 km</desc>
<time>2011-03-24T16:08:07.56</time>
<name>2647</name>
</trkpt>
<trkpt lat="49.351635" lon="9.221520">
<ele>333.0</ele>
<speed>52.5</speed>
<course>244.9</course>
<desc>Speed 52.5 km/h Distance 62.62 km</desc>
<time>2011-03-24T16:08:08.56</time>
<name>2648</name>
</trkpt>
<trkpt lat="49.351582" lon="9.221345">
<ele>332.5</ele>
<speed>50.0</speed>
<course>242.2</course>
<desc>Speed 50.0 km/h Distance 62.63 km</desc>
<time>2011-03-24T16:08:09.56</time>
<name>2649</name>
</trkpt>
<trkpt lat="49.351527" lon="9.221185">
<ele>332.5</ele>
<speed>47.1</speed>
<course>235.9</course>
<desc>Speed 47.1 km/h Distance 62.64 km</desc>
<time>2011-03-24T16:08:10.56</time>
<name>2650</name>
</trkpt>
<trkpt lat="49.351463" lon="9.221042">
<ele>332.5</ele>
<speed>41.7</speed>
<course>243.2</course>
<desc>Speed 41.7 km/h Distance 62.66 km</desc>
<time>2011-03-24T16:08:11.55</time>
<name>2651</name>
</trkpt>
<trkpt lat="49.351425" lon="9.220925">
<ele>332.5</ele>
<speed>34.7</speed>
<course>270.0</course>
<desc>Speed 34.7 km/h Distance 62.67 km</desc>
<time>2011-03-24T16:08:12.56</time>
<name>2652</name>
</trkpt>
<trkpt lat="49.351425" lon="9.220830">
<ele>332.0</ele>
<speed>23.9</speed>
<course>313.4</course>
<desc>Speed 23.9 km/h Distance 62.67 km</desc>
<time>2011-03-24T16:08:13.55</time>
<name>2653</name>
</trkpt>
<trkpt lat="49.351465" lon="9.220765">
<ele>332.0</ele>
<speed>21.7</speed>
<course>299.7</course>
<desc>Speed 21.7 km/h Distance 62.68 km</desc>
<time>2011-03-24T16:08:14.55</time>
<name>2654</name>
</trkpt>
<trkpt lat="49.351503" lon="9.220662">
<ele>332.0</ele>
<speed>29.6</speed>
<course>292.5</course>
<desc>Speed 29.6 km/h Distance 62.69 km</desc>
<time>2011-03-24T16:08:15.55</time>
<name>2655</name>
</trkpt>
<trkpt lat="49.351527" lon="9.220575">
<ele>332.0</ele>
<speed>29.6</speed>
<course>325.7</course>
<desc>Speed 29.6 km/h Distance 62.69 km</desc>
<time>2011-03-24T16:08:16.56</time>
<name>2656</name>
</trkpt>
<trkpt lat="49.351743" lon="9.220348">
<ele>332.0</ele>
<speed>56.5</speed>
<course>326.8</course>
<desc>Speed 56.5 km/h Distance 62.72 km</desc>
<time>2011-03-24T16:08:18.55</time>
<name>2657</name>
</trkpt>
<trkpt lat="49.352063" lon="9.220027">
<ele>331.5</ele>
<speed>66.3</speed>
<course>325.7</course>
<desc>Speed 66.3 km/h Distance 62.77 km</desc>
<time>2011-03-24T16:08:20.55</time>
<name>2658</name>
</trkpt>
<trkpt lat="49.352208" lon="9.219875">
<ele>331.5</ele>
<speed>64.6</speed>
<course>322.9</course>
<desc>Speed 64.6 km/h Distance 62.79 km</desc>
<time>2011-03-24T16:08:21.55</time>
<name>2659</name>
</trkpt>
<trkpt lat="49.352342" lon="9.219720">
<ele>331.5</ele>
<speed>64.5</speed>
<course>321.6</course>
<desc>Speed 64.5 km/h Distance 62.80 km</desc>
<time>2011-03-24T16:08:22.55</time>
<name>2660</name>
</trkpt>
<trkpt lat="49.352472" lon="9.219562">
<ele>331.0</ele>
<speed>63.5</speed>
<course>318.5</course>
<desc>Speed 63.5 km/h Distance 62.82 km</desc>
<time>2011-03-24T16:08:23.55</time>
<name>2661</name>
</trkpt>
<trkpt lat="49.352593" lon="9.219397">
<ele>331.0</ele>
<speed>62.2</speed>
<course>318.0</course>
<desc>Speed 62.2 km/h Distance 62.84 km</desc>
<time>2011-03-24T16:08:24.55</time>
<name>2662</name>
</trkpt>
<trkpt lat="49.352712" lon="9.219233">
<ele>330.5</ele>
<speed>61.5</speed>
<course>316.9</course>
<desc>Speed 61.5 km/h Distance 62.86 km</desc>
<time>2011-03-24T16:08:25.55</time>
<name>2663</name>
</trkpt>
<trkpt lat="49.352830" lon="9.219063">
<ele>330.0</ele>
<speed>62.6</speed>
<course>312.5</course>
<desc>Speed 62.6 km/h Distance 62.88 km</desc>
<time>2011-03-24T16:08:26.55</time>
<name>2664</name>
</trkpt>
<trkpt lat="49.352938" lon="9.218882">
<ele>330.0</ele>
<speed>63.6</speed>
<course>303.6</course>
<desc>Speed 63.6 km/h Distance 62.89 km</desc>
<time>2011-03-24T16:08:27.55</time>
<name>2665</name>
</trkpt>
<trkpt lat="49.353025" lon="9.218682">
<ele>330.0</ele>
<speed>60.8</speed>
<course>296.7</course>
<desc>Speed 60.8 km/h Distance 62.91 km</desc>
<time>2011-03-24T16:08:28.54</time>
<name>2666</name>
</trkpt>
<trkpt lat="49.353157" lon="9.218280">
<ele>329.5</ele>
<speed>57.1</speed>
<course>283.5</course>
<desc>Speed 57.1 km/h Distance 62.94 km</desc>
<time>2011-03-24T16:08:30.54</time>
<name>2667</name>
</trkpt>
<trkpt lat="49.353225" lon="9.217843">
<ele>329.5</ele>
<speed>57.6</speed>
<course>275.2</course>
<desc>Speed 57.6 km/h Distance 62.98 km</desc>
<time>2011-03-24T16:08:32.54</time>
<name>2668</name>
</trkpt>
<trkpt lat="49.353248" lon="9.217453">
<ele>327.0</ele>
<speed>49.8</speed>
<course>255.1</course>
<desc>Speed 49.8 km/h Distance 63.01 km</desc>
<time>2011-03-24T16:08:34.54</time>
<name>2669</name>
</trkpt>
<trkpt lat="49.353175" lon="9.217032">
<ele>327.5</ele>
<speed>48.9</speed>
<course>237.1</course>
<desc>Speed 48.9 km/h Distance 63.04 km</desc>
<time>2011-03-24T16:08:36.55</time>
<name>2670</name>
</trkpt>
<trkpt lat="49.353047" lon="9.216727">
<ele>327.5</ele>
<speed>55.8</speed>
<course>217.9</course>
<desc>Speed 55.8 km/h Distance 63.06 km</desc>
<time>2011-03-24T16:08:38.55</time>
<name>2671</name>
</trkpt>
<trkpt lat="49.352772" lon="9.216398">
<ele>326.5</ele>
<speed>69.4</speed>
<course>209.8</course>
<desc>Speed 69.4 km/h Distance 63.10 km</desc>
<time>2011-03-24T16:08:40.55</time>
<name>2672</name>
</trkpt>
<trkpt lat="49.352470" lon="9.216133">
<ele>327.0</ele>
<speed>65.2</speed>
<course>194.4</course>
<desc>Speed 65.2 km/h Distance 63.14 km</desc>
<time>2011-03-24T16:08:42.54</time>
<name>2673</name>
</trkpt>
<trkpt lat="49.352272" lon="9.216055">
<ele>327.0</ele>
<speed>45.0</speed>
<course>204.8</course>
<desc>Speed 45.0 km/h Distance 63.16 km</desc>
<time>2011-03-24T16:08:44.55</time>
<name>2674</name>
</trkpt>
<trkpt lat="49.351992" lon="9.215857">
<ele>327.5</ele>
<speed>49.9</speed>
<course>201.3</course>
<desc>Speed 49.9 km/h Distance 63.20 km</desc>
<time>2011-03-24T16:08:46.54</time>
<name>2675</name>
</trkpt>
<trkpt lat="49.351863" lon="9.215780">
<ele>329.0</ele>
<speed>52.6</speed>
<course>200.2</course>
<desc>Speed 52.6 km/h Distance 63.21 km</desc>
<time>2011-03-24T16:08:47.53</time>
<name>2676</name>
</trkpt>
<trkpt lat="49.351725" lon="9.215702">
<ele>331.0</ele>
<speed>55.4</speed>
<course>193.8</course>
<desc>Speed 55.4 km/h Distance 63.23 km</desc>
<time>2011-03-24T16:08:48.55</time>
<name>2677</name>
</trkpt>
<trkpt lat="49.351423" lon="9.215588">
<ele>331.0</ele>
<speed>65.5</speed>
<course>183.4</course>
<desc>Speed 65.5 km/h Distance 63.26 km</desc>
<time>2011-03-24T16:08:50.54</time>
<name>2678</name>
</trkpt>
<trkpt lat="49.351242" lon="9.215572">
<ele>331.0</ele>
<speed>72.0</speed>
<course>184.6</course>
<desc>Speed 72.0 km/h Distance 63.28 km</desc>
<time>2011-03-24T16:08:51.54</time>
<name>2679</name>
</trkpt>
<trkpt lat="49.350820" lon="9.215520">
<ele>329.0</ele>
<speed>74.4</speed>
<course>195.7</course>
<desc>Speed 74.4 km/h Distance 63.33 km</desc>
<time>2011-03-24T16:08:53.54</time>
<name>2680</name>
</trkpt>
<trkpt lat="49.350503" lon="9.215383">
<ele>324.5</ele>
<speed>60.7</speed>
<course>215.5</course>
<desc>Speed 60.7 km/h Distance 63.37 km</desc>
<time>2011-03-24T16:08:55.54</time>
<name>2681</name>
</trkpt>
<trkpt lat="49.350260" lon="9.215117">
<ele>323.5</ele>
<speed>57.5</speed>
<course>240.6</course>
<desc>Speed 57.5 km/h Distance 63.40 km</desc>
<time>2011-03-24T16:08:57.54</time>
<name>2682</name>
</trkpt>
<trkpt lat="49.350137" lon="9.214780">
<ele>323.0</ele>
<speed>56.6</speed>
<course>275.8</course>
<desc>Speed 56.6 km/h Distance 63.43 km</desc>
<time>2011-03-24T16:08:59.54</time>
<name>2683</name>
</trkpt>
<trkpt lat="49.350165" lon="9.214350">
<ele>320.5</ele>
<speed>56.6</speed>
<course>297.1</course>
<desc>Speed 56.6 km/h Distance 63.46 km</desc>
<time>2011-03-24T16:09:01.53</time>
<name>2684</name>
</trkpt>
<trkpt lat="49.350263" lon="9.214055">
<ele>319.0</ele>
<speed>47.4</speed>
<course>275.6</course>
<desc>Speed 47.4 km/h Distance 63.49 km</desc>
<time>2011-03-24T16:09:03.53</time>
<name>2685</name>
</trkpt>
<trkpt lat="49.350298" lon="9.213508">
<ele>321.5</ele>
<speed>67.6</speed>
<course>253.6</course>
<desc>Speed 67.6 km/h Distance 63.53 km</desc>
<time>2011-03-24T16:09:05.53</time>
<name>2686</name>
</trkpt>
<trkpt lat="49.350247" lon="9.213238">
<ele>322.5</ele>
<speed>63.2</speed>
<course>261.6</course>
<desc>Speed 63.2 km/h Distance 63.55 km</desc>
<time>2011-03-24T16:09:06.54</time>
<name>2687</name>
</trkpt>
<trkpt lat="49.350213" lon="9.212892">
<ele>323.0</ele>
<speed>48.5</speed>
<course>240.8</course>
<desc>Speed 48.5 km/h Distance 63.57 km</desc>
<time>2011-03-24T16:09:08.54</time>
<name>2688</name>
</trkpt>
<trkpt lat="49.349923" lon="9.212097">
<ele>324.0</ele>
<speed>89.9</speed>
<course>258.4</course>
<desc>Speed 89.9 km/h Distance 63.64 km</desc>
<time>2011-03-24T16:09:11.53</time>
<name>2689</name>
</trkpt>
<trkpt lat="49.349807" lon="9.211222">
<ele>327.5</ele>
<speed>101</speed>
<course>261.3</course>
<desc>Speed 101 km/h Distance 63.70 km</desc>
<time>2011-03-24T16:09:13.53</time>
<name>2690</name>
</trkpt>
<trkpt lat="49.349770" lon="9.210853">
<ele>327.5</ele>
<speed>92.8</speed>
<course>254.2</course>
<desc>Speed 92.8 km/h Distance 63.73 km</desc>
<time>2011-03-24T16:09:14.52</time>
<name>2691</name>
</trkpt>
<trkpt lat="49.349705" lon="9.210500">
<ele>327.5</ele>
<speed>94.9</speed>
<course>248.7</course>
<desc>Speed 94.9 km/h Distance 63.76 km</desc>
<time>2011-03-24T16:09:15.52</time>
<name>2692</name>
</trkpt>
<trkpt lat="49.349615" lon="9.210145">
<ele>327.5</ele>
<speed>98.7</speed>
<course>239.5</course>
<desc>Speed 98.7 km/h Distance 63.78 km</desc>
<time>2011-03-24T16:09:16.53</time>
<name>2693</name>
</trkpt>
<trkpt lat="49.349335" lon="9.209415">
<ele>329.5</ele>
<speed>107</speed>
<course>234.8</course>
<desc>Speed 107 km/h Distance 63.84 km</desc>
<time>2011-03-24T16:09:18.53</time>
<name>2694</name>
</trkpt>
<trkpt lat="49.349163" lon="9.209042">
<ele>332.0</ele>
<speed>107</speed>
<course>235.0</course>
<desc>Speed 107 km/h Distance 63.88 km</desc>
<time>2011-03-24T16:09:19.53</time>
<name>2695</name>
</trkpt>
<trkpt lat="49.348618" lon="9.207848">
<ele>336.5</ele>
<speed>109</speed>
<course>247.0</course>
<desc>Speed 109 km/h Distance 63.98 km</desc>
<time>2011-03-24T16:09:22.54</time>
<name>2696</name>
</trkpt>
<trkpt lat="49.348428" lon="9.207162">
<ele>337.5</ele>
<speed>107</speed>
<course>253.6</course>
<desc>Speed 107 km/h Distance 64.04 km</desc>
<time>2011-03-24T16:09:24.53</time>
<name>2697</name>
</trkpt>
<trkpt lat="49.348253" lon="9.206248">
<ele>338.0</ele>
<speed>124</speed>
<course>254.1</course>
<desc>Speed 124 km/h Distance 64.11 km</desc>
<time>2011-03-24T16:09:26.53</time>
<name>2698</name>
</trkpt>
<trkpt lat="49.348170" lon="9.205798">
<ele>339.5</ele>
<speed>120</speed>
<course>249.1</course>
<desc>Speed 120 km/h Distance 64.14 km</desc>
<time>2011-03-24T16:09:27.52</time>
<name>2699</name>
</trkpt>
<trkpt lat="49.347922" lon="9.204800">
<ele>342.5</ele>
<speed>132</speed>
<course>244.8</course>
<desc>Speed 132 km/h Distance 64.22 km</desc>
<time>2011-03-24T16:09:29.52</time>
<name>2700</name>
</trkpt>
<trkpt lat="49.347780" lon="9.204338">
<ele>344.5</ele>
<speed>133</speed>
<course>242.7</course>
<desc>Speed 133 km/h Distance 64.25 km</desc>
<time>2011-03-24T16:09:30.52</time>
<name>2701</name>
</trkpt>
<trkpt lat="49.347618" lon="9.203858">
<ele>344.5</ele>
<speed>140</speed>
<course>240.6</course>
<desc>Speed 140 km/h Distance 64.29 km</desc>
<time>2011-03-24T16:09:31.52</time>
<name>2702</name>
</trkpt>
<trkpt lat="49.347428" lon="9.203342">
<ele>349.0</ele>
<speed>144</speed>
<course>241.6</course>
<desc>Speed 144 km/h Distance 64.34 km</desc>
<time>2011-03-24T16:09:32.53</time>
<name>2703</name>
</trkpt>
<trkpt lat="49.347048" lon="9.202262">
<ele>351.5</ele>
<speed>146</speed>
<course>243.1</course>
<desc>Speed 146 km/h Distance 64.43 km</desc>
<time>2011-03-24T16:09:34.51</time>
<name>2704</name>
</trkpt>
<trkpt lat="49.346890" lon="9.201783">
<ele>352.0</ele>
<speed>137</speed>
<course>243.7</course>
<desc>Speed 137 km/h Distance 64.47 km</desc>
<time>2011-03-24T16:09:35.52</time>
<name>2705</name>
</trkpt>
<trkpt lat="49.346747" lon="9.201338">
<ele>352.0</ele>
<speed>130</speed>
<course>242.6</course>
<desc>Speed 130 km/h Distance 64.50 km</desc>
<time>2011-03-24T16:09:36.51</time>
<name>2706</name>
</trkpt>
<trkpt lat="49.346590" lon="9.200875">
<ele>352.5</ele>
<speed>130</speed>
<course>241.0</course>
<desc>Speed 130 km/h Distance 64.54 km</desc>
<time>2011-03-24T16:09:37.52</time>
<name>2707</name>
</trkpt>
<trkpt lat="49.346438" lon="9.200455">
<ele>352.0</ele>
<speed>123</speed>
<course>238.6</course>
<desc>Speed 123 km/h Distance 64.57 km</desc>
<time>2011-03-24T16:09:38.51</time>
<name>2708</name>
</trkpt>
<trkpt lat="49.346268" lon="9.200028">
<ele>352.0</ele>
<speed>130</speed>
<course>235.9</course>
<desc>Speed 130 km/h Distance 64.61 km</desc>
<time>2011-03-24T16:09:39.52</time>
<name>2709</name>
</trkpt>
<trkpt lat="49.346083" lon="9.199608">
<ele>352.0</ele>
<speed>131</speed>
<course>232.2</course>
<desc>Speed 131 km/h Distance 64.65 km</desc>
<time>2011-03-24T16:09:40.52</time>
<name>2710</name>
</trkpt>
<trkpt lat="49.345875" lon="9.199197">
<ele>351.5</ele>
<speed>134</speed>
<course>228.3</course>
<desc>Speed 134 km/h Distance 64.68 km</desc>
<time>2011-03-24T16:09:41.52</time>
<name>2711</name>
</trkpt>
<trkpt lat="49.345652" lon="9.198812">
<ele>351.5</ele>
<speed>122</speed>
<course>225.6</course>
<desc>Speed 122 km/h Distance 64.72 km</desc>
<time>2011-03-24T16:09:42.52</time>
<name>2712</name>
</trkpt>
<trkpt lat="49.345428" lon="9.198462">
<ele>351.5</ele>
<speed>116</speed>
<course>222.8</course>
<desc>Speed 116 km/h Distance 64.76 km</desc>
<time>2011-03-24T16:09:43.52</time>
<name>2713</name>
</trkpt>
<trkpt lat="49.344972" lon="9.197813">
<ele>352.5</ele>
<speed>117</speed>
<course>222.6</course>
<desc>Speed 117 km/h Distance 64.83 km</desc>
<time>2011-03-24T16:09:45.52</time>
<name>2714</name>
</trkpt>
<trkpt lat="49.344753" lon="9.197505">
<ele>353.0</ele>
<speed>116</speed>
<course>225.4</course>
<desc>Speed 116 km/h Distance 64.86 km</desc>
<time>2011-03-24T16:09:46.51</time>
<name>2715</name>
</trkpt>
<trkpt lat="49.344565" lon="9.197212">
<ele>353.0</ele>
<speed>107</speed>
<course>225.8</course>
<desc>Speed 107 km/h Distance 64.89 km</desc>
<time>2011-03-24T16:09:47.52</time>
<name>2716</name>
</trkpt>
<trkpt lat="49.344380" lon="9.196920">
<ele>354.0</ele>
<speed>109</speed>
<course>229.1</course>
<desc>Speed 109 km/h Distance 64.92 km</desc>
<time>2011-03-24T16:09:48.52</time>
<name>2717</name>
</trkpt>
<trkpt lat="49.344203" lon="9.196607">
<ele>353.5</ele>
<speed>111</speed>
<course>232.9</course>
<desc>Speed 111 km/h Distance 64.95 km</desc>
<time>2011-03-24T16:09:49.52</time>
<name>2718</name>
</trkpt>
<trkpt lat="49.344042" lon="9.196278">
<ele>354.0</ele>
<speed>108</speed>
<course>234.3</course>
<desc>Speed 108 km/h Distance 64.98 km</desc>
<time>2011-03-24T16:09:50.51</time>
<name>2719</name>
</trkpt>
<trkpt lat="49.343883" lon="9.195940">
<ele>354.5</ele>
<speed>110</speed>
<course>239.9</course>
<desc>Speed 110 km/h Distance 65.01 km</desc>
<time>2011-03-24T16:09:51.51</time>
<name>2720</name>
</trkpt>
<trkpt lat="49.343750" lon="9.195587">
<ele>356.0</ele>
<speed>107</speed>
<course>241.4</course>
<desc>Speed 107 km/h Distance 65.04 km</desc>
<time>2011-03-24T16:09:52.51</time>
<name>2721</name>
</trkpt>
<trkpt lat="49.343617" lon="9.195212">
<ele>355.5</ele>
<speed>111</speed>
<course>248.4</course>
<desc>Speed 111 km/h Distance 65.07 km</desc>
<time>2011-03-24T16:09:53.51</time>
<name>2722</name>
</trkpt>
<trkpt lat="49.343513" lon="9.194812">
<ele>356.0</ele>
<speed>114</speed>
<course>255.1</course>
<desc>Speed 114 km/h Distance 65.10 km</desc>
<time>2011-03-24T16:09:54.51</time>
<name>2723</name>
</trkpt>
<trkpt lat="49.343447" lon="9.194428">
<ele>357.5</ele>
<speed>106</speed>
<course>256.2</course>
<desc>Speed 106 km/h Distance 65.13 km</desc>
<time>2011-03-24T16:09:55.51</time>
<name>2724</name>
</trkpt>
<trkpt lat="49.343312" lon="9.193582">
<ele>360.0</ele>
<speed>110</speed>
<course>258.2</course>
<desc>Speed 110 km/h Distance 65.19 km</desc>
<time>2011-03-24T16:09:57.51</time>
<name>2725</name>
</trkpt>
<trkpt lat="49.343180" lon="9.192612">
<ele>362.0</ele>
<speed>125</speed>
<course>273.3</course>
<desc>Speed 125 km/h Distance 65.26 km</desc>
<time>2011-03-24T16:09:59.51</time>
<name>2726</name>
</trkpt>
<trkpt lat="49.343208" lon="9.191857">
<ele>362.5</ele>
<speed>125</speed>
<course>282.2</course>
<desc>Speed 125 km/h Distance 65.32 km</desc>
<time>2011-03-24T16:10:01.51</time>
<name>2727</name>
</trkpt>
<trkpt lat="49.343335" lon="9.190960">
<ele>362.5</ele>
<speed>122</speed>
<course>291.0</course>
<desc>Speed 122 km/h Distance 65.39 km</desc>
<time>2011-03-24T16:10:03.50</time>
<name>2728</name>
</trkpt>
<trkpt lat="49.343558" lon="9.190065">
<ele>363.5</ele>
<speed>123</speed>
<course>301.0</course>
<desc>Speed 123 km/h Distance 65.46 km</desc>
<time>2011-03-24T16:10:05.51</time>
<name>2729</name>
</trkpt>
<trkpt lat="49.343878" lon="9.189248">
<ele>364.5</ele>
<speed>126</speed>
<course>299.9</course>
<desc>Speed 126 km/h Distance 65.52 km</desc>
<time>2011-03-24T16:10:07.50</time>
<name>2730</name>
</trkpt>
<trkpt lat="49.344200" lon="9.188388">
<ele>365.0</ele>
<speed>129</speed>
<course>302.3</course>
<desc>Speed 129 km/h Distance 65.60 km</desc>
<time>2011-03-24T16:10:09.49</time>
<name>2731</name>
</trkpt>
<trkpt lat="49.344517" lon="9.187620">
<ele>365.0</ele>
<speed>129</speed>
<course>296.5</course>
<desc>Speed 129 km/h Distance 65.66 km</desc>
<time>2011-03-24T16:10:11.50</time>
<name>2732</name>
</trkpt>
<trkpt lat="49.344883" lon="9.186493">
<ele>367.0</ele>
<speed>129</speed>
<course>288.1</course>
<desc>Speed 129 km/h Distance 65.75 km</desc>
<time>2011-03-24T16:10:16.50</time>
<name>2733</name>
</trkpt>
<trkpt lat="49.345233" lon="9.184852">
<ele>368.5</ele>
<speed>148</speed>
<course>299.2</course>
<desc>Speed 148 km/h Distance 65.88 km</desc>
<time>2011-03-24T16:10:21.50</time>
<name>2734</name>
</trkpt>
<trkpt lat="49.345620" lon="9.183790">
<ele>368.5</ele>
<speed>140</speed>
<course>301.9</course>
<desc>Speed 140 km/h Distance 65.97 km</desc>
<time>2011-03-24T16:10:23.50</time>
<name>2735</name>
</trkpt>
<trkpt lat="49.346020" lon="9.182805">
<ele>369.0</ele>
<speed>140</speed>
<course>284.6</course>
<desc>Speed 140 km/h Distance 66.05 km</desc>
<time>2011-03-24T16:10:26.50</time>
<name>2736</name>
</trkpt>
<trkpt lat="49.346233" lon="9.181545">
<ele>370.0</ele>
<speed>140</speed>
<course>292.6</course>
<desc>Speed 140 km/h Distance 66.15 km</desc>
<time>2011-03-24T16:10:30.49</time>
<name>2737</name>
</trkpt>
<trkpt lat="49.346753" lon="9.179625">
<ele>370.5</ele>
<speed>118</speed>
<course>291.4</course>
<desc>Speed 118 km/h Distance 66.30 km</desc>
<time>2011-03-24T16:10:33.48</time>
<name>2738</name>
</trkpt>
<trkpt lat="49.347305" lon="9.177460">
<ele>369.5</ele>
<speed>118</speed>
<course>294.3</course>
<desc>Speed 118 km/h Distance 66.47 km</desc>
<time>2011-03-24T16:10:37.49</time>
<name>2739</name>
</trkpt>
<trkpt lat="49.347560" lon="9.176593">
<ele>369.0</ele>
<speed>102</speed>
<course>298.5</course>
<desc>Speed 102 km/h Distance 66.53 km</desc>
<time>2011-03-24T16:10:39.49</time>
<name>2740</name>
</trkpt>
<trkpt lat="49.348555" lon="9.173777">
<ele>382.5</ele>
<speed>93.8</speed>
<course>292.7</course>
<desc>Speed 93.8 km/h Distance 66.77 km</desc>
<time>2011-03-24T16:10:44.48</time>
<name>2741</name>
</trkpt>
<trkpt lat="49.348827" lon="9.172782">
<ele>383.5</ele>
<speed>81.4</speed>
<course>305.9</course>
<desc>Speed 81.4 km/h Distance 66.85 km</desc>
<time>2011-03-24T16:10:47.47</time>
<name>2742</name>
</trkpt>
<trkpt lat="49.349072" lon="9.172262">
<ele>383.5</ele>
<speed>86.6</speed>
<course>314.0</course>
<desc>Speed 86.6 km/h Distance 66.89 km</desc>
<time>2011-03-24T16:10:49.48</time>
<name>2743</name>
</trkpt>
<trkpt lat="49.349307" lon="9.171888">
<ele>382.0</ele>
<speed>86.6</speed>
<course>318.4</course>
<desc>Speed 86.6 km/h Distance 66.93 km</desc>
<time>2011-03-24T16:10:51.48</time>
<name>2744</name>
</trkpt>
<trkpt lat="49.349622" lon="9.171458">
<ele>382.5</ele>
<speed>86.6</speed>
<course>330.5</course>
<desc>Speed 86.6 km/h Distance 66.98 km</desc>
<time>2011-03-24T16:10:53.48</time>
<name>2745</name>
</trkpt>
<trkpt lat="49.349938" lon="9.171183">
<ele>383.0</ele>
<speed>86.6</speed>
<course>6.7</course>
<desc>Speed 86.6 km/h Distance 67.02 km</desc>
<time>2011-03-24T16:10:56.47</time>
<name>2746</name>
</trkpt>
<trkpt lat="49.350438" lon="9.171273">
<ele>384.5</ele>
<speed>74.7</speed>
<course>352.8</course>
<desc>Speed 74.7 km/h Distance 67.07 km</desc>
<time>2011-03-24T16:10:59.48</time>
<name>2747</name>
</trkpt>
<trkpt lat="49.350877" lon="9.171188">
<ele>385.5</ele>
<speed>65.1</speed>
<course>353.8</course>
<desc>Speed 65.1 km/h Distance 67.12 km</desc>
<time>2011-03-24T16:11:01.49</time>
<name>2748</name>
</trkpt>
<trkpt lat="49.351205" lon="9.171133">
<ele>384.0</ele>
<speed>56.9</speed>
<course>318.3</course>
<desc>Speed 56.9 km/h Distance 67.16 km</desc>
<time>2011-03-24T16:11:03.48</time>
<name>2749</name>
</trkpt>
<trkpt lat="49.351448" lon="9.170800">
<ele>384.0</ele>
<speed>67.8</speed>
<course>294.4</course>
<desc>Speed 67.8 km/h Distance 67.20 km</desc>
<time>2011-03-24T16:11:05.47</time>
<name>2750</name>
</trkpt>
<trkpt lat="49.351563" lon="9.170410">
<ele>384.0</ele>
<speed>57.0</speed>
<course>293.9</course>
<desc>Speed 57.0 km/h Distance 67.23 km</desc>
<time>2011-03-24T16:11:07.47</time>
<name>2751</name>
</trkpt>
<trkpt lat="49.351675" lon="9.170023">
<ele>384.5</ele>
<speed>53.8</speed>
<course>261.8</course>
<desc>Speed 53.8 km/h Distance 67.26 km</desc>
<time>2011-03-24T16:11:09.46</time>
<name>2752</name>
</trkpt>
<trkpt lat="49.351637" lon="9.169617">
<ele>383.5</ele>
<speed>53.8</speed>
<course>256.0</course>
<desc>Speed 53.8 km/h Distance 67.29 km</desc>
<time>2011-03-24T16:11:11.47</time>
<name>2753</name>
</trkpt>
<trkpt lat="49.351595" lon="9.169360">
<ele>383.0</ele>
<speed>53.8</speed>
<course>246.7</course>
<desc>Speed 53.8 km/h Distance 67.31 km</desc>
<time>2011-03-24T16:11:13.47</time>
<name>2754</name>
</trkpt>
<trkpt lat="49.351538" lon="9.169158">
<ele>383.0</ele>
<speed>53.8</speed>
<course>226.9</course>
<desc>Speed 53.8 km/h Distance 67.32 km</desc>
<time>2011-03-24T16:11:15.47</time>
<name>2755</name>
</trkpt>
<trkpt lat="49.351442" lon="9.169000">
<ele>383.0</ele>
<speed>53.8</speed>
<course>291.1</course>
<desc>Speed 53.8 km/h Distance 67.34 km</desc>
<time>2011-03-24T16:11:17.47</time>
<name>2756</name>
</trkpt>
<trkpt lat="49.352137" lon="9.166237">
<ele>379.5</ele>
<speed>53.8</speed>
<course>273.3</course>
<desc>Speed 53.8 km/h Distance 67.55 km</desc>
<time>2011-03-24T16:11:27.46</time>
<name>2757</name>
</trkpt>
<trkpt lat="49.352257" lon="9.163045">
<ele>367.5</ele>
<speed>116</speed>
<course>282.0</course>
<desc>Speed 116 km/h Distance 67.78 km</desc>
<time>2011-03-24T16:11:33.45</time>
<name>2758</name>
</trkpt>
<trkpt lat="49.352377" lon="9.162177">
<ele>363.5</ele>
<speed>116</speed>
<course>281.4</course>
<desc>Speed 116 km/h Distance 67.85 km</desc>
<time>2011-03-24T16:11:35.45</time>
<name>2759</name>
</trkpt>
<trkpt lat="49.352478" lon="9.161400">
<ele>362.0</ele>
<speed>116</speed>
<course>281.0</course>
<desc>Speed 116 km/h Distance 67.91 km</desc>
<time>2011-03-24T16:11:37.45</time>
<name>2760</name>
</trkpt>
<trkpt lat="49.352578" lon="9.160613">
<ele>361.0</ele>
<speed>104</speed>
<course>269.6</course>
<desc>Speed 104 km/h Distance 67.96 km</desc>
<time>2011-03-24T16:11:39.45</time>
<name>2761</name>
</trkpt>
<trkpt lat="49.352575" lon="9.159805">
<ele>358.0</ele>
<speed>104</speed>
<course>299.8</course>
<desc>Speed 104 km/h Distance 68.02 km</desc>
<time>2011-03-24T16:11:41.45</time>
<name>2762</name>
</trkpt>
<trkpt lat="49.352875" lon="9.159002">
<ele>353.0</ele>
<speed>71.3</speed>
<course>287.7</course>
<desc>Speed 71.3 km/h Distance 68.09 km</desc>
<time>2011-03-24T16:11:44.45</time>
<name>2763</name>
</trkpt>
<trkpt lat="49.352980" lon="9.158497">
<ele>349.0</ele>
<speed>71.3</speed>
<course>286.3</course>
<desc>Speed 71.3 km/h Distance 68.13 km</desc>
<time>2011-03-24T16:11:46.45</time>
<name>2764</name>
</trkpt>
<trkpt lat="49.353083" lon="9.157953">
<ele>343.0</ele>
<speed>70.6</speed>
<course>294.6</course>
<desc>Speed 70.6 km/h Distance 68.17 km</desc>
<time>2011-03-24T16:11:48.45</time>
<name>2765</name>
</trkpt>
<trkpt lat="49.353255" lon="9.157377">
<ele>336.5</ele>
<speed>75.2</speed>
<course>292.7</course>
<desc>Speed 75.2 km/h Distance 68.22 km</desc>
<time>2011-03-24T16:11:50.44</time>
<name>2766</name>
</trkpt>
<trkpt lat="49.353390" lon="9.156882">
<ele>328.0</ele>
<speed>75.2</speed>
<course>308.0</course>
<desc>Speed 75.2 km/h Distance 68.25 km</desc>
<time>2011-03-24T16:11:52.44</time>
<name>2767</name>
</trkpt>
<trkpt lat="49.353653" lon="9.156363">
<ele>329.5</ele>
<speed>85.4</speed>
<course>317.0</course>
<desc>Speed 85.4 km/h Distance 68.30 km</desc>
<time>2011-03-24T16:11:54.44</time>
<name>2768</name>
</trkpt>
<trkpt lat="49.353925" lon="9.155975">
<ele>329.5</ele>
<speed>80.2</speed>
<course>321.0</course>
<desc>Speed 80.2 km/h Distance 68.34 km</desc>
<time>2011-03-24T16:11:56.44</time>
<name>2769</name>
</trkpt>
<trkpt lat="49.354200" lon="9.155633">
<ele>329.5</ele>
<speed>72.4</speed>
<course>350.1</course>
<desc>Speed 72.4 km/h Distance 68.38 km</desc>
<time>2011-03-24T16:11:58.44</time>
<name>2770</name>
</trkpt>
<trkpt lat="49.354542" lon="9.155542">
<ele>324.0</ele>
<speed>72.5</speed>
<course>3.1</course>
<desc>Speed 72.5 km/h Distance 68.42 km</desc>
<time>2011-03-24T16:12:00.44</time>
<name>2771</name>
</trkpt>
<trkpt lat="49.355265" lon="9.155602">
<ele>320.0</ele>
<speed>109</speed>
<course>15.1</course>
<desc>Speed 109 km/h Distance 68.50 km</desc>
<time>2011-03-24T16:12:03.44</time>
<name>2772</name>
</trkpt>
<trkpt lat="49.355712" lon="9.155787">
<ele>315.5</ele>
<speed>88.5</speed>
<course>14.6</course>
<desc>Speed 88.5 km/h Distance 68.55 km</desc>
<time>2011-03-24T16:12:05.44</time>
<name>2773</name>
</trkpt>
<trkpt lat="49.356082" lon="9.155935">
<ele>314.5</ele>
<speed>70.2</speed>
<course>17.5</course>
<desc>Speed 70.2 km/h Distance 68.60 km</desc>
<time>2011-03-24T16:12:07.44</time>
<name>2774</name>
</trkpt>
<trkpt lat="49.356437" lon="9.156107">
<ele>311.5</ele>
<speed>72.7</speed>
<course>26.8</course>
<desc>Speed 72.7 km/h Distance 68.64 km</desc>
<time>2011-03-24T16:12:09.44</time>
<name>2775</name>
</trkpt>
<trkpt lat="49.356712" lon="9.156320">
<ele>306.5</ele>
<speed>72.7</speed>
<course>39.2</course>
<desc>Speed 72.7 km/h Distance 68.67 km</desc>
<time>2011-03-24T16:12:11.44</time>
<name>2776</name>
</trkpt>
<trkpt lat="49.356990" lon="9.156668">
<ele>300.0</ele>
<speed>75.3</speed>
<course>33.1</course>
<desc>Speed 75.3 km/h Distance 68.71 km</desc>
<time>2011-03-24T16:12:13.43</time>
<name>2777</name>
</trkpt>
<trkpt lat="49.357257" lon="9.156935">
<ele>297.5</ele>
<speed>55.3</speed>
<course>32.5</course>
<desc>Speed 55.3 km/h Distance 68.75 km</desc>
<time>2011-03-24T16:12:15.43</time>
<name>2778</name>
</trkpt>
<trkpt lat="49.357502" lon="9.157175">
<ele>293.5</ele>
<speed>57.7</speed>
<course>35.8</course>
<desc>Speed 57.7 km/h Distance 68.78 km</desc>
<time>2011-03-24T16:12:17.44</time>
<name>2779</name>
</trkpt>
<trkpt lat="49.357692" lon="9.157385">
<ele>289.0</ele>
<speed>45.4</speed>
<course>27.3</course>
<desc>Speed 45.4 km/h Distance 68.81 km</desc>
<time>2011-03-24T16:12:19.43</time>
<name>2780</name>
</trkpt>
<trkpt lat="49.357942" lon="9.157583">
<ele>282.0</ele>
<speed>45.6</speed>
<course>15.1</course>
<desc>Speed 45.6 km/h Distance 68.84 km</desc>
<time>2011-03-24T16:12:21.43</time>
<name>2781</name>
</trkpt>
<trkpt lat="49.358187" lon="9.157685">
<ele>278.5</ele>
<speed>41.5</speed>
<course>340.7</course>
<desc>Speed 41.5 km/h Distance 68.86 km</desc>
<time>2011-03-24T16:12:23.43</time>
<name>2782</name>
</trkpt>
<trkpt lat="49.358360" lon="9.157592">
<ele>278.0</ele>
<speed>33.3</speed>
<course>285.7</course>
<desc>Speed 33.3 km/h Distance 68.89 km</desc>
<time>2011-03-24T16:12:25.43</time>
<name>2783</name>
</trkpt>
<trkpt lat="49.358402" lon="9.157363">
<ele>275.5</ele>
<speed>40.2</speed>
<course>272.5</course>
<desc>Speed 40.2 km/h Distance 68.90 km</desc>
<time>2011-03-24T16:12:27.43</time>
<name>2784</name>
</trkpt>
<trkpt lat="49.358407" lon="9.157188">
<ele>273.5</ele>
<speed>15.7</speed>
<course>267.4</course>
<desc>Speed 15.7 km/h Distance 68.92 km</desc>
<time>2011-03-24T16:12:29.43</time>
<name>2785</name>
</trkpt>
<trkpt lat="49.358405" lon="9.157132">
<ele>271.0</ele>
<speed>15.7</speed>
<course>218.8</course>
<desc>Speed 15.7 km/h Distance 68.92 km</desc>
<time>2011-03-24T16:12:31.43</time>
<name>2786</name>
</trkpt>
<trkpt lat="49.358062" lon="9.156708">
<ele>271.0</ele>
<speed>50.8</speed>
<course>222.2</course>
<desc>Speed 50.8 km/h Distance 68.97 km</desc>
<time>2011-03-24T16:12:34.43</time>
<name>2787</name>
</trkpt>
<trkpt lat="49.357820" lon="9.156372">
<ele>270.5</ele>
<speed>39.8</speed>
<course>248.8</course>
<desc>Speed 39.8 km/h Distance 69.00 km</desc>
<time>2011-03-24T16:12:36.43</time>
<name>2788</name>
</trkpt>
<trkpt lat="49.357755" lon="9.156115">
<ele>267.5</ele>
<speed>46.0</speed>
<course>257.3</course>
<desc>Speed 46.0 km/h Distance 69.02 km</desc>
<time>2011-03-24T16:12:38.43</time>
<name>2789</name>
</trkpt>
<trkpt lat="49.357703" lon="9.155762">
<ele>266.5</ele>
<speed>42.3</speed>
<course>260.4</course>
<desc>Speed 42.3 km/h Distance 69.05 km</desc>
<time>2011-03-24T16:12:40.43</time>
<name>2790</name>
</trkpt>
<trkpt lat="49.357660" lon="9.155367">
<ele>264.0</ele>
<speed>47.9</speed>
<course>274.0</course>
<desc>Speed 47.9 km/h Distance 69.08 km</desc>
<time>2011-03-24T16:12:42.43</time>
<name>2791</name>
</trkpt>
<trkpt lat="49.357677" lon="9.155000">
<ele>260.0</ele>
<speed>45.3</speed>
<course>282.0</course>
<desc>Speed 45.3 km/h Distance 69.11 km</desc>
<time>2011-03-24T16:12:44.43</time>
<name>2792</name>
</trkpt>
<trkpt lat="49.357720" lon="9.154687">
<ele>258.5</ele>
<speed>41.2</speed>
<course>284.4</course>
<desc>Speed 41.2 km/h Distance 69.13 km</desc>
<time>2011-03-24T16:12:46.42</time>
<name>2793</name>
</trkpt>
<trkpt lat="49.357765" lon="9.154417">
<ele>257.0</ele>
<speed>41.2</speed>
<course>278.0</course>
<desc>Speed 41.2 km/h Distance 69.15 km</desc>
<time>2011-03-24T16:12:48.42</time>
<name>2794</name>
</trkpt>
<trkpt lat="49.357780" lon="9.154253">
<ele>255.0</ele>
<speed>18.9</speed>
<course>281.3</course>
<desc>Speed 18.9 km/h Distance 69.16 km</desc>
<time>2011-03-24T16:12:50.41</time>
<name>2795</name>
</trkpt>
<trkpt lat="49.357797" lon="9.154125">
<ele>253.5</ele>
<speed>17.8</speed>
<course>313.0</course>
<desc>Speed 17.8 km/h Distance 69.17 km</desc>
<time>2011-03-24T16:12:52.42</time>
<name>2796</name>
</trkpt>
<trkpt lat="49.357858" lon="9.154023">
<ele>252.5</ele>
<speed>18.5</speed>
<course>288.1</course>
<desc>Speed 18.5 km/h Distance 69.18 km</desc>
<time>2011-03-24T16:12:54.41</time>
<name>2797</name>
</trkpt>
<trkpt lat="49.357885" lon="9.153898">
<ele>252.0</ele>
<speed>18.1</speed>
<course>256.4</course>
<desc>Speed 18.1 km/h Distance 69.19 km</desc>
<time>2011-03-24T16:12:56.94</time>
<name>2798</name>
</trkpt>
<trkpt lat="49.357862" lon="9.153750">
<ele>252.5</ele>
<speed>25.3</speed>
<course>265.8</course>
<desc>Speed 25.3 km/h Distance 69.20 km</desc>
<time>2011-03-24T16:12:58.42</time>
<name>2799</name>
</trkpt>
<trkpt lat="49.357852" lon="9.153543">
<ele>252.5</ele>
<speed>33.0</speed>
<course>263.6</course>
<desc>Speed 33.0 km/h Distance 69.22 km</desc>
<time>2011-03-24T16:13:00.42</time>
<name>2800</name>
</trkpt>
<trkpt lat="49.357828" lon="9.153222">
<ele>250.5</ele>
<speed>41.9</speed>
<course>255.2</course>
<desc>Speed 41.9 km/h Distance 69.24 km</desc>
<time>2011-03-24T16:13:02.42</time>
<name>2801</name>
</trkpt>
<trkpt lat="49.357763" lon="9.152843">
<ele>249.5</ele>
<speed>51.3</speed>
<course>251.4</course>
<desc>Speed 51.3 km/h Distance 69.27 km</desc>
<time>2011-03-24T16:13:04.41</time>
<name>2802</name>
</trkpt>
<trkpt lat="49.357678" lon="9.152457">
<ele>249.0</ele>
<speed>52.1</speed>
<course>244.7</course>
<desc>Speed 52.1 km/h Distance 69.30 km</desc>
<time>2011-03-24T16:13:06.41</time>
<name>2803</name>
</trkpt>
<trkpt lat="49.357572" lon="9.152110">
<ele>248.5</ele>
<speed>47.9</speed>
<course>239.1</course>
<desc>Speed 47.9 km/h Distance 69.33 km</desc>
<time>2011-03-24T16:13:08.41</time>
<name>2804</name>
</trkpt>
<trkpt lat="49.357453" lon="9.151807">
<ele>248.5</ele>
<speed>45.7</speed>
<course>227.0</course>
<desc>Speed 45.7 km/h Distance 69.35 km</desc>
<time>2011-03-24T16:13:10.41</time>
<name>2805</name>
</trkpt>
<trkpt lat="49.357273" lon="9.151510">
<ele>248.0</ele>
<speed>53.6</speed>
<course>226.8</course>
<desc>Speed 53.6 km/h Distance 69.38 km</desc>
<time>2011-03-24T16:13:12.41</time>
<name>2806</name>
</trkpt>
<trkpt lat="49.357085" lon="9.151202">
<ele>245.5</ele>
<speed>56.3</speed>
<course>224.7</course>
<desc>Speed 56.3 km/h Distance 69.41 km</desc>
<time>2011-03-24T16:13:14.41</time>
<name>2807</name>
</trkpt>
<trkpt lat="49.356888" lon="9.150903">
<ele>244.5</ele>
<speed>52.6</speed>
<course>227.8</course>
<desc>Speed 52.6 km/h Distance 69.44 km</desc>
<time>2011-03-24T16:13:16.41</time>
<name>2808</name>
</trkpt>
<trkpt lat="49.356718" lon="9.150615">
<ele>242.5</ele>
<speed>48.7</speed>
<course>234.5</course>
<desc>Speed 48.7 km/h Distance 69.47 km</desc>
<time>2011-03-24T16:13:18.41</time>
<name>2809</name>
</trkpt>
<trkpt lat="49.356590" lon="9.150338">
<ele>241.5</ele>
<speed>42.9</speed>
<course>245.6</course>
<desc>Speed 42.9 km/h Distance 69.50 km</desc>
<time>2011-03-24T16:13:20.41</time>
<name>2810</name>
</trkpt>
<trkpt lat="49.356520" lon="9.150102">
<ele>241.5</ele>
<speed>33.3</speed>
<course>250.1</course>
<desc>Speed 33.3 km/h Distance 69.51 km</desc>
<time>2011-03-24T16:13:22.41</time>
<name>2811</name>
</trkpt>
<trkpt lat="49.356473" lon="9.149903">
<ele>240.5</ele>
<speed>28.0</speed>
<course>265.7</course>
<desc>Speed 28.0 km/h Distance 69.53 km</desc>
<time>2011-03-24T16:13:24.40</time>
<name>2812</name>
</trkpt>
<trkpt lat="49.356470" lon="9.149835">
<ele>240.5</ele>
<speed>11.5</speed>
<course>270.0</course>
<desc>Speed 11.5 km/h Distance 69.53 km</desc>
<time>2011-03-24T16:13:26.41</time>
<name>2813</name>
</trkpt>
<trkpt lat="49.356470" lon="9.149755">
<ele>239.5</ele>
<speed>9.4</speed>
<course>265.8</course>
<desc>Speed 9.4 km/h Distance 69.54 km</desc>
<time>2011-03-24T16:13:28.40</time>
<name>2814</name>
</trkpt>
<trkpt lat="49.356467" lon="9.149685">
<ele>238.0</ele>
<speed>7.3</speed>
<course>263.5</course>
<desc>Speed 7.3 km/h Distance 69.55 km</desc>
<time>2011-03-24T16:13:30.40</time>
<name>2815</name>
</trkpt>
<trkpt lat="49.356463" lon="9.149640">
<ele>237.0</ele>
<speed>2.1</speed>
<course>180.0</course>
<desc>Speed 2.1 km/h Distance 69.55 km</desc>
<time>2011-03-24T16:13:32.41</time>
<name>2816</name>
</trkpt>
<trkpt lat="49.356458" lon="9.149638">
<ele>236.0</ele>
<speed>0.3</speed>
<course>226.1</course>
<desc>Speed 0.3 km/h Distance 69.55 km</desc>
<time>2011-03-24T16:13:34.39</time>
<name>2817</name>
</trkpt>
<trkpt lat="49.356450" lon="9.149625">
<ele>235.5</ele>
<speed>0.4</speed>
<course>213.2</course>
<desc>Speed 0.4 km/h Distance 69.55 km</desc>
<time>2011-03-24T16:13:36.39</time>
<name>2818</name>
</trkpt>
<trkpt lat="49.356443" lon="9.149618">
<ele>235.0</ele>
<speed>0.6</speed>
<course>208.6</course>
<desc>Speed 0.6 km/h Distance 69.55 km</desc>
<time>2011-03-24T16:13:38.40</time>
<name>2819</name>
</trkpt>
<trkpt lat="49.356433" lon="9.149610">
<ele>236.5</ele>
<speed>0.2</speed>
<course>180.0</course>
<desc>Speed 0.2 km/h Distance 69.55 km</desc>
<time>2011-03-24T16:13:40.40</time>
<name>2820</name>
</trkpt>
<trkpt lat="49.356428" lon="9.149610">
<ele>235.5</ele>
<speed>0.1</speed>
<course>90.0</course>
<desc>Speed 0.1 km/h Distance 69.55 km</desc>
<time>2011-03-24T16:13:42.39</time>
<name>2821</name>
</trkpt>
<trkpt lat="49.356428" lon="9.149612">
<ele>234.5</ele>
<speed>0.1</speed>
<course>270.0</course>
<desc>Speed 0.1 km/h Distance 69.55 km</desc>
<time>2011-03-24T16:13:44.40</time>
<name>2822</name>
</trkpt>
<trkpt lat="49.356428" lon="9.149610">
<ele>234.0</ele>
<speed>0.1</speed>
<course>242.6</course>
<desc>Speed 0.1 km/h Distance 69.55 km</desc>
<time>2011-03-24T16:13:46.39</time>
<name>2823</name>
</trkpt>
<trkpt lat="49.356427" lon="9.149605">
<ele>234.0</ele>
<speed>0.6</speed>
<course>261.8</course>
<desc>Speed 0.6 km/h Distance 69.55 km</desc>
<time>2011-03-24T16:13:48.39</time>
<name>2824</name>
</trkpt>
<trkpt lat="49.356422" lon="9.149552">
<ele>233.0</ele>
<speed>9.6</speed>
<course>261.8</course>
<desc>Speed 9.6 km/h Distance 69.56 km</desc>
<time>2011-03-24T16:13:50.39</time>
<name>2825</name>
</trkpt>
<trkpt lat="49.356403" lon="9.149357">
<ele>232.5</ele>
<speed>26.9</speed>
<course>266.1</course>
<desc>Speed 26.9 km/h Distance 69.57 km</desc>
<time>2011-03-24T16:13:52.39</time>
<name>2826</name>
</trkpt>
<trkpt lat="49.356395" lon="9.149170">
<ele>232.0</ele>
<speed>23.5</speed>
<course>262.5</course>
<desc>Speed 23.5 km/h Distance 69.59 km</desc>
<time>2011-03-24T16:13:54.39</time>
<name>2827</name>
</trkpt>
<trkpt lat="49.356382" lon="9.149015">
<ele>231.5</ele>
<speed>20.6</speed>
<course>269.0</course>
<desc>Speed 20.6 km/h Distance 69.60 km</desc>
<time>2011-03-24T16:13:56.39</time>
<name>2828</name>
</trkpt>
<trkpt lat="49.356380" lon="9.148868">
<ele>231.0</ele>
<speed>16.7</speed>
<course>271.3</course>
<desc>Speed 16.7 km/h Distance 69.61 km</desc>
<time>2011-03-24T16:13:58.39</time>
<name>2829</name>
</trkpt>
<trkpt lat="49.356382" lon="9.148758">
<ele>231.0</ele>
<speed>14.5</speed>
<course>279.9</course>
<desc>Speed 14.5 km/h Distance 69.62 km</desc>
<time>2011-03-24T16:14:00.39</time>
<name>2830</name>
</trkpt>
<trkpt lat="49.356392" lon="9.148670">
<ele>228.5</ele>
<speed>10.4</speed>
<course>265.9</course>
<desc>Speed 10.4 km/h Distance 69.62 km</desc>
<time>2011-03-24T16:14:02.39</time>
<name>2831</name>
</trkpt>
<trkpt lat="49.356388" lon="9.148598">
<ele>228.0</ele>
<speed>9.3</speed>
<course>262.9</course>
<desc>Speed 9.3 km/h Distance 69.63 km</desc>
<time>2011-03-24T16:14:04.38</time>
<name>2832</name>
</trkpt>
<trkpt lat="49.356382" lon="9.148517">
<ele>228.0</ele>
<speed>11.2</speed>
<course>241.1</course>
<desc>Speed 11.2 km/h Distance 69.63 km</desc>
<time>2011-03-24T16:14:06.38</time>
<name>2833</name>
</trkpt>
<trkpt lat="49.356358" lon="9.148452">
<ele>227.0</ele>
<speed>9.9</speed>
<course>197.0</course>
<desc>Speed 9.9 km/h Distance 69.64 km</desc>
<time>2011-03-24T16:14:08.38</time>
<name>2834</name>
</trkpt>
<trkpt lat="49.356305" lon="9.148427">
<ele>225.5</ele>
<speed>8.0</speed>
<course>205.3</course>
<desc>Speed 8.0 km/h Distance 69.65 km</desc>
<time>2011-03-24T16:14:10.39</time>
<name>2835</name>
</trkpt>
<trkpt lat="49.356220" lon="9.148365">
<ele>225.5</ele>
<speed>17.9</speed>
<course>192.8</course>
<desc>Speed 17.9 km/h Distance 69.66 km</desc>
<time>2011-03-24T16:14:12.39</time>
<name>2836</name>
</trkpt>
<trkpt lat="49.356148" lon="9.148340">
<ele>225.0</ele>
<speed>14.3</speed>
<course>199.0</course>
<desc>Speed 14.3 km/h Distance 69.66 km</desc>
<time>2011-03-24T16:14:14.38</time>
<name>2837</name>
</trkpt>
<trkpt lat="49.356088" lon="9.148308">
<ele>224.5</ele>
<speed>12.5</speed>
<course>190.6</course>
<desc>Speed 12.5 km/h Distance 69.67 km</desc>
<time>2011-03-24T16:14:16.38</time>
<name>2838</name>
</trkpt>
<trkpt lat="49.356013" lon="9.148287">
<ele>224.0</ele>
<speed>17.4</speed>
<course>199.1</course>
<desc>Speed 17.4 km/h Distance 69.68 km</desc>
<time>2011-03-24T16:14:18.38</time>
<name>2839</name>
</trkpt>
<trkpt lat="49.355910" lon="9.148232">
<ele>222.5</ele>
<speed>24.4</speed>
<course>184.9</course>
<desc>Speed 24.4 km/h Distance 69.69 km</desc>
<time>2011-03-24T16:14:20.38</time>
<name>2840</name>
</trkpt>
<trkpt lat="49.355783" lon="9.148215">
<ele>221.5</ele>
<speed>25.4</speed>
<course>190.1</course>
<desc>Speed 25.4 km/h Distance 69.71 km</desc>
<time>2011-03-24T16:14:22.38</time>
<name>2841</name>
</trkpt>
<trkpt lat="49.355662" lon="9.148182">
<ele>221.5</ele>
<speed>24.6</speed>
<course>201.0</course>
<desc>Speed 24.6 km/h Distance 69.72 km</desc>
<time>2011-03-24T16:14:24.38</time>
<name>2842</name>
</trkpt>
<trkpt lat="49.355560" lon="9.148122">
<ele>220.5</ele>
<speed>20.7</speed>
<course>180.4</course>
<desc>Speed 20.7 km/h Distance 69.73 km</desc>
<time>2011-03-24T16:14:26.37</time>
<name>2843</name>
</trkpt>
<trkpt lat="49.355462" lon="9.148120">
<ele>219.0</ele>
<speed>26.6</speed>
<course>185.3</course>
<desc>Speed 26.6 km/h Distance 69.74 km</desc>
<time>2011-03-24T16:14:28.37</time>
<name>2844</name>
</trkpt>
<trkpt lat="49.355448" lon="9.148118">
<ele>218.5</ele>
<speed>3.1</speed>
<course>58.4</course>
<desc>Speed 3.1 km/h Distance 69.74 km</desc>
<time>2011-03-24T16:14:30.37</time>
<name>2845</name>
</trkpt>
<trkpt lat="49.355455" lon="9.148135">
<ele>217.5</ele>
<speed>1.1</speed>
<course>26.1</course>
<desc>Speed 1.1 km/h Distance 69.75 km</desc>
<time>2011-03-24T16:14:32.37</time>
<name>2846</name>
</trkpt>
<trkpt lat="49.355475" lon="9.148150">
<ele>216.5</ele>
<speed>1.6</speed>
<course>33.1</course>
<desc>Speed 1.6 km/h Distance 69.75 km</desc>
<time>2011-03-24T16:14:34.38</time>
<name>2847</name>
</trkpt>
<trkpt lat="49.355487" lon="9.148162">
<ele>216.0</ele>
<speed>0.5</speed>
<course>322.8</course>
<desc>Speed 0.5 km/h Distance 69.75 km</desc>
<time>2011-03-24T16:14:36.37</time>
<name>2848</name>
</trkpt>
<trkpt lat="49.355488" lon="9.148160">
<ele>215.5</ele>
<speed>0.3</speed>
<course>336.2</course>
<desc>Speed 0.3 km/h Distance 69.75 km</desc>
<time>2011-03-24T16:14:38.37</time>
<name>2849</name>
</trkpt>
<trkpt lat="49.355493" lon="9.148157">
<ele>215.0</ele>
<speed>0.6</speed>
<course>327.7</course>
<desc>Speed 0.6 km/h Distance 69.75 km</desc>
<time>2011-03-24T16:14:40.37</time>
<name>2850</name>
</trkpt>
<trkpt lat="49.355498" lon="9.148152">
<ele>214.0</ele>
<speed>0.1</speed>
<course>90.0</course>
<desc>Speed 0.1 km/h Distance 69.75 km</desc>
<time>2011-03-24T16:14:42.36</time>
<name>2851</name>
</trkpt>
<trkpt lat="49.355498" lon="9.148185">
<ele>214.0</ele>
<speed>7.9</speed>
<course>12.2</course>
<desc>Speed 7.9 km/h Distance 69.75 km</desc>
<time>2011-03-24T16:14:44.37</time>
<name>2852</name>
</trkpt>
<trkpt lat="49.355568" lon="9.148208">
<ele>214.0</ele>
<speed>17.9</speed>
<course>9.9</course>
<desc>Speed 17.9 km/h Distance 69.76 km</desc>
<time>2011-03-24T16:14:46.38</time>
<name>2853</name>
</trkpt>
<trkpt lat="49.355705" lon="9.148245">
<ele>214.5</ele>
<speed>26.9</speed>
<course>21.3</course>
<desc>Speed 26.9 km/h Distance 69.78 km</desc>
<time>2011-03-24T16:14:48.37</time>
<name>2854</name>
</trkpt>
<trkpt lat="49.355855" lon="9.148335">
<ele>214.0</ele>
<speed>34.3</speed>
<course>15.7</course>
<desc>Speed 34.3 km/h Distance 69.79 km</desc>
<time>2011-03-24T16:14:50.37</time>
<name>2855</name>
</trkpt>
<trkpt lat="49.356048" lon="9.148418">
<ele>214.0</ele>
<speed>34.3</speed>
<course>12.4</course>
<desc>Speed 34.3 km/h Distance 69.82 km</desc>
<time>2011-03-24T16:14:52.37</time>
<name>2856</name>
</trkpt>
<trkpt lat="49.356207" lon="9.148472">
<ele>214.0</ele>
<speed>35.4</speed>
<course>3.1</course>
<desc>Speed 35.4 km/h Distance 69.84 km</desc>
<time>2011-03-24T16:14:54.37</time>
<name>2857</name>
</trkpt>
<trkpt lat="49.356325" lon="9.148482">
<ele>213.0</ele>
<speed>8.7</speed>
<course>349.8</course>
<desc>Speed 8.7 km/h Distance 69.85 km</desc>
<time>2011-03-24T16:14:57.37</time>
<name>2858</name>
</trkpt>
<trkpt lat="49.356343" lon="9.148477">
<ele>213.0</ele>
<speed>0.4</speed>
<course>1.2</course>
<desc>Speed 0.4 km/h Distance 69.85 km</desc>
<time>2011-03-24T16:14:59.36</time>
<name>2859</name>
</trkpt>
<trkpt lat="49.356350" lon="9.148477">
<ele>212.5</ele>
<speed>0.3</speed>
<course>18.1</course>
<desc>Speed 0.3 km/h Distance 69.85 km</desc>
<time>2011-03-24T16:15:01.36</time>
<name>2860</name>
</trkpt>
<trkpt lat="49.356367" lon="9.148485">
<ele>212.0</ele>
<speed>2.1</speed>
<course>328.2</course>
<desc>Speed 2.1 km/h Distance 69.85 km</desc>
<time>2011-03-24T16:15:03.36</time>
<name>2861</name>
</trkpt>
<trkpt lat="49.356435" lon="9.148420">
<ele>211.5</ele>
<speed>22.7</speed>
<course>286.6</course>
<desc>Speed 22.7 km/h Distance 69.86 km</desc>
<time>2011-03-24T16:15:05.36</time>
<name>2862</name>
</trkpt>
<trkpt lat="49.356472" lon="9.148232">
<ele>211.5</ele>
<speed>24.4</speed>
<course>275.2</course>
<desc>Speed 24.4 km/h Distance 69.88 km</desc>
<time>2011-03-24T16:15:07.36</time>
<name>2863</name>
</trkpt>
<trkpt lat="49.356482" lon="9.148062">
<ele>211.5</ele>
<speed>20.8</speed>
<course>289.4</course>
<desc>Speed 20.8 km/h Distance 69.89 km</desc>
<time>2011-03-24T16:15:09.36</time>
<name>2864</name>
</trkpt>
<trkpt lat="49.356515" lon="9.147917">
<ele>211.5</ele>
<speed>17.8</speed>
<course>286.6</course>
<desc>Speed 17.8 km/h Distance 69.90 km</desc>
<time>2011-03-24T16:15:11.36</time>
<name>2865</name>
</trkpt>
<trkpt lat="49.356527" lon="9.147857">
<ele>211.5</ele>
<speed>5.8</speed>
<course>90.0</course>
<desc>Speed 5.8 km/h Distance 69.90 km</desc>
<time>2011-03-24T16:15:13.36</time>
<name>2866</name>
</trkpt>
<trkpt lat="49.356527" lon="9.147860">
<ele>211.5</ele>
<speed>1.1</speed>
<course>171.9</course>
<desc>Speed 1.1 km/h Distance 69.90 km</desc>
<time>2011-03-24T16:15:15.35</time>
<name>2867</name>
</trkpt>
<trkpt lat="49.356522" lon="9.147862">
<ele>211.0</ele>
<speed>0.4</speed>
<course>274.2</course>
<desc>Speed 0.4 km/h Distance 69.91 km</desc>
<time>2011-03-24T16:15:17.36</time>
<name>2868</name>
</trkpt>
<trkpt lat="49.356527" lon="9.147758">
<ele>211.0</ele>
<speed>23.5</speed>
<course>279.8</course>
<desc>Speed 23.5 km/h Distance 69.91 km</desc>
<time>2011-03-24T16:15:19.36</time>
<name>2869</name>
</trkpt>
<trkpt lat="49.356545" lon="9.147595">
<ele>210.5</ele>
<speed>21.8</speed>
<course>249.4</course>
<desc>Speed 21.8 km/h Distance 69.92 km</desc>
<time>2011-03-24T16:15:21.36</time>
<name>2870</name>
</trkpt>
<trkpt lat="49.356508" lon="9.147445">
<ele>210.5</ele>
<speed>21.8</speed>
<course>207.0</course>
<desc>Speed 21.8 km/h Distance 69.94 km</desc>
<time>2011-03-24T16:15:23.36</time>
<name>2871</name>
</trkpt>
<trkpt lat="49.356363" lon="9.147332">
<ele>210.5</ele>
<speed>36.4</speed>
<course>205.4</course>
<desc>Speed 36.4 km/h Distance 69.95 km</desc>
<time>2011-03-24T16:15:25.36</time>
<name>2872</name>
</trkpt>
<trkpt lat="49.356160" lon="9.147183">
<ele>210.0</ele>
<speed>47.5</speed>
<course>202.2</course>
<desc>Speed 47.5 km/h Distance 69.98 km</desc>
<time>2011-03-24T16:15:27.36</time>
<name>2873</name>
</trkpt>
<trkpt lat="49.355947" lon="9.147050">
<ele>209.5</ele>
<speed>44.7</speed>
<course>207.6</course>
<desc>Speed 44.7 km/h Distance 70.01 km</desc>
<time>2011-03-24T16:15:29.35</time>
<name>2874</name>
</trkpt>
<trkpt lat="49.355762" lon="9.146902">
<ele>209.0</ele>
<speed>44.2</speed>
<course>209.5</course>
<desc>Speed 44.2 km/h Distance 70.03 km</desc>
<time>2011-03-24T16:15:31.35</time>
<name>2875</name>
</trkpt>
<trkpt lat="49.355560" lon="9.146727">
<ele>208.0</ele>
<speed>45.1</speed>
<course>213.6</course>
<desc>Speed 45.1 km/h Distance 70.05 km</desc>
<time>2011-03-24T16:15:33.35</time>
<name>2876</name>
</trkpt>
<trkpt lat="49.355387" lon="9.146550">
<ele>208.0</ele>
<speed>39.7</speed>
<course>203.8</course>
<desc>Speed 39.7 km/h Distance 70.08 km</desc>
<time>2011-03-24T16:15:35.35</time>
<name>2877</name>
</trkpt>
<trkpt lat="49.355232" lon="9.146445">
<ele>207.5</ele>
<speed>26.9</speed>
<course>208.9</course>
<desc>Speed 26.9 km/h Distance 70.10 km</desc>
<time>2011-03-24T16:15:37.34</time>
<name>2878</name>
</trkpt>
<trkpt lat="49.355155" lon="9.146380">
<ele>207.5</ele>
<speed>14.4</speed>
<course>214.9</course>
<desc>Speed 14.4 km/h Distance 70.11 km</desc>
<time>2011-03-24T16:15:39.35</time>
<name>2879</name>
</trkpt>
<trkpt lat="49.355108" lon="9.146330">
<ele>207.0</ele>
<speed>12.1</speed>
<course>225.9</course>
<desc>Speed 12.1 km/h Distance 70.11 km</desc>
<time>2011-03-24T16:15:41.34</time>
<name>2880</name>
</trkpt>
<trkpt lat="49.355088" lon="9.146298">
<ele>207.0</ele>
<speed>6.5</speed>
<course>230.9</course>
<desc>Speed 6.5 km/h Distance 70.12 km</desc>
<time>2011-03-24T16:15:43.34</time>
<name>2881</name>
</trkpt>
<trkpt lat="49.355073" lon="9.146270">
<ele>206.0</ele>
<speed>4.1</speed>
<course>157.0</course>
<desc>Speed 4.1 km/h Distance 70.12 km</desc>
<time>2011-03-24T16:15:45.34</time>
<name>2882</name>
</trkpt>
<trkpt lat="49.355040" lon="9.146292">
<ele>205.5</ele>
<speed>4.1</speed>
<course>153.6</course>
<desc>Speed 4.1 km/h Distance 70.12 km</desc>
<time>2011-03-24T16:15:47.35</time>
<name>2883</name>
</trkpt>
<trkpt lat="49.355033" lon="9.146297">
<ele>204.5</ele>
<speed>0.8</speed>
<course>2.2</course>
<desc>Speed 0.8 km/h Distance 70.12 km</desc>
<time>2011-03-24T16:15:49.34</time>
<name>2884</name>
</trkpt>
<trkpt lat="49.355045" lon="9.146297">
<ele>203.5</ele>
<speed>0.2</speed>
<course>44.5</course>
<desc>Speed 0.2 km/h Distance 70.12 km</desc>
<time>2011-03-24T16:15:51.34</time>
<name>2885</name>
</trkpt>
<trkpt lat="49.355048" lon="9.146302">
<ele>203.5</ele>
<speed>0.6</speed>
<course>51.9</course>
<desc>Speed 0.6 km/h Distance 70.12 km</desc>
<time>2011-03-24T16:15:53.34</time>
<name>2886</name>
</trkpt>
<trkpt lat="49.355050" lon="9.146305">
<ele>203.5</ele>
<speed>0.9</speed>
<course>226.4</course>
<desc>Speed 0.9 km/h Distance 70.13 km</desc>
<time>2011-03-24T16:15:55.35</time>
<name>2887</name>
</trkpt>
<trkpt lat="49.354998" lon="9.146222">
<ele>203.5</ele>
<speed>0.9</speed>
<course>212.9</course>
<desc>Speed 0.9 km/h Distance 70.13 km</desc>
<time>2011-03-24T16:15:57.34</time>
<name>2888</name>
</trkpt>
<trkpt lat="49.354780" lon="9.146005">
<ele>203.0</ele>
<speed>32.7</speed>
<course>226.7</course>
<desc>Speed 32.7 km/h Distance 70.16 km</desc>
<time>2011-03-24T16:16:00.33</time>
<name>2889</name>
</trkpt>
<trkpt lat="49.354653" lon="9.145798">
<ele>205.0</ele>
<speed>35.0</speed>
<course>238.2</course>
<desc>Speed 35.0 km/h Distance 70.18 km</desc>
<time>2011-03-24T16:16:02.34</time>
<name>2890</name>
</trkpt>
<trkpt lat="49.354552" lon="9.145547">
<ele>205.5</ele>
<speed>38.6</speed>
<course>258.2</course>
<desc>Speed 38.6 km/h Distance 70.20 km</desc>
<time>2011-03-24T16:16:04.34</time>
<name>2891</name>
</trkpt>
<trkpt lat="49.354510" lon="9.145242">
<ele>206.0</ele>
<speed>40.6</speed>
<course>257.9</course>
<desc>Speed 40.6 km/h Distance 70.23 km</desc>
<time>2011-03-24T16:16:06.34</time>
<name>2892</name>
</trkpt>
<trkpt lat="49.354470" lon="9.144955">
<ele>205.5</ele>
<speed>36.0</speed>
<course>249.1</course>
<desc>Speed 36.0 km/h Distance 70.25 km</desc>
<time>2011-03-24T16:16:08.33</time>
<name>2893</name>
</trkpt>
<trkpt lat="49.354407" lon="9.144700">
<ele>204.0</ele>
<speed>31.2</speed>
<course>244.0</course>
<desc>Speed 31.2 km/h Distance 70.27 km</desc>
<time>2011-03-24T16:16:10.34</time>
<name>2894</name>
</trkpt>
<trkpt lat="49.354348" lon="9.144517">
<ele>203.0</ele>
<speed>22.1</speed>
<course>207.4</course>
<desc>Speed 22.1 km/h Distance 70.28 km</desc>
<time>2011-03-24T16:16:12.33</time>
<name>2895</name>
</trkpt>
<trkpt lat="49.354275" lon="9.144458">
<ele>203.0</ele>
<speed>13.6</speed>
<course>226.7</course>
<desc>Speed 13.6 km/h Distance 70.29 km</desc>
<time>2011-03-24T16:16:14.33</time>
<name>2896</name>
</trkpt>
<trkpt lat="49.354243" lon="9.144407">
<ele>203.0</ele>
<speed>8.0</speed>
<course>228.7</course>
<desc>Speed 8.0 km/h Distance 70.30 km</desc>
<time>2011-03-24T16:16:16.32</time>
<name>2897</name>
</trkpt>
<trkpt lat="49.354230" lon="9.144383">
<ele>203.0</ele>
<speed>1.3</speed>
<course>270.0</course>
<desc>Speed 1.3 km/h Distance 70.30 km</desc>
<time>2011-03-24T16:16:18.33</time>
<name>2898</name>
</trkpt>
<trkpt lat="49.354230" lon="9.144382">
<ele>203.0</ele>
<speed>0.2</speed>
<course>341.2</course>
<desc>Speed 0.2 km/h Distance 70.30 km</desc>
<time>2011-03-24T16:16:20.33</time>
<name>2899</name>
</trkpt>
<trkpt lat="49.354233" lon="9.144380">
<ele>202.5</ele>
<speed>0.2</speed>
<course>308.1</course>
<desc>Speed 0.2 km/h Distance 70.30 km</desc>
<time>2011-03-24T16:16:22.32</time>
<name>2900</name>
</trkpt>
<trkpt lat="49.354235" lon="9.144377">
<ele>202.5</ele>
<speed>0.4</speed>
<course>322.8</course>
<desc>Speed 0.4 km/h Distance 70.30 km</desc>
<time>2011-03-24T16:16:24.33</time>
<name>2901</name>
</trkpt>
<trkpt lat="49.354237" lon="9.144375">
<ele>202.0</ele>
<speed>0.6</speed>
<course>322.8</course>
<desc>Speed 0.6 km/h Distance 70.30 km</desc>
<time>2011-03-24T16:16:26.33</time>
<name>2902</name>
</trkpt>
<trkpt lat="49.354237" lon="9.144375">
<ele>202.0</ele>
<speed>0.1</speed>
<course>322.8</course>
<desc>Speed 0.1 km/h Distance 70.30 km</desc>
<time>2011-03-24T16:16:28.33</time>
<name>2903</name>
</trkpt>
<trkpt lat="49.354238" lon="9.144373">
<ele>202.0</ele>
<speed>0.4</speed>
<course>0.0</course>
<desc>Speed 0.4 km/h Distance 70.30 km</desc>
<time>2011-03-24T16:16:30.32</time>
<name>2904</name>
</trkpt>
<trkpt lat="49.354240" lon="9.144373">
<ele>202.0</ele>
<speed>0.2</speed>
<course>230.0</course>
<desc>Speed 0.2 km/h Distance 70.30 km</desc>
<time>2011-03-24T16:16:32.32</time>
<name>2905</name>
</trkpt>
<trkpt lat="49.354230" lon="9.144355">
<ele>202.0</ele>
<speed>5.1</speed>
<course>226.6</course>
<desc>Speed 5.1 km/h Distance 70.30 km</desc>
<time>2011-03-24T16:16:34.32</time>
<name>2906</name>
</trkpt>
<trkpt lat="49.354163" lon="9.144247">
<ele>204.5</ele>
<speed>24.9</speed>
<course>210.0</course>
<desc>Speed 24.9 km/h Distance 70.31 km</desc>
<time>2011-03-24T16:16:36.32</time>
<name>2907</name>
</trkpt>
<trkpt lat="49.354033" lon="9.144132">
<ele>204.0</ele>
<speed>33.2</speed>
<course>198.9</course>
<desc>Speed 33.2 km/h Distance 70.33 km</desc>
<time>2011-03-24T16:16:38.32</time>
<name>2908</name>
</trkpt>
<trkpt lat="49.353868" lon="9.144045">
<ele>203.5</ele>
<speed>36.0</speed>
<course>185.2</course>
<desc>Speed 36.0 km/h Distance 70.35 km</desc>
<time>2011-03-24T16:16:40.32</time>
<name>2909</name>
</trkpt>
<trkpt lat="49.353665" lon="9.144017">
<ele>202.5</ele>
<speed>40.5</speed>
<course>182.3</course>
<desc>Speed 40.5 km/h Distance 70.37 km</desc>
<time>2011-03-24T16:16:42.32</time>
<name>2910</name>
</trkpt>
<trkpt lat="49.353445" lon="9.144003">
<ele>202.5</ele>
<speed>46.6</speed>
<course>182.7</course>
<desc>Speed 46.6 km/h Distance 70.40 km</desc>
<time>2011-03-24T16:16:44.32</time>
<name>2911</name>
</trkpt>
<trkpt lat="49.353193" lon="9.143985">
<ele>202.0</ele>
<speed>52.1</speed>
<course>183.2</course>
<desc>Speed 52.1 km/h Distance 70.42 km</desc>
<time>2011-03-24T16:16:46.32</time>
<name>2912</name>
</trkpt>
<trkpt lat="49.352942" lon="9.143963">
<ele>202.0</ele>
<speed>51.2</speed>
<course>183.9</course>
<desc>Speed 51.2 km/h Distance 70.45 km</desc>
<time>2011-03-24T16:16:48.32</time>
<name>2913</name>
</trkpt>
<trkpt lat="49.352688" lon="9.143937">
<ele>202.0</ele>
<speed>50.8</speed>
<course>186.8</course>
<desc>Speed 50.8 km/h Distance 70.48 km</desc>
<time>2011-03-24T16:16:50.32</time>
<name>2914</name>
</trkpt>
<trkpt lat="49.352443" lon="9.143892">
<ele>203.0</ele>
<speed>49.2</speed>
<course>194.1</course>
<desc>Speed 49.2 km/h Distance 70.51 km</desc>
<time>2011-03-24T16:16:52.32</time>
<name>2915</name>
</trkpt>
<trkpt lat="49.352197" lon="9.143797">
<ele>201.5</ele>
<speed>51.7</speed>
<course>203.9</course>
<desc>Speed 51.7 km/h Distance 70.54 km</desc>
<time>2011-03-24T16:16:54.33</time>
<name>2916</name>
</trkpt>
<trkpt lat="49.351935" lon="9.143618">
<ele>202.5</ele>
<speed>60.3</speed>
<course>207.5</course>
<desc>Speed 60.3 km/h Distance 70.57 km</desc>
<time>2011-03-24T16:16:56.32</time>
<name>2917</name>
</trkpt>
<trkpt lat="49.351687" lon="9.143420">
<ele>203.0</ele>
<speed>55.4</speed>
<course>211.6</course>
<desc>Speed 55.4 km/h Distance 70.60 km</desc>
<time>2011-03-24T16:16:58.32</time>
<name>2918</name>
</trkpt>
<trkpt lat="49.351450" lon="9.143197">
<ele>203.5</ele>
<speed>56.0</speed>
<course>216.2</course>
<desc>Speed 56.0 km/h Distance 70.63 km</desc>
<time>2011-03-24T16:17:00.32</time>
<name>2919</name>
</trkpt>
<trkpt lat="49.351223" lon="9.142942">
<ele>202.0</ele>
<speed>56.1</speed>
<course>221.4</course>
<desc>Speed 56.1 km/h Distance 70.66 km</desc>
<time>2011-03-24T16:17:02.32</time>
<name>2920</name>
</trkpt>
<trkpt lat="49.351020" lon="9.142667">
<ele>200.5</ele>
<speed>54.0</speed>
<course>224.6</course>
<desc>Speed 54.0 km/h Distance 70.69 km</desc>
<time>2011-03-24T16:17:04.32</time>
<name>2921</name>
</trkpt>
<trkpt lat="49.350835" lon="9.142387">
<ele>200.0</ele>
<speed>51.5</speed>
<course>234.9</course>
<desc>Speed 51.5 km/h Distance 70.72 km</desc>
<time>2011-03-24T16:17:06.31</time>
<name>2922</name>
</trkpt>
<trkpt lat="49.350697" lon="9.142085">
<ele>200.0</ele>
<speed>47.7</speed>
<course>234.8</course>
<desc>Speed 47.7 km/h Distance 70.75 km</desc>
<time>2011-03-24T16:17:08.32</time>
<name>2923</name>
</trkpt>
<trkpt lat="49.350583" lon="9.141838">
<ele>199.0</ele>
<speed>38.5</speed>
<course>235.3</course>
<desc>Speed 38.5 km/h Distance 70.77 km</desc>
<time>2011-03-24T16:17:10.32</time>
<name>2924</name>
</trkpt>
<trkpt lat="49.350482" lon="9.141613">
<ele>199.5</ele>
<speed>35.0</speed>
<course>235.7</course>
<desc>Speed 35.0 km/h Distance 70.79 km</desc>
<time>2011-03-24T16:17:12.31</time>
<name>2925</name>
</trkpt>
<trkpt lat="49.350382" lon="9.141388">
<ele>199.5</ele>
<speed>36.4</speed>
<course>235.5</course>
<desc>Speed 36.4 km/h Distance 70.81 km</desc>
<time>2011-03-24T16:17:14.31</time>
<name>2926</name>
</trkpt>
<trkpt lat="49.350268" lon="9.141135">
<ele>199.5</ele>
<speed>39.9</speed>
<course>234.9</course>
<desc>Speed 39.9 km/h Distance 70.83 km</desc>
<time>2011-03-24T16:17:16.31</time>
<name>2927</name>
</trkpt>
<trkpt lat="49.350148" lon="9.140873">
<ele>199.0</ele>
<speed>42.2</speed>
<course>232.5</course>
<desc>Speed 42.2 km/h Distance 70.86 km</desc>
<time>2011-03-24T16:17:18.31</time>
<name>2928</name>
</trkpt>
<trkpt lat="49.350007" lon="9.140590">
<ele>199.0</ele>
<speed>48.0</speed>
<course>233.9</course>
<desc>Speed 48.0 km/h Distance 70.88 km</desc>
<time>2011-03-24T16:17:20.31</time>
<name>2929</name>
</trkpt>
<trkpt lat="49.349867" lon="9.140295">
<ele>199.0</ele>
<speed>46.7</speed>
<course>234.2</course>
<desc>Speed 46.7 km/h Distance 70.91 km</desc>
<time>2011-03-24T16:17:22.31</time>
<name>2930</name>
</trkpt>
<trkpt lat="49.349747" lon="9.140040">
<ele>197.5</ele>
<speed>39.5</speed>
<course>232.9</course>
<desc>Speed 39.5 km/h Distance 70.93 km</desc>
<time>2011-03-24T16:17:24.31</time>
<name>2931</name>
</trkpt>
<trkpt lat="49.349645" lon="9.139833">
<ele>198.5</ele>
<speed>32.7</speed>
<course>234.2</course>
<desc>Speed 32.7 km/h Distance 70.95 km</desc>
<time>2011-03-24T16:17:26.31</time>
<name>2932</name>
</trkpt>
<trkpt lat="49.349557" lon="9.139645">
<ele>198.5</ele>
<speed>31.8</speed>
<course>233.1</course>
<desc>Speed 31.8 km/h Distance 70.97 km</desc>
<time>2011-03-24T16:17:28.31</time>
<name>2933</name>
</trkpt>
<trkpt lat="49.349475" lon="9.139478">
<ele>198.0</ele>
<speed>28.8</speed>
<course>236.0</course>
<desc>Speed 28.8 km/h Distance 70.98 km</desc>
<time>2011-03-24T16:17:30.30</time>
<name>2934</name>
</trkpt>
<trkpt lat="49.349385" lon="9.139273">
<ele>197.5</ele>
<speed>36.7</speed>
<course>235.5</course>
<desc>Speed 36.7 km/h Distance 71.00 km</desc>
<time>2011-03-24T16:17:32.31</time>
<name>2935</name>
</trkpt>
<trkpt lat="49.349277" lon="9.139032">
<ele>197.0</ele>
<speed>37.5</speed>
<course>235.8</course>
<desc>Speed 37.5 km/h Distance 71.02 km</desc>
<time>2011-03-24T16:17:34.30</time>
<name>2936</name>
</trkpt>
<trkpt lat="49.349167" lon="9.138783">
<ele>199.0</ele>
<speed>41.0</speed>
<course>234.1</course>
<desc>Speed 41.0 km/h Distance 71.04 km</desc>
<time>2011-03-24T16:17:36.30</time>
<name>2937</name>
</trkpt>
<trkpt lat="49.349038" lon="9.138512">
<ele>199.5</ele>
<speed>44.3</speed>
<course>233.1</course>
<desc>Speed 44.3 km/h Distance 71.07 km</desc>
<time>2011-03-24T16:17:38.30</time>
<name>2938</name>
</trkpt>
<trkpt lat="49.348900" lon="9.138228">
<ele>200.0</ele>
<speed>48.0</speed>
<course>220.1</course>
<desc>Speed 48.0 km/h Distance 71.09 km</desc>
<time>2011-03-24T16:17:40.31</time>
<name>2939</name>
</trkpt>
<trkpt lat="49.348707" lon="9.137978">
<ele>200.0</ele>
<speed>49.5</speed>
<course>214.9</course>
<desc>Speed 49.5 km/h Distance 71.12 km</desc>
<time>2011-03-24T16:17:42.30</time>
<name>2940</name>
</trkpt>
<trkpt lat="49.348538" lon="9.137798">
<ele>200.0</ele>
<speed>40.4</speed>
<course>226.0</course>
<desc>Speed 40.4 km/h Distance 71.14 km</desc>
<time>2011-03-24T16:17:44.30</time>
<name>2941</name>
</trkpt>
<trkpt lat="49.348425" lon="9.137618">
<ele>200.5</ele>
<speed>31.8</speed>
<course>250.0</course>
<desc>Speed 31.8 km/h Distance 71.16 km</desc>
<time>2011-03-24T16:17:46.30</time>
<name>2942</name>
</trkpt>
<trkpt lat="49.348372" lon="9.137393">
<ele>201.0</ele>
<speed>31.2</speed>
<course>227.0</course>
<desc>Speed 31.2 km/h Distance 71.18 km</desc>
<time>2011-03-24T16:17:48.30</time>
<name>2943</name>
</trkpt>
<trkpt lat="49.348250" lon="9.137193">
<ele>200.5</ele>
<speed>40.2</speed>
<course>229.3</course>
<desc>Speed 40.2 km/h Distance 71.20 km</desc>
<time>2011-03-24T16:17:50.30</time>
<name>2944</name>
</trkpt>
<trkpt lat="49.348180" lon="9.137068">
<ele>200.5</ele>
<speed>44.7</speed>
<course>233.8</course>
<desc>Speed 44.7 km/h Distance 71.21 km</desc>
<time>2011-03-24T16:17:51.30</time>
<name>2945</name>
</trkpt>
<trkpt lat="49.348027" lon="9.136747">
<ele>199.0</ele>
<speed>45.0</speed>
<course>234.6</course>
<desc>Speed 45.0 km/h Distance 71.24 km</desc>
<time>2011-03-24T16:17:53.30</time>
<name>2946</name>
</trkpt>
<trkpt lat="49.347882" lon="9.136433">
<ele>198.5</ele>
<speed>49.3</speed>
<course>232.2</course>
<desc>Speed 49.3 km/h Distance 71.27 km</desc>
<time>2011-03-24T16:17:55.31</time>
<name>2947</name>
</trkpt>
<trkpt lat="49.347740" lon="9.136153">
<ele>198.5</ele>
<speed>43.4</speed>
<course>228.6</course>
<desc>Speed 43.4 km/h Distance 71.29 km</desc>
<time>2011-03-24T16:17:57.30</time>
<name>2948</name>
</trkpt>
<trkpt lat="49.347675" lon="9.136040">
<ele>198.0</ele>
<speed>42.3</speed>
<course>228.8</course>
<desc>Speed 42.3 km/h Distance 71.30 km</desc>
<time>2011-03-24T16:17:58.30</time>
<name>2949</name>
</trkpt>
<trkpt lat="49.347607" lon="9.135920">
<ele>198.0</ele>
<speed>42.6</speed>
<course>228.8</course>
<desc>Speed 42.6 km/h Distance 71.32 km</desc>
<time>2011-03-24T16:17:59.30</time>
<name>2950</name>
</trkpt>
<trkpt lat="49.347538" lon="9.135800">
<ele>198.0</ele>
<speed>41.4</speed>
<course>231.0</course>
<desc>Speed 41.4 km/h Distance 71.33 km</desc>
<time>2011-03-24T16:18:00.30</time>
<name>2951</name>
</trkpt>
<trkpt lat="49.347475" lon="9.135680">
<ele>197.5</ele>
<speed>40.0</speed>
<course>230.5</course>
<desc>Speed 40.0 km/h Distance 71.34 km</desc>
<time>2011-03-24T16:18:01.30</time>
<name>2952</name>
</trkpt>
<trkpt lat="49.347415" lon="9.135568">
<ele>197.5</ele>
<speed>38.1</speed>
<course>230.8</course>
<desc>Speed 38.1 km/h Distance 71.35 km</desc>
<time>2011-03-24T16:18:02.29</time>
<name>2953</name>
</trkpt>
<trkpt lat="49.347358" lon="9.135462">
<ele>197.0</ele>
<speed>35.3</speed>
<course>229.0</course>
<desc>Speed 35.3 km/h Distance 71.36 km</desc>
<time>2011-03-24T16:18:03.29</time>
<name>2954</name>
</trkpt>
<trkpt lat="49.347308" lon="9.135373">
<ele>197.0</ele>
<speed>30.8</speed>
<course>226.7</course>
<desc>Speed 30.8 km/h Distance 71.37 km</desc>
<time>2011-03-24T16:18:04.29</time>
<name>2955</name>
</trkpt>
<trkpt lat="49.347263" lon="9.135300">
<ele>197.0</ele>
<speed>26.2</speed>
<course>227.1</course>
<desc>Speed 26.2 km/h Distance 71.37 km</desc>
<time>2011-03-24T16:18:05.29</time>
<name>2956</name>
</trkpt>
<trkpt lat="49.347225" lon="9.135237">
<ele>197.0</ele>
<speed>22.6</speed>
<course>225.6</course>
<desc>Speed 22.6 km/h Distance 71.38 km</desc>
<time>2011-03-24T16:18:06.29</time>
<name>2957</name>
</trkpt>
<trkpt lat="49.347187" lon="9.135177">
<ele>197.5</ele>
<speed>22.7</speed>
<course>226.9</course>
<desc>Speed 22.7 km/h Distance 71.39 km</desc>
<time>2011-03-24T16:18:07.29</time>
<name>2958</name>
</trkpt>
<trkpt lat="49.347145" lon="9.135108">
<ele>197.0</ele>
<speed>24.1</speed>
<course>227.8</course>
<desc>Speed 24.1 km/h Distance 71.39 km</desc>
<time>2011-03-24T16:18:08.29</time>
<name>2959</name>
</trkpt>
<trkpt lat="49.347107" lon="9.135043">
<ele>197.0</ele>
<speed>22.9</speed>
<course>224.8</course>
<desc>Speed 22.9 km/h Distance 71.40 km</desc>
<time>2011-03-24T16:18:09.29</time>
<name>2960</name>
</trkpt>
<trkpt lat="49.347068" lon="9.134985">
<ele>197.5</ele>
<speed>21.5</speed>
<course>225.7</course>
<desc>Speed 21.5 km/h Distance 71.41 km</desc>
<time>2011-03-24T16:18:10.28</time>
<name>2961</name>
</trkpt>
<trkpt lat="49.347033" lon="9.134930">
<ele>197.5</ele>
<speed>19.9</speed>
<course>230.9</course>
<desc>Speed 19.9 km/h Distance 71.41 km</desc>
<time>2011-03-24T16:18:11.29</time>
<name>2962</name>
</trkpt>
<trkpt lat="49.347003" lon="9.134873">
<ele>198.0</ele>
<speed>19.0</speed>
<course>230.1</course>
<desc>Speed 19.0 km/h Distance 71.42 km</desc>
<time>2011-03-24T16:18:12.29</time>
<name>2963</name>
</trkpt>
<trkpt lat="49.346973" lon="9.134818">
<ele>198.0</ele>
<speed>18.5</speed>
<course>228.7</course>
<desc>Speed 18.5 km/h Distance 71.42 km</desc>
<time>2011-03-24T16:18:13.29</time>
<name>2964</name>
</trkpt>
<trkpt lat="49.346947" lon="9.134772">
<ele>198.0</ele>
<speed>15.4</speed>
<course>239.4</course>
<desc>Speed 15.4 km/h Distance 71.43 km</desc>
<time>2011-03-24T16:18:14.28</time>
<name>2965</name>
</trkpt>
<trkpt lat="49.346930" lon="9.134728">
<ele>198.0</ele>
<speed>13.0</speed>
<course>231.4</course>
<desc>Speed 13.0 km/h Distance 71.43 km</desc>
<time>2011-03-24T16:18:15.29</time>
<name>2966</name>
</trkpt>
<trkpt lat="49.346908" lon="9.134687">
<ele>198.0</ele>
<speed>14.6</speed>
<course>232.5</course>
<desc>Speed 14.6 km/h Distance 71.43 km</desc>
<time>2011-03-24T16:18:16.29</time>
<name>2967</name>
</trkpt>
<trkpt lat="49.346878" lon="9.134627">
<ele>198.0</ele>
<speed>19.5</speed>
<course>227.4</course>
<desc>Speed 19.5 km/h Distance 71.44 km</desc>
<time>2011-03-24T16:18:17.29</time>
<name>2968</name>
</trkpt>
<trkpt lat="49.346838" lon="9.134560">
<ele>200.0</ele>
<speed>24.5</speed>
<course>227.4</course>
<desc>Speed 24.5 km/h Distance 71.45 km</desc>
<time>2011-03-24T16:18:18.28</time>
<name>2969</name>
</trkpt>
<trkpt lat="49.346788" lon="9.134477">
<ele>199.5</ele>
<speed>29.4</speed>
<course>228.6</course>
<desc>Speed 29.4 km/h Distance 71.45 km</desc>
<time>2011-03-24T16:18:19.29</time>
<name>2970</name>
</trkpt>
<trkpt lat="49.346737" lon="9.134387">
<ele>199.5</ele>
<speed>30.7</speed>
<course>226.4</course>
<desc>Speed 30.7 km/h Distance 71.46 km</desc>
<time>2011-03-24T16:18:20.29</time>
<name>2971</name>
</trkpt>
<trkpt lat="49.346685" lon="9.134303">
<ele>200.0</ele>
<speed>29.6</speed>
<course>226.6</course>
<desc>Speed 29.6 km/h Distance 71.47 km</desc>
<time>2011-03-24T16:18:21.28</time>
<name>2972</name>
</trkpt>
<trkpt lat="49.346632" lon="9.134217">
<ele>200.0</ele>
<speed>30.7</speed>
<course>227.0</course>
<desc>Speed 30.7 km/h Distance 71.48 km</desc>
<time>2011-03-24T16:18:22.29</time>
<name>2973</name>
</trkpt>
<trkpt lat="49.346575" lon="9.134123">
<ele>200.0</ele>
<speed>33.8</speed>
<course>230.8</course>
<desc>Speed 33.8 km/h Distance 71.49 km</desc>
<time>2011-03-24T16:18:23.29</time>
<name>2974</name>
</trkpt>
<trkpt lat="49.346518" lon="9.134017">
<ele>200.0</ele>
<speed>35.7</speed>
<course>227.8</course>
<desc>Speed 35.7 km/h Distance 71.50 km</desc>
<time>2011-03-24T16:18:24.29</time>
<name>2975</name>
</trkpt>
<trkpt lat="49.346453" lon="9.133907">
<ele>201.0</ele>
<speed>38.6</speed>
<course>227.9</course>
<desc>Speed 38.6 km/h Distance 71.51 km</desc>
<time>2011-03-24T16:18:25.29</time>
<name>2976</name>
</trkpt>
<trkpt lat="49.346382" lon="9.133785">
<ele>202.0</ele>
<speed>43.4</speed>
<course>227.7</course>
<desc>Speed 43.4 km/h Distance 71.52 km</desc>
<time>2011-03-24T16:18:26.28</time>
<name>2977</name>
</trkpt>
<trkpt lat="49.346302" lon="9.133650">
<ele>202.0</ele>
<speed>46.2</speed>
<course>229.7</course>
<desc>Speed 46.2 km/h Distance 71.54 km</desc>
<time>2011-03-24T16:18:27.28</time>
<name>2978</name>
</trkpt>
<trkpt lat="49.346222" lon="9.133505">
<ele>201.0</ele>
<speed>49.8</speed>
<course>230.8</course>
<desc>Speed 49.8 km/h Distance 71.55 km</desc>
<time>2011-03-24T16:18:28.29</time>
<name>2979</name>
</trkpt>
<trkpt lat="49.346138" lon="9.133348">
<ele>202.5</ele>
<speed>53.4</speed>
<course>231.9</course>
<desc>Speed 53.4 km/h Distance 71.56 km</desc>
<time>2011-03-24T16:18:29.29</time>
<name>2980</name>
</trkpt>
<trkpt lat="49.346053" lon="9.133182">
<ele>202.5</ele>
<speed>55.8</speed>
<course>231.0</course>
<desc>Speed 55.8 km/h Distance 71.58 km</desc>
<time>2011-03-24T16:18:30.29</time>
<name>2981</name>
</trkpt>
<trkpt lat="49.345972" lon="9.133027">
<ele>202.5</ele>
<speed>52.1</speed>
<course>230.9</course>
<desc>Speed 52.1 km/h Distance 71.59 km</desc>
<time>2011-03-24T16:18:31.29</time>
<name>2982</name>
</trkpt>
<trkpt lat="49.345897" lon="9.132885">
<ele>203.0</ele>
<speed>48.5</speed>
<course>230.4</course>
<desc>Speed 48.5 km/h Distance 71.61 km</desc>
<time>2011-03-24T16:18:32.29</time>
<name>2983</name>
</trkpt>
<trkpt lat="49.345827" lon="9.132755">
<ele>203.0</ele>
<speed>44.9</speed>
<course>229.7</course>
<desc>Speed 44.9 km/h Distance 71.62 km</desc>
<time>2011-03-24T16:18:33.28</time>
<name>2984</name>
</trkpt>
<trkpt lat="49.345757" lon="9.132628">
<ele>203.5</ele>
<speed>44.8</speed>
<course>226.9</course>
<desc>Speed 44.8 km/h Distance 71.63 km</desc>
<time>2011-03-24T16:18:34.28</time>
<name>2985</name>
</trkpt>
<trkpt lat="49.345687" lon="9.132513">
<ele>204.0</ele>
<speed>41.7</speed>
<course>224.1</course>
<desc>Speed 41.7 km/h Distance 71.64 km</desc>
<time>2011-03-24T16:18:35.28</time>
<name>2986</name>
</trkpt>
<trkpt lat="49.345618" lon="9.132412">
<ele>204.0</ele>
<speed>38.7</speed>
<course>222.2</course>
<desc>Speed 38.7 km/h Distance 71.65 km</desc>
<time>2011-03-24T16:18:36.29</time>
<name>2987</name>
</trkpt>
<trkpt lat="49.345550" lon="9.132317">
<ele>205.0</ele>
<speed>37.6</speed>
<course>221.1</course>
<desc>Speed 37.6 km/h Distance 71.66 km</desc>
<time>2011-03-24T16:18:37.28</time>
<name>2988</name>
</trkpt>
<trkpt lat="49.345477" lon="9.132218">
<ele>205.5</ele>
<speed>39.1</speed>
<course>223.4</course>
<desc>Speed 39.1 km/h Distance 71.67 km</desc>
<time>2011-03-24T16:18:38.28</time>
<name>2989</name>
</trkpt>
<trkpt lat="49.345407" lon="9.132117">
<ele>206.0</ele>
<speed>39.6</speed>
<course>223.7</course>
<desc>Speed 39.6 km/h Distance 71.68 km</desc>
<time>2011-03-24T16:18:39.29</time>
<name>2990</name>
</trkpt>
<trkpt lat="49.345335" lon="9.132012">
<ele>206.0</ele>
<speed>40.6</speed>
<course>223.1</course>
<desc>Speed 40.6 km/h Distance 71.70 km</desc>
<time>2011-03-24T16:18:40.28</time>
<name>2991</name>
</trkpt>
<trkpt lat="49.345258" lon="9.131902">
<ele>205.5</ele>
<speed>42.7</speed>
<course>224.1</course>
<desc>Speed 42.7 km/h Distance 71.71 km</desc>
<time>2011-03-24T16:18:41.28</time>
<name>2992</name>
</trkpt>
<trkpt lat="49.345180" lon="9.131785">
<ele>206.0</ele>
<speed>43.8</speed>
<course>225.3</course>
<desc>Speed 43.8 km/h Distance 71.72 km</desc>
<time>2011-03-24T16:18:42.28</time>
<name>2993</name>
</trkpt>
<trkpt lat="49.345102" lon="9.131663">
<ele>206.0</ele>
<speed>44.3</speed>
<course>228.0</course>
<desc>Speed 44.3 km/h Distance 71.73 km</desc>
<time>2011-03-24T16:18:43.27</time>
<name>2994</name>
</trkpt>
<trkpt lat="49.345028" lon="9.131538">
<ele>206.0</ele>
<speed>43.7</speed>
<course>226.2</course>
<desc>Speed 43.7 km/h Distance 71.74 km</desc>
<time>2011-03-24T16:18:44.28</time>
<name>2995</name>
</trkpt>
<trkpt lat="49.344953" lon="9.131418">
<ele>206.5</ele>
<speed>42.6</speed>
<course>230.8</course>
<desc>Speed 42.6 km/h Distance 71.76 km</desc>
<time>2011-03-24T16:18:45.28</time>
<name>2996</name>
</trkpt>
<trkpt lat="49.344882" lon="9.131283">
<ele>206.0</ele>
<speed>45.5</speed>
<course>229.5</course>
<desc>Speed 45.5 km/h Distance 71.77 km</desc>
<time>2011-03-24T16:18:46.27</time>
<name>2997</name>
</trkpt>
<trkpt lat="49.344808" lon="9.131152">
<ele>206.0</ele>
<speed>44.7</speed>
<course>230.9</course>
<desc>Speed 44.7 km/h Distance 71.78 km</desc>
<time>2011-03-24T16:18:47.27</time>
<name>2998</name>
</trkpt>
<trkpt lat="49.344735" lon="9.131013">
<ele>205.5</ele>
<speed>45.5</speed>
<course>232.2</course>
<desc>Speed 45.5 km/h Distance 71.79 km</desc>
<time>2011-03-24T16:18:48.28</time>
<name>2999</name>
</trkpt>
<trkpt lat="49.344663" lon="9.130872">
<ele>205.0</ele>
<speed>46.6</speed>
<course>229.3</course>
<desc>Speed 46.6 km/h Distance 71.81 km</desc>
<time>2011-03-24T16:18:49.27</time>
<name>3000</name>
</trkpt>
<trkpt lat="49.344587" lon="9.130735">
<ele>204.5</ele>
<speed>46.2</speed>
<course>230.3</course>
<desc>Speed 46.2 km/h Distance 71.82 km</desc>
<time>2011-03-24T16:18:50.27</time>
<name>3001</name>
</trkpt>
<trkpt lat="49.344500" lon="9.130575">
<ele>204.0</ele>
<speed>53.2</speed>
<course>230.1</course>
<desc>Speed 53.2 km/h Distance 71.84 km</desc>
<time>2011-03-24T16:18:51.27</time>
<name>3002</name>
</trkpt>
<trkpt lat="49.344418" lon="9.130425">
<ele>203.5</ele>
<speed>51.2</speed>
<course>231.7</course>
<desc>Speed 51.2 km/h Distance 71.85 km</desc>
<time>2011-03-24T16:18:52.28</time>
<name>3003</name>
</trkpt>
<trkpt lat="49.344333" lon="9.130260">
<ele>203.5</ele>
<speed>54.3</speed>
<course>234.6</course>
<desc>Speed 54.3 km/h Distance 71.86 km</desc>
<time>2011-03-24T16:18:53.27</time>
<name>3004</name>
</trkpt>
<trkpt lat="49.344248" lon="9.130077">
<ele>203.0</ele>
<speed>58.8</speed>
<course>234.0</course>
<desc>Speed 58.8 km/h Distance 71.88 km</desc>
<time>2011-03-24T16:18:54.27</time>
<name>3005</name>
</trkpt>
<trkpt lat="49.344162" lon="9.129893">
<ele>203.0</ele>
<speed>59.1</speed>
<course>232.2</course>
<desc>Speed 59.1 km/h Distance 71.90 km</desc>
<time>2011-03-24T16:18:55.28</time>
<name>3006</name>
</trkpt>
<trkpt lat="49.344070" lon="9.129712">
<ele>203.0</ele>
<speed>59.1</speed>
<course>233.5</course>
<desc>Speed 59.1 km/h Distance 71.91 km</desc>
<time>2011-03-24T16:18:56.27</time>
<name>3007</name>
</trkpt>
<trkpt lat="49.343982" lon="9.129528">
<ele>203.0</ele>
<speed>59.2</speed>
<course>234.8</course>
<desc>Speed 59.2 km/h Distance 71.93 km</desc>
<time>2011-03-24T16:18:57.27</time>
<name>3008</name>
</trkpt>
<trkpt lat="49.343895" lon="9.129340">
<ele>203.0</ele>
<speed>60.4</speed>
<course>234.3</course>
<desc>Speed 60.4 km/h Distance 71.95 km</desc>
<time>2011-03-24T16:18:58.26</time>
<name>3009</name>
</trkpt>
<trkpt lat="49.343810" lon="9.129158">
<ele>202.5</ele>
<speed>58.3</speed>
<course>235.0</course>
<desc>Speed 58.3 km/h Distance 71.96 km</desc>
<time>2011-03-24T16:18:59.26</time>
<name>3010</name>
</trkpt>
<trkpt lat="49.343733" lon="9.128990">
<ele>202.5</ele>
<speed>54.2</speed>
<course>234.2</course>
<desc>Speed 54.2 km/h Distance 71.98 km</desc>
<time>2011-03-24T16:19:00.27</time>
<name>3011</name>
</trkpt>
<trkpt lat="49.343657" lon="9.128827">
<ele>202.0</ele>
<speed>53.0</speed>
<course>234.8</course>
<desc>Speed 53.0 km/h Distance 71.99 km</desc>
<time>2011-03-24T16:19:01.26</time>
<name>3012</name>
</trkpt>
<trkpt lat="49.343582" lon="9.128663">
<ele>202.0</ele>
<speed>53.2</speed>
<course>233.9</course>
<desc>Speed 53.2 km/h Distance 72.01 km</desc>
<time>2011-03-24T16:19:02.27</time>
<name>3013</name>
</trkpt>
<trkpt lat="49.343503" lon="9.128498">
<ele>202.0</ele>
<speed>53.0</speed>
<course>234.2</course>
<desc>Speed 53.0 km/h Distance 72.02 km</desc>
<time>2011-03-24T16:19:03.27</time>
<name>3014</name>
</trkpt>
<trkpt lat="49.343427" lon="9.128335">
<ele>202.0</ele>
<speed>52.6</speed>
<course>233.4</course>
<desc>Speed 52.6 km/h Distance 72.04 km</desc>
<time>2011-03-24T16:19:04.27</time>
<name>3015</name>
</trkpt>
<trkpt lat="49.343348" lon="9.128173">
<ele>202.0</ele>
<speed>52.6</speed>
<course>234.6</course>
<desc>Speed 52.6 km/h Distance 72.05 km</desc>
<time>2011-03-24T16:19:05.27</time>
<name>3016</name>
</trkpt>
<trkpt lat="49.343263" lon="9.127990">
<ele>202.0</ele>
<speed>59.2</speed>
<course>233.8</course>
<desc>Speed 59.2 km/h Distance 72.07 km</desc>
<time>2011-03-24T16:19:06.27</time>
<name>3017</name>
</trkpt>
<trkpt lat="49.343175" lon="9.127805">
<ele>202.0</ele>
<speed>59.6</speed>
<course>235.4</course>
<desc>Speed 59.6 km/h Distance 72.08 km</desc>
<time>2011-03-24T16:19:07.27</time>
<name>3018</name>
</trkpt>
<trkpt lat="49.343085" lon="9.127605">
<ele>202.0</ele>
<speed>63.7</speed>
<course>235.9</course>
<desc>Speed 63.7 km/h Distance 72.10 km</desc>
<time>2011-03-24T16:19:08.27</time>
<name>3019</name>
</trkpt>
<trkpt lat="49.342990" lon="9.127390">
<ele>202.0</ele>
<speed>68.1</speed>
<course>236.1</course>
<desc>Speed 68.1 km/h Distance 72.12 km</desc>
<time>2011-03-24T16:19:09.26</time>
<name>3020</name>
</trkpt>
<trkpt lat="49.342895" lon="9.127173">
<ele>202.0</ele>
<speed>68.3</speed>
<course>234.9</course>
<desc>Speed 68.3 km/h Distance 72.14 km</desc>
<time>2011-03-24T16:19:10.27</time>
<name>3021</name>
</trkpt>
<trkpt lat="49.342793" lon="9.126952">
<ele>201.0</ele>
<speed>71.2</speed>
<course>237.0</course>
<desc>Speed 71.2 km/h Distance 72.16 km</desc>
<time>2011-03-24T16:19:11.26</time>
<name>3022</name>
</trkpt>
<trkpt lat="49.342693" lon="9.126715">
<ele>201.5</ele>
<speed>73.9</speed>
<course>237.8</course>
<desc>Speed 73.9 km/h Distance 72.18 km</desc>
<time>2011-03-24T16:19:12.27</time>
<name>3023</name>
</trkpt>
<trkpt lat="49.342593" lon="9.126472">
<ele>202.0</ele>
<speed>76.0</speed>
<course>239.5</course>
<desc>Speed 76.0 km/h Distance 72.20 km</desc>
<time>2011-03-24T16:19:13.26</time>
<name>3024</name>
</trkpt>
<trkpt lat="49.342497" lon="9.126220">
<ele>201.0</ele>
<speed>76.2</speed>
<course>239.8</course>
<desc>Speed 76.2 km/h Distance 72.22 km</desc>
<time>2011-03-24T16:19:14.27</time>
<name>3025</name>
</trkpt>
<trkpt lat="49.342400" lon="9.125965">
<ele>201.5</ele>
<speed>76.8</speed>
<course>239.7</course>
<desc>Speed 76.8 km/h Distance 72.24 km</desc>
<time>2011-03-24T16:19:15.26</time>
<name>3026</name>
</trkpt>
<trkpt lat="49.342302" lon="9.125707">
<ele>201.5</ele>
<speed>77.9</speed>
<course>239.9</course>
<desc>Speed 77.9 km/h Distance 72.27 km</desc>
<time>2011-03-24T16:19:16.27</time>
<name>3027</name>
</trkpt>
<trkpt lat="49.342203" lon="9.125447">
<ele>201.5</ele>
<speed>77.9</speed>
<course>240.3</course>
<desc>Speed 77.9 km/h Distance 72.29 km</desc>
<time>2011-03-24T16:19:17.26</time>
<name>3028</name>
</trkpt>
<trkpt lat="49.342107" lon="9.125187">
<ele>203.5</ele>
<speed>77.7</speed>
<course>238.9</course>
<desc>Speed 77.7 km/h Distance 72.31 km</desc>
<time>2011-03-24T16:19:18.26</time>
<name>3029</name>
</trkpt>
<trkpt lat="49.342003" lon="9.124923">
<ele>203.5</ele>
<speed>79.5</speed>
<course>239.3</course>
<desc>Speed 79.5 km/h Distance 72.33 km</desc>
<time>2011-03-24T16:19:19.26</time>
<name>3030</name>
</trkpt>
<trkpt lat="49.341900" lon="9.124657">
<ele>203.5</ele>
<speed>81.1</speed>
<course>238.6</course>
<desc>Speed 81.1 km/h Distance 72.35 km</desc>
<time>2011-03-24T16:19:20.25</time>
<name>3031</name>
</trkpt>
<trkpt lat="49.341793" lon="9.124388">
<ele>204.0</ele>
<speed>81.8</speed>
<course>239.9</course>
<desc>Speed 81.8 km/h Distance 72.38 km</desc>
<time>2011-03-24T16:19:21.26</time>
<name>3032</name>
</trkpt>
<trkpt lat="49.341690" lon="9.124115">
<ele>204.0</ele>
<speed>82.2</speed>
<course>238.8</course>
<desc>Speed 82.2 km/h Distance 72.40 km</desc>
<time>2011-03-24T16:19:22.26</time>
<name>3033</name>
</trkpt>
<trkpt lat="49.341583" lon="9.123845">
<ele>204.0</ele>
<speed>82.7</speed>
<course>239.5</course>
<desc>Speed 82.7 km/h Distance 72.42 km</desc>
<time>2011-03-24T16:19:23.26</time>
<name>3034</name>
</trkpt>
<trkpt lat="49.341477" lon="9.123567">
<ele>204.5</ele>
<speed>83.6</speed>
<course>239.5</course>
<desc>Speed 83.6 km/h Distance 72.45 km</desc>
<time>2011-03-24T16:19:24.26</time>
<name>3035</name>
</trkpt>
<trkpt lat="49.341370" lon="9.123288">
<ele>205.0</ele>
<speed>84.1</speed>
<course>239.0</course>
<desc>Speed 84.1 km/h Distance 72.47 km</desc>
<time>2011-03-24T16:19:25.25</time>
<name>3036</name>
</trkpt>
<trkpt lat="49.341255" lon="9.122995">
<ele>205.5</ele>
<speed>89.3</speed>
<course>238.3</course>
<desc>Speed 89.3 km/h Distance 72.49 km</desc>
<time>2011-03-24T16:19:26.26</time>
<name>3037</name>
</trkpt>
<trkpt lat="49.341142" lon="9.122713">
<ele>207.0</ele>
<speed>86.8</speed>
<course>236.1</course>
<desc>Speed 86.8 km/h Distance 72.52 km</desc>
<time>2011-03-24T16:19:27.25</time>
<name>3038</name>
</trkpt>
<trkpt lat="49.341018" lon="9.122432">
<ele>207.0</ele>
<speed>88.1</speed>
<course>237.9</course>
<desc>Speed 88.1 km/h Distance 72.54 km</desc>
<time>2011-03-24T16:19:28.25</time>
<name>3039</name>
</trkpt>
<trkpt lat="49.340902" lon="9.122147">
<ele>207.5</ele>
<speed>88.1</speed>
<course>238.0</course>
<desc>Speed 88.1 km/h Distance 72.57 km</desc>
<time>2011-03-24T16:19:29.24</time>
<name>3040</name>
</trkpt>
<trkpt lat="49.340782" lon="9.121852">
<ele>208.5</ele>
<speed>89.8</speed>
<course>237.9</course>
<desc>Speed 89.8 km/h Distance 72.59 km</desc>
<time>2011-03-24T16:19:30.25</time>
<name>3041</name>
</trkpt>
<trkpt lat="49.340662" lon="9.121558">
<ele>209.5</ele>
<speed>90.6</speed>
<course>237.7</course>
<desc>Speed 90.6 km/h Distance 72.62 km</desc>
<time>2011-03-24T16:19:31.26</time>
<name>3042</name>
</trkpt>
<trkpt lat="49.340540" lon="9.121263">
<ele>209.5</ele>
<speed>91.0</speed>
<course>237.3</course>
<desc>Speed 91.0 km/h Distance 72.64 km</desc>
<time>2011-03-24T16:19:32.26</time>
<name>3043</name>
</trkpt>
<trkpt lat="49.340415" lon="9.120965">
<ele>209.5</ele>
<speed>92.9</speed>
<course>236.6</course>
<desc>Speed 92.9 km/h Distance 72.67 km</desc>
<time>2011-03-24T16:19:33.26</time>
<name>3044</name>
</trkpt>
<trkpt lat="49.340287" lon="9.120667">
<ele>209.5</ele>
<speed>93.5</speed>
<course>236.4</course>
<desc>Speed 93.5 km/h Distance 72.69 km</desc>
<time>2011-03-24T16:19:34.25</time>
<name>3045</name>
</trkpt>
<trkpt lat="49.340158" lon="9.120370">
<ele>210.5</ele>
<speed>93.6</speed>
<course>236.1</course>
<desc>Speed 93.6 km/h Distance 72.72 km</desc>
<time>2011-03-24T16:19:35.26</time>
<name>3046</name>
</trkpt>
<trkpt lat="49.340028" lon="9.120073">
<ele>210.5</ele>
<speed>93.5</speed>
<course>235.4</course>
<desc>Speed 93.5 km/h Distance 72.75 km</desc>
<time>2011-03-24T16:19:36.25</time>
<name>3047</name>
</trkpt>
<trkpt lat="49.339897" lon="9.119780">
<ele>210.5</ele>
<speed>93.0</speed>
<course>235.6</course>
<desc>Speed 93.0 km/h Distance 72.77 km</desc>
<time>2011-03-24T16:19:37.25</time>
<name>3048</name>
</trkpt>
<trkpt lat="49.339767" lon="9.119488">
<ele>210.0</ele>
<speed>92.4</speed>
<course>236.8</course>
<desc>Speed 92.4 km/h Distance 72.80 km</desc>
<time>2011-03-24T16:19:38.25</time>
<name>3049</name>
</trkpt>
<trkpt lat="49.339642" lon="9.119195">
<ele>210.0</ele>
<speed>92.3</speed>
<course>235.5</course>
<desc>Speed 92.3 km/h Distance 72.82 km</desc>
<time>2011-03-24T16:19:39.25</time>
<name>3050</name>
</trkpt>
<trkpt lat="49.339512" lon="9.118905">
<ele>210.5</ele>
<speed>92.4</speed>
<course>234.0</course>
<desc>Speed 92.4 km/h Distance 72.85 km</desc>
<time>2011-03-24T16:19:40.25</time>
<name>3051</name>
</trkpt>
<trkpt lat="49.339377" lon="9.118620">
<ele>210.5</ele>
<speed>92.8</speed>
<course>234.3</course>
<desc>Speed 92.8 km/h Distance 72.87 km</desc>
<time>2011-03-24T16:19:41.25</time>
<name>3052</name>
</trkpt>
<trkpt lat="49.339242" lon="9.118332">
<ele>211.0</ele>
<speed>92.7</speed>
<course>234.4</course>
<desc>Speed 92.7 km/h Distance 72.90 km</desc>
<time>2011-03-24T16:19:42.25</time>
<name>3053</name>
</trkpt>
<trkpt lat="49.339043" lon="9.117907">
<ele>210.5</ele>
<speed>92.7</speed>
<course>233.3</course>
<desc>Speed 92.7 km/h Distance 72.94 km</desc>
<time>2011-03-24T16:19:44.25</time>
<name>3054</name>
</trkpt>
<trkpt lat="49.338898" lon="9.117608">
<ele>210.5</ele>
<speed>95.3</speed>
<course>234.4</course>
<desc>Speed 95.3 km/h Distance 72.96 km</desc>
<time>2011-03-24T16:19:45.25</time>
<name>3055</name>
</trkpt>
<trkpt lat="49.338758" lon="9.117308">
<ele>210.5</ele>
<speed>91.5</speed>
<course>232.8</course>
<desc>Speed 91.5 km/h Distance 72.99 km</desc>
<time>2011-03-24T16:19:46.25</time>
<name>3056</name>
</trkpt>
<trkpt lat="49.338615" lon="9.117018">
<ele>210.5</ele>
<speed>90.9</speed>
<course>231.5</course>
<desc>Speed 90.9 km/h Distance 73.02 km</desc>
<time>2011-03-24T16:19:47.25</time>
<name>3057</name>
</trkpt>
<trkpt lat="49.338477" lon="9.116752">
<ele>210.0</ele>
<speed>87.0</speed>
<course>231.4</course>
<desc>Speed 87.0 km/h Distance 73.04 km</desc>
<time>2011-03-24T16:19:48.25</time>
<name>3058</name>
</trkpt>
<trkpt lat="49.338327" lon="9.116463">
<ele>210.5</ele>
<speed>92.8</speed>
<course>231.4</course>
<desc>Speed 92.8 km/h Distance 73.07 km</desc>
<time>2011-03-24T16:19:49.24</time>
<name>3059</name>
</trkpt>
<trkpt lat="49.338178" lon="9.116178">
<ele>211.0</ele>
<speed>91.2</speed>
<course>232.2</course>
<desc>Speed 91.2 km/h Distance 73.10 km</desc>
<time>2011-03-24T16:19:50.25</time>
<name>3060</name>
</trkpt>
<trkpt lat="49.338038" lon="9.115902">
<ele>212.0</ele>
<speed>90.1</speed>
<course>231.3</course>
<desc>Speed 90.1 km/h Distance 73.12 km</desc>
<time>2011-03-24T16:19:51.25</time>
<name>3061</name>
</trkpt>
<trkpt lat="49.337898" lon="9.115633">
<ele>212.0</ele>
<speed>88.5</speed>
<course>230.8</course>
<desc>Speed 88.5 km/h Distance 73.15 km</desc>
<time>2011-03-24T16:19:52.25</time>
<name>3062</name>
</trkpt>
<trkpt lat="49.337755" lon="9.115363">
<ele>212.0</ele>
<speed>89.7</speed>
<course>230.9</course>
<desc>Speed 89.7 km/h Distance 73.17 km</desc>
<time>2011-03-24T16:19:53.25</time>
<name>3063</name>
</trkpt>
<trkpt lat="49.337610" lon="9.115090">
<ele>213.0</ele>
<speed>89.4</speed>
<course>231.0</course>
<desc>Speed 89.4 km/h Distance 73.20 km</desc>
<time>2011-03-24T16:19:54.24</time>
<name>3064</name>
</trkpt>
<trkpt lat="49.337467" lon="9.114818">
<ele>212.5</ele>
<speed>90.4</speed>
<course>229.2</course>
<desc>Speed 90.4 km/h Distance 73.22 km</desc>
<time>2011-03-24T16:19:55.25</time>
<name>3065</name>
</trkpt>
<trkpt lat="49.337317" lon="9.114552">
<ele>212.5</ele>
<speed>90.8</speed>
<course>232.5</course>
<desc>Speed 90.8 km/h Distance 73.25 km</desc>
<time>2011-03-24T16:19:56.24</time>
<name>3066</name>
</trkpt>
<trkpt lat="49.337175" lon="9.114268">
<ele>211.0</ele>
<speed>91.4</speed>
<course>232.0</course>
<desc>Speed 91.4 km/h Distance 73.27 km</desc>
<time>2011-03-24T16:19:57.24</time>
<name>3067</name>
</trkpt>
<trkpt lat="49.337035" lon="9.113993">
<ele>211.5</ele>
<speed>88.8</speed>
<course>231.1</course>
<desc>Speed 88.8 km/h Distance 73.30 km</desc>
<time>2011-03-24T16:19:58.24</time>
<name>3068</name>
</trkpt>
<trkpt lat="49.336883" lon="9.113705">
<ele>211.5</ele>
<speed>94.8</speed>
<course>230.3</course>
<desc>Speed 94.8 km/h Distance 73.33 km</desc>
<time>2011-03-24T16:19:59.24</time>
<name>3069</name>
</trkpt>
<trkpt lat="49.336732" lon="9.113425">
<ele>211.0</ele>
<speed>92.4</speed>
<course>230.6</course>
<desc>Speed 92.4 km/h Distance 73.35 km</desc>
<time>2011-03-24T16:20:00.24</time>
<name>3070</name>
</trkpt>
<trkpt lat="49.336582" lon="9.113145">
<ele>210.5</ele>
<speed>92.4</speed>
<course>230.7</course>
<desc>Speed 92.4 km/h Distance 73.38 km</desc>
<time>2011-03-24T16:20:01.24</time>
<name>3071</name>
</trkpt>
<trkpt lat="49.336360" lon="9.112730">
<ele>210.5</ele>
<speed>92.4</speed>
<course>232.7</course>
<desc>Speed 92.4 km/h Distance 73.42 km</desc>
<time>2011-03-24T16:20:03.24</time>
<name>3072</name>
</trkpt>
<trkpt lat="49.336217" lon="9.112442">
<ele>210.5</ele>
<speed>89.4</speed>
<course>231.5</course>
<desc>Speed 89.4 km/h Distance 73.44 km</desc>
<time>2011-03-24T16:20:04.23</time>
<name>3073</name>
</trkpt>
<trkpt lat="49.336070" lon="9.112158">
<ele>211.0</ele>
<speed>92.7</speed>
<course>231.5</course>
<desc>Speed 92.7 km/h Distance 73.47 km</desc>
<time>2011-03-24T16:20:05.24</time>
<name>3074</name>
</trkpt>
<trkpt lat="49.335922" lon="9.111872">
<ele>211.0</ele>
<speed>93.7</speed>
<course>232.0</course>
<desc>Speed 93.7 km/h Distance 73.50 km</desc>
<time>2011-03-24T16:20:06.24</time>
<name>3075</name>
</trkpt>
<trkpt lat="49.335775" lon="9.111583">
<ele>210.5</ele>
<speed>93.7</speed>
<course>234.4</course>
<desc>Speed 93.7 km/h Distance 73.52 km</desc>
<time>2011-03-24T16:20:07.24</time>
<name>3076</name>
</trkpt>
<trkpt lat="49.335625" lon="9.111262">
<ele>211.0</ele>
<speed>98.8</speed>
<course>234.0</course>
<desc>Speed 98.8 km/h Distance 73.55 km</desc>
<time>2011-03-24T16:20:08.24</time>
<name>3077</name>
</trkpt>
<trkpt lat="49.335492" lon="9.110980">
<ele>210.5</ele>
<speed>87.3</speed>
<course>235.8</course>
<desc>Speed 87.3 km/h Distance 73.58 km</desc>
<time>2011-03-24T16:20:09.23</time>
<name>3078</name>
</trkpt>
<trkpt lat="49.335357" lon="9.110675">
<ele>210.5</ele>
<speed>92.4</speed>
<course>234.9</course>
<desc>Speed 92.4 km/h Distance 73.60 km</desc>
<time>2011-03-24T16:20:10.23</time>
<name>3079</name>
</trkpt>
<trkpt lat="49.335222" lon="9.110380">
<ele>209.5</ele>
<speed>90.3</speed>
<course>236.7</course>
<desc>Speed 90.3 km/h Distance 73.63 km</desc>
<time>2011-03-24T16:20:11.23</time>
<name>3080</name>
</trkpt>
<trkpt lat="49.335093" lon="9.110080">
<ele>209.5</ele>
<speed>89.9</speed>
<course>237.7</course>
<desc>Speed 89.9 km/h Distance 73.66 km</desc>
<time>2011-03-24T16:20:12.23</time>
<name>3081</name>
</trkpt>
<trkpt lat="49.334973" lon="9.109788">
<ele>210.0</ele>
<speed>88.8</speed>
<course>242.8</course>
<desc>Speed 88.8 km/h Distance 73.68 km</desc>
<time>2011-03-24T16:20:13.23</time>
<name>3082</name>
</trkpt>
<trkpt lat="49.334865" lon="9.109465">
<ele>210.5</ele>
<speed>93.8</speed>
<course>242.0</course>
<desc>Speed 93.8 km/h Distance 73.71 km</desc>
<time>2011-03-24T16:20:14.23</time>
<name>3083</name>
</trkpt>
<trkpt lat="49.334758" lon="9.109157">
<ele>211.0</ele>
<speed>89.8</speed>
<course>242.9</course>
<desc>Speed 89.8 km/h Distance 73.73 km</desc>
<time>2011-03-24T16:20:15.23</time>
<name>3084</name>
</trkpt>
<trkpt lat="49.334655" lon="9.108847">
<ele>210.5</ele>
<speed>88.6</speed>
<course>242.8</course>
<desc>Speed 88.6 km/h Distance 73.76 km</desc>
<time>2011-03-24T16:20:16.23</time>
<name>3085</name>
</trkpt>
<trkpt lat="49.334555" lon="9.108548">
<ele>209.0</ele>
<speed>87.6</speed>
<course>245.3</course>
<desc>Speed 87.6 km/h Distance 73.78 km</desc>
<time>2011-03-24T16:20:17.23</time>
<name>3086</name>
</trkpt>
<trkpt lat="49.334467" lon="9.108253">
<ele>208.5</ele>
<speed>84.8</speed>
<course>248.0</course>
<desc>Speed 84.8 km/h Distance 73.81 km</desc>
<time>2011-03-24T16:20:18.23</time>
<name>3087</name>
</trkpt>
<trkpt lat="49.334390" lon="9.107962">
<ele>208.5</ele>
<speed>80.6</speed>
<course>249.8</course>
<desc>Speed 80.6 km/h Distance 73.83 km</desc>
<time>2011-03-24T16:20:19.23</time>
<name>3088</name>
</trkpt>
<trkpt lat="49.334322" lon="9.107677">
<ele>208.0</ele>
<speed>79.4</speed>
<course>251.5</course>
<desc>Speed 79.4 km/h Distance 73.85 km</desc>
<time>2011-03-24T16:20:20.22</time>
<name>3089</name>
</trkpt>
<trkpt lat="49.334258" lon="9.107387">
<ele>207.0</ele>
<speed>79.7</speed>
<course>252.6</course>
<desc>Speed 79.7 km/h Distance 73.87 km</desc>
<time>2011-03-24T16:20:21.22</time>
<name>3090</name>
</trkpt>
<trkpt lat="49.334197" lon="9.107085">
<ele>205.0</ele>
<speed>79.7</speed>
<course>253.8</course>
<desc>Speed 79.7 km/h Distance 73.90 km</desc>
<time>2011-03-24T16:20:22.22</time>
<name>3091</name>
</trkpt>
<trkpt lat="49.334140" lon="9.106785">
<ele>205.0</ele>
<speed>79.5</speed>
<course>257.0</course>
<desc>Speed 79.5 km/h Distance 73.92 km</desc>
<time>2011-03-24T16:20:23.23</time>
<name>3092</name>
</trkpt>
<trkpt lat="49.334095" lon="9.106485">
<ele>204.5</ele>
<speed>80.1</speed>
<course>256.5</course>
<desc>Speed 80.1 km/h Distance 73.94 km</desc>
<time>2011-03-24T16:20:24.22</time>
<name>3093</name>
</trkpt>
<trkpt lat="49.334047" lon="9.106177">
<ele>203.5</ele>
<speed>82.9</speed>
<course>263.4</course>
<desc>Speed 82.9 km/h Distance 73.96 km</desc>
<time>2011-03-24T16:20:25.22</time>
<name>3094</name>
</trkpt>
<trkpt lat="49.333998" lon="9.105540">
<ele>203.5</ele>
<speed>105</speed>
<course>265.7</course>
<desc>Speed 105 km/h Distance 74.01 km</desc>
<time>2011-03-24T16:20:27.23</time>
<name>3095</name>
</trkpt>
<trkpt lat="49.333968" lon="9.104928">
<ele>202.0</ele>
<speed>79.6</speed>
<course>268.1</course>
<desc>Speed 79.6 km/h Distance 74.06 km</desc>
<time>2011-03-24T16:20:29.22</time>
<name>3096</name>
</trkpt>
<trkpt lat="49.333962" lon="9.104618">
<ele>201.0</ele>
<speed>79.5</speed>
<course>270.9</course>
<desc>Speed 79.5 km/h Distance 74.08 km</desc>
<time>2011-03-24T16:20:30.23</time>
<name>3097</name>
</trkpt>
<trkpt lat="49.333965" lon="9.104300">
<ele>199.0</ele>
<speed>80.5</speed>
<course>272.8</course>
<desc>Speed 80.5 km/h Distance 74.10 km</desc>
<time>2011-03-24T16:20:31.22</time>
<name>3098</name>
</trkpt>
<trkpt lat="49.333975" lon="9.103987">
<ele>198.0</ele>
<speed>80.7</speed>
<course>275.2</course>
<desc>Speed 80.7 km/h Distance 74.12 km</desc>
<time>2011-03-24T16:20:32.23</time>
<name>3099</name>
</trkpt>
<trkpt lat="49.333993" lon="9.103678">
<ele>198.0</ele>
<speed>80.3</speed>
<course>277.1</course>
<desc>Speed 80.3 km/h Distance 74.15 km</desc>
<time>2011-03-24T16:20:33.22</time>
<name>3100</name>
</trkpt>
<trkpt lat="49.334018" lon="9.103372">
<ele>197.5</ele>
<speed>80.6</speed>
<course>281.9</course>
<desc>Speed 80.6 km/h Distance 74.17 km</desc>
<time>2011-03-24T16:20:34.23</time>
<name>3101</name>
</trkpt>
<trkpt lat="49.334060" lon="9.103068">
<ele>196.0</ele>
<speed>81.1</speed>
<course>282.5</course>
<desc>Speed 81.1 km/h Distance 74.19 km</desc>
<time>2011-03-24T16:20:35.22</time>
<name>3102</name>
</trkpt>
<trkpt lat="49.334103" lon="9.102768">
<ele>196.0</ele>
<speed>79.1</speed>
<course>287.1</course>
<desc>Speed 79.1 km/h Distance 74.21 km</desc>
<time>2011-03-24T16:20:36.22</time>
<name>3103</name>
</trkpt>
<trkpt lat="49.334158" lon="9.102493">
<ele>196.0</ele>
<speed>75.0</speed>
<course>289.4</course>
<desc>Speed 75.0 km/h Distance 74.23 km</desc>
<time>2011-03-24T16:20:37.22</time>
<name>3104</name>
</trkpt>
<trkpt lat="49.334218" lon="9.102232">
<ele>196.5</ele>
<speed>71.5</speed>
<course>291.2</course>
<desc>Speed 71.5 km/h Distance 74.25 km</desc>
<time>2011-03-24T16:20:38.22</time>
<name>3105</name>
</trkpt>
<trkpt lat="49.334283" lon="9.101975">
<ele>197.0</ele>
<speed>71.4</speed>
<course>292.2</course>
<desc>Speed 71.4 km/h Distance 74.27 km</desc>
<time>2011-03-24T16:20:39.21</time>
<name>3106</name>
</trkpt>
<trkpt lat="49.334352" lon="9.101718">
<ele>198.5</ele>
<speed>71.2</speed>
<course>293.1</course>
<desc>Speed 71.2 km/h Distance 74.29 km</desc>
<time>2011-03-24T16:20:40.23</time>
<name>3107</name>
</trkpt>
<trkpt lat="49.334422" lon="9.101467">
<ele>199.5</ele>
<speed>70.9</speed>
<course>293.1</course>
<desc>Speed 70.9 km/h Distance 74.31 km</desc>
<time>2011-03-24T16:20:41.22</time>
<name>3108</name>
</trkpt>
<trkpt lat="49.334488" lon="9.101227">
<ele>200.0</ele>
<speed>67.9</speed>
<course>294.8</course>
<desc>Speed 67.9 km/h Distance 74.33 km</desc>
<time>2011-03-24T16:20:42.22</time>
<name>3109</name>
</trkpt>
<trkpt lat="49.334555" lon="9.101005">
<ele>200.0</ele>
<speed>63.9</speed>
<course>296.9</course>
<desc>Speed 63.9 km/h Distance 74.35 km</desc>
<time>2011-03-24T16:20:43.21</time>
<name>3110</name>
</trkpt>
<trkpt lat="49.334623" lon="9.100798">
<ele>199.5</ele>
<speed>61.0</speed>
<course>300.7</course>
<desc>Speed 61.0 km/h Distance 74.37 km</desc>
<time>2011-03-24T16:20:44.22</time>
<name>3111</name>
</trkpt>
<trkpt lat="49.334695" lon="9.100613">
<ele>200.0</ele>
<speed>57.0</speed>
<course>306.7</course>
<desc>Speed 57.0 km/h Distance 74.38 km</desc>
<time>2011-03-24T16:20:45.21</time>
<name>3112</name>
</trkpt>
<trkpt lat="49.334775" lon="9.100448">
<ele>200.5</ele>
<speed>54.0</speed>
<course>312.5</course>
<desc>Speed 54.0 km/h Distance 74.40 km</desc>
<time>2011-03-24T16:20:46.22</time>
<name>3113</name>
</trkpt>
<trkpt lat="49.334867" lon="9.100295">
<ele>200.5</ele>
<speed>54.4</speed>
<course>318.0</course>
<desc>Speed 54.4 km/h Distance 74.41 km</desc>
<time>2011-03-24T16:20:47.22</time>
<name>3114</name>
</trkpt>
<trkpt lat="49.334967" lon="9.100157">
<ele>201.0</ele>
<speed>54.6</speed>
<course>325.7</course>
<desc>Speed 54.6 km/h Distance 74.43 km</desc>
<time>2011-03-24T16:20:48.23</time>
<name>3115</name>
</trkpt>
<trkpt lat="49.335077" lon="9.100042">
<ele>201.5</ele>
<speed>53.1</speed>
<course>333.0</course>
<desc>Speed 53.1 km/h Distance 74.44 km</desc>
<time>2011-03-24T16:20:49.22</time>
<name>3116</name>
</trkpt>
<trkpt lat="49.335198" lon="9.099947">
<ele>202.0</ele>
<speed>54.7</speed>
<course>336.5</course>
<desc>Speed 54.7 km/h Distance 74.46 km</desc>
<time>2011-03-24T16:20:50.21</time>
<name>3117</name>
</trkpt>
<trkpt lat="49.335323" lon="9.099863">
<ele>202.0</ele>
<speed>54.4</speed>
<course>340.3</course>
<desc>Speed 54.4 km/h Distance 74.47 km</desc>
<time>2011-03-24T16:20:51.21</time>
<name>3118</name>
</trkpt>
<trkpt lat="49.335457" lon="9.099790">
<ele>201.5</ele>
<speed>56.2</speed>
<course>350.8</course>
<desc>Speed 56.2 km/h Distance 74.49 km</desc>
<time>2011-03-24T16:20:52.22</time>
<name>3119</name>
</trkpt>
<trkpt lat="49.335570" lon="9.099762">
<ele>201.5</ele>
<speed>45.9</speed>
<course>353.7</course>
<desc>Speed 45.9 km/h Distance 74.50 km</desc>
<time>2011-03-24T16:20:53.21</time>
<name>3120</name>
</trkpt>
<trkpt lat="49.335698" lon="9.099740">
<ele>201.5</ele>
<speed>51.6</speed>
<course>358.5</course>
<desc>Speed 51.6 km/h Distance 74.52 km</desc>
<time>2011-03-24T16:20:54.21</time>
<name>3121</name>
</trkpt>
<trkpt lat="49.335822" lon="9.099735">
<ele>201.5</ele>
<speed>49.4</speed>
<course>2.9</course>
<desc>Speed 49.4 km/h Distance 74.53 km</desc>
<time>2011-03-24T16:20:55.22</time>
<name>3122</name>
</trkpt>
<trkpt lat="49.335953" lon="9.099745">
<ele>201.5</ele>
<speed>52.0</speed>
<course>6.9</course>
<desc>Speed 52.0 km/h Distance 74.54 km</desc>
<time>2011-03-24T16:20:56.21</time>
<name>3123</name>
</trkpt>
<trkpt lat="49.336080" lon="9.099768">
<ele>200.5</ele>
<speed>50.8</speed>
<course>18.8</course>
<desc>Speed 50.8 km/h Distance 74.56 km</desc>
<time>2011-03-24T16:20:57.21</time>
<name>3124</name>
</trkpt>
<trkpt lat="49.336195" lon="9.099828">
<ele>200.5</ele>
<speed>47.6</speed>
<course>21.8</course>
<desc>Speed 47.6 km/h Distance 74.57 km</desc>
<time>2011-03-24T16:20:58.21</time>
<name>3125</name>
</trkpt>
<trkpt lat="49.336303" lon="9.099895">
<ele>200.5</ele>
<speed>46.4</speed>
<course>24.3</course>
<desc>Speed 46.4 km/h Distance 74.59 km</desc>
<time>2011-03-24T16:20:59.21</time>
<name>3126</name>
</trkpt>
<trkpt lat="49.336390" lon="9.099955">
<ele>200.5</ele>
<speed>46.4</speed>
<course>29.1</course>
<desc>Speed 46.4 km/h Distance 74.60 km</desc>
<time>2011-03-24T16:21:00.21</time>
<name>3127</name>
</trkpt>
<trkpt lat="49.336517" lon="9.100063">
<ele>200.0</ele>
<speed>46.4</speed>
<course>97.2</course>
<desc>Speed 46.4 km/h Distance 74.61 km</desc>
<time>2011-03-24T16:21:02.21</time>
<name>3128</name>
</trkpt>
<trkpt lat="49.336503" lon="9.100225">
<ele>199.5</ele>
<speed>42.9</speed>
<course>103.2</course>
<desc>Speed 42.9 km/h Distance 74.62 km</desc>
<time>2011-03-24T16:21:03.21</time>
<name>3129</name>
</trkpt>
<trkpt lat="49.336478" lon="9.100388">
<ele>198.0</ele>
<speed>37.5</speed>
<course>114.2</course>
<desc>Speed 37.5 km/h Distance 74.64 km</desc>
<time>2011-03-24T16:21:04.22</time>
<name>3130</name>
</trkpt>
<trkpt lat="49.336447" lon="9.100497">
<ele>197.5</ele>
<speed>33.9</speed>
<course>139.5</course>
<desc>Speed 33.9 km/h Distance 74.64 km</desc>
<time>2011-03-24T16:21:05.21</time>
<name>3131</name>
</trkpt>
<trkpt lat="49.336372" lon="9.100595">
<ele>196.5</ele>
<speed>40.8</speed>
<course>153.5</course>
<desc>Speed 40.8 km/h Distance 74.66 km</desc>
<time>2011-03-24T16:21:06.21</time>
<name>3132</name>
</trkpt>
<trkpt lat="49.336272" lon="9.100672">
<ele>195.0</ele>
<speed>43.3</speed>
<course>163.3</course>
<desc>Speed 43.3 km/h Distance 74.67 km</desc>
<time>2011-03-24T16:21:07.21</time>
<name>3133</name>
</trkpt>
<trkpt lat="49.336148" lon="9.100728">
<ele>194.5</ele>
<speed>50.5</speed>
<course>170.1</course>
<desc>Speed 50.5 km/h Distance 74.68 km</desc>
<time>2011-03-24T16:21:08.20</time>
<name>3134</name>
</trkpt>
<trkpt lat="49.336012" lon="9.100765">
<ele>194.5</ele>
<speed>55.4</speed>
<course>170.2</course>
<desc>Speed 55.4 km/h Distance 74.70 km</desc>
<time>2011-03-24T16:21:09.21</time>
<name>3135</name>
</trkpt>
<trkpt lat="49.335873" lon="9.100802">
<ele>194.5</ele>
<speed>56.3</speed>
<course>169.2</course>
<desc>Speed 56.3 km/h Distance 74.71 km</desc>
<time>2011-03-24T16:21:10.20</time>
<name>3136</name>
</trkpt>
<trkpt lat="49.335732" lon="9.100843">
<ele>194.0</ele>
<speed>58.5</speed>
<course>168.1</course>
<desc>Speed 58.5 km/h Distance 74.73 km</desc>
<time>2011-03-24T16:21:11.20</time>
<name>3137</name>
</trkpt>
<trkpt lat="49.335577" lon="9.100893">
<ele>194.5</ele>
<speed>63.9</speed>
<course>164.2</course>
<desc>Speed 63.9 km/h Distance 74.75 km</desc>
<time>2011-03-24T16:21:12.20</time>
<name>3138</name>
</trkpt>
<trkpt lat="49.335408" lon="9.100967">
<ele>194.0</ele>
<speed>67.1</speed>
<course>164.8</course>
<desc>Speed 67.1 km/h Distance 74.77 km</desc>
<time>2011-03-24T16:21:13.20</time>
<name>3139</name>
</trkpt>
<trkpt lat="49.335240" lon="9.101037">
<ele>194.5</ele>
<speed>68.2</speed>
<course>164.9</course>
<desc>Speed 68.2 km/h Distance 74.79 km</desc>
<time>2011-03-24T16:21:14.20</time>
<name>3140</name>
</trkpt>
<trkpt lat="49.335067" lon="9.101108">
<ele>193.5</ele>
<speed>71.5</speed>
<course>164.4</course>
<desc>Speed 71.5 km/h Distance 74.81 km</desc>
<time>2011-03-24T16:21:15.20</time>
<name>3141</name>
</trkpt>
<trkpt lat="49.334895" lon="9.101182">
<ele>193.5</ele>
<speed>71.8</speed>
<course>164.7</course>
<desc>Speed 71.8 km/h Distance 74.83 km</desc>
<time>2011-03-24T16:21:16.20</time>
<name>3142</name>
</trkpt>
<trkpt lat="49.334717" lon="9.101257">
<ele>192.5</ele>
<speed>73.8</speed>
<course>164.0</course>
<desc>Speed 73.8 km/h Distance 74.85 km</desc>
<time>2011-03-24T16:21:17.21</time>
<name>3143</name>
</trkpt>
<trkpt lat="49.334532" lon="9.101338">
<ele>192.0</ele>
<speed>77.1</speed>
<course>164.8</course>
<desc>Speed 77.1 km/h Distance 74.87 km</desc>
<time>2011-03-24T16:21:18.21</time>
<name>3144</name>
</trkpt>
<trkpt lat="49.334348" lon="9.101415">
<ele>192.0</ele>
<speed>76.6</speed>
<course>161.2</course>
<desc>Speed 76.6 km/h Distance 74.89 km</desc>
<time>2011-03-24T16:21:19.21</time>
<name>3145</name>
</trkpt>
<trkpt lat="49.334167" lon="9.101510">
<ele>192.0</ele>
<speed>77.0</speed>
<course>161.1</course>
<desc>Speed 77.0 km/h Distance 74.91 km</desc>
<time>2011-03-24T16:21:20.20</time>
<name>3146</name>
</trkpt>
<trkpt lat="49.333973" lon="9.101612">
<ele>190.5</ele>
<speed>80.6</speed>
<course>159.7</course>
<desc>Speed 80.6 km/h Distance 74.93 km</desc>
<time>2011-03-24T16:21:21.20</time>
<name>3147</name>
</trkpt>
<trkpt lat="49.333785" lon="9.101718">
<ele>189.0</ele>
<speed>80.0</speed>
<course>159.1</course>
<desc>Speed 80.0 km/h Distance 74.96 km</desc>
<time>2011-03-24T16:21:22.20</time>
<name>3148</name>
</trkpt>
<trkpt lat="49.333600" lon="9.101827">
<ele>187.5</ele>
<speed>79.1</speed>
<course>159.2</course>
<desc>Speed 79.1 km/h Distance 74.98 km</desc>
<time>2011-03-24T16:21:23.20</time>
<name>3149</name>
</trkpt>
<trkpt lat="49.333417" lon="9.101933">
<ele>187.0</ele>
<speed>78.2</speed>
<course>159.7</course>
<desc>Speed 78.2 km/h Distance 75.00 km</desc>
<time>2011-03-24T16:21:24.19</time>
<name>3150</name>
</trkpt>
<trkpt lat="49.333235" lon="9.102037">
<ele>187.0</ele>
<speed>77.5</speed>
<course>159.4</course>
<desc>Speed 77.5 km/h Distance 75.02 km</desc>
<time>2011-03-24T16:21:25.20</time>
<name>3151</name>
</trkpt>
<trkpt lat="49.333053" lon="9.102142">
<ele>186.5</ele>
<speed>77.0</speed>
<course>157.5</course>
<desc>Speed 77.0 km/h Distance 75.04 km</desc>
<time>2011-03-24T16:21:26.19</time>
<name>3152</name>
</trkpt>
<trkpt lat="49.332880" lon="9.102252">
<ele>186.5</ele>
<speed>75.6</speed>
<course>156.9</course>
<desc>Speed 75.6 km/h Distance 75.06 km</desc>
<time>2011-03-24T16:21:27.20</time>
<name>3153</name>
</trkpt>
<trkpt lat="49.332712" lon="9.102362">
<ele>186.5</ele>
<speed>73.6</speed>
<course>156.2</course>
<desc>Speed 73.6 km/h Distance 75.08 km</desc>
<time>2011-03-24T16:21:28.20</time>
<name>3154</name>
</trkpt>
<trkpt lat="49.332547" lon="9.102473">
<ele>186.0</ele>
<speed>72.8</speed>
<course>155.6</course>
<desc>Speed 72.8 km/h Distance 75.10 km</desc>
<time>2011-03-24T16:21:29.20</time>
<name>3155</name>
</trkpt>
<trkpt lat="49.332382" lon="9.102588">
<ele>185.5</ele>
<speed>72.9</speed>
<course>154.6</course>
<desc>Speed 72.9 km/h Distance 75.12 km</desc>
<time>2011-03-24T16:21:30.19</time>
<name>3156</name>
</trkpt>
<trkpt lat="49.332217" lon="9.102708">
<ele>185.0</ele>
<speed>73.1</speed>
<course>154.1</course>
<desc>Speed 73.1 km/h Distance 75.14 km</desc>
<time>2011-03-24T16:21:31.20</time>
<name>3157</name>
</trkpt>
<trkpt lat="49.332053" lon="9.102830">
<ele>185.0</ele>
<speed>72.9</speed>
<course>152.5</course>
<desc>Speed 72.9 km/h Distance 75.16 km</desc>
<time>2011-03-24T16:21:32.19</time>
<name>3158</name>
</trkpt>
<trkpt lat="49.331895" lon="9.102957">
<ele>185.5</ele>
<speed>72.4</speed>
<course>151.3</course>
<desc>Speed 72.4 km/h Distance 75.18 km</desc>
<time>2011-03-24T16:21:33.20</time>
<name>3159</name>
</trkpt>
<trkpt lat="49.331738" lon="9.103088">
<ele>185.5</ele>
<speed>71.6</speed>
<course>150.7</course>
<desc>Speed 71.6 km/h Distance 75.20 km</desc>
<time>2011-03-24T16:21:34.20</time>
<name>3160</name>
</trkpt>
<trkpt lat="49.331583" lon="9.103222">
<ele>186.5</ele>
<speed>71.2</speed>
<course>150.4</course>
<desc>Speed 71.2 km/h Distance 75.22 km</desc>
<time>2011-03-24T16:21:35.19</time>
<name>3161</name>
</trkpt>
<trkpt lat="49.331427" lon="9.103358">
<ele>187.0</ele>
<speed>71.7</speed>
<course>149.5</course>
<desc>Speed 71.7 km/h Distance 75.24 km</desc>
<time>2011-03-24T16:21:36.19</time>
<name>3162</name>
</trkpt>
<trkpt lat="49.331270" lon="9.103500">
<ele>187.0</ele>
<speed>72.4</speed>
<course>149.2</course>
<desc>Speed 72.4 km/h Distance 75.26 km</desc>
<time>2011-03-24T16:21:37.19</time>
<name>3163</name>
</trkpt>
<trkpt lat="49.331113" lon="9.103643">
<ele>188.0</ele>
<speed>72.7</speed>
<course>148.4</course>
<desc>Speed 72.7 km/h Distance 75.28 km</desc>
<time>2011-03-24T16:21:38.19</time>
<name>3164</name>
</trkpt>
<trkpt lat="49.330960" lon="9.103788">
<ele>188.5</ele>
<speed>72.1</speed>
<course>147.8</course>
<desc>Speed 72.1 km/h Distance 75.30 km</desc>
<time>2011-03-24T16:21:39.19</time>
<name>3165</name>
</trkpt>
<trkpt lat="49.330808" lon="9.103935">
<ele>189.0</ele>
<speed>71.2</speed>
<course>146.6</course>
<desc>Speed 71.2 km/h Distance 75.32 km</desc>
<time>2011-03-24T16:21:40.19</time>
<name>3166</name>
</trkpt>
<trkpt lat="49.330662" lon="9.104083">
<ele>189.5</ele>
<speed>70.3</speed>
<course>146.3</course>
<desc>Speed 70.3 km/h Distance 75.34 km</desc>
<time>2011-03-24T16:21:41.19</time>
<name>3167</name>
</trkpt>
<trkpt lat="49.330515" lon="9.104233">
<ele>189.5</ele>
<speed>70.2</speed>
<course>145.4</course>
<desc>Speed 70.2 km/h Distance 75.36 km</desc>
<time>2011-03-24T16:21:42.19</time>
<name>3168</name>
</trkpt>
<trkpt lat="49.330370" lon="9.104387">
<ele>189.5</ele>
<speed>70.6</speed>
<course>144.8</course>
<desc>Speed 70.6 km/h Distance 75.38 km</desc>
<time>2011-03-24T16:21:43.19</time>
<name>3169</name>
</trkpt>
<trkpt lat="49.330225" lon="9.104543">
<ele>189.5</ele>
<speed>71.2</speed>
<course>144.6</course>
<desc>Speed 71.2 km/h Distance 75.40 km</desc>
<time>2011-03-24T16:21:44.19</time>
<name>3170</name>
</trkpt>
<trkpt lat="49.330080" lon="9.104702">
<ele>190.0</ele>
<speed>70.9</speed>
<course>143.6</course>
<desc>Speed 70.9 km/h Distance 75.42 km</desc>
<time>2011-03-24T16:21:45.19</time>
<name>3171</name>
</trkpt>
<trkpt lat="49.329940" lon="9.104860">
<ele>190.5</ele>
<speed>69.7</speed>
<course>143.0</course>
<desc>Speed 69.7 km/h Distance 75.44 km</desc>
<time>2011-03-24T16:21:46.19</time>
<name>3172</name>
</trkpt>
<trkpt lat="49.329802" lon="9.105020">
<ele>190.5</ele>
<speed>69.9</speed>
<course>141.5</course>
<desc>Speed 69.9 km/h Distance 75.46 km</desc>
<time>2011-03-24T16:21:47.19</time>
<name>3173</name>
</trkpt>
<trkpt lat="49.329665" lon="9.105187">
<ele>190.5</ele>
<speed>70.2</speed>
<course>140.7</course>
<desc>Speed 70.2 km/h Distance 75.48 km</desc>
<time>2011-03-24T16:21:48.19</time>
<name>3174</name>
</trkpt>
<trkpt lat="49.329528" lon="9.105358">
<ele>190.5</ele>
<speed>71.2</speed>
<course>139.9</course>
<desc>Speed 71.2 km/h Distance 75.50 km</desc>
<time>2011-03-24T16:21:49.19</time>
<name>3175</name>
</trkpt>
<trkpt lat="49.329392" lon="9.105535">
<ele>190.5</ele>
<speed>71.5</speed>
<course>138.2</course>
<desc>Speed 71.5 km/h Distance 75.52 km</desc>
<time>2011-03-24T16:21:50.19</time>
<name>3176</name>
</trkpt>
<trkpt lat="49.329253" lon="9.105725">
<ele>191.0</ele>
<speed>74.1</speed>
<course>135.6</course>
<desc>Speed 74.1 km/h Distance 75.54 km</desc>
<time>2011-03-24T16:21:51.19</time>
<name>3177</name>
</trkpt>
<trkpt lat="49.329113" lon="9.105935">
<ele>191.0</ele>
<speed>79.0</speed>
<course>137.0</course>
<desc>Speed 79.0 km/h Distance 75.56 km</desc>
<time>2011-03-24T16:21:52.19</time>
<name>3178</name>
</trkpt>
<trkpt lat="49.328963" lon="9.106150">
<ele>191.0</ele>
<speed>82.1</speed>
<course>136.8</course>
<desc>Speed 82.1 km/h Distance 75.59 km</desc>
<time>2011-03-24T16:21:53.19</time>
<name>3179</name>
</trkpt>
<trkpt lat="49.328817" lon="9.106362">
<ele>190.5</ele>
<speed>80.6</speed>
<course>136.5</course>
<desc>Speed 80.6 km/h Distance 75.61 km</desc>
<time>2011-03-24T16:21:54.19</time>
<name>3180</name>
</trkpt>
<trkpt lat="49.328670" lon="9.106575">
<ele>190.0</ele>
<speed>80.7</speed>
<course>136.0</course>
<desc>Speed 80.7 km/h Distance 75.63 km</desc>
<time>2011-03-24T16:21:55.19</time>
<name>3181</name>
</trkpt>
<trkpt lat="49.328512" lon="9.106810">
<ele>192.0</ele>
<speed>88.6</speed>
<course>135.0</course>
<desc>Speed 88.6 km/h Distance 75.66 km</desc>
<time>2011-03-24T16:21:56.19</time>
<name>3182</name>
</trkpt>
<trkpt lat="49.328333" lon="9.107083">
<ele>191.0</ele>
<speed>101</speed>
<course>134.4</course>
<desc>Speed 101 km/h Distance 75.68 km</desc>
<time>2011-03-24T16:21:57.19</time>
<name>3183</name>
</trkpt>
<trkpt lat="49.327995" lon="9.107613">
<ele>192.0</ele>
<speed>109</speed>
<course>134.2</course>
<desc>Speed 109 km/h Distance 75.74 km</desc>
<time>2011-03-24T16:21:59.19</time>
<name>3184</name>
</trkpt>
<trkpt lat="49.327793" lon="9.107932">
<ele>191.5</ele>
<speed>114</speed>
<course>135.2</course>
<desc>Speed 114 km/h Distance 75.77 km</desc>
<time>2011-03-24T16:22:00.19</time>
<name>3185</name>
</trkpt>
<trkpt lat="49.327580" lon="9.108257">
<ele>191.5</ele>
<speed>120</speed>
<course>132.4</course>
<desc>Speed 120 km/h Distance 75.80 km</desc>
<time>2011-03-24T16:22:01.19</time>
<name>3186</name>
</trkpt>
<trkpt lat="49.327373" lon="9.108603">
<ele>191.0</ele>
<speed>123</speed>
<course>130.2</course>
<desc>Speed 123 km/h Distance 75.84 km</desc>
<time>2011-03-24T16:22:02.18</time>
<name>3187</name>
</trkpt>
<trkpt lat="49.327175" lon="9.108963">
<ele>191.0</ele>
<speed>123</speed>
<course>128.5</course>
<desc>Speed 123 km/h Distance 75.87 km</desc>
<time>2011-03-24T16:22:03.19</time>
<name>3188</name>
</trkpt>
<trkpt lat="49.326987" lon="9.109327">
<ele>191.0</ele>
<speed>121</speed>
<course>127.5</course>
<desc>Speed 121 km/h Distance 75.90 km</desc>
<time>2011-03-24T16:22:04.18</time>
<name>3189</name>
</trkpt>
<trkpt lat="49.326805" lon="9.109690">
<ele>191.0</ele>
<speed>120</speed>
<course>126.5</course>
<desc>Speed 120 km/h Distance 75.94 km</desc>
<time>2011-03-24T16:22:05.19</time>
<name>3190</name>
</trkpt>
<trkpt lat="49.326628" lon="9.110057">
<ele>191.0</ele>
<speed>119</speed>
<course>126.0</course>
<desc>Speed 119 km/h Distance 75.97 km</desc>
<time>2011-03-24T16:22:06.19</time>
<name>3191</name>
</trkpt>
<trkpt lat="49.326455" lon="9.110423">
<ele>191.0</ele>
<speed>118</speed>
<course>124.6</course>
<desc>Speed 118 km/h Distance 76.00 km</desc>
<time>2011-03-24T16:22:07.18</time>
<name>3192</name>
</trkpt>
<trkpt lat="49.326288" lon="9.110793">
<ele>191.5</ele>
<speed>117</speed>
<course>124.2</course>
<desc>Speed 117 km/h Distance 76.04 km</desc>
<time>2011-03-24T16:22:08.18</time>
<name>3193</name>
</trkpt>
<trkpt lat="49.326125" lon="9.111162">
<ele>191.5</ele>
<speed>116</speed>
<course>123.7</course>
<desc>Speed 116 km/h Distance 76.07 km</desc>
<time>2011-03-24T16:22:09.18</time>
<name>3194</name>
</trkpt>
<trkpt lat="49.325965" lon="9.111530">
<ele>192.0</ele>
<speed>115</speed>
<course>123.7</course>
<desc>Speed 115 km/h Distance 76.10 km</desc>
<time>2011-03-24T16:22:10.19</time>
<name>3195</name>
</trkpt>
<trkpt lat="49.325805" lon="9.111898">
<ele>192.0</ele>
<speed>115</speed>
<course>123.1</course>
<desc>Speed 115 km/h Distance 76.13 km</desc>
<time>2011-03-24T16:22:11.18</time>
<name>3196</name>
</trkpt>
<trkpt lat="49.325648" lon="9.112267">
<ele>191.5</ele>
<speed>115</speed>
<course>122.4</course>
<desc>Speed 115 km/h Distance 76.17 km</desc>
<time>2011-03-24T16:22:12.18</time>
<name>3197</name>
</trkpt>
<trkpt lat="49.325495" lon="9.112637">
<ele>191.5</ele>
<speed>114</speed>
<course>121.4</course>
<desc>Speed 114 km/h Distance 76.20 km</desc>
<time>2011-03-24T16:22:13.17</time>
<name>3198</name>
</trkpt>
<trkpt lat="49.325345" lon="9.113013">
<ele>192.5</ele>
<speed>114</speed>
<course>120.3</course>
<desc>Speed 114 km/h Distance 76.23 km</desc>
<time>2011-03-24T16:22:14.18</time>
<name>3199</name>
</trkpt>
<trkpt lat="49.325198" lon="9.113398">
<ele>193.5</ele>
<speed>115</speed>
<course>118.8</course>
<desc>Speed 115 km/h Distance 76.26 km</desc>
<time>2011-03-24T16:22:15.18</time>
<name>3200</name>
</trkpt>
<trkpt lat="49.325062" lon="9.113780">
<ele>193.5</ele>
<speed>114</speed>
<course>118.5</course>
<desc>Speed 114 km/h Distance 76.29 km</desc>
<time>2011-03-24T16:22:16.18</time>
<name>3201</name>
</trkpt>
<trkpt lat="49.324927" lon="9.114162">
<ele>193.0</ele>
<speed>113</speed>
<course>119.1</course>
<desc>Speed 113 km/h Distance 76.32 km</desc>
<time>2011-03-24T16:22:17.17</time>
<name>3202</name>
</trkpt>
<trkpt lat="49.324788" lon="9.114543">
<ele>193.0</ele>
<speed>114</speed>
<course>119.3</course>
<desc>Speed 114 km/h Distance 76.36 km</desc>
<time>2011-03-24T16:22:18.17</time>
<name>3203</name>
</trkpt>
<trkpt lat="49.324650" lon="9.114922">
<ele>193.0</ele>
<speed>113</speed>
<course>119.7</course>
<desc>Speed 113 km/h Distance 76.39 km</desc>
<time>2011-03-24T16:22:19.17</time>
<name>3204</name>
</trkpt>
<trkpt lat="49.324510" lon="9.115298">
<ele>193.0</ele>
<speed>114</speed>
<course>120.2</course>
<desc>Speed 114 km/h Distance 76.42 km</desc>
<time>2011-03-24T16:22:20.17</time>
<name>3205</name>
</trkpt>
<trkpt lat="49.324368" lon="9.115672">
<ele>192.5</ele>
<speed>113</speed>
<course>120.2</course>
<desc>Speed 113 km/h Distance 76.45 km</desc>
<time>2011-03-24T16:22:21.17</time>
<name>3206</name>
</trkpt>
<trkpt lat="49.324227" lon="9.116045">
<ele>192.5</ele>
<speed>114</speed>
<course>120.2</course>
<desc>Speed 114 km/h Distance 76.48 km</desc>
<time>2011-03-24T16:22:22.17</time>
<name>3207</name>
</trkpt>
<trkpt lat="49.324085" lon="9.116418">
<ele>192.5</ele>
<speed>113</speed>
<course>120.5</course>
<desc>Speed 113 km/h Distance 76.51 km</desc>
<time>2011-03-24T16:22:23.17</time>
<name>3208</name>
</trkpt>
<trkpt lat="49.323942" lon="9.116792">
<ele>192.0</ele>
<speed>113</speed>
<course>120.8</course>
<desc>Speed 113 km/h Distance 76.54 km</desc>
<time>2011-03-24T16:22:24.17</time>
<name>3209</name>
</trkpt>
<trkpt lat="49.323798" lon="9.117160">
<ele>192.0</ele>
<speed>113</speed>
<course>121.4</course>
<desc>Speed 113 km/h Distance 76.58 km</desc>
<time>2011-03-24T16:22:25.17</time>
<name>3210</name>
</trkpt>
<trkpt lat="49.323652" lon="9.117528">
<ele>191.5</ele>
<speed>113</speed>
<course>121.1</course>
<desc>Speed 113 km/h Distance 76.61 km</desc>
<time>2011-03-24T16:22:26.17</time>
<name>3211</name>
</trkpt>
<trkpt lat="49.323507" lon="9.117897">
<ele>191.5</ele>
<speed>113</speed>
<course>121.4</course>
<desc>Speed 113 km/h Distance 76.64 km</desc>
<time>2011-03-24T16:22:27.17</time>
<name>3212</name>
</trkpt>
<trkpt lat="49.323360" lon="9.118265">
<ele>191.5</ele>
<speed>113</speed>
<course>121.7</course>
<desc>Speed 113 km/h Distance 76.67 km</desc>
<time>2011-03-24T16:22:28.17</time>
<name>3213</name>
</trkpt>
<trkpt lat="49.323213" lon="9.118630">
<ele>191.5</ele>
<speed>113</speed>
<course>122.1</course>
<desc>Speed 113 km/h Distance 76.70 km</desc>
<time>2011-03-24T16:22:29.17</time>
<name>3214</name>
</trkpt>
<trkpt lat="49.323065" lon="9.118993">
<ele>192.0</ele>
<speed>112</speed>
<course>122.5</course>
<desc>Speed 112 km/h Distance 76.73 km</desc>
<time>2011-03-24T16:22:30.17</time>
<name>3215</name>
</trkpt>
<trkpt lat="49.322915" lon="9.119355">
<ele>192.0</ele>
<speed>112</speed>
<course>122.6</course>
<desc>Speed 112 km/h Distance 76.76 km</desc>
<time>2011-03-24T16:22:31.17</time>
<name>3216</name>
</trkpt>
<trkpt lat="49.322763" lon="9.119718">
<ele>192.0</ele>
<speed>112</speed>
<course>122.8</course>
<desc>Speed 112 km/h Distance 76.79 km</desc>
<time>2011-03-24T16:22:32.17</time>
<name>3217</name>
</trkpt>
<trkpt lat="49.322612" lon="9.120080">
<ele>192.0</ele>
<speed>112</speed>
<course>123.0</course>
<desc>Speed 112 km/h Distance 76.83 km</desc>
<time>2011-03-24T16:22:33.16</time>
<name>3218</name>
</trkpt>
<trkpt lat="49.322460" lon="9.120438">
<ele>192.0</ele>
<speed>112</speed>
<course>123.6</course>
<desc>Speed 112 km/h Distance 76.86 km</desc>
<time>2011-03-24T16:22:34.17</time>
<name>3219</name>
</trkpt>
<trkpt lat="49.322305" lon="9.120797">
<ele>192.0</ele>
<speed>112</speed>
<course>123.7</course>
<desc>Speed 112 km/h Distance 76.89 km</desc>
<time>2011-03-24T16:22:35.16</time>
<name>3220</name>
</trkpt>
<trkpt lat="49.322150" lon="9.121153">
<ele>192.5</ele>
<speed>112</speed>
<course>123.9</course>
<desc>Speed 112 km/h Distance 76.92 km</desc>
<time>2011-03-24T16:22:36.17</time>
<name>3221</name>
</trkpt>
<trkpt lat="49.321997" lon="9.121503">
<ele>192.5</ele>
<speed>110</speed>
<course>123.7</course>
<desc>Speed 110 km/h Distance 76.95 km</desc>
<time>2011-03-24T16:22:37.16</time>
<name>3222</name>
</trkpt>
<trkpt lat="49.321848" lon="9.121845">
<ele>191.5</ele>
<speed>107</speed>
<course>124.3</course>
<desc>Speed 107 km/h Distance 76.98 km</desc>
<time>2011-03-24T16:22:38.16</time>
<name>3223</name>
</trkpt>
<trkpt lat="49.321697" lon="9.122187">
<ele>191.5</ele>
<speed>108</speed>
<course>124.3</course>
<desc>Speed 108 km/h Distance 77.01 km</desc>
<time>2011-03-24T16:22:39.16</time>
<name>3224</name>
</trkpt>
<trkpt lat="49.321548" lon="9.122520">
<ele>191.5</ele>
<speed>106</speed>
<course>125.0</course>
<desc>Speed 106 km/h Distance 77.04 km</desc>
<time>2011-03-24T16:22:40.17</time>
<name>3225</name>
</trkpt>
<trkpt lat="49.321400" lon="9.122845">
<ele>192.0</ele>
<speed>104</speed>
<course>125.1</course>
<desc>Speed 104 km/h Distance 77.07 km</desc>
<time>2011-03-24T16:22:41.16</time>
<name>3226</name>
</trkpt>
<trkpt lat="49.321253" lon="9.123165">
<ele>192.0</ele>
<speed>102</speed>
<course>124.5</course>
<desc>Speed 102 km/h Distance 77.10 km</desc>
<time>2011-03-24T16:22:42.16</time>
<name>3227</name>
</trkpt>
<trkpt lat="49.321112" lon="9.123482">
<ele>192.5</ele>
<speed>100</speed>
<course>124.7</course>
<desc>Speed 100 km/h Distance 77.12 km</desc>
<time>2011-03-24T16:22:43.16</time>
<name>3228</name>
</trkpt>
<trkpt lat="49.320973" lon="9.123788">
<ele>192.5</ele>
<speed>97.7</speed>
<course>124.3</course>
<desc>Speed 97.7 km/h Distance 77.15 km</desc>
<time>2011-03-24T16:22:44.16</time>
<name>3229</name>
</trkpt>
<trkpt lat="49.320838" lon="9.124092">
<ele>193.0</ele>
<speed>95.4</speed>
<course>124.4</course>
<desc>Speed 95.4 km/h Distance 77.18 km</desc>
<time>2011-03-24T16:22:45.16</time>
<name>3230</name>
</trkpt>
<trkpt lat="49.320705" lon="9.124390">
<ele>193.0</ele>
<speed>93.8</speed>
<course>123.9</course>
<desc>Speed 93.8 km/h Distance 77.20 km</desc>
<time>2011-03-24T16:22:46.16</time>
<name>3231</name>
</trkpt>
<trkpt lat="49.320577" lon="9.124683">
<ele>193.5</ele>
<speed>91.6</speed>
<course>123.5</course>
<desc>Speed 91.6 km/h Distance 77.23 km</desc>
<time>2011-03-24T16:22:47.16</time>
<name>3232</name>
</trkpt>
<trkpt lat="49.320452" lon="9.124973">
<ele>194.0</ele>
<speed>90.0</speed>
<course>123.6</course>
<desc>Speed 90.0 km/h Distance 77.25 km</desc>
<time>2011-03-24T16:22:48.16</time>
<name>3233</name>
</trkpt>
<trkpt lat="49.320328" lon="9.125258">
<ele>194.5</ele>
<speed>88.9</speed>
<course>124.2</course>
<desc>Speed 88.9 km/h Distance 77.28 km</desc>
<time>2011-03-24T16:22:49.16</time>
<name>3234</name>
</trkpt>
<trkpt lat="49.320205" lon="9.125537">
<ele>195.0</ele>
<speed>87.7</speed>
<course>123.6</course>
<desc>Speed 87.7 km/h Distance 77.30 km</desc>
<time>2011-03-24T16:22:50.16</time>
<name>3235</name>
</trkpt>
<trkpt lat="49.320085" lon="9.125813">
<ele>195.5</ele>
<speed>86.0</speed>
<course>123.5</course>
<desc>Speed 86.0 km/h Distance 77.33 km</desc>
<time>2011-03-24T16:22:51.16</time>
<name>3236</name>
</trkpt>
<trkpt lat="49.319968" lon="9.126083">
<ele>196.0</ele>
<speed>84.1</speed>
<course>123.3</course>
<desc>Speed 84.1 km/h Distance 77.35 km</desc>
<time>2011-03-24T16:22:52.16</time>
<name>3237</name>
</trkpt>
<trkpt lat="49.319855" lon="9.126348">
<ele>196.0</ele>
<speed>82.2</speed>
<course>122.7</course>
<desc>Speed 82.2 km/h Distance 77.37 km</desc>
<time>2011-03-24T16:22:53.16</time>
<name>3238</name>
</trkpt>
<trkpt lat="49.319748" lon="9.126603">
<ele>196.5</ele>
<speed>79.0</speed>
<course>124.2</course>
<desc>Speed 79.0 km/h Distance 77.40 km</desc>
<time>2011-03-24T16:22:54.15</time>
<name>3239</name>
</trkpt>
<trkpt lat="49.319643" lon="9.126840">
<ele>197.0</ele>
<speed>74.9</speed>
<course>123.2</course>
<desc>Speed 74.9 km/h Distance 77.42 km</desc>
<time>2011-03-24T16:22:55.17</time>
<name>3240</name>
</trkpt>
<trkpt lat="49.319365" lon="9.127492">
<ele>197.5</ele>
<speed>63.5</speed>
<course>122.8</course>
<desc>Speed 63.5 km/h Distance 77.47 km</desc>
<time>2011-03-24T16:22:59.16</time>
<name>3241</name>
</trkpt>
<trkpt lat="49.319282" lon="9.127690">
<ele>197.5</ele>
<speed>61.9</speed>
<course>123.8</course>
<desc>Speed 61.9 km/h Distance 77.49 km</desc>
<time>2011-03-24T16:23:00.16</time>
<name>3242</name>
</trkpt>
<trkpt lat="49.319197" lon="9.127885">
<ele>197.5</ele>
<speed>61.4</speed>
<course>123.7</course>
<desc>Speed 61.4 km/h Distance 77.51 km</desc>
<time>2011-03-24T16:23:01.15</time>
<name>3243</name>
</trkpt>
<trkpt lat="49.319113" lon="9.128077">
<ele>197.0</ele>
<speed>60.7</speed>
<course>122.4</course>
<desc>Speed 60.7 km/h Distance 77.52 km</desc>
<time>2011-03-24T16:23:02.15</time>
<name>3244</name>
</trkpt>
<trkpt lat="49.319033" lon="9.128270">
<ele>197.0</ele>
<speed>60.1</speed>
<course>120.9</course>
<desc>Speed 60.1 km/h Distance 77.54 km</desc>
<time>2011-03-24T16:23:03.15</time>
<name>3245</name>
</trkpt>
<trkpt lat="49.318957" lon="9.128467">
<ele>197.0</ele>
<speed>59.9</speed>
<course>119.4</course>
<desc>Speed 59.9 km/h Distance 77.56 km</desc>
<time>2011-03-24T16:23:04.15</time>
<name>3246</name>
</trkpt>
<trkpt lat="49.318885" lon="9.128662">
<ele>197.5</ele>
<speed>59.1</speed>
<course>117.5</course>
<desc>Speed 59.1 km/h Distance 77.57 km</desc>
<time>2011-03-24T16:23:05.16</time>
<name>3247</name>
</trkpt>
<trkpt lat="49.318818" lon="9.128858">
<ele>197.0</ele>
<speed>58.2</speed>
<course>115.7</course>
<desc>Speed 58.2 km/h Distance 77.59 km</desc>
<time>2011-03-24T16:23:06.15</time>
<name>3248</name>
</trkpt>
<trkpt lat="49.318757" lon="9.129055">
<ele>197.5</ele>
<speed>57.5</speed>
<course>113.8</course>
<desc>Speed 57.5 km/h Distance 77.61 km</desc>
<time>2011-03-24T16:23:07.15</time>
<name>3249</name>
</trkpt>
<trkpt lat="49.318700" lon="9.129252">
<ele>198.0</ele>
<speed>56.3</speed>
<course>112.5</course>
<desc>Speed 56.3 km/h Distance 77.62 km</desc>
<time>2011-03-24T16:23:08.15</time>
<name>3250</name>
</trkpt>
<trkpt lat="49.318648" lon="9.129443">
<ele>198.5</ele>
<speed>54.0</speed>
<course>111.1</course>
<desc>Speed 54.0 km/h Distance 77.64 km</desc>
<time>2011-03-24T16:23:09.15</time>
<name>3251</name>
</trkpt>
<trkpt lat="49.318600" lon="9.129635">
<ele>200.0</ele>
<speed>53.6</speed>
<course>112.8</course>
<desc>Speed 53.6 km/h Distance 77.65 km</desc>
<time>2011-03-24T16:23:10.15</time>
<name>3252</name>
</trkpt>
<trkpt lat="49.318548" lon="9.129823">
<ele>198.5</ele>
<speed>53.4</speed>
<course>108.1</course>
<desc>Speed 53.4 km/h Distance 77.67 km</desc>
<time>2011-03-24T16:23:11.15</time>
<name>3253</name>
</trkpt>
<trkpt lat="49.318507" lon="9.130018">
<ele>199.0</ele>
<speed>53.8</speed>
<course>105.8</course>
<desc>Speed 53.8 km/h Distance 77.68 km</desc>
<time>2011-03-24T16:23:12.15</time>
<name>3254</name>
</trkpt>
<trkpt lat="49.318470" lon="9.130217">
<ele>199.5</ele>
<speed>53.5</speed>
<course>103.3</course>
<desc>Speed 53.5 km/h Distance 77.70 km</desc>
<time>2011-03-24T16:23:13.14</time>
<name>3255</name>
</trkpt>
<trkpt lat="49.318440" lon="9.130412">
<ele>200.0</ele>
<speed>52.3</speed>
<course>101.3</course>
<desc>Speed 52.3 km/h Distance 77.71 km</desc>
<time>2011-03-24T16:23:14.15</time>
<name>3256</name>
</trkpt>
<trkpt lat="49.318415" lon="9.130603">
<ele>200.0</ele>
<speed>51.0</speed>
<course>98.6</course>
<desc>Speed 51.0 km/h Distance 77.72 km</desc>
<time>2011-03-24T16:23:15.15</time>
<name>3257</name>
</trkpt>
<trkpt lat="49.318397" lon="9.130788">
<ele>200.0</ele>
<speed>49.1</speed>
<course>96.3</course>
<desc>Speed 49.1 km/h Distance 77.74 km</desc>
<time>2011-03-24T16:23:16.15</time>
<name>3258</name>
</trkpt>
<trkpt lat="49.318383" lon="9.130973">
<ele>199.5</ele>
<speed>49.0</speed>
<course>94.9</course>
<desc>Speed 49.0 km/h Distance 77.75 km</desc>
<time>2011-03-24T16:23:17.15</time>
<name>3259</name>
</trkpt>
<trkpt lat="49.318373" lon="9.131152">
<ele>200.0</ele>
<speed>46.7</speed>
<course>94.3</course>
<desc>Speed 46.7 km/h Distance 77.76 km</desc>
<time>2011-03-24T16:23:18.14</time>
<name>3260</name>
</trkpt>
<trkpt lat="49.318365" lon="9.131320">
<ele>200.0</ele>
<speed>44.4</speed>
<course>93.8</course>
<desc>Speed 44.4 km/h Distance 77.78 km</desc>
<time>2011-03-24T16:23:19.14</time>
<name>3261</name>
</trkpt>
<trkpt lat="49.318358" lon="9.131473">
<ele>200.0</ele>
<speed>40.6</speed>
<course>92.0</course>
<desc>Speed 40.6 km/h Distance 77.79 km</desc>
<time>2011-03-24T16:23:20.14</time>
<name>3262</name>
</trkpt>
<trkpt lat="49.318355" lon="9.131618">
<ele>199.5</ele>
<speed>37.9</speed>
<course>93.3</course>
<desc>Speed 37.9 km/h Distance 77.80 km</desc>
<time>2011-03-24T16:23:21.14</time>
<name>3263</name>
</trkpt>
<trkpt lat="49.318350" lon="9.131753">
<ele>199.5</ele>
<speed>35.7</speed>
<course>92.2</course>
<desc>Speed 35.7 km/h Distance 77.81 km</desc>
<time>2011-03-24T16:23:22.14</time>
<name>3264</name>
</trkpt>
<trkpt lat="49.318347" lon="9.131888">
<ele>199.5</ele>
<speed>35.7</speed>
<course>91.1</course>
<desc>Speed 35.7 km/h Distance 77.82 km</desc>
<time>2011-03-24T16:23:23.14</time>
<name>3265</name>
</trkpt>
<trkpt lat="49.318345" lon="9.132023">
<ele>199.5</ele>
<speed>35.2</speed>
<course>92.1</course>
<desc>Speed 35.2 km/h Distance 77.83 km</desc>
<time>2011-03-24T16:23:24.14</time>
<name>3266</name>
</trkpt>
<trkpt lat="49.318342" lon="9.132163">
<ele>199.0</ele>
<speed>37.1</speed>
<course>91.8</course>
<desc>Speed 37.1 km/h Distance 77.84 km</desc>
<time>2011-03-24T16:23:25.15</time>
<name>3267</name>
</trkpt>
<trkpt lat="49.318338" lon="9.132322">
<ele>198.5</ele>
<speed>41.1</speed>
<course>91.7</course>
<desc>Speed 41.1 km/h Distance 77.85 km</desc>
<time>2011-03-24T16:23:26.13</time>
<name>3268</name>
</trkpt>
<trkpt lat="49.318335" lon="9.132492">
<ele>198.5</ele>
<speed>44.9</speed>
<course>94.0</course>
<desc>Speed 44.9 km/h Distance 77.86 km</desc>
<time>2011-03-24T16:23:27.14</time>
<name>3269</name>
</trkpt>
<trkpt lat="49.318327" lon="9.132673">
<ele>198.5</ele>
<speed>47.4</speed>
<course>96.3</course>
<desc>Speed 47.4 km/h Distance 77.88 km</desc>
<time>2011-03-24T16:23:28.14</time>
<name>3270</name>
</trkpt>
<trkpt lat="49.318313" lon="9.132858">
<ele>198.5</ele>
<speed>48.7</speed>
<course>99.4</course>
<desc>Speed 48.7 km/h Distance 77.89 km</desc>
<time>2011-03-24T16:23:29.14</time>
<name>3271</name>
</trkpt>
<trkpt lat="49.318293" lon="9.133043">
<ele>198.5</ele>
<speed>49.0</speed>
<course>101.8</course>
<desc>Speed 49.0 km/h Distance 77.90 km</desc>
<time>2011-03-24T16:23:30.13</time>
<name>3272</name>
</trkpt>
<trkpt lat="49.318268" lon="9.133227">
<ele>198.5</ele>
<speed>48.8</speed>
<course>106.5</course>
<desc>Speed 48.8 km/h Distance 77.92 km</desc>
<time>2011-03-24T16:23:31.13</time>
<name>3273</name>
</trkpt>
<trkpt lat="49.318233" lon="9.133408">
<ele>198.5</ele>
<speed>49.0</speed>
<course>117.1</course>
<desc>Speed 49.0 km/h Distance 77.93 km</desc>
<time>2011-03-24T16:23:32.14</time>
<name>3274</name>
</trkpt>
<trkpt lat="49.318180" lon="9.133568">
<ele>198.5</ele>
<speed>46.8</speed>
<course>116.6</course>
<desc>Speed 46.8 km/h Distance 77.94 km</desc>
<time>2011-03-24T16:23:33.14</time>
<name>3275</name>
</trkpt>
<trkpt lat="49.318125" lon="9.133737">
<ele>198.5</ele>
<speed>48.6</speed>
<course>122.5</course>
<desc>Speed 48.6 km/h Distance 77.96 km</desc>
<time>2011-03-24T16:23:34.13</time>
<name>3276</name>
</trkpt>
<trkpt lat="49.318060" lon="9.133893">
<ele>198.5</ele>
<speed>48.6</speed>
<course>129.1</course>
<desc>Speed 48.6 km/h Distance 77.97 km</desc>
<time>2011-03-24T16:23:35.14</time>
<name>3277</name>
</trkpt>
<trkpt lat="49.317985" lon="9.134035">
<ele>199.5</ele>
<speed>47.8</speed>
<course>130.6</course>
<desc>Speed 47.8 km/h Distance 77.98 km</desc>
<time>2011-03-24T16:23:36.13</time>
<name>3278</name>
</trkpt>
<trkpt lat="49.317907" lon="9.134175">
<ele>199.5</ele>
<speed>48.2</speed>
<course>131.5</course>
<desc>Speed 48.2 km/h Distance 78.00 km</desc>
<time>2011-03-24T16:23:37.13</time>
<name>3279</name>
</trkpt>
<trkpt lat="49.317825" lon="9.134317">
<ele>200.0</ele>
<speed>49.4</speed>
<course>132.9</course>
<desc>Speed 49.4 km/h Distance 78.01 km</desc>
<time>2011-03-24T16:23:38.13</time>
<name>3280</name>
</trkpt>
<trkpt lat="49.317743" lon="9.134452">
<ele>200.0</ele>
<speed>47.8</speed>
<course>132.2</course>
<desc>Speed 47.8 km/h Distance 78.02 km</desc>
<time>2011-03-24T16:23:39.14</time>
<name>3281</name>
</trkpt>
<trkpt lat="49.317662" lon="9.134590">
<ele>199.5</ele>
<speed>48.9</speed>
<course>133.0</course>
<desc>Speed 48.9 km/h Distance 78.04 km</desc>
<time>2011-03-24T16:23:40.14</time>
<name>3282</name>
</trkpt>
<trkpt lat="49.317577" lon="9.134730">
<ele>199.5</ele>
<speed>49.8</speed>
<course>132.8</course>
<desc>Speed 49.8 km/h Distance 78.05 km</desc>
<time>2011-03-24T16:23:41.14</time>
<name>3283</name>
</trkpt>
<trkpt lat="49.317490" lon="9.134873">
<ele>199.0</ele>
<speed>50.7</speed>
<course>131.6</course>
<desc>Speed 50.7 km/h Distance 78.07 km</desc>
<time>2011-03-24T16:23:42.14</time>
<name>3284</name>
</trkpt>
<trkpt lat="49.317405" lon="9.135020">
<ele>199.0</ele>
<speed>51.4</speed>
<course>132.4</course>
<desc>Speed 51.4 km/h Distance 78.08 km</desc>
<time>2011-03-24T16:23:43.13</time>
<name>3285</name>
</trkpt>
<trkpt lat="49.317317" lon="9.135168">
<ele>199.0</ele>
<speed>52.3</speed>
<course>131.6</course>
<desc>Speed 52.3 km/h Distance 78.09 km</desc>
<time>2011-03-24T16:23:44.13</time>
<name>3286</name>
</trkpt>
<trkpt lat="49.317232" lon="9.135315">
<ele>199.0</ele>
<speed>51.4</speed>
<course>132.6</course>
<desc>Speed 51.4 km/h Distance 78.11 km</desc>
<time>2011-03-24T16:23:45.13</time>
<name>3287</name>
</trkpt>
<trkpt lat="49.317147" lon="9.135457">
<ele>198.5</ele>
<speed>50.4</speed>
<course>131.2</course>
<desc>Speed 50.4 km/h Distance 78.12 km</desc>
<time>2011-03-24T16:23:46.13</time>
<name>3288</name>
</trkpt>
<trkpt lat="49.317065" lon="9.135600">
<ele>198.5</ele>
<speed>49.9</speed>
<course>129.9</course>
<desc>Speed 49.9 km/h Distance 78.14 km</desc>
<time>2011-03-24T16:23:47.14</time>
<name>3289</name>
</trkpt>
<trkpt lat="49.316985" lon="9.135747">
<ele>198.5</ele>
<speed>50.0</speed>
<course>129.3</course>
<desc>Speed 50.0 km/h Distance 78.15 km</desc>
<time>2011-03-24T16:23:48.13</time>
<name>3290</name>
</trkpt>
<trkpt lat="49.316905" lon="9.135897">
<ele>198.5</ele>
<speed>49.5</speed>
<course>131.7</course>
<desc>Speed 49.5 km/h Distance 78.16 km</desc>
<time>2011-03-24T16:23:49.14</time>
<name>3291</name>
</trkpt>
<trkpt lat="49.316822" lon="9.136040">
<ele>198.5</ele>
<speed>50.2</speed>
<course>132.7</course>
<desc>Speed 50.2 km/h Distance 78.18 km</desc>
<time>2011-03-24T16:23:50.13</time>
<name>3292</name>
</trkpt>
<trkpt lat="49.316738" lon="9.136178">
<ele>198.5</ele>
<speed>49.9</speed>
<course>134.4</course>
<desc>Speed 49.9 km/h Distance 78.19 km</desc>
<time>2011-03-24T16:23:51.13</time>
<name>3293</name>
</trkpt>
<trkpt lat="49.316653" lon="9.136312">
<ele>198.5</ele>
<speed>48.9</speed>
<course>134.7</course>
<desc>Speed 48.9 km/h Distance 78.21 km</desc>
<time>2011-03-24T16:23:52.12</time>
<name>3294</name>
</trkpt>
<trkpt lat="49.316568" lon="9.136443">
<ele>198.0</ele>
<speed>48.2</speed>
<course>135.1</course>
<desc>Speed 48.2 km/h Distance 78.22 km</desc>
<time>2011-03-24T16:23:53.13</time>
<name>3295</name>
</trkpt>
<trkpt lat="49.316483" lon="9.136573">
<ele>198.0</ele>
<speed>47.9</speed>
<course>134.9</course>
<desc>Speed 47.9 km/h Distance 78.23 km</desc>
<time>2011-03-24T16:23:54.12</time>
<name>3296</name>
</trkpt>
<trkpt lat="49.316400" lon="9.136702">
<ele>198.0</ele>
<speed>47.6</speed>
<course>135.5</course>
<desc>Speed 47.6 km/h Distance 78.25 km</desc>
<time>2011-03-24T16:23:55.13</time>
<name>3297</name>
</trkpt>
<trkpt lat="49.316315" lon="9.136830">
<ele>197.5</ele>
<speed>48.0</speed>
<course>140.6</course>
<desc>Speed 48.0 km/h Distance 78.26 km</desc>
<time>2011-03-24T16:23:56.14</time>
<name>3298</name>
</trkpt>
<trkpt lat="49.316218" lon="9.136952">
<ele>197.5</ele>
<speed>50.0</speed>
<course>149.0</course>
<desc>Speed 50.0 km/h Distance 78.27 km</desc>
<time>2011-03-24T16:23:57.13</time>
<name>3299</name>
</trkpt>
<trkpt lat="49.316092" lon="9.137068">
<ele>197.5</ele>
<speed>59.4</speed>
<course>139.0</course>
<desc>Speed 59.4 km/h Distance 78.29 km</desc>
<time>2011-03-24T16:23:58.12</time>
<name>3300</name>
</trkpt>
<trkpt lat="49.315992" lon="9.137202">
<ele>197.5</ele>
<speed>53.3</speed>
<course>136.8</course>
<desc>Speed 53.3 km/h Distance 78.30 km</desc>
<time>2011-03-24T16:23:59.13</time>
<name>3301</name>
</trkpt>
<trkpt lat="49.315897" lon="9.137338">
<ele>197.5</ele>
<speed>52.4</speed>
<course>137.7</course>
<desc>Speed 52.4 km/h Distance 78.32 km</desc>
<time>2011-03-24T16:24:00.13</time>
<name>3302</name>
</trkpt>
<trkpt lat="49.315800" lon="9.137473">
<ele>197.5</ele>
<speed>52.3</speed>
<course>137.9</course>
<desc>Speed 52.3 km/h Distance 78.33 km</desc>
<time>2011-03-24T16:24:01.13</time>
<name>3303</name>
</trkpt>
<trkpt lat="49.315705" lon="9.137605">
<ele>197.5</ele>
<speed>51.9</speed>
<course>137.4</course>
<desc>Speed 51.9 km/h Distance 78.35 km</desc>
<time>2011-03-24T16:24:02.13</time>
<name>3304</name>
</trkpt>
<trkpt lat="49.315612" lon="9.137737">
<ele>198.0</ele>
<speed>51.3</speed>
<course>137.8</course>
<desc>Speed 51.3 km/h Distance 78.36 km</desc>
<time>2011-03-24T16:24:03.13</time>
<name>3305</name>
</trkpt>
<trkpt lat="49.315513" lon="9.137873">
<ele>198.0</ele>
<speed>53.2</speed>
<course>137.9</course>
<desc>Speed 53.2 km/h Distance 78.38 km</desc>
<time>2011-03-24T16:24:04.13</time>
<name>3306</name>
</trkpt>
<trkpt lat="49.315410" lon="9.138017">
<ele>198.0</ele>
<speed>56.4</speed>
<course>138.1</course>
<desc>Speed 56.4 km/h Distance 78.39 km</desc>
<time>2011-03-24T16:24:05.12</time>
<name>3307</name>
</trkpt>
<trkpt lat="49.315300" lon="9.138168">
<ele>198.0</ele>
<speed>59.4</speed>
<course>137.1</course>
<desc>Speed 59.4 km/h Distance 78.41 km</desc>
<time>2011-03-24T16:24:06.12</time>
<name>3308</name>
</trkpt>
<trkpt lat="49.315190" lon="9.138325">
<ele>198.0</ele>
<speed>60.8</speed>
<course>137.7</course>
<desc>Speed 60.8 km/h Distance 78.42 km</desc>
<time>2011-03-24T16:24:07.12</time>
<name>3309</name>
</trkpt>
<trkpt lat="49.315077" lon="9.138483">
<ele>197.5</ele>
<speed>62.4</speed>
<course>136.6</course>
<desc>Speed 62.4 km/h Distance 78.44 km</desc>
<time>2011-03-24T16:24:08.12</time>
<name>3310</name>
</trkpt>
<trkpt lat="49.314962" lon="9.138650">
<ele>197.5</ele>
<speed>63.4</speed>
<course>136.8</course>
<desc>Speed 63.4 km/h Distance 78.46 km</desc>
<time>2011-03-24T16:24:09.12</time>
<name>3311</name>
</trkpt>
<trkpt lat="49.314845" lon="9.138818">
<ele>197.5</ele>
<speed>64.9</speed>
<course>136.6</course>
<desc>Speed 64.9 km/h Distance 78.48 km</desc>
<time>2011-03-24T16:24:10.11</time>
<name>3312</name>
</trkpt>
<trkpt lat="49.314727" lon="9.138990">
<ele>197.5</ele>
<speed>65.7</speed>
<course>136.0</course>
<desc>Speed 65.7 km/h Distance 78.50 km</desc>
<time>2011-03-24T16:24:11.12</time>
<name>3313</name>
</trkpt>
<trkpt lat="49.314608" lon="9.139165">
<ele>197.5</ele>
<speed>66.5</speed>
<course>135.1</course>
<desc>Speed 66.5 km/h Distance 78.51 km</desc>
<time>2011-03-24T16:24:12.11</time>
<name>3314</name>
</trkpt>
<trkpt lat="49.314492" lon="9.139343">
<ele>197.5</ele>
<speed>66.7</speed>
<course>135.0</course>
<desc>Speed 66.7 km/h Distance 78.53 km</desc>
<time>2011-03-24T16:24:13.12</time>
<name>3315</name>
</trkpt>
<trkpt lat="49.314373" lon="9.139525">
<ele>197.5</ele>
<speed>67.6</speed>
<course>134.3</course>
<desc>Speed 67.6 km/h Distance 78.55 km</desc>
<time>2011-03-24T16:24:14.11</time>
<name>3316</name>
</trkpt>
<trkpt lat="49.314257" lon="9.139708">
<ele>197.0</ele>
<speed>68.7</speed>
<course>134.1</course>
<desc>Speed 68.7 km/h Distance 78.57 km</desc>
<time>2011-03-24T16:24:15.12</time>
<name>3317</name>
</trkpt>
<trkpt lat="49.314137" lon="9.139898">
<ele>196.5</ele>
<speed>69.9</speed>
<course>132.5</course>
<desc>Speed 69.9 km/h Distance 78.59 km</desc>
<time>2011-03-24T16:24:16.12</time>
<name>3318</name>
</trkpt>
<trkpt lat="49.314018" lon="9.140097">
<ele>196.5</ele>
<speed>71.0</speed>
<course>132.7</course>
<desc>Speed 71.0 km/h Distance 78.61 km</desc>
<time>2011-03-24T16:24:17.12</time>
<name>3319</name>
</trkpt>
<trkpt lat="49.313900" lon="9.140293">
<ele>196.5</ele>
<speed>69.8</speed>
<course>132.0</course>
<desc>Speed 69.8 km/h Distance 78.63 km</desc>
<time>2011-03-24T16:24:18.11</time>
<name>3320</name>
</trkpt>
<trkpt lat="49.313788" lon="9.140483">
<ele>196.5</ele>
<speed>67.6</speed>
<course>131.6</course>
<desc>Speed 67.6 km/h Distance 78.65 km</desc>
<time>2011-03-24T16:24:19.12</time>
<name>3321</name>
</trkpt>
<trkpt lat="49.313678" lon="9.140673">
<ele>196.5</ele>
<speed>67.5</speed>
<course>131.5</course>
<desc>Speed 67.5 km/h Distance 78.66 km</desc>
<time>2011-03-24T16:24:20.12</time>
<name>3322</name>
</trkpt>
<trkpt lat="49.313565" lon="9.140870">
<ele>196.5</ele>
<speed>68.9</speed>
<course>130.6</course>
<desc>Speed 68.9 km/h Distance 78.68 km</desc>
<time>2011-03-24T16:24:21.12</time>
<name>3323</name>
</trkpt>
<trkpt lat="49.313453" lon="9.141070">
<ele>196.0</ele>
<speed>69.6</speed>
<course>129.9</course>
<desc>Speed 69.6 km/h Distance 78.70 km</desc>
<time>2011-03-24T16:24:22.11</time>
<name>3324</name>
</trkpt>
<trkpt lat="49.313342" lon="9.141275">
<ele>196.5</ele>
<speed>70.8</speed>
<course>128.4</course>
<desc>Speed 70.8 km/h Distance 78.72 km</desc>
<time>2011-03-24T16:24:23.12</time>
<name>3325</name>
</trkpt>
<trkpt lat="49.313240" lon="9.141472">
<ele>194.0</ele>
<speed>67.4</speed>
<course>127.3</course>
<desc>Speed 67.4 km/h Distance 78.74 km</desc>
<time>2011-03-24T16:24:24.11</time>
<name>3326</name>
</trkpt>
<trkpt lat="49.313140" lon="9.141673">
<ele>192.5</ele>
<speed>68.9</speed>
<course>126.8</course>
<desc>Speed 68.9 km/h Distance 78.76 km</desc>
<time>2011-03-24T16:24:25.11</time>
<name>3327</name>
</trkpt>
<trkpt lat="49.313040" lon="9.141878">
<ele>191.5</ele>
<speed>69.3</speed>
<course>126.8</course>
<desc>Speed 69.3 km/h Distance 78.78 km</desc>
<time>2011-03-24T16:24:26.11</time>
<name>3328</name>
</trkpt>
<trkpt lat="49.312938" lon="9.142087">
<ele>192.0</ele>
<speed>68.7</speed>
<course>126.4</course>
<desc>Speed 68.7 km/h Distance 78.80 km</desc>
<time>2011-03-24T16:24:27.11</time>
<name>3329</name>
</trkpt>
<trkpt lat="49.312838" lon="9.142295">
<ele>192.0</ele>
<speed>68.2</speed>
<course>126.1</course>
<desc>Speed 68.2 km/h Distance 78.81 km</desc>
<time>2011-03-24T16:24:28.11</time>
<name>3330</name>
</trkpt>
<trkpt lat="49.312740" lon="9.142502">
<ele>192.0</ele>
<speed>67.6</speed>
<course>125.2</course>
<desc>Speed 67.6 km/h Distance 78.83 km</desc>
<time>2011-03-24T16:24:29.12</time>
<name>3331</name>
</trkpt>
<trkpt lat="49.312643" lon="9.142712">
<ele>192.0</ele>
<speed>67.6</speed>
<course>124.5</course>
<desc>Speed 67.6 km/h Distance 78.85 km</desc>
<time>2011-03-24T16:24:30.11</time>
<name>3332</name>
</trkpt>
<trkpt lat="49.312548" lon="9.142923">
<ele>191.5</ele>
<speed>67.6</speed>
<course>124.8</course>
<desc>Speed 67.6 km/h Distance 78.87 km</desc>
<time>2011-03-24T16:24:31.11</time>
<name>3333</name>
</trkpt>
<trkpt lat="49.312452" lon="9.143137">
<ele>191.5</ele>
<speed>67.8</speed>
<course>124.1</course>
<desc>Speed 67.8 km/h Distance 78.89 km</desc>
<time>2011-03-24T16:24:32.11</time>
<name>3334</name>
</trkpt>
<trkpt lat="49.312357" lon="9.143352">
<ele>191.5</ele>
<speed>67.8</speed>
<course>123.4</course>
<desc>Speed 67.8 km/h Distance 78.91 km</desc>
<time>2011-03-24T16:24:33.11</time>
<name>3335</name>
</trkpt>
<trkpt lat="49.312265" lon="9.143565">
<ele>191.5</ele>
<speed>67.2</speed>
<course>122.2</course>
<desc>Speed 67.2 km/h Distance 78.93 km</desc>
<time>2011-03-24T16:24:34.10</time>
<name>3336</name>
</trkpt>
<trkpt lat="49.312177" lon="9.143780">
<ele>191.0</ele>
<speed>66.7</speed>
<course>121.6</course>
<desc>Speed 66.7 km/h Distance 78.95 km</desc>
<time>2011-03-24T16:24:35.11</time>
<name>3337</name>
</trkpt>
<trkpt lat="49.312088" lon="9.144000">
<ele>191.0</ele>
<speed>67.5</speed>
<course>122.6</course>
<desc>Speed 67.5 km/h Distance 78.96 km</desc>
<time>2011-03-24T16:24:36.11</time>
<name>3338</name>
</trkpt>
<trkpt lat="49.312000" lon="9.144212">
<ele>191.5</ele>
<speed>65.7</speed>
<course>122.6</course>
<desc>Speed 65.7 km/h Distance 78.98 km</desc>
<time>2011-03-24T16:24:37.11</time>
<name>3339</name>
</trkpt>
<trkpt lat="49.311912" lon="9.144423">
<ele>192.0</ele>
<speed>65.5</speed>
<course>119.4</course>
<desc>Speed 65.5 km/h Distance 79.00 km</desc>
<time>2011-03-24T16:24:38.11</time>
<name>3340</name>
</trkpt>
<trkpt lat="49.311828" lon="9.144650">
<ele>191.0</ele>
<speed>67.8</speed>
<course>118.9</course>
<desc>Speed 67.8 km/h Distance 79.02 km</desc>
<time>2011-03-24T16:24:39.10</time>
<name>3341</name>
</trkpt>
<trkpt lat="49.311738" lon="9.144900">
<ele>190.5</ele>
<speed>74.9</speed>
<course>120.7</course>
<desc>Speed 74.9 km/h Distance 79.04 km</desc>
<time>2011-03-24T16:24:40.10</time>
<name>3342</name>
</trkpt>
<trkpt lat="49.311635" lon="9.145167">
<ele>190.5</ele>
<speed>80.9</speed>
<course>121.5</course>
<desc>Speed 80.9 km/h Distance 79.06 km</desc>
<time>2011-03-24T16:24:41.10</time>
<name>3343</name>
</trkpt>
<trkpt lat="49.311523" lon="9.145447">
<ele>190.5</ele>
<speed>85.7</speed>
<course>122.0</course>
<desc>Speed 85.7 km/h Distance 79.09 km</desc>
<time>2011-03-24T16:24:42.10</time>
<name>3344</name>
</trkpt>
<trkpt lat="49.311407" lon="9.145733">
<ele>190.5</ele>
<speed>87.8</speed>
<course>123.2</course>
<desc>Speed 87.8 km/h Distance 79.11 km</desc>
<time>2011-03-24T16:24:43.10</time>
<name>3345</name>
</trkpt>
<trkpt lat="49.311285" lon="9.146018">
<ele>192.0</ele>
<speed>87.9</speed>
<course>122.3</course>
<desc>Speed 87.9 km/h Distance 79.14 km</desc>
<time>2011-03-24T16:24:44.10</time>
<name>3346</name>
</trkpt>
<trkpt lat="49.311172" lon="9.146293">
<ele>192.5</ele>
<speed>84.3</speed>
<course>123.4</course>
<desc>Speed 84.3 km/h Distance 79.16 km</desc>
<time>2011-03-24T16:24:45.11</time>
<name>3347</name>
</trkpt>
<trkpt lat="49.311063" lon="9.146545">
<ele>192.5</ele>
<speed>78.7</speed>
<course>122.0</course>
<desc>Speed 78.7 km/h Distance 79.18 km</desc>
<time>2011-03-24T16:24:46.11</time>
<name>3348</name>
</trkpt>
<trkpt lat="49.310965" lon="9.146787">
<ele>192.0</ele>
<speed>74.7</speed>
<course>122.4</course>
<desc>Speed 74.7 km/h Distance 79.20 km</desc>
<time>2011-03-24T16:24:47.10</time>
<name>3349</name>
</trkpt>
<trkpt lat="49.310870" lon="9.147017">
<ele>192.0</ele>
<speed>70.8</speed>
<course>123.4</course>
<desc>Speed 70.8 km/h Distance 79.22 km</desc>
<time>2011-03-24T16:24:48.11</time>
<name>3350</name>
</trkpt>
<trkpt lat="49.310773" lon="9.147242">
<ele>192.5</ele>
<speed>70.3</speed>
<course>127.1</course>
<desc>Speed 70.3 km/h Distance 79.24 km</desc>
<time>2011-03-24T16:24:49.10</time>
<name>3351</name>
</trkpt>
<trkpt lat="49.310663" lon="9.147465">
<ele>194.0</ele>
<speed>72.6</speed>
<course>129.2</course>
<desc>Speed 72.6 km/h Distance 79.26 km</desc>
<time>2011-03-24T16:24:50.10</time>
<name>3352</name>
</trkpt>
<trkpt lat="49.310548" lon="9.147682">
<ele>194.5</ele>
<speed>72.8</speed>
<course>135.9</course>
<desc>Speed 72.8 km/h Distance 79.28 km</desc>
<time>2011-03-24T16:24:51.10</time>
<name>3353</name>
</trkpt>
<trkpt lat="49.310412" lon="9.147885">
<ele>196.5</ele>
<speed>76.1</speed>
<course>138.7</course>
<desc>Speed 76.1 km/h Distance 79.30 km</desc>
<time>2011-03-24T16:24:52.10</time>
<name>3354</name>
</trkpt>
<trkpt lat="49.310268" lon="9.148078">
<ele>197.0</ele>
<speed>76.5</speed>
<course>145.2</course>
<desc>Speed 76.5 km/h Distance 79.32 km</desc>
<time>2011-03-24T16:24:53.10</time>
<name>3355</name>
</trkpt>
<trkpt lat="49.310095" lon="9.148263">
<ele>197.0</ele>
<speed>84.9</speed>
<course>140.3</course>
<desc>Speed 84.9 km/h Distance 79.35 km</desc>
<time>2011-03-24T16:24:54.11</time>
<name>3356</name>
</trkpt>
<trkpt lat="49.309932" lon="9.148472">
<ele>197.0</ele>
<speed>85.4</speed>
<course>142.9</course>
<desc>Speed 85.4 km/h Distance 79.37 km</desc>
<time>2011-03-24T16:24:55.09</time>
<name>3357</name>
</trkpt>
<trkpt lat="49.309743" lon="9.148690">
<ele>197.0</ele>
<speed>94.7</speed>
<course>145.2</course>
<desc>Speed 94.7 km/h Distance 79.40 km</desc>
<time>2011-03-24T16:24:56.11</time>
<name>3358</name>
</trkpt>
<trkpt lat="49.309538" lon="9.148908">
<ele>196.5</ele>
<speed>100</speed>
<course>143.4</course>
<desc>Speed 100 km/h Distance 79.43 km</desc>
<time>2011-03-24T16:24:57.09</time>
<name>3359</name>
</trkpt>
<trkpt lat="49.309313" lon="9.149165">
<ele>196.0</ele>
<speed>113</speed>
<course>144.3</course>
<desc>Speed 113 km/h Distance 79.46 km</desc>
<time>2011-03-24T16:24:58.09</time>
<name>3360</name>
</trkpt>
<trkpt lat="49.309082" lon="9.149420">
<ele>197.5</ele>
<speed>115</speed>
<course>142.6</course>
<desc>Speed 115 km/h Distance 79.49 km</desc>
<time>2011-03-24T16:24:59.10</time>
<name>3361</name>
</trkpt>
<trkpt lat="49.308858" lon="9.149682">
<ele>197.5</ele>
<speed>113</speed>
<course>144.0</course>
<desc>Speed 113 km/h Distance 79.52 km</desc>
<time>2011-03-24T16:25:00.09</time>
<name>3362</name>
</trkpt>
<trkpt lat="49.308628" lon="9.149938">
<ele>197.0</ele>
<speed>114</speed>
<course>144.4</course>
<desc>Speed 114 km/h Distance 79.55 km</desc>
<time>2011-03-24T16:25:01.09</time>
<name>3363</name>
</trkpt>
<trkpt lat="49.308392" lon="9.150198">
<ele>197.0</ele>
<speed>117</speed>
<course>144.6</course>
<desc>Speed 117 km/h Distance 79.58 km</desc>
<time>2011-03-24T16:25:02.09</time>
<name>3364</name>
</trkpt>
<trkpt lat="49.308150" lon="9.150462">
<ele>197.0</ele>
<speed>118</speed>
<course>144.8</course>
<desc>Speed 118 km/h Distance 79.62 km</desc>
<time>2011-03-24T16:25:03.09</time>
<name>3365</name>
</trkpt>
<trkpt lat="49.307907" lon="9.150725">
<ele>197.0</ele>
<speed>120</speed>
<course>144.6</course>
<desc>Speed 120 km/h Distance 79.65 km</desc>
<time>2011-03-24T16:25:04.09</time>
<name>3366</name>
</trkpt>
<trkpt lat="49.307665" lon="9.150988">
<ele>196.5</ele>
<speed>120</speed>
<course>145.8</course>
<desc>Speed 120 km/h Distance 79.68 km</desc>
<time>2011-03-24T16:25:05.09</time>
<name>3367</name>
</trkpt>
<trkpt lat="49.307420" lon="9.151243">
<ele>196.5</ele>
<speed>120</speed>
<course>146.4</course>
<desc>Speed 120 km/h Distance 79.72 km</desc>
<time>2011-03-24T16:25:06.09</time>
<name>3368</name>
</trkpt>
<trkpt lat="49.307175" lon="9.151493">
<ele>196.0</ele>
<speed>118</speed>
<course>147.9</course>
<desc>Speed 118 km/h Distance 79.75 km</desc>
<time>2011-03-24T16:25:07.10</time>
<name>3369</name>
</trkpt>
<trkpt lat="49.306922" lon="9.151737">
<ele>196.0</ele>
<speed>120</speed>
<course>147.9</course>
<desc>Speed 120 km/h Distance 79.78 km</desc>
<time>2011-03-24T16:25:08.10</time>
<name>3370</name>
</trkpt>
<trkpt lat="49.306670" lon="9.151978">
<ele>196.5</ele>
<speed>119</speed>
<course>153.5</course>
<desc>Speed 119 km/h Distance 79.81 km</desc>
<time>2011-03-24T16:25:09.10</time>
<name>3371</name>
</trkpt>
<trkpt lat="49.306388" lon="9.152193">
<ele>196.0</ele>
<speed>127</speed>
<course>153.1</course>
<desc>Speed 127 km/h Distance 79.85 km</desc>
<time>2011-03-24T16:25:10.09</time>
<name>3372</name>
</trkpt>
<trkpt lat="49.306117" lon="9.152405">
<ele>196.0</ele>
<speed>123</speed>
<course>154.1</course>
<desc>Speed 123 km/h Distance 79.88 km</desc>
<time>2011-03-24T16:25:11.09</time>
<name>3373</name>
</trkpt>
<trkpt lat="49.305842" lon="9.152610">
<ele>196.0</ele>
<speed>122</speed>
<course>155.3</course>
<desc>Speed 122 km/h Distance 79.92 km</desc>
<time>2011-03-24T16:25:12.09</time>
<name>3374</name>
</trkpt>
<trkpt lat="49.305563" lon="9.152807">
<ele>196.0</ele>
<speed>123</speed>
<course>157.1</course>
<desc>Speed 123 km/h Distance 79.95 km</desc>
<time>2011-03-24T16:25:13.09</time>
<name>3375</name>
</trkpt>
<trkpt lat="49.305280" lon="9.152990">
<ele>196.0</ele>
<speed>123</speed>
<course>158.4</course>
<desc>Speed 123 km/h Distance 79.99 km</desc>
<time>2011-03-24T16:25:14.09</time>
<name>3376</name>
</trkpt>
<trkpt lat="49.304995" lon="9.153163">
<ele>196.5</ele>
<speed>123</speed>
<course>160.6</course>
<desc>Speed 123 km/h Distance 80.02 km</desc>
<time>2011-03-24T16:25:15.09</time>
<name>3377</name>
</trkpt>
<trkpt lat="49.304708" lon="9.153318">
<ele>197.0</ele>
<speed>122</speed>
<course>162.2</course>
<desc>Speed 122 km/h Distance 80.05 km</desc>
<time>2011-03-24T16:25:16.09</time>
<name>3378</name>
</trkpt>
<trkpt lat="49.304423" lon="9.153458">
<ele>197.0</ele>
<speed>120</speed>
<course>163.9</course>
<desc>Speed 120 km/h Distance 80.09 km</desc>
<time>2011-03-24T16:25:17.09</time>
<name>3379</name>
</trkpt>
<trkpt lat="49.303757" lon="9.153753">
<ele>193.5</ele>
<speed>81.8</speed>
<course>163.0</course>
<desc>Speed 81.8 km/h Distance 80.16 km</desc>
<time>2011-03-24T16:25:20.08</time>
<name>3380</name>
</trkpt>
<trkpt lat="49.303565" lon="9.153843">
<ele>193.5</ele>
<speed>81.1</speed>
<course>165.7</course>
<desc>Speed 81.1 km/h Distance 80.19 km</desc>
<time>2011-03-24T16:25:21.08</time>
<name>3381</name>
</trkpt>
<trkpt lat="49.303395" lon="9.153910">
<ele>193.5</ele>
<speed>70.2</speed>
<course>168.3</course>
<desc>Speed 70.2 km/h Distance 80.21 km</desc>
<time>2011-03-24T16:25:22.08</time>
<name>3382</name>
</trkpt>
<trkpt lat="49.303243" lon="9.153958">
<ele>193.5</ele>
<speed>62.2</speed>
<course>170.4</course>
<desc>Speed 62.2 km/h Distance 80.22 km</desc>
<time>2011-03-24T16:25:23.08</time>
<name>3383</name>
</trkpt>
<trkpt lat="49.303102" lon="9.153995">
<ele>193.5</ele>
<speed>57.5</speed>
<course>177.8</course>
<desc>Speed 57.5 km/h Distance 80.24 km</desc>
<time>2011-03-24T16:25:24.09</time>
<name>3384</name>
</trkpt>
<trkpt lat="49.302960" lon="9.154003">
<ele>193.5</ele>
<speed>56.8</speed>
<course>176.3</course>
<desc>Speed 56.8 km/h Distance 80.26 km</desc>
<time>2011-03-24T16:25:25.08</time>
<name>3385</name>
</trkpt>
<trkpt lat="49.302827" lon="9.154017">
<ele>193.5</ele>
<speed>53.5</speed>
<course>175.5</course>
<desc>Speed 53.5 km/h Distance 80.27 km</desc>
<time>2011-03-24T16:25:26.09</time>
<name>3386</name>
</trkpt>
<trkpt lat="49.302702" lon="9.154032">
<ele>192.5</ele>
<speed>50.9</speed>
<course>175.9</course>
<desc>Speed 50.9 km/h Distance 80.28 km</desc>
<time>2011-03-24T16:25:27.09</time>
<name>3387</name>
</trkpt>
<trkpt lat="49.302580" lon="9.154045">
<ele>191.0</ele>
<speed>48.6</speed>
<course>177.2</course>
<desc>Speed 48.6 km/h Distance 80.30 km</desc>
<time>2011-03-24T16:25:28.08</time>
<name>3388</name>
</trkpt>
<trkpt lat="49.302467" lon="9.154053">
<ele>190.0</ele>
<speed>45.7</speed>
<course>180.0</course>
<desc>Speed 45.7 km/h Distance 80.31 km</desc>
<time>2011-03-24T16:25:29.09</time>
<name>3389</name>
</trkpt>
<trkpt lat="49.302377" lon="9.154053">
<ele>189.5</ele>
<speed>36.0</speed>
<course>181.7</course>
<desc>Speed 36.0 km/h Distance 80.32 km</desc>
<time>2011-03-24T16:25:30.08</time>
<name>3390</name>
</trkpt>
<trkpt lat="49.302307" lon="9.154050">
<ele>190.0</ele>
<speed>27.8</speed>
<course>181.1</course>
<desc>Speed 27.8 km/h Distance 80.33 km</desc>
<time>2011-03-24T16:25:31.08</time>
<name>3391</name>
</trkpt>
<trkpt lat="49.302248" lon="9.154048">
<ele>189.0</ele>
<speed>22.6</speed>
<course>176.3</course>
<desc>Speed 22.6 km/h Distance 80.33 km</desc>
<time>2011-03-24T16:25:32.08</time>
<name>3392</name>
</trkpt>
<trkpt lat="49.302200" lon="9.154053">
<ele>189.0</ele>
<speed>18.3</speed>
<course>173.0</course>
<desc>Speed 18.3 km/h Distance 80.34 km</desc>
<time>2011-03-24T16:25:33.08</time>
<name>3393</name>
</trkpt>
<trkpt lat="49.302165" lon="9.154060">
<ele>189.0</ele>
<speed>12.5</speed>
<course>174.8</course>
<desc>Speed 12.5 km/h Distance 80.34 km</desc>
<time>2011-03-24T16:25:34.08</time>
<name>3394</name>
</trkpt>
<trkpt lat="49.302142" lon="9.154063">
<ele>189.0</ele>
<speed>8.9</speed>
<course>182.5</course>
<desc>Speed 8.9 km/h Distance 80.35 km</desc>
<time>2011-03-24T16:25:35.08</time>
<name>3395</name>
</trkpt>
<trkpt lat="49.302123" lon="9.154062">
<ele>188.5</ele>
<speed>6.2</speed>
<course>198.2</course>
<desc>Speed 6.2 km/h Distance 80.35 km</desc>
<time>2011-03-24T16:25:36.08</time>
<name>3396</name>
</trkpt>
<trkpt lat="49.302113" lon="9.154057">
<ele>188.5</ele>
<speed>4.1</speed>
<course>192.6</course>
<desc>Speed 4.1 km/h Distance 80.35 km</desc>
<time>2011-03-24T16:25:37.07</time>
<name>3397</name>
</trkpt>
<trkpt lat="49.302108" lon="9.154055">
<ele>188.5</ele>
<speed>0.9</speed>
<course>150.8</course>
<desc>Speed 0.9 km/h Distance 80.35 km</desc>
<time>2011-03-24T16:25:38.07</time>
<name>3398</name>
</trkpt>
<trkpt lat="49.302107" lon="9.154057">
<ele>188.0</ele>
<speed>0.1</speed>
<course>180.0</course>
<desc>Speed 0.1 km/h Distance 80.35 km</desc>
<time>2011-03-24T16:25:39.07</time>
<name>3399</name>
</trkpt>
<trkpt lat="49.302103" lon="9.154057">
<ele>187.5</ele>
<speed>0.3</speed>
<course>180.0</course>
<desc>Speed 0.3 km/h Distance 80.35 km</desc>
<time>2011-03-24T16:25:40.07</time>
<name>3400</name>
</trkpt>
<trkpt lat="49.302100" lon="9.154057">
<ele>187.5</ele>
<speed>0.8</speed>
<course>180.0</course>
<desc>Speed 0.8 km/h Distance 80.35 km</desc>
<time>2011-03-24T16:25:41.07</time>
<name>3401</name>
</trkpt>
<trkpt lat="49.302100" lon="9.154057">
<ele>187.0</ele>
<speed>0.3</speed>
<course>180.0</course>
<desc>Speed 0.3 km/h Distance 80.35 km</desc>
<time>2011-03-24T16:25:42.08</time>
<name>3402</name>
</trkpt>
<trkpt lat="49.302100" lon="9.154058">
<ele>187.5</ele>
<speed>0.6</speed>
<course>180.0</course>
<desc>Speed 0.6 km/h Distance 80.35 km</desc>
<time>2011-03-24T16:25:43.08</time>
<name>3403</name>
</trkpt>
<trkpt lat="49.302100" lon="9.154060">
<ele>187.5</ele>
<speed>0.0</speed>
<course>51.9</course>
<desc>Speed 0.0 km/h Distance 80.35 km</desc>
<time>2011-03-24T16:25:44.08</time>
<name>3404</name>
</trkpt>
<trkpt lat="49.302102" lon="9.154063">
<ele>187.5</ele>
<speed>0.3</speed>
<course>51.9</course>
<desc>Speed 0.3 km/h Distance 80.35 km</desc>
<time>2011-03-24T16:25:45.08</time>
<name>3405</name>
</trkpt>
<trkpt lat="49.302102" lon="9.154065">
<ele>187.5</ele>
<speed>0.1</speed>
<course>12.6</course>
<desc>Speed 0.1 km/h Distance 80.35 km</desc>
<time>2011-03-24T16:25:46.08</time>
<name>3406</name>
</trkpt>
<trkpt lat="49.302103" lon="9.154067">
<ele>188.0</ele>
<speed>0.1</speed>
<course>12.6</course>
<desc>Speed 0.1 km/h Distance 80.35 km</desc>
<time>2011-03-24T16:25:47.08</time>
<name>3407</name>
</trkpt>
<trkpt lat="49.302103" lon="9.154067">
<ele>188.0</ele>
<speed>0.5</speed>
<course>12.6</course>
<desc>Speed 0.5 km/h Distance 80.35 km</desc>
<time>2011-03-24T16:25:48.08</time>
<name>3408</name>
</trkpt>
<trkpt lat="49.302105" lon="9.154067">
<ele>188.0</ele>
<speed>0.0</speed>
<course>90.0</course>
<desc>Speed 0.0 km/h Distance 80.35 km</desc>
<time>2011-03-24T16:25:49.07</time>
<name>3409</name>
</trkpt>
<trkpt lat="49.302105" lon="9.154068">
<ele>188.0</ele>
<speed>0.1</speed>
<course>90.0</course>
<desc>Speed 0.1 km/h Distance 80.35 km</desc>
<time>2011-03-24T16:25:50.07</time>
<name>3410</name>
</trkpt>
<trkpt lat="49.302105" lon="9.154068">
<ele>188.0</ele>
<speed>0.1</speed>
<course>90.0</course>
<desc>Speed 0.1 km/h Distance 80.35 km</desc>
<time>2011-03-24T16:25:51.07</time>
<name>3411</name>
</trkpt>
<trkpt lat="49.302105" lon="9.154068">
<ele>188.0</ele>
<speed>0.1</speed>
<course>90.0</course>
<desc>Speed 0.1 km/h Distance 80.35 km</desc>
<time>2011-03-24T16:25:52.08</time>
<name>3412</name>
</trkpt>
<trkpt lat="49.302105" lon="9.154068">
<ele>188.0</ele>
<speed>0.2</speed>
<course>90.0</course>
<desc>Speed 0.2 km/h Distance 80.35 km</desc>
<time>2011-03-24T16:25:53.07</time>
<name>3413</name>
</trkpt>
<trkpt lat="49.302105" lon="9.154068">
<ele>188.0</ele>
<speed>0.2</speed>
<course>12.6</course>
<desc>Speed 0.2 km/h Distance 80.35 km</desc>
<time>2011-03-24T16:25:54.07</time>
<name>3414</name>
</trkpt>
<trkpt lat="49.302107" lon="9.154068">
<ele>188.0</ele>
<speed>0.1</speed>
<course>90.0</course>
<desc>Speed 0.1 km/h Distance 80.35 km</desc>
<time>2011-03-24T16:25:55.07</time>
<name>3415</name>
</trkpt>
<trkpt lat="49.302107" lon="9.154070">
<ele>188.0</ele>
<speed>0.1</speed>
<course>270.0</course>
<desc>Speed 0.1 km/h Distance 80.35 km</desc>
<time>2011-03-24T16:25:56.07</time>
<name>3416</name>
</trkpt>
<trkpt lat="49.302107" lon="9.154068">
<ele>188.0</ele>
<speed>0.1</speed>
<course>270.0</course>
<desc>Speed 0.1 km/h Distance 80.35 km</desc>
<time>2011-03-24T16:25:57.07</time>
<name>3417</name>
</trkpt>
<trkpt lat="49.302107" lon="9.154068">
<ele>188.0</ele>
<speed>0.1</speed>
<course>270.0</course>
<desc>Speed 0.1 km/h Distance 80.35 km</desc>
<time>2011-03-24T16:25:58.08</time>
<name>3418</name>
</trkpt>
<trkpt lat="49.302107" lon="9.154068">
<ele>188.0</ele>
<speed>0.2</speed>
<course>270.0</course>
<desc>Speed 0.2 km/h Distance 80.35 km</desc>
<time>2011-03-24T16:25:59.07</time>
<name>3419</name>
</trkpt>
<trkpt lat="49.302107" lon="9.154068">
<ele>188.0</ele>
<speed>0.1</speed>
<course>270.0</course>
<desc>Speed 0.1 km/h Distance 80.35 km</desc>
<time>2011-03-24T16:26:00.06</time>
<name>3420</name>
</trkpt>
<trkpt lat="49.302107" lon="9.154068">
<ele>188.0</ele>
<speed>0.1</speed>
<course>270.0</course>
<desc>Speed 0.1 km/h Distance 80.35 km</desc>
<time>2011-03-24T16:26:01.06</time>
<name>3421</name>
</trkpt>
<trkpt lat="49.302107" lon="9.154068">
<ele>188.0</ele>
<speed>0.1</speed>
<course>270.0</course>
<desc>Speed 0.1 km/h Distance 80.35 km</desc>
<time>2011-03-24T16:26:02.07</time>
<name>3422</name>
</trkpt>
<trkpt lat="49.302107" lon="9.154068">
<ele>188.0</ele>
<speed>0.1</speed>
<course>270.0</course>
<desc>Speed 0.1 km/h Distance 80.35 km</desc>
<time>2011-03-24T16:26:03.06</time>
<name>3423</name>
</trkpt>
<trkpt lat="49.302107" lon="9.154068">
<ele>188.0</ele>
<speed>0.1</speed>
<course>270.0</course>
<desc>Speed 0.1 km/h Distance 80.35 km</desc>
<time>2011-03-24T16:26:04.06</time>
<name>3424</name>
</trkpt>
<trkpt lat="49.302107" lon="9.154068">
<ele>188.0</ele>
<speed>0.2</speed>
<course>270.0</course>
<desc>Speed 0.2 km/h Distance 80.35 km</desc>
<time>2011-03-24T16:26:05.06</time>
<name>3425</name>
</trkpt>
<trkpt lat="49.302107" lon="9.154068">
<ele>188.0</ele>
<speed>0.2</speed>
<course>270.0</course>
<desc>Speed 0.2 km/h Distance 80.35 km</desc>
<time>2011-03-24T16:26:06.06</time>
<name>3426</name>
</trkpt>
<trkpt lat="49.302107" lon="9.154068">
<ele>188.0</ele>
<speed>0.1</speed>
<course>270.0</course>
<desc>Speed 0.1 km/h Distance 80.35 km</desc>
<time>2011-03-24T16:26:07.06</time>
<name>3427</name>
</trkpt>
<trkpt lat="49.302107" lon="9.154068">
<ele>188.0</ele>
<speed>0.0</speed>
<course>270.0</course>
<desc>Speed 0.0 km/h Distance 80.35 km</desc>
<time>2011-03-24T16:26:08.06</time>
<name>3428</name>
</trkpt>
<trkpt lat="49.302107" lon="9.154068">
<ele>188.0</ele>
<speed>0.1</speed>
<course>270.0</course>
<desc>Speed 0.1 km/h Distance 80.35 km</desc>
<time>2011-03-24T16:26:09.06</time>
<name>3429</name>
</trkpt>
<trkpt lat="49.302107" lon="9.154068">
<ele>188.0</ele>
<speed>0.1</speed>
<course>270.0</course>
<desc>Speed 0.1 km/h Distance 80.35 km</desc>
<time>2011-03-24T16:26:10.06</time>
<name>3430</name>
</trkpt>
<trkpt lat="49.302107" lon="9.154068">
<ele>188.0</ele>
<speed>0.1</speed>
<course>270.0</course>
<desc>Speed 0.1 km/h Distance 80.35 km</desc>
<time>2011-03-24T16:26:11.06</time>
<name>3431</name>
</trkpt>
<trkpt lat="49.302107" lon="9.154068">
<ele>188.0</ele>
<speed>0.1</speed>
<course>270.0</course>
<desc>Speed 0.1 km/h Distance 80.35 km</desc>
<time>2011-03-24T16:26:12.06</time>
<name>3432</name>
</trkpt>
<trkpt lat="49.302107" lon="9.154068">
<ele>188.0</ele>
<speed>0.2</speed>
<course>270.0</course>
<desc>Speed 0.2 km/h Distance 80.35 km</desc>
<time>2011-03-24T16:26:13.06</time>
<name>3433</name>
</trkpt>
<trkpt lat="49.302107" lon="9.154068">
<ele>188.0</ele>
<speed>0.1</speed>
<course>270.0</course>
<desc>Speed 0.1 km/h Distance 80.35 km</desc>
<time>2011-03-24T16:26:14.06</time>
<name>3434</name>
</trkpt>
<trkpt lat="49.302107" lon="9.154068">
<ele>188.0</ele>
<speed>0.2</speed>
<course>270.0</course>
<desc>Speed 0.2 km/h Distance 80.35 km</desc>
<time>2011-03-24T16:26:15.06</time>
<name>3435</name>
</trkpt>
<trkpt lat="49.302107" lon="9.154068">
<ele>188.0</ele>
<speed>0.3</speed>
<course>270.0</course>
<desc>Speed 0.3 km/h Distance 80.35 km</desc>
<time>2011-03-24T16:26:16.06</time>
<name>3436</name>
</trkpt>
<trkpt lat="49.302107" lon="9.154068">
<ele>188.0</ele>
<speed>0.2</speed>
<course>270.0</course>
<desc>Speed 0.2 km/h Distance 80.35 km</desc>
<time>2011-03-24T16:26:17.06</time>
<name>3437</name>
</trkpt>
<trkpt lat="49.302107" lon="9.154068">
<ele>188.0</ele>
<speed>0.1</speed>
<course>270.0</course>
<desc>Speed 0.1 km/h Distance 80.35 km</desc>
<time>2011-03-24T16:26:18.06</time>
<name>3438</name>
</trkpt>
<trkpt lat="49.302107" lon="9.154068">
<ele>188.0</ele>
<speed>0.1</speed>
<course>270.0</course>
<desc>Speed 0.1 km/h Distance 80.35 km</desc>
<time>2011-03-24T16:26:19.06</time>
<name>3439</name>
</trkpt>
<trkpt lat="49.302107" lon="9.154068">
<ele>188.0</ele>
<speed>0.2</speed>
<course>270.0</course>
<desc>Speed 0.2 km/h Distance 80.35 km</desc>
<time>2011-03-24T16:26:20.06</time>
<name>3440</name>
</trkpt>
<trkpt lat="49.302107" lon="9.154067">
<ele>188.0</ele>
<speed>0.1</speed>
<course>270.0</course>
<desc>Speed 0.1 km/h Distance 80.35 km</desc>
<time>2011-03-24T16:26:21.06</time>
<name>3441</name>
</trkpt>
<trkpt lat="49.302107" lon="9.154067">
<ele>188.0</ele>
<speed>0.1</speed>
<course>270.0</course>
<desc>Speed 0.1 km/h Distance 80.35 km</desc>
<time>2011-03-24T16:26:22.05</time>
<name>3442</name>
</trkpt>
<trkpt lat="49.302107" lon="9.154067">
<ele>188.0</ele>
<speed>0.1</speed>
<course>270.0</course>
<desc>Speed 0.1 km/h Distance 80.35 km</desc>
<time>2011-03-24T16:26:23.05</time>
<name>3443</name>
</trkpt>
<trkpt lat="49.302107" lon="9.154067">
<ele>188.0</ele>
<speed>0.1</speed>
<course>270.0</course>
<desc>Speed 0.1 km/h Distance 80.35 km</desc>
<time>2011-03-24T16:26:24.06</time>
<name>3444</name>
</trkpt>
<trkpt lat="49.302107" lon="9.154067">
<ele>188.0</ele>
<speed>0.2</speed>
<course>270.0</course>
<desc>Speed 0.2 km/h Distance 80.35 km</desc>
<time>2011-03-24T16:26:25.06</time>
<name>3445</name>
</trkpt>
<trkpt lat="49.302107" lon="9.154067">
<ele>188.0</ele>
<speed>0.2</speed>
<course>270.0</course>
<desc>Speed 0.2 km/h Distance 80.35 km</desc>
<time>2011-03-24T16:26:26.06</time>
<name>3446</name>
</trkpt>
<trkpt lat="49.302107" lon="9.154067">
<ele>188.0</ele>
<speed>0.2</speed>
<course>270.0</course>
<desc>Speed 0.2 km/h Distance 80.35 km</desc>
<time>2011-03-24T16:26:27.06</time>
<name>3447</name>
</trkpt>
<trkpt lat="49.302107" lon="9.154067">
<ele>188.0</ele>
<speed>0.1</speed>
<course>270.0</course>
<desc>Speed 0.1 km/h Distance 80.35 km</desc>
<time>2011-03-24T16:26:28.06</time>
<name>3448</name>
</trkpt>
<trkpt lat="49.302107" lon="9.154067">
<ele>188.0</ele>
<speed>0.1</speed>
<course>270.0</course>
<desc>Speed 0.1 km/h Distance 80.35 km</desc>
<time>2011-03-24T16:26:29.05</time>
<name>3449</name>
</trkpt>
<trkpt lat="49.302107" lon="9.154067">
<ele>188.0</ele>
<speed>0.3</speed>
<course>270.0</course>
<desc>Speed 0.3 km/h Distance 80.35 km</desc>
<time>2011-03-24T16:26:30.05</time>
<name>3450</name>
</trkpt>
<trkpt lat="49.302107" lon="9.154067">
<ele>188.0</ele>
<speed>0.2</speed>
<course>12.6</course>
<desc>Speed 0.2 km/h Distance 80.35 km</desc>
<time>2011-03-24T16:26:31.05</time>
<name>3451</name>
</trkpt>
<trkpt lat="49.302108" lon="9.154067">
<ele>188.0</ele>
<speed>0.3</speed>
<course>12.6</course>
<desc>Speed 0.3 km/h Distance 80.35 km</desc>
<time>2011-03-24T16:26:32.05</time>
<name>3452</name>
</trkpt>
<trkpt lat="49.302108" lon="9.154067">
<ele>188.0</ele>
<speed>0.1</speed>
<course>90.0</course>
<desc>Speed 0.1 km/h Distance 80.35 km</desc>
<time>2011-03-24T16:26:33.05</time>
<name>3453</name>
</trkpt>
<trkpt lat="49.302108" lon="9.154068">
<ele>188.0</ele>
<speed>0.0</speed>
<course>90.0</course>
<desc>Speed 0.0 km/h Distance 80.35 km</desc>
<time>2011-03-24T16:26:34.05</time>
<name>3454</name>
</trkpt>
<trkpt lat="49.302108" lon="9.154068">
<ele>188.5</ele>
<speed>0.3</speed>
<course>90.0</course>
<desc>Speed 0.3 km/h Distance 80.35 km</desc>
<time>2011-03-24T16:26:35.05</time>
<name>3455</name>
</trkpt>
<trkpt lat="49.302108" lon="9.154068">
<ele>188.5</ele>
<speed>0.1</speed>
<course>90.0</course>
<desc>Speed 0.1 km/h Distance 80.35 km</desc>
<time>2011-03-24T16:26:36.06</time>
<name>3456</name>
</trkpt>
<trkpt lat="49.302108" lon="9.154068">
<ele>188.5</ele>
<speed>0.3</speed>
<course>90.0</course>
<desc>Speed 0.3 km/h Distance 80.35 km</desc>
<time>2011-03-24T16:26:37.05</time>
<name>3457</name>
</trkpt>
<trkpt lat="49.302108" lon="9.154068">
<ele>188.5</ele>
<speed>0.1</speed>
<course>167.4</course>
<desc>Speed 0.1 km/h Distance 80.35 km</desc>
<time>2011-03-24T16:26:38.06</time>
<name>3458</name>
</trkpt>
<trkpt lat="49.302107" lon="9.154068">
<ele>188.5</ele>
<speed>0.1</speed>
<course>167.4</course>
<desc>Speed 0.1 km/h Distance 80.35 km</desc>
<time>2011-03-24T16:26:39.06</time>
<name>3459</name>
</trkpt>
<trkpt lat="49.302107" lon="9.154068">
<ele>188.5</ele>
<speed>0.4</speed>
<course>167.4</course>
<desc>Speed 0.4 km/h Distance 80.35 km</desc>
<time>2011-03-24T16:26:40.06</time>
<name>3460</name>
</trkpt>
<trkpt lat="49.302107" lon="9.154068">
<ele>188.5</ele>
<speed>0.1</speed>
<course>167.4</course>
<desc>Speed 0.1 km/h Distance 80.35 km</desc>
<time>2011-03-24T16:26:41.06</time>
<name>3461</name>
</trkpt>
<trkpt lat="49.302107" lon="9.154068">
<ele>188.5</ele>
<speed>0.1</speed>
<course>167.4</course>
<desc>Speed 0.1 km/h Distance 80.35 km</desc>
<time>2011-03-24T16:26:42.05</time>
<name>3462</name>
</trkpt>
<trkpt lat="49.302107" lon="9.154068">
<ele>188.5</ele>
<speed>0.1</speed>
<course>167.4</course>
<desc>Speed 0.1 km/h Distance 80.35 km</desc>
<time>2011-03-24T16:26:43.05</time>
<name>3463</name>
</trkpt>
<trkpt lat="49.302107" lon="9.154068">
<ele>188.0</ele>
<speed>0.1</speed>
<course>167.4</course>
<desc>Speed 0.1 km/h Distance 80.35 km</desc>
<time>2011-03-24T16:26:44.05</time>
<name>3464</name>
</trkpt>
<trkpt lat="49.302107" lon="9.154068">
<ele>188.0</ele>
<speed>0.1</speed>
<course>167.4</course>
<desc>Speed 0.1 km/h Distance 80.35 km</desc>
<time>2011-03-24T16:26:45.05</time>
<name>3465</name>
</trkpt>
<trkpt lat="49.302107" lon="9.154068">
<ele>188.0</ele>
<speed>0.1</speed>
<course>167.4</course>
<desc>Speed 0.1 km/h Distance 80.35 km</desc>
<time>2011-03-24T16:26:46.04</time>
<name>3466</name>
</trkpt>
<trkpt lat="49.302107" lon="9.154068">
<ele>188.0</ele>
<speed>0.1</speed>
<course>167.4</course>
<desc>Speed 0.1 km/h Distance 80.35 km</desc>
<time>2011-03-24T16:26:47.05</time>
<name>3467</name>
</trkpt>
<trkpt lat="49.302107" lon="9.154068">
<ele>188.0</ele>
<speed>0.1</speed>
<course>167.4</course>
<desc>Speed 0.1 km/h Distance 80.35 km</desc>
<time>2011-03-24T16:26:48.04</time>
<name>3468</name>
</trkpt>
<trkpt lat="49.302107" lon="9.154068">
<ele>188.0</ele>
<speed>0.1</speed>
<course>167.4</course>
<desc>Speed 0.1 km/h Distance 80.35 km</desc>
<time>2011-03-24T16:26:49.04</time>
<name>3469</name>
</trkpt>
<trkpt lat="49.302107" lon="9.154068">
<ele>188.0</ele>
<speed>0.1</speed>
<course>167.4</course>
<desc>Speed 0.1 km/h Distance 80.35 km</desc>
<time>2011-03-24T16:26:50.05</time>
<name>3470</name>
</trkpt>
<trkpt lat="49.302107" lon="9.154068">
<ele>188.0</ele>
<speed>0.1</speed>
<course>167.4</course>
<desc>Speed 0.1 km/h Distance 80.35 km</desc>
<time>2011-03-24T16:26:51.04</time>
<name>3471</name>
</trkpt>
<trkpt lat="49.302107" lon="9.154068">
<ele>188.0</ele>
<speed>0.2</speed>
<course>167.4</course>
<desc>Speed 0.2 km/h Distance 80.35 km</desc>
<time>2011-03-24T16:26:52.04</time>
<name>3472</name>
</trkpt>
<trkpt lat="49.302107" lon="9.154068">
<ele>188.0</ele>
<speed>0.2</speed>
<course>167.4</course>
<desc>Speed 0.2 km/h Distance 80.35 km</desc>
<time>2011-03-24T16:26:53.04</time>
<name>3473</name>
</trkpt>
<trkpt lat="49.302107" lon="9.154068">
<ele>188.0</ele>
<speed>0.1</speed>
<course>167.4</course>
<desc>Speed 0.1 km/h Distance 80.35 km</desc>
<time>2011-03-24T16:26:54.04</time>
<name>3474</name>
</trkpt>
<trkpt lat="49.302107" lon="9.154068">
<ele>188.0</ele>
<speed>0.1</speed>
<course>167.4</course>
<desc>Speed 0.1 km/h Distance 80.35 km</desc>
<time>2011-03-24T16:26:55.04</time>
<name>3475</name>
</trkpt>
<trkpt lat="49.302107" lon="9.154068">
<ele>188.0</ele>
<speed>0.1</speed>
<course>167.4</course>
<desc>Speed 0.1 km/h Distance 80.35 km</desc>
<time>2011-03-24T16:26:56.05</time>
<name>3476</name>
</trkpt>
<trkpt lat="49.302107" lon="9.154068">
<ele>188.0</ele>
<speed>0.3</speed>
<course>167.4</course>
<desc>Speed 0.3 km/h Distance 80.35 km</desc>
<time>2011-03-24T16:26:57.05</time>
<name>3477</name>
</trkpt>
<trkpt lat="49.302107" lon="9.154068">
<ele>188.0</ele>
<speed>0.1</speed>
<course>167.4</course>
<desc>Speed 0.1 km/h Distance 80.35 km</desc>
<time>2011-03-24T16:26:58.04</time>
<name>3478</name>
</trkpt>
<trkpt lat="49.302107" lon="9.154068">
<ele>188.0</ele>
<speed>0.1</speed>
<course>167.4</course>
<desc>Speed 0.1 km/h Distance 80.35 km</desc>
<time>2011-03-24T16:26:59.04</time>
<name>3479</name>
</trkpt>
<trkpt lat="49.302107" lon="9.154068">
<ele>188.0</ele>
<speed>0.1</speed>
<course>167.4</course>
<desc>Speed 0.1 km/h Distance 80.35 km</desc>
<time>2011-03-24T16:27:00.05</time>
<name>3480</name>
</trkpt>
<trkpt lat="49.302105" lon="9.154068">
<ele>188.0</ele>
<speed>0.1</speed>
<course>167.4</course>
<desc>Speed 0.1 km/h Distance 80.35 km</desc>
<time>2011-03-24T16:27:01.04</time>
<name>3481</name>
</trkpt>
<trkpt lat="49.302105" lon="9.154068">
<ele>188.0</ele>
<speed>0.1</speed>
<course>167.4</course>
<desc>Speed 0.1 km/h Distance 80.35 km</desc>
<time>2011-03-24T16:27:02.04</time>
<name>3482</name>
</trkpt>
<trkpt lat="49.302105" lon="9.154068">
<ele>188.0</ele>
<speed>0.1</speed>
<course>167.4</course>
<desc>Speed 0.1 km/h Distance 80.35 km</desc>
<time>2011-03-24T16:27:03.04</time>
<name>3483</name>
</trkpt>
<trkpt lat="49.302105" lon="9.154068">
<ele>188.0</ele>
<speed>0.1</speed>
<course>90.0</course>
<desc>Speed 0.1 km/h Distance 80.35 km</desc>
<time>2011-03-24T16:27:04.04</time>
<name>3484</name>
</trkpt>
<trkpt lat="49.302105" lon="9.154070">
<ele>188.0</ele>
<speed>0.2</speed>
<course>90.0</course>
<desc>Speed 0.2 km/h Distance 80.35 km</desc>
<time>2011-03-24T16:27:05.04</time>
<name>3485</name>
</trkpt>
<trkpt lat="49.302105" lon="9.154070">
<ele>188.0</ele>
<speed>0.1</speed>
<course>90.0</course>
<desc>Speed 0.1 km/h Distance 80.35 km</desc>
<time>2011-03-24T16:27:06.04</time>
<name>3486</name>
</trkpt>
<trkpt lat="49.302105" lon="9.154070">
<ele>188.0</ele>
<speed>0.0</speed>
<course>90.0</course>
<desc>Speed 0.0 km/h Distance 80.35 km</desc>
<time>2011-03-24T16:27:07.04</time>
<name>3487</name>
</trkpt>
<trkpt lat="49.302105" lon="9.154070">
<ele>188.0</ele>
<speed>0.1</speed>
<course>90.0</course>
<desc>Speed 0.1 km/h Distance 80.35 km</desc>
<time>2011-03-24T16:27:08.03</time>
<name>3488</name>
</trkpt>
<trkpt lat="49.302105" lon="9.154070">
<ele>188.0</ele>
<speed>0.1</speed>
<course>90.0</course>
<desc>Speed 0.1 km/h Distance 80.35 km</desc>
<time>2011-03-24T16:27:09.03</time>
<name>3489</name>
</trkpt>
<trkpt lat="49.302105" lon="9.154070">
<ele>188.0</ele>
<speed>0.1</speed>
<course>90.0</course>
<desc>Speed 0.1 km/h Distance 80.35 km</desc>
<time>2011-03-24T16:27:10.03</time>
<name>3490</name>
</trkpt>
<trkpt lat="49.302105" lon="9.154070">
<ele>188.0</ele>
<speed>0.2</speed>
<course>90.0</course>
<desc>Speed 0.2 km/h Distance 80.35 km</desc>
<time>2011-03-24T16:27:11.03</time>
<name>3491</name>
</trkpt>
<trkpt lat="49.302105" lon="9.154070">
<ele>188.0</ele>
<speed>0.2</speed>
<course>90.0</course>
<desc>Speed 0.2 km/h Distance 80.35 km</desc>
<time>2011-03-24T16:27:12.03</time>
<name>3492</name>
</trkpt>
<trkpt lat="49.302105" lon="9.154070">
<ele>188.0</ele>
<speed>0.1</speed>
<course>90.0</course>
<desc>Speed 0.1 km/h Distance 80.35 km</desc>
<time>2011-03-24T16:27:13.03</time>
<name>3493</name>
</trkpt>
<trkpt lat="49.302105" lon="9.154070">
<ele>188.0</ele>
<speed>0.1</speed>
<course>90.0</course>
<desc>Speed 0.1 km/h Distance 80.35 km</desc>
<time>2011-03-24T16:27:14.03</time>
<name>3494</name>
</trkpt>
<trkpt lat="49.302105" lon="9.154070">
<ele>188.0</ele>
<speed>0.1</speed>
<course>90.0</course>
<desc>Speed 0.1 km/h Distance 80.35 km</desc>
<time>2011-03-24T16:27:15.03</time>
<name>3495</name>
</trkpt>
<trkpt lat="49.302105" lon="9.154070">
<ele>188.0</ele>
<speed>0.1</speed>
<course>90.0</course>
<desc>Speed 0.1 km/h Distance 80.35 km</desc>
<time>2011-03-24T16:27:16.04</time>
<name>3496</name>
</trkpt>
<trkpt lat="49.302105" lon="9.154070">
<ele>188.0</ele>
<speed>0.2</speed>
<course>90.0</course>
<desc>Speed 0.2 km/h Distance 80.35 km</desc>
<time>2011-03-24T16:27:17.03</time>
<name>3497</name>
</trkpt>
<trkpt lat="49.302105" lon="9.154070">
<ele>188.0</ele>
<speed>0.2</speed>
<course>90.0</course>
<desc>Speed 0.2 km/h Distance 80.35 km</desc>
<time>2011-03-24T16:27:18.04</time>
<name>3498</name>
</trkpt>
<trkpt lat="49.302105" lon="9.154070">
<ele>188.0</ele>
<speed>0.2</speed>
<course>167.4</course>
<desc>Speed 0.2 km/h Distance 80.35 km</desc>
<time>2011-03-24T16:27:19.04</time>
<name>3499</name>
</trkpt>
<trkpt lat="49.302103" lon="9.154070">
<ele>188.0</ele>
<speed>0.1</speed>
<course>167.4</course>
<desc>Speed 0.1 km/h Distance 80.35 km</desc>
<time>2011-03-24T16:27:20.03</time>
<name>3500</name>
</trkpt>
<trkpt lat="49.302103" lon="9.154070">
<ele>188.0</ele>
<speed>0.1</speed>
<course>12.6</course>
<desc>Speed 0.1 km/h Distance 80.35 km</desc>
<time>2011-03-24T16:27:21.03</time>
<name>3501</name>
</trkpt>
<trkpt lat="49.302105" lon="9.154070">
<ele>188.0</ele>
<speed>0.0</speed>
<course>12.6</course>
<desc>Speed 0.0 km/h Distance 80.35 km</desc>
<time>2011-03-24T16:27:22.03</time>
<name>3502</name>
</trkpt>
<trkpt lat="49.302105" lon="9.154070">
<ele>188.0</ele>
<speed>0.2</speed>
<course>12.6</course>
<desc>Speed 0.2 km/h Distance 80.35 km</desc>
<time>2011-03-24T16:27:23.03</time>
<name>3503</name>
</trkpt>
<trkpt lat="49.302105" lon="9.154070">
<ele>188.0</ele>
<speed>0.1</speed>
<course>167.4</course>
<desc>Speed 0.1 km/h Distance 80.35 km</desc>
<time>2011-03-24T16:27:24.03</time>
<name>3504</name>
</trkpt>
<trkpt lat="49.302103" lon="9.154070">
<ele>188.0</ele>
<speed>0.2</speed>
<course>167.4</course>
<desc>Speed 0.2 km/h Distance 80.35 km</desc>
<time>2011-03-24T16:27:25.03</time>
<name>3505</name>
</trkpt>
<trkpt lat="49.302103" lon="9.154070">
<ele>188.0</ele>
<speed>0.2</speed>
<course>167.4</course>
<desc>Speed 0.2 km/h Distance 80.35 km</desc>
<time>2011-03-24T16:27:26.03</time>
<name>3506</name>
</trkpt>
<trkpt lat="49.302103" lon="9.154070">
<ele>188.0</ele>
<speed>0.1</speed>
<course>167.4</course>
<desc>Speed 0.1 km/h Distance 80.35 km</desc>
<time>2011-03-24T16:27:27.03</time>
<name>3507</name>
</trkpt>
<trkpt lat="49.302103" lon="9.154070">
<ele>188.0</ele>
<speed>0.0</speed>
<course>12.6</course>
<desc>Speed 0.0 km/h Distance 80.35 km</desc>
<time>2011-03-24T16:27:28.03</time>
<name>3508</name>
</trkpt>
<trkpt lat="49.302105" lon="9.154070">
<ele>188.0</ele>
<speed>0.1</speed>
<course>12.6</course>
<desc>Speed 0.1 km/h Distance 80.35 km</desc>
<time>2011-03-24T16:27:29.02</time>
<name>3509</name>
</trkpt>
<trkpt lat="49.302105" lon="9.154070">
<ele>188.0</ele>
<speed>0.1</speed>
<course>12.6</course>
<desc>Speed 0.1 km/h Distance 80.35 km</desc>
<time>2011-03-24T16:27:30.02</time>
<name>3510</name>
</trkpt>
<trkpt lat="49.302105" lon="9.154070">
<ele>188.0</ele>
<speed>0.2</speed>
<course>12.6</course>
<desc>Speed 0.2 km/h Distance 80.35 km</desc>
<time>2011-03-24T16:27:31.03</time>
<name>3511</name>
</trkpt>
<trkpt lat="49.302105" lon="9.154070">
<ele>188.0</ele>
<speed>0.2</speed>
<course>12.6</course>
<desc>Speed 0.2 km/h Distance 80.35 km</desc>
<time>2011-03-24T16:27:32.03</time>
<name>3512</name>
</trkpt>
<trkpt lat="49.302105" lon="9.154070">
<ele>188.0</ele>
<speed>0.2</speed>
<course>12.6</course>
<desc>Speed 0.2 km/h Distance 80.35 km</desc>
<time>2011-03-24T16:27:33.02</time>
<name>3513</name>
</trkpt>
<trkpt lat="49.302105" lon="9.154070">
<ele>188.0</ele>
<speed>0.2</speed>
<course>12.6</course>
<desc>Speed 0.2 km/h Distance 80.35 km</desc>
<time>2011-03-24T16:27:34.03</time>
<name>3514</name>
</trkpt>
<trkpt lat="49.302105" lon="9.154070">
<ele>188.0</ele>
<speed>0.1</speed>
<course>12.6</course>
<desc>Speed 0.1 km/h Distance 80.35 km</desc>
<time>2011-03-24T16:27:35.03</time>
<name>3515</name>
</trkpt>
<trkpt lat="49.302105" lon="9.154070">
<ele>188.0</ele>
<speed>0.1</speed>
<course>12.6</course>
<desc>Speed 0.1 km/h Distance 80.35 km</desc>
<time>2011-03-24T16:27:36.03</time>
<name>3516</name>
</trkpt>
<trkpt lat="49.302105" lon="9.154070">
<ele>188.0</ele>
<speed>0.2</speed>
<course>12.6</course>
<desc>Speed 0.2 km/h Distance 80.35 km</desc>
<time>2011-03-24T16:27:37.03</time>
<name>3517</name>
</trkpt>
<trkpt lat="49.302105" lon="9.154070">
<ele>188.0</ele>
<speed>0.1</speed>
<course>12.6</course>
<desc>Speed 0.1 km/h Distance 80.35 km</desc>
<time>2011-03-24T16:27:38.03</time>
<name>3518</name>
</trkpt>
<trkpt lat="49.302105" lon="9.154070">
<ele>188.0</ele>
<speed>0.2</speed>
<course>12.6</course>
<desc>Speed 0.2 km/h Distance 80.35 km</desc>
<time>2011-03-24T16:27:39.03</time>
<name>3519</name>
</trkpt>
<trkpt lat="49.302105" lon="9.154070">
<ele>188.0</ele>
<speed>0.1</speed>
<course>12.6</course>
<desc>Speed 0.1 km/h Distance 80.35 km</desc>
<time>2011-03-24T16:27:40.03</time>
<name>3520</name>
</trkpt>
<trkpt lat="49.302105" lon="9.154070">
<ele>188.0</ele>
<speed>0.1</speed>
<course>12.6</course>
<desc>Speed 0.1 km/h Distance 80.35 km</desc>
<time>2011-03-24T16:27:41.03</time>
<name>3521</name>
</trkpt>
<trkpt lat="49.302105" lon="9.154070">
<ele>188.0</ele>
<speed>0.1</speed>
<course>12.6</course>
<desc>Speed 0.1 km/h Distance 80.35 km</desc>
<time>2011-03-24T16:27:42.03</time>
<name>3522</name>
</trkpt>
<trkpt lat="49.302105" lon="9.154070">
<ele>188.0</ele>
<speed>0.1</speed>
<course>90.0</course>
<desc>Speed 0.1 km/h Distance 80.35 km</desc>
<time>2011-03-24T16:27:43.02</time>
<name>3523</name>
</trkpt>
<trkpt lat="49.302105" lon="9.154072">
<ele>188.0</ele>
<speed>0.1</speed>
<course>90.0</course>
<desc>Speed 0.1 km/h Distance 80.35 km</desc>
<time>2011-03-24T16:27:44.02</time>
<name>3524</name>
</trkpt>
<trkpt lat="49.302105" lon="9.154072">
<ele>188.0</ele>
<speed>0.3</speed>
<course>90.0</course>
<desc>Speed 0.3 km/h Distance 80.35 km</desc>
<time>2011-03-24T16:27:45.02</time>
<name>3525</name>
</trkpt>
<trkpt lat="49.302105" lon="9.154072">
<ele>188.0</ele>
<speed>0.1</speed>
<course>90.0</course>
<desc>Speed 0.1 km/h Distance 80.35 km</desc>
<time>2011-03-24T16:27:46.03</time>
<name>3526</name>
</trkpt>
<trkpt lat="49.302105" lon="9.154072">
<ele>188.0</ele>
<speed>0.1</speed>
<course>90.0</course>
<desc>Speed 0.1 km/h Distance 80.35 km</desc>
<time>2011-03-24T16:27:47.03</time>
<name>3527</name>
</trkpt>
<trkpt lat="49.302105" lon="9.154072">
<ele>188.0</ele>
<speed>0.1</speed>
<course>90.0</course>
<desc>Speed 0.1 km/h Distance 80.35 km</desc>
<time>2011-03-24T16:27:48.02</time>
<name>3528</name>
</trkpt>
<trkpt lat="49.302105" lon="9.154072">
<ele>188.0</ele>
<speed>0.1</speed>
<course>90.0</course>
<desc>Speed 0.1 km/h Distance 80.35 km</desc>
<time>2011-03-24T16:27:49.02</time>
<name>3529</name>
</trkpt>
<trkpt lat="49.302105" lon="9.154072">
<ele>188.0</ele>
<speed>0.2</speed>
<course>90.0</course>
<desc>Speed 0.2 km/h Distance 80.35 km</desc>
<time>2011-03-24T16:27:50.02</time>
<name>3530</name>
</trkpt>
<trkpt lat="49.302105" lon="9.154072">
<ele>188.0</ele>
<speed>0.2</speed>
<course>90.0</course>
<desc>Speed 0.2 km/h Distance 80.35 km</desc>
<time>2011-03-24T16:27:51.02</time>
<name>3531</name>
</trkpt>
<trkpt lat="49.302105" lon="9.154072">
<ele>188.0</ele>
<speed>0.4</speed>
<course>90.0</course>
<desc>Speed 0.4 km/h Distance 80.35 km</desc>
<time>2011-03-24T16:27:52.02</time>
<name>3532</name>
</trkpt>
<trkpt lat="49.302105" lon="9.154072">
<ele>188.0</ele>
<speed>0.4</speed>
<course>90.0</course>
<desc>Speed 0.4 km/h Distance 80.35 km</desc>
<time>2011-03-24T16:27:53.02</time>
<name>3533</name>
</trkpt>
<trkpt lat="49.302105" lon="9.154072">
<ele>188.0</ele>
<speed>0.2</speed>
<course>203.8</course>
<desc>Speed 0.2 km/h Distance 80.35 km</desc>
<time>2011-03-24T16:27:54.02</time>
<name>3534</name>
</trkpt>
<trkpt lat="49.302095" lon="9.154065">
<ele>188.0</ele>
<speed>3.7</speed>
<course>326.7</course>
<desc>Speed 3.7 km/h Distance 80.36 km</desc>
<time>2011-03-24T16:27:55.02</time>
<name>3535</name>
</trkpt>
<trkpt lat="49.302107" lon="9.154053">
<ele>188.0</ele>
<speed>5.4</speed>
<course>331.7</course>
<desc>Speed 5.4 km/h Distance 80.36 km</desc>
<time>2011-03-24T16:27:56.03</time>
<name>3536</name>
</trkpt>
<trkpt lat="49.302117" lon="9.154045">
<ele>188.0</ele>
<speed>5.4</speed>
<course>321.3</course>
<desc>Speed 5.4 km/h Distance 80.36 km</desc>
<time>2011-03-24T16:27:57.08</time>
<name>3537</name>
</trkpt>
<trkpt lat="49.302123" lon="9.154037">
<ele>188.0</ele>
<speed>5.4</speed>
<course>333.6</course>
<desc>Speed 5.4 km/h Distance 80.36 km</desc>
<time>2011-03-24T16:27:57.99</time>
<name>3538</name>
</trkpt>
<trkpt lat="49.302130" lon="9.154032">
<ele>188.0</ele>
<speed>5.4</speed>
<course>315.5</course>
<desc>Speed 5.4 km/h Distance 80.36 km</desc>
<time>2011-03-24T16:27:58.98</time>
<name>3539</name>
</trkpt>
<trkpt lat="49.302133" lon="9.154027">
<ele>188.0</ele>
<speed>5.4</speed>
<course>347.4</course>
<desc>Speed 5.4 km/h Distance 80.36 km</desc>
<time>2011-03-24T16:27:59.98</time>
<name>3540</name>
</trkpt>
<trkpt lat="49.302135" lon="9.154025">
<ele>188.0</ele>
<speed>5.4</speed>
<course>0.0</course>
<desc>Speed 5.4 km/h Distance 80.36 km</desc>
<time>2011-03-24T16:28:01.60</time>
<name>3541</name>
</trkpt>
<trkpt lat="49.302138" lon="9.154025">
<ele>188.0</ele>
<speed>5.4</speed>
<course>180.0</course>
<desc>Speed 5.4 km/h Distance 80.36 km</desc>
<time>2011-03-24T16:28:03.34</time>
<name>3542</name>
</trkpt>
<trkpt lat="49.302133" lon="9.154025">
<ele>188.0</ele>
<speed>0.5</speed>
<course>193.0</course>
<desc>Speed 0.5 km/h Distance 80.36 km</desc>
<time>2011-03-24T16:28:04.98</time>
<name>3543</name>
</trkpt>
<trkpt lat="49.302110" lon="9.154017">
<ele>188.0</ele>
<speed>1.1</speed>
<course>62.6</course>
<desc>Speed 1.1 km/h Distance 80.36 km</desc>
<time>2011-03-24T16:28:06.98</time>
<name>3544</name>
</trkpt>
<trkpt lat="49.302112" lon="9.154022">
<ele>188.0</ele>
<speed>1.1</speed>
<course>55.1</course>
<desc>Speed 1.1 km/h Distance 80.37 km</desc>
<time>2011-03-24T16:28:08.98</time>
<name>3545</name>
</trkpt>
<trkpt lat="49.302120" lon="9.154040">
<ele>186.5</ele>
<speed>3.7</speed>
<course>25.2</course>
<desc>Speed 3.7 km/h Distance 80.37 km</desc>
<time>2011-03-24T16:28:10.98</time>
<name>3546</name>
</trkpt>
<trkpt lat="49.302132" lon="9.154048">
<ele>186.5</ele>
<speed>4.4</speed>
<course>84.5</course>
<desc>Speed 4.4 km/h Distance 80.37 km</desc>
<time>2011-03-24T16:28:12.97</time>
<name>3547</name>
</trkpt>
<trkpt lat="49.302133" lon="9.154075">
<ele>186.5</ele>
<speed>6.8</speed>
<course>180.0</course>
<desc>Speed 6.8 km/h Distance 80.37 km</desc>
<time>2011-03-24T16:28:14.97</time>
<name>3548</name>
</trkpt>
<trkpt lat="49.302130" lon="9.154075">
<ele>186.5</ele>
<speed>1.6</speed>
<course>231.9</course>
<desc>Speed 1.6 km/h Distance 80.37 km</desc>
<time>2011-03-24T16:28:17.12</time>
<name>3549</name>
</trkpt>
<trkpt lat="49.302128" lon="9.154072">
<ele>186.5</ele>
<speed>1.6</speed>
<course>90.0</course>
<desc>Speed 1.6 km/h Distance 80.37 km</desc>
<time>2011-03-24T16:28:19.05</time>
<name>3550</name>
</trkpt>
<trkpt lat="49.302128" lon="9.154077">
<ele>186.5</ele>
<speed>0.7</speed>
<course>62.6</course>
<desc>Speed 0.7 km/h Distance 80.37 km</desc>
<time>2011-03-24T16:28:19.97</time>
<name>3551</name>
</trkpt>
<trkpt lat="49.302130" lon="9.154082">
<ele>186.5</ele>
<speed>1.4</speed>
<course>69.6</course>
<desc>Speed 1.4 km/h Distance 80.37 km</desc>
<time>2011-03-24T16:28:21.09</time>
<name>3552</name>
</trkpt>
<trkpt lat="49.302143" lon="9.154137">
<ele>186.5</ele>
<speed>3.7</speed>
<course>93.0</course>
<desc>Speed 3.7 km/h Distance 80.38 km</desc>
<time>2011-03-24T16:28:22.97</time>
<name>3553</name>
</trkpt>
<trkpt lat="49.302142" lon="9.154185">
<ele>186.0</ele>
<speed>6.1</speed>
<course>27.9</course>
<desc>Speed 6.1 km/h Distance 80.38 km</desc>
<time>2011-03-24T16:28:24.97</time>
<name>3554</name>
</trkpt>
<trkpt lat="49.302150" lon="9.154192">
<ele>186.0</ele>
<speed>2.3</speed>
<course>60.0</course>
<desc>Speed 2.3 km/h Distance 80.38 km</desc>
<time>2011-03-24T16:28:25.97</time>
<name>3555</name>
</trkpt>
<trkpt lat="49.302155" lon="9.154205">
<ele>186.0</ele>
<speed>0.7</speed>
<course>60.0</course>
<desc>Speed 0.7 km/h Distance 80.38 km</desc>
<time>2011-03-24T16:28:26.97</time>
<name>3556</name>
</trkpt>
<trkpt lat="49.302155" lon="9.154205">
<ele>186.0</ele>
<speed>0.2</speed>
<course>18.8</course>
<desc>Speed 0.2 km/h Distance 80.38 km</desc>
<time>2011-03-24T16:28:27.97</time>
<name>3557</name>
</trkpt>
<trkpt lat="49.302158" lon="9.154207">
<ele>186.0</ele>
<speed>0.5</speed>
<course>242.6</course>
<desc>Speed 0.5 km/h Distance 80.38 km</desc>
<time>2011-03-24T16:28:28.96</time>
<name>3558</name>
</trkpt>
<trkpt lat="49.302157" lon="9.154202">
<ele>185.5</ele>
<speed>0.1</speed>
<course>242.6</course>
<desc>Speed 0.1 km/h Distance 80.38 km</desc>
<time>2011-03-24T16:28:29.97</time>
<name>3559</name>
</trkpt>
<trkpt lat="49.302155" lon="9.154197">
<ele>185.5</ele>
<speed>0.4</speed>
<course>232.4</course>
<desc>Speed 0.4 km/h Distance 80.38 km</desc>
<time>2011-03-24T16:28:30.97</time>
<name>3560</name>
</trkpt>
<trkpt lat="49.302150" lon="9.154187">
<ele>185.5</ele>
<speed>0.3</speed>
<course>347.4</course>
<desc>Speed 0.3 km/h Distance 80.38 km</desc>
<time>2011-03-24T16:28:31.97</time>
<name>3561</name>
</trkpt>
<trkpt lat="49.302153" lon="9.154185">
<ele>185.5</ele>
<speed>4.0</speed>
<course>240.1</course>
<desc>Speed 4.0 km/h Distance 80.38 km</desc>
<time>2011-03-24T16:28:32.97</time>
<name>3562</name>
</trkpt>
<trkpt lat="49.302148" lon="9.154172">
<ele>185.5</ele>
<speed>0.4</speed>
<course>217.2</course>
<desc>Speed 0.4 km/h Distance 80.39 km</desc>
<time>2011-03-24T16:28:33.96</time>
<name>3563</name>
</trkpt>
<trkpt lat="49.302147" lon="9.154170">
<ele>186.5</ele>
<speed>0.9</speed>
<course>202.1</course>
<desc>Speed 0.9 km/h Distance 80.39 km</desc>
<time>2011-03-24T16:28:34.97</time>
<name>3564</name>
</trkpt>
<trkpt lat="49.302133" lon="9.154162">
<ele>186.0</ele>
<speed>1.9</speed>
<course>270.0</course>
<desc>Speed 1.9 km/h Distance 80.39 km</desc>
<time>2011-03-24T16:28:35.96</time>
<name>3565</name>
</trkpt>
<trkpt lat="49.302133" lon="9.154155">
<ele>185.5</ele>
<speed>0.6</speed>
<course>308.1</course>
<desc>Speed 0.6 km/h Distance 80.39 km</desc>
<time>2011-03-24T16:28:36.96</time>
<name>3566</name>
</trkpt>
<trkpt lat="49.302135" lon="9.154152">
<ele>185.5</ele>
<speed>0.3</speed>
<course>12.6</course>
<desc>Speed 0.3 km/h Distance 80.39 km</desc>
<time>2011-03-24T16:28:37.96</time>
<name>3567</name>
</trkpt>
<trkpt lat="49.302137" lon="9.154152">
<ele>185.5</ele>
<speed>0.6</speed>
<course>12.6</course>
<desc>Speed 0.6 km/h Distance 80.39 km</desc>
<time>2011-03-24T16:28:38.96</time>
<name>3568</name>
</trkpt>
<trkpt lat="49.302137" lon="9.154152">
<ele>186.0</ele>
<speed>0.2</speed>
<course>167.4</course>
<desc>Speed 0.2 km/h Distance 80.39 km</desc>
<time>2011-03-24T16:28:39.96</time>
<name>3569</name>
</trkpt>
<trkpt lat="49.302135" lon="9.154152">
<ele>185.5</ele>
<speed>0.4</speed>
<course>187.4</course>
<desc>Speed 0.4 km/h Distance 80.39 km</desc>
<time>2011-03-24T16:28:40.96</time>
<name>3570</name>
</trkpt>
<trkpt lat="49.302128" lon="9.154150">
<ele>185.0</ele>
<speed>0.8</speed>
<course>12.6</course>
<desc>Speed 0.8 km/h Distance 80.39 km</desc>
<time>2011-03-24T16:28:41.96</time>
<name>3571</name>
</trkpt>
<trkpt lat="49.302132" lon="9.154152">
<ele>184.5</ele>
<speed>1.0</speed>
<course>245.3</course>
<desc>Speed 1.0 km/h Distance 80.39 km</desc>
<time>2011-03-24T16:28:42.96</time>
<name>3572</name>
</trkpt>
<trkpt lat="49.302127" lon="9.154135">
<ele>184.0</ele>
<speed>1.3</speed>
<course>220.9</course>
<desc>Speed 1.3 km/h Distance 80.39 km</desc>
<time>2011-03-24T16:28:43.96</time>
<name>3573</name>
</trkpt>
<trkpt lat="49.302122" lon="9.154128">
<ele>184.0</ele>
<speed>0.9</speed>
<course>270.0</course>
<desc>Speed 0.9 km/h Distance 80.39 km</desc>
<time>2011-03-24T16:28:44.96</time>
<name>3574</name>
</trkpt>
<trkpt lat="49.302122" lon="9.154122">
<ele>184.0</ele>
<speed>0.4</speed>
<course>157.8</course>
<desc>Speed 0.4 km/h Distance 80.39 km</desc>
<time>2011-03-24T16:28:45.96</time>
<name>3575</name>
</trkpt>
<trkpt lat="49.302117" lon="9.154125">
<ele>183.5</ele>
<speed>3.2</speed>
<course>301.8</course>
<desc>Speed 3.2 km/h Distance 80.39 km</desc>
<time>2011-03-24T16:28:46.96</time>
<name>3576</name>
</trkpt>
<trkpt lat="49.302120" lon="9.154117">
<ele>184.0</ele>
<speed>0.6</speed>
<course>308.1</course>
<desc>Speed 0.6 km/h Distance 80.39 km</desc>
<time>2011-03-24T16:28:47.96</time>
<name>3577</name>
</trkpt>
<trkpt lat="49.302122" lon="9.154113">
<ele>184.0</ele>
<speed>0.4</speed>
<course>270.0</course>
<desc>Speed 0.4 km/h Distance 80.39 km</desc>
<time>2011-03-24T16:28:48.96</time>
<name>3578</name>
</trkpt>
<trkpt lat="49.302122" lon="9.154108">
<ele>184.5</ele>
<speed>0.4</speed>
<course>270.0</course>
<desc>Speed 0.4 km/h Distance 80.39 km</desc>
<time>2011-03-24T16:28:49.96</time>
<name>3579</name>
</trkpt>
<trkpt lat="49.302122" lon="9.154103">
<ele>184.5</ele>
<speed>0.6</speed>
<course>0.0</course>
<desc>Speed 0.6 km/h Distance 80.39 km</desc>
<time>2011-03-24T16:28:50.95</time>
<name>3580</name>
</trkpt>
<trkpt lat="49.302125" lon="9.154103">
<ele>185.5</ele>
<speed>1.1</speed>
<course>270.0</course>
<desc>Speed 1.1 km/h Distance 80.39 km</desc>
<time>2011-03-24T16:28:51.96</time>
<name>3581</name>
</trkpt>
<trkpt lat="49.302125" lon="9.154102">
<ele>185.5</ele>
<speed>0.6</speed>
<course>217.2</course>
<desc>Speed 0.6 km/h Distance 80.39 km</desc>
<time>2011-03-24T16:28:52.96</time>
<name>3582</name>
</trkpt>
<trkpt lat="49.302123" lon="9.154100">
<ele>185.5</ele>
<speed>0.4</speed>
<course>90.0</course>
<desc>Speed 0.4 km/h Distance 80.40 km</desc>
<time>2011-03-24T16:28:53.96</time>
<name>3583</name>
</trkpt>
<trkpt lat="49.302123" lon="9.154105">
<ele>186.0</ele>
<speed>2.1</speed>
<course>90.0</course>
<desc>Speed 2.1 km/h Distance 80.40 km</desc>
<time>2011-03-24T16:28:54.96</time>
<name>3584</name>
</trkpt>
<trkpt lat="49.302123" lon="9.154107">
<ele>186.0</ele>
<speed>0.9</speed>
<course>248.7</course>
<desc>Speed 0.9 km/h Distance 80.40 km</desc>
<time>2011-03-24T16:28:55.96</time>
<name>3585</name>
</trkpt>
<trkpt lat="49.302122" lon="9.154100">
<ele>186.0</ele>
<speed>0.8</speed>
<course>231.9</course>
<desc>Speed 0.8 km/h Distance 80.40 km</desc>
<time>2011-03-24T16:28:56.96</time>
<name>3586</name>
</trkpt>
<trkpt lat="49.302120" lon="9.154097">
<ele>186.5</ele>
<speed>0.5</speed>
<course>347.4</course>
<desc>Speed 0.5 km/h Distance 80.40 km</desc>
<time>2011-03-24T16:28:57.95</time>
<name>3587</name>
</trkpt>
<trkpt lat="49.302123" lon="9.154095">
<ele>187.0</ele>
<speed>0.6</speed>
<course>270.0</course>
<desc>Speed 0.6 km/h Distance 80.40 km</desc>
<time>2011-03-24T16:28:58.95</time>
<name>3588</name>
</trkpt>
<trkpt lat="49.302123" lon="9.154093">
<ele>187.0</ele>
<speed>0.4</speed>
<course>180.0</course>
<desc>Speed 0.4 km/h Distance 80.40 km</desc>
<time>2011-03-24T16:28:59.95</time>
<name>3589</name>
</trkpt>
<trkpt lat="49.302122" lon="9.154093">
<ele>186.5</ele>
<speed>0.6</speed>
<course>180.0</course>
<desc>Speed 0.6 km/h Distance 80.40 km</desc>
<time>2011-03-24T16:29:00.95</time>
<name>3590</name>
</trkpt>
<trkpt lat="49.302122" lon="9.154093">
<ele>186.5</ele>
<speed>0.5</speed>
<course>270.0</course>
<desc>Speed 0.5 km/h Distance 80.40 km</desc>
<time>2011-03-24T16:29:01.95</time>
<name>3591</name>
</trkpt>
<trkpt lat="49.302122" lon="9.154092">
<ele>186.5</ele>
<speed>0.5</speed>
<course>270.0</course>
<desc>Speed 0.5 km/h Distance 80.40 km</desc>
<time>2011-03-24T16:29:02.95</time>
<name>3592</name>
</trkpt>
<trkpt lat="49.302122" lon="9.154092">
<ele>186.5</ele>
<speed>0.2</speed>
<course>270.0</course>
<desc>Speed 0.2 km/h Distance 80.40 km</desc>
<time>2011-03-24T16:29:03.94</time>
<name>3593</name>
</trkpt>
<trkpt lat="49.302122" lon="9.154090">
<ele>186.5</ele>
<speed>0.2</speed>
<course>270.0</course>
<desc>Speed 0.2 km/h Distance 80.40 km</desc>
<time>2011-03-24T16:29:04.95</time>
<name>3594</name>
</trkpt>
<trkpt lat="49.302122" lon="9.154090">
<ele>186.5</ele>
<speed>0.3</speed>
<course>224.5</course>
<desc>Speed 0.3 km/h Distance 80.40 km</desc>
<time>2011-03-24T16:29:05.95</time>
<name>3595</name>
</trkpt>
<trkpt lat="49.302118" lon="9.154085">
<ele>186.5</ele>
<speed>1.0</speed>
<course>231.9</course>
<desc>Speed 1.0 km/h Distance 80.40 km</desc>
<time>2011-03-24T16:29:06.95</time>
<name>3596</name>
</trkpt>
<trkpt lat="49.302117" lon="9.154082">
<ele>186.5</ele>
<speed>0.6</speed>
<course>213.7</course>
<desc>Speed 0.6 km/h Distance 80.40 km</desc>
<time>2011-03-24T16:29:07.95</time>
<name>3597</name>
</trkpt>
<trkpt lat="49.302113" lon="9.154078">
<ele>186.5</ele>
<speed>0.8</speed>
<course>90.0</course>
<desc>Speed 0.8 km/h Distance 80.40 km</desc>
<time>2011-03-24T16:29:08.95</time>
<name>3598</name>
</trkpt>
<trkpt lat="49.302113" lon="9.154080">
<ele>186.5</ele>
<speed>0.1</speed>
<course>90.0</course>
<desc>Speed 0.1 km/h Distance 80.40 km</desc>
<time>2011-03-24T16:29:09.95</time>
<name>3599</name>
</trkpt>
<trkpt lat="49.302113" lon="9.154080">
<ele>186.5</ele>
<speed>0.1</speed>
<course>217.2</course>
<desc>Speed 0.1 km/h Distance 80.40 km</desc>
<time>2011-03-24T16:29:10.94</time>
<name>3600</name>
</trkpt>
<trkpt lat="49.302112" lon="9.154078">
<ele>186.5</ele>
<speed>0.5</speed>
<course>217.2</course>
<desc>Speed 0.5 km/h Distance 80.40 km</desc>
<time>2011-03-24T16:29:11.95</time>
<name>3601</name>
</trkpt>
<trkpt lat="49.302112" lon="9.154078">
<ele>186.5</ele>
<speed>0.3</speed>
<course>90.0</course>
<desc>Speed 0.3 km/h Distance 80.40 km</desc>
<time>2011-03-24T16:29:12.94</time>
<name>3602</name>
</trkpt>
<trkpt lat="49.302112" lon="9.154080">
<ele>186.5</ele>
<speed>0.5</speed>
<course>37.2</course>
<desc>Speed 0.5 km/h Distance 80.40 km</desc>
<time>2011-03-24T16:29:14.10</time>
<name>3603</name>
</trkpt>
<trkpt lat="49.302113" lon="9.154082">
<ele>186.5</ele>
<speed>0.2</speed>
<course>90.0</course>
<desc>Speed 0.2 km/h Distance 80.40 km</desc>
<time>2011-03-24T16:29:15.94</time>
<name>3604</name>
</trkpt>
<trkpt lat="49.302113" lon="9.154083">
<ele>186.5</ele>
<speed>0.6</speed>
<course>233.0</course>
<desc>Speed 0.6 km/h Distance 80.40 km</desc>
<time>2011-03-24T16:29:16.97</time>
<name>3605</name>
</trkpt>
<trkpt lat="49.302110" lon="9.154077">
<ele>187.0</ele>
<speed>0.9</speed>
<course>242.6</course>
<desc>Speed 0.9 km/h Distance 80.40 km</desc>
<time>2011-03-24T16:29:17.94</time>
<name>3606</name>
</trkpt>
<trkpt lat="49.302108" lon="9.154072">
<ele>187.0</ele>
<speed>0.2</speed>
<course>44.4</course>
<desc>Speed 0.2 km/h Distance 80.40 km</desc>
<time>2011-03-24T16:29:18.94</time>
<name>3607</name>
</trkpt>
<trkpt lat="49.302118" lon="9.154087">
<ele>187.5</ele>
<speed>3.2</speed>
<course>90.0</course>
<desc>Speed 3.2 km/h Distance 80.40 km</desc>
<time>2011-03-24T16:29:19.94</time>
<name>3608</name>
</trkpt>
<trkpt lat="49.302118" lon="9.154090">
<ele>188.0</ele>
<speed>1.3</speed>
<course>187.4</course>
<desc>Speed 1.3 km/h Distance 80.40 km</desc>
<time>2011-03-24T16:29:20.95</time>
<name>3609</name>
</trkpt>
<trkpt lat="49.302112" lon="9.154088">
<ele>188.0</ele>
<speed>2.8</speed>
<course>208.3</course>
<desc>Speed 2.8 km/h Distance 80.40 km</desc>
<time>2011-03-24T16:29:21.95</time>
<name>3610</name>
</trkpt>
<trkpt lat="49.302102" lon="9.154080">
<ele>188.5</ele>
<speed>4.4</speed>
<course>200.6</course>
<desc>Speed 4.4 km/h Distance 80.40 km</desc>
<time>2011-03-24T16:29:22.95</time>
<name>3611</name>
</trkpt>
<trkpt lat="49.302090" lon="9.154073">
<ele>188.5</ele>
<speed>6.3</speed>
<course>223.3</course>
<desc>Speed 6.3 km/h Distance 80.41 km</desc>
<time>2011-03-24T16:29:23.94</time>
<name>3612</name>
</trkpt>
<trkpt lat="49.302075" lon="9.154052">
<ele>189.0</ele>
<speed>8.4</speed>
<course>238.1</course>
<desc>Speed 8.4 km/h Distance 80.41 km</desc>
<time>2011-03-24T16:29:24.94</time>
<name>3613</name>
</trkpt>
<trkpt lat="49.302053" lon="9.153998">
<ele>189.5</ele>
<speed>16.1</speed>
<course>280.2</course>
<desc>Speed 16.1 km/h Distance 80.41 km</desc>
<time>2011-03-24T16:29:25.94</time>
<name>3614</name>
</trkpt>
<trkpt lat="49.302057" lon="9.153970">
<ele>190.0</ele>
<speed>7.2</speed>
<course>260.3</course>
<desc>Speed 7.2 km/h Distance 80.41 km</desc>
<time>2011-03-24T16:29:26.95</time>
<name>3615</name>
</trkpt>
<trkpt lat="49.302053" lon="9.153940">
<ele>191.0</ele>
<speed>7.9</speed>
<course>266.2</course>
<desc>Speed 7.9 km/h Distance 80.42 km</desc>
<time>2011-03-24T16:29:27.93</time>
<name>3616</name>
</trkpt>
<trkpt lat="49.302052" lon="9.153902">
<ele>191.0</ele>
<speed>8.9</speed>
<course>250.2</course>
<desc>Speed 8.9 km/h Distance 80.42 km</desc>
<time>2011-03-24T16:29:28.93</time>
<name>3617</name>
</trkpt>
<trkpt lat="49.302045" lon="9.153873">
<ele>191.5</ele>
<speed>6.4</speed>
<course>256.7</course>
<desc>Speed 6.4 km/h Distance 80.42 km</desc>
<time>2011-03-24T16:29:29.93</time>
<name>3618</name>
</trkpt>
<trkpt lat="49.302042" lon="9.153852">
<ele>192.5</ele>
<speed>5.5</speed>
<course>263.3</course>
<desc>Speed 5.5 km/h Distance 80.42 km</desc>
<time>2011-03-24T16:29:30.93</time>
<name>3619</name>
</trkpt>
<trkpt lat="49.302040" lon="9.153830">
<ele>193.5</ele>
<speed>6.9</speed>
<course>254.4</course>
<desc>Speed 6.9 km/h Distance 80.43 km</desc>
<time>2011-03-24T16:29:31.93</time>
<name>3620</name>
</trkpt>
<trkpt lat="49.302037" lon="9.153812">
<ele>193.5</ele>
<speed>4.1</speed>
<course>270.0</course>
<desc>Speed 4.1 km/h Distance 80.43 km</desc>
<time>2011-03-24T16:29:32.94</time>
<name>3621</name>
</trkpt>
<trkpt lat="49.302037" lon="9.153800">
<ele>192.0</ele>
<speed>4.1</speed>
<course>167.4</course>
<desc>Speed 4.1 km/h Distance 80.43 km</desc>
<time>2011-03-24T16:29:33.93</time>
<name>3622</name>
</trkpt>
<trkpt lat="49.302033" lon="9.153800">
<ele>192.0</ele>
<speed>0.6</speed>
<course>224.5</course>
<desc>Speed 0.6 km/h Distance 80.43 km</desc>
<time>2011-03-24T16:29:34.94</time>
<name>3623</name>
</trkpt>
<trkpt lat="49.302030" lon="9.153795">
<ele>192.5</ele>
<speed>1.8</speed>
<course>192.6</course>
<desc>Speed 1.8 km/h Distance 80.43 km</desc>
<time>2011-03-24T16:29:35.93</time>
<name>3624</name>
</trkpt>
<trkpt lat="49.302027" lon="9.153793">
<ele>192.5</ele>
<speed>0.3</speed>
<course>130.6</course>
<desc>Speed 0.3 km/h Distance 80.43 km</desc>
<time>2011-03-24T16:29:36.93</time>
<name>3625</name>
</trkpt>
<trkpt lat="49.302025" lon="9.153797">
<ele>193.0</ele>
<speed>0.4</speed>
<course>136.5</course>
<desc>Speed 0.4 km/h Distance 80.43 km</desc>
<time>2011-03-24T16:29:37.94</time>
<name>3626</name>
</trkpt>
<trkpt lat="49.302022" lon="9.153802">
<ele>194.0</ele>
<speed>0.9</speed>
<course>117.4</course>
<desc>Speed 0.9 km/h Distance 80.43 km</desc>
<time>2011-03-24T16:29:38.93</time>
<name>3627</name>
</trkpt>
<trkpt lat="49.302020" lon="9.153807">
<ele>195.0</ele>
<speed>0.6</speed>
<course>270.0</course>
<desc>Speed 0.6 km/h Distance 80.43 km</desc>
<time>2011-03-24T16:29:39.93</time>
<name>3628</name>
</trkpt>
<trkpt lat="49.302020" lon="9.153805">
<ele>195.0</ele>
<speed>0.5</speed>
<course>51.9</course>
<desc>Speed 0.5 km/h Distance 80.43 km</desc>
<time>2011-03-24T16:29:40.94</time>
<name>3629</name>
</trkpt>
<trkpt lat="49.302022" lon="9.153808">
<ele>195.0</ele>
<speed>0.5</speed>
<course>167.4</course>
<desc>Speed 0.5 km/h Distance 80.43 km</desc>
<time>2011-03-24T16:29:41.94</time>
<name>3630</name>
</trkpt>
<trkpt lat="49.302020" lon="9.153808">
<ele>195.0</ele>
<speed>1.0</speed>
<course>167.4</course>
<desc>Speed 1.0 km/h Distance 80.43 km</desc>
<time>2011-03-24T16:29:42.94</time>
<name>3631</name>
</trkpt>
<trkpt lat="49.302018" lon="9.153810">
<ele>195.0</ele>
<speed>0.7</speed>
<course>90.0</course>
<desc>Speed 0.7 km/h Distance 80.43 km</desc>
<time>2011-03-24T16:29:43.93</time>
<name>3632</name>
</trkpt>
<trkpt lat="49.302018" lon="9.153812">
<ele>195.0</ele>
<speed>0.7</speed>
<course>51.9</course>
<desc>Speed 0.7 km/h Distance 80.43 km</desc>
<time>2011-03-24T16:29:44.93</time>
<name>3633</name>
</trkpt>
<trkpt lat="49.302020" lon="9.153815">
<ele>195.0</ele>
<speed>1.2</speed>
<course>90.0</course>
<desc>Speed 1.2 km/h Distance 80.43 km</desc>
<time>2011-03-24T16:29:45.93</time>
<name>3634</name>
</trkpt>
<trkpt lat="49.302020" lon="9.153818">
<ele>195.0</ele>
<speed>0.8</speed>
<course>0.0</course>
<desc>Speed 0.8 km/h Distance 80.43 km</desc>
<time>2011-03-24T16:29:46.93</time>
<name>3635</name>
</trkpt>
<trkpt lat="49.302023" lon="9.153818">
<ele>194.5</ele>
<speed>1.0</speed>
<course>0.0</course>
<desc>Speed 1.0 km/h Distance 80.43 km</desc>
<time>2011-03-24T16:29:47.93</time>
<name>3636</name>
</trkpt>
<trkpt lat="49.302023" lon="9.153817">
<ele>194.0</ele>
<speed>0.8</speed>
<course>209.2</course>
<desc>Speed 0.8 km/h Distance 80.43 km</desc>
<time>2011-03-24T16:29:48.93</time>
<name>3637</name>
</trkpt>
<trkpt lat="49.302022" lon="9.153815">
<ele>194.0</ele>
<speed>1.0</speed>
<course>29.2</course>
<desc>Speed 1.0 km/h Distance 80.43 km</desc>
<time>2011-03-24T16:29:49.92</time>
<name>3638</name>
</trkpt>
<trkpt lat="49.302023" lon="9.153817">
<ele>194.5</ele>
<speed>1.2</speed>
<course>12.6</course>
<desc>Speed 1.2 km/h Distance 80.43 km</desc>
<time>2011-03-24T16:29:50.93</time>
<name>3639</name>
</trkpt>
<trkpt lat="49.302027" lon="9.153818">
<ele>195.0</ele>
<speed>1.4</speed>
<course>197.5</course>
<desc>Speed 1.4 km/h Distance 80.43 km</desc>
<time>2011-03-24T16:29:51.93</time>
<name>3640</name>
</trkpt>
<trkpt lat="49.302020" lon="9.153815">
<ele>195.0</ele>
<speed>3.2</speed>
<course>297.4</course>
<desc>Speed 3.2 km/h Distance 80.43 km</desc>
<time>2011-03-24T16:29:52.92</time>
<name>3641</name>
</trkpt>
<trkpt lat="49.302022" lon="9.153810">
<ele>195.0</ele>
<speed>1.7</speed>
<course>236.7</course>
<desc>Speed 1.7 km/h Distance 80.43 km</desc>
<time>2011-03-24T16:29:53.92</time>
<name>3642</name>
</trkpt>
<trkpt lat="49.302017" lon="9.153798">
<ele>196.0</ele>
<speed>3.2</speed>
<course>221.4</course>
<desc>Speed 3.2 km/h Distance 80.43 km</desc>
<time>2011-03-24T16:29:54.92</time>
<name>3643</name>
</trkpt>
<trkpt lat="49.302012" lon="9.153792">
<ele>195.5</ele>
<speed>2.6</speed>
<course>242.6</course>
<desc>Speed 2.6 km/h Distance 80.44 km</desc>
<time>2011-03-24T16:29:55.93</time>
<name>3644</name>
</trkpt>
<trkpt lat="49.302010" lon="9.153787">
<ele>194.5</ele>
<speed>2.4</speed>
<course>252.9</course>
<desc>Speed 2.4 km/h Distance 80.44 km</desc>
<time>2011-03-24T16:29:56.92</time>
<name>3645</name>
</trkpt>
<trkpt lat="49.302008" lon="9.153778">
<ele>194.0</ele>
<speed>2.5</speed>
<course>252.9</course>
<desc>Speed 2.5 km/h Distance 80.44 km</desc>
<time>2011-03-24T16:29:57.92</time>
<name>3646</name>
</trkpt>
<trkpt lat="49.302007" lon="9.153770">
<ele>193.5</ele>
<speed>2.3</speed>
<course>270.0</course>
<desc>Speed 2.3 km/h Distance 80.44 km</desc>
<time>2011-03-24T16:29:58.92</time>
<name>3647</name>
</trkpt>
<trkpt lat="49.302007" lon="9.153758">
<ele>193.5</ele>
<speed>3.0</speed>
<course>242.6</course>
<desc>Speed 3.0 km/h Distance 80.44 km</desc>
<time>2011-03-24T16:29:59.92</time>
<name>3648</name>
</trkpt>
<trkpt lat="49.302005" lon="9.153753">
<ele>193.5</ele>
<speed>1.8</speed>
<course>270.0</course>
<desc>Speed 1.8 km/h Distance 80.44 km</desc>
<time>2011-03-24T16:30:00.93</time>
<name>3649</name>
</trkpt>
<trkpt lat="49.302005" lon="9.153742">
<ele>193.5</ele>
<speed>2.7</speed>
<course>270.0</course>
<desc>Speed 2.7 km/h Distance 80.44 km</desc>
<time>2011-03-24T16:30:01.92</time>
<name>3650</name>
</trkpt>
<trkpt lat="49.302005" lon="9.153735">
<ele>193.5</ele>
<speed>1.8</speed>
<course>252.9</course>
<desc>Speed 1.8 km/h Distance 80.44 km</desc>
<time>2011-03-24T16:30:02.93</time>
<name>3651</name>
</trkpt>
<trkpt lat="49.302003" lon="9.153727">
<ele>194.0</ele>
<speed>2.2</speed>
<course>270.0</course>
<desc>Speed 2.2 km/h Distance 80.44 km</desc>
<time>2011-03-24T16:30:03.91</time>
<name>3652</name>
</trkpt>
<trkpt lat="49.302003" lon="9.153713">
<ele>194.0</ele>
<speed>3.3</speed>
<course>249.1</course>
<desc>Speed 3.3 km/h Distance 80.44 km</desc>
<time>2011-03-24T16:30:04.91</time>
<name>3653</name>
</trkpt>
<trkpt lat="49.302002" lon="9.153707">
<ele>194.0</ele>
<speed>2.1</speed>
<course>270.0</course>
<desc>Speed 2.1 km/h Distance 80.44 km</desc>
<time>2011-03-24T16:30:05.91</time>
<name>3654</name>
</trkpt>
<trkpt lat="49.302002" lon="9.153692">
<ele>194.0</ele>
<speed>3.5</speed>
<course>270.0</course>
<desc>Speed 3.5 km/h Distance 80.44 km</desc>
<time>2011-03-24T16:30:06.92</time>
<name>3655</name>
</trkpt>
<trkpt lat="49.302002" lon="9.153675">
<ele>194.5</ele>
<speed>3.0</speed>
<course>249.1</course>
<desc>Speed 3.0 km/h Distance 80.44 km</desc>
<time>2011-03-24T16:30:07.92</time>
<name>3656</name>
</trkpt>
<trkpt lat="49.302000" lon="9.153668">
<ele>195.0</ele>
<speed>2.2</speed>
<course>213.7</course>
<desc>Speed 2.2 km/h Distance 80.44 km</desc>
<time>2011-03-24T16:30:08.91</time>
<name>3657</name>
</trkpt>
<trkpt lat="49.301997" lon="9.153665">
<ele>195.0</ele>
<speed>2.6</speed>
<course>223.5</course>
<desc>Speed 2.6 km/h Distance 80.45 km</desc>
<time>2011-03-24T16:30:09.91</time>
<name>3658</name>
</trkpt>
<trkpt lat="49.301993" lon="9.153660">
<ele>194.5</ele>
<speed>2.3</speed>
<course>223.5</course>
<desc>Speed 2.3 km/h Distance 80.45 km</desc>
<time>2011-03-24T16:30:10.91</time>
<name>3659</name>
</trkpt>
<trkpt lat="49.301990" lon="9.153655">
<ele>194.5</ele>
<speed>1.7</speed>
<course>255.6</course>
<desc>Speed 1.7 km/h Distance 80.45 km</desc>
<time>2011-03-24T16:30:11.92</time>
<name>3660</name>
</trkpt>
<trkpt lat="49.301988" lon="9.153645">
<ele>194.5</ele>
<speed>1.9</speed>
<course>248.4</course>
<desc>Speed 1.9 km/h Distance 80.45 km</desc>
<time>2011-03-24T16:30:12.92</time>
<name>3661</name>
</trkpt>
<trkpt lat="49.301987" lon="9.153638">
<ele>194.5</ele>
<speed>1.8</speed>
<course>180.0</course>
<desc>Speed 1.8 km/h Distance 80.45 km</desc>
<time>2011-03-24T16:30:13.91</time>
<name>3662</name>
</trkpt>
<trkpt lat="49.301982" lon="9.153638">
<ele>194.5</ele>
<speed>1.6</speed>
<course>270.0</course>
<desc>Speed 1.6 km/h Distance 80.45 km</desc>
<time>2011-03-24T16:30:14.91</time>
<name>3663</name>
</trkpt>
<trkpt lat="49.301982" lon="9.153628">
<ele>194.5</ele>
<speed>2.0</speed>
<course>278.0</course>
<desc>Speed 2.0 km/h Distance 80.45 km</desc>
<time>2011-03-24T16:30:15.91</time>
<name>3664</name>
</trkpt>
<trkpt lat="49.301983" lon="9.153610">
<ele>194.5</ele>
<speed>3.5</speed>
<course>277.3</course>
<desc>Speed 3.5 km/h Distance 80.45 km</desc>
<time>2011-03-24T16:30:16.90</time>
<name>3665</name>
</trkpt>
<trkpt lat="49.301985" lon="9.153590">
<ele>194.5</ele>
<speed>3.1</speed>
<course>270.0</course>
<desc>Speed 3.1 km/h Distance 80.45 km</desc>
<time>2011-03-24T16:30:17.91</time>
<name>3666</name>
</trkpt>
<trkpt lat="49.301985" lon="9.153577">
<ele>195.0</ele>
<speed>1.7</speed>
<course>242.6</course>
<desc>Speed 1.7 km/h Distance 80.45 km</desc>
<time>2011-03-24T16:30:18.91</time>
<name>3667</name>
</trkpt>
<trkpt lat="49.301983" lon="9.153572">
<ele>195.0</ele>
<speed>2.2</speed>
<course>157.8</course>
<desc>Speed 2.2 km/h Distance 80.45 km</desc>
<time>2011-03-24T16:30:19.91</time>
<name>3668</name>
</trkpt>
<trkpt lat="49.301978" lon="9.153575">
<ele>194.5</ele>
<speed>1.0</speed>
<course>127.4</course>
<desc>Speed 1.0 km/h Distance 80.45 km</desc>
<time>2011-03-24T16:30:20.91</time>
<name>3669</name>
</trkpt>
<trkpt lat="49.301972" lon="9.153588">
<ele>195.0</ele>
<speed>1.1</speed>
<course>147.7</course>
<desc>Speed 1.1 km/h Distance 80.45 km</desc>
<time>2011-03-24T16:30:21.91</time>
<name>3670</name>
</trkpt>
<trkpt lat="49.301967" lon="9.153593">
<ele>195.5</ele>
<speed>1.8</speed>
<course>192.6</course>
<desc>Speed 1.8 km/h Distance 80.46 km</desc>
<time>2011-03-24T16:30:22.91</time>
<name>3671</name>
</trkpt>
<trkpt lat="49.301963" lon="9.153592">
<ele>196.0</ele>
<speed>3.0</speed>
<course>127.4</course>
<desc>Speed 3.0 km/h Distance 80.46 km</desc>
<time>2011-03-24T16:30:23.91</time>
<name>3672</name>
</trkpt>
<trkpt lat="49.301958" lon="9.153602">
<ele>196.5</ele>
<speed>0.9</speed>
<course>231.9</course>
<desc>Speed 0.9 km/h Distance 80.46 km</desc>
<time>2011-03-24T16:30:24.91</time>
<name>3673</name>
</trkpt>
<trkpt lat="49.301955" lon="9.153595">
<ele>197.0</ele>
<speed>3.0</speed>
<course>231.9</course>
<desc>Speed 3.0 km/h Distance 80.46 km</desc>
<time>2011-03-24T16:30:25.91</time>
<name>3674</name>
</trkpt>
<trkpt lat="49.301953" lon="9.153592">
<ele>197.0</ele>
<speed>1.4</speed>
<course>270.0</course>
<desc>Speed 1.4 km/h Distance 80.46 km</desc>
<time>2011-03-24T16:30:26.91</time>
<name>3675</name>
</trkpt>
<trkpt lat="49.301953" lon="9.153578">
<ele>197.5</ele>
<speed>2.8</speed>
<course>224.5</course>
<desc>Speed 2.8 km/h Distance 80.46 km</desc>
<time>2011-03-24T16:30:27.91</time>
<name>3676</name>
</trkpt>
<trkpt lat="49.301950" lon="9.153573">
<ele>198.5</ele>
<speed>2.0</speed>
<course>255.6</course>
<desc>Speed 2.0 km/h Distance 80.46 km</desc>
<time>2011-03-24T16:30:28.92</time>
<name>3677</name>
</trkpt>
<trkpt lat="49.301948" lon="9.153563">
<ele>199.5</ele>
<speed>2.0</speed>
<course>270.0</course>
<desc>Speed 2.0 km/h Distance 80.46 km</desc>
<time>2011-03-24T16:30:29.91</time>
<name>3678</name>
</trkpt>
<trkpt lat="49.301948" lon="9.153555">
<ele>201.0</ele>
<speed>2.3</speed>
<course>157.8</course>
<desc>Speed 2.3 km/h Distance 80.46 km</desc>
<time>2011-03-24T16:30:30.91</time>
<name>3679</name>
</trkpt>
<trkpt lat="49.301943" lon="9.153558">
<ele>201.0</ele>
<speed>1.1</speed>
<course>270.0</course>
<desc>Speed 1.1 km/h Distance 80.46 km</desc>
<time>2011-03-24T16:30:31.90</time>
<name>3680</name>
</trkpt>
<trkpt lat="49.301943" lon="9.153550">
<ele>201.5</ele>
<speed>1.3</speed>
<course>270.0</course>
<desc>Speed 1.3 km/h Distance 80.46 km</desc>
<time>2011-03-24T16:30:32.90</time>
<name>3681</name>
</trkpt>
<trkpt lat="49.301943" lon="9.153533">
<ele>202.0</ele>
<speed>3.0</speed>
<course>255.6</course>
<desc>Speed 3.0 km/h Distance 80.46 km</desc>
<time>2011-03-24T16:30:33.90</time>
<name>3682</name>
</trkpt>
<trkpt lat="49.301942" lon="9.153523">
<ele>202.0</ele>
<speed>3.0</speed>
<course>270.0</course>
<desc>Speed 3.0 km/h Distance 80.46 km</desc>
<time>2011-03-24T16:30:34.89</time>
<name>3683</name>
</trkpt>
<trkpt lat="49.301942" lon="9.153515">
<ele>202.0</ele>
<speed>3.0</speed>
<course>270.0</course>
<desc>Speed 3.0 km/h Distance 80.46 km</desc>
<time>2011-03-24T16:30:35.89</time>
<name>3684</name>
</trkpt>
<trkpt lat="49.301942" lon="9.153510">
<ele>201.5</ele>
<speed>3.0</speed>
<course>270.0</course>
<desc>Speed 3.0 km/h Distance 80.46 km</desc>
<time>2011-03-24T16:30:36.90</time>
<name>3685</name>
</trkpt>
<trkpt lat="49.301942" lon="9.153490">
<ele>202.0</ele>
<speed>3.0</speed>
<course>307.4</course>
<desc>Speed 3.0 km/h Distance 80.47 km</desc>
<time>2011-03-24T16:30:37.89</time>
<name>3686</name>
</trkpt>
<trkpt lat="49.301948" lon="9.153477">
<ele>202.0</ele>
<speed>3.9</speed>
<course>339.2</course>
<desc>Speed 3.9 km/h Distance 80.47 km</desc>
<time>2011-03-24T16:30:38.90</time>
<name>3687</name>
</trkpt>
<trkpt lat="49.301957" lon="9.153472">
<ele>202.0</ele>
<speed>1.3</speed>
<course>324.9</course>
<desc>Speed 1.3 km/h Distance 80.47 km</desc>
<time>2011-03-24T16:30:39.90</time>
<name>3688</name>
</trkpt>
<trkpt lat="49.302000" lon="9.153425">
<ele>201.0</ele>
<speed>3.7</speed>
<course>317.0</course>
<desc>Speed 3.7 km/h Distance 80.47 km</desc>
<time>2011-03-24T16:30:41.90</time>
<name>3689</name>
</trkpt>
<trkpt lat="49.302012" lon="9.153408">
<ele>200.5</ele>
<speed>4.1</speed>
<course>190.3</course>
<desc>Speed 4.1 km/h Distance 80.48 km</desc>
<time>2011-03-24T16:30:42.90</time>
<name>3690</name>
</trkpt>
<trkpt lat="49.302005" lon="9.153407">
<ele>200.5</ele>
<speed>2.4</speed>
<course>192.6</course>
<desc>Speed 2.4 km/h Distance 80.48 km</desc>
<time>2011-03-24T16:30:43.90</time>
<name>3691</name>
</trkpt>
<trkpt lat="49.301995" lon="9.153403">
<ele>200.0</ele>
<speed>2.4</speed>
<course>296.9</course>
<desc>Speed 2.4 km/h Distance 80.48 km</desc>
<time>2011-03-24T16:30:44.90</time>
<name>3692</name>
</trkpt>
<trkpt lat="49.302000" lon="9.153388">
<ele>199.5</ele>
<speed>3.2</speed>
<course>175.6</course>
<desc>Speed 3.2 km/h Distance 80.48 km</desc>
<time>2011-03-24T16:30:45.90</time>
<name>3693</name>
</trkpt>
<trkpt lat="49.301990" lon="9.153388">
<ele>199.5</ele>
<speed>2.0</speed>
<course>187.4</course>
<desc>Speed 2.0 km/h Distance 80.48 km</desc>
<time>2011-03-24T16:30:46.90</time>
<name>3694</name>
</trkpt>
<trkpt lat="49.301983" lon="9.153387">
<ele>199.0</ele>
<speed>2.1</speed>
<course>118.3</course>
<desc>Speed 2.1 km/h Distance 80.48 km</desc>
<time>2011-03-24T16:30:47.89</time>
<name>3695</name>
</trkpt>
<trkpt lat="49.301982" lon="9.153392">
<ele>199.0</ele>
<speed>0.1</speed>
<course>242.6</course>
<desc>Speed 0.1 km/h Distance 80.48 km</desc>
<time>2011-03-24T16:30:48.90</time>
<name>3696</name>
</trkpt>
<trkpt lat="49.301980" lon="9.153387">
<ele>199.0</ele>
<speed>2.1</speed>
<course>297.4</course>
<desc>Speed 2.1 km/h Distance 80.48 km</desc>
<time>2011-03-24T16:30:49.90</time>
<name>3697</name>
</trkpt>
<trkpt lat="49.301982" lon="9.153382">
<ele>199.0</ele>
<speed>1.7</speed>
<course>297.4</course>
<desc>Speed 1.7 km/h Distance 80.48 km</desc>
<time>2011-03-24T16:30:50.90</time>
<name>3698</name>
</trkpt>
<trkpt lat="49.301982" lon="9.153380">
<ele>199.0</ele>
<speed>2.1</speed>
<course>231.9</course>
<desc>Speed 2.1 km/h Distance 80.48 km</desc>
<time>2011-03-24T16:30:51.89</time>
<name>3699</name>
</trkpt>
<trkpt lat="49.301980" lon="9.153377">
<ele>198.5</ele>
<speed>2.5</speed>
<course>270.0</course>
<desc>Speed 2.5 km/h Distance 80.48 km</desc>
<time>2011-03-24T16:30:52.90</time>
<name>3700</name>
</trkpt>
<trkpt lat="49.301980" lon="9.153365">
<ele>198.0</ele>
<speed>3.1</speed>
<course>231.9</course>
<desc>Speed 3.1 km/h Distance 80.48 km</desc>
<time>2011-03-24T16:30:53.89</time>
<name>3701</name>
</trkpt>
<trkpt lat="49.301978" lon="9.153362">
<ele>198.0</ele>
<speed>1.4</speed>
<course>270.0</course>
<desc>Speed 1.4 km/h Distance 80.48 km</desc>
<time>2011-03-24T16:30:54.89</time>
<name>3702</name>
</trkpt>
<trkpt lat="49.301978" lon="9.153352">
<ele>197.5</ele>
<speed>2.5</speed>
<course>270.0</course>
<desc>Speed 2.5 km/h Distance 80.48 km</desc>
<time>2011-03-24T16:30:55.90</time>
<name>3703</name>
</trkpt>
<trkpt lat="49.301978" lon="9.153343">
<ele>197.5</ele>
<speed>2.2</speed>
<course>157.8</course>
<desc>Speed 2.2 km/h Distance 80.49 km</desc>
<time>2011-03-24T16:30:56.89</time>
<name>3704</name>
</trkpt>
<trkpt lat="49.301973" lon="9.153347">
<ele>196.5</ele>
<speed>1.2</speed>
<course>180.0</course>
<desc>Speed 1.2 km/h Distance 80.49 km</desc>
<time>2011-03-24T16:30:57.89</time>
<name>3705</name>
</trkpt>
<trkpt lat="49.301972" lon="9.153347">
<ele>196.0</ele>
<speed>1.3</speed>
<course>187.4</course>
<desc>Speed 1.3 km/h Distance 80.49 km</desc>
<time>2011-03-24T16:30:58.89</time>
<name>3706</name>
</trkpt>
<trkpt lat="49.301965" lon="9.153345">
<ele>196.0</ele>
<speed>2.1</speed>
<course>315.7</course>
<desc>Speed 2.1 km/h Distance 80.49 km</desc>
<time>2011-03-24T16:30:59.89</time>
<name>3707</name>
</trkpt>
<trkpt lat="49.301975" lon="9.153330">
<ele>195.5</ele>
<speed>4.2</speed>
<course>310.0</course>
<desc>Speed 4.2 km/h Distance 80.49 km</desc>
<time>2011-03-24T16:31:00.89</time>
<name>3708</name>
</trkpt>
<trkpt lat="49.301985" lon="9.153312">
<ele>195.0</ele>
<speed>6.2</speed>
<course>201.5</course>
<desc>Speed 6.2 km/h Distance 80.49 km</desc>
<time>2011-03-24T16:31:01.89</time>
<name>3709</name>
</trkpt>
<trkpt lat="49.301977" lon="9.153307">
<ele>195.0</ele>
<speed>4.3</speed>
<course>304.8</course>
<desc>Speed 4.3 km/h Distance 80.49 km</desc>
<time>2011-03-24T16:31:02.89</time>
<name>3710</name>
</trkpt>
<trkpt lat="49.301985" lon="9.153288">
<ele>195.0</ele>
<speed>4.2</speed>
<course>302.6</course>
<desc>Speed 4.2 km/h Distance 80.49 km</desc>
<time>2011-03-24T16:31:03.89</time>
<name>3711</name>
</trkpt>
<trkpt lat="49.301993" lon="9.153268">
<ele>194.5</ele>
<speed>3.0</speed>
<course>318.4</course>
<desc>Speed 3.0 km/h Distance 80.49 km</desc>
<time>2011-03-24T16:31:04.88</time>
<name>3712</name>
</trkpt>
<trkpt lat="49.302012" lon="9.153243">
<ele>194.5</ele>
<speed>3.0</speed>
<course>291.0</course>
<desc>Speed 3.0 km/h Distance 80.50 km</desc>
<time>2011-03-24T16:31:05.89</time>
<name>3713</name>
</trkpt>
<trkpt lat="49.302015" lon="9.153230">
<ele>194.0</ele>
<speed>2.6</speed>
<course>324.1</course>
<desc>Speed 2.6 km/h Distance 80.50 km</desc>
<time>2011-03-24T16:31:06.88</time>
<name>3714</name>
</trkpt>
<trkpt lat="49.302030" lon="9.153213">
<ele>193.0</ele>
<speed>3.0</speed>
<course>294.7</course>
<desc>Speed 3.0 km/h Distance 80.50 km</desc>
<time>2011-03-24T16:31:07.88</time>
<name>3715</name>
</trkpt>
<trkpt lat="49.302035" lon="9.153197">
<ele>192.5</ele>
<speed>2.7</speed>
<course>307.6</course>
<desc>Speed 2.7 km/h Distance 80.50 km</desc>
<time>2011-03-24T16:31:08.89</time>
<name>3716</name>
</trkpt>
<trkpt lat="49.302042" lon="9.153183">
<ele>192.0</ele>
<speed>2.5</speed>
<course>242.8</course>
<desc>Speed 2.5 km/h Distance 80.50 km</desc>
<time>2011-03-24T16:31:09.89</time>
<name>3717</name>
</trkpt>
<trkpt lat="49.302038" lon="9.153173">
<ele>192.0</ele>
<speed>2.8</speed>
<course>227.4</course>
<desc>Speed 2.8 km/h Distance 80.50 km</desc>
<time>2011-03-24T16:31:10.89</time>
<name>3718</name>
</trkpt>
<trkpt lat="49.302033" lon="9.153165">
<ele>192.0</ele>
<speed>3.0</speed>
<course>219.0</course>
<desc>Speed 3.0 km/h Distance 80.50 km</desc>
<time>2011-03-24T16:31:11.89</time>
<name>3719</name>
</trkpt>
<trkpt lat="49.302027" lon="9.153157">
<ele>191.5</ele>
<speed>3.1</speed>
<course>207.0</course>
<desc>Speed 3.1 km/h Distance 80.51 km</desc>
<time>2011-03-24T16:31:12.88</time>
<name>3720</name>
</trkpt>
<trkpt lat="49.302018" lon="9.153150">
<ele>191.5</ele>
<speed>3.0</speed>
<course>197.6</course>
<desc>Speed 3.0 km/h Distance 80.51 km</desc>
<time>2011-03-24T16:31:13.88</time>
<name>3721</name>
</trkpt>
<trkpt lat="49.302008" lon="9.153145">
<ele>191.5</ele>
<speed>3.0</speed>
<course>198.2</course>
<desc>Speed 3.0 km/h Distance 80.51 km</desc>
<time>2011-03-24T16:31:14.88</time>
<name>3722</name>
</trkpt>
<trkpt lat="49.301998" lon="9.153140">
<ele>191.5</ele>
<speed>3.1</speed>
<course>198.2</course>
<desc>Speed 3.1 km/h Distance 80.51 km</desc>
<time>2011-03-24T16:31:15.88</time>
<name>3723</name>
</trkpt>
<trkpt lat="49.301988" lon="9.153135">
<ele>191.0</ele>
<speed>3.3</speed>
<course>227.1</course>
<desc>Speed 3.3 km/h Distance 80.51 km</desc>
<time>2011-03-24T16:31:16.88</time>
<name>3724</name>
</trkpt>
<trkpt lat="49.301983" lon="9.153127">
<ele>191.0</ele>
<speed>2.9</speed>
<course>224.0</course>
<desc>Speed 2.9 km/h Distance 80.51 km</desc>
<time>2011-03-24T16:31:17.88</time>
<name>3725</name>
</trkpt>
<trkpt lat="49.301977" lon="9.153117">
<ele>190.5</ele>
<speed>2.8</speed>
<course>196.0</course>
<desc>Speed 2.8 km/h Distance 80.51 km</desc>
<time>2011-03-24T16:31:18.88</time>
<name>3726</name>
</trkpt>
<trkpt lat="49.301970" lon="9.153113">
<ele>190.0</ele>
<speed>2.3</speed>
<course>240.1</course>
<desc>Speed 2.3 km/h Distance 80.51 km</desc>
<time>2011-03-24T16:31:19.88</time>
<name>3727</name>
</trkpt>
<trkpt lat="49.301965" lon="9.153100">
<ele>189.0</ele>
<speed>4.0</speed>
<course>205.6</course>
<desc>Speed 4.0 km/h Distance 80.51 km</desc>
<time>2011-03-24T16:31:20.88</time>
<name>3728</name>
</trkpt>
<trkpt lat="49.301958" lon="9.153095">
<ele>188.5</ele>
<speed>2.6</speed>
<course>213.7</course>
<desc>Speed 2.6 km/h Distance 80.51 km</desc>
<time>2011-03-24T16:31:21.88</time>
<name>3729</name>
</trkpt>
<trkpt lat="49.301952" lon="9.153088">
<ele>188.0</ele>
<speed>2.7</speed>
<course>221.4</course>
<desc>Speed 2.7 km/h Distance 80.52 km</desc>
<time>2011-03-24T16:31:22.88</time>
<name>3730</name>
</trkpt>
<trkpt lat="49.301947" lon="9.153082">
<ele>188.0</ele>
<speed>2.8</speed>
<course>246.3</course>
<desc>Speed 2.8 km/h Distance 80.52 km</desc>
<time>2011-03-24T16:31:23.87</time>
<name>3731</name>
</trkpt>
<trkpt lat="49.301943" lon="9.153070">
<ele>188.0</ele>
<speed>3.3</speed>
<course>227.1</course>
<desc>Speed 3.3 km/h Distance 80.52 km</desc>
<time>2011-03-24T16:31:24.88</time>
<name>3732</name>
</trkpt>
<trkpt lat="49.301938" lon="9.153062">
<ele>188.5</ele>
<speed>3.1</speed>
<course>212.3</course>
<desc>Speed 3.1 km/h Distance 80.52 km</desc>
<time>2011-03-24T16:31:25.88</time>
<name>3733</name>
</trkpt>
<trkpt lat="49.301933" lon="9.153057">
<ele>188.5</ele>
<speed>3.1</speed>
<course>213.2</course>
<desc>Speed 3.1 km/h Distance 80.52 km</desc>
<time>2011-03-24T16:31:26.88</time>
<name>3734</name>
</trkpt>
<trkpt lat="49.301928" lon="9.153052">
<ele>188.5</ele>
<speed>3.1</speed>
<course>206.4</course>
<desc>Speed 3.1 km/h Distance 80.52 km</desc>
<time>2011-03-24T16:31:27.88</time>
<name>3735</name>
</trkpt>
<trkpt lat="49.301922" lon="9.153047">
<ele>188.5</ele>
<speed>3.2</speed>
<course>212.6</course>
<desc>Speed 3.2 km/h Distance 80.52 km</desc>
<time>2011-03-24T16:31:28.87</time>
<name>3736</name>
</trkpt>
<trkpt lat="49.301915" lon="9.153040">
<ele>188.5</ele>
<speed>3.0</speed>
<course>233.0</course>
<desc>Speed 3.0 km/h Distance 80.52 km</desc>
<time>2011-03-24T16:31:29.87</time>
<name>3737</name>
</trkpt>
<trkpt lat="49.301912" lon="9.153033">
<ele>188.0</ele>
<speed>3.1</speed>
<course>246.3</course>
<desc>Speed 3.1 km/h Distance 80.52 km</desc>
<time>2011-03-24T16:31:30.88</time>
<name>3738</name>
</trkpt>
<trkpt lat="49.301908" lon="9.153022">
<ele>188.0</ele>
<speed>3.2</speed>
<course>257.6</course>
<desc>Speed 3.2 km/h Distance 80.52 km</desc>
<time>2011-03-24T16:31:31.87</time>
<name>3739</name>
</trkpt>
<trkpt lat="49.301907" lon="9.153010">
<ele>188.0</ele>
<speed>3.1</speed>
<course>246.3</course>
<desc>Speed 3.1 km/h Distance 80.52 km</desc>
<time>2011-03-24T16:31:32.87</time>
<name>3740</name>
</trkpt>
<trkpt lat="49.301903" lon="9.152998">
<ele>188.0</ele>
<speed>3.1</speed>
<course>259.2</course>
<desc>Speed 3.1 km/h Distance 80.52 km</desc>
<time>2011-03-24T16:31:33.87</time>
<name>3741</name>
</trkpt>
<trkpt lat="49.301902" lon="9.152985">
<ele>188.0</ele>
<speed>3.1</speed>
<course>259.2</course>
<desc>Speed 3.1 km/h Distance 80.53 km</desc>
<time>2011-03-24T16:31:34.86</time>
<name>3742</name>
</trkpt>
<trkpt lat="49.301900" lon="9.152972">
<ele>188.0</ele>
<speed>3.1</speed>
<course>249.0</course>
<desc>Speed 3.1 km/h Distance 80.53 km</desc>
<time>2011-03-24T16:31:35.86</time>
<name>3743</name>
</trkpt>
<trkpt lat="49.301897" lon="9.152958">
<ele>188.0</ele>
<speed>3.1</speed>
<course>259.2</course>
<desc>Speed 3.1 km/h Distance 80.53 km</desc>
<time>2011-03-24T16:31:36.86</time>
<name>3744</name>
</trkpt>
<trkpt lat="49.301895" lon="9.152945">
<ele>188.0</ele>
<speed>3.1</speed>
<course>248.9</course>
<desc>Speed 3.1 km/h Distance 80.53 km</desc>
<time>2011-03-24T16:31:37.86</time>
<name>3745</name>
</trkpt>
<trkpt lat="49.301892" lon="9.152932">
<ele>188.5</ele>
<speed>3.1</speed>
<course>260.3</course>
<desc>Speed 3.1 km/h Distance 80.53 km</desc>
<time>2011-03-24T16:31:38.86</time>
<name>3746</name>
</trkpt>
<trkpt lat="49.301890" lon="9.152917">
<ele>188.5</ele>
<speed>3.0</speed>
<course>259.1</course>
<desc>Speed 3.0 km/h Distance 80.53 km</desc>
<time>2011-03-24T16:31:39.86</time>
<name>3747</name>
</trkpt>
<trkpt lat="49.301888" lon="9.152903">
<ele>189.0</ele>
<speed>2.9</speed>
<course>259.1</course>
<desc>Speed 2.9 km/h Distance 80.53 km</desc>
<time>2011-03-24T16:31:40.86</time>
<name>3748</name>
</trkpt>
<trkpt lat="49.301887" lon="9.152890">
<ele>189.0</ele>
<speed>3.0</speed>
<course>255.6</course>
<desc>Speed 3.0 km/h Distance 80.53 km</desc>
<time>2011-03-24T16:31:41.86</time>
<name>3749</name>
</trkpt>
<trkpt lat="49.301885" lon="9.152880">
<ele>189.0</ele>
<speed>2.8</speed>
<course>255.6</course>
<desc>Speed 2.8 km/h Distance 80.53 km</desc>
<time>2011-03-24T16:31:42.87</time>
<name>3750</name>
</trkpt>
<trkpt lat="49.301883" lon="9.152870">
<ele>189.0</ele>
<speed>2.9</speed>
<course>257.6</course>
<desc>Speed 2.9 km/h Distance 80.53 km</desc>
<time>2011-03-24T16:31:43.87</time>
<name>3751</name>
</trkpt>
<trkpt lat="49.301882" lon="9.152858">
<ele>189.0</ele>
<speed>2.8</speed>
<course>255.6</course>
<desc>Speed 2.8 km/h Distance 80.53 km</desc>
<time>2011-03-24T16:31:44.86</time>
<name>3752</name>
</trkpt>
<trkpt lat="49.301880" lon="9.152848">
<ele>188.5</ele>
<speed>2.7</speed>
<course>246.5</course>
<desc>Speed 2.7 km/h Distance 80.54 km</desc>
<time>2011-03-24T16:31:45.87</time>
<name>3753</name>
</trkpt>
<trkpt lat="49.301877" lon="9.152837">
<ele>188.5</ele>
<speed>2.8</speed>
<course>255.8</course>
<desc>Speed 2.8 km/h Distance 80.54 km</desc>
<time>2011-03-24T16:31:46.87</time>
<name>3754</name>
</trkpt>
<trkpt lat="49.301875" lon="9.152827">
<ele>188.5</ele>
<speed>2.8</speed>
<course>252.9</course>
<desc>Speed 2.8 km/h Distance 80.54 km</desc>
<time>2011-03-24T16:31:47.87</time>
<name>3755</name>
</trkpt>
<trkpt lat="49.301873" lon="9.152818">
<ele>188.5</ele>
<speed>2.6</speed>
<course>242.8</course>
<desc>Speed 2.6 km/h Distance 80.54 km</desc>
<time>2011-03-24T16:31:48.86</time>
<name>3756</name>
</trkpt>
<trkpt lat="49.301870" lon="9.152808">
<ele>188.0</ele>
<speed>2.7</speed>
<course>255.6</course>
<desc>Speed 2.7 km/h Distance 80.54 km</desc>
<time>2011-03-24T16:31:49.86</time>
<name>3757</name>
</trkpt>
<trkpt lat="49.301868" lon="9.152798">
<ele>188.0</ele>
<speed>2.3</speed>
<course>252.9</course>
<desc>Speed 2.3 km/h Distance 80.54 km</desc>
<time>2011-03-24T16:31:50.86</time>
<name>3758</name>
</trkpt>
<trkpt lat="49.301867" lon="9.152790">
<ele>188.5</ele>
<speed>2.4</speed>
<course>252.9</course>
<desc>Speed 2.4 km/h Distance 80.54 km</desc>
<time>2011-03-24T16:31:51.85</time>
<name>3759</name>
</trkpt>
<trkpt lat="49.301865" lon="9.152782">
<ele>188.5</ele>
<speed>2.4</speed>
<course>255.6</course>
<desc>Speed 2.4 km/h Distance 80.54 km</desc>
<time>2011-03-24T16:31:52.86</time>
<name>3760</name>
</trkpt>
<trkpt lat="49.301863" lon="9.152772">
<ele>188.5</ele>
<speed>2.4</speed>
<course>270.0</course>
<desc>Speed 2.4 km/h Distance 80.54 km</desc>
<time>2011-03-24T16:31:53.86</time>
<name>3761</name>
</trkpt>
<trkpt lat="49.301863" lon="9.152763">
<ele>188.0</ele>
<speed>2.6</speed>
<course>252.9</course>
<desc>Speed 2.6 km/h Distance 80.54 km</desc>
<time>2011-03-24T16:31:54.86</time>
<name>3762</name>
</trkpt>
<trkpt lat="49.301862" lon="9.152755">
<ele>188.0</ele>
<speed>2.3</speed>
<course>255.6</course>
<desc>Speed 2.3 km/h Distance 80.54 km</desc>
<time>2011-03-24T16:31:55.87</time>
<name>3763</name>
</trkpt>
<trkpt lat="49.301860" lon="9.152745">
<ele>188.0</ele>
<speed>2.7</speed>
<course>146.8</course>
<desc>Speed 2.7 km/h Distance 80.54 km</desc>
<time>2011-03-24T16:31:56.86</time>
<name>3764</name>
</trkpt>
<trkpt lat="49.301855" lon="9.152750">
<ele>188.0</ele>
<speed>1.8</speed>
<course>270.0</course>
<desc>Speed 1.8 km/h Distance 80.54 km</desc>
<time>2011-03-24T16:31:57.86</time>
<name>3765</name>
</trkpt>
<trkpt lat="49.301855" lon="9.152740">
<ele>188.0</ele>
<speed>2.8</speed>
<course>270.0</course>
<desc>Speed 2.8 km/h Distance 80.54 km</desc>
<time>2011-03-24T16:31:58.86</time>
<name>3766</name>
</trkpt>
<trkpt lat="49.301855" lon="9.152730">
<ele>187.5</ele>
<speed>2.9</speed>
<course>231.9</course>
<desc>Speed 2.9 km/h Distance 80.55 km</desc>
<time>2011-03-24T16:31:59.85</time>
<name>3767</name>
</trkpt>
<trkpt lat="49.301853" lon="9.152727">
<ele>187.5</ele>
<speed>1.7</speed>
<course>270.0</course>
<desc>Speed 1.7 km/h Distance 80.55 km</desc>
<time>2011-03-24T16:32:00.86</time>
<name>3768</name>
</trkpt>
<trkpt lat="49.301853" lon="9.152717">
<ele>187.0</ele>
<speed>2.2</speed>
<course>270.0</course>
<desc>Speed 2.2 km/h Distance 80.55 km</desc>
<time>2011-03-24T16:32:01.86</time>
<name>3769</name>
</trkpt>
<trkpt lat="49.301853" lon="9.152707">
<ele>187.0</ele>
<speed>1.5</speed>
<course>156.2</course>
<desc>Speed 1.5 km/h Distance 80.55 km</desc>
<time>2011-03-24T16:32:02.86</time>
<name>3770</name>
</trkpt>
<trkpt lat="49.301848" lon="9.152710">
<ele>187.5</ele>
<speed>3.8</speed>
<course>167.4</course>
<desc>Speed 3.8 km/h Distance 80.55 km</desc>
<time>2011-03-24T16:32:03.85</time>
<name>3771</name>
</trkpt>
<trkpt lat="49.301847" lon="9.152710">
<ele>188.0</ele>
<speed>1.0</speed>
<course>270.0</course>
<desc>Speed 1.0 km/h Distance 80.55 km</desc>
<time>2011-03-24T16:32:04.86</time>
<name>3772</name>
</trkpt>
<trkpt lat="49.301847" lon="9.152700">
<ele>187.5</ele>
<speed>1.8</speed>
<course>252.9</course>
<desc>Speed 1.8 km/h Distance 80.55 km</desc>
<time>2011-03-24T16:32:05.85</time>
<name>3773</name>
</trkpt>
<trkpt lat="49.301845" lon="9.152692">
<ele>187.5</ele>
<speed>1.9</speed>
<course>297.2</course>
<desc>Speed 1.9 km/h Distance 80.55 km</desc>
<time>2011-03-24T16:32:06.85</time>
<name>3774</name>
</trkpt>
<trkpt lat="49.301848" lon="9.152682">
<ele>186.5</ele>
<speed>1.8</speed>
<course>270.0</course>
<desc>Speed 1.8 km/h Distance 80.55 km</desc>
<time>2011-03-24T16:32:07.85</time>
<name>3775</name>
</trkpt>
<trkpt lat="49.301848" lon="9.152670">
<ele>186.5</ele>
<speed>1.7</speed>
<course>187.4</course>
<desc>Speed 1.7 km/h Distance 80.55 km</desc>
<time>2011-03-24T16:32:08.85</time>
<name>3776</name>
</trkpt>
<trkpt lat="49.301842" lon="9.152668">
<ele>186.0</ele>
<speed>2.9</speed>
<course>257.7</course>
<desc>Speed 2.9 km/h Distance 80.55 km</desc>
<time>2011-03-24T16:32:09.85</time>
<name>3777</name>
</trkpt>
<trkpt lat="49.301840" lon="9.152657">
<ele>186.0</ele>
<speed>2.2</speed>
<course>243.0</course>
<desc>Speed 2.2 km/h Distance 80.55 km</desc>
<time>2011-03-24T16:32:10.85</time>
<name>3778</name>
</trkpt>
<trkpt lat="49.301835" lon="9.152642">
<ele>185.5</ele>
<speed>3.1</speed>
<course>249.1</course>
<desc>Speed 3.1 km/h Distance 80.55 km</desc>
<time>2011-03-24T16:32:11.85</time>
<name>3779</name>
</trkpt>
<trkpt lat="49.301833" lon="9.152635">
<ele>185.5</ele>
<speed>1.7</speed>
<course>213.2</course>
<desc>Speed 1.7 km/h Distance 80.55 km</desc>
<time>2011-03-24T16:32:12.85</time>
<name>3780</name>
</trkpt>
<trkpt lat="49.301827" lon="9.152628">
<ele>184.5</ele>
<speed>3.0</speed>
<course>242.6</course>
<desc>Speed 3.0 km/h Distance 80.56 km</desc>
<time>2011-03-24T16:32:13.85</time>
<name>3781</name>
</trkpt>
<trkpt lat="49.301825" lon="9.152623">
<ele>184.5</ele>
<speed>1.3</speed>
<course>175.6</course>
<desc>Speed 1.3 km/h Distance 80.56 km</desc>
<time>2011-03-24T16:32:14.85</time>
<name>3782</name>
</trkpt>
<trkpt lat="49.301815" lon="9.152623">
<ele>184.5</ele>
<speed>1.3</speed>
<course>165.1</course>
<desc>Speed 1.3 km/h Distance 80.56 km</desc>
<time>2011-03-24T16:32:15.85</time>
<name>3783</name>
</trkpt>
<trkpt lat="49.301798" lon="9.152630">
<ele>184.5</ele>
<speed>1.4</speed>
<course>270.0</course>
<desc>Speed 1.4 km/h Distance 80.56 km</desc>
<time>2011-03-24T16:32:16.84</time>
<name>3784</name>
</trkpt>
<trkpt lat="49.301798" lon="9.152627">
<ele>185.0</ele>
<speed>2.3</speed>
<course>270.0</course>
<desc>Speed 2.3 km/h Distance 80.56 km</desc>
<time>2011-03-24T16:32:17.84</time>
<name>3785</name>
</trkpt>
<trkpt lat="49.301798" lon="9.152622">
<ele>185.0</ele>
<speed>2.3</speed>
<course>270.0</course>
<desc>Speed 2.3 km/h Distance 80.56 km</desc>
<time>2011-03-24T16:32:18.84</time>
<name>3786</name>
</trkpt>
<trkpt lat="49.301798" lon="9.152620">
<ele>185.0</ele>
<speed>2.3</speed>
<course>290.9</course>
<desc>Speed 2.3 km/h Distance 80.56 km</desc>
<time>2011-03-24T16:32:19.84</time>
<name>3787</name>
</trkpt>
<trkpt lat="49.301800" lon="9.152613">
<ele>185.0</ele>
<speed>2.3</speed>
<course>320.0</course>
<desc>Speed 2.3 km/h Distance 80.56 km</desc>
<time>2011-03-24T16:32:20.84</time>
<name>3788</name>
</trkpt>
<trkpt lat="49.301812" lon="9.152598">
<ele>184.5</ele>
<speed>2.7</speed>
<course>343.2</course>
<desc>Speed 2.7 km/h Distance 80.56 km</desc>
<time>2011-03-24T16:32:21.84</time>
<name>3789</name>
</trkpt>
<trkpt lat="49.301833" lon="9.152588">
<ele>185.0</ele>
<speed>0.7</speed>
<course>329.9</course>
<desc>Speed 0.7 km/h Distance 80.56 km</desc>
<time>2011-03-24T16:32:22.84</time>
<name>3790</name>
</trkpt>
<trkpt lat="49.301848" lon="9.152575">
<ele>185.0</ele>
<speed>1.2</speed>
<course>167.4</course>
<desc>Speed 1.2 km/h Distance 80.57 km</desc>
<time>2011-03-24T16:32:23.85</time>
<name>3791</name>
</trkpt>
<trkpt lat="49.301843" lon="9.152577">
<ele>185.0</ele>
<speed>1.7</speed>
<course>290.9</course>
<desc>Speed 1.7 km/h Distance 80.57 km</desc>
<time>2011-03-24T16:32:24.84</time>
<name>3792</name>
</trkpt>
<trkpt lat="49.301845" lon="9.152570">
<ele>185.5</ele>
<speed>0.8</speed>
<course>270.0</course>
<desc>Speed 0.8 km/h Distance 80.57 km</desc>
<time>2011-03-24T16:32:25.84</time>
<name>3793</name>
</trkpt>
<trkpt lat="49.301845" lon="9.152565">
<ele>185.5</ele>
<speed>1.1</speed>
<course>297.2</course>
<desc>Speed 1.1 km/h Distance 80.57 km</desc>
<time>2011-03-24T16:32:26.84</time>
<name>3794</name>
</trkpt>
<trkpt lat="49.301848" lon="9.152555">
<ele>185.5</ele>
<speed>1.0</speed>
<course>242.6</course>
<desc>Speed 1.0 km/h Distance 80.57 km</desc>
<time>2011-03-24T16:32:27.84</time>
<name>3795</name>
</trkpt>
<trkpt lat="49.301847" lon="9.152550">
<ele>186.0</ele>
<speed>1.0</speed>
<course>301.5</course>
<desc>Speed 1.0 km/h Distance 80.57 km</desc>
<time>2011-03-24T16:32:28.85</time>
<name>3796</name>
</trkpt>
<trkpt lat="49.301853" lon="9.152533">
<ele>186.0</ele>
<speed>1.2</speed>
<course>297.4</course>
<desc>Speed 1.2 km/h Distance 80.57 km</desc>
<time>2011-03-24T16:32:29.85</time>
<name>3797</name>
</trkpt>
<trkpt lat="49.301855" lon="9.152528">
<ele>186.0</ele>
<speed>1.0</speed>
<course>290.9</course>
<desc>Speed 1.0 km/h Distance 80.57 km</desc>
<time>2011-03-24T16:32:30.84</time>
<name>3798</name>
</trkpt>
<trkpt lat="49.301857" lon="9.152522">
<ele>186.5</ele>
<speed>1.0</speed>
<course>270.0</course>
<desc>Speed 1.0 km/h Distance 80.57 km</desc>
<time>2011-03-24T16:32:31.85</time>
<name>3799</name>
</trkpt>
<trkpt lat="49.301857" lon="9.152513">
<ele>187.0</ele>
<speed>1.2</speed>
<course>284.4</course>
<desc>Speed 1.2 km/h Distance 80.57 km</desc>
<time>2011-03-24T16:32:32.84</time>
<name>3800</name>
</trkpt>
<trkpt lat="49.301858" lon="9.152503">
<ele>187.0</ele>
<speed>1.0</speed>
<course>209.2</course>
<desc>Speed 1.0 km/h Distance 80.57 km</desc>
<time>2011-03-24T16:32:33.84</time>
<name>3801</name>
</trkpt>
<trkpt lat="49.301857" lon="9.152502">
<ele>186.5</ele>
<speed>0.5</speed>
<course>270.0</course>
<desc>Speed 0.5 km/h Distance 80.57 km</desc>
<time>2011-03-24T16:32:34.84</time>
<name>3802</name>
</trkpt>
<trkpt lat="49.301857" lon="9.152498">
<ele>186.5</ele>
<speed>0.6</speed>
<course>90.0</course>
<desc>Speed 0.6 km/h Distance 80.57 km</desc>
<time>2011-03-24T16:32:35.84</time>
<name>3803</name>
</trkpt>
<trkpt lat="49.301857" lon="9.152503">
<ele>186.5</ele>
<speed>1.7</speed>
<course>121.4</course>
<desc>Speed 1.7 km/h Distance 80.57 km</desc>
<time>2011-03-24T16:32:36.84</time>
<name>3804</name>
</trkpt>
<trkpt lat="49.301853" lon="9.152512">
<ele>186.5</ele>
<speed>0.3</speed>
<course>270.0</course>
<desc>Speed 0.3 km/h Distance 80.57 km</desc>
<time>2011-03-24T16:32:37.84</time>
<name>3805</name>
</trkpt>
<trkpt lat="49.301853" lon="9.152510">
<ele>186.0</ele>
<speed>0.3</speed>
<course>290.9</course>
<desc>Speed 0.3 km/h Distance 80.57 km</desc>
<time>2011-03-24T16:32:38.84</time>
<name>3806</name>
</trkpt>
<trkpt lat="49.301855" lon="9.152503">
<ele>186.0</ele>
<speed>1.0</speed>
<course>117.4</course>
<desc>Speed 1.0 km/h Distance 80.57 km</desc>
<time>2011-03-24T16:32:39.84</time>
<name>3807</name>
</trkpt>
<trkpt lat="49.301853" lon="9.152508">
<ele>186.0</ele>
<speed>0.8</speed>
<course>291.0</course>
<desc>Speed 0.8 km/h Distance 80.57 km</desc>
<time>2011-03-24T16:32:40.84</time>
<name>3808</name>
</trkpt>
<trkpt lat="49.301857" lon="9.152495">
<ele>186.5</ele>
<speed>1.0</speed>
<course>330.8</course>
<desc>Speed 1.0 km/h Distance 80.58 km</desc>
<time>2011-03-24T16:32:41.84</time>
<name>3809</name>
</trkpt>
<trkpt lat="49.301858" lon="9.152493">
<ele>186.5</ele>
<speed>1.0</speed>
<course>287.1</course>
<desc>Speed 1.0 km/h Distance 80.58 km</desc>
<time>2011-03-24T16:32:42.84</time>
<name>3810</name>
</trkpt>
<trkpt lat="49.301860" lon="9.152485">
<ele>186.5</ele>
<speed>0.8</speed>
<course>303.3</course>
<desc>Speed 0.8 km/h Distance 80.58 km</desc>
<time>2011-03-24T16:32:43.84</time>
<name>3811</name>
</trkpt>
<trkpt lat="49.301865" lon="9.152473">
<ele>186.0</ele>
<speed>0.6</speed>
<course>307.2</course>
<desc>Speed 0.6 km/h Distance 80.58 km</desc>
<time>2011-03-24T16:32:44.83</time>
<name>3812</name>
</trkpt>
<trkpt lat="49.301870" lon="9.152463">
<ele>186.0</ele>
<speed>1.5</speed>
<course>307.2</course>
<desc>Speed 1.5 km/h Distance 80.58 km</desc>
<time>2011-03-24T16:32:45.84</time>
<name>3813</name>
</trkpt>
<trkpt lat="49.301870" lon="9.152463">
<ele>186.0</ele>
<speed>0.1</speed>
<course>192.6</course>
<desc>Speed 0.1 km/h Distance 80.58 km</desc>
<time>2011-03-24T16:32:46.84</time>
<name>3814</name>
</trkpt>
<trkpt lat="49.301868" lon="9.152462">
<ele>186.0</ele>
<speed>0.4</speed>
<course>270.0</course>
<desc>Speed 0.4 km/h Distance 80.58 km</desc>
<time>2011-03-24T16:32:47.84</time>
<name>3815</name>
</trkpt>
<trkpt lat="49.301868" lon="9.152460">
<ele>186.0</ele>
<speed>0.2</speed>
<course>209.2</course>
<desc>Speed 0.2 km/h Distance 80.58 km</desc>
<time>2011-03-24T16:32:48.83</time>
<name>3816</name>
</trkpt>
<trkpt lat="49.301867" lon="9.152458">
<ele>186.0</ele>
<speed>0.5</speed>
<course>170.3</course>
<desc>Speed 0.5 km/h Distance 80.58 km</desc>
<time>2011-03-24T16:32:49.84</time>
<name>3817</name>
</trkpt>
<trkpt lat="49.301853" lon="9.152462">
<ele>188.0</ele>
<speed>5.0</speed>
<course>270.0</course>
<desc>Speed 5.0 km/h Distance 80.58 km</desc>
<time>2011-03-24T16:32:50.84</time>
<name>3818</name>
</trkpt>
<trkpt lat="49.301853" lon="9.152458">
<ele>188.5</ele>
<speed>0.3</speed>
<course>224.5</course>
<desc>Speed 0.3 km/h Distance 80.58 km</desc>
<time>2011-03-24T16:32:51.84</time>
<name>3819</name>
</trkpt>
<trkpt lat="49.301847" lon="9.152448">
<ele>189.0</ele>
<speed>3.2</speed>
<course>275.2</course>
<desc>Speed 3.2 km/h Distance 80.58 km</desc>
<time>2011-03-24T16:32:52.84</time>
<name>3820</name>
</trkpt>
<trkpt lat="49.301848" lon="9.152420">
<ele>188.0</ele>
<speed>7.8</speed>
<course>249.8</course>
<desc>Speed 7.8 km/h Distance 80.58 km</desc>
<time>2011-03-24T16:32:53.83</time>
<name>3821</name>
</trkpt>
<trkpt lat="49.301838" lon="9.152378">
<ele>188.5</ele>
<speed>9.3</speed>
<course>264.0</course>
<desc>Speed 9.3 km/h Distance 80.59 km</desc>
<time>2011-03-24T16:32:54.83</time>
<name>3822</name>
</trkpt>
<trkpt lat="49.301835" lon="9.152330">
<ele>189.0</ele>
<speed>11.2</speed>
<course>259.1</course>
<desc>Speed 11.2 km/h Distance 80.59 km</desc>
<time>2011-03-24T16:32:55.84</time>
<name>3823</name>
</trkpt>
<trkpt lat="49.301827" lon="9.152263">
<ele>189.0</ele>
<speed>17.0</speed>
<course>265.3</course>
<desc>Speed 17.0 km/h Distance 80.60 km</desc>
<time>2011-03-24T16:32:56.83</time>
<name>3824</name>
</trkpt>
<trkpt lat="49.301822" lon="9.152170">
<ele>189.5</ele>
<speed>9.9</speed>
<course>266.0</course>
<desc>Speed 9.9 km/h Distance 80.60 km</desc>
<time>2011-03-24T16:32:58.85</time>
<name>3825</name>
</trkpt>
<trkpt lat="49.301820" lon="9.152133">
<ele>190.0</ele>
<speed>8.1</speed>
<course>242.9</course>
<desc>Speed 8.1 km/h Distance 80.61 km</desc>
<time>2011-03-24T16:32:59.86</time>
<name>3826</name>
</trkpt>
<trkpt lat="49.301803" lon="9.152083">
<ele>191.0</ele>
<speed>5.6</speed>
<course>253.0</course>
<desc>Speed 5.6 km/h Distance 80.61 km</desc>
<time>2011-03-24T16:33:00.85</time>
<name>3827</name>
</trkpt>
<trkpt lat="49.301798" lon="9.152058">
<ele>191.0</ele>
<speed>5.8</speed>
<course>43.3</course>
<desc>Speed 5.8 km/h Distance 80.61 km</desc>
<time>2011-03-24T16:33:01.85</time>
<name>3828</name>
</trkpt>
<trkpt lat="49.301813" lon="9.152080">
<ele>191.5</ele>
<speed>10.3</speed>
<course>227.4</course>
<desc>Speed 10.3 km/h Distance 80.61 km</desc>
<time>2011-03-24T16:33:02.86</time>
<name>3829</name>
</trkpt>
<trkpt lat="49.301803" lon="9.152063">
<ele>191.5</ele>
<speed>0.3</speed>
<course>222.0</course>
<desc>Speed 0.3 km/h Distance 80.62 km</desc>
<time>2011-03-24T16:33:03.86</time>
<name>3830</name>
</trkpt>
<trkpt lat="49.301790" lon="9.152045">
<ele>191.5</ele>
<speed>1.7</speed>
<course>213.7</course>
<desc>Speed 1.7 km/h Distance 80.62 km</desc>
<time>2011-03-24T16:33:04.86</time>
<name>3831</name>
</trkpt>
<trkpt lat="49.301787" lon="9.152042">
<ele>191.5</ele>
<speed>0.2</speed>
<course>270.0</course>
<desc>Speed 0.2 km/h Distance 80.62 km</desc>
<time>2011-03-24T16:33:05.85</time>
<name>3832</name>
</trkpt>
<trkpt lat="49.301787" lon="9.152028">
<ele>191.5</ele>
<speed>2.3</speed>
<course>259.6</course>
<desc>Speed 2.3 km/h Distance 80.62 km</desc>
<time>2011-03-24T16:33:06.85</time>
<name>3833</name>
</trkpt>
<trkpt lat="49.301782" lon="9.151987">
<ele>191.5</ele>
<speed>11.8</speed>
<course>261.4</course>
<desc>Speed 11.8 km/h Distance 80.62 km</desc>
<time>2011-03-24T16:33:07.86</time>
<name>3834</name>
</trkpt>
<trkpt lat="49.301768" lon="9.151852">
<ele>191.5</ele>
<speed>10.8</speed>
<course>259.1</course>
<desc>Speed 10.8 km/h Distance 80.63 km</desc>
<time>2011-03-24T16:33:09.86</time>
<name>3835</name>
</trkpt>
<trkpt lat="49.301760" lon="9.151785">
<ele>191.5</ele>
<speed>17.8</speed>
<course>251.8</course>
<desc>Speed 17.8 km/h Distance 80.64 km</desc>
<time>2011-03-24T16:33:10.86</time>
<name>3836</name>
</trkpt>
<trkpt lat="49.301745" lon="9.151715">
<ele>191.5</ele>
<speed>18.0</speed>
<course>256.7</course>
<desc>Speed 18.0 km/h Distance 80.64 km</desc>
<time>2011-03-24T16:33:11.85</time>
<name>3837</name>
</trkpt>
<trkpt lat="49.301735" lon="9.151650">
<ele>192.0</ele>
<speed>18.6</speed>
<course>254.0</course>
<desc>Speed 18.6 km/h Distance 80.65 km</desc>
<time>2011-03-24T16:33:12.84</time>
<name>3838</name>
</trkpt>
<trkpt lat="49.301725" lon="9.151597">
<ele>192.0</ele>
<speed>18.6</speed>
<course>255.2</course>
<desc>Speed 18.6 km/h Distance 80.65 km</desc>
<time>2011-03-24T16:33:13.85</time>
<name>3839</name>
</trkpt>
<trkpt lat="49.301717" lon="9.151548">
<ele>192.0</ele>
<speed>18.6</speed>
<course>247.3</course>
<desc>Speed 18.6 km/h Distance 80.65 km</desc>
<time>2011-03-24T16:33:14.85</time>
<name>3840</name>
</trkpt>
<trkpt lat="49.301707" lon="9.151512">
<ele>193.0</ele>
<speed>18.6</speed>
<course>242.0</course>
<desc>Speed 18.6 km/h Distance 80.66 km</desc>
<time>2011-03-24T16:33:15.85</time>
<name>3841</name>
</trkpt>
<trkpt lat="49.301692" lon="9.151468">
<ele>194.0</ele>
<speed>18.6</speed>
<course>254.0</course>
<desc>Speed 18.6 km/h Distance 80.66 km</desc>
<time>2011-03-24T16:33:16.85</time>
<name>3842</name>
</trkpt>
<trkpt lat="49.301687" lon="9.151442">
<ele>194.0</ele>
<speed>18.6</speed>
<course>237.4</course>
<desc>Speed 18.6 km/h Distance 80.66 km</desc>
<time>2011-03-24T16:33:17.85</time>
<name>3843</name>
</trkpt>
<trkpt lat="49.301678" lon="9.151422">
<ele>194.0</ele>
<speed>18.6</speed>
<course>247.8</course>
<desc>Speed 18.6 km/h Distance 80.66 km</desc>
<time>2011-03-24T16:33:18.84</time>
<name>3844</name>
</trkpt>
<trkpt lat="49.301672" lon="9.151397">
<ele>194.0</ele>
<speed>18.6</speed>
<course>272.8</course>
<desc>Speed 18.6 km/h Distance 80.67 km</desc>
<time>2011-03-24T16:33:19.85</time>
<name>3845</name>
</trkpt>
<trkpt lat="49.301673" lon="9.151345">
<ele>194.5</ele>
<speed>18.6</speed>
<course>264.6</course>
<desc>Speed 18.6 km/h Distance 80.67 km</desc>
<time>2011-03-24T16:33:20.85</time>
<name>3846</name>
</trkpt>
<trkpt lat="49.301655" lon="9.151050">
<ele>197.0</ele>
<speed>29.7</speed>
<course>274.0</course>
<desc>Speed 29.7 km/h Distance 80.69 km</desc>
<time>2011-03-24T16:33:22.85</time>
<name>3847</name>
</trkpt>
<trkpt lat="49.301662" lon="9.150903">
<ele>198.0</ele>
<speed>29.6</speed>
<course>260.2</course>
<desc>Speed 29.6 km/h Distance 80.70 km</desc>
<time>2011-03-24T16:33:23.84</time>
<name>3848</name>
</trkpt>
<trkpt lat="49.301648" lon="9.150785">
<ele>198.0</ele>
<speed>29.6</speed>
<course>255.8</course>
<desc>Speed 29.6 km/h Distance 80.71 km</desc>
<time>2011-03-24T16:33:24.84</time>
<name>3849</name>
</trkpt>
<trkpt lat="49.301627" lon="9.150653">
<ele>198.5</ele>
<speed>32.1</speed>
<course>252.6</course>
<desc>Speed 32.1 km/h Distance 80.72 km</desc>
<time>2011-03-24T16:33:25.84</time>
<name>3850</name>
</trkpt>
<trkpt lat="49.301598" lon="9.150515">
<ele>198.5</ele>
<speed>33.2</speed>
<course>265.9</course>
<desc>Speed 33.2 km/h Distance 80.73 km</desc>
<time>2011-03-24T16:33:26.84</time>
<name>3851</name>
</trkpt>
<trkpt lat="49.301593" lon="9.150408">
<ele>197.5</ele>
<speed>33.2</speed>
<course>261.4</course>
<desc>Speed 33.2 km/h Distance 80.74 km</desc>
<time>2011-03-24T16:33:27.85</time>
<name>3852</name>
</trkpt>
<trkpt lat="49.301585" lon="9.150323">
<ele>197.0</ele>
<speed>33.2</speed>
<course>257.9</course>
<desc>Speed 33.2 km/h Distance 80.75 km</desc>
<time>2011-03-24T16:33:28.85</time>
<name>3853</name>
</trkpt>
<trkpt lat="49.301575" lon="9.150252">
<ele>197.0</ele>
<speed>33.2</speed>
<course>232.5</course>
<desc>Speed 33.2 km/h Distance 80.75 km</desc>
<time>2011-03-24T16:33:29.84</time>
<name>3854</name>
</trkpt>
<trkpt lat="49.301540" lon="9.150182">
<ele>197.0</ele>
<speed>33.2</speed>
<course>276.7</course>
<desc>Speed 33.2 km/h Distance 80.76 km</desc>
<time>2011-03-24T16:33:30.84</time>
<name>3855</name>
</trkpt>
<trkpt lat="49.301565" lon="9.149855">
<ele>192.0</ele>
<speed>38.4</speed>
<course>263.0</course>
<desc>Speed 38.4 km/h Distance 80.78 km</desc>
<time>2011-03-24T16:33:32.84</time>
<name>3856</name>
</trkpt>
<trkpt lat="49.301553" lon="9.149708">
<ele>192.0</ele>
<speed>33.9</speed>
<course>256.3</course>
<desc>Speed 33.9 km/h Distance 80.79 km</desc>
<time>2011-03-24T16:33:33.84</time>
<name>3857</name>
</trkpt>
<trkpt lat="49.301535" lon="9.149593">
<ele>191.5</ele>
<speed>29.1</speed>
<course>280.4</course>
<desc>Speed 29.1 km/h Distance 80.80 km</desc>
<time>2011-03-24T16:33:34.84</time>
<name>3858</name>
</trkpt>
<trkpt lat="49.301548" lon="9.149482">
<ele>189.5</ele>
<speed>29.1</speed>
<course>257.2</course>
<desc>Speed 29.1 km/h Distance 80.81 km</desc>
<time>2011-03-24T16:33:35.84</time>
<name>3859</name>
</trkpt>
<trkpt lat="49.301533" lon="9.149380">
<ele>189.5</ele>
<speed>21.2</speed>
<course>263.7</course>
<desc>Speed 21.2 km/h Distance 80.82 km</desc>
<time>2011-03-24T16:33:36.84</time>
<name>3860</name>
</trkpt>
<trkpt lat="49.301528" lon="9.149310">
<ele>189.5</ele>
<speed>21.2</speed>
<course>295.5</course>
<desc>Speed 21.2 km/h Distance 80.82 km</desc>
<time>2011-03-24T16:33:37.84</time>
<name>3861</name>
</trkpt>
<trkpt lat="49.301552" lon="9.149235">
<ele>189.5</ele>
<speed>17.9</speed>
<course>291.4</course>
<desc>Speed 17.9 km/h Distance 80.83 km</desc>
<time>2011-03-24T16:33:38.84</time>
<name>3862</name>
</trkpt>
<trkpt lat="49.301570" lon="9.149163">
<ele>189.0</ele>
<speed>17.9</speed>
<course>253.6</course>
<desc>Speed 17.9 km/h Distance 80.83 km</desc>
<time>2011-03-24T16:33:39.84</time>
<name>3863</name>
</trkpt>
<trkpt lat="49.301555" lon="9.149085">
<ele>189.5</ele>
<speed>17.1</speed>
<course>235.9</course>
<desc>Speed 17.1 km/h Distance 80.84 km</desc>
<time>2011-03-24T16:33:40.84</time>
<name>3864</name>
</trkpt>
<trkpt lat="49.301480" lon="9.148915">
<ele>191.5</ele>
<speed>16.9</speed>
<course>261.0</course>
<desc>Speed 16.9 km/h Distance 80.85 km</desc>
<time>2011-03-24T16:33:42.84</time>
<name>3865</name>
</trkpt>
<trkpt lat="49.301470" lon="9.148818">
<ele>192.0</ele>
<speed>21.2</speed>
<course>277.4</course>
<desc>Speed 21.2 km/h Distance 80.86 km</desc>
<time>2011-03-24T16:33:43.84</time>
<name>3866</name>
</trkpt>
<trkpt lat="49.301480" lon="9.148700">
<ele>191.5</ele>
<speed>25.2</speed>
<course>270.0</course>
<desc>Speed 25.2 km/h Distance 80.87 km</desc>
<time>2011-03-24T16:33:44.84</time>
<name>3867</name>
</trkpt>
<trkpt lat="49.301480" lon="9.148597">
<ele>193.0</ele>
<speed>25.2</speed>
<course>272.4</course>
<desc>Speed 25.2 km/h Distance 80.88 km</desc>
<time>2011-03-24T16:33:45.84</time>
<name>3868</name>
</trkpt>
<trkpt lat="49.301483" lon="9.148475">
<ele>195.0</ele>
<speed>29.1</speed>
<course>259.9</course>
<desc>Speed 29.1 km/h Distance 80.89 km</desc>
<time>2011-03-24T16:33:46.84</time>
<name>3869</name>
</trkpt>
<trkpt lat="49.301467" lon="9.148332">
<ele>195.5</ele>
<speed>32.4</speed>
<course>270.9</course>
<desc>Speed 32.4 km/h Distance 80.90 km</desc>
<time>2011-03-24T16:33:47.84</time>
<name>3870</name>
</trkpt>
<trkpt lat="49.301468" lon="9.148175">
<ele>196.0</ele>
<speed>38.4</speed>
<course>270.0</course>
<desc>Speed 38.4 km/h Distance 80.91 km</desc>
<time>2011-03-24T16:33:48.84</time>
<name>3871</name>
</trkpt>
<trkpt lat="49.301468" lon="9.148040">
<ele>196.5</ele>
<speed>38.4</speed>
<course>254.6</course>
<desc>Speed 38.4 km/h Distance 80.92 km</desc>
<time>2011-03-24T16:33:49.83</time>
<name>3872</name>
</trkpt>
<trkpt lat="49.301435" lon="9.147855">
<ele>197.0</ele>
<speed>44.4</speed>
<course>252.5</course>
<desc>Speed 44.4 km/h Distance 80.93 km</desc>
<time>2011-03-24T16:33:50.84</time>
<name>3873</name>
</trkpt>
<trkpt lat="49.301398" lon="9.147677">
<ele>197.0</ele>
<speed>42.5</speed>
<course>255.4</course>
<desc>Speed 42.5 km/h Distance 80.95 km</desc>
<time>2011-03-24T16:33:51.83</time>
<name>3874</name>
</trkpt>
<trkpt lat="49.301372" lon="9.147520">
<ele>198.5</ele>
<speed>41.4</speed>
<course>258.9</course>
<desc>Speed 41.4 km/h Distance 80.96 km</desc>
<time>2011-03-24T16:33:52.84</time>
<name>3875</name>
</trkpt>
<trkpt lat="49.301352" lon="9.147363">
<ele>198.5</ele>
<speed>41.5</speed>
<course>257.8</course>
<desc>Speed 41.5 km/h Distance 80.97 km</desc>
<time>2011-03-24T16:33:53.84</time>
<name>3876</name>
</trkpt>
<trkpt lat="49.301330" lon="9.147210">
<ele>199.0</ele>
<speed>40.3</speed>
<course>257.5</course>
<desc>Speed 40.3 km/h Distance 80.98 km</desc>
<time>2011-03-24T16:33:54.84</time>
<name>3877</name>
</trkpt>
<trkpt lat="49.301312" lon="9.147083">
<ele>199.0</ele>
<speed>40.3</speed>
<course>251.5</course>
<desc>Speed 40.3 km/h Distance 80.99 km</desc>
<time>2011-03-24T16:33:55.84</time>
<name>3878</name>
</trkpt>
<trkpt lat="49.301275" lon="9.146915">
<ele>199.5</ele>
<speed>42.9</speed>
<course>259.8</course>
<desc>Speed 42.9 km/h Distance 81.00 km</desc>
<time>2011-03-24T16:33:56.83</time>
<name>3879</name>
</trkpt>
<trkpt lat="49.301255" lon="9.146745">
<ele>199.5</ele>
<speed>44.9</speed>
<course>257.6</course>
<desc>Speed 44.9 km/h Distance 81.01 km</desc>
<time>2011-03-24T16:33:57.83</time>
<name>3880</name>
</trkpt>
<trkpt lat="49.301235" lon="9.146605">
<ele>199.5</ele>
<speed>44.9</speed>
<course>255.7</course>
<desc>Speed 44.9 km/h Distance 81.03 km</desc>
<time>2011-03-24T16:33:58.83</time>
<name>3881</name>
</trkpt>
<trkpt lat="49.301215" lon="9.146485">
<ele>199.5</ele>
<speed>44.9</speed>
<course>249.0</course>
<desc>Speed 44.9 km/h Distance 81.03 km</desc>
<time>2011-03-24T16:33:59.83</time>
<name>3882</name>
</trkpt>
<trkpt lat="49.301187" lon="9.146372">
<ele>199.5</ele>
<speed>44.9</speed>
<course>252.7</course>
<desc>Speed 44.9 km/h Distance 81.04 km</desc>
<time>2011-03-24T16:34:00.83</time>
<name>3883</name>
</trkpt>
<trkpt lat="49.301162" lon="9.146248">
<ele>200.0</ele>
<speed>44.9</speed>
<course>252.9</course>
<desc>Speed 44.9 km/h Distance 81.05 km</desc>
<time>2011-03-24T16:34:01.83</time>
<name>3884</name>
</trkpt>
<trkpt lat="49.301132" lon="9.146098">
<ele>200.0</ele>
<speed>44.9</speed>
<course>255.7</course>
<desc>Speed 44.9 km/h Distance 81.06 km</desc>
<time>2011-03-24T16:34:03.83</time>
<name>3885</name>
</trkpt>
<trkpt lat="49.301097" lon="9.145888">
<ele>199.0</ele>
<speed>49.5</speed>
<course>262.4</course>
<desc>Speed 49.5 km/h Distance 81.08 km</desc>
<time>2011-03-24T16:34:04.83</time>
<name>3886</name>
</trkpt>
<trkpt lat="49.301083" lon="9.145735">
<ele>199.0</ele>
<speed>49.5</speed>
<course>261.1</course>
<desc>Speed 49.5 km/h Distance 81.09 km</desc>
<time>2011-03-24T16:34:05.83</time>
<name>3887</name>
</trkpt>
<trkpt lat="49.301037" lon="9.145280">
<ele>194.5</ele>
<speed>45.0</speed>
<course>246.4</course>
<desc>Speed 45.0 km/h Distance 81.12 km</desc>
<time>2011-03-24T16:34:07.82</time>
<name>3888</name>
</trkpt>
<trkpt lat="49.300907" lon="9.144823">
<ele>192.5</ele>
<speed>45.5</speed>
<course>252.9</course>
<desc>Speed 45.5 km/h Distance 81.16 km</desc>
<time>2011-03-24T16:34:09.82</time>
<name>3889</name>
</trkpt>
<trkpt lat="49.300827" lon="9.144425">
<ele>191.5</ele>
<speed>48.1</speed>
<course>267.1</course>
<desc>Speed 48.1 km/h Distance 81.19 km</desc>
<time>2011-03-24T16:34:11.83</time>
<name>3890</name>
</trkpt>
<trkpt lat="49.300820" lon="9.144220">
<ele>190.0</ele>
<speed>50.1</speed>
<course>263.2</course>
<desc>Speed 50.1 km/h Distance 81.21 km</desc>
<time>2011-03-24T16:34:12.82</time>
<name>3891</name>
</trkpt>
<trkpt lat="49.300807" lon="9.144048">
<ele>188.5</ele>
<speed>50.1</speed>
<course>256.2</course>
<desc>Speed 50.1 km/h Distance 81.22 km</desc>
<time>2011-03-24T16:34:13.83</time>
<name>3892</name>
</trkpt>
<trkpt lat="49.300750" lon="9.143695">
<ele>187.0</ele>
<speed>55.2</speed>
<course>257.6</course>
<desc>Speed 55.2 km/h Distance 81.24 km</desc>
<time>2011-03-24T16:34:15.84</time>
<name>3893</name>
</trkpt>
<trkpt lat="49.300713" lon="9.143438">
<ele>186.0</ele>
<speed>64.0</speed>
<course>260.1</course>
<desc>Speed 64.0 km/h Distance 81.26 km</desc>
<time>2011-03-24T16:34:16.83</time>
<name>3894</name>
</trkpt>
<trkpt lat="49.300682" lon="9.143160">
<ele>185.0</ele>
<speed>69.7</speed>
<course>253.6</course>
<desc>Speed 69.7 km/h Distance 81.28 km</desc>
<time>2011-03-24T16:34:17.83</time>
<name>3895</name>
</trkpt>
<trkpt lat="49.300623" lon="9.142857">
<ele>185.5</ele>
<speed>71.2</speed>
<course>256.9</course>
<desc>Speed 71.2 km/h Distance 81.31 km</desc>
<time>2011-03-24T16:34:18.82</time>
<name>3896</name>
</trkpt>
<trkpt lat="49.300527" lon="9.142218">
<ele>187.5</ele>
<speed>70.1</speed>
<course>256.0</course>
<desc>Speed 70.1 km/h Distance 81.35 km</desc>
<time>2011-03-24T16:34:20.83</time>
<name>3897</name>
</trkpt>
<trkpt lat="49.300427" lon="9.141603">
<ele>191.5</ele>
<speed>72.7</speed>
<course>258.8</course>
<desc>Speed 72.7 km/h Distance 81.40 km</desc>
<time>2011-03-24T16:34:22.82</time>
<name>3898</name>
</trkpt>
<trkpt lat="49.300392" lon="9.141332">
<ele>192.5</ele>
<speed>72.7</speed>
<course>259.9</course>
<desc>Speed 72.7 km/h Distance 81.42 km</desc>
<time>2011-03-24T16:34:23.83</time>
<name>3899</name>
</trkpt>
<trkpt lat="49.300360" lon="9.141060">
<ele>193.5</ele>
<speed>72.1</speed>
<course>260.4</course>
<desc>Speed 72.1 km/h Distance 81.44 km</desc>
<time>2011-03-24T16:34:24.83</time>
<name>3900</name>
</trkpt>
<trkpt lat="49.300330" lon="9.140788">
<ele>194.5</ele>
<speed>71.7</speed>
<course>261.5</course>
<desc>Speed 71.7 km/h Distance 81.46 km</desc>
<time>2011-03-24T16:34:25.82</time>
<name>3901</name>
</trkpt>
<trkpt lat="49.300303" lon="9.140515">
<ele>195.5</ele>
<speed>71.9</speed>
<course>262.2</course>
<desc>Speed 71.9 km/h Distance 81.48 km</desc>
<time>2011-03-24T16:34:26.83</time>
<name>3902</name>
</trkpt>
<trkpt lat="49.300278" lon="9.140237">
<ele>196.5</ele>
<speed>71.4</speed>
<course>263.4</course>
<desc>Speed 71.4 km/h Distance 81.50 km</desc>
<time>2011-03-24T16:34:27.83</time>
<name>3903</name>
</trkpt>
<trkpt lat="49.300257" lon="9.139952">
<ele>196.5</ele>
<speed>72.7</speed>
<course>264.6</course>
<desc>Speed 72.7 km/h Distance 81.52 km</desc>
<time>2011-03-24T16:34:28.83</time>
<name>3904</name>
</trkpt>
<trkpt lat="49.300238" lon="9.139657">
<ele>197.0</ele>
<speed>72.6</speed>
<course>267.4</course>
<desc>Speed 72.6 km/h Distance 81.54 km</desc>
<time>2011-03-24T16:34:29.83</time>
<name>3905</name>
</trkpt>
<trkpt lat="49.300230" lon="9.139370">
<ele>197.0</ele>
<speed>72.9</speed>
<course>269.5</course>
<desc>Speed 72.9 km/h Distance 81.56 km</desc>
<time>2011-03-24T16:34:30.83</time>
<name>3906</name>
</trkpt>
<trkpt lat="49.300228" lon="9.139085">
<ele>197.5</ele>
<speed>73.9</speed>
<course>270.5</course>
<desc>Speed 73.9 km/h Distance 81.58 km</desc>
<time>2011-03-24T16:34:31.83</time>
<name>3907</name>
</trkpt>
<trkpt lat="49.300230" lon="9.138798">
<ele>198.0</ele>
<speed>74.0</speed>
<course>272.6</course>
<desc>Speed 74.0 km/h Distance 81.61 km</desc>
<time>2011-03-24T16:34:32.83</time>
<name>3908</name>
</trkpt>
<trkpt lat="49.300238" lon="9.138512">
<ele>199.5</ele>
<speed>74.1</speed>
<course>272.4</course>
<desc>Speed 74.1 km/h Distance 81.63 km</desc>
<time>2011-03-24T16:34:33.82</time>
<name>3909</name>
</trkpt>
<trkpt lat="49.300247" lon="9.138207">
<ele>200.0</ele>
<speed>80.3</speed>
<course>277.0</course>
<desc>Speed 80.3 km/h Distance 81.65 km</desc>
<time>2011-03-24T16:34:34.82</time>
<name>3910</name>
</trkpt>
<trkpt lat="49.300272" lon="9.137893">
<ele>200.5</ele>
<speed>81.4</speed>
<course>275.7</course>
<desc>Speed 81.4 km/h Distance 81.67 km</desc>
<time>2011-03-24T16:34:35.83</time>
<name>3911</name>
</trkpt>
<trkpt lat="49.300295" lon="9.137537">
<ele>200.5</ele>
<speed>92.9</speed>
<course>278.2</course>
<desc>Speed 92.9 km/h Distance 81.70 km</desc>
<time>2011-03-24T16:34:36.83</time>
<name>3912</name>
</trkpt>
<trkpt lat="49.300330" lon="9.137165">
<ele>200.5</ele>
<speed>97.7</speed>
<course>276.2</course>
<desc>Speed 97.7 km/h Distance 81.72 km</desc>
<time>2011-03-24T16:34:37.83</time>
<name>3913</name>
</trkpt>
<trkpt lat="49.300358" lon="9.136765">
<ele>201.0</ele>
<speed>100.0</speed>
<course>276.7</course>
<desc>Speed 100.0 km/h Distance 81.75 km</desc>
<time>2011-03-24T16:34:38.82</time>
<name>3914</name>
</trkpt>
<trkpt lat="49.300390" lon="9.136350">
<ele>202.0</ele>
<speed>105</speed>
<course>277.2</course>
<desc>Speed 105 km/h Distance 81.78 km</desc>
<time>2011-03-24T16:34:39.83</time>
<name>3915</name>
</trkpt>
<trkpt lat="49.300425" lon="9.135927">
<ele>202.0</ele>
<speed>110</speed>
<course>283.4</course>
<desc>Speed 110 km/h Distance 81.82 km</desc>
<time>2011-03-24T16:34:40.82</time>
<name>3916</name>
</trkpt>
<trkpt lat="49.300488" lon="9.135518">
<ele>202.5</ele>
<speed>109</speed>
<course>284.4</course>
<desc>Speed 109 km/h Distance 81.85 km</desc>
<time>2011-03-24T16:34:41.82</time>
<name>3917</name>
</trkpt>
<trkpt lat="49.300588" lon="9.134920">
<ele>204.0</ele>
<speed>109</speed>
<course>273.8</course>
<desc>Speed 109 km/h Distance 81.89 km</desc>
<time>2011-03-24T16:34:43.82</time>
<name>3918</name>
</trkpt>
<trkpt lat="49.300608" lon="9.134457">
<ele>204.0</ele>
<speed>115</speed>
<course>278.3</course>
<desc>Speed 115 km/h Distance 81.92 km</desc>
<time>2011-03-24T16:34:44.82</time>
<name>3919</name>
</trkpt>
<trkpt lat="49.300648" lon="9.134035">
<ele>204.5</ele>
<speed>111</speed>
<course>264.7</course>
<desc>Speed 111 km/h Distance 81.96 km</desc>
<time>2011-03-24T16:34:45.82</time>
<name>3920</name>
</trkpt>
<trkpt lat="49.300620" lon="9.133563">
<ele>205.0</ele>
<speed>116</speed>
<course>265.0</course>
<desc>Speed 116 km/h Distance 81.99 km</desc>
<time>2011-03-24T16:34:46.82</time>
<name>3921</name>
</trkpt>
<trkpt lat="49.300595" lon="9.133123">
<ele>204.5</ele>
<speed>114</speed>
<course>263.4</course>
<desc>Speed 114 km/h Distance 82.02 km</desc>
<time>2011-03-24T16:34:47.82</time>
<name>3922</name>
</trkpt>
<trkpt lat="49.300545" lon="9.132463">
<ele>204.5</ele>
<speed>114</speed>
<course>256.1</course>
<desc>Speed 114 km/h Distance 82.07 km</desc>
<time>2011-03-24T16:34:49.82</time>
<name>3923</name>
</trkpt>
<trkpt lat="49.300323" lon="9.131093">
<ele>197.5</ele>
<speed>115</speed>
<course>240.6</course>
<desc>Speed 115 km/h Distance 82.17 km</desc>
<time>2011-03-24T16:34:54.82</time>
<name>3924</name>
</trkpt>
<trkpt lat="49.299973" lon="9.130142">
<ele>198.5</ele>
<speed>115</speed>
<course>235.3</course>
<desc>Speed 115 km/h Distance 82.25 km</desc>
<time>2011-03-24T16:34:56.81</time>
<name>3925</name>
</trkpt>
<trkpt lat="49.299628" lon="9.129377">
<ele>197.5</ele>
<speed>104</speed>
<course>227.2</course>
<desc>Speed 104 km/h Distance 82.32 km</desc>
<time>2011-03-24T16:34:58.81</time>
<name>3926</name>
</trkpt>
<trkpt lat="49.299455" lon="9.129090">
<ele>195.5</ele>
<speed>95.5</speed>
<course>216.6</course>
<desc>Speed 95.5 km/h Distance 82.35 km</desc>
<time>2011-03-24T16:34:59.81</time>
<name>3927</name>
</trkpt>
<trkpt lat="49.299017" lon="9.128590">
<ele>200.0</ele>
<speed>104</speed>
<course>214.0</course>
<desc>Speed 104 km/h Distance 82.41 km</desc>
<time>2011-03-24T16:35:01.82</time>
<name>3928</name>
</trkpt>
<trkpt lat="49.298778" lon="9.128343">
<ele>201.0</ele>
<speed>112</speed>
<course>215.0</course>
<desc>Speed 112 km/h Distance 82.44 km</desc>
<time>2011-03-24T16:35:02.82</time>
<name>3929</name>
</trkpt>
<trkpt lat="49.298573" lon="9.128123">
<ele>201.0</ele>
<speed>112</speed>
<course>201.4</course>
<desc>Speed 112 km/h Distance 82.47 km</desc>
<time>2011-03-24T16:35:03.81</time>
<name>3930</name>
</trkpt>
<trkpt lat="49.298060" lon="9.127815">
<ele>205.5</ele>
<speed>113</speed>
<course>202.5</course>
<desc>Speed 113 km/h Distance 82.53 km</desc>
<time>2011-03-24T16:35:05.81</time>
<name>3931</name>
</trkpt>
<trkpt lat="49.297482" lon="9.127448">
<ele>206.0</ele>
<speed>115</speed>
<course>200.1</course>
<desc>Speed 115 km/h Distance 82.60 km</desc>
<time>2011-03-24T16:35:07.81</time>
<name>3932</name>
</trkpt>
<trkpt lat="49.297197" lon="9.127288">
<ele>205.5</ele>
<speed>116</speed>
<course>201.3</course>
<desc>Speed 116 km/h Distance 82.63 km</desc>
<time>2011-03-24T16:35:08.80</time>
<name>3933</name>
</trkpt>
<trkpt lat="49.296902" lon="9.127112">
<ele>206.0</ele>
<speed>120</speed>
<course>199.2</course>
<desc>Speed 120 km/h Distance 82.67 km</desc>
<time>2011-03-24T16:35:09.80</time>
<name>3934</name>
</trkpt>
<trkpt lat="49.296593" lon="9.126947">
<ele>207.5</ele>
<speed>116</speed>
<course>207.7</course>
<desc>Speed 116 km/h Distance 82.70 km</desc>
<time>2011-03-24T16:35:10.81</time>
<name>3935</name>
</trkpt>
<trkpt lat="49.295640" lon="9.126180">
<ele>231.0</ele>
<speed>117</speed>
<course>207.4</course>
<desc>Speed 117 km/h Distance 82.82 km</desc>
<time>2011-03-24T16:35:13.80</time>
<name>3936</name>
</trkpt>
<trkpt lat="49.295068" lon="9.125725">
<ele>238.5</ele>
<speed>117</speed>
<course>222.3</course>
<desc>Speed 117 km/h Distance 82.90 km</desc>
<time>2011-03-24T16:35:17.80</time>
<name>3937</name>
</trkpt>
<trkpt lat="49.294500" lon="9.124933">
<ele>249.5</ele>
<speed>117</speed>
<course>208.8</course>
<desc>Speed 117 km/h Distance 82.98 km</desc>
<time>2011-03-24T16:35:23.80</time>
<name>3938</name>
</trkpt>
<trkpt lat="49.294168" lon="9.124653">
<ele>250.0</ele>
<speed>117</speed>
<course>270.1</course>
<desc>Speed 117 km/h Distance 83.02 km</desc>
<time>2011-03-24T16:35:26.80</time>
<name>3939</name>
</trkpt>
<trkpt lat="49.294170" lon="9.123663">
<ele>251.0</ele>
<speed>117</speed>
<course>235.2</course>
<desc>Speed 117 km/h Distance 83.10 km</desc>
<time>2011-03-24T16:35:28.80</time>
<name>3940</name>
</trkpt>
<trkpt lat="49.292815" lon="9.120673">
<ele>254.0</ele>
<speed>96.1</speed>
<course>257.4</course>
<desc>Speed 96.1 km/h Distance 83.36 km</desc>
<time>2011-03-24T16:35:31.79</time>
<name>3941</name>
</trkpt>
<trkpt lat="49.292688" lon="9.119805">
<ele>254.5</ele>
<speed>96.1</speed>
<course>272.5</course>
<desc>Speed 96.1 km/h Distance 83.42 km</desc>
<time>2011-03-24T16:35:33.80</time>
<name>3942</name>
</trkpt>
<trkpt lat="49.292715" lon="9.118883">
<ele>257.5</ele>
<speed>99.9</speed>
<course>265.6</course>
<desc>Speed 99.9 km/h Distance 83.49 km</desc>
<time>2011-03-24T16:35:35.79</time>
<name>3943</name>
</trkpt>
<trkpt lat="49.292673" lon="9.118057">
<ele>257.5</ele>
<speed>94.8</speed>
<course>267.5</course>
<desc>Speed 94.8 km/h Distance 83.55 km</desc>
<time>2011-03-24T16:35:37.80</time>
<name>3944</name>
</trkpt>
<trkpt lat="49.292663" lon="9.117698">
<ele>260.5</ele>
<speed>93.3</speed>
<course>273.5</course>
<desc>Speed 93.3 km/h Distance 83.58 km</desc>
<time>2011-03-24T16:35:38.79</time>
<name>3945</name>
</trkpt>
<trkpt lat="49.292678" lon="9.117323">
<ele>262.0</ele>
<speed>93.6</speed>
<course>273.0</course>
<desc>Speed 93.6 km/h Distance 83.61 km</desc>
<time>2011-03-24T16:35:39.79</time>
<name>3946</name>
</trkpt>
<trkpt lat="49.292692" lon="9.116932">
<ele>262.5</ele>
<speed>95.0</speed>
<course>270.0</course>
<desc>Speed 95.0 km/h Distance 83.63 km</desc>
<time>2011-03-24T16:35:40.79</time>
<name>3947</name>
</trkpt>
<trkpt lat="49.292692" lon="9.116588">
<ele>263.5</ele>
<speed>95.0</speed>
<course>268.9</course>
<desc>Speed 95.0 km/h Distance 83.66 km</desc>
<time>2011-03-24T16:35:41.79</time>
<name>3948</name>
</trkpt>
<trkpt lat="49.292683" lon="9.115893">
<ele>272.0</ele>
<speed>105</speed>
<course>270.0</course>
<desc>Speed 105 km/h Distance 83.71 km</desc>
<time>2011-03-24T16:35:43.79</time>
<name>3949</name>
</trkpt>
<trkpt lat="49.292683" lon="9.115448">
<ele>274.5</ele>
<speed>107</speed>
<course>271.2</course>
<desc>Speed 107 km/h Distance 83.74 km</desc>
<time>2011-03-24T16:35:44.78</time>
<name>3950</name>
</trkpt>
<trkpt lat="49.292688" lon="9.115073">
<ele>276.5</ele>
<speed>107</speed>
<course>279.6</course>
<desc>Speed 107 km/h Distance 83.77 km</desc>
<time>2011-03-24T16:35:45.79</time>
<name>3951</name>
</trkpt>
<trkpt lat="49.292798" lon="9.114080">
<ele>278.0</ele>
<speed>124</speed>
<course>275.8</course>
<desc>Speed 124 km/h Distance 83.84 km</desc>
<time>2011-03-24T16:35:48.78</time>
<name>3952</name>
</trkpt>
<trkpt lat="49.292872" lon="9.112965">
<ele>278.5</ele>
<speed>127</speed>
<course>277.9</course>
<desc>Speed 127 km/h Distance 83.92 km</desc>
<time>2011-03-24T16:35:50.78</time>
<name>3953</name>
</trkpt>
<trkpt lat="49.292960" lon="9.111995">
<ele>279.5</ele>
<speed>134</speed>
<course>278.7</course>
<desc>Speed 134 km/h Distance 83.99 km</desc>
<time>2011-03-24T16:35:52.78</time>
<name>3954</name>
</trkpt>
<trkpt lat="49.293050" lon="9.111092">
<ele>283.0</ele>
<speed>128</speed>
<course>276.8</course>
<desc>Speed 128 km/h Distance 84.06 km</desc>
<time>2011-03-24T16:35:54.78</time>
<name>3955</name>
</trkpt>
<trkpt lat="49.293133" lon="9.110025">
<ele>293.0</ele>
<speed>126</speed>
<course>280.9</course>
<desc>Speed 126 km/h Distance 84.14 km</desc>
<time>2011-03-24T16:35:56.78</time>
<name>3956</name>
</trkpt>
<trkpt lat="49.293277" lon="9.108888">
<ele>313.0</ele>
<speed>125</speed>
<course>274.4</course>
<desc>Speed 125 km/h Distance 84.22 km</desc>
<time>2011-03-24T16:35:58.77</time>
<name>3957</name>
</trkpt>
<trkpt lat="49.293330" lon="9.107818">
<ele>317.0</ele>
<speed>125</speed>
<course>274.1</course>
<desc>Speed 125 km/h Distance 84.30 km</desc>
<time>2011-03-24T16:36:00.77</time>
<name>3958</name>
</trkpt>
<trkpt lat="49.293353" lon="9.107320">
<ele>319.5</ele>
<speed>128</speed>
<course>273.5</course>
<desc>Speed 128 km/h Distance 84.34 km</desc>
<time>2011-03-24T16:36:01.77</time>
<name>3959</name>
</trkpt>
<trkpt lat="49.293373" lon="9.106818">
<ele>321.5</ele>
<speed>128</speed>
<course>268.8</course>
<desc>Speed 128 km/h Distance 84.37 km</desc>
<time>2011-03-24T16:36:02.77</time>
<name>3960</name>
</trkpt>
<trkpt lat="49.293367" lon="9.106310">
<ele>322.5</ele>
<speed>127</speed>
<course>267.9</course>
<desc>Speed 127 km/h Distance 84.41 km</desc>
<time>2011-03-24T16:36:03.78</time>
<name>3961</name>
</trkpt>
<trkpt lat="49.293355" lon="9.105812">
<ele>322.5</ele>
<speed>127</speed>
<course>264.1</course>
<desc>Speed 127 km/h Distance 84.45 km</desc>
<time>2011-03-24T16:36:04.78</time>
<name>3962</name>
</trkpt>
<trkpt lat="49.293322" lon="9.105317">
<ele>323.5</ele>
<speed>128</speed>
<course>264.9</course>
<desc>Speed 128 km/h Distance 84.48 km</desc>
<time>2011-03-24T16:36:05.78</time>
<name>3963</name>
</trkpt>
<trkpt lat="49.293295" lon="9.104862">
<ele>324.0</ele>
<speed>117</speed>
<course>257.6</course>
<desc>Speed 117 km/h Distance 84.52 km</desc>
<time>2011-03-24T16:36:06.78</time>
<name>3964</name>
</trkpt>
<trkpt lat="49.293237" lon="9.104453">
<ele>324.5</ele>
<speed>106</speed>
<course>257.0</course>
<desc>Speed 106 km/h Distance 84.55 km</desc>
<time>2011-03-24T16:36:07.77</time>
<name>3965</name>
</trkpt>
<trkpt lat="49.293150" lon="9.103877">
<ele>324.5</ele>
<speed>106</speed>
<course>283.6</course>
<desc>Speed 106 km/h Distance 84.59 km</desc>
<time>2011-03-24T16:36:09.77</time>
<name>3966</name>
</trkpt>
<trkpt lat="49.293218" lon="9.103445">
<ele>326.5</ele>
<speed>111</speed>
<course>291.6</course>
<desc>Speed 111 km/h Distance 84.62 km</desc>
<time>2011-03-24T16:36:10.77</time>
<name>3967</name>
</trkpt>
<trkpt lat="49.293332" lon="9.103007">
<ele>330.0</ele>
<speed>111</speed>
<course>298.2</course>
<desc>Speed 111 km/h Distance 84.66 km</desc>
<time>2011-03-24T16:36:11.77</time>
<name>3968</name>
</trkpt>
<trkpt lat="49.293462" lon="9.102635">
<ele>334.5</ele>
<speed>100</speed>
<course>294.9</course>
<desc>Speed 100 km/h Distance 84.69 km</desc>
<time>2011-03-24T16:36:12.77</time>
<name>3969</name>
</trkpt>
<trkpt lat="49.293553" lon="9.102332">
<ele>336.0</ele>
<speed>100</speed>
<course>286.5</course>
<desc>Speed 100 km/h Distance 84.71 km</desc>
<time>2011-03-24T16:36:13.77</time>
<name>3970</name>
</trkpt>
<trkpt lat="49.293678" lon="9.101685">
<ele>333.5</ele>
<speed>100</speed>
<course>270.0</course>
<desc>Speed 100 km/h Distance 84.76 km</desc>
<time>2011-03-24T16:36:16.77</time>
<name>3971</name>
</trkpt>
<trkpt lat="49.293678" lon="9.100780">
<ele>331.0</ele>
<speed>98.5</speed>
<course>268.0</course>
<desc>Speed 98.5 km/h Distance 84.83 km</desc>
<time>2011-03-24T16:36:18.77</time>
<name>3972</name>
</trkpt>
<trkpt lat="49.293670" lon="9.100417">
<ele>331.5</ele>
<speed>91.3</speed>
<course>273.4</course>
<desc>Speed 91.3 km/h Distance 84.85 km</desc>
<time>2011-03-24T16:36:19.77</time>
<name>3973</name>
</trkpt>
<trkpt lat="49.293685" lon="9.100025">
<ele>332.5</ele>
<speed>98.1</speed>
<course>277.1</course>
<desc>Speed 98.1 km/h Distance 84.88 km</desc>
<time>2011-03-24T16:36:20.77</time>
<name>3974</name>
</trkpt>
<trkpt lat="49.293737" lon="9.099387">
<ele>331.0</ele>
<speed>77.6</speed>
<course>292.2</course>
<desc>Speed 77.6 km/h Distance 84.93 km</desc>
<time>2011-03-24T16:36:22.77</time>
<name>3975</name>
</trkpt>
<trkpt lat="49.293812" lon="9.099105">
<ele>333.5</ele>
<speed>74.9</speed>
<course>297.2</course>
<desc>Speed 74.9 km/h Distance 84.95 km</desc>
<time>2011-03-24T16:36:23.77</time>
<name>3976</name>
</trkpt>
<trkpt lat="49.293908" lon="9.098817">
<ele>332.5</ele>
<speed>84.1</speed>
<course>310.4</course>
<desc>Speed 84.1 km/h Distance 84.97 km</desc>
<time>2011-03-24T16:36:24.77</time>
<name>3977</name>
</trkpt>
<trkpt lat="49.294042" lon="9.098577">
<ele>332.5</ele>
<speed>80.7</speed>
<course>297.9</course>
<desc>Speed 80.7 km/h Distance 85.00 km</desc>
<time>2011-03-24T16:36:25.76</time>
<name>3978</name>
</trkpt>
<trkpt lat="49.294123" lon="9.098340">
<ele>331.5</ele>
<speed>80.7</speed>
<course>290.5</course>
<desc>Speed 80.7 km/h Distance 85.01 km</desc>
<time>2011-03-24T16:36:26.77</time>
<name>3979</name>
</trkpt>
<trkpt lat="49.294243" lon="9.097848">
<ele>328.5</ele>
<speed>63.1</speed>
<course>286.8</course>
<desc>Speed 63.1 km/h Distance 85.05 km</desc>
<time>2011-03-24T16:36:28.77</time>
<name>3980</name>
</trkpt>
<trkpt lat="49.294333" lon="9.097392">
<ele>327.0</ele>
<speed>75.7</speed>
<course>278.5</course>
<desc>Speed 75.7 km/h Distance 85.09 km</desc>
<time>2011-03-24T16:36:30.76</time>
<name>3981</name>
</trkpt>
<trkpt lat="49.294357" lon="9.097152">
<ele>327.0</ele>
<speed>75.7</speed>
<course>269.4</course>
<desc>Speed 75.7 km/h Distance 85.11 km</desc>
<time>2011-03-24T16:36:31.77</time>
<name>3982</name>
</trkpt>
<trkpt lat="49.294352" lon="9.096435">
<ele>327.5</ele>
<speed>92.2</speed>
<course>257.9</course>
<desc>Speed 92.2 km/h Distance 85.16 km</desc>
<time>2011-03-24T16:36:33.76</time>
<name>3983</name>
</trkpt>
<trkpt lat="49.294303" lon="9.096088">
<ele>328.5</ele>
<speed>92.2</speed>
<course>258.9</course>
<desc>Speed 92.2 km/h Distance 85.18 km</desc>
<time>2011-03-24T16:36:34.76</time>
<name>3984</name>
</trkpt>
<trkpt lat="49.294228" lon="9.095500">
<ele>328.5</ele>
<speed>92.2</speed>
<course>246.0</course>
<desc>Speed 92.2 km/h Distance 85.23 km</desc>
<time>2011-03-24T16:36:37.76</time>
<name>3985</name>
</trkpt>
<trkpt lat="49.293828" lon="9.094120">
<ele>324.5</ele>
<speed>104</speed>
<course>244.8</course>
<desc>Speed 104 km/h Distance 85.34 km</desc>
<time>2011-03-24T16:36:40.75</time>
<name>3986</name>
</trkpt>
<trkpt lat="49.293712" lon="9.093740">
<ele>325.0</ele>
<speed>100</speed>
<course>238.1</course>
<desc>Speed 100 km/h Distance 85.37 km</desc>
<time>2011-03-24T16:36:41.76</time>
<name>3987</name>
</trkpt>
<trkpt lat="49.293582" lon="9.093420">
<ele>325.5</ele>
<speed>96.2</speed>
<course>235.9</course>
<desc>Speed 96.2 km/h Distance 85.39 km</desc>
<time>2011-03-24T16:36:42.76</time>
<name>3988</name>
</trkpt>
<trkpt lat="49.293457" lon="9.093137">
<ele>327.0</ele>
<speed>96.2</speed>
<course>238.7</course>
<desc>Speed 96.2 km/h Distance 85.42 km</desc>
<time>2011-03-24T16:36:43.76</time>
<name>3989</name>
</trkpt>
<trkpt lat="49.293182" lon="9.092443">
<ele>329.0</ele>
<speed>96.2</speed>
<course>233.0</course>
<desc>Speed 96.2 km/h Distance 85.48 km</desc>
<time>2011-03-24T16:36:46.75</time>
<name>3990</name>
</trkpt>
<trkpt lat="49.293047" lon="9.092168">
<ele>333.0</ele>
<speed>96.2</speed>
<course>230.5</course>
<desc>Speed 96.2 km/h Distance 85.50 km</desc>
<time>2011-03-24T16:36:47.76</time>
<name>3991</name>
</trkpt>
<trkpt lat="49.292872" lon="9.091843">
<ele>332.5</ele>
<speed>92.6</speed>
<course>222.4</course>
<desc>Speed 92.6 km/h Distance 85.53 km</desc>
<time>2011-03-24T16:36:48.76</time>
<name>3992</name>
</trkpt>
<trkpt lat="49.292680" lon="9.091575">
<ele>331.0</ele>
<speed>85.3</speed>
<course>220.0</course>
<desc>Speed 85.3 km/h Distance 85.56 km</desc>
<time>2011-03-24T16:36:49.76</time>
<name>3993</name>
</trkpt>
<trkpt lat="49.292518" lon="9.091367">
<ele>332.0</ele>
<speed>79.4</speed>
<course>227.3</course>
<desc>Speed 79.4 km/h Distance 85.59 km</desc>
<time>2011-03-24T16:36:50.76</time>
<name>3994</name>
</trkpt>
<trkpt lat="49.292213" lon="9.090860">
<ele>339.0</ele>
<speed>71.1</speed>
<course>230.5</course>
<desc>Speed 71.1 km/h Distance 85.64 km</desc>
<time>2011-03-24T16:36:52.75</time>
<name>3995</name>
</trkpt>
<trkpt lat="49.292080" lon="9.090612">
<ele>340.0</ele>
<speed>71.1</speed>
<course>240.8</course>
<desc>Speed 71.1 km/h Distance 85.66 km</desc>
<time>2011-03-24T16:36:53.75</time>
<name>3996</name>
</trkpt>
<trkpt lat="49.292008" lon="9.090415">
<ele>342.0</ele>
<speed>71.1</speed>
<course>244.7</course>
<desc>Speed 71.1 km/h Distance 85.68 km</desc>
<time>2011-03-24T16:36:54.76</time>
<name>3997</name>
</trkpt>
<trkpt lat="49.291903" lon="9.090075">
<ele>346.5</ele>
<speed>71.1</speed>
<course>260.3</course>
<desc>Speed 71.1 km/h Distance 85.70 km</desc>
<time>2011-03-24T16:36:56.74</time>
<name>3998</name>
</trkpt>
<trkpt lat="49.291855" lon="9.089642">
<ele>349.5</ele>
<speed>71.1</speed>
<course>247.5</course>
<desc>Speed 71.1 km/h Distance 85.73 km</desc>
<time>2011-03-24T16:37:00.75</time>
<name>3999</name>
</trkpt>
<trkpt lat="49.291787" lon="9.089388">
<ele>351.0</ele>
<speed>62.8</speed>
<course>256.1</course>
<desc>Speed 62.8 km/h Distance 85.75 km</desc>
<time>2011-03-24T16:37:01.75</time>
<name>4000</name>
</trkpt>
<trkpt lat="49.291685" lon="9.088758">
<ele>349.0</ele>
<speed>48.2</speed>
<course>269.2</course>
<desc>Speed 48.2 km/h Distance 85.80 km</desc>
<time>2011-03-24T16:37:03.75</time>
<name>4001</name>
</trkpt>
<trkpt lat="49.291680" lon="9.088203">
<ele>352.5</ele>
<speed>45.0</speed>
<course>286.7</course>
<desc>Speed 45.0 km/h Distance 85.84 km</desc>
<time>2011-03-24T16:37:05.76</time>
<name>4002</name>
</trkpt>
<trkpt lat="49.291760" lon="9.087793">
<ele>351.5</ele>
<speed>56.4</speed>
<course>345.4</course>
<desc>Speed 56.4 km/h Distance 85.87 km</desc>
<time>2011-03-24T16:37:07.74</time>
<name>4003</name>
</trkpt>
<trkpt lat="49.291902" lon="9.087737">
<ele>350.5</ele>
<speed>50.3</speed>
<course>308.1</course>
<desc>Speed 50.3 km/h Distance 85.89 km</desc>
<time>2011-03-24T16:37:08.74</time>
<name>4004</name>
</trkpt>
<trkpt lat="49.291973" lon="9.087597">
<ele>349.5</ele>
<speed>37.3</speed>
<course>253.4</course>
<desc>Speed 37.3 km/h Distance 85.90 km</desc>
<time>2011-03-24T16:37:09.74</time>
<name>4005</name>
</trkpt>
<trkpt lat="49.291815" lon="9.086783">
<ele>352.0</ele>
<speed>52.6</speed>
<course>250.6</course>
<desc>Speed 52.6 km/h Distance 85.96 km</desc>
<time>2011-03-24T16:37:12.74</time>
<name>4006</name>
</trkpt>
<trkpt lat="49.291688" lon="9.086233">
<ele>353.0</ele>
<speed>52.3</speed>
<course>252.6</course>
<desc>Speed 52.3 km/h Distance 86.01 km</desc>
<time>2011-03-24T16:37:14.73</time>
<name>4007</name>
</trkpt>
<trkpt lat="49.291647" lon="9.086030">
<ele>353.0</ele>
<speed>49.5</speed>
<course>258.2</course>
<desc>Speed 49.5 km/h Distance 86.02 km</desc>
<time>2011-03-24T16:37:15.73</time>
<name>4008</name>
</trkpt>
<trkpt lat="49.291618" lon="9.085822">
<ele>353.0</ele>
<speed>47.4</speed>
<course>254.2</course>
<desc>Speed 47.4 km/h Distance 86.04 km</desc>
<time>2011-03-24T16:37:16.74</time>
<name>4009</name>
</trkpt>
<trkpt lat="49.291580" lon="9.085613">
<ele>353.0</ele>
<speed>46.8</speed>
<course>281.7</course>
<desc>Speed 46.8 km/h Distance 86.05 km</desc>
<time>2011-03-24T16:37:17.73</time>
<name>4010</name>
</trkpt>
<trkpt lat="49.291610" lon="9.085392">
<ele>352.0</ele>
<speed>44.5</speed>
<course>256.3</course>
<desc>Speed 44.5 km/h Distance 86.07 km</desc>
<time>2011-03-24T16:37:18.73</time>
<name>4011</name>
</trkpt>
<trkpt lat="49.291585" lon="9.085235">
<ele>352.0</ele>
<speed>44.5</speed>
<course>253.2</course>
<desc>Speed 44.5 km/h Distance 86.08 km</desc>
<time>2011-03-24T16:37:19.74</time>
<name>4012</name>
</trkpt>
<trkpt lat="49.291500" lon="9.084803">
<ele>351.5</ele>
<speed>49.9</speed>
<course>260.3</course>
<desc>Speed 49.9 km/h Distance 86.11 km</desc>
<time>2011-03-24T16:37:21.73</time>
<name>4013</name>
</trkpt>
<trkpt lat="49.291478" lon="9.084608">
<ele>351.5</ele>
<speed>51.1</speed>
<course>255.8</course>
<desc>Speed 51.1 km/h Distance 86.13 km</desc>
<time>2011-03-24T16:37:22.73</time>
<name>4014</name>
</trkpt>
<trkpt lat="49.291452" lon="9.084447">
<ele>351.5</ele>
<speed>51.1</speed>
<course>257.8</course>
<desc>Speed 51.1 km/h Distance 86.14 km</desc>
<time>2011-03-24T16:37:23.73</time>
<name>4015</name>
</trkpt>
<trkpt lat="49.291418" lon="9.084210">
<ele>351.5</ele>
<speed>51.1</speed>
<course>242.9</course>
<desc>Speed 51.1 km/h Distance 86.16 km</desc>
<time>2011-03-24T16:37:25.73</time>
<name>4016</name>
</trkpt>
<trkpt lat="49.291362" lon="9.084040">
<ele>351.0</ele>
<speed>45.8</speed>
<course>242.0</course>
<desc>Speed 45.8 km/h Distance 86.17 km</desc>
<time>2011-03-24T16:37:26.73</time>
<name>4017</name>
</trkpt>
<trkpt lat="49.291317" lon="9.083910">
<ele>351.0</ele>
<speed>45.8</speed>
<course>239.2</course>
<desc>Speed 45.8 km/h Distance 86.18 km</desc>
<time>2011-03-24T16:37:27.73</time>
<name>4018</name>
</trkpt>
<trkpt lat="49.291270" lon="9.083790">
<ele>350.5</ele>
<speed>45.8</speed>
<course>253.7</course>
<desc>Speed 45.8 km/h Distance 86.19 km</desc>
<time>2011-03-24T16:37:28.73</time>
<name>4019</name>
</trkpt>
<trkpt lat="49.291223" lon="9.083545">
<ele>351.5</ele>
<speed>35.4</speed>
<course>235.8</course>
<desc>Speed 35.4 km/h Distance 86.21 km</desc>
<time>2011-03-24T16:37:30.72</time>
<name>4020</name>
</trkpt>
<trkpt lat="49.291178" lon="9.083443">
<ele>351.5</ele>
<speed>35.4</speed>
<course>244.9</course>
<desc>Speed 35.4 km/h Distance 86.22 km</desc>
<time>2011-03-24T16:37:31.73</time>
<name>4021</name>
</trkpt>
<trkpt lat="49.291080" lon="9.083122">
<ele>352.5</ele>
<speed>32.7</speed>
<course>251.6</course>
<desc>Speed 32.7 km/h Distance 86.25 km</desc>
<time>2011-03-24T16:37:33.72</time>
<name>4022</name>
</trkpt>
<trkpt lat="49.291047" lon="9.082968">
<ele>354.5</ele>
<speed>37.9</speed>
<course>251.1</course>
<desc>Speed 37.9 km/h Distance 86.26 km</desc>
<time>2011-03-24T16:37:34.73</time>
<name>4023</name>
</trkpt>
<trkpt lat="49.291012" lon="9.082812">
<ele>354.5</ele>
<speed>38.4</speed>
<course>249.4</course>
<desc>Speed 38.4 km/h Distance 86.27 km</desc>
<time>2011-03-24T16:37:35.72</time>
<name>4024</name>
</trkpt>
<trkpt lat="49.290970" lon="9.082642">
<ele>352.5</ele>
<speed>36.9</speed>
<course>249.0</course>
<desc>Speed 36.9 km/h Distance 86.28 km</desc>
<time>2011-03-24T16:37:36.72</time>
<name>4025</name>
</trkpt>
<trkpt lat="49.290925" lon="9.082462">
<ele>353.0</ele>
<speed>40.5</speed>
<course>243.1</course>
<desc>Speed 40.5 km/h Distance 86.30 km</desc>
<time>2011-03-24T16:37:37.72</time>
<name>4026</name>
</trkpt>
<trkpt lat="49.290792" lon="9.082058">
<ele>364.0</ele>
<speed>37.4</speed>
<course>254.7</course>
<desc>Speed 37.4 km/h Distance 86.33 km</desc>
<time>2011-03-24T16:37:39.72</time>
<name>4027</name>
</trkpt>
<trkpt lat="49.290762" lon="9.081890">
<ele>364.0</ele>
<speed>39.8</speed>
<course>252.1</course>
<desc>Speed 39.8 km/h Distance 86.34 km</desc>
<time>2011-03-24T16:37:40.73</time>
<name>4028</name>
</trkpt>
<trkpt lat="49.290685" lon="9.081525">
<ele>353.0</ele>
<speed>42.7</speed>
<course>249.0</course>
<desc>Speed 42.7 km/h Distance 86.37 km</desc>
<time>2011-03-24T16:37:42.72</time>
<name>4029</name>
</trkpt>
<trkpt lat="49.290640" lon="9.081345">
<ele>348.0</ele>
<speed>44.0</speed>
<course>242.9</course>
<desc>Speed 44.0 km/h Distance 86.38 km</desc>
<time>2011-03-24T16:37:43.72</time>
<name>4030</name>
</trkpt>
<trkpt lat="49.290587" lon="9.081185">
<ele>346.5</ele>
<speed>44.9</speed>
<course>244.4</course>
<desc>Speed 44.9 km/h Distance 86.40 km</desc>
<time>2011-03-24T16:37:44.72</time>
<name>4031</name>
</trkpt>
<trkpt lat="49.290537" lon="9.081025">
<ele>348.5</ele>
<speed>46.2</speed>
<course>240.6</course>
<desc>Speed 46.2 km/h Distance 86.41 km</desc>
<time>2011-03-24T16:37:45.72</time>
<name>4032</name>
</trkpt>
<trkpt lat="49.290477" lon="9.080862">
<ele>347.5</ele>
<speed>47.1</speed>
<course>235.5</course>
<desc>Speed 47.1 km/h Distance 86.42 km</desc>
<time>2011-03-24T16:37:46.72</time>
<name>4033</name>
</trkpt>
<trkpt lat="49.290412" lon="9.080717">
<ele>347.5</ele>
<speed>45.2</speed>
<course>235.6</course>
<desc>Speed 45.2 km/h Distance 86.44 km</desc>
<time>2011-03-24T16:37:47.72</time>
<name>4034</name>
</trkpt>
<trkpt lat="49.290348" lon="9.080575">
<ele>347.5</ele>
<speed>45.2</speed>
<course>234.6</course>
<desc>Speed 45.2 km/h Distance 86.45 km</desc>
<time>2011-03-24T16:37:48.71</time>
<name>4035</name>
</trkpt>
<trkpt lat="49.290295" lon="9.080460">
<ele>347.5</ele>
<speed>45.2</speed>
<course>226.5</course>
<desc>Speed 45.2 km/h Distance 86.46 km</desc>
<time>2011-03-24T16:37:49.72</time>
<name>4036</name>
</trkpt>
<trkpt lat="49.290200" lon="9.080307">
<ele>347.5</ele>
<speed>55.2</speed>
<course>227.9</course>
<desc>Speed 55.2 km/h Distance 86.47 km</desc>
<time>2011-03-24T16:37:50.72</time>
<name>4037</name>
</trkpt>
<trkpt lat="49.290102" lon="9.080140">
<ele>347.5</ele>
<speed>57.0</speed>
<course>230.6</course>
<desc>Speed 57.0 km/h Distance 86.49 km</desc>
<time>2011-03-24T16:37:51.71</time>
<name>4038</name>
</trkpt>
<trkpt lat="49.290000" lon="9.079950">
<ele>346.0</ele>
<speed>59.8</speed>
<course>230.3</course>
<desc>Speed 59.8 km/h Distance 86.51 km</desc>
<time>2011-03-24T16:37:52.72</time>
<name>4039</name>
</trkpt>
<trkpt lat="49.289890" lon="9.079747">
<ele>342.5</ele>
<speed>62.1</speed>
<course>229.0</course>
<desc>Speed 62.1 km/h Distance 86.53 km</desc>
<time>2011-03-24T16:37:53.72</time>
<name>4040</name>
</trkpt>
<trkpt lat="49.289783" lon="9.079558">
<ele>342.0</ele>
<speed>63.1</speed>
<course>228.2</course>
<desc>Speed 63.1 km/h Distance 86.55 km</desc>
<time>2011-03-24T16:37:54.72</time>
<name>4041</name>
</trkpt>
<trkpt lat="49.289673" lon="9.079370">
<ele>342.5</ele>
<speed>64.3</speed>
<course>228.7</course>
<desc>Speed 64.3 km/h Distance 86.56 km</desc>
<time>2011-03-24T16:37:55.72</time>
<name>4042</name>
</trkpt>
<trkpt lat="49.289562" lon="9.079175">
<ele>342.0</ele>
<speed>64.8</speed>
<course>230.4</course>
<desc>Speed 64.8 km/h Distance 86.58 km</desc>
<time>2011-03-24T16:37:56.71</time>
<name>4043</name>
</trkpt>
<trkpt lat="49.289360" lon="9.078802">
<ele>342.0</ele>
<speed>58.2</speed>
<course>231.5</course>
<desc>Speed 58.2 km/h Distance 86.62 km</desc>
<time>2011-03-24T16:37:58.70</time>
<name>4044</name>
</trkpt>
<trkpt lat="49.289270" lon="9.078628">
<ele>341.5</ele>
<speed>56.3</speed>
<course>229.5</course>
<desc>Speed 56.3 km/h Distance 86.63 km</desc>
<time>2011-03-24T16:37:59.70</time>
<name>4045</name>
</trkpt>
<trkpt lat="49.289180" lon="9.078467">
<ele>342.5</ele>
<speed>56.1</speed>
<course>232.0</course>
<desc>Speed 56.1 km/h Distance 86.65 km</desc>
<time>2011-03-24T16:38:00.70</time>
<name>4046</name>
</trkpt>
<trkpt lat="49.289090" lon="9.078290">
<ele>342.0</ele>
<speed>58.5</speed>
<course>233.5</course>
<desc>Speed 58.5 km/h Distance 86.67 km</desc>
<time>2011-03-24T16:38:01.70</time>
<name>4047</name>
</trkpt>
<trkpt lat="49.288998" lon="9.078100">
<ele>342.5</ele>
<speed>60.9</speed>
<course>235.2</course>
<desc>Speed 60.9 km/h Distance 86.68 km</desc>
<time>2011-03-24T16:38:02.70</time>
<name>4048</name>
</trkpt>
<trkpt lat="49.288910" lon="9.077905">
<ele>342.0</ele>
<speed>61.1</speed>
<course>239.3</course>
<desc>Speed 61.1 km/h Distance 86.70 km</desc>
<time>2011-03-24T16:38:03.69</time>
<name>4049</name>
</trkpt>
<trkpt lat="49.288833" lon="9.077707">
<ele>342.0</ele>
<speed>60.6</speed>
<course>239.3</course>
<desc>Speed 60.6 km/h Distance 86.72 km</desc>
<time>2011-03-24T16:38:04.70</time>
<name>4050</name>
</trkpt>
<trkpt lat="49.288753" lon="9.077500">
<ele>341.5</ele>
<speed>63.0</speed>
<course>245.4</course>
<desc>Speed 63.0 km/h Distance 86.73 km</desc>
<time>2011-03-24T16:38:05.69</time>
<name>4051</name>
</trkpt>
<trkpt lat="49.288685" lon="9.077272">
<ele>339.5</ele>
<speed>65.2</speed>
<course>252.8</course>
<desc>Speed 65.2 km/h Distance 86.75 km</desc>
<time>2011-03-24T16:38:06.70</time>
<name>4052</name>
</trkpt>
<trkpt lat="49.288628" lon="9.076992">
<ele>338.5</ele>
<speed>76.3</speed>
<course>248.6</course>
<desc>Speed 76.3 km/h Distance 86.77 km</desc>
<time>2011-03-24T16:38:07.69</time>
<name>4053</name>
</trkpt>
<trkpt lat="49.288555" lon="9.076705">
<ele>336.5</ele>
<speed>80.2</speed>
<course>248.7</course>
<desc>Speed 80.2 km/h Distance 86.80 km</desc>
<time>2011-03-24T16:38:08.70</time>
<name>4054</name>
</trkpt>
<trkpt lat="49.288473" lon="9.076383">
<ele>334.0</ele>
<speed>89.7</speed>
<course>249.7</course>
<desc>Speed 89.7 km/h Distance 86.82 km</desc>
<time>2011-03-24T16:38:09.69</time>
<name>4055</name>
</trkpt>
<trkpt lat="49.288327" lon="9.075775">
<ele>331.5</ele>
<speed>95.0</speed>
<course>250.2</course>
<desc>Speed 95.0 km/h Distance 86.87 km</desc>
<time>2011-03-24T16:38:11.69</time>
<name>4056</name>
</trkpt>
<trkpt lat="49.288242" lon="9.075413">
<ele>329.5</ele>
<speed>96.0</speed>
<course>248.8</course>
<desc>Speed 96.0 km/h Distance 86.90 km</desc>
<time>2011-03-24T16:38:12.69</time>
<name>4057</name>
</trkpt>
<trkpt lat="49.288152" lon="9.075058">
<ele>329.5</ele>
<speed>96.3</speed>
<course>249.8</course>
<desc>Speed 96.3 km/h Distance 86.92 km</desc>
<time>2011-03-24T16:38:13.68</time>
<name>4058</name>
</trkpt>
<trkpt lat="49.288067" lon="9.074703">
<ele>328.5</ele>
<speed>98.2</speed>
<course>250.2</course>
<desc>Speed 98.2 km/h Distance 86.95 km</desc>
<time>2011-03-24T16:38:14.68</time>
<name>4059</name>
</trkpt>
<trkpt lat="49.287982" lon="9.074342">
<ele>327.5</ele>
<speed>98.7</speed>
<course>251.4</course>
<desc>Speed 98.7 km/h Distance 86.98 km</desc>
<time>2011-03-24T16:38:15.68</time>
<name>4060</name>
</trkpt>
<trkpt lat="49.287902" lon="9.073977">
<ele>326.0</ele>
<speed>98.8</speed>
<course>255.2</course>
<desc>Speed 98.8 km/h Distance 87.01 km</desc>
<time>2011-03-24T16:38:16.68</time>
<name>4061</name>
</trkpt>
<trkpt lat="49.287838" lon="9.073610">
<ele>324.5</ele>
<speed>98.1</speed>
<course>258.0</course>
<desc>Speed 98.1 km/h Distance 87.04 km</desc>
<time>2011-03-24T16:38:17.68</time>
<name>4062</name>
</trkpt>
<trkpt lat="49.287782" lon="9.073200">
<ele>323.5</ele>
<speed>109</speed>
<course>263.9</course>
<desc>Speed 109 km/h Distance 87.07 km</desc>
<time>2011-03-24T16:38:18.68</time>
<name>4063</name>
</trkpt>
<trkpt lat="49.287753" lon="9.072792">
<ele>323.0</ele>
<speed>106</speed>
<course>257.9</course>
<desc>Speed 106 km/h Distance 87.10 km</desc>
<time>2011-03-24T16:38:19.69</time>
<name>4064</name>
</trkpt>
<trkpt lat="49.287692" lon="9.072350">
<ele>322.5</ele>
<speed>118</speed>
<course>262.0</course>
<desc>Speed 118 km/h Distance 87.13 km</desc>
<time>2011-03-24T16:38:20.68</time>
<name>4065</name>
</trkpt>
<trkpt lat="49.287655" lon="9.071952">
<ele>321.5</ele>
<speed>104</speed>
<course>265.8</course>
<desc>Speed 104 km/h Distance 87.16 km</desc>
<time>2011-03-24T16:38:21.69</time>
<name>4066</name>
</trkpt>
<trkpt lat="49.287637" lon="9.071567">
<ele>319.5</ele>
<speed>100</speed>
<course>266.6</course>
<desc>Speed 100 km/h Distance 87.19 km</desc>
<time>2011-03-24T16:38:22.69</time>
<name>4067</name>
</trkpt>
<trkpt lat="49.287622" lon="9.071185">
<ele>316.5</ele>
<speed>99.5</speed>
<course>266.9</course>
<desc>Speed 99.5 km/h Distance 87.21 km</desc>
<time>2011-03-24T16:38:23.69</time>
<name>4068</name>
</trkpt>
<trkpt lat="49.287608" lon="9.070810">
<ele>315.5</ele>
<speed>98.8</speed>
<course>264.5</course>
<desc>Speed 98.8 km/h Distance 87.24 km</desc>
<time>2011-03-24T16:38:24.68</time>
<name>4069</name>
</trkpt>
<trkpt lat="49.287585" lon="9.070440">
<ele>313.0</ele>
<speed>98.4</speed>
<course>258.9</course>
<desc>Speed 98.4 km/h Distance 87.27 km</desc>
<time>2011-03-24T16:38:25.68</time>
<name>4070</name>
</trkpt>
<trkpt lat="49.287538" lon="9.070077">
<ele>312.5</ele>
<speed>97.1</speed>
<course>256.4</course>
<desc>Speed 97.1 km/h Distance 87.29 km</desc>
<time>2011-03-24T16:38:26.68</time>
<name>4071</name>
</trkpt>
<trkpt lat="49.287480" lon="9.069708">
<ele>312.0</ele>
<speed>99.4</speed>
<course>254.8</course>
<desc>Speed 99.4 km/h Distance 87.32 km</desc>
<time>2011-03-24T16:38:27.68</time>
<name>4072</name>
</trkpt>
<trkpt lat="49.287418" lon="9.069360">
<ele>311.5</ele>
<speed>95.3</speed>
<course>250.4</course>
<desc>Speed 95.3 km/h Distance 87.35 km</desc>
<time>2011-03-24T16:38:28.68</time>
<name>4073</name>
</trkpt>
<trkpt lat="49.287333" lon="9.068993">
<ele>311.5</ele>
<speed>102</speed>
<course>245.8</course>
<desc>Speed 102 km/h Distance 87.38 km</desc>
<time>2011-03-24T16:38:29.68</time>
<name>4074</name>
</trkpt>
<trkpt lat="49.287228" lon="9.068635">
<ele>310.5</ele>
<speed>103</speed>
<course>242.6</course>
<desc>Speed 103 km/h Distance 87.40 km</desc>
<time>2011-03-24T16:38:30.68</time>
<name>4075</name>
</trkpt>
<trkpt lat="49.287110" lon="9.068285">
<ele>308.0</ele>
<speed>103</speed>
<course>238.4</course>
<desc>Speed 103 km/h Distance 87.43 km</desc>
<time>2011-03-24T16:38:31.67</time>
<name>4076</name>
</trkpt>
<trkpt lat="49.286975" lon="9.067948">
<ele>308.0</ele>
<speed>103</speed>
<course>236.1</course>
<desc>Speed 103 km/h Distance 87.46 km</desc>
<time>2011-03-24T16:38:32.68</time>
<name>4077</name>
</trkpt>
<trkpt lat="49.286832" lon="9.067622">
<ele>307.5</ele>
<speed>104</speed>
<course>237.5</course>
<desc>Speed 104 km/h Distance 87.49 km</desc>
<time>2011-03-24T16:38:33.67</time>
<name>4078</name>
</trkpt>
<trkpt lat="49.286685" lon="9.067268">
<ele>307.5</ele>
<speed>109</speed>
<course>234.5</course>
<desc>Speed 109 km/h Distance 87.52 km</desc>
<time>2011-03-24T16:38:34.67</time>
<name>4079</name>
</trkpt>
<trkpt lat="49.286530" lon="9.066935">
<ele>307.5</ele>
<speed>106</speed>
<course>233.6</course>
<desc>Speed 106 km/h Distance 87.55 km</desc>
<time>2011-03-24T16:38:35.68</time>
<name>4080</name>
</trkpt>
<trkpt lat="49.286377" lon="9.066617">
<ele>307.0</ele>
<speed>103</speed>
<course>232.2</course>
<desc>Speed 103 km/h Distance 87.58 km</desc>
<time>2011-03-24T16:38:36.68</time>
<name>4081</name>
</trkpt>
<trkpt lat="49.286223" lon="9.066313">
<ele>307.0</ele>
<speed>99.4</speed>
<course>233.3</course>
<desc>Speed 99.4 km/h Distance 87.61 km</desc>
<time>2011-03-24T16:38:37.67</time>
<name>4082</name>
</trkpt>
<trkpt lat="49.286085" lon="9.066028">
<ele>306.5</ele>
<speed>93.3</speed>
<course>234.7</course>
<desc>Speed 93.3 km/h Distance 87.63 km</desc>
<time>2011-03-24T16:38:38.67</time>
<name>4083</name>
</trkpt>
<trkpt lat="49.285955" lon="9.065747">
<ele>306.5</ele>
<speed>90.9</speed>
<course>240.9</course>
<desc>Speed 90.9 km/h Distance 87.66 km</desc>
<time>2011-03-24T16:38:39.67</time>
<name>4084</name>
</trkpt>
<trkpt lat="49.285768" lon="9.065232">
<ele>307.0</ele>
<speed>80.7</speed>
<course>248.1</course>
<desc>Speed 80.7 km/h Distance 87.70 km</desc>
<time>2011-03-24T16:38:41.67</time>
<name>4085</name>
</trkpt>
<trkpt lat="49.285693" lon="9.064945">
<ele>307.0</ele>
<speed>80.5</speed>
<course>253.2</course>
<desc>Speed 80.5 km/h Distance 87.72 km</desc>
<time>2011-03-24T16:38:42.67</time>
<name>4086</name>
</trkpt>
<trkpt lat="49.285637" lon="9.064657">
<ele>306.5</ele>
<speed>78.9</speed>
<course>255.1</course>
<desc>Speed 78.9 km/h Distance 87.75 km</desc>
<time>2011-03-24T16:38:43.66</time>
<name>4087</name>
</trkpt>
<trkpt lat="49.285587" lon="9.064368">
<ele>306.5</ele>
<speed>76.8</speed>
<course>257.1</course>
<desc>Speed 76.8 km/h Distance 87.77 km</desc>
<time>2011-03-24T16:38:44.67</time>
<name>4088</name>
</trkpt>
<trkpt lat="49.285545" lon="9.064090">
<ele>306.5</ele>
<speed>73.2</speed>
<course>261.1</course>
<desc>Speed 73.2 km/h Distance 87.79 km</desc>
<time>2011-03-24T16:38:45.68</time>
<name>4089</name>
</trkpt>
<trkpt lat="49.285517" lon="9.063813">
<ele>306.5</ele>
<speed>70.9</speed>
<course>262.2</course>
<desc>Speed 70.9 km/h Distance 87.81 km</desc>
<time>2011-03-24T16:38:46.67</time>
<name>4090</name>
</trkpt>
<trkpt lat="49.285492" lon="9.063533">
<ele>306.0</ele>
<speed>72.4</speed>
<course>268.9</course>
<desc>Speed 72.4 km/h Distance 87.83 km</desc>
<time>2011-03-24T16:38:47.68</time>
<name>4091</name>
</trkpt>
<trkpt lat="49.285488" lon="9.063258">
<ele>305.5</ele>
<speed>71.5</speed>
<course>271.0</course>
<desc>Speed 71.5 km/h Distance 87.85 km</desc>
<time>2011-03-24T16:38:48.67</time>
<name>4092</name>
</trkpt>
<trkpt lat="49.285492" lon="9.062973">
<ele>305.0</ele>
<speed>73.9</speed>
<course>273.0</course>
<desc>Speed 73.9 km/h Distance 87.87 km</desc>
<time>2011-03-24T16:38:49.67</time>
<name>4093</name>
</trkpt>
<trkpt lat="49.285502" lon="9.062680">
<ele>305.0</ele>
<speed>76.1</speed>
<course>275.9</course>
<desc>Speed 76.1 km/h Distance 87.89 km</desc>
<time>2011-03-24T16:38:50.67</time>
<name>4094</name>
</trkpt>
<trkpt lat="49.285523" lon="9.062360">
<ele>303.5</ele>
<speed>83.6</speed>
<course>274.1</course>
<desc>Speed 83.6 km/h Distance 87.91 km</desc>
<time>2011-03-24T16:38:51.67</time>
<name>4095</name>
</trkpt>
<trkpt lat="49.285538" lon="9.062040">
<ele>303.0</ele>
<speed>84.1</speed>
<course>272.3</course>
<desc>Speed 84.1 km/h Distance 87.94 km</desc>
<time>2011-03-24T16:38:52.67</time>
<name>4096</name>
</trkpt>
<trkpt lat="49.285547" lon="9.061722">
<ele>302.5</ele>
<speed>83.1</speed>
<course>268.0</course>
<desc>Speed 83.1 km/h Distance 87.96 km</desc>
<time>2011-03-24T16:38:53.67</time>
<name>4097</name>
</trkpt>
<trkpt lat="49.285540" lon="9.061425">
<ele>302.5</ele>
<speed>78.2</speed>
<course>263.0</course>
<desc>Speed 78.2 km/h Distance 87.98 km</desc>
<time>2011-03-24T16:38:54.66</time>
<name>4098</name>
</trkpt>
<trkpt lat="49.285517" lon="9.061135">
<ele>302.0</ele>
<speed>76.6</speed>
<course>257.7</course>
<desc>Speed 76.6 km/h Distance 88.00 km</desc>
<time>2011-03-24T16:38:55.67</time>
<name>4099</name>
</trkpt>
<trkpt lat="49.285475" lon="9.060842">
<ele>302.0</ele>
<speed>79.2</speed>
<course>261.0</course>
<desc>Speed 79.2 km/h Distance 88.02 km</desc>
<time>2011-03-24T16:38:56.66</time>
<name>4100</name>
</trkpt>
<trkpt lat="49.285447" lon="9.060568">
<ele>302.0</ele>
<speed>71.9</speed>
<course>259.0</course>
<desc>Speed 71.9 km/h Distance 88.05 km</desc>
<time>2011-03-24T16:38:57.66</time>
<name>4101</name>
</trkpt>
<trkpt lat="49.285407" lon="9.060252">
<ele>301.5</ele>
<speed>82.5</speed>
<course>265.8</course>
<desc>Speed 82.5 km/h Distance 88.07 km</desc>
<time>2011-03-24T16:38:58.66</time>
<name>4102</name>
</trkpt>
<trkpt lat="49.285392" lon="9.059935">
<ele>301.0</ele>
<speed>81.2</speed>
<course>265.3</course>
<desc>Speed 81.2 km/h Distance 88.09 km</desc>
<time>2011-03-24T16:38:59.67</time>
<name>4103</name>
</trkpt>
<trkpt lat="49.285375" lon="9.059622">
<ele>300.5</ele>
<speed>80.1</speed>
<course>265.3</course>
<desc>Speed 80.1 km/h Distance 88.11 km</desc>
<time>2011-03-24T16:39:00.66</time>
<name>4104</name>
</trkpt>
<trkpt lat="49.285358" lon="9.059308">
<ele>300.0</ele>
<speed>79.9</speed>
<course>269.0</course>
<desc>Speed 79.9 km/h Distance 88.14 km</desc>
<time>2011-03-24T16:39:01.66</time>
<name>4105</name>
</trkpt>
<trkpt lat="49.285355" lon="9.059005">
<ele>300.0</ele>
<speed>79.3</speed>
<course>270.5</course>
<desc>Speed 79.3 km/h Distance 88.16 km</desc>
<time>2011-03-24T16:39:02.67</time>
<name>4106</name>
</trkpt>
<trkpt lat="49.285357" lon="9.058710">
<ele>300.0</ele>
<speed>76.4</speed>
<course>272.6</course>
<desc>Speed 76.4 km/h Distance 88.18 km</desc>
<time>2011-03-24T16:39:03.65</time>
<name>4107</name>
</trkpt>
<trkpt lat="49.285365" lon="9.058428">
<ele>299.5</ele>
<speed>72.4</speed>
<course>275.8</course>
<desc>Speed 72.4 km/h Distance 88.20 km</desc>
<time>2011-03-24T16:39:04.65</time>
<name>4108</name>
</trkpt>
<trkpt lat="49.285383" lon="9.058153">
<ele>299.5</ele>
<speed>71.7</speed>
<course>278.3</course>
<desc>Speed 71.7 km/h Distance 88.22 km</desc>
<time>2011-03-24T16:39:05.66</time>
<name>4109</name>
</trkpt>
<trkpt lat="49.285410" lon="9.057872">
<ele>299.0</ele>
<speed>73.0</speed>
<course>280.0</course>
<desc>Speed 73.0 km/h Distance 88.24 km</desc>
<time>2011-03-24T16:39:06.66</time>
<name>4110</name>
</trkpt>
<trkpt lat="49.285443" lon="9.057582">
<ele>299.0</ele>
<speed>75.3</speed>
<course>284.8</course>
<desc>Speed 75.3 km/h Distance 88.26 km</desc>
<time>2011-03-24T16:39:07.66</time>
<name>4111</name>
</trkpt>
<trkpt lat="49.285492" lon="9.057302">
<ele>298.5</ele>
<speed>74.6</speed>
<course>286.6</course>
<desc>Speed 74.6 km/h Distance 88.28 km</desc>
<time>2011-03-24T16:39:08.66</time>
<name>4112</name>
</trkpt>
<trkpt lat="49.285545" lon="9.057027">
<ele>298.5</ele>
<speed>74.0</speed>
<course>288.9</course>
<desc>Speed 74.0 km/h Distance 88.31 km</desc>
<time>2011-03-24T16:39:09.66</time>
<name>4113</name>
</trkpt>
<trkpt lat="49.285593" lon="9.056810">
<ele>298.5</ele>
<speed>74.0</speed>
<course>292.1</course>
<desc>Speed 74.0 km/h Distance 88.32 km</desc>
<time>2011-03-24T16:39:10.65</time>
<name>4114</name>
</trkpt>
<trkpt lat="49.285678" lon="9.056488">
<ele>298.5</ele>
<speed>74.0</speed>
<course>297.8</course>
<desc>Speed 74.0 km/h Distance 88.35 km</desc>
<time>2011-03-24T16:39:12.65</time>
<name>4115</name>
</trkpt>
<trkpt lat="49.285765" lon="9.056237">
<ele>299.5</ele>
<speed>70.5</speed>
<course>315.1</course>
<desc>Speed 70.5 km/h Distance 88.37 km</desc>
<time>2011-03-24T16:39:13.65</time>
<name>4116</name>
</trkpt>
<trkpt lat="49.285878" lon="9.056063">
<ele>299.0</ele>
<speed>60.9</speed>
<course>308.5</course>
<desc>Speed 60.9 km/h Distance 88.39 km</desc>
<time>2011-03-24T16:39:14.65</time>
<name>4117</name>
</trkpt>
<trkpt lat="49.285995" lon="9.055838">
<ele>298.0</ele>
<speed>71.9</speed>
<course>310.9</course>
<desc>Speed 71.9 km/h Distance 88.41 km</desc>
<time>2011-03-24T16:39:15.65</time>
<name>4118</name>
</trkpt>
<trkpt lat="49.286097" lon="9.055658">
<ele>297.0</ele>
<speed>71.9</speed>
<course>326.0</course>
<desc>Speed 71.9 km/h Distance 88.42 km</desc>
<time>2011-03-24T16:39:16.65</time>
<name>4119</name>
</trkpt>
<trkpt lat="49.286238" lon="9.055512">
<ele>297.0</ele>
<speed>63.9</speed>
<course>321.7</course>
<desc>Speed 63.9 km/h Distance 88.44 km</desc>
<time>2011-03-24T16:39:17.65</time>
<name>4120</name>
</trkpt>
<trkpt lat="49.286382" lon="9.055338">
<ele>296.5</ele>
<speed>68.1</speed>
<course>321.8</course>
<desc>Speed 68.1 km/h Distance 88.46 km</desc>
<time>2011-03-24T16:39:18.66</time>
<name>4121</name>
</trkpt>
<trkpt lat="49.286520" lon="9.055172">
<ele>296.0</ele>
<speed>66.7</speed>
<course>312.3</course>
<desc>Speed 66.7 km/h Distance 88.48 km</desc>
<time>2011-03-24T16:39:19.66</time>
<name>4122</name>
</trkpt>
<trkpt lat="49.286647" lon="9.054958">
<ele>295.5</ele>
<speed>71.8</speed>
<course>306.4</course>
<desc>Speed 71.8 km/h Distance 88.50 km</desc>
<time>2011-03-24T16:39:20.65</time>
<name>4123</name>
</trkpt>
<trkpt lat="49.286750" lon="9.054743">
<ele>296.5</ele>
<speed>68.1</speed>
<course>293.5</course>
<desc>Speed 68.1 km/h Distance 88.52 km</desc>
<time>2011-03-24T16:39:21.65</time>
<name>4124</name>
</trkpt>
<trkpt lat="49.286823" lon="9.054485">
<ele>296.5</ele>
<speed>70.3</speed>
<course>292.3</course>
<desc>Speed 70.3 km/h Distance 88.54 km</desc>
<time>2011-03-24T16:39:22.65</time>
<name>4125</name>
</trkpt>
<trkpt lat="49.286882" lon="9.054267">
<ele>297.0</ele>
<speed>59.3</speed>
<course>283.0</course>
<desc>Speed 59.3 km/h Distance 88.56 km</desc>
<time>2011-03-24T16:39:23.66</time>
<name>4126</name>
</trkpt>
<trkpt lat="49.286968" lon="9.053693">
<ele>296.0</ele>
<speed>69.3</speed>
<course>278.9</course>
<desc>Speed 69.3 km/h Distance 88.60 km</desc>
<time>2011-03-24T16:39:25.64</time>
<name>4127</name>
</trkpt>
<trkpt lat="49.287032" lon="9.053072">
<ele>292.5</ele>
<speed>78.8</speed>
<course>276.1</course>
<desc>Speed 78.8 km/h Distance 88.65 km</desc>
<time>2011-03-24T16:39:27.65</time>
<name>4128</name>
</trkpt>
<trkpt lat="49.287053" lon="9.052760">
<ele>291.5</ele>
<speed>78.6</speed>
<course>273.5</course>
<desc>Speed 78.6 km/h Distance 88.67 km</desc>
<time>2011-03-24T16:39:28.64</time>
<name>4129</name>
</trkpt>
<trkpt lat="49.287067" lon="9.052427">
<ele>289.0</ele>
<speed>82.7</speed>
<course>275.7</course>
<desc>Speed 82.7 km/h Distance 88.70 km</desc>
<time>2011-03-24T16:39:29.64</time>
<name>4130</name>
</trkpt>
<trkpt lat="49.287088" lon="9.052097">
<ele>287.5</ele>
<speed>81.0</speed>
<course>272.8</course>
<desc>Speed 81.0 km/h Distance 88.72 km</desc>
<time>2011-03-24T16:39:30.64</time>
<name>4131</name>
</trkpt>
<trkpt lat="49.287098" lon="9.051785">
<ele>287.0</ele>
<speed>79.4</speed>
<course>262.2</course>
<desc>Speed 79.4 km/h Distance 88.74 km</desc>
<time>2011-03-24T16:39:31.65</time>
<name>4132</name>
</trkpt>
<trkpt lat="49.287072" lon="9.051485">
<ele>286.5</ele>
<speed>78.9</speed>
<course>261.7</course>
<desc>Speed 78.9 km/h Distance 88.76 km</desc>
<time>2011-03-24T16:39:32.65</time>
<name>4133</name>
</trkpt>
<trkpt lat="49.287048" lon="9.051240">
<ele>286.5</ele>
<speed>78.9</speed>
<course>254.8</course>
<desc>Speed 78.9 km/h Distance 88.78 km</desc>
<time>2011-03-24T16:39:33.64</time>
<name>4134</name>
</trkpt>
<trkpt lat="49.286945" lon="9.050657">
<ele>286.5</ele>
<speed>106</speed>
<course>246.8</course>
<desc>Speed 106 km/h Distance 88.83 km</desc>
<time>2011-03-24T16:39:35.64</time>
<name>4135</name>
</trkpt>
<trkpt lat="49.286845" lon="9.050298">
<ele>286.5</ele>
<speed>101</speed>
<course>250.7</course>
<desc>Speed 101 km/h Distance 88.85 km</desc>
<time>2011-03-24T16:39:36.64</time>
<name>4136</name>
</trkpt>
<trkpt lat="49.286757" lon="9.049912">
<ele>285.0</ele>
<speed>92.6</speed>
<course>252.0</course>
<desc>Speed 92.6 km/h Distance 88.88 km</desc>
<time>2011-03-24T16:39:37.65</time>
<name>4137</name>
</trkpt>
<trkpt lat="49.286683" lon="9.049567">
<ele>282.5</ele>
<speed>84.3</speed>
<course>249.4</course>
<desc>Speed 84.3 km/h Distance 88.91 km</desc>
<time>2011-03-24T16:39:38.64</time>
<name>4138</name>
</trkpt>
<trkpt lat="49.286613" lon="9.049282">
<ele>282.5</ele>
<speed>77.1</speed>
<course>248.0</course>
<desc>Speed 77.1 km/h Distance 88.93 km</desc>
<time>2011-03-24T16:39:39.64</time>
<name>4139</name>
</trkpt>
<trkpt lat="49.286542" lon="9.049010">
<ele>282.0</ele>
<speed>74.1</speed>
<course>256.3</course>
<desc>Speed 74.1 km/h Distance 88.95 km</desc>
<time>2011-03-24T16:39:40.64</time>
<name>4140</name>
</trkpt>
<trkpt lat="49.286498" lon="9.048737">
<ele>281.5</ele>
<speed>70.0</speed>
<course>254.4</course>
<desc>Speed 70.0 km/h Distance 88.97 km</desc>
<time>2011-03-24T16:39:41.64</time>
<name>4141</name>
</trkpt>
<trkpt lat="49.286457" lon="9.048508">
<ele>281.0</ele>
<speed>70.0</speed>
<course>267.3</course>
<desc>Speed 70.0 km/h Distance 88.99 km</desc>
<time>2011-03-24T16:39:42.64</time>
<name>4142</name>
</trkpt>
<trkpt lat="49.286448" lon="9.048233">
<ele>281.0</ele>
<speed>70.3</speed>
<course>271.0</course>
<desc>Speed 70.3 km/h Distance 89.01 km</desc>
<time>2011-03-24T16:39:43.64</time>
<name>4143</name>
</trkpt>
<trkpt lat="49.286452" lon="9.047930">
<ele>280.0</ele>
<speed>77.1</speed>
<course>275.6</course>
<desc>Speed 77.1 km/h Distance 89.03 km</desc>
<time>2011-03-24T16:39:44.63</time>
<name>4144</name>
</trkpt>
<trkpt lat="49.286470" lon="9.047642">
<ele>279.5</ele>
<speed>74.1</speed>
<course>280.7</course>
<desc>Speed 74.1 km/h Distance 89.05 km</desc>
<time>2011-03-24T16:39:45.64</time>
<name>4145</name>
</trkpt>
<trkpt lat="49.286505" lon="9.047357">
<ele>279.0</ele>
<speed>73.8</speed>
<course>282.2</course>
<desc>Speed 73.8 km/h Distance 89.08 km</desc>
<time>2011-03-24T16:39:46.63</time>
<name>4146</name>
</trkpt>
<trkpt lat="49.286545" lon="9.047073">
<ele>279.0</ele>
<speed>73.7</speed>
<course>286.4</course>
<desc>Speed 73.7 km/h Distance 89.10 km</desc>
<time>2011-03-24T16:39:47.64</time>
<name>4147</name>
</trkpt>
<trkpt lat="49.286588" lon="9.046848">
<ele>279.0</ele>
<speed>73.7</speed>
<course>291.0</course>
<desc>Speed 73.7 km/h Distance 89.11 km</desc>
<time>2011-03-24T16:39:48.64</time>
<name>4148</name>
</trkpt>
<trkpt lat="49.286662" lon="9.046555">
<ele>278.0</ele>
<speed>78.0</speed>
<course>293.6</course>
<desc>Speed 78.0 km/h Distance 89.14 km</desc>
<time>2011-03-24T16:39:49.63</time>
<name>4149</name>
</trkpt>
<trkpt lat="49.286730" lon="9.046315">
<ele>277.0</ele>
<speed>78.0</speed>
<course>287.9</course>
<desc>Speed 78.0 km/h Distance 89.16 km</desc>
<time>2011-03-24T16:39:50.63</time>
<name>4150</name>
</trkpt>
<trkpt lat="49.286800" lon="9.045983">
<ele>277.0</ele>
<speed>79.6</speed>
<course>297.2</course>
<desc>Speed 79.6 km/h Distance 89.18 km</desc>
<time>2011-03-24T16:39:51.63</time>
<name>4151</name>
</trkpt>
<trkpt lat="49.286888" lon="9.045720">
<ele>274.5</ele>
<speed>79.6</speed>
<course>300.4</course>
<desc>Speed 79.6 km/h Distance 89.20 km</desc>
<time>2011-03-24T16:39:52.63</time>
<name>4152</name>
</trkpt>
<trkpt lat="49.286980" lon="9.045480">
<ele>272.5</ele>
<speed>79.6</speed>
<course>304.6</course>
<desc>Speed 79.6 km/h Distance 89.22 km</desc>
<time>2011-03-24T16:39:53.63</time>
<name>4153</name>
</trkpt>
<trkpt lat="49.287077" lon="9.045265">
<ele>269.0</ele>
<speed>79.6</speed>
<course>293.5</course>
<desc>Speed 79.6 km/h Distance 89.24 km</desc>
<time>2011-03-24T16:39:54.63</time>
<name>4154</name>
</trkpt>
<trkpt lat="49.287202" lon="9.044825">
<ele>270.0</ele>
<speed>79.6</speed>
<course>295.9</course>
<desc>Speed 79.6 km/h Distance 89.28 km</desc>
<time>2011-03-24T16:39:58.64</time>
<name>4155</name>
</trkpt>
<trkpt lat="49.287300" lon="9.044515">
<ele>268.5</ele>
<speed>76.7</speed>
<course>289.5</course>
<desc>Speed 76.7 km/h Distance 89.30 km</desc>
<time>2011-03-24T16:39:59.63</time>
<name>4156</name>
</trkpt>
<trkpt lat="49.287440" lon="9.043908">
<ele>261.0</ele>
<speed>71.2</speed>
<course>278.1</course>
<desc>Speed 71.2 km/h Distance 89.35 km</desc>
<time>2011-03-24T16:40:01.63</time>
<name>4157</name>
</trkpt>
<trkpt lat="49.287507" lon="9.043193">
<ele>259.0</ele>
<speed>90.6</speed>
<course>266.9</course>
<desc>Speed 90.6 km/h Distance 89.40 km</desc>
<time>2011-03-24T16:40:03.62</time>
<name>4158</name>
</trkpt>
<trkpt lat="49.287493" lon="9.042818">
<ele>259.5</ele>
<speed>83.5</speed>
<course>267.6</course>
<desc>Speed 83.5 km/h Distance 89.43 km</desc>
<time>2011-03-24T16:40:04.63</time>
<name>4159</name>
</trkpt>
<trkpt lat="49.287483" lon="9.042458">
<ele>260.0</ele>
<speed>79.1</speed>
<course>267.2</course>
<desc>Speed 79.1 km/h Distance 89.45 km</desc>
<time>2011-03-24T16:40:05.62</time>
<name>4160</name>
</trkpt>
<trkpt lat="49.287473" lon="9.042145">
<ele>260.5</ele>
<speed>79.1</speed>
<course>281.9</course>
<desc>Speed 79.1 km/h Distance 89.48 km</desc>
<time>2011-03-24T16:40:06.62</time>
<name>4161</name>
</trkpt>
<trkpt lat="49.287533" lon="9.041708">
<ele>260.5</ele>
<speed>58.7</speed>
<course>287.0</course>
<desc>Speed 58.7 km/h Distance 89.51 km</desc>
<time>2011-03-24T16:40:08.63</time>
<name>4162</name>
</trkpt>
<trkpt lat="49.287583" lon="9.041458">
<ele>260.0</ele>
<speed>59.0</speed>
<course>282.6</course>
<desc>Speed 59.0 km/h Distance 89.53 km</desc>
<time>2011-03-24T16:40:09.63</time>
<name>4163</name>
</trkpt>
<trkpt lat="49.287610" lon="9.041275">
<ele>260.0</ele>
<speed>59.0</speed>
<course>290.5</course>
<desc>Speed 59.0 km/h Distance 89.54 km</desc>
<time>2011-03-24T16:40:10.62</time>
<name>4164</name>
</trkpt>
<trkpt lat="49.287655" lon="9.041090">
<ele>259.5</ele>
<speed>46.4</speed>
<course>305.2</course>
<desc>Speed 46.4 km/h Distance 89.56 km</desc>
<time>2011-03-24T16:40:11.61</time>
<name>4165</name>
</trkpt>
<trkpt lat="49.287868" lon="9.040627">
<ele>257.0</ele>
<speed>64.0</speed>
<course>320.0</course>
<desc>Speed 64.0 km/h Distance 89.60 km</desc>
<time>2011-03-24T16:40:13.61</time>
<name>4166</name>
</trkpt>
<trkpt lat="49.288417" lon="9.039922">
<ele>257.0</ele>
<speed>78.2</speed>
<course>325.5</course>
<desc>Speed 78.2 km/h Distance 89.68 km</desc>
<time>2011-03-24T16:40:16.62</time>
<name>4167</name>
</trkpt>
<trkpt lat="49.288572" lon="9.039758">
<ele>257.5</ele>
<speed>73.6</speed>
<course>319.9</course>
<desc>Speed 73.6 km/h Distance 89.70 km</desc>
<time>2011-03-24T16:40:17.62</time>
<name>4168</name>
</trkpt>
<trkpt lat="49.288703" lon="9.039588">
<ele>256.5</ele>
<speed>61.3</speed>
<course>315.5</course>
<desc>Speed 61.3 km/h Distance 89.72 km</desc>
<time>2011-03-24T16:40:18.62</time>
<name>4169</name>
</trkpt>
<trkpt lat="49.288815" lon="9.039420">
<ele>256.0</ele>
<speed>57.2</speed>
<course>320.5</course>
<desc>Speed 57.2 km/h Distance 89.73 km</desc>
<time>2011-03-24T16:40:19.62</time>
<name>4170</name>
</trkpt>
<trkpt lat="49.288922" lon="9.039285">
<ele>255.5</ele>
<speed>54.1</speed>
<course>323.9</course>
<desc>Speed 54.1 km/h Distance 89.75 km</desc>
<time>2011-03-24T16:40:20.62</time>
<name>4171</name>
</trkpt>
<trkpt lat="49.289022" lon="9.039173">
<ele>255.5</ele>
<speed>54.1</speed>
<course>306.6</course>
<desc>Speed 54.1 km/h Distance 89.76 km</desc>
<time>2011-03-24T16:40:21.61</time>
<name>4172</name>
</trkpt>
<trkpt lat="49.289100" lon="9.039012">
<ele>256.0</ele>
<speed>45.1</speed>
<course>304.1</course>
<desc>Speed 45.1 km/h Distance 89.78 km</desc>
<time>2011-03-24T16:40:22.62</time>
<name>4173</name>
</trkpt>
<trkpt lat="49.289170" lon="9.038853">
<ele>255.5</ele>
<speed>42.9</speed>
<course>309.5</course>
<desc>Speed 42.9 km/h Distance 89.79 km</desc>
<time>2011-03-24T16:40:23.61</time>
<name>4174</name>
</trkpt>
<trkpt lat="49.289242" lon="9.038720">
<ele>256.0</ele>
<speed>43.4</speed>
<course>319.6</course>
<desc>Speed 43.4 km/h Distance 89.81 km</desc>
<time>2011-03-24T16:40:24.62</time>
<name>4175</name>
</trkpt>
<trkpt lat="49.289323" lon="9.038613">
<ele>256.5</ele>
<speed>42.4</speed>
<course>327.4</course>
<desc>Speed 42.4 km/h Distance 89.82 km</desc>
<time>2011-03-24T16:40:25.62</time>
<name>4176</name>
</trkpt>
<trkpt lat="49.289410" lon="9.038528">
<ele>256.5</ele>
<speed>40.5</speed>
<course>321.9</course>
<desc>Speed 40.5 km/h Distance 89.83 km</desc>
<time>2011-03-24T16:40:26.62</time>
<name>4177</name>
</trkpt>
<trkpt lat="49.289492" lon="9.038430">
<ele>256.5</ele>
<speed>41.5</speed>
<course>317.2</course>
<desc>Speed 41.5 km/h Distance 89.84 km</desc>
<time>2011-03-24T16:40:27.61</time>
<name>4178</name>
</trkpt>
<trkpt lat="49.289563" lon="9.038328">
<ele>256.5</ele>
<speed>37.4</speed>
<course>317.9</course>
<desc>Speed 37.4 km/h Distance 89.85 km</desc>
<time>2011-03-24T16:40:28.61</time>
<name>4179</name>
</trkpt>
<trkpt lat="49.289642" lon="9.038220">
<ele>256.0</ele>
<speed>40.6</speed>
<course>315.2</course>
<desc>Speed 40.6 km/h Distance 89.86 km</desc>
<time>2011-03-24T16:40:29.60</time>
<name>4180</name>
</trkpt>
<trkpt lat="49.289708" lon="9.038118">
<ele>256.5</ele>
<speed>37.9</speed>
<course>296.4</course>
<desc>Speed 37.9 km/h Distance 89.87 km</desc>
<time>2011-03-24T16:40:30.62</time>
<name>4181</name>
</trkpt>
<trkpt lat="49.289743" lon="9.038010">
<ele>256.0</ele>
<speed>30.7</speed>
<course>306.3</course>
<desc>Speed 30.7 km/h Distance 89.88 km</desc>
<time>2011-03-24T16:40:31.60</time>
<name>4182</name>
</trkpt>
<trkpt lat="49.289802" lon="9.037888">
<ele>256.0</ele>
<speed>38.0</speed>
<course>304.0</course>
<desc>Speed 38.0 km/h Distance 89.89 km</desc>
<time>2011-03-24T16:40:32.61</time>
<name>4183</name>
</trkpt>
<trkpt lat="49.289863" lon="9.037748">
<ele>256.0</ele>
<speed>40.4</speed>
<course>306.7</course>
<desc>Speed 40.4 km/h Distance 89.91 km</desc>
<time>2011-03-24T16:40:33.61</time>
<name>4184</name>
</trkpt>
<trkpt lat="49.289922" lon="9.037628">
<ele>256.5</ele>
<speed>39.0</speed>
<course>310.6</course>
<desc>Speed 39.0 km/h Distance 89.92 km</desc>
<time>2011-03-24T16:40:34.61</time>
<name>4185</name>
</trkpt>
<trkpt lat="49.289977" lon="9.037530">
<ele>257.0</ele>
<speed>33.4</speed>
<course>311.0</course>
<desc>Speed 33.4 km/h Distance 89.93 km</desc>
<time>2011-03-24T16:40:35.61</time>
<name>4186</name>
</trkpt>
<trkpt lat="49.290027" lon="9.037442">
<ele>257.5</ele>
<speed>29.6</speed>
<course>313.9</course>
<desc>Speed 29.6 km/h Distance 89.93 km</desc>
<time>2011-03-24T16:40:36.61</time>
<name>4187</name>
</trkpt>
<trkpt lat="49.290072" lon="9.037370">
<ele>256.5</ele>
<speed>25.5</speed>
<course>317.9</course>
<desc>Speed 25.5 km/h Distance 89.94 km</desc>
<time>2011-03-24T16:40:37.61</time>
<name>4188</name>
</trkpt>
<trkpt lat="49.290115" lon="9.037310">
<ele>256.5</ele>
<speed>22.0</speed>
<course>318.4</course>
<desc>Speed 22.0 km/h Distance 89.95 km</desc>
<time>2011-03-24T16:40:38.60</time>
<name>4189</name>
</trkpt>
<trkpt lat="49.290157" lon="9.037253">
<ele>256.5</ele>
<speed>21.9</speed>
<course>319.3</course>
<desc>Speed 21.9 km/h Distance 89.95 km</desc>
<time>2011-03-24T16:40:39.60</time>
<name>4190</name>
</trkpt>
<trkpt lat="49.290198" lon="9.037198">
<ele>255.5</ele>
<speed>21.6</speed>
<course>316.5</course>
<desc>Speed 21.6 km/h Distance 89.96 km</desc>
<time>2011-03-24T16:40:40.60</time>
<name>4191</name>
</trkpt>
<trkpt lat="49.290235" lon="9.037145">
<ele>255.0</ele>
<speed>19.1</speed>
<course>316.2</course>
<desc>Speed 19.1 km/h Distance 89.97 km</desc>
<time>2011-03-24T16:40:41.60</time>
<name>4192</name>
</trkpt>
<trkpt lat="49.290263" lon="9.037103">
<ele>255.0</ele>
<speed>19.1</speed>
<course>346.7</course>
<desc>Speed 19.1 km/h Distance 89.97 km</desc>
<time>2011-03-24T16:40:42.59</time>
<name>4193</name>
</trkpt>
<trkpt lat="49.290300" lon="9.037090">
<ele>255.5</ele>
<speed>14.4</speed>
<course>343.9</course>
<desc>Speed 14.4 km/h Distance 89.97 km</desc>
<time>2011-03-24T16:40:43.61</time>
<name>4194</name>
</trkpt>
<trkpt lat="49.290330" lon="9.037077">
<ele>255.5</ele>
<speed>14.4</speed>
<course>334.3</course>
<desc>Speed 14.4 km/h Distance 89.98 km</desc>
<time>2011-03-24T16:40:44.60</time>
<name>4195</name>
</trkpt>
<trkpt lat="49.290362" lon="9.037053">
<ele>256.0</ele>
<speed>14.4</speed>
<course>335.1</course>
<desc>Speed 14.4 km/h Distance 89.98 km</desc>
<time>2011-03-24T16:40:45.60</time>
<name>4196</name>
</trkpt>
<trkpt lat="49.290385" lon="9.037037">
<ele>256.0</ele>
<speed>14.4</speed>
<course>329.4</course>
<desc>Speed 14.4 km/h Distance 89.98 km</desc>
<time>2011-03-24T16:40:46.61</time>
<name>4197</name>
</trkpt>
<trkpt lat="49.290403" lon="9.037020">
<ele>256.0</ele>
<speed>14.4</speed>
<course>287.0</course>
<desc>Speed 14.4 km/h Distance 89.99 km</desc>
<time>2011-03-24T16:40:47.60</time>
<name>4198</name>
</trkpt>
<trkpt lat="49.290413" lon="9.036970">
<ele>256.0</ele>
<speed>14.4</speed>
<course>295.3</course>
<desc>Speed 14.4 km/h Distance 89.99 km</desc>
<time>2011-03-24T16:40:48.60</time>
<name>4199</name>
</trkpt>
<trkpt lat="49.290427" lon="9.036927">
<ele>255.5</ele>
<speed>14.4</speed>
<course>295.6</course>
<desc>Speed 14.4 km/h Distance 89.99 km</desc>
<time>2011-03-24T16:40:49.59</time>
<name>4200</name>
</trkpt>
<trkpt lat="49.290443" lon="9.036873">
<ele>254.5</ele>
<speed>14.4</speed>
<course>286.2</course>
<desc>Speed 14.4 km/h Distance 90.00 km</desc>
<time>2011-03-24T16:40:50.60</time>
<name>4201</name>
</trkpt>
<trkpt lat="49.290455" lon="9.036812">
<ele>254.0</ele>
<speed>14.4</speed>
<course>304.5</course>
<desc>Speed 14.4 km/h Distance 90.00 km</desc>
<time>2011-03-24T16:40:51.60</time>
<name>4202</name>
</trkpt>
<trkpt lat="49.290477" lon="9.036763">
<ele>252.5</ele>
<speed>14.4</speed>
<course>298.4</course>
<desc>Speed 14.4 km/h Distance 90.01 km</desc>
<time>2011-03-24T16:40:52.59</time>
<name>4203</name>
</trkpt>
<trkpt lat="49.290487" lon="9.036735">
<ele>252.0</ele>
<speed>14.4</speed>
<course>300.1</course>
<desc>Speed 14.4 km/h Distance 90.01 km</desc>
<time>2011-03-24T16:40:53.59</time>
<name>4204</name>
</trkpt>
<trkpt lat="49.290510" lon="9.036673">
<ele>251.5</ele>
<speed>14.4</speed>
<course>297.7</course>
<desc>Speed 14.4 km/h Distance 90.01 km</desc>
<time>2011-03-24T16:40:54.59</time>
<name>4205</name>
</trkpt>
<trkpt lat="49.290532" lon="9.036610">
<ele>251.5</ele>
<speed>14.4</speed>
<course>297.9</course>
<desc>Speed 14.4 km/h Distance 90.02 km</desc>
<time>2011-03-24T16:40:55.60</time>
<name>4206</name>
</trkpt>
<trkpt lat="49.290715" lon="9.036080">
<ele>251.5</ele>
<speed>32.5</speed>
<course>316.0</course>
<desc>Speed 32.5 km/h Distance 90.06 km</desc>
<time>2011-03-24T16:40:58.59</time>
<name>4207</name>
</trkpt>
<trkpt lat="49.290798" lon="9.035957">
<ele>248.5</ele>
<speed>32.5</speed>
<course>310.1</course>
<desc>Speed 32.5 km/h Distance 90.08 km</desc>
<time>2011-03-24T16:40:59.59</time>
<name>4208</name>
</trkpt>
<trkpt lat="49.291160" lon="9.035298">
<ele>260.0</ele>
<speed>54.1</speed>
<course>340.5</course>
<desc>Speed 54.1 km/h Distance 90.14 km</desc>
<time>2011-03-24T16:41:02.59</time>
<name>4209</name>
</trkpt>
<trkpt lat="49.291317" lon="9.035213">
<ele>262.5</ele>
<speed>53.7</speed>
<course>336.8</course>
<desc>Speed 53.7 km/h Distance 90.16 km</desc>
<time>2011-03-24T16:41:03.59</time>
<name>4210</name>
</trkpt>
<trkpt lat="49.291893" lon="9.034835">
<ele>265.5</ele>
<speed>78.2</speed>
<course>338.9</course>
<desc>Speed 78.2 km/h Distance 90.23 km</desc>
<time>2011-03-24T16:41:06.58</time>
<name>4211</name>
</trkpt>
<trkpt lat="49.292102" lon="9.034712">
<ele>263.5</ele>
<speed>81.4</speed>
<course>339.1</course>
<desc>Speed 81.4 km/h Distance 90.25 km</desc>
<time>2011-03-24T16:41:07.58</time>
<name>4212</name>
</trkpt>
<trkpt lat="49.292270" lon="9.034613">
<ele>263.5</ele>
<speed>81.4</speed>
<course>320.8</course>
<desc>Speed 81.4 km/h Distance 90.27 km</desc>
<time>2011-03-24T16:41:08.58</time>
<name>4213</name>
</trkpt>
<trkpt lat="49.292495" lon="9.034332">
<ele>264.5</ele>
<speed>81.4</speed>
<course>320.0</course>
<desc>Speed 81.4 km/h Distance 90.30 km</desc>
<time>2011-03-24T16:41:10.58</time>
<name>4214</name>
</trkpt>
<trkpt lat="49.293150" lon="9.033490">
<ele>251.0</ele>
<speed>94.2</speed>
<course>319.2</course>
<desc>Speed 94.2 km/h Distance 90.40 km</desc>
<time>2011-03-24T16:41:13.59</time>
<name>4215</name>
</trkpt>
<trkpt lat="49.293557" lon="9.032952">
<ele>246.0</ele>
<speed>107</speed>
<course>307.7</course>
<desc>Speed 107 km/h Distance 90.46 km</desc>
<time>2011-03-24T16:41:15.58</time>
<name>4216</name>
</trkpt>
<trkpt lat="49.293738" lon="9.032592">
<ele>247.5</ele>
<speed>108</speed>
<course>320.5</course>
<desc>Speed 108 km/h Distance 90.49 km</desc>
<time>2011-03-24T16:41:16.57</time>
<name>4217</name>
</trkpt>
<trkpt lat="49.293948" lon="9.032327">
<ele>250.5</ele>
<speed>108</speed>
<course>325.0</course>
<desc>Speed 108 km/h Distance 90.52 km</desc>
<time>2011-03-24T16:41:17.58</time>
<name>4218</name>
</trkpt>
<trkpt lat="49.294460" lon="9.031777">
<ele>250.5</ele>
<speed>121</speed>
<course>329.4</course>
<desc>Speed 121 km/h Distance 90.59 km</desc>
<time>2011-03-24T16:41:19.58</time>
<name>4219</name>
</trkpt>
<trkpt lat="49.295037" lon="9.031253">
<ele>256.0</ele>
<speed>114</speed>
<course>327.8</course>
<desc>Speed 114 km/h Distance 90.67 km</desc>
<time>2011-03-24T16:41:21.57</time>
<name>4220</name>
</trkpt>
<trkpt lat="49.295278" lon="9.031020">
<ele>252.5</ele>
<speed>108</speed>
<course>322.8</course>
<desc>Speed 108 km/h Distance 90.70 km</desc>
<time>2011-03-24T16:41:22.58</time>
<name>4221</name>
</trkpt>
<trkpt lat="49.295473" lon="9.030793">
<ele>254.5</ele>
<speed>94.3</speed>
<course>325.9</course>
<desc>Speed 94.3 km/h Distance 90.73 km</desc>
<time>2011-03-24T16:41:23.58</time>
<name>4222</name>
</trkpt>
<trkpt lat="49.295693" lon="9.030565">
<ele>249.5</ele>
<speed>92.2</speed>
<course>330.1</course>
<desc>Speed 92.2 km/h Distance 90.76 km</desc>
<time>2011-03-24T16:41:24.57</time>
<name>4223</name>
</trkpt>
<trkpt lat="49.295893" lon="9.030388">
<ele>249.0</ele>
<speed>90.1</speed>
<course>336.8</course>
<desc>Speed 90.1 km/h Distance 90.78 km</desc>
<time>2011-03-24T16:41:25.58</time>
<name>4224</name>
</trkpt>
<trkpt lat="49.296117" lon="9.030242">
<ele>248.5</ele>
<speed>96.3</speed>
<course>348.8</course>
<desc>Speed 96.3 km/h Distance 90.81 km</desc>
<time>2011-03-24T16:41:26.57</time>
<name>4225</name>
</trkpt>
<trkpt lat="49.296370" lon="9.030165">
<ele>248.5</ele>
<speed>99.1</speed>
<course>352.9</course>
<desc>Speed 99.1 km/h Distance 90.84 km</desc>
<time>2011-03-24T16:41:27.58</time>
<name>4226</name>
</trkpt>
<trkpt lat="49.296642" lon="9.030113">
<ele>249.0</ele>
<speed>108</speed>
<course>352.7</course>
<desc>Speed 108 km/h Distance 90.87 km</desc>
<time>2011-03-24T16:41:28.58</time>
<name>4227</name>
</trkpt>
<trkpt lat="49.297288" lon="9.029987">
<ele>247.0</ele>
<speed>72.9</speed>
<course>343.7</course>
<desc>Speed 72.9 km/h Distance 90.94 km</desc>
<time>2011-03-24T16:41:31.56</time>
<name>4228</name>
</trkpt>
<trkpt lat="49.297485" lon="9.029898">
<ele>247.5</ele>
<speed>78.5</speed>
<course>339.0</course>
<desc>Speed 78.5 km/h Distance 90.96 km</desc>
<time>2011-03-24T16:41:32.57</time>
<name>4229</name>
</trkpt>
<trkpt lat="49.297695" lon="9.029775">
<ele>246.5</ele>
<speed>83.8</speed>
<course>333.4</course>
<desc>Speed 83.8 km/h Distance 90.99 km</desc>
<time>2011-03-24T16:41:33.57</time>
<name>4230</name>
</trkpt>
<trkpt lat="49.297912" lon="9.029608">
<ele>246.0</ele>
<speed>92.3</speed>
<course>326.3</course>
<desc>Speed 92.3 km/h Distance 91.01 km</desc>
<time>2011-03-24T16:41:34.57</time>
<name>4231</name>
</trkpt>
<trkpt lat="49.298373" lon="9.029137">
<ele>246.0</ele>
<speed>102</speed>
<course>321.9</course>
<desc>Speed 102 km/h Distance 91.08 km</desc>
<time>2011-03-24T16:41:36.58</time>
<name>4232</name>
</trkpt>
<trkpt lat="49.298570" lon="9.028900">
<ele>246.5</ele>
<speed>95.9</speed>
<course>333.4</course>
<desc>Speed 95.9 km/h Distance 91.10 km</desc>
<time>2011-03-24T16:41:37.56</time>
<name>4233</name>
</trkpt>
<trkpt lat="49.298967" lon="9.028595">
<ele>246.5</ele>
<speed>92.6</speed>
<course>346.5</course>
<desc>Speed 92.6 km/h Distance 91.15 km</desc>
<time>2011-03-24T16:41:39.56</time>
<name>4234</name>
</trkpt>
<trkpt lat="49.299175" lon="9.028518">
<ele>246.0</ele>
<speed>84.6</speed>
<course>349.7</course>
<desc>Speed 84.6 km/h Distance 91.18 km</desc>
<time>2011-03-24T16:41:40.56</time>
<name>4235</name>
</trkpt>
<trkpt lat="49.299373" lon="9.028463">
<ele>245.5</ele>
<speed>80.3</speed>
<course>339.2</course>
<desc>Speed 80.3 km/h Distance 91.20 km</desc>
<time>2011-03-24T16:41:41.56</time>
<name>4236</name>
</trkpt>
<trkpt lat="49.299720" lon="9.028262">
<ele>246.0</ele>
<speed>84.6</speed>
<course>316.7</course>
<desc>Speed 84.6 km/h Distance 91.24 km</desc>
<time>2011-03-24T16:41:43.57</time>
<name>4237</name>
</trkpt>
<trkpt lat="49.299990" lon="9.027872">
<ele>247.0</ele>
<speed>82.0</speed>
<course>308.5</course>
<desc>Speed 82.0 km/h Distance 91.28 km</desc>
<time>2011-03-24T16:41:45.57</time>
<name>4238</name>
</trkpt>
<trkpt lat="49.300132" lon="9.027598">
<ele>247.0</ele>
<speed>91.4</speed>
<course>303.6</course>
<desc>Speed 91.4 km/h Distance 91.31 km</desc>
<time>2011-03-24T16:41:46.57</time>
<name>4239</name>
</trkpt>
<trkpt lat="49.300260" lon="9.027302">
<ele>247.0</ele>
<speed>92.5</speed>
<course>306.1</course>
<desc>Speed 92.5 km/h Distance 91.33 km</desc>
<time>2011-03-24T16:41:47.57</time>
<name>4240</name>
</trkpt>
<trkpt lat="49.300575" lon="9.026640">
<ele>248.0</ele>
<speed>103</speed>
<course>310.2</course>
<desc>Speed 103 km/h Distance 91.39 km</desc>
<time>2011-03-24T16:41:49.56</time>
<name>4241</name>
</trkpt>
<trkpt lat="49.300735" lon="9.026350">
<ele>247.5</ele>
<speed>99.9</speed>
<course>312.2</course>
<desc>Speed 99.9 km/h Distance 91.42 km</desc>
<time>2011-03-24T16:41:50.57</time>
<name>4242</name>
</trkpt>
<trkpt lat="49.300898" lon="9.026073">
<ele>248.0</ele>
<speed>94.1</speed>
<course>313.7</course>
<desc>Speed 94.1 km/h Distance 91.45 km</desc>
<time>2011-03-24T16:41:51.57</time>
<name>4243</name>
</trkpt>
<trkpt lat="49.301062" lon="9.025812">
<ele>248.0</ele>
<speed>89.4</speed>
<course>313.3</course>
<desc>Speed 89.4 km/h Distance 91.47 km</desc>
<time>2011-03-24T16:41:52.57</time>
<name>4244</name>
</trkpt>
<trkpt lat="49.301205" lon="9.025578">
<ele>245.5</ele>
<speed>81.6</speed>
<course>315.1</course>
<desc>Speed 81.6 km/h Distance 91.50 km</desc>
<time>2011-03-24T16:41:53.56</time>
<name>4245</name>
</trkpt>
<trkpt lat="49.301343" lon="9.025367">
<ele>244.5</ele>
<speed>74.8</speed>
<course>319.4</course>
<desc>Speed 74.8 km/h Distance 91.52 km</desc>
<time>2011-03-24T16:41:54.56</time>
<name>4246</name>
</trkpt>
<trkpt lat="49.301487" lon="9.025178">
<ele>243.5</ele>
<speed>71.1</speed>
<course>323.2</course>
<desc>Speed 71.1 km/h Distance 91.54 km</desc>
<time>2011-03-24T16:41:55.56</time>
<name>4247</name>
</trkpt>
<trkpt lat="49.301622" lon="9.025023">
<ele>243.0</ele>
<speed>63.7</speed>
<course>331.9</course>
<desc>Speed 63.7 km/h Distance 91.56 km</desc>
<time>2011-03-24T16:41:56.55</time>
<name>4248</name>
</trkpt>
<trkpt lat="49.301835" lon="9.024848">
<ele>241.5</ele>
<speed>47.5</speed>
<course>335.3</course>
<desc>Speed 47.5 km/h Distance 91.59 km</desc>
<time>2011-03-24T16:41:58.55</time>
<name>4249</name>
</trkpt>
<trkpt lat="49.301937" lon="9.024777">
<ele>241.0</ele>
<speed>43.4</speed>
<course>336.7</course>
<desc>Speed 43.4 km/h Distance 91.60 km</desc>
<time>2011-03-24T16:41:59.55</time>
<name>4250</name>
</trkpt>
<trkpt lat="49.302030" lon="9.024715">
<ele>240.5</ele>
<speed>40.1</speed>
<course>338.3</course>
<desc>Speed 40.1 km/h Distance 91.61 km</desc>
<time>2011-03-24T16:42:00.56</time>
<name>4251</name>
</trkpt>
<trkpt lat="49.302120" lon="9.024660">
<ele>239.0</ele>
<speed>37.8</speed>
<course>339.9</course>
<desc>Speed 37.8 km/h Distance 91.62 km</desc>
<time>2011-03-24T16:42:01.56</time>
<name>4252</name>
</trkpt>
<trkpt lat="49.302203" lon="9.024613">
<ele>240.5</ele>
<speed>35.6</speed>
<course>342.2</course>
<desc>Speed 35.6 km/h Distance 91.63 km</desc>
<time>2011-03-24T16:42:02.56</time>
<name>4253</name>
</trkpt>
<trkpt lat="49.302295" lon="9.024568">
<ele>240.0</ele>
<speed>37.8</speed>
<course>343.7</course>
<desc>Speed 37.8 km/h Distance 91.64 km</desc>
<time>2011-03-24T16:42:03.55</time>
<name>4254</name>
</trkpt>
<trkpt lat="49.302392" lon="9.024525">
<ele>240.0</ele>
<speed>40.4</speed>
<course>341.1</course>
<desc>Speed 40.4 km/h Distance 91.65 km</desc>
<time>2011-03-24T16:42:04.56</time>
<name>4255</name>
</trkpt>
<trkpt lat="49.302490" lon="9.024473">
<ele>240.5</ele>
<speed>41.8</speed>
<course>341.4</course>
<desc>Speed 41.8 km/h Distance 91.66 km</desc>
<time>2011-03-24T16:42:05.56</time>
<name>4256</name>
</trkpt>
<trkpt lat="49.302600" lon="9.024417">
<ele>240.5</ele>
<speed>47.1</speed>
<course>340.7</course>
<desc>Speed 47.1 km/h Distance 91.68 km</desc>
<time>2011-03-24T16:42:06.56</time>
<name>4257</name>
</trkpt>
<trkpt lat="49.302712" lon="9.024357">
<ele>238.5</ele>
<speed>47.8</speed>
<course>341.9</course>
<desc>Speed 47.8 km/h Distance 91.69 km</desc>
<time>2011-03-24T16:42:07.55</time>
<name>4258</name>
</trkpt>
<trkpt lat="49.302818" lon="9.024303">
<ele>239.0</ele>
<speed>45.4</speed>
<course>343.7</course>
<desc>Speed 45.4 km/h Distance 91.70 km</desc>
<time>2011-03-24T16:42:08.56</time>
<name>4259</name>
</trkpt>
<trkpt lat="49.302918" lon="9.024258">
<ele>238.5</ele>
<speed>42.4</speed>
<course>351.2</course>
<desc>Speed 42.4 km/h Distance 91.71 km</desc>
<time>2011-03-24T16:42:09.56</time>
<name>4260</name>
</trkpt>
<trkpt lat="49.303023" lon="9.024233">
<ele>238.5</ele>
<speed>42.5</speed>
<course>355.6</course>
<desc>Speed 42.5 km/h Distance 91.73 km</desc>
<time>2011-03-24T16:42:10.55</time>
<name>4261</name>
</trkpt>
<trkpt lat="49.303123" lon="9.024222">
<ele>238.0</ele>
<speed>39.4</speed>
<course>0.0</course>
<desc>Speed 39.4 km/h Distance 91.74 km</desc>
<time>2011-03-24T16:42:11.56</time>
<name>4262</name>
</trkpt>
<trkpt lat="49.303210" lon="9.024222">
<ele>238.5</ele>
<speed>34.8</speed>
<course>358.6</course>
<desc>Speed 34.8 km/h Distance 91.75 km</desc>
<time>2011-03-24T16:42:12.55</time>
<name>4263</name>
</trkpt>
<trkpt lat="49.303292" lon="9.024218">
<ele>238.5</ele>
<speed>32.3</speed>
<course>356.8</course>
<desc>Speed 32.3 km/h Distance 91.76 km</desc>
<time>2011-03-24T16:42:13.55</time>
<name>4264</name>
</trkpt>
<trkpt lat="49.303370" lon="9.024212">
<ele>238.5</ele>
<speed>31.8</speed>
<course>356.4</course>
<desc>Speed 31.8 km/h Distance 91.76 km</desc>
<time>2011-03-24T16:42:14.55</time>
<name>4265</name>
</trkpt>
<trkpt lat="49.303457" lon="9.024203">
<ele>237.5</ele>
<speed>34.9</speed>
<course>354.0</course>
<desc>Speed 34.9 km/h Distance 91.77 km</desc>
<time>2011-03-24T16:42:15.54</time>
<name>4266</name>
</trkpt>
<trkpt lat="49.303550" lon="9.024188">
<ele>237.0</ele>
<speed>37.5</speed>
<course>351.2</course>
<desc>Speed 37.5 km/h Distance 91.78 km</desc>
<time>2011-03-24T16:42:16.55</time>
<name>4267</name>
</trkpt>
<trkpt lat="49.303648" lon="9.024165">
<ele>241.0</ele>
<speed>37.8</speed>
<course>351.8</course>
<desc>Speed 37.8 km/h Distance 91.80 km</desc>
<time>2011-03-24T16:42:17.55</time>
<name>4268</name>
</trkpt>
<trkpt lat="49.303738" lon="9.024145">
<ele>242.0</ele>
<speed>35.7</speed>
<course>349.1</course>
<desc>Speed 35.7 km/h Distance 91.81 km</desc>
<time>2011-03-24T16:42:18.55</time>
<name>4269</name>
</trkpt>
<trkpt lat="49.303823" lon="9.024120">
<ele>243.5</ele>
<speed>34.0</speed>
<course>347.0</course>
<desc>Speed 34.0 km/h Distance 91.82 km</desc>
<time>2011-03-24T16:42:19.54</time>
<name>4270</name>
</trkpt>
<trkpt lat="49.303903" lon="9.024092">
<ele>246.0</ele>
<speed>31.9</speed>
<course>344.6</course>
<desc>Speed 31.9 km/h Distance 91.82 km</desc>
<time>2011-03-24T16:42:20.54</time>
<name>4271</name>
</trkpt>
<trkpt lat="49.303978" lon="9.024060">
<ele>246.5</ele>
<speed>30.5</speed>
<course>346.7</course>
<desc>Speed 30.5 km/h Distance 91.83 km</desc>
<time>2011-03-24T16:42:21.54</time>
<name>4272</name>
</trkpt>
<trkpt lat="49.304057" lon="9.024032">
<ele>246.5</ele>
<speed>31.7</speed>
<course>351.8</course>
<desc>Speed 31.7 km/h Distance 91.84 km</desc>
<time>2011-03-24T16:42:22.55</time>
<name>4273</name>
</trkpt>
<trkpt lat="49.304140" lon="9.024013">
<ele>245.5</ele>
<speed>33.0</speed>
<course>357.6</course>
<desc>Speed 33.0 km/h Distance 91.85 km</desc>
<time>2011-03-24T16:42:23.55</time>
<name>4274</name>
</trkpt>
<trkpt lat="49.304217" lon="9.024008">
<ele>247.5</ele>
<speed>30.8</speed>
<course>8.2</course>
<desc>Speed 30.8 km/h Distance 91.86 km</desc>
<time>2011-03-24T16:42:24.55</time>
<name>4275</name>
</trkpt>
<trkpt lat="49.304277" lon="9.024022">
<ele>248.5</ele>
<speed>24.4</speed>
<course>20.7</course>
<desc>Speed 24.4 km/h Distance 91.87 km</desc>
<time>2011-03-24T16:42:25.53</time>
<name>4276</name>
</trkpt>
<trkpt lat="49.304340" lon="9.024058">
<ele>249.0</ele>
<speed>26.9</speed>
<course>20.9</course>
<desc>Speed 26.9 km/h Distance 91.87 km</desc>
<time>2011-03-24T16:42:26.53</time>
<name>4277</name>
</trkpt>
<trkpt lat="49.304408" lon="9.024098">
<ele>247.5</ele>
<speed>28.3</speed>
<course>13.9</course>
<desc>Speed 28.3 km/h Distance 91.88 km</desc>
<time>2011-03-24T16:42:27.55</time>
<name>4278</name>
</trkpt>
<trkpt lat="49.304478" lon="9.024125">
<ele>249.0</ele>
<speed>28.0</speed>
<course>14.4</course>
<desc>Speed 28.0 km/h Distance 91.89 km</desc>
<time>2011-03-24T16:42:28.54</time>
<name>4279</name>
</trkpt>
<trkpt lat="49.304542" lon="9.024150">
<ele>250.5</ele>
<speed>26.1</speed>
<course>328.4</course>
<desc>Speed 26.1 km/h Distance 91.90 km</desc>
<time>2011-03-24T16:42:29.54</time>
<name>4280</name>
</trkpt>
<trkpt lat="49.304572" lon="9.024122">
<ele>250.5</ele>
<speed>14.6</speed>
<course>328.9</course>
<desc>Speed 14.6 km/h Distance 91.90 km</desc>
<time>2011-03-24T16:42:30.54</time>
<name>4281</name>
</trkpt>
<trkpt lat="49.304615" lon="9.024082">
<ele>249.0</ele>
<speed>19.2</speed>
<course>323.2</course>
<desc>Speed 19.2 km/h Distance 91.91 km</desc>
<time>2011-03-24T16:42:31.54</time>
<name>4282</name>
</trkpt>
<trkpt lat="49.304660" lon="9.024030">
<ele>252.0</ele>
<speed>18.5</speed>
<course>319.6</course>
<desc>Speed 18.5 km/h Distance 91.91 km</desc>
<time>2011-03-24T16:42:32.54</time>
<name>4283</name>
</trkpt>
<trkpt lat="49.304698" lon="9.023980">
<ele>251.5</ele>
<speed>19.5</speed>
<course>311.9</course>
<desc>Speed 19.5 km/h Distance 91.92 km</desc>
<time>2011-03-24T16:42:33.53</time>
<name>4284</name>
</trkpt>
<trkpt lat="49.304738" lon="9.023912">
<ele>250.0</ele>
<speed>24.5</speed>
<course>310.6</course>
<desc>Speed 24.5 km/h Distance 91.93 km</desc>
<time>2011-03-24T16:42:34.54</time>
<name>4285</name>
</trkpt>
<trkpt lat="49.304770" lon="9.023855">
<ele>250.0</ele>
<speed>24.5</speed>
<course>309.2</course>
<desc>Speed 24.5 km/h Distance 91.93 km</desc>
<time>2011-03-24T16:42:35.54</time>
<name>4286</name>
</trkpt>
<trkpt lat="49.304798" lon="9.023802">
<ele>249.5</ele>
<speed>24.5</speed>
<course>308.6</course>
<desc>Speed 24.5 km/h Distance 91.94 km</desc>
<time>2011-03-24T16:42:36.54</time>
<name>4287</name>
</trkpt>
<trkpt lat="49.304820" lon="9.023760">
<ele>249.0</ele>
<speed>24.5</speed>
<course>306.4</course>
<desc>Speed 24.5 km/h Distance 91.94 km</desc>
<time>2011-03-24T16:42:37.53</time>
<name>4288</name>
</trkpt>
<trkpt lat="49.304840" lon="9.023718">
<ele>248.0</ele>
<speed>24.5</speed>
<course>291.7</course>
<desc>Speed 24.5 km/h Distance 91.94 km</desc>
<time>2011-03-24T16:42:38.54</time>
<name>4289</name>
</trkpt>
<trkpt lat="49.304862" lon="9.023635">
<ele>247.5</ele>
<speed>24.5</speed>
<course>312.6</course>
<desc>Speed 24.5 km/h Distance 91.95 km</desc>
<time>2011-03-24T16:42:39.53</time>
<name>4290</name>
</trkpt>
<trkpt lat="49.304902" lon="9.023568">
<ele>245.0</ele>
<speed>24.5</speed>
<course>299.6</course>
<desc>Speed 24.5 km/h Distance 91.96 km</desc>
<time>2011-03-24T16:42:40.53</time>
<name>4291</name>
</trkpt>
<trkpt lat="49.304947" lon="9.023447">
<ele>244.5</ele>
<speed>29.8</speed>
<course>300.5</course>
<desc>Speed 29.8 km/h Distance 91.97 km</desc>
<time>2011-03-24T16:42:41.53</time>
<name>4292</name>
</trkpt>
<trkpt lat="49.304985" lon="9.023347">
<ele>244.5</ele>
<speed>29.8</speed>
<course>299.8</course>
<desc>Speed 29.8 km/h Distance 91.98 km</desc>
<time>2011-03-24T16:42:42.53</time>
<name>4293</name>
</trkpt>
<trkpt lat="49.305032" lon="9.023222">
<ele>243.0</ele>
<speed>30.5</speed>
<course>311.5</course>
<desc>Speed 30.5 km/h Distance 91.99 km</desc>
<time>2011-03-24T16:42:43.53</time>
<name>4294</name>
</trkpt>
<trkpt lat="49.305100" lon="9.023103">
<ele>242.5</ele>
<speed>38.0</speed>
<course>292.4</course>
<desc>Speed 38.0 km/h Distance 92.00 km</desc>
<time>2011-03-24T16:42:44.54</time>
<name>4295</name>
</trkpt>
<trkpt lat="49.305148" lon="9.022923">
<ele>243.0</ele>
<speed>44.8</speed>
<course>301.2</course>
<desc>Speed 44.8 km/h Distance 92.01 km</desc>
<time>2011-03-24T16:42:45.53</time>
<name>4296</name>
</trkpt>
<trkpt lat="49.305202" lon="9.022788">
<ele>243.0</ele>
<speed>44.8</speed>
<course>286.9</course>
<desc>Speed 44.8 km/h Distance 92.02 km</desc>
<time>2011-03-24T16:42:46.53</time>
<name>4297</name>
</trkpt>
<trkpt lat="49.305235" lon="9.022620">
<ele>242.5</ele>
<speed>41.4</speed>
<course>291.8</course>
<desc>Speed 41.4 km/h Distance 92.04 km</desc>
<time>2011-03-24T16:42:47.53</time>
<name>4298</name>
</trkpt>
<trkpt lat="49.305275" lon="9.022467">
<ele>241.5</ele>
<speed>39.0</speed>
<course>277.0</course>
<desc>Speed 39.0 km/h Distance 92.05 km</desc>
<time>2011-03-24T16:42:48.53</time>
<name>4299</name>
</trkpt>
<trkpt lat="49.305312" lon="9.022012">
<ele>240.0</ele>
<speed>45.9</speed>
<course>281.4</course>
<desc>Speed 45.9 km/h Distance 92.08 km</desc>
<time>2011-03-24T16:42:50.53</time>
<name>4300</name>
</trkpt>
<trkpt lat="49.305338" lon="9.021808">
<ele>240.0</ele>
<speed>48.7</speed>
<course>286.6</course>
<desc>Speed 48.7 km/h Distance 92.10 km</desc>
<time>2011-03-24T16:42:51.53</time>
<name>4301</name>
</trkpt>
<trkpt lat="49.305375" lon="9.021620">
<ele>240.5</ele>
<speed>46.3</speed>
<course>288.3</course>
<desc>Speed 46.3 km/h Distance 92.11 km</desc>
<time>2011-03-24T16:42:52.53</time>
<name>4302</name>
</trkpt>
<trkpt lat="49.305408" lon="9.021465">
<ele>240.5</ele>
<speed>46.3</speed>
<course>290.0</course>
<desc>Speed 46.3 km/h Distance 92.12 km</desc>
<time>2011-03-24T16:42:53.53</time>
<name>4303</name>
</trkpt>
<trkpt lat="49.305505" lon="9.021057">
<ele>239.0</ele>
<speed>48.4</speed>
<course>284.9</course>
<desc>Speed 48.4 km/h Distance 92.15 km</desc>
<time>2011-03-24T16:42:55.53</time>
<name>4304</name>
</trkpt>
<trkpt lat="49.305538" lon="9.020865">
<ele>239.5</ele>
<speed>47.5</speed>
<course>289.8</course>
<desc>Speed 47.5 km/h Distance 92.17 km</desc>
<time>2011-03-24T16:42:56.52</time>
<name>4305</name>
</trkpt>
<trkpt lat="49.305590" lon="9.020645">
<ele>238.5</ele>
<speed>53.1</speed>
<course>283.2</course>
<desc>Speed 53.1 km/h Distance 92.19 km</desc>
<time>2011-03-24T16:42:57.92</time>
<name>4306</name>
</trkpt>
<trkpt lat="49.305652" lon="9.020242">
<ele>237.0</ele>
<speed>46.1</speed>
<course>286.9</course>
<desc>Speed 46.1 km/h Distance 92.22 km</desc>
<time>2011-03-24T16:42:59.52</time>
<name>4307</name>
</trkpt>
<trkpt lat="49.305692" lon="9.020040">
<ele>237.5</ele>
<speed>47.2</speed>
<course>285.1</course>
<desc>Speed 47.2 km/h Distance 92.23 km</desc>
<time>2011-03-24T16:43:00.53</time>
<name>4308</name>
</trkpt>
<trkpt lat="49.305730" lon="9.019822">
<ele>237.5</ele>
<speed>46.8</speed>
<course>287.8</course>
<desc>Speed 46.8 km/h Distance 92.25 km</desc>
<time>2011-03-24T16:43:01.52</time>
<name>4309</name>
</trkpt>
<trkpt lat="49.305820" lon="9.019392">
<ele>243.0</ele>
<speed>48.3</speed>
<course>272.0</course>
<desc>Speed 48.3 km/h Distance 92.28 km</desc>
<time>2011-03-24T16:43:03.52</time>
<name>4310</name>
</trkpt>
<trkpt lat="49.305830" lon="9.018942">
<ele>242.0</ele>
<speed>50.2</speed>
<course>276.5</course>
<desc>Speed 50.2 km/h Distance 92.31 km</desc>
<time>2011-03-24T16:43:05.52</time>
<name>4311</name>
</trkpt>
<trkpt lat="49.305860" lon="9.018540">
<ele>242.0</ele>
<speed>52.7</speed>
<course>280.3</course>
<desc>Speed 52.7 km/h Distance 92.34 km</desc>
<time>2011-03-24T16:43:07.52</time>
<name>4312</name>
</trkpt>
<trkpt lat="49.305913" lon="9.018090">
<ele>242.0</ele>
<speed>55.8</speed>
<course>286.6</course>
<desc>Speed 55.8 km/h Distance 92.38 km</desc>
<time>2011-03-24T16:43:09.53</time>
<name>4313</name>
</trkpt>
<trkpt lat="49.306008" lon="9.017600">
<ele>242.0</ele>
<speed>64.2</speed>
<course>290.7</course>
<desc>Speed 64.2 km/h Distance 92.41 km</desc>
<time>2011-03-24T16:43:11.51</time>
<name>4314</name>
</trkpt>
<trkpt lat="49.306090" lon="9.017268">
<ele>242.0</ele>
<speed>64.2</speed>
<course>293.1</course>
<desc>Speed 64.2 km/h Distance 92.44 km</desc>
<time>2011-03-24T16:43:13.51</time>
<name>4315</name>
</trkpt>
<trkpt lat="49.306180" lon="9.016945">
<ele>242.0</ele>
<speed>64.2</speed>
<course>303.9</course>
<desc>Speed 64.2 km/h Distance 92.46 km</desc>
<time>2011-03-24T16:43:16.52</time>
<name>4316</name>
</trkpt>
<trkpt lat="49.306282" lon="9.016713">
<ele>243.0</ele>
<speed>64.2</speed>
<course>307.5</course>
<desc>Speed 64.2 km/h Distance 92.48 km</desc>
<time>2011-03-24T16:43:20.51</time>
<name>4317</name>
</trkpt>
<trkpt lat="49.306437" lon="9.016403">
<ele>243.5</ele>
<speed>61.3</speed>
<course>324.5</course>
<desc>Speed 61.3 km/h Distance 92.51 km</desc>
<time>2011-03-24T16:43:23.52</time>
<name>4318</name>
</trkpt>
<trkpt lat="49.306792" lon="9.016015">
<ele>241.5</ele>
<speed>78.0</speed>
<course>295.6</course>
<desc>Speed 78.0 km/h Distance 92.56 km</desc>
<time>2011-03-24T16:43:25.52</time>
<name>4319</name>
</trkpt>
<trkpt lat="49.307003" lon="9.015338">
<ele>240.0</ele>
<speed>98.2</speed>
<course>287.2</course>
<desc>Speed 98.2 km/h Distance 92.62 km</desc>
<time>2011-03-24T16:43:27.52</time>
<name>4320</name>
</trkpt>
<trkpt lat="49.307177" lon="9.014482">
<ele>241.0</ele>
<speed>111</speed>
<course>292.1</course>
<desc>Speed 111 km/h Distance 92.68 km</desc>
<time>2011-03-24T16:43:29.51</time>
<name>4321</name>
</trkpt>
<trkpt lat="49.307410" lon="9.013600">
<ele>243.5</ele>
<speed>120</speed>
<course>296.2</course>
<desc>Speed 120 km/h Distance 92.75 km</desc>
<time>2011-03-24T16:43:31.52</time>
<name>4322</name>
</trkpt>
<trkpt lat="49.307687" lon="9.012738">
<ele>244.5</ele>
<speed>120</speed>
<course>293.3</course>
<desc>Speed 120 km/h Distance 92.82 km</desc>
<time>2011-03-24T16:43:33.51</time>
<name>4323</name>
</trkpt>
<trkpt lat="49.307933" lon="9.011860">
<ele>243.0</ele>
<speed>120</speed>
<course>289.4</course>
<desc>Speed 120 km/h Distance 92.89 km</desc>
<time>2011-03-24T16:43:35.51</time>
<name>4324</name>
</trkpt>
<trkpt lat="49.308148" lon="9.010925">
<ele>242.5</ele>
<speed>122</speed>
<course>288.8</course>
<desc>Speed 122 km/h Distance 92.96 km</desc>
<time>2011-03-24T16:43:37.51</time>
<name>4325</name>
</trkpt>
<trkpt lat="49.308347" lon="9.010032">
<ele>242.0</ele>
<speed>119</speed>
<course>289.9</course>
<desc>Speed 119 km/h Distance 93.03 km</desc>
<time>2011-03-24T16:43:39.50</time>
<name>4326</name>
</trkpt>
<trkpt lat="49.308557" lon="9.009140">
<ele>242.0</ele>
<speed>121</speed>
<course>293.0</course>
<desc>Speed 121 km/h Distance 93.10 km</desc>
<time>2011-03-24T16:43:41.50</time>
<name>4327</name>
</trkpt>
<trkpt lat="49.308785" lon="9.008315">
<ele>242.5</ele>
<speed>121</speed>
<course>296.3</course>
<desc>Speed 121 km/h Distance 93.16 km</desc>
<time>2011-03-24T16:43:43.51</time>
<name>4328</name>
</trkpt>
<trkpt lat="49.309035" lon="9.007538">
<ele>244.0</ele>
<speed>129</speed>
<course>301.7</course>
<desc>Speed 129 km/h Distance 93.23 km</desc>
<time>2011-03-24T16:43:45.51</time>
<name>4329</name>
</trkpt>
<trkpt lat="49.309358" lon="9.006735">
<ele>244.0</ele>
<speed>113</speed>
<course>300.0</course>
<desc>Speed 113 km/h Distance 93.29 km</desc>
<time>2011-03-24T16:43:47.51</time>
<name>4330</name>
</trkpt>
<trkpt lat="49.309622" lon="9.006037">
<ele>244.5</ele>
<speed>100</speed>
<course>293.9</course>
<desc>Speed 100 km/h Distance 93.35 km</desc>
<time>2011-03-24T16:43:49.51</time>
<name>4331</name>
</trkpt>
<trkpt lat="49.309808" lon="9.005390">
<ele>246.0</ele>
<speed>89.8</speed>
<course>291.4</course>
<desc>Speed 89.8 km/h Distance 93.40 km</desc>
<time>2011-03-24T16:43:51.51</time>
<name>4332</name>
</trkpt>
<trkpt lat="49.309967" lon="9.004770">
<ele>242.5</ele>
<speed>91.3</speed>
<course>279.8</course>
<desc>Speed 91.3 km/h Distance 93.45 km</desc>
<time>2011-03-24T16:43:53.51</time>
<name>4333</name>
</trkpt>
<trkpt lat="49.310045" lon="9.004075">
<ele>241.5</ele>
<speed>88.7</speed>
<course>280.0</course>
<desc>Speed 88.7 km/h Distance 93.50 km</desc>
<time>2011-03-24T16:43:55.51</time>
<name>4334</name>
</trkpt>
<trkpt lat="49.310127" lon="9.003363">
<ele>241.0</ele>
<speed>90.2</speed>
<course>279.4</course>
<desc>Speed 90.2 km/h Distance 93.56 km</desc>
<time>2011-03-24T16:43:57.50</time>
<name>4335</name>
</trkpt>
<trkpt lat="49.310200" lon="9.002685">
<ele>241.5</ele>
<speed>88.1</speed>
<course>279.1</course>
<desc>Speed 88.1 km/h Distance 93.61 km</desc>
<time>2011-03-24T16:43:59.50</time>
<name>4336</name>
</trkpt>
<trkpt lat="49.310268" lon="9.002028">
<ele>241.0</ele>
<speed>85.1</speed>
<course>277.8</course>
<desc>Speed 85.1 km/h Distance 93.65 km</desc>
<time>2011-03-24T16:44:01.50</time>
<name>4337</name>
</trkpt>
<trkpt lat="49.310325" lon="9.001393">
<ele>240.0</ele>
<speed>81.8</speed>
<course>279.8</course>
<desc>Speed 81.8 km/h Distance 93.70 km</desc>
<time>2011-03-24T16:44:03.49</time>
<name>4338</name>
</trkpt>
<trkpt lat="49.310387" lon="9.000845">
<ele>240.5</ele>
<speed>67.3</speed>
<course>280.8</course>
<desc>Speed 67.3 km/h Distance 93.74 km</desc>
<time>2011-03-24T16:44:05.51</time>
<name>4339</name>
</trkpt>
<trkpt lat="49.310443" lon="9.000390">
<ele>241.5</ele>
<speed>53.7</speed>
<course>281.0</course>
<desc>Speed 53.7 km/h Distance 93.77 km</desc>
<time>2011-03-24T16:44:07.49</time>
<name>4340</name>
</trkpt>
<trkpt lat="49.310487" lon="9.000048">
<ele>241.0</ele>
<speed>37.9</speed>
<course>285.2</course>
<desc>Speed 37.9 km/h Distance 93.80 km</desc>
<time>2011-03-24T16:44:09.50</time>
<name>4341</name>
</trkpt>
<trkpt lat="49.310520" lon="8.999860">
<ele>240.5</ele>
<speed>18.9</speed>
<course>272.2</course>
<desc>Speed 18.9 km/h Distance 93.81 km</desc>
<time>2011-03-24T16:44:11.49</time>
<name>4342</name>
</trkpt>
<trkpt lat="49.310523" lon="8.999725">
<ele>240.5</ele>
<speed>14.4</speed>
<course>239.5</course>
<desc>Speed 14.4 km/h Distance 93.82 km</desc>
<time>2011-03-24T16:44:13.49</time>
<name>4343</name>
</trkpt>
<trkpt lat="49.310482" lon="8.999617">
<ele>240.5</ele>
<speed>14.4</speed>
<course>189.1</course>
<desc>Speed 14.4 km/h Distance 93.83 km</desc>
<time>2011-03-24T16:44:15.49</time>
<name>4344</name>
</trkpt>
<trkpt lat="49.310142" lon="8.999533">
<ele>241.0</ele>
<speed>50.7</speed>
<course>180.5</course>
<desc>Speed 50.7 km/h Distance 93.87 km</desc>
<time>2011-03-24T16:44:18.48</time>
<name>4345</name>
</trkpt>
<trkpt lat="49.309867" lon="8.999530">
<ele>241.5</ele>
<speed>55.1</speed>
<course>178.6</course>
<desc>Speed 55.1 km/h Distance 93.90 km</desc>
<time>2011-03-24T16:44:20.49</time>
<name>4346</name>
</trkpt>
<trkpt lat="49.309602" lon="8.999540">
<ele>241.5</ele>
<speed>55.1</speed>
<course>179.0</course>
<desc>Speed 55.1 km/h Distance 93.93 km</desc>
<time>2011-03-24T16:44:22.49</time>
<name>4347</name>
</trkpt>
<trkpt lat="49.309300" lon="8.999548">
<ele>241.5</ele>
<speed>62.6</speed>
<course>178.5</course>
<desc>Speed 62.6 km/h Distance 93.97 km</desc>
<time>2011-03-24T16:44:24.49</time>
<name>4348</name>
</trkpt>
<trkpt lat="49.309002" lon="8.999560">
<ele>241.5</ele>
<speed>59.1</speed>
<course>179.9</course>
<desc>Speed 59.1 km/h Distance 94.00 km</desc>
<time>2011-03-24T16:44:26.48</time>
<name>4349</name>
</trkpt>
<trkpt lat="49.308725" lon="8.999562">
<ele>243.0</ele>
<speed>56.4</speed>
<course>179.5</course>
<desc>Speed 56.4 km/h Distance 94.03 km</desc>
<time>2011-03-24T16:44:28.49</time>
<name>4350</name>
</trkpt>
<trkpt lat="49.308457" lon="8.999565">
<ele>241.5</ele>
<speed>51.9</speed>
<course>179.0</course>
<desc>Speed 51.9 km/h Distance 94.06 km</desc>
<time>2011-03-24T16:44:30.50</time>
<name>4351</name>
</trkpt>
<trkpt lat="49.308268" lon="8.999570">
<ele>241.5</ele>
<speed>51.9</speed>
<course>182.6</course>
<desc>Speed 51.9 km/h Distance 94.08 km</desc>
<time>2011-03-24T16:44:32.49</time>
<name>4352</name>
</trkpt>
<trkpt lat="49.308147" lon="8.999562">
<ele>241.5</ele>
<speed>51.9</speed>
<course>203.1</course>
<desc>Speed 51.9 km/h Distance 94.09 km</desc>
<time>2011-03-24T16:44:34.49</time>
<name>4353</name>
</trkpt>
<trkpt lat="49.308007" lon="8.999470">
<ele>241.0</ele>
<speed>51.9</speed>
<course>273.1</course>
<desc>Speed 51.9 km/h Distance 94.11 km</desc>
<time>2011-03-24T16:44:37.48</time>
<name>4354</name>
</trkpt>
<trkpt lat="49.308022" lon="8.999045">
<ele>253.5</ele>
<speed>58.2</speed>
<course>288.6</course>
<desc>Speed 58.2 km/h Distance 94.14 km</desc>
<time>2011-03-24T16:44:40.49</time>
<name>4355</name>
</trkpt>
<trkpt lat="49.308148" lon="8.998468">
<ele>248.0</ele>
<speed>60.6</speed>
<course>283.7</course>
<desc>Speed 60.6 km/h Distance 94.19 km</desc>
<time>2011-03-24T16:44:42.48</time>
<name>4356</name>
</trkpt>
<trkpt lat="49.308225" lon="8.997987">
<ele>245.5</ele>
<speed>53.9</speed>
<course>279.7</course>
<desc>Speed 53.9 km/h Distance 94.22 km</desc>
<time>2011-03-24T16:44:44.48</time>
<name>4357</name>
</trkpt>
<trkpt lat="49.308268" lon="8.997597">
<ele>243.0</ele>
<speed>48.2</speed>
<course>301.7</course>
<desc>Speed 48.2 km/h Distance 94.25 km</desc>
<time>2011-03-24T16:44:46.47</time>
<name>4358</name>
</trkpt>
<trkpt lat="49.308398" lon="8.997273">
<ele>242.5</ele>
<speed>53.1</speed>
<course>322.4</course>
<desc>Speed 53.1 km/h Distance 94.28 km</desc>
<time>2011-03-24T16:44:48.48</time>
<name>4359</name>
</trkpt>
<trkpt lat="49.308553" lon="8.997090">
<ele>242.0</ele>
<speed>38.7</speed>
<course>281.6</course>
<desc>Speed 38.7 km/h Distance 94.30 km</desc>
<time>2011-03-24T16:44:50.48</time>
<name>4360</name>
</trkpt>
<trkpt lat="49.308593" lon="8.996792">
<ele>241.0</ele>
<speed>44.5</speed>
<course>252.4</course>
<desc>Speed 44.5 km/h Distance 94.32 km</desc>
<time>2011-03-24T16:44:52.47</time>
<name>4361</name>
</trkpt>
<trkpt lat="49.308487" lon="8.996277">
<ele>241.0</ele>
<speed>70.1</speed>
<course>256.8</course>
<desc>Speed 70.1 km/h Distance 94.36 km</desc>
<time>2011-03-24T16:44:54.48</time>
<name>4362</name>
</trkpt>
<trkpt lat="49.308383" lon="8.995600">
<ele>241.0</ele>
<speed>93.3</speed>
<course>258.3</course>
<desc>Speed 93.3 km/h Distance 94.41 km</desc>
<time>2011-03-24T16:44:56.48</time>
<name>4363</name>
</trkpt>
<trkpt lat="49.308277" lon="8.994812">
<ele>243.0</ele>
<speed>111</speed>
<course>254.1</course>
<desc>Speed 111 km/h Distance 94.47 km</desc>
<time>2011-03-24T16:44:58.48</time>
<name>4364</name>
</trkpt>
<trkpt lat="49.308118" lon="8.993958">
<ele>243.0</ele>
<speed>115</speed>
<course>251.1</course>
<desc>Speed 115 km/h Distance 94.53 km</desc>
<time>2011-03-24T16:45:00.48</time>
<name>4365</name>
</trkpt>
<trkpt lat="49.307923" lon="8.993083">
<ele>243.0</ele>
<speed>119</speed>
<course>244.5</course>
<desc>Speed 119 km/h Distance 94.60 km</desc>
<time>2011-03-24T16:45:02.48</time>
<name>4366</name>
</trkpt>
<trkpt lat="49.307650" lon="8.992205">
<ele>243.5</ele>
<speed>127</speed>
<course>239.6</course>
<desc>Speed 127 km/h Distance 94.67 km</desc>
<time>2011-03-24T16:45:04.48</time>
<name>4367</name>
</trkpt>
<trkpt lat="49.307320" lon="8.991342">
<ele>242.0</ele>
<speed>129</speed>
<course>236.5</course>
<desc>Speed 129 km/h Distance 94.74 km</desc>
<time>2011-03-24T16:45:06.47</time>
<name>4368</name>
</trkpt>
<trkpt lat="49.306900" lon="8.990367">
<ele>242.5</ele>
<speed>129</speed>
<course>211.3</course>
<desc>Speed 129 km/h Distance 94.83 km</desc>
<time>2011-03-24T16:45:10.48</time>
<name>4369</name>
</trkpt>
<trkpt lat="49.306193" lon="8.989708">
<ele>243.0</ele>
<speed>134</speed>
<course>205.2</course>
<desc>Speed 134 km/h Distance 94.92 km</desc>
<time>2011-03-24T16:45:13.47</time>
<name>4370</name>
</trkpt>
<trkpt lat="49.305622" lon="8.989297">
<ele>246.0</ele>
<speed>121</speed>
<course>207.0</course>
<desc>Speed 121 km/h Distance 94.99 km</desc>
<time>2011-03-24T16:45:15.48</time>
<name>4371</name>
</trkpt>
<trkpt lat="49.305058" lon="8.988857">
<ele>250.0</ele>
<speed>114</speed>
<course>205.5</course>
<desc>Speed 114 km/h Distance 95.06 km</desc>
<time>2011-03-24T16:45:17.47</time>
<name>4372</name>
</trkpt>
<trkpt lat="49.304560" lon="8.988492">
<ele>251.0</ele>
<speed>101</speed>
<course>205.2</course>
<desc>Speed 101 km/h Distance 95.12 km</desc>
<time>2011-03-24T16:45:19.47</time>
<name>4373</name>
</trkpt>
<trkpt lat="49.304097" lon="8.988157">
<ele>253.5</ele>
<speed>88.3</speed>
<course>207.0</course>
<desc>Speed 88.3 km/h Distance 95.18 km</desc>
<time>2011-03-24T16:45:21.46</time>
<name>4374</name>
</trkpt>
<trkpt lat="49.303665" lon="8.987820">
<ele>256.0</ele>
<speed>92.6</speed>
<course>213.7</course>
<desc>Speed 92.6 km/h Distance 95.23 km</desc>
<time>2011-03-24T16:45:23.47</time>
<name>4375</name>
</trkpt>
<trkpt lat="49.303282" lon="8.987428">
<ele>256.0</ele>
<speed>83.2</speed>
<course>234.7</course>
<desc>Speed 83.2 km/h Distance 95.29 km</desc>
<time>2011-03-24T16:45:25.48</time>
<name>4376</name>
</trkpt>
<trkpt lat="49.302977" lon="8.986767">
<ele>257.5</ele>
<speed>89.4</speed>
<course>244.1</course>
<desc>Speed 89.4 km/h Distance 95.34 km</desc>
<time>2011-03-24T16:45:27.47</time>
<name>4377</name>
</trkpt>
<trkpt lat="49.302775" lon="8.986130">
<ele>257.0</ele>
<speed>86.1</speed>
<course>254.9</course>
<desc>Speed 86.1 km/h Distance 95.40 km</desc>
<time>2011-03-24T16:45:29.47</time>
<name>4378</name>
</trkpt>
<trkpt lat="49.302670" lon="8.985535">
<ele>256.5</ele>
<speed>87.7</speed>
<course>269.8</course>
<desc>Speed 87.7 km/h Distance 95.44 km</desc>
<time>2011-03-24T16:45:31.47</time>
<name>4379</name>
</trkpt>
<trkpt lat="49.302668" lon="8.984748">
<ele>258.0</ele>
<speed>99.9</speed>
<course>276.2</course>
<desc>Speed 99.9 km/h Distance 95.50 km</desc>
<time>2011-03-24T16:45:33.47</time>
<name>4380</name>
</trkpt>
<trkpt lat="49.302720" lon="8.984023">
<ele>257.5</ele>
<speed>95.8</speed>
<course>279.3</course>
<desc>Speed 95.8 km/h Distance 95.55 km</desc>
<time>2011-03-24T16:45:35.46</time>
<name>4381</name>
</trkpt>
<trkpt lat="49.302797" lon="8.983308">
<ele>258.5</ele>
<speed>91.4</speed>
<course>273.9</course>
<desc>Speed 91.4 km/h Distance 95.60 km</desc>
<time>2011-03-24T16:45:37.47</time>
<name>4382</name>
</trkpt>
<trkpt lat="49.302828" lon="8.982588">
<ele>260.0</ele>
<speed>94.1</speed>
<course>266.5</course>
<desc>Speed 94.1 km/h Distance 95.66 km</desc>
<time>2011-03-24T16:45:39.46</time>
<name>4383</name>
</trkpt>
<trkpt lat="49.302803" lon="8.981967">
<ele>260.5</ele>
<speed>84.1</speed>
<course>246.2</course>
<desc>Speed 84.1 km/h Distance 95.70 km</desc>
<time>2011-03-24T16:45:41.46</time>
<name>4384</name>
</trkpt>
<trkpt lat="49.302585" lon="8.981208">
<ele>263.0</ele>
<speed>89.4</speed>
<course>242.2</course>
<desc>Speed 89.4 km/h Distance 95.76 km</desc>
<time>2011-03-24T16:45:43.45</time>
<name>4385</name>
</trkpt>
<trkpt lat="49.302387" lon="8.980632">
<ele>263.0</ele>
<speed>89.4</speed>
<course>238.1</course>
<desc>Speed 89.4 km/h Distance 95.81 km</desc>
<time>2011-03-24T16:45:45.45</time>
<name>4386</name>
</trkpt>
<trkpt lat="49.302163" lon="8.980082">
<ele>261.5</ele>
<speed>89.4</speed>
<course>235.7</course>
<desc>Speed 89.4 km/h Distance 95.86 km</desc>
<time>2011-03-24T16:45:48.46</time>
<name>4387</name>
</trkpt>
<trkpt lat="49.301978" lon="8.979665">
<ele>265.5</ele>
<speed>89.4</speed>
<course>217.0</course>
<desc>Speed 89.4 km/h Distance 95.89 km</desc>
<time>2011-03-24T16:45:50.47</time>
<name>4388</name>
</trkpt>
<trkpt lat="49.300877" lon="8.978393">
<ele>265.5</ele>
<speed>130</speed>
<course>214.1</course>
<desc>Speed 130 km/h Distance 96.05 km</desc>
<time>2011-03-24T16:45:54.45</time>
<name>4389</name>
</trkpt>
<trkpt lat="49.299837" lon="8.977313">
<ele>263.5</ele>
<speed>119</speed>
<course>226.0</course>
<desc>Speed 119 km/h Distance 96.19 km</desc>
<time>2011-03-24T16:45:57.44</time>
<name>4390</name>
</trkpt>
<trkpt lat="49.299370" lon="8.976572">
<ele>258.0</ele>
<speed>107</speed>
<course>229.0</course>
<desc>Speed 107 km/h Distance 96.26 km</desc>
<time>2011-03-24T16:45:59.46</time>
<name>4391</name>
</trkpt>
<trkpt lat="49.298982" lon="8.975887">
<ele>253.5</ele>
<speed>105</speed>
<course>231.0</course>
<desc>Speed 105 km/h Distance 96.33 km</desc>
<time>2011-03-24T16:46:01.46</time>
<name>4392</name>
</trkpt>
<trkpt lat="49.298630" lon="8.975220">
<ele>250.5</ele>
<speed>102</speed>
<course>235.6</course>
<desc>Speed 102 km/h Distance 96.39 km</desc>
<time>2011-03-24T16:46:03.44</time>
<name>4393</name>
</trkpt>
<trkpt lat="49.298337" lon="8.974563">
<ele>250.0</ele>
<speed>95.8</speed>
<course>240.1</course>
<desc>Speed 95.8 km/h Distance 96.45 km</desc>
<time>2011-03-24T16:46:05.44</time>
<name>4394</name>
</trkpt>
<trkpt lat="49.298090" lon="8.973905">
<ele>249.0</ele>
<speed>97.4</speed>
<course>240.0</course>
<desc>Speed 97.4 km/h Distance 96.50 km</desc>
<time>2011-03-24T16:46:07.45</time>
<name>4395</name>
</trkpt>
<trkpt lat="49.297837" lon="8.973232">
<ele>245.5</ele>
<speed>99.6</speed>
<course>242.7</course>
<desc>Speed 99.6 km/h Distance 96.56 km</desc>
<time>2011-03-24T16:46:09.45</time>
<name>4396</name>
</trkpt>
<trkpt lat="49.297597" lon="8.972520">
<ele>243.5</ele>
<speed>100</speed>
<course>241.2</course>
<desc>Speed 100 km/h Distance 96.62 km</desc>
<time>2011-03-24T16:46:11.45</time>
<name>4397</name>
</trkpt>
<trkpt lat="49.297348" lon="8.971827">
<ele>240.0</ele>
<speed>95.3</speed>
<course>238.8</course>
<desc>Speed 95.3 km/h Distance 96.67 km</desc>
<time>2011-03-24T16:46:13.44</time>
<name>4398</name>
</trkpt>
<trkpt lat="49.297115" lon="8.971235">
<ele>237.0</ele>
<speed>81.8</speed>
<course>235.8</course>
<desc>Speed 81.8 km/h Distance 96.72 km</desc>
<time>2011-03-24T16:46:15.43</time>
<name>4399</name>
</trkpt>
<trkpt lat="49.296893" lon="8.970735">
<ele>233.0</ele>
<speed>74.2</speed>
<course>234.9</course>
<desc>Speed 74.2 km/h Distance 96.77 km</desc>
<time>2011-03-24T16:46:17.44</time>
<name>4400</name>
</trkpt>
<trkpt lat="49.296678" lon="8.970267">
<ele>229.5</ele>
<speed>70.6</speed>
<course>230.6</course>
<desc>Speed 70.6 km/h Distance 96.81 km</desc>
<time>2011-03-24T16:46:19.44</time>
<name>4401</name>
</trkpt>
<trkpt lat="49.296463" lon="8.969865">
<ele>228.5</ele>
<speed>62.9</speed>
<course>227.4</course>
<desc>Speed 62.9 km/h Distance 96.85 km</desc>
<time>2011-03-24T16:46:21.44</time>
<name>4402</name>
</trkpt>
<trkpt lat="49.296248" lon="8.969507">
<ele>225.5</ele>
<speed>59.5</speed>
<course>229.2</course>
<desc>Speed 59.5 km/h Distance 96.88 km</desc>
<time>2011-03-24T16:46:23.44</time>
<name>4403</name>
</trkpt>
<trkpt lat="49.296063" lon="8.969178">
<ele>224.5</ele>
<speed>53.6</speed>
<course>233.2</course>
<desc>Speed 53.6 km/h Distance 96.91 km</desc>
<time>2011-03-24T16:46:25.43</time>
<name>4404</name>
</trkpt>
<trkpt lat="49.295907" lon="8.968857">
<ele>224.5</ele>
<speed>50.3</speed>
<course>253.4</course>
<desc>Speed 50.3 km/h Distance 96.94 km</desc>
<time>2011-03-24T16:46:27.42</time>
<name>4405</name>
</trkpt>
<trkpt lat="49.295840" lon="8.968513">
<ele>225.5</ele>
<speed>42.4</speed>
<course>249.6</course>
<desc>Speed 42.4 km/h Distance 96.97 km</desc>
<time>2011-03-24T16:46:29.44</time>
<name>4406</name>
</trkpt>
<trkpt lat="49.295765" lon="8.968203">
<ele>226.0</ele>
<speed>39.8</speed>
<course>247.9</course>
<desc>Speed 39.8 km/h Distance 96.99 km</desc>
<time>2011-03-24T16:46:31.42</time>
<name>4407</name>
</trkpt>
<trkpt lat="49.295703" lon="8.967970">
<ele>226.5</ele>
<speed>28.2</speed>
<course>253.5</course>
<desc>Speed 28.2 km/h Distance 97.01 km</desc>
<time>2011-03-24T16:46:33.44</time>
<name>4408</name>
</trkpt>
<trkpt lat="49.295660" lon="8.967745">
<ele>228.5</ele>
<speed>31.5</speed>
<course>264.1</course>
<desc>Speed 31.5 km/h Distance 97.03 km</desc>
<time>2011-03-24T16:46:35.43</time>
<name>4409</name>
</trkpt>
<trkpt lat="49.295640" lon="8.967448">
<ele>227.5</ele>
<speed>38.6</speed>
<course>267.8</course>
<desc>Speed 38.6 km/h Distance 97.05 km</desc>
<time>2011-03-24T16:46:37.42</time>
<name>4410</name>
</trkpt>
<trkpt lat="49.295630" lon="8.967048">
<ele>230.0</ele>
<speed>54.4</speed>
<course>266.4</course>
<desc>Speed 54.4 km/h Distance 97.08 km</desc>
<time>2011-03-24T16:46:39.42</time>
<name>4411</name>
</trkpt>
<trkpt lat="49.295612" lon="8.966597">
<ele>230.5</ele>
<speed>60.0</speed>
<course>265.6</course>
<desc>Speed 60.0 km/h Distance 97.11 km</desc>
<time>2011-03-24T16:46:41.42</time>
<name>4412</name>
</trkpt>
<trkpt lat="49.295588" lon="8.966127">
<ele>231.0</ele>
<speed>61.2</speed>
<course>263.5</course>
<desc>Speed 61.2 km/h Distance 97.15 km</desc>
<time>2011-03-24T16:46:43.42</time>
<name>4413</name>
</trkpt>
<trkpt lat="49.295553" lon="8.965658">
<ele>232.0</ele>
<speed>61.2</speed>
<course>260.3</course>
<desc>Speed 61.2 km/h Distance 97.18 km</desc>
<time>2011-03-24T16:46:45.41</time>
<name>4414</name>
</trkpt>
<trkpt lat="49.295503" lon="8.965210">
<ele>232.0</ele>
<speed>60.1</speed>
<course>260.0</course>
<desc>Speed 60.1 km/h Distance 97.21 km</desc>
<time>2011-03-24T16:46:47.42</time>
<name>4415</name>
</trkpt>
<trkpt lat="49.295452" lon="8.964760">
<ele>232.5</ele>
<speed>58.6</speed>
<course>256.8</course>
<desc>Speed 58.6 km/h Distance 97.25 km</desc>
<time>2011-03-24T16:46:49.41</time>
<name>4416</name>
</trkpt>
<trkpt lat="49.295387" lon="8.964337">
<ele>233.0</ele>
<speed>55.8</speed>
<course>257.6</course>
<desc>Speed 55.8 km/h Distance 97.28 km</desc>
<time>2011-03-24T16:46:51.41</time>
<name>4417</name>
</trkpt>
<trkpt lat="49.295328" lon="8.963928">
<ele>234.5</ele>
<speed>52.9</speed>
<course>262.3</course>
<desc>Speed 52.9 km/h Distance 97.31 km</desc>
<time>2011-03-24T16:46:53.42</time>
<name>4418</name>
</trkpt>
<trkpt lat="49.295292" lon="8.963512">
<ele>234.5</ele>
<speed>55.2</speed>
<course>255.6</course>
<desc>Speed 55.2 km/h Distance 97.34 km</desc>
<time>2011-03-24T16:46:55.42</time>
<name>4419</name>
</trkpt>
<trkpt lat="49.295222" lon="8.963095">
<ele>235.0</ele>
<speed>55.8</speed>
<course>256.7</course>
<desc>Speed 55.8 km/h Distance 97.37 km</desc>
<time>2011-03-24T16:46:57.41</time>
<name>4420</name>
</trkpt>
<trkpt lat="49.295157" lon="8.962675">
<ele>233.5</ele>
<speed>57.0</speed>
<course>242.0</course>
<desc>Speed 57.0 km/h Distance 97.40 km</desc>
<time>2011-03-24T16:46:59.41</time>
<name>4421</name>
</trkpt>
<trkpt lat="49.295038" lon="8.962333">
<ele>236.0</ele>
<speed>57.0</speed>
<course>247.1</course>
<desc>Speed 57.0 km/h Distance 97.43 km</desc>
<time>2011-03-24T16:47:01.41</time>
<name>4422</name>
</trkpt>
<trkpt lat="49.294933" lon="8.961952">
<ele>231.0</ele>
<speed>53.7</speed>
<course>234.8</course>
<desc>Speed 53.7 km/h Distance 97.46 km</desc>
<time>2011-03-24T16:47:03.41</time>
<name>4423</name>
</trkpt>
<trkpt lat="49.294782" lon="8.961622">
<ele>231.5</ele>
<speed>51.4</speed>
<course>234.3</course>
<desc>Speed 51.4 km/h Distance 97.49 km</desc>
<time>2011-03-24T16:47:05.40</time>
<name>4424</name>
</trkpt>
<trkpt lat="49.294643" lon="8.961327">
<ele>231.0</ele>
<speed>44.6</speed>
<course>234.9</course>
<desc>Speed 44.6 km/h Distance 97.51 km</desc>
<time>2011-03-24T16:47:07.42</time>
<name>4425</name>
</trkpt>
<trkpt lat="49.294525" lon="8.961068">
<ele>231.0</ele>
<speed>36.6</speed>
<course>249.7</course>
<desc>Speed 36.6 km/h Distance 97.54 km</desc>
<time>2011-03-24T16:47:09.41</time>
<name>4426</name>
</trkpt>
<trkpt lat="49.294478" lon="8.960875">
<ele>230.5</ele>
<speed>25.1</speed>
<course>255.0</course>
<desc>Speed 25.1 km/h Distance 97.55 km</desc>
<time>2011-03-24T16:47:11.41</time>
<name>4427</name>
</trkpt>
<trkpt lat="49.294448" lon="8.960703">
<ele>227.5</ele>
<speed>16.1</speed>
<course>237.2</course>
<desc>Speed 16.1 km/h Distance 97.57 km</desc>
<time>2011-03-24T16:47:13.41</time>
<name>4428</name>
</trkpt>
<trkpt lat="49.294413" lon="8.960620">
<ele>227.0</ele>
<speed>16.1</speed>
<course>156.2</course>
<desc>Speed 16.1 km/h Distance 97.57 km</desc>
<time>2011-03-24T16:47:15.41</time>
<name>4429</name>
</trkpt>
<trkpt lat="49.294300" lon="8.960697">
<ele>227.5</ele>
<speed>27.9</speed>
<course>182.8</course>
<desc>Speed 27.9 km/h Distance 97.59 km</desc>
<time>2011-03-24T16:47:17.40</time>
<name>4430</name>
</trkpt>
<trkpt lat="49.294123" lon="8.960683">
<ele>226.0</ele>
<speed>35.1</speed>
<course>168.7</course>
<desc>Speed 35.1 km/h Distance 97.61 km</desc>
<time>2011-03-24T16:47:19.41</time>
<name>4431</name>
</trkpt>
<trkpt lat="49.293943" lon="8.960738">
<ele>226.0</ele>
<speed>37.0</speed>
<course>169.2</course>
<desc>Speed 37.0 km/h Distance 97.63 km</desc>
<time>2011-03-24T16:47:21.40</time>
<name>4432</name>
</trkpt>
<trkpt lat="49.293727" lon="8.960802">
<ele>225.5</ele>
<speed>43.8</speed>
<course>171.4</course>
<desc>Speed 43.8 km/h Distance 97.65 km</desc>
<time>2011-03-24T16:47:23.41</time>
<name>4433</name>
</trkpt>
<trkpt lat="49.293518" lon="8.960850">
<ele>226.0</ele>
<speed>48.0</speed>
<course>172.6</course>
<desc>Speed 48.0 km/h Distance 97.67 km</desc>
<time>2011-03-24T16:47:25.40</time>
<name>4434</name>
</trkpt>
<trkpt lat="49.293343" lon="8.960885">
<ele>226.5</ele>
<speed>48.0</speed>
<course>165.2</course>
<desc>Speed 48.0 km/h Distance 97.69 km</desc>
<time>2011-03-24T16:47:27.41</time>
<name>4435</name>
</trkpt>
<trkpt lat="49.293162" lon="8.960958">
<ele>226.5</ele>
<speed>43.9</speed>
<course>170.2</course>
<desc>Speed 43.9 km/h Distance 97.72 km</desc>
<time>2011-03-24T16:47:29.41</time>
<name>4436</name>
</trkpt>
<trkpt lat="49.292992" lon="8.961003">
<ele>227.0</ele>
<speed>43.9</speed>
<course>168.6</course>
<desc>Speed 43.9 km/h Distance 97.73 km</desc>
<time>2011-03-24T16:47:31.42</time>
<name>4437</name>
</trkpt>
<trkpt lat="49.292873" lon="8.961040">
<ele>227.0</ele>
<speed>43.9</speed>
<course>195.3</course>
<desc>Speed 43.9 km/h Distance 97.75 km</desc>
<time>2011-03-24T16:47:33.40</time>
<name>4438</name>
</trkpt>
<trkpt lat="49.292727" lon="8.960978">
<ele>226.0</ele>
<speed>43.9</speed>
<course>216.3</course>
<desc>Speed 43.9 km/h Distance 97.76 km</desc>
<time>2011-03-24T16:47:35.40</time>
<name>4439</name>
</trkpt>
<trkpt lat="49.292473" lon="8.960693">
<ele>223.0</ele>
<speed>43.4</speed>
<course>193.9</course>
<desc>Speed 43.4 km/h Distance 97.80 km</desc>
<time>2011-03-24T16:47:37.40</time>
<name>4440</name>
</trkpt>
<trkpt lat="49.292240" lon="8.960605">
<ele>224.5</ele>
<speed>42.2</speed>
<course>192.6</course>
<desc>Speed 42.2 km/h Distance 97.83 km</desc>
<time>2011-03-24T16:47:39.40</time>
<name>4441</name>
</trkpt>
<trkpt lat="49.292007" lon="8.960525">
<ele>225.5</ele>
<speed>36.4</speed>
<course>209.8</course>
<desc>Speed 36.4 km/h Distance 97.85 km</desc>
<time>2011-03-24T16:47:41.39</time>
<name>4442</name>
</trkpt>
<trkpt lat="49.291872" lon="8.960407">
<ele>225.5</ele>
<speed>36.4</speed>
<course>217.6</course>
<desc>Speed 36.4 km/h Distance 97.87 km</desc>
<time>2011-03-24T16:47:43.39</time>
<name>4443</name>
</trkpt>
<trkpt lat="49.291770" lon="8.960287">
<ele>223.5</ele>
<speed>36.4</speed>
<course>220.8</course>
<desc>Speed 36.4 km/h Distance 97.88 km</desc>
<time>2011-03-24T16:47:45.39</time>
<name>4444</name>
</trkpt>
<trkpt lat="49.291558" lon="8.960007">
<ele>221.0</ele>
<speed>40.9</speed>
<course>216.9</course>
<desc>Speed 40.9 km/h Distance 97.92 km</desc>
<time>2011-03-24T16:47:47.39</time>
<name>4445</name>
</trkpt>
<trkpt lat="49.291403" lon="8.959828">
<ele>220.0</ele>
<speed>40.9</speed>
<course>180.7</course>
<desc>Speed 40.9 km/h Distance 97.94 km</desc>
<time>2011-03-24T16:47:49.39</time>
<name>4446</name>
</trkpt>
<trkpt lat="49.291243" lon="8.959825">
<ele>212.5</ele>
<speed>40.9</speed>
<course>192.7</course>
<desc>Speed 40.9 km/h Distance 97.96 km</desc>
<time>2011-03-24T16:47:51.40</time>
<name>4447</name>
</trkpt>
<trkpt lat="49.291037" lon="8.959753">
<ele>212.0</ele>
<speed>40.9</speed>
<course>196.1</course>
<desc>Speed 40.9 km/h Distance 97.98 km</desc>
<time>2011-03-24T16:47:53.39</time>
<name>4448</name>
</trkpt>
<trkpt lat="49.290908" lon="8.959697">
<ele>211.5</ele>
<speed>40.9</speed>
<course>166.6</course>
<desc>Speed 40.9 km/h Distance 97.99 km</desc>
<time>2011-03-24T16:47:55.39</time>
<name>4449</name>
</trkpt>
<trkpt lat="49.290640" lon="8.959795">
<ele>222.0</ele>
<speed>40.9</speed>
<course>181.2</course>
<desc>Speed 40.9 km/h Distance 98.02 km</desc>
<time>2011-03-24T16:47:57.92</time>
<name>4450</name>
</trkpt>
<trkpt lat="49.290482" lon="8.959790">
<ele>227.5</ele>
<speed>40.9</speed>
<course>171.7</course>
<desc>Speed 40.9 km/h Distance 98.04 km</desc>
<time>2011-03-24T16:47:59.39</time>
<name>4451</name>
</trkpt>
<trkpt lat="49.290318" lon="8.959827">
<ele>228.0</ele>
<speed>40.9</speed>
<course>171.6</course>
<desc>Speed 40.9 km/h Distance 98.06 km</desc>
<time>2011-03-24T16:48:01.39</time>
<name>4452</name>
</trkpt>
<trkpt lat="49.290113" lon="8.959873">
<ele>227.5</ele>
<speed>50.5</speed>
<course>189.2</course>
<desc>Speed 50.5 km/h Distance 98.08 km</desc>
<time>2011-03-24T16:48:03.38</time>
<name>4453</name>
</trkpt>
<trkpt lat="49.289737" lon="8.959780">
<ele>237.0</ele>
<speed>51.4</speed>
<course>162.0</course>
<desc>Speed 51.4 km/h Distance 98.13 km</desc>
<time>2011-03-24T16:48:05.38</time>
<name>4454</name>
</trkpt>
<trkpt lat="49.289147" lon="8.960073">
<ele>252.5</ele>
<speed>59.4</speed>
<course>180.8</course>
<desc>Speed 59.4 km/h Distance 98.20 km</desc>
<time>2011-03-24T16:48:08.38</time>
<name>4455</name>
</trkpt>
<trkpt lat="49.288823" lon="8.960067">
<ele>253.5</ele>
<speed>58.8</speed>
<course>175.0</course>
<desc>Speed 58.8 km/h Distance 98.23 km</desc>
<time>2011-03-24T16:48:10.38</time>
<name>4456</name>
</trkpt>
<trkpt lat="49.288513" lon="8.960108">
<ele>253.5</ele>
<speed>63.4</speed>
<course>163.1</course>
<desc>Speed 63.4 km/h Distance 98.27 km</desc>
<time>2011-03-24T16:48:12.38</time>
<name>4457</name>
</trkpt>
<trkpt lat="49.288162" lon="8.960272">
<ele>251.0</ele>
<speed>69.1</speed>
<course>157.1</course>
<desc>Speed 69.1 km/h Distance 98.31 km</desc>
<time>2011-03-24T16:48:14.38</time>
<name>4458</name>
</trkpt>
<trkpt lat="49.287827" lon="8.960488">
<ele>248.5</ele>
<speed>63.3</speed>
<course>169.9</course>
<desc>Speed 63.3 km/h Distance 98.35 km</desc>
<time>2011-03-24T16:48:16.37</time>
<name>4459</name>
</trkpt>
<trkpt lat="49.287502" lon="8.960577">
<ele>250.5</ele>
<speed>60.4</speed>
<course>179.7</course>
<desc>Speed 60.4 km/h Distance 98.38 km</desc>
<time>2011-03-24T16:48:18.38</time>
<name>4460</name>
</trkpt>
<trkpt lat="49.287127" lon="8.960580">
<ele>250.0</ele>
<speed>79.1</speed>
<course>185.8</course>
<desc>Speed 79.1 km/h Distance 98.43 km</desc>
<time>2011-03-24T16:48:20.37</time>
<name>4461</name>
</trkpt>
<trkpt lat="49.286688" lon="8.960512">
<ele>249.5</ele>
<speed>86.4</speed>
<course>179.8</course>
<desc>Speed 86.4 km/h Distance 98.47 km</desc>
<time>2011-03-24T16:48:22.38</time>
<name>4462</name>
</trkpt>
<trkpt lat="49.286232" lon="8.960513">
<ele>250.5</ele>
<speed>89.8</speed>
<course>169.4</course>
<desc>Speed 89.8 km/h Distance 98.53 km</desc>
<time>2011-03-24T16:48:24.38</time>
<name>4463</name>
</trkpt>
<trkpt lat="49.285755" lon="8.960650">
<ele>250.5</ele>
<speed>103</speed>
<course>161.8</course>
<desc>Speed 103 km/h Distance 98.58 km</desc>
<time>2011-03-24T16:48:26.38</time>
<name>4464</name>
</trkpt>
<trkpt lat="49.285273" lon="8.960893">
<ele>247.0</ele>
<speed>96.2</speed>
<course>157.7</course>
<desc>Speed 96.2 km/h Distance 98.64 km</desc>
<time>2011-03-24T16:48:28.37</time>
<name>4465</name>
</trkpt>
<trkpt lat="49.284830" lon="8.961172">
<ele>244.0</ele>
<speed>97.1</speed>
<course>147.8</course>
<desc>Speed 97.1 km/h Distance 98.69 km</desc>
<time>2011-03-24T16:48:30.37</time>
<name>4466</name>
</trkpt>
<trkpt lat="49.284440" lon="8.961548">
<ele>243.5</ele>
<speed>95.0</speed>
<course>146.1</course>
<desc>Speed 95.0 km/h Distance 98.74 km</desc>
<time>2011-03-24T16:48:32.37</time>
<name>4467</name>
</trkpt>
<trkpt lat="49.284155" lon="8.961842">
<ele>244.0</ele>
<speed>95.0</speed>
<course>159.9</course>
<desc>Speed 95.0 km/h Distance 98.78 km</desc>
<time>2011-03-24T16:48:34.37</time>
<name>4468</name>
</trkpt>
<trkpt lat="49.283515" lon="8.962202">
<ele>245.0</ele>
<speed>95.0</speed>
<course>165.5</course>
<desc>Speed 95.0 km/h Distance 98.85 km</desc>
<time>2011-03-24T16:48:39.37</time>
<name>4469</name>
</trkpt>
<trkpt lat="49.281610" lon="8.962958">
<ele>247.5</ele>
<speed>111</speed>
<course>154.8</course>
<desc>Speed 111 km/h Distance 99.07 km</desc>
<time>2011-03-24T16:48:44.35</time>
<name>4470</name>
</trkpt>
<trkpt lat="49.281062" lon="8.963353">
<ele>248.0</ele>
<speed>105</speed>
<course>167.3</course>
<desc>Speed 105 km/h Distance 99.14 km</desc>
<time>2011-03-24T16:48:46.36</time>
<name>4471</name>
</trkpt>
<trkpt lat="49.280457" lon="8.963562">
<ele>247.0</ele>
<speed>94.3</speed>
<course>163.6</course>
<desc>Speed 94.3 km/h Distance 99.21 km</desc>
<time>2011-03-24T16:48:49.35</time>
<name>4472</name>
</trkpt>
<trkpt lat="49.280032" lon="8.963753">
<ele>247.0</ele>
<speed>78.2</speed>
<course>155.7</course>
<desc>Speed 78.2 km/h Distance 99.26 km</desc>
<time>2011-03-24T16:48:51.35</time>
<name>4473</name>
</trkpt>
<trkpt lat="49.279638" lon="8.964025">
<ele>246.5</ele>
<speed>80.2</speed>
<course>150.5</course>
<desc>Speed 80.2 km/h Distance 99.31 km</desc>
<time>2011-03-24T16:48:53.35</time>
<name>4474</name>
</trkpt>
<trkpt lat="49.279265" lon="8.964348">
<ele>246.0</ele>
<speed>90.3</speed>
<course>143.3</course>
<desc>Speed 90.3 km/h Distance 99.36 km</desc>
<time>2011-03-24T16:48:55.35</time>
<name>4475</name>
</trkpt>
<trkpt lat="49.278988" lon="8.964665">
<ele>245.5</ele>
<speed>90.3</speed>
<course>125.0</course>
<desc>Speed 90.3 km/h Distance 99.39 km</desc>
<time>2011-03-24T16:48:57.34</time>
<name>4476</name>
</trkpt>
<trkpt lat="49.278492" lon="8.965752">
<ele>244.0</ele>
<speed>90.3</speed>
<course>124.8</course>
<desc>Speed 90.3 km/h Distance 99.49 km</desc>
<time>2011-03-24T16:49:01.34</time>
<name>4477</name>
</trkpt>
<trkpt lat="49.278280" lon="8.966218">
<ele>244.5</ele>
<speed>90.3</speed>
<course>124.2</course>
<desc>Speed 90.3 km/h Distance 99.53 km</desc>
<time>2011-03-24T16:49:03.35</time>
<name>4478</name>
</trkpt>
<trkpt lat="49.277330" lon="8.968358">
<ele>248.5</ele>
<speed>100</speed>
<course>131.3</course>
<desc>Speed 100 km/h Distance 99.72 km</desc>
<time>2011-03-24T16:49:08.35</time>
<name>4479</name>
</trkpt>
<trkpt lat="49.276882" lon="8.969142">
<ele>249.5</ele>
<speed>83.0</speed>
<course>136.9</course>
<desc>Speed 83.0 km/h Distance 99.80 km</desc>
<time>2011-03-24T16:49:12.34</time>
<name>4480</name>
</trkpt>
<trkpt lat="49.276583" lon="8.969570">
<ele>249.5</ele>
<speed>83.0</speed>
<course>134.6</course>
<desc>Speed 83.0 km/h Distance 99.84 km</desc>
<time>2011-03-24T16:49:14.34</time>
<name>4481</name>
</trkpt>
<trkpt lat="49.276298" lon="8.970013">
<ele>250.0</ele>
<speed>107</speed>
<course>137.3</course>
<desc>Speed 107 km/h Distance 99.89 km</desc>
<time>2011-03-24T16:49:16.33</time>
<name>4482</name>
</trkpt>
<trkpt lat="49.275927" lon="8.970538">
<ele>251.0</ele>
<speed>98.8</speed>
<course>144.9</course>
<desc>Speed 98.8 km/h Distance 99.94 km</desc>
<time>2011-03-24T16:49:18.34</time>
<name>4483</name>
</trkpt>
<trkpt lat="49.275578" lon="8.970913">
<ele>251.0</ele>
<speed>85.1</speed>
<course>142.4</course>
<desc>Speed 85.1 km/h Distance 99.99 km</desc>
<time>2011-03-24T16:49:20.33</time>
<name>4484</name>
</trkpt>
<trkpt lat="49.275210" lon="8.971348">
<ele>251.5</ele>
<speed>85.1</speed>
<course>159.5</course>
<desc>Speed 85.1 km/h Distance 100 km</desc>
<time>2011-03-24T16:49:22.33</time>
<name>4485</name>
</trkpt>
<trkpt lat="49.274902" lon="8.971525">
<ele>253.5</ele>
<speed>85.1</speed>
<course>165.1</course>
<desc>Speed 85.1 km/h Distance 100 km</desc>
<time>2011-03-24T16:49:24.33</time>
<name>4486</name>
</trkpt>
<trkpt lat="49.274468" lon="8.971702">
<ele>255.5</ele>
<speed>72.7</speed>
<course>172.3</course>
<desc>Speed 72.7 km/h Distance 100 km</desc>
<time>2011-03-24T16:49:27.33</time>
<name>4487</name>
</trkpt>
<trkpt lat="49.274018" lon="8.971795">
<ele>257.5</ele>
<speed>81.9</speed>
<course>189.1</course>
<desc>Speed 81.9 km/h Distance 100 km</desc>
<time>2011-03-24T16:49:29.33</time>
<name>4488</name>
</trkpt>
<trkpt lat="49.273568" lon="8.971685">
<ele>260.5</ele>
<speed>84.7</speed>
<course>176.8</course>
<desc>Speed 84.7 km/h Distance 100 km</desc>
<time>2011-03-24T16:49:31.33</time>
<name>4489</name>
</trkpt>
<trkpt lat="49.273088" lon="8.971727">
<ele>264.5</ele>
<speed>72.7</speed>
<course>182.1</course>
<desc>Speed 72.7 km/h Distance 100 km</desc>
<time>2011-03-24T16:49:33.33</time>
<name>4490</name>
</trkpt>
<trkpt lat="49.272702" lon="8.971705">
<ele>265.0</ele>
<speed>70.9</speed>
<course>191.0</course>
<desc>Speed 70.9 km/h Distance 100 km</desc>
<time>2011-03-24T16:49:35.33</time>
<name>4491</name>
</trkpt>
<trkpt lat="49.272338" lon="8.971597">
<ele>265.0</ele>
<speed>63.0</speed>
<course>195.5</course>
<desc>Speed 63.0 km/h Distance 100 km</desc>
<time>2011-03-24T16:49:37.33</time>
<name>4492</name>
</trkpt>
<trkpt lat="49.272043" lon="8.971472">
<ele>266.5</ele>
<speed>47.7</speed>
<course>166.1</course>
<desc>Speed 47.7 km/h Distance 100 km</desc>
<time>2011-03-24T16:49:39.33</time>
<name>4493</name>
</trkpt>
<trkpt lat="49.271785" lon="8.971570">
<ele>266.5</ele>
<speed>47.7</speed>
<course>159.2</course>
<desc>Speed 47.7 km/h Distance 100 km</desc>
<time>2011-03-24T16:49:41.32</time>
<name>4494</name>
</trkpt>
<trkpt lat="49.271505" lon="8.971733">
<ele>267.0</ele>
<speed>47.7</speed>
<course>177.1</course>
<desc>Speed 47.7 km/h Distance 100 km</desc>
<time>2011-03-24T16:49:43.33</time>
<name>4495</name>
</trkpt>
<trkpt lat="49.271137" lon="8.971762">
<ele>267.0</ele>
<speed>66.0</speed>
<course>188.1</course>
<desc>Speed 66.0 km/h Distance 100 km</desc>
<time>2011-03-24T16:49:45.33</time>
<name>4496</name>
</trkpt>
<trkpt lat="49.270793" lon="8.971687">
<ele>269.0</ele>
<speed>58.4</speed>
<course>171.7</course>
<desc>Speed 58.4 km/h Distance 100 km</desc>
<time>2011-03-24T16:49:47.32</time>
<name>4497</name>
</trkpt>
<trkpt lat="49.270448" lon="8.971763">
<ele>270.5</ele>
<speed>64.2</speed>
<course>173.1</course>
<desc>Speed 64.2 km/h Distance 100 km</desc>
<time>2011-03-24T16:49:49.32</time>
<name>4498</name>
</trkpt>
<trkpt lat="49.270100" lon="8.971828">
<ele>272.5</ele>
<speed>65.4</speed>
<course>179.3</course>
<desc>Speed 65.4 km/h Distance 100 km</desc>
<time>2011-03-24T16:49:51.32</time>
<name>4499</name>
</trkpt>
<trkpt lat="49.269730" lon="8.971835">
<ele>275.5</ele>
<speed>69.7</speed>
<course>178.9</course>
<desc>Speed 69.7 km/h Distance 100 km</desc>
<time>2011-03-24T16:49:53.32</time>
<name>4500</name>
</trkpt>
<trkpt lat="49.269383" lon="8.971845">
<ele>278.5</ele>
<speed>63.1</speed>
<course>175.1</course>
<desc>Speed 63.1 km/h Distance 100 km</desc>
<time>2011-03-24T16:49:55.32</time>
<name>4501</name>
</trkpt>
<trkpt lat="49.269077" lon="8.971885">
<ele>281.5</ele>
<speed>57.9</speed>
<course>167.5</course>
<desc>Speed 57.9 km/h Distance 100 km</desc>
<time>2011-03-24T16:49:57.32</time>
<name>4502</name>
</trkpt>
<trkpt lat="49.268762" lon="8.971992">
<ele>282.0</ele>
<speed>60.4</speed>
<course>165.5</course>
<desc>Speed 60.4 km/h Distance 100 km</desc>
<time>2011-03-24T16:49:59.32</time>
<name>4503</name>
</trkpt>
<trkpt lat="49.268488" lon="8.972100">
<ele>282.5</ele>
<speed>45.0</speed>
<course>164.9</course>
<desc>Speed 45.0 km/h Distance 100 km</desc>
<time>2011-03-24T16:50:01.32</time>
<name>4504</name>
</trkpt>
<trkpt lat="49.268263" lon="8.972193">
<ele>284.0</ele>
<speed>45.0</speed>
<course>193.7</course>
<desc>Speed 45.0 km/h Distance 100 km</desc>
<time>2011-03-24T16:50:03.32</time>
<name>4505</name>
</trkpt>
<trkpt lat="49.268120" lon="8.972140">
<ele>284.5</ele>
<speed>45.0</speed>
<course>228.4</course>
<desc>Speed 45.0 km/h Distance 100 km</desc>
<time>2011-03-24T16:50:05.31</time>
<name>4506</name>
</trkpt>
<trkpt lat="49.267822" lon="8.971625">
<ele>283.0</ele>
<speed>84.3</speed>
<course>227.0</course>
<desc>Speed 84.3 km/h Distance 100 km</desc>
<time>2011-03-24T16:50:08.31</time>
<name>4507</name>
</trkpt>
<trkpt lat="49.267543" lon="8.971168">
<ele>280.0</ele>
<speed>87.7</speed>
<course>217.9</course>
<desc>Speed 87.7 km/h Distance 100 km</desc>
<time>2011-03-24T16:50:10.31</time>
<name>4508</name>
</trkpt>
<trkpt lat="49.267100" lon="8.970640">
<ele>278.5</ele>
<speed>112</speed>
<course>214.1</course>
<desc>Speed 112 km/h Distance 101 km</desc>
<time>2011-03-24T16:50:12.32</time>
<name>4509</name>
</trkpt>
<trkpt lat="49.266537" lon="8.970055">
<ele>290.5</ele>
<speed>116</speed>
<course>215.2</course>
<desc>Speed 116 km/h Distance 101 km</desc>
<time>2011-03-24T16:50:14.32</time>
<name>4510</name>
</trkpt>
<trkpt lat="49.266030" lon="8.969507">
<ele>298.0</ele>
<speed>121</speed>
<course>219.6</course>
<desc>Speed 121 km/h Distance 101 km</desc>
<time>2011-03-24T16:50:16.32</time>
<name>4511</name>
</trkpt>
<trkpt lat="49.265593" lon="8.968953">
<ele>308.0</ele>
<speed>105</speed>
<course>220.1</course>
<desc>Speed 105 km/h Distance 101 km</desc>
<time>2011-03-24T16:50:18.32</time>
<name>4512</name>
</trkpt>
<trkpt lat="49.265170" lon="8.968407">
<ele>312.5</ele>
<speed>105</speed>
<course>230.7</course>
<desc>Speed 105 km/h Distance 101 km</desc>
<time>2011-03-24T16:50:20.31</time>
<name>4513</name>
</trkpt>
<trkpt lat="49.264863" lon="8.967833">
<ele>313.0</ele>
<speed>112</speed>
<course>244.5</course>
<desc>Speed 112 km/h Distance 101 km</desc>
<time>2011-03-24T16:50:22.32</time>
<name>4514</name>
</trkpt>
<trkpt lat="49.264615" lon="8.967037">
<ele>313.0</ele>
<speed>112</speed>
<course>248.2</course>
<desc>Speed 112 km/h Distance 101 km</desc>
<time>2011-03-24T16:50:24.31</time>
<name>4515</name>
</trkpt>
<trkpt lat="49.264400" lon="8.966213">
<ele>314.0</ele>
<speed>114</speed>
<course>249.1</course>
<desc>Speed 114 km/h Distance 101 km</desc>
<time>2011-03-24T16:50:26.31</time>
<name>4516</name>
</trkpt>
<trkpt lat="49.264188" lon="8.965363">
<ele>315.5</ele>
<speed>113</speed>
<course>249.9</course>
<desc>Speed 113 km/h Distance 101 km</desc>
<time>2011-03-24T16:50:28.30</time>
<name>4517</name>
</trkpt>
<trkpt lat="49.263987" lon="8.964518">
<ele>314.0</ele>
<speed>114</speed>
<course>253.9</course>
<desc>Speed 114 km/h Distance 101 km</desc>
<time>2011-03-24T16:50:30.30</time>
<name>4518</name>
</trkpt>
<trkpt lat="49.263818" lon="8.963627">
<ele>312.5</ele>
<speed>118</speed>
<course>255.7</course>
<desc>Speed 118 km/h Distance 101 km</desc>
<time>2011-03-24T16:50:32.31</time>
<name>4519</name>
</trkpt>
<trkpt lat="49.263670" lon="8.962733">
<ele>310.5</ele>
<speed>116</speed>
<course>257.2</course>
<desc>Speed 116 km/h Distance 101 km</desc>
<time>2011-03-24T16:50:34.31</time>
<name>4520</name>
</trkpt>
<trkpt lat="49.263550" lon="8.961922">
<ele>309.0</ele>
<speed>105</speed>
<course>259.1</course>
<desc>Speed 105 km/h Distance 101 km</desc>
<time>2011-03-24T16:50:36.31</time>
<name>4521</name>
</trkpt>
<trkpt lat="49.263475" lon="8.961323">
<ele>310.5</ele>
<speed>82.0</speed>
<course>262.5</course>
<desc>Speed 82.0 km/h Distance 101 km</desc>
<time>2011-03-24T16:50:38.31</time>
<name>4522</name>
</trkpt>
<trkpt lat="49.263425" lon="8.960745">
<ele>311.0</ele>
<speed>70.1</speed>
<course>257.1</course>
<desc>Speed 70.1 km/h Distance 101 km</desc>
<time>2011-03-24T16:50:40.30</time>
<name>4523</name>
</trkpt>
<trkpt lat="49.263353" lon="8.960267">
<ele>313.5</ele>
<speed>60.9</speed>
<course>247.1</course>
<desc>Speed 60.9 km/h Distance 101 km</desc>
<time>2011-03-24T16:50:42.30</time>
<name>4524</name>
</trkpt>
<trkpt lat="49.263245" lon="8.959873">
<ele>312.5</ele>
<speed>54.1</speed>
<course>237.2</course>
<desc>Speed 54.1 km/h Distance 101 km</desc>
<time>2011-03-24T16:50:44.30</time>
<name>4525</name>
</trkpt>
<trkpt lat="49.263097" lon="8.959520">
<ele>313.0</ele>
<speed>54.3</speed>
<course>236.9</course>
<desc>Speed 54.3 km/h Distance 101 km</desc>
<time>2011-03-24T16:50:46.29</time>
<name>4526</name>
</trkpt>
<trkpt lat="49.262948" lon="8.959172">
<ele>312.0</ele>
<speed>52.6</speed>
<course>233.8</course>
<desc>Speed 52.6 km/h Distance 101 km</desc>
<time>2011-03-24T16:50:48.30</time>
<name>4527</name>
</trkpt>
<trkpt lat="49.262793" lon="8.958847">
<ele>310.0</ele>
<speed>49.9</speed>
<course>234.1</course>
<desc>Speed 49.9 km/h Distance 102 km</desc>
<time>2011-03-24T16:50:50.30</time>
<name>4528</name>
</trkpt>
<trkpt lat="49.262650" lon="8.958543">
<ele>310.0</ele>
<speed>46.9</speed>
<course>244.2</course>
<desc>Speed 46.9 km/h Distance 102 km</desc>
<time>2011-03-24T16:50:52.30</time>
<name>4529</name>
</trkpt>
<trkpt lat="49.262548" lon="8.958222">
<ele>308.5</ele>
<speed>45.4</speed>
<course>230.4</course>
<desc>Speed 45.4 km/h Distance 102 km</desc>
<time>2011-03-24T16:50:54.29</time>
<name>4530</name>
</trkpt>
<trkpt lat="49.262458" lon="8.958055">
<ele>309.5</ele>
<speed>18.0</speed>
<course>249.5</course>
<desc>Speed 18.0 km/h Distance 102 km</desc>
<time>2011-03-24T16:50:56.28</time>
<name>4531</name>
</trkpt>
<trkpt lat="49.262408" lon="8.957850">
<ele>310.0</ele>
<speed>30.0</speed>
<course>281.9</course>
<desc>Speed 30.0 km/h Distance 102 km</desc>
<time>2011-03-24T16:50:58.29</time>
<name>4532</name>
</trkpt>
<trkpt lat="49.262457" lon="8.957498">
<ele>310.0</ele>
<speed>50.3</speed>
<course>280.6</course>
<desc>Speed 50.3 km/h Distance 102 km</desc>
<time>2011-03-24T16:51:00.29</time>
<name>4533</name>
</trkpt>
<trkpt lat="49.262500" lon="8.957145">
<ele>308.5</ele>
<speed>48.8</speed>
<course>291.9</course>
<desc>Speed 48.8 km/h Distance 102 km</desc>
<time>2011-03-24T16:51:02.29</time>
<name>4534</name>
</trkpt>
<trkpt lat="49.262587" lon="8.956815">
<ele>308.5</ele>
<speed>44.5</speed>
<course>295.0</course>
<desc>Speed 44.5 km/h Distance 102 km</desc>
<time>2011-03-24T16:51:04.29</time>
<name>4535</name>
</trkpt>
<trkpt lat="49.262662" lon="8.956568">
<ele>309.5</ele>
<speed>44.5</speed>
<course>300.4</course>
<desc>Speed 44.5 km/h Distance 102 km</desc>
<time>2011-03-24T16:51:06.28</time>
<name>4536</name>
</trkpt>
<trkpt lat="49.262743" lon="8.956355">
<ele>305.5</ele>
<speed>44.5</speed>
<course>312.0</course>
<desc>Speed 44.5 km/h Distance 102 km</desc>
<time>2011-03-24T16:51:08.28</time>
<name>4537</name>
</trkpt>
<trkpt lat="49.262843" lon="8.956185">
<ele>300.0</ele>
<speed>44.5</speed>
<course>297.9</course>
<desc>Speed 44.5 km/h Distance 102 km</desc>
<time>2011-03-24T16:51:10.28</time>
<name>4538</name>
</trkpt>
<trkpt lat="49.262927" lon="8.955943">
<ele>299.0</ele>
<speed>53.3</speed>
<course>287.3</course>
<desc>Speed 53.3 km/h Distance 102 km</desc>
<time>2011-03-24T16:51:12.28</time>
<name>4539</name>
</trkpt>
<trkpt lat="49.263013" lon="8.955517">
<ele>298.0</ele>
<speed>51.2</speed>
<course>280.4</course>
<desc>Speed 51.2 km/h Distance 102 km</desc>
<time>2011-03-24T16:51:14.28</time>
<name>4540</name>
</trkpt>
<trkpt lat="49.263077" lon="8.954988">
<ele>294.5</ele>
<speed>50.7</speed>
<course>280.0</course>
<desc>Speed 50.7 km/h Distance 102 km</desc>
<time>2011-03-24T16:51:16.27</time>
<name>4541</name>
</trkpt>
<trkpt lat="49.263125" lon="8.954570">
<ele>292.5</ele>
<speed>50.7</speed>
<course>279.3</course>
<desc>Speed 50.7 km/h Distance 102 km</desc>
<time>2011-03-24T16:51:18.27</time>
<name>4542</name>
</trkpt>
<trkpt lat="49.263152" lon="8.954320">
<ele>292.5</ele>
<speed>50.7</speed>
<course>257.5</course>
<desc>Speed 50.7 km/h Distance 102 km</desc>
<time>2011-03-24T16:51:20.27</time>
<name>4543</name>
</trkpt>
<trkpt lat="49.263085" lon="8.953860">
<ele>294.5</ele>
<speed>52.1</speed>
<course>251.2</course>
<desc>Speed 52.1 km/h Distance 102 km</desc>
<time>2011-03-24T16:51:22.27</time>
<name>4544</name>
</trkpt>
<trkpt lat="49.262958" lon="8.953290">
<ele>304.0</ele>
<speed>53.5</speed>
<course>254.5</course>
<desc>Speed 53.5 km/h Distance 102 km</desc>
<time>2011-03-24T16:51:24.27</time>
<name>4545</name>
</trkpt>
<trkpt lat="49.262915" lon="8.953050">
<ele>305.5</ele>
<speed>53.9</speed>
<course>254.8</course>
<desc>Speed 53.9 km/h Distance 102 km</desc>
<time>2011-03-24T16:51:25.27</time>
<name>4546</name>
</trkpt>
<trkpt lat="49.262878" lon="8.952843">
<ele>307.5</ele>
<speed>55.5</speed>
<course>256.8</course>
<desc>Speed 55.5 km/h Distance 102 km</desc>
<time>2011-03-24T16:51:26.27</time>
<name>4547</name>
</trkpt>
<trkpt lat="49.262840" lon="8.952593">
<ele>307.5</ele>
<speed>60.1</speed>
<course>264.2</course>
<desc>Speed 60.1 km/h Distance 102 km</desc>
<time>2011-03-24T16:51:27.27</time>
<name>4548</name>
</trkpt>
<trkpt lat="49.262802" lon="8.952017">
<ele>305.5</ele>
<speed>68.0</speed>
<course>266.5</course>
<desc>Speed 68.0 km/h Distance 102 km</desc>
<time>2011-03-24T16:51:29.27</time>
<name>4549</name>
</trkpt>
<trkpt lat="49.262793" lon="8.951807">
<ele>305.5</ele>
<speed>68.0</speed>
<course>268.4</course>
<desc>Speed 68.0 km/h Distance 102 km</desc>
<time>2011-03-24T16:51:30.27</time>
<name>4550</name>
</trkpt>
<trkpt lat="49.262782" lon="8.951150">
<ele>306.0</ele>
<speed>83.1</speed>
<course>274.3</course>
<desc>Speed 83.1 km/h Distance 102 km</desc>
<time>2011-03-24T16:51:32.26</time>
<name>4551</name>
</trkpt>
<trkpt lat="49.262818" lon="8.950402">
<ele>305.5</ele>
<speed>95.1</speed>
<course>279.3</course>
<desc>Speed 95.1 km/h Distance 102 km</desc>
<time>2011-03-24T16:51:34.26</time>
<name>4552</name>
</trkpt>
<trkpt lat="49.262860" lon="8.950010">
<ele>307.0</ele>
<speed>100</speed>
<course>280.6</course>
<desc>Speed 100 km/h Distance 102 km</desc>
<time>2011-03-24T16:51:35.26</time>
<name>4553</name>
</trkpt>
<trkpt lat="49.262900" lon="8.949682">
<ele>308.5</ele>
<speed>100</speed>
<course>279.4</course>
<desc>Speed 100 km/h Distance 102 km</desc>
<time>2011-03-24T16:51:36.25</time>
<name>4554</name>
</trkpt>
<trkpt lat="49.262943" lon="8.949280">
<ele>310.0</ele>
<speed>101</speed>
<course>274.8</course>
<desc>Speed 101 km/h Distance 102 km</desc>
<time>2011-03-24T16:51:37.26</time>
<name>4555</name>
</trkpt>
<trkpt lat="49.262967" lon="8.948853">
<ele>310.5</ele>
<speed>108</speed>
<course>280.0</course>
<desc>Speed 108 km/h Distance 102 km</desc>
<time>2011-03-24T16:51:38.26</time>
<name>4556</name>
</trkpt>
<trkpt lat="49.263015" lon="8.948433">
<ele>310.5</ele>
<speed>108</speed>
<course>285.4</course>
<desc>Speed 108 km/h Distance 102 km</desc>
<time>2011-03-24T16:51:39.26</time>
<name>4557</name>
</trkpt>
<trkpt lat="49.263085" lon="8.948043">
<ele>310.5</ele>
<speed>102</speed>
<course>287.6</course>
<desc>Speed 102 km/h Distance 102 km</desc>
<time>2011-03-24T16:51:40.26</time>
<name>4558</name>
</trkpt>
<trkpt lat="49.263230" lon="8.947343">
<ele>311.5</ele>
<speed>105</speed>
<course>286.7</course>
<desc>Speed 105 km/h Distance 102 km</desc>
<time>2011-03-24T16:51:42.27</time>
<name>4559</name>
</trkpt>
<trkpt lat="49.263355" lon="8.946703">
<ele>311.5</ele>
<speed>91.8</speed>
<course>273.2</course>
<desc>Speed 91.8 km/h Distance 102 km</desc>
<time>2011-03-24T16:51:44.26</time>
<name>4560</name>
</trkpt>
<trkpt lat="49.263387" lon="8.945822">
<ele>305.0</ele>
<speed>101</speed>
<course>257.1</course>
<desc>Speed 101 km/h Distance 103 km</desc>
<time>2011-03-24T16:51:46.25</time>
<name>4561</name>
</trkpt>
<trkpt lat="49.263328" lon="8.945432">
<ele>304.5</ele>
<speed>102</speed>
<course>256.4</course>
<desc>Speed 102 km/h Distance 103 km</desc>
<time>2011-03-24T16:51:47.37</time>
<name>4562</name>
</trkpt>
<trkpt lat="49.263195" lon="8.944590">
<ele>304.0</ele>
<speed>116</speed>
<course>252.2</course>
<desc>Speed 116 km/h Distance 103 km</desc>
<time>2011-03-24T16:51:49.26</time>
<name>4563</name>
</trkpt>
<trkpt lat="49.263023" lon="8.943768">
<ele>304.5</ele>
<speed>127</speed>
<course>247.8</course>
<desc>Speed 127 km/h Distance 103 km</desc>
<time>2011-03-24T16:51:51.26</time>
<name>4564</name>
</trkpt>
<trkpt lat="49.262902" lon="8.943312">
<ele>305.0</ele>
<speed>125</speed>
<course>243.3</course>
<desc>Speed 125 km/h Distance 103 km</desc>
<time>2011-03-24T16:51:52.26</time>
<name>4565</name>
</trkpt>
<trkpt lat="49.262758" lon="8.942875">
<ele>305.0</ele>
<speed>127</speed>
<course>242.1</course>
<desc>Speed 127 km/h Distance 103 km</desc>
<time>2011-03-24T16:51:53.25</time>
<name>4566</name>
</trkpt>
<trkpt lat="49.262608" lon="8.942440">
<ele>305.0</ele>
<speed>126</speed>
<course>241.0</course>
<desc>Speed 126 km/h Distance 103 km</desc>
<time>2011-03-24T16:51:54.25</time>
<name>4567</name>
</trkpt>
<trkpt lat="49.262455" lon="8.942017">
<ele>304.5</ele>
<speed>127</speed>
<course>237.3</course>
<desc>Speed 127 km/h Distance 103 km</desc>
<time>2011-03-24T16:51:55.26</time>
<name>4568</name>
</trkpt>
<trkpt lat="49.262113" lon="8.941200">
<ele>303.0</ele>
<speed>125</speed>
<course>239.0</course>
<desc>Speed 125 km/h Distance 103 km</desc>
<time>2011-03-24T16:51:57.25</time>
<name>4569</name>
</trkpt>
<trkpt lat="49.261950" lon="8.940783">
<ele>303.0</ele>
<speed>126</speed>
<course>238.4</course>
<desc>Speed 126 km/h Distance 103 km</desc>
<time>2011-03-24T16:51:58.25</time>
<name>4570</name>
</trkpt>
<trkpt lat="49.261785" lon="8.940372">
<ele>302.0</ele>
<speed>125</speed>
<course>237.4</course>
<desc>Speed 125 km/h Distance 103 km</desc>
<time>2011-03-24T16:51:59.25</time>
<name>4571</name>
</trkpt>
<trkpt lat="49.261615" lon="8.939965">
<ele>301.5</ele>
<speed>125</speed>
<course>236.4</course>
<desc>Speed 125 km/h Distance 103 km</desc>
<time>2011-03-24T16:52:00.25</time>
<name>4572</name>
</trkpt>
<trkpt lat="49.261440" lon="8.939562">
<ele>300.0</ele>
<speed>124</speed>
<course>236.7</course>
<desc>Speed 124 km/h Distance 103 km</desc>
<time>2011-03-24T16:52:01.25</time>
<name>4573</name>
</trkpt>
<trkpt lat="49.261267" lon="8.939157">
<ele>296.0</ele>
<speed>116</speed>
<course>236.0</course>
<desc>Speed 116 km/h Distance 103 km</desc>
<time>2011-03-24T16:52:02.25</time>
<name>4574</name>
</trkpt>
<trkpt lat="49.261103" lon="8.938785">
<ele>294.5</ele>
<speed>113</speed>
<course>235.7</course>
<desc>Speed 113 km/h Distance 103 km</desc>
<time>2011-03-24T16:52:03.24</time>
<name>4575</name>
</trkpt>
<trkpt lat="49.260938" lon="8.938415">
<ele>294.0</ele>
<speed>114</speed>
<course>235.6</course>
<desc>Speed 114 km/h Distance 103 km</desc>
<time>2011-03-24T16:52:04.25</time>
<name>4576</name>
</trkpt>
<trkpt lat="49.260772" lon="8.938042">
<ele>294.0</ele>
<speed>116</speed>
<course>234.7</course>
<desc>Speed 116 km/h Distance 103 km</desc>
<time>2011-03-24T16:52:05.25</time>
<name>4577</name>
</trkpt>
<trkpt lat="49.260602" lon="8.937673">
<ele>293.0</ele>
<speed>118</speed>
<course>233.4</course>
<desc>Speed 118 km/h Distance 103 km</desc>
<time>2011-03-24T16:52:06.25</time>
<name>4578</name>
</trkpt>
<trkpt lat="49.260422" lon="8.937302">
<ele>292.5</ele>
<speed>118</speed>
<course>232.0</course>
<desc>Speed 118 km/h Distance 103 km</desc>
<time>2011-03-24T16:52:07.25</time>
<name>4579</name>
</trkpt>
<trkpt lat="49.260240" lon="8.936945">
<ele>291.5</ele>
<speed>117</speed>
<course>233.2</course>
<desc>Speed 117 km/h Distance 103 km</desc>
<time>2011-03-24T16:52:08.25</time>
<name>4580</name>
</trkpt>
<trkpt lat="49.260075" lon="8.936607">
<ele>289.5</ele>
<speed>110</speed>
<course>235.3</course>
<desc>Speed 110 km/h Distance 103 km</desc>
<time>2011-03-24T16:52:09.24</time>
<name>4581</name>
</trkpt>
<trkpt lat="49.259923" lon="8.936272">
<ele>289.0</ele>
<speed>106</speed>
<course>237.8</course>
<desc>Speed 106 km/h Distance 103 km</desc>
<time>2011-03-24T16:52:10.24</time>
<name>4582</name>
</trkpt>
<trkpt lat="49.259777" lon="8.935915">
<ele>288.5</ele>
<speed>110</speed>
<course>243.3</course>
<desc>Speed 110 km/h Distance 103 km</desc>
<time>2011-03-24T16:52:11.25</time>
<name>4583</name>
</trkpt>
<trkpt lat="49.259647" lon="8.935518">
<ele>288.5</ele>
<speed>117</speed>
<course>244.4</course>
<desc>Speed 117 km/h Distance 103 km</desc>
<time>2011-03-24T16:52:12.24</time>
<name>4584</name>
</trkpt>
<trkpt lat="49.259520" lon="8.935113">
<ele>288.5</ele>
<speed>119</speed>
<course>244.6</course>
<desc>Speed 119 km/h Distance 103 km</desc>
<time>2011-03-24T16:52:13.24</time>
<name>4585</name>
</trkpt>
<trkpt lat="49.259392" lon="8.934698">
<ele>288.5</ele>
<speed>122</speed>
<course>245.3</course>
<desc>Speed 122 km/h Distance 103 km</desc>
<time>2011-03-24T16:52:14.24</time>
<name>4586</name>
</trkpt>
<trkpt lat="49.259270" lon="8.934293">
<ele>288.0</ele>
<speed>120</speed>
<course>246.1</course>
<desc>Speed 120 km/h Distance 103 km</desc>
<time>2011-03-24T16:52:15.24</time>
<name>4587</name>
</trkpt>
<trkpt lat="49.259153" lon="8.933890">
<ele>287.0</ele>
<speed>116</speed>
<course>244.0</course>
<desc>Speed 116 km/h Distance 104 km</desc>
<time>2011-03-24T16:52:16.23</time>
<name>4588</name>
</trkpt>
<trkpt lat="49.259028" lon="8.933497">
<ele>287.0</ele>
<speed>115</speed>
<course>245.8</course>
<desc>Speed 115 km/h Distance 104 km</desc>
<time>2011-03-24T16:52:17.24</time>
<name>4589</name>
</trkpt>
<trkpt lat="49.258913" lon="8.933105">
<ele>286.5</ele>
<speed>113</speed>
<course>248.2</course>
<desc>Speed 113 km/h Distance 104 km</desc>
<time>2011-03-24T16:52:18.24</time>
<name>4590</name>
</trkpt>
<trkpt lat="49.258807" lon="8.932697">
<ele>285.0</ele>
<speed>117</speed>
<course>255.0</course>
<desc>Speed 117 km/h Distance 104 km</desc>
<time>2011-03-24T16:52:19.24</time>
<name>4591</name>
</trkpt>
<trkpt lat="49.258725" lon="8.932228">
<ele>285.0</ele>
<speed>128</speed>
<course>253.4</course>
<desc>Speed 128 km/h Distance 104 km</desc>
<time>2011-03-24T16:52:20.24</time>
<name>4592</name>
</trkpt>
<trkpt lat="49.258633" lon="8.931757">
<ele>284.5</ele>
<speed>129</speed>
<course>251.6</course>
<desc>Speed 129 km/h Distance 104 km</desc>
<time>2011-03-24T16:52:21.24</time>
<name>4593</name>
</trkpt>
<trkpt lat="49.258527" lon="8.931267">
<ele>284.5</ele>
<speed>135</speed>
<course>253.7</course>
<desc>Speed 135 km/h Distance 104 km</desc>
<time>2011-03-24T16:52:22.24</time>
<name>4594</name>
</trkpt>
<trkpt lat="49.258432" lon="8.930770">
<ele>284.0</ele>
<speed>137</speed>
<course>253.7</course>
<desc>Speed 137 km/h Distance 104 km</desc>
<time>2011-03-24T16:52:23.23</time>
<name>4595</name>
</trkpt>
<trkpt lat="49.258338" lon="8.930280">
<ele>284.0</ele>
<speed>134</speed>
<course>250.9</course>
<desc>Speed 134 km/h Distance 104 km</desc>
<time>2011-03-24T16:52:24.23</time>
<name>4596</name>
</trkpt>
<trkpt lat="49.258045" lon="8.928982">
<ele>283.5</ele>
<speed>111</speed>
<course>247.4</course>
<desc>Speed 111 km/h Distance 104 km</desc>
<time>2011-03-24T16:52:27.23</time>
<name>4597</name>
</trkpt>
<trkpt lat="49.257942" lon="8.928602">
<ele>282.5</ele>
<speed>109</speed>
<course>238.9</course>
<desc>Speed 109 km/h Distance 104 km</desc>
<time>2011-03-24T16:52:28.23</time>
<name>4598</name>
</trkpt>
<trkpt lat="49.257808" lon="8.928263">
<ele>282.5</ele>
<speed>105</speed>
<course>240.0</course>
<desc>Speed 105 km/h Distance 104 km</desc>
<time>2011-03-24T16:52:29.23</time>
<name>4599</name>
</trkpt>
<trkpt lat="49.257685" lon="8.927937">
<ele>282.0</ele>
<speed>100</speed>
<course>234.6</course>
<desc>Speed 100 km/h Distance 104 km</desc>
<time>2011-03-24T16:52:30.23</time>
<name>4600</name>
</trkpt>
<trkpt lat="49.257547" lon="8.927638">
<ele>281.5</ele>
<speed>96.1</speed>
<course>228.7</course>
<desc>Speed 96.1 km/h Distance 104 km</desc>
<time>2011-03-24T16:52:31.23</time>
<name>4601</name>
</trkpt>
<trkpt lat="49.257377" lon="8.927342">
<ele>279.0</ele>
<speed>98.9</speed>
<course>231.2</course>
<desc>Speed 98.9 km/h Distance 104 km</desc>
<time>2011-03-24T16:52:32.22</time>
<name>4602</name>
</trkpt>
<trkpt lat="49.257222" lon="8.927047">
<ele>278.5</ele>
<speed>98.7</speed>
<course>227.9</course>
<desc>Speed 98.7 km/h Distance 104 km</desc>
<time>2011-03-24T16:52:33.23</time>
<name>4603</name>
</trkpt>
<trkpt lat="49.257073" lon="8.926795">
<ele>277.5</ele>
<speed>87.6</speed>
<course>223.1</course>
<desc>Speed 87.6 km/h Distance 104 km</desc>
<time>2011-03-24T16:52:34.23</time>
<name>4604</name>
</trkpt>
<trkpt lat="49.256903" lon="8.926552">
<ele>277.0</ele>
<speed>93.5</speed>
<course>221.1</course>
<desc>Speed 93.5 km/h Distance 104 km</desc>
<time>2011-03-24T16:52:35.23</time>
<name>4605</name>
</trkpt>
<trkpt lat="49.256647" lon="8.926208">
<ele>276.0</ele>
<speed>93.5</speed>
<course>205.2</course>
<desc>Speed 93.5 km/h Distance 104 km</desc>
<time>2011-03-24T16:52:37.23</time>
<name>4606</name>
</trkpt>
<trkpt lat="49.256425" lon="8.926048">
<ele>276.0</ele>
<speed>100</speed>
<course>202.5</course>
<desc>Speed 100 km/h Distance 104 km</desc>
<time>2011-03-24T16:52:38.23</time>
<name>4607</name>
</trkpt>
<trkpt lat="49.256175" lon="8.925890">
<ele>276.0</ele>
<speed>110</speed>
<course>200.6</course>
<desc>Speed 110 km/h Distance 104 km</desc>
<time>2011-03-24T16:52:39.23</time>
<name>4608</name>
</trkpt>
<trkpt lat="49.255908" lon="8.925737">
<ele>274.5</ele>
<speed>115</speed>
<course>197.3</course>
<desc>Speed 115 km/h Distance 104 km</desc>
<time>2011-03-24T16:52:40.23</time>
<name>4609</name>
</trkpt>
<trkpt lat="49.255615" lon="8.925597">
<ele>274.0</ele>
<speed>124</speed>
<course>194.1</course>
<desc>Speed 124 km/h Distance 104 km</desc>
<time>2011-03-24T16:52:41.23</time>
<name>4610</name>
</trkpt>
<trkpt lat="49.255307" lon="8.925478">
<ele>273.0</ele>
<speed>128</speed>
<course>191.3</course>
<desc>Speed 128 km/h Distance 104 km</desc>
<time>2011-03-24T16:52:42.23</time>
<name>4611</name>
</trkpt>
<trkpt lat="49.254975" lon="8.925377">
<ele>271.0</ele>
<speed>136</speed>
<course>189.6</course>
<desc>Speed 136 km/h Distance 104 km</desc>
<time>2011-03-24T16:52:43.23</time>
<name>4612</name>
</trkpt>
<trkpt lat="49.254627" lon="8.925287">
<ele>269.0</ele>
<speed>141</speed>
<course>185.6</course>
<desc>Speed 141 km/h Distance 104 km</desc>
<time>2011-03-24T16:52:44.23</time>
<name>4613</name>
</trkpt>
<trkpt lat="49.254273" lon="8.925233">
<ele>268.5</ele>
<speed>142</speed>
<course>193.6</course>
<desc>Speed 142 km/h Distance 104 km</desc>
<time>2011-03-24T16:52:45.23</time>
<name>4614</name>
</trkpt>
<trkpt lat="49.253922" lon="8.925103">
<ele>268.5</ele>
<speed>147</speed>
<course>189.7</course>
<desc>Speed 147 km/h Distance 104 km</desc>
<time>2011-03-24T16:52:46.23</time>
<name>4615</name>
</trkpt>
<trkpt lat="49.253572" lon="8.925012">
<ele>268.0</ele>
<speed>145</speed>
<course>189.1</course>
<desc>Speed 145 km/h Distance 104 km</desc>
<time>2011-03-24T16:52:47.23</time>
<name>4616</name>
</trkpt>
<trkpt lat="49.253223" lon="8.924927">
<ele>268.0</ele>
<speed>142</speed>
<course>191.7</course>
<desc>Speed 142 km/h Distance 105 km</desc>
<time>2011-03-24T16:52:48.23</time>
<name>4617</name>
</trkpt>
<trkpt lat="49.252877" lon="8.924817">
<ele>267.5</ele>
<speed>144</speed>
<course>192.7</course>
<desc>Speed 144 km/h Distance 105 km</desc>
<time>2011-03-24T16:52:49.23</time>
<name>4618</name>
</trkpt>
<trkpt lat="49.252533" lon="8.924698">
<ele>267.0</ele>
<speed>141</speed>
<course>192.1</course>
<desc>Speed 141 km/h Distance 105 km</desc>
<time>2011-03-24T16:52:50.23</time>
<name>4619</name>
</trkpt>
<trkpt lat="49.252198" lon="8.924588">
<ele>266.5</ele>
<speed>138</speed>
<course>189.9</course>
<desc>Speed 138 km/h Distance 105 km</desc>
<time>2011-03-24T16:52:51.22</time>
<name>4620</name>
</trkpt>
<trkpt lat="49.251875" lon="8.924502">
<ele>264.5</ele>
<speed>135</speed>
<course>190.2</course>
<desc>Speed 135 km/h Distance 105 km</desc>
<time>2011-03-24T16:52:52.23</time>
<name>4621</name>
</trkpt>
<trkpt lat="49.251550" lon="8.924412">
<ele>260.5</ele>
<speed>133</speed>
<course>191.3</course>
<desc>Speed 133 km/h Distance 105 km</desc>
<time>2011-03-24T16:52:53.22</time>
<name>4622</name>
</trkpt>
<trkpt lat="49.251235" lon="8.924315">
<ele>258.0</ele>
<speed>130</speed>
<course>190.8</course>
<desc>Speed 130 km/h Distance 105 km</desc>
<time>2011-03-24T16:52:54.23</time>
<name>4623</name>
</trkpt>
<trkpt lat="49.250927" lon="8.924225">
<ele>255.5</ele>
<speed>127</speed>
<course>190.2</course>
<desc>Speed 127 km/h Distance 105 km</desc>
<time>2011-03-24T16:52:55.23</time>
<name>4624</name>
</trkpt>
<trkpt lat="49.250630" lon="8.924143">
<ele>253.0</ele>
<speed>121</speed>
<course>190.8</course>
<desc>Speed 121 km/h Distance 105 km</desc>
<time>2011-03-24T16:52:56.22</time>
<name>4625</name>
</trkpt>
<trkpt lat="49.249845" lon="8.923915">
<ele>249.5</ele>
<speed>96.1</speed>
<course>187.9</course>
<desc>Speed 96.1 km/h Distance 105 km</desc>
<time>2011-03-24T16:53:00.21</time>
<name>4626</name>
</trkpt>
<trkpt lat="49.249642" lon="8.923872">
<ele>246.5</ele>
<speed>82.1</speed>
<course>199.3</course>
<desc>Speed 82.1 km/h Distance 105 km</desc>
<time>2011-03-24T16:53:01.21</time>
<name>4627</name>
</trkpt>
<trkpt lat="49.249462" lon="8.923775">
<ele>245.0</ele>
<speed>75.8</speed>
<course>204.2</course>
<desc>Speed 75.8 km/h Distance 105 km</desc>
<time>2011-03-24T16:53:02.23</time>
<name>4628</name>
</trkpt>
<trkpt lat="49.249290" lon="8.923657">
<ele>245.5</ele>
<speed>75.2</speed>
<course>193.6</course>
<desc>Speed 75.2 km/h Distance 105 km</desc>
<time>2011-03-24T16:53:03.22</time>
<name>4629</name>
</trkpt>
<trkpt lat="49.249142" lon="8.923602">
<ele>247.0</ele>
<speed>61.7</speed>
<course>222.3</course>
<desc>Speed 61.7 km/h Distance 105 km</desc>
<time>2011-03-24T16:53:04.22</time>
<name>4630</name>
</trkpt>
<trkpt lat="49.248905" lon="8.923272">
<ele>248.0</ele>
<speed>88.0</speed>
<course>238.8</course>
<desc>Speed 88.0 km/h Distance 105 km</desc>
<time>2011-03-24T16:53:06.22</time>
<name>4631</name>
</trkpt>
<trkpt lat="49.248810" lon="8.923032">
<ele>249.0</ele>
<speed>88.0</speed>
<course>238.7</course>
<desc>Speed 88.0 km/h Distance 105 km</desc>
<time>2011-03-24T16:53:07.22</time>
<name>4632</name>
</trkpt>
<trkpt lat="49.248600" lon="8.922502">
<ele>252.0</ele>
<speed>88.0</speed>
<course>234.4</course>
<desc>Speed 88.0 km/h Distance 105 km</desc>
<time>2011-03-24T16:53:10.22</time>
<name>4633</name>
</trkpt>
<trkpt lat="49.248390" lon="8.922052">
<ele>257.0</ele>
<speed>88.0</speed>
<course>231.7</course>
<desc>Speed 88.0 km/h Distance 105 km</desc>
<time>2011-03-24T16:53:12.22</time>
<name>4634</name>
</trkpt>
<trkpt lat="49.248042" lon="8.921377">
<ele>254.0</ele>
<speed>101</speed>
<course>242.7</course>
<desc>Speed 101 km/h Distance 105 km</desc>
<time>2011-03-24T16:53:14.22</time>
<name>4635</name>
</trkpt>
<trkpt lat="49.247920" lon="8.921015">
<ele>253.0</ele>
<speed>101</speed>
<course>232.2</course>
<desc>Speed 101 km/h Distance 105 km</desc>
<time>2011-03-24T16:53:15.21</time>
<name>4636</name>
</trkpt>
<trkpt lat="49.247695" lon="8.920570">
<ele>254.0</ele>
<speed>101</speed>
<course>232.1</course>
<desc>Speed 101 km/h Distance 105 km</desc>
<time>2011-03-24T16:53:17.21</time>
<name>4637</name>
</trkpt>
<trkpt lat="49.247265" lon="8.919725">
<ele>261.5</ele>
<speed>83.8</speed>
<course>232.7</course>
<desc>Speed 83.8 km/h Distance 105 km</desc>
<time>2011-03-24T16:53:20.21</time>
<name>4638</name>
</trkpt>
<trkpt lat="49.247140" lon="8.919473">
<ele>260.5</ele>
<speed>79.8</speed>
<course>233.6</course>
<desc>Speed 79.8 km/h Distance 105 km</desc>
<time>2011-03-24T16:53:21.21</time>
<name>4639</name>
</trkpt>
<trkpt lat="49.247030" lon="8.919245">
<ele>258.5</ele>
<speed>79.8</speed>
<course>234.9</course>
<desc>Speed 79.8 km/h Distance 105 km</desc>
<time>2011-03-24T16:53:22.21</time>
<name>4640</name>
</trkpt>
<trkpt lat="49.246882" lon="8.918922">
<ele>258.5</ele>
<speed>79.8</speed>
<course>229.1</course>
<desc>Speed 79.8 km/h Distance 105 km</desc>
<time>2011-03-24T16:53:24.21</time>
<name>4641</name>
</trkpt>
<trkpt lat="49.246440" lon="8.918142">
<ele>274.5</ele>
<speed>79.8</speed>
<course>219.7</course>
<desc>Speed 79.8 km/h Distance 106 km</desc>
<time>2011-03-24T16:53:27.20</time>
<name>4642</name>
</trkpt>
<trkpt lat="49.246072" lon="8.917673">
<ele>277.0</ele>
<speed>79.8</speed>
<course>232.3</course>
<desc>Speed 79.8 km/h Distance 106 km</desc>
<time>2011-03-24T16:53:29.20</time>
<name>4643</name>
</trkpt>
<trkpt lat="49.245915" lon="8.917363">
<ele>273.0</ele>
<speed>79.8</speed>
<course>252.5</course>
<desc>Speed 79.8 km/h Distance 106 km</desc>
<time>2011-03-24T16:53:31.20</time>
<name>4644</name>
</trkpt>
<trkpt lat="49.245723" lon="8.916430">
<ele>270.5</ele>
<speed>99.0</speed>
<course>232.3</course>
<desc>Speed 99.0 km/h Distance 106 km</desc>
<time>2011-03-24T16:53:35.19</time>
<name>4645</name>
</trkpt>
<trkpt lat="49.244872" lon="8.914743">
<ele>256.0</ele>
<speed>82.9</speed>
<course>242.0</course>
<desc>Speed 82.9 km/h Distance 106 km</desc>
<time>2011-03-24T16:53:39.20</time>
<name>4646</name>
</trkpt>
<trkpt lat="49.244777" lon="8.914470">
<ele>255.0</ele>
<speed>82.9</speed>
<course>230.2</course>
<desc>Speed 82.9 km/h Distance 106 km</desc>
<time>2011-03-24T16:53:40.19</time>
<name>4647</name>
</trkpt>
<trkpt lat="49.244212" lon="8.913432">
<ele>249.0</ele>
<speed>72.4</speed>
<course>207.4</course>
<desc>Speed 72.4 km/h Distance 106 km</desc>
<time>2011-03-24T16:53:43.19</time>
<name>4648</name>
</trkpt>
<trkpt lat="49.243817" lon="8.913118">
<ele>266.5</ele>
<speed>62.0</speed>
<course>211.1</course>
<desc>Speed 62.0 km/h Distance 106 km</desc>
<time>2011-03-24T16:53:45.19</time>
<name>4649</name>
</trkpt>
<trkpt lat="49.243188" lon="8.912537">
<ele>260.5</ele>
<speed>59.1</speed>
<course>207.7</course>
<desc>Speed 59.1 km/h Distance 106 km</desc>
<time>2011-03-24T16:53:48.19</time>
<name>4650</name>
</trkpt>
<trkpt lat="49.242803" lon="8.912227">
<ele>262.5</ele>
<speed>57.3</speed>
<course>212.7</course>
<desc>Speed 57.3 km/h Distance 106 km</desc>
<time>2011-03-24T16:53:50.19</time>
<name>4651</name>
</trkpt>
<trkpt lat="49.242468" lon="8.911897">
<ele>255.0</ele>
<speed>57.2</speed>
<course>214.1</course>
<desc>Speed 57.2 km/h Distance 106 km</desc>
<time>2011-03-24T16:53:52.19</time>
<name>4652</name>
</trkpt>
<trkpt lat="49.242340" lon="8.911763">
<ele>255.0</ele>
<speed>54.7</speed>
<course>212.8</course>
<desc>Speed 54.7 km/h Distance 106 km</desc>
<time>2011-03-24T16:53:53.19</time>
<name>4653</name>
</trkpt>
<trkpt lat="49.242210" lon="8.911635">
<ele>253.5</ele>
<speed>54.4</speed>
<course>209.3</course>
<desc>Speed 54.4 km/h Distance 106 km</desc>
<time>2011-03-24T16:53:54.18</time>
<name>4654</name>
</trkpt>
<trkpt lat="49.242078" lon="8.911522">
<ele>251.5</ele>
<speed>56.9</speed>
<course>206.3</course>
<desc>Speed 56.9 km/h Distance 106 km</desc>
<time>2011-03-24T16:53:55.19</time>
<name>4655</name>
</trkpt>
<trkpt lat="49.241948" lon="8.911423">
<ele>250.5</ele>
<speed>54.5</speed>
<course>208.6</course>
<desc>Speed 54.5 km/h Distance 106 km</desc>
<time>2011-03-24T16:53:56.19</time>
<name>4656</name>
</trkpt>
<trkpt lat="49.241827" lon="8.911322">
<ele>250.0</ele>
<speed>51.4</speed>
<course>207.2</course>
<desc>Speed 51.4 km/h Distance 106 km</desc>
<time>2011-03-24T16:53:57.18</time>
<name>4657</name>
</trkpt>
<trkpt lat="49.241710" lon="8.911230">
<ele>249.5</ele>
<speed>49.0</speed>
<course>202.2</course>
<desc>Speed 49.0 km/h Distance 106 km</desc>
<time>2011-03-24T16:53:58.18</time>
<name>4658</name>
</trkpt>
<trkpt lat="49.241603" lon="8.911163">
<ele>249.0</ele>
<speed>43.8</speed>
<course>194.4</course>
<desc>Speed 43.8 km/h Distance 106 km</desc>
<time>2011-03-24T16:53:59.27</time>
<name>4659</name>
</trkpt>
<trkpt lat="49.241493" lon="8.911120">
<ele>248.5</ele>
<speed>43.6</speed>
<course>194.5</course>
<desc>Speed 43.6 km/h Distance 106 km</desc>
<time>2011-03-24T16:54:00.18</time>
<name>4660</name>
</trkpt>
<trkpt lat="49.241405" lon="8.911085">
<ele>248.5</ele>
<speed>43.6</speed>
<course>187.8</course>
<desc>Speed 43.6 km/h Distance 106 km</desc>
<time>2011-03-24T16:54:01.18</time>
<name>4661</name>
</trkpt>
<trkpt lat="49.241318" lon="8.911067">
<ele>247.5</ele>
<speed>34.6</speed>
<course>176.4</course>
<desc>Speed 34.6 km/h Distance 106 km</desc>
<time>2011-03-24T16:54:02.17</time>
<name>4662</name>
</trkpt>
<trkpt lat="49.241215" lon="8.911077">
<ele>246.5</ele>
<speed>41.3</speed>
<course>180.0</course>
<desc>Speed 41.3 km/h Distance 106 km</desc>
<time>2011-03-24T16:54:03.18</time>
<name>4663</name>
</trkpt>
<trkpt lat="49.241110" lon="8.911077">
<ele>246.0</ele>
<speed>40.6</speed>
<course>182.9</course>
<desc>Speed 40.6 km/h Distance 106 km</desc>
<time>2011-03-24T16:54:04.18</time>
<name>4664</name>
</trkpt>
<trkpt lat="49.241003" lon="8.911068">
<ele>245.5</ele>
<speed>40.4</speed>
<course>185.9</course>
<desc>Speed 40.4 km/h Distance 106 km</desc>
<time>2011-03-24T16:54:05.18</time>
<name>4665</name>
</trkpt>
<trkpt lat="49.240908" lon="8.911053">
<ele>246.0</ele>
<speed>38.6</speed>
<course>198.8</course>
<desc>Speed 38.6 km/h Distance 106 km</desc>
<time>2011-03-24T16:54:06.18</time>
<name>4666</name>
</trkpt>
<trkpt lat="49.240797" lon="8.910995">
<ele>243.0</ele>
<speed>35.2</speed>
<course>206.6</course>
<desc>Speed 35.2 km/h Distance 106 km</desc>
<time>2011-03-24T16:54:07.18</time>
<name>4667</name>
</trkpt>
<trkpt lat="49.240690" lon="8.910913">
<ele>239.5</ele>
<speed>35.0</speed>
<course>232.6</course>
<desc>Speed 35.0 km/h Distance 106 km</desc>
<time>2011-03-24T16:54:08.18</time>
<name>4668</name>
</trkpt>
<trkpt lat="49.240623" lon="8.910780">
<ele>239.0</ele>
<speed>37.7</speed>
<course>234.0</course>
<desc>Speed 37.7 km/h Distance 106 km</desc>
<time>2011-03-24T16:54:09.18</time>
<name>4669</name>
</trkpt>
<trkpt lat="49.240560" lon="8.910647">
<ele>238.0</ele>
<speed>39.7</speed>
<course>228.2</course>
<desc>Speed 39.7 km/h Distance 106 km</desc>
<time>2011-03-24T16:54:10.18</time>
<name>4670</name>
</trkpt>
<trkpt lat="49.240490" lon="8.910527">
<ele>236.0</ele>
<speed>37.3</speed>
<course>218.8</course>
<desc>Speed 37.3 km/h Distance 106 km</desc>
<time>2011-03-24T16:54:11.18</time>
<name>4671</name>
</trkpt>
<trkpt lat="49.240418" lon="8.910438">
<ele>235.5</ele>
<speed>35.5</speed>
<course>213.1</course>
<desc>Speed 35.5 km/h Distance 106 km</desc>
<time>2011-03-24T16:54:12.18</time>
<name>4672</name>
</trkpt>
<trkpt lat="49.240348" lon="8.910368">
<ele>234.5</ele>
<speed>29.8</speed>
<course>166.7</course>
<desc>Speed 29.8 km/h Distance 106 km</desc>
<time>2011-03-24T16:54:13.18</time>
<name>4673</name>
</trkpt>
<trkpt lat="49.240270" lon="8.910397">
<ele>234.0</ele>
<speed>31.7</speed>
<course>162.5</course>
<desc>Speed 31.7 km/h Distance 106 km</desc>
<time>2011-03-24T16:54:14.18</time>
<name>4674</name>
</trkpt>
<trkpt lat="49.240173" lon="8.910443">
<ele>233.5</ele>
<speed>39.3</speed>
<course>171.8</course>
<desc>Speed 39.3 km/h Distance 106 km</desc>
<time>2011-03-24T16:54:15.18</time>
<name>4675</name>
</trkpt>
<trkpt lat="49.240075" lon="8.910465">
<ele>233.5</ele>
<speed>38.9</speed>
<course>176.3</course>
<desc>Speed 38.9 km/h Distance 106 km</desc>
<time>2011-03-24T16:54:16.19</time>
<name>4676</name>
</trkpt>
<trkpt lat="49.239973" lon="8.910475">
<ele>233.5</ele>
<speed>39.1</speed>
<course>189.7</course>
<desc>Speed 39.1 km/h Distance 106 km</desc>
<time>2011-03-24T16:54:17.18</time>
<name>4677</name>
</trkpt>
<trkpt lat="49.239872" lon="8.910448">
<ele>233.5</ele>
<speed>38.8</speed>
<course>182.6</course>
<desc>Speed 38.8 km/h Distance 106 km</desc>
<time>2011-03-24T16:54:18.18</time>
<name>4678</name>
</trkpt>
<trkpt lat="49.239773" lon="8.910442">
<ele>233.5</ele>
<speed>38.2</speed>
<course>206.5</course>
<desc>Speed 38.2 km/h Distance 106 km</desc>
<time>2011-03-24T16:54:19.18</time>
<name>4679</name>
</trkpt>
<trkpt lat="49.239682" lon="8.910372">
<ele>233.5</ele>
<speed>39.6</speed>
<course>209.3</course>
<desc>Speed 39.6 km/h Distance 107 km</desc>
<time>2011-03-24T16:54:20.17</time>
<name>4680</name>
</trkpt>
<trkpt lat="49.239598" lon="8.910300">
<ele>234.0</ele>
<speed>33.4</speed>
<course>195.0</course>
<desc>Speed 33.4 km/h Distance 107 km</desc>
<time>2011-03-24T16:54:21.17</time>
<name>4681</name>
</trkpt>
<trkpt lat="49.239525" lon="8.910270">
<ele>235.0</ele>
<speed>29.7</speed>
<course>195.5</course>
<desc>Speed 29.7 km/h Distance 107 km</desc>
<time>2011-03-24T16:54:22.18</time>
<name>4682</name>
</trkpt>
<trkpt lat="49.239458" lon="8.910242">
<ele>235.0</ele>
<speed>27.1</speed>
<course>208.5</course>
<desc>Speed 27.1 km/h Distance 107 km</desc>
<time>2011-03-24T16:54:23.18</time>
<name>4683</name>
</trkpt>
<trkpt lat="49.239408" lon="8.910200">
<ele>235.0</ele>
<speed>21.4</speed>
<course>200.4</course>
<desc>Speed 21.4 km/h Distance 107 km</desc>
<time>2011-03-24T16:54:24.18</time>
<name>4684</name>
</trkpt>
<trkpt lat="49.239362" lon="8.910173">
<ele>235.0</ele>
<speed>18.8</speed>
<course>214.5</course>
<desc>Speed 18.8 km/h Distance 107 km</desc>
<time>2011-03-24T16:54:25.18</time>
<name>4685</name>
</trkpt>
<trkpt lat="49.239330" lon="8.910140">
<ele>235.0</ele>
<speed>15.4</speed>
<course>214.6</course>
<desc>Speed 15.4 km/h Distance 107 km</desc>
<time>2011-03-24T16:54:26.18</time>
<name>4686</name>
</trkpt>
<trkpt lat="49.239300" lon="8.910108">
<ele>235.0</ele>
<speed>15.4</speed>
<course>200.5</course>
<desc>Speed 15.4 km/h Distance 107 km</desc>
<time>2011-03-24T16:54:27.17</time>
<name>4687</name>
</trkpt>
<trkpt lat="49.239277" lon="8.910095">
<ele>234.5</ele>
<speed>8.5</speed>
<course>231.0</course>
<desc>Speed 8.5 km/h Distance 107 km</desc>
<time>2011-03-24T16:54:28.17</time>
<name>4688</name>
</trkpt>
<trkpt lat="49.239262" lon="8.910067">
<ele>233.5</ele>
<speed>3.9</speed>
<course>203.7</course>
<desc>Speed 3.9 km/h Distance 107 km</desc>
<time>2011-03-24T16:54:29.17</time>
<name>4689</name>
</trkpt>
<trkpt lat="49.239247" lon="8.910057">
<ele>233.0</ele>
<speed>0.3</speed>
<course>198.1</course>
<desc>Speed 0.3 km/h Distance 107 km</desc>
<time>2011-03-24T16:54:30.17</time>
<name>4690</name>
</trkpt>
<trkpt lat="49.239233" lon="8.910050">
<ele>231.5</ele>
<speed>0.2</speed>
<course>203.8</course>
<desc>Speed 0.2 km/h Distance 107 km</desc>
<time>2011-03-24T16:54:31.17</time>
<name>4691</name>
</trkpt>
<trkpt lat="49.239223" lon="8.910043">
<ele>231.5</ele>
<speed>0.3</speed>
<course>167.4</course>
<desc>Speed 0.3 km/h Distance 107 km</desc>
<time>2011-03-24T16:54:32.17</time>
<name>4692</name>
</trkpt>
<trkpt lat="49.239220" lon="8.910043">
<ele>231.0</ele>
<speed>0.3</speed>
<course>127.3</course>
<desc>Speed 0.3 km/h Distance 107 km</desc>
<time>2011-03-24T16:54:33.17</time>
<name>4693</name>
</trkpt>
<trkpt lat="49.239213" lon="8.910057">
<ele>230.5</ele>
<speed>3.2</speed>
<course>156.2</course>
<desc>Speed 3.2 km/h Distance 107 km</desc>
<time>2011-03-24T16:54:34.17</time>
<name>4694</name>
</trkpt>
<trkpt lat="49.239208" lon="8.910060">
<ele>231.0</ele>
<speed>1.0</speed>
<course>167.4</course>
<desc>Speed 1.0 km/h Distance 107 km</desc>
<time>2011-03-24T16:54:35.17</time>
<name>4695</name>
</trkpt>
<trkpt lat="49.239203" lon="8.910062">
<ele>230.5</ele>
<speed>1.0</speed>
<course>146.8</course>
<desc>Speed 1.0 km/h Distance 107 km</desc>
<time>2011-03-24T16:54:36.17</time>
<name>4696</name>
</trkpt>
<trkpt lat="49.239197" lon="8.910068">
<ele>230.0</ele>
<speed>0.7</speed>
<course>175.6</course>
<desc>Speed 0.7 km/h Distance 107 km</desc>
<time>2011-03-24T16:54:37.17</time>
<name>4697</name>
</trkpt>
<trkpt lat="49.239187" lon="8.910070">
<ele>228.5</ele>
<speed>1.7</speed>
<course>180.0</course>
<desc>Speed 1.7 km/h Distance 107 km</desc>
<time>2011-03-24T16:54:38.16</time>
<name>4698</name>
</trkpt>
<trkpt lat="49.239180" lon="8.910070">
<ele>227.0</ele>
<speed>2.1</speed>
<course>180.0</course>
<desc>Speed 2.1 km/h Distance 107 km</desc>
<time>2011-03-24T16:54:39.17</time>
<name>4699</name>
</trkpt>
<trkpt lat="49.239173" lon="8.910070">
<ele>225.5</ele>
<speed>4.0</speed>
<course>198.2</course>
<desc>Speed 4.0 km/h Distance 107 km</desc>
<time>2011-03-24T16:54:40.17</time>
<name>4700</name>
</trkpt>
<trkpt lat="49.239163" lon="8.910065">
<ele>224.5</ele>
<speed>2.2</speed>
<course>135.6</course>
<desc>Speed 2.2 km/h Distance 107 km</desc>
<time>2011-03-24T16:54:41.17</time>
<name>4701</name>
</trkpt>
<trkpt lat="49.239153" lon="8.910080">
<ele>224.5</ele>
<speed>12.5</speed>
<course>101.2</course>
<desc>Speed 12.5 km/h Distance 107 km</desc>
<time>2011-03-24T16:54:42.17</time>
<name>4702</name>
</trkpt>
<trkpt lat="49.239147" lon="8.910132">
<ele>225.0</ele>
<speed>12.5</speed>
<course>117.0</course>
<desc>Speed 12.5 km/h Distance 107 km</desc>
<time>2011-03-24T16:54:43.17</time>
<name>4703</name>
</trkpt>
<trkpt lat="49.239142" lon="8.910147">
<ele>224.5</ele>
<speed>12.5</speed>
<course>256.7</course>
<desc>Speed 12.5 km/h Distance 107 km</desc>
<time>2011-03-24T16:54:44.17</time>
<name>4704</name>
</trkpt>
<trkpt lat="49.239138" lon="8.910125">
<ele>223.5</ele>
<speed>12.5</speed>
<course>33.7</course>
<desc>Speed 12.5 km/h Distance 107 km</desc>
<time>2011-03-24T16:54:45.17</time>
<name>4705</name>
</trkpt>
<trkpt lat="49.239142" lon="8.910128">
<ele>222.0</ele>
<speed>12.5</speed>
<course>105.6</course>
<desc>Speed 12.5 km/h Distance 107 km</desc>
<time>2011-03-24T16:54:46.17</time>
<name>4706</name>
</trkpt>
<trkpt lat="49.239138" lon="8.910147">
<ele>222.5</ele>
<speed>12.5</speed>
<course>302.7</course>
<desc>Speed 12.5 km/h Distance 107 km</desc>
<time>2011-03-24T16:54:47.17</time>
<name>4707</name>
</trkpt>
<trkpt lat="49.239237" lon="8.909912">
<ele>226.0</ele>
<speed>26.0</speed>
<course>316.3</course>
<desc>Speed 26.0 km/h Distance 107 km</desc>
<time>2011-03-24T16:54:49.17</time>
<name>4708</name>
</trkpt>
<trkpt lat="49.239305" lon="8.909812">
<ele>224.5</ele>
<speed>29.7</speed>
<course>316.0</course>
<desc>Speed 29.7 km/h Distance 107 km</desc>
<time>2011-03-24T16:54:50.17</time>
<name>4709</name>
</trkpt>
<trkpt lat="49.239378" lon="8.909703">
<ele>220.0</ele>
<speed>32.3</speed>
<course>321.9</course>
<desc>Speed 32.3 km/h Distance 107 km</desc>
<time>2011-03-24T16:54:51.16</time>
<name>4710</name>
</trkpt>
<trkpt lat="49.239445" lon="8.909623">
<ele>219.0</ele>
<speed>33.4</speed>
<course>319.5</course>
<desc>Speed 33.4 km/h Distance 107 km</desc>
<time>2011-03-24T16:54:52.16</time>
<name>4711</name>
</trkpt>
<trkpt lat="49.239510" lon="8.909538">
<ele>219.5</ele>
<speed>33.4</speed>
<course>326.9</course>
<desc>Speed 33.4 km/h Distance 107 km</desc>
<time>2011-03-24T16:54:53.16</time>
<name>4712</name>
</trkpt>
<trkpt lat="49.239583" lon="8.909465">
<ele>218.0</ele>
<speed>33.9</speed>
<course>326.2</course>
<desc>Speed 33.9 km/h Distance 107 km</desc>
<time>2011-03-24T16:54:54.16</time>
<name>4713</name>
</trkpt>
<trkpt lat="49.239653" lon="8.909393">
<ele>218.0</ele>
<speed>33.5</speed>
<course>313.8</course>
<desc>Speed 33.5 km/h Distance 107 km</desc>
<time>2011-03-24T16:54:55.17</time>
<name>4714</name>
</trkpt>
<trkpt lat="49.239715" lon="8.909295">
<ele>219.0</ele>
<speed>33.6</speed>
<course>316.4</course>
<desc>Speed 33.6 km/h Distance 107 km</desc>
<time>2011-03-24T16:54:56.17</time>
<name>4715</name>
</trkpt>
<trkpt lat="49.239777" lon="8.909205">
<ele>219.0</ele>
<speed>32.9</speed>
<course>320.5</course>
<desc>Speed 32.9 km/h Distance 107 km</desc>
<time>2011-03-24T16:54:57.15</time>
<name>4716</name>
</trkpt>
<trkpt lat="49.239840" lon="8.909125">
<ele>220.0</ele>
<speed>32.7</speed>
<course>330.7</course>
<desc>Speed 32.7 km/h Distance 107 km</desc>
<time>2011-03-24T16:54:58.15</time>
<name>4717</name>
</trkpt>
<trkpt lat="49.239912" lon="8.909063">
<ele>220.0</ele>
<speed>33.0</speed>
<course>330.6</course>
<desc>Speed 33.0 km/h Distance 107 km</desc>
<time>2011-03-24T16:54:59.15</time>
<name>4718</name>
</trkpt>
<trkpt lat="49.239985" lon="8.909000">
<ele>220.0</ele>
<speed>33.4</speed>
<course>331.9</course>
<desc>Speed 33.4 km/h Distance 107 km</desc>
<time>2011-03-24T16:55:00.16</time>
<name>4719</name>
</trkpt>
<trkpt lat="49.240058" lon="8.908940">
<ele>220.0</ele>
<speed>33.3</speed>
<course>329.4</course>
<desc>Speed 33.3 km/h Distance 107 km</desc>
<time>2011-03-24T16:55:01.15</time>
<name>4720</name>
</trkpt>
<trkpt lat="49.240130" lon="8.908875">
<ele>220.5</ele>
<speed>34.1</speed>
<course>324.0</course>
<desc>Speed 34.1 km/h Distance 107 km</desc>
<time>2011-03-24T16:55:02.15</time>
<name>4721</name>
</trkpt>
<trkpt lat="49.240203" lon="8.908793">
<ele>221.0</ele>
<speed>34.8</speed>
<course>318.1</course>
<desc>Speed 34.8 km/h Distance 107 km</desc>
<time>2011-03-24T16:55:03.16</time>
<name>4722</name>
</trkpt>
<trkpt lat="49.240275" lon="8.908695">
<ele>221.0</ele>
<speed>36.4</speed>
<course>320.8</course>
<desc>Speed 36.4 km/h Distance 107 km</desc>
<time>2011-03-24T16:55:04.16</time>
<name>4723</name>
</trkpt>
<trkpt lat="49.240348" lon="8.908603">
<ele>221.5</ele>
<speed>35.6</speed>
<course>324.7</course>
<desc>Speed 35.6 km/h Distance 107 km</desc>
<time>2011-03-24T16:55:05.16</time>
<name>4724</name>
</trkpt>
<trkpt lat="49.240427" lon="8.908518">
<ele>221.5</ele>
<speed>37.0</speed>
<course>320.5</course>
<desc>Speed 37.0 km/h Distance 107 km</desc>
<time>2011-03-24T16:55:06.15</time>
<name>4725</name>
</trkpt>
<trkpt lat="49.240503" lon="8.908422">
<ele>222.5</ele>
<speed>36.6</speed>
<course>322.7</course>
<desc>Speed 36.6 km/h Distance 107 km</desc>
<time>2011-03-24T16:55:07.16</time>
<name>4726</name>
</trkpt>
<trkpt lat="49.240563" lon="8.908352">
<ele>223.0</ele>
<speed>36.6</speed>
<course>328.5</course>
<desc>Speed 36.6 km/h Distance 107 km</desc>
<time>2011-03-24T16:55:08.16</time>
<name>4727</name>
</trkpt>
<trkpt lat="49.240645" lon="8.908275">
<ele>223.0</ele>
<speed>38.5</speed>
<course>324.9</course>
<desc>Speed 38.5 km/h Distance 107 km</desc>
<time>2011-03-24T16:55:09.16</time>
<name>4728</name>
</trkpt>
<trkpt lat="49.240732" lon="8.908182">
<ele>224.0</ele>
<speed>39.6</speed>
<course>327.4</course>
<desc>Speed 39.6 km/h Distance 107 km</desc>
<time>2011-03-24T16:55:10.16</time>
<name>4729</name>
</trkpt>
<trkpt lat="49.240818" lon="8.908097">
<ele>224.0</ele>
<speed>40.3</speed>
<course>326.9</course>
<desc>Speed 40.3 km/h Distance 107 km</desc>
<time>2011-03-24T16:55:11.15</time>
<name>4730</name>
</trkpt>
<trkpt lat="49.240907" lon="8.908008">
<ele>225.0</ele>
<speed>40.4</speed>
<course>325.9</course>
<desc>Speed 40.4 km/h Distance 107 km</desc>
<time>2011-03-24T16:55:12.15</time>
<name>4731</name>
</trkpt>
<trkpt lat="49.240998" lon="8.907913">
<ele>223.5</ele>
<speed>39.2</speed>
<course>329.0</course>
<desc>Speed 39.2 km/h Distance 107 km</desc>
<time>2011-03-24T16:55:13.15</time>
<name>4732</name>
</trkpt>
<trkpt lat="49.241082" lon="8.907837">
<ele>222.5</ele>
<speed>36.4</speed>
<course>324.8</course>
<desc>Speed 36.4 km/h Distance 107 km</desc>
<time>2011-03-24T16:55:14.15</time>
<name>4733</name>
</trkpt>
<trkpt lat="49.241165" lon="8.907747">
<ele>220.5</ele>
<speed>34.7</speed>
<course>329.7</course>
<desc>Speed 34.7 km/h Distance 107 km</desc>
<time>2011-03-24T16:55:15.15</time>
<name>4734</name>
</trkpt>
<trkpt lat="49.241245" lon="8.907675">
<ele>220.5</ele>
<speed>36.1</speed>
<course>327.3</course>
<desc>Speed 36.1 km/h Distance 107 km</desc>
<time>2011-03-24T16:55:16.14</time>
<name>4735</name>
</trkpt>
<trkpt lat="49.241335" lon="8.907587">
<ele>218.0</ele>
<speed>37.8</speed>
<course>326.9</course>
<desc>Speed 37.8 km/h Distance 107 km</desc>
<time>2011-03-24T16:55:17.15</time>
<name>4736</name>
</trkpt>
<trkpt lat="49.241425" lon="8.907497">
<ele>216.5</ele>
<speed>39.4</speed>
<course>324.9</course>
<desc>Speed 39.4 km/h Distance 107 km</desc>
<time>2011-03-24T16:55:18.15</time>
<name>4737</name>
</trkpt>
<trkpt lat="49.241513" lon="8.907402">
<ele>216.0</ele>
<speed>39.3</speed>
<course>325.8</course>
<desc>Speed 39.3 km/h Distance 107 km</desc>
<time>2011-03-24T16:55:19.16</time>
<name>4738</name>
</trkpt>
<trkpt lat="49.241598" lon="8.907313">
<ele>215.5</ele>
<speed>37.2</speed>
<course>328.5</course>
<desc>Speed 37.2 km/h Distance 107 km</desc>
<time>2011-03-24T16:55:20.15</time>
<name>4739</name>
</trkpt>
<trkpt lat="49.241678" lon="8.907238">
<ele>214.5</ele>
<speed>36.3</speed>
<course>329.8</course>
<desc>Speed 36.3 km/h Distance 107 km</desc>
<time>2011-03-24T16:55:21.15</time>
<name>4740</name>
</trkpt>
<trkpt lat="49.241755" lon="8.907170">
<ele>215.0</ele>
<speed>36.0</speed>
<course>327.5</course>
<desc>Speed 36.0 km/h Distance 107 km</desc>
<time>2011-03-24T16:55:22.15</time>
<name>4741</name>
</trkpt>
<trkpt lat="49.241828" lon="8.907098">
<ele>216.0</ele>
<speed>34.7</speed>
<course>323.7</course>
<desc>Speed 34.7 km/h Distance 107 km</desc>
<time>2011-03-24T16:55:23.15</time>
<name>4742</name>
</trkpt>
<trkpt lat="49.241895" lon="8.907023">
<ele>215.5</ele>
<speed>31.8</speed>
<course>324.7</course>
<desc>Speed 31.8 km/h Distance 107 km</desc>
<time>2011-03-24T16:55:24.15</time>
<name>4743</name>
</trkpt>
<trkpt lat="49.241935" lon="8.906980">
<ele>215.5</ele>
<speed>19.3</speed>
<course>328.6</course>
<desc>Speed 19.3 km/h Distance 107 km</desc>
<time>2011-03-24T16:55:25.14</time>
<name>4744</name>
</trkpt>
<trkpt lat="49.241962" lon="8.906955">
<ele>216.0</ele>
<speed>12.9</speed>
<course>336.3</course>
<desc>Speed 12.9 km/h Distance 107 km</desc>
<time>2011-03-24T16:55:26.15</time>
<name>4745</name>
</trkpt>
<trkpt lat="49.241977" lon="8.906945">
<ele>217.0</ele>
<speed>6.6</speed>
<course>340.3</course>
<desc>Speed 6.6 km/h Distance 107 km</desc>
<time>2011-03-24T16:55:27.15</time>
<name>4746</name>
</trkpt>
<trkpt lat="49.241995" lon="8.906935">
<ele>218.0</ele>
<speed>7.8</speed>
<course>339.3</course>
<desc>Speed 7.8 km/h Distance 107 km</desc>
<time>2011-03-24T16:55:28.15</time>
<name>4747</name>
</trkpt>
<trkpt lat="49.242027" lon="8.906917">
<ele>218.0</ele>
<speed>14.0</speed>
<course>3.8</course>
<desc>Speed 14.0 km/h Distance 107 km</desc>
<time>2011-03-24T16:55:29.15</time>
<name>4748</name>
</trkpt>
<trkpt lat="49.242060" lon="8.906920">
<ele>217.5</ele>
<speed>13.0</speed>
<course>24.7</course>
<desc>Speed 13.0 km/h Distance 107 km</desc>
<time>2011-03-24T16:55:30.15</time>
<name>4749</name>
</trkpt>
<trkpt lat="49.242105" lon="8.906952">
<ele>217.5</ele>
<speed>20.3</speed>
<course>340.7</course>
<desc>Speed 20.3 km/h Distance 107 km</desc>
<time>2011-03-24T16:55:31.14</time>
<name>4750</name>
</trkpt>
<trkpt lat="49.242173" lon="8.906915">
<ele>217.0</ele>
<speed>28.2</speed>
<course>316.8</course>
<desc>Speed 28.2 km/h Distance 107 km</desc>
<time>2011-03-24T16:55:32.14</time>
<name>4751</name>
</trkpt>
<trkpt lat="49.242200" lon="8.906877">
<ele>216.5</ele>
<speed>15.0</speed>
<course>302.6</course>
<desc>Speed 15.0 km/h Distance 107 km</desc>
<time>2011-03-24T16:55:33.14</time>
<name>4752</name>
</trkpt>
<trkpt lat="49.242238" lon="8.906785">
<ele>216.0</ele>
<speed>27.1</speed>
<course>275.4</course>
<desc>Speed 27.1 km/h Distance 107 km</desc>
<time>2011-03-24T16:55:34.14</time>
<name>4753</name>
</trkpt>
<trkpt lat="49.242243" lon="8.906703">
<ele>216.0</ele>
<speed>21.1</speed>
<course>234.8</course>
<desc>Speed 21.1 km/h Distance 107 km</desc>
<time>2011-03-24T16:55:35.14</time>
<name>4754</name>
</trkpt>
<trkpt lat="49.242205" lon="8.906620">
<ele>216.0</ele>
<speed>27.1</speed>
<course>225.1</course>
<desc>Speed 27.1 km/h Distance 107 km</desc>
<time>2011-03-24T16:55:36.13</time>
<name>4755</name>
</trkpt>
<trkpt lat="49.242158" lon="8.906548">
<ele>216.0</ele>
<speed>26.7</speed>
<course>208.7</course>
<desc>Speed 26.7 km/h Distance 107 km</desc>
<time>2011-03-24T16:55:37.15</time>
<name>4756</name>
</trkpt>
<trkpt lat="49.242097" lon="8.906497">
<ele>216.0</ele>
<speed>27.6</speed>
<course>222.0</course>
<desc>Speed 27.6 km/h Distance 107 km</desc>
<time>2011-03-24T16:55:38.14</time>
<name>4757</name>
</trkpt>
<trkpt lat="49.242048" lon="8.906430">
<ele>216.0</ele>
<speed>26.3</speed>
<course>226.8</course>
<desc>Speed 26.3 km/h Distance 107 km</desc>
<time>2011-03-24T16:55:39.14</time>
<name>4758</name>
</trkpt>
<trkpt lat="49.242003" lon="8.906357">
<ele>215.5</ele>
<speed>25.7</speed>
<course>229.7</course>
<desc>Speed 25.7 km/h Distance 107 km</desc>
<time>2011-03-24T16:55:40.14</time>
<name>4759</name>
</trkpt>
<trkpt lat="49.241960" lon="8.906278">
<ele>215.5</ele>
<speed>26.8</speed>
<course>238.5</course>
<desc>Speed 26.8 km/h Distance 107 km</desc>
<time>2011-03-24T16:55:41.14</time>
<name>4760</name>
</trkpt>
<trkpt lat="49.241930" lon="8.906203">
<ele>215.0</ele>
<speed>23.1</speed>
<course>239.9</course>
<desc>Speed 23.1 km/h Distance 107 km</desc>
<time>2011-03-24T16:55:42.14</time>
<name>4761</name>
</trkpt>
<trkpt lat="49.241907" lon="8.906142">
<ele>215.0</ele>
<speed>23.1</speed>
<course>254.4</course>
<desc>Speed 23.1 km/h Distance 107 km</desc>
<time>2011-03-24T16:55:43.14</time>
<name>4762</name>
</trkpt>
<trkpt lat="49.241897" lon="8.906087">
<ele>215.0</ele>
<speed>14.7</speed>
<course>233.2</course>
<desc>Speed 14.7 km/h Distance 107 km</desc>
<time>2011-03-24T16:55:44.13</time>
<name>4763</name>
</trkpt>
<trkpt lat="49.241863" lon="8.906018">
<ele>214.5</ele>
<speed>21.4</speed>
<course>244.0</course>
<desc>Speed 21.4 km/h Distance 107 km</desc>
<time>2011-03-24T16:55:45.13</time>
<name>4764</name>
</trkpt>
<trkpt lat="49.241852" lon="8.905982">
<ele>214.0</ele>
<speed>11.8</speed>
<course>355.6</course>
<desc>Speed 11.8 km/h Distance 107 km</desc>
<time>2011-03-24T16:55:46.14</time>
<name>4765</name>
</trkpt>
<trkpt lat="49.241862" lon="8.905980">
<ele>214.0</ele>
<speed>5.4</speed>
<course>226.4</course>
<desc>Speed 5.4 km/h Distance 107 km</desc>
<time>2011-03-24T16:55:47.15</time>
<name>4766</name>
</trkpt>
<trkpt lat="49.241853" lon="8.905967">
<ele>214.0</ele>
<speed>5.0</speed>
<course>33.1</course>
<desc>Speed 5.0 km/h Distance 107 km</desc>
<time>2011-03-24T16:55:48.14</time>
<name>4767</name>
</trkpt>
<trkpt lat="49.241873" lon="8.905987">
<ele>214.0</ele>
<speed>9.4</speed>
<course>69.1</course>
<desc>Speed 9.4 km/h Distance 107 km</desc>
<time>2011-03-24T16:55:49.14</time>
<name>4768</name>
</trkpt>
<trkpt lat="49.241875" lon="8.905993">
<ele>214.5</ele>
<speed>1.8</speed>
<course>213.7</course>
<desc>Speed 1.8 km/h Distance 107 km</desc>
<time>2011-03-24T16:55:50.14</time>
<name>4769</name>
</trkpt>
<trkpt lat="49.241872" lon="8.905990">
<ele>214.5</ele>
<speed>1.1</speed>
<course>37.2</course>
<desc>Speed 1.1 km/h Distance 107 km</desc>
<time>2011-03-24T16:55:51.13</time>
<name>4770</name>
</trkpt>
<trkpt lat="49.241873" lon="8.905992">
<ele>214.5</ele>
<speed>0.8</speed>
<course>255.6</course>
<desc>Speed 0.8 km/h Distance 107 km</desc>
<time>2011-03-24T16:55:52.13</time>
<name>4771</name>
</trkpt>
<trkpt lat="49.241872" lon="8.905982">
<ele>215.0</ele>
<speed>1.6</speed>
<course>205.6</course>
<desc>Speed 1.6 km/h Distance 107 km</desc>
<time>2011-03-24T16:55:53.13</time>
<name>4772</name>
</trkpt>
<trkpt lat="49.241865" lon="8.905977">
<ele>215.5</ele>
<speed>1.9</speed>
<course>270.0</course>
<desc>Speed 1.9 km/h Distance 107 km</desc>
<time>2011-03-24T16:55:54.13</time>
<name>4773</name>
</trkpt>
<trkpt lat="49.241865" lon="8.905975">
<ele>215.0</ele>
<speed>0.4</speed>
<course>43.5</course>
<desc>Speed 0.4 km/h Distance 107 km</desc>
<time>2011-03-24T16:55:55.14</time>
<name>4774</name>
</trkpt>
<trkpt lat="49.241868" lon="8.905980">
<ele>215.0</ele>
<speed>0.3</speed>
<course>167.4</course>
<desc>Speed 0.3 km/h Distance 107 km</desc>
<time>2011-03-24T16:55:56.14</time>
<name>4775</name>
</trkpt>
<trkpt lat="49.241867" lon="8.905980">
<ele>215.0</ele>
<speed>0.1</speed>
<course>27.9</course>
<desc>Speed 0.1 km/h Distance 107 km</desc>
<time>2011-03-24T16:55:57.14</time>
<name>4776</name>
</trkpt>
<trkpt lat="49.241875" lon="8.905987">
<ele>215.0</ele>
<speed>0.9</speed>
<course>26.4</course>
<desc>Speed 0.9 km/h Distance 107 km</desc>
<time>2011-03-24T16:55:58.14</time>
<name>4777</name>
</trkpt>
<trkpt lat="49.241882" lon="8.905992">
<ele>214.5</ele>
<speed>1.1</speed>
<course>35.5</course>
<desc>Speed 1.1 km/h Distance 107 km</desc>
<time>2011-03-24T16:55:59.13</time>
<name>4778</name>
</trkpt>
<trkpt lat="49.241885" lon="8.905995">
<ele>214.0</ele>
<speed>0.2</speed>
<course>18.8</course>
<desc>Speed 0.2 km/h Distance 107 km</desc>
<time>2011-03-24T16:56:00.13</time>
<name>4779</name>
</trkpt>
<trkpt lat="49.241892" lon="8.905998">
<ele>214.0</ele>
<speed>0.1</speed>
<course>342.5</course>
<desc>Speed 0.1 km/h Distance 107 km</desc>
<time>2011-03-24T16:56:01.13</time>
<name>4780</name>
</trkpt>
<trkpt lat="49.241898" lon="8.905995">
<ele>213.5</ele>
<speed>2.1</speed>
<course>215.9</course>
<desc>Speed 2.1 km/h Distance 107 km</desc>
<time>2011-03-24T16:56:02.13</time>
<name>4781</name>
</trkpt>
<trkpt lat="49.241883" lon="8.905978">
<ele>213.5</ele>
<speed>6.8</speed>
<course>206.7</course>
<desc>Speed 6.8 km/h Distance 107 km</desc>
<time>2011-03-24T16:56:03.13</time>
<name>4782</name>
</trkpt>
<trkpt lat="49.241840" lon="8.905945">
<ele>215.5</ele>
<speed>21.0</speed>
<course>169.3</course>
<desc>Speed 21.0 km/h Distance 107 km</desc>
<time>2011-03-24T16:56:04.12</time>
<name>4783</name>
</trkpt>
<trkpt lat="49.241800" lon="8.905957">
<ele>215.0</ele>
<speed>17.6</speed>
<course>137.6</course>
<desc>Speed 17.6 km/h Distance 107 km</desc>
<time>2011-03-24T16:56:05.13</time>
<name>4784</name>
</trkpt>
<trkpt lat="49.241783" lon="8.905980">
<ele>216.5</ele>
<speed>9.9</speed>
<course>130.8</course>
<desc>Speed 9.9 km/h Distance 107 km</desc>
<time>2011-03-24T16:56:06.13</time>
<name>4785</name>
</trkpt>
<trkpt lat="49.241768" lon="8.906007">
<ele>217.0</ele>
<speed>10.0</speed>
<course>83.8</course>
<desc>Speed 10.0 km/h Distance 107 km</desc>
<time>2011-03-24T16:56:07.12</time>
<name>4786</name>
</trkpt>
<trkpt lat="49.241772" lon="8.906053">
<ele>217.5</ele>
<speed>13.2</speed>
<course>45.5</course>
<desc>Speed 13.2 km/h Distance 107 km</desc>
<time>2011-03-24T16:56:08.13</time>
<name>4787</name>
</trkpt>
<trkpt lat="49.241813" lon="8.906118">
<ele>219.0</ele>
<speed>21.9</speed>
<course>60.6</course>
<desc>Speed 21.9 km/h Distance 107 km</desc>
<time>2011-03-24T16:56:09.13</time>
<name>4788</name>
</trkpt>
<trkpt lat="49.241837" lon="8.906182">
<ele>219.0</ele>
<speed>18.7</speed>
<course>60.6</course>
<desc>Speed 18.7 km/h Distance 107 km</desc>
<time>2011-03-24T16:56:10.13</time>
<name>4789</name>
</trkpt>
<trkpt lat="49.241860" lon="8.906245">
<ele>218.0</ele>
<speed>18.2</speed>
<course>90.0</course>
<desc>Speed 18.2 km/h Distance 107 km</desc>
<time>2011-03-24T16:56:11.13</time>
<name>4790</name>
</trkpt>
<trkpt lat="49.241860" lon="8.906293">
<ele>219.0</ele>
<speed>13.8</speed>
<course>87.2</course>
<desc>Speed 13.8 km/h Distance 107 km</desc>
<time>2011-03-24T16:56:12.13</time>
<name>4791</name>
</trkpt>
<trkpt lat="49.241862" lon="8.906345">
<ele>219.5</ele>
<speed>13.6</speed>
<course>133.5</course>
<desc>Speed 13.6 km/h Distance 107 km</desc>
<time>2011-03-24T16:56:13.13</time>
<name>4792</name>
</trkpt>
<trkpt lat="49.241840" lon="8.906380">
<ele>219.5</ele>
<speed>12.6</speed>
<course>133.7</course>
<desc>Speed 12.6 km/h Distance 107 km</desc>
<time>2011-03-24T16:56:14.12</time>
<name>4793</name>
</trkpt>
<trkpt lat="49.241823" lon="8.906407">
<ele>220.0</ele>
<speed>12.6</speed>
<course>67.8</course>
<desc>Speed 12.6 km/h Distance 107 km</desc>
<time>2011-03-24T16:56:15.12</time>
<name>4794</name>
</trkpt>
<trkpt lat="49.241830" lon="8.906432">
<ele>221.0</ele>
<speed>7.4</speed>
<course>97.3</course>
<desc>Speed 7.4 km/h Distance 107 km</desc>
<time>2011-03-24T16:56:16.13</time>
<name>4795</name>
</trkpt>
<trkpt lat="49.241828" lon="8.906452">
<ele>221.0</ele>
<speed>5.3</speed>
<course>270.0</course>
<desc>Speed 5.3 km/h Distance 107 km</desc>
<time>2011-03-24T16:56:17.13</time>
<name>4796</name>
</trkpt>
<trkpt lat="49.241828" lon="8.906448">
<ele>221.5</ele>
<speed>4.9</speed>
<course>90.0</course>
<desc>Speed 4.9 km/h Distance 107 km</desc>
<time>2011-03-24T16:56:18.13</time>
<name>4797</name>
</trkpt>
<trkpt lat="49.241828" lon="8.906455">
<ele>221.5</ele>
<speed>1.3</speed>
<course>347.4</course>
<desc>Speed 1.3 km/h Distance 107 km</desc>
<time>2011-03-24T16:56:19.12</time>
<name>4798</name>
</trkpt>
<trkpt lat="49.241832" lon="8.906453">
<ele>221.5</ele>
<speed>1.9</speed>
<course>40.9</course>
<desc>Speed 1.9 km/h Distance 107 km</desc>
<time>2011-03-24T16:56:20.12</time>
<name>4799</name>
</trkpt>
<trkpt lat="49.241837" lon="8.906460">
<ele>221.5</ele>
<speed>2.8</speed>
<course>146.3</course>
<desc>Speed 2.8 km/h Distance 107 km</desc>
<time>2011-03-24T16:56:21.12</time>
<name>4800</name>
</trkpt>
<trkpt lat="49.241833" lon="8.906463">
<ele>221.5</ele>
<speed>2.8</speed>
<course>58.6</course>
<desc>Speed 2.8 km/h Distance 107 km</desc>
<time>2011-03-24T16:56:22.12</time>
<name>4801</name>
</trkpt>
<trkpt lat="49.241837" lon="8.906472">
<ele>221.5</ele>
<speed>1.5</speed>
<course>270.0</course>
<desc>Speed 1.5 km/h Distance 107 km</desc>
<time>2011-03-24T16:56:23.12</time>
<name>4802</name>
</trkpt>
<trkpt lat="49.241837" lon="8.906470">
<ele>221.5</ele>
<speed>1.5</speed>
<course>341.9</course>
<desc>Speed 1.5 km/h Distance 107 km</desc>
<time>2011-03-24T16:56:24.12</time>
<name>4803</name>
</trkpt>
<trkpt lat="49.241853" lon="8.906462">
<ele>221.5</ele>
<speed>1.4</speed>
<course>290.9</course>
<desc>Speed 1.4 km/h Distance 107 km</desc>
<time>2011-03-24T16:56:25.12</time>
<name>4804</name>
</trkpt>
<trkpt lat="49.241855" lon="8.906455">
<ele>221.5</ele>
<speed>1.4</speed>
<course>270.0</course>
<desc>Speed 1.4 km/h Distance 107 km</desc>
<time>2011-03-24T16:56:26.12</time>
<name>4805</name>
</trkpt>
<trkpt lat="49.241855" lon="8.906448">
<ele>221.0</ele>
<speed>1.4</speed>
<course>167.4</course>
<desc>Speed 1.4 km/h Distance 107 km</desc>
<time>2011-03-24T16:56:27.12</time>
<name>4806</name>
</trkpt>
<trkpt lat="49.241853" lon="8.906448">
<ele>221.0</ele>
<speed>1.4</speed>
<course>192.6</course>
<desc>Speed 1.4 km/h Distance 107 km</desc>
<time>2011-03-24T16:56:28.11</time>
<name>4807</name>
</trkpt>
<trkpt lat="49.241852" lon="8.906447">
<ele>221.0</ele>
<speed>2.1</speed>
<course>56.2</course>
<desc>Speed 2.1 km/h Distance 107 km</desc>
<time>2011-03-24T16:56:29.11</time>
<name>4808</name>
</trkpt>
<trkpt lat="49.241863" lon="8.906473">
<ele>221.0</ele>
<speed>1.9</speed>
<course>221.4</course>
<desc>Speed 1.9 km/h Distance 107 km</desc>
<time>2011-03-24T16:56:30.11</time>
<name>4809</name>
</trkpt>
<trkpt lat="49.241858" lon="8.906467">
<ele>221.0</ele>
<speed>1.7</speed>
<course>238.6</course>
<desc>Speed 1.7 km/h Distance 107 km</desc>
<time>2011-03-24T16:56:31.11</time>
<name>4810</name>
</trkpt>
<trkpt lat="49.241855" lon="8.906458">
<ele>220.5</ele>
<speed>1.1</speed>
<course>192.6</course>
<desc>Speed 1.1 km/h Distance 107 km</desc>
<time>2011-03-24T16:56:32.11</time>
<name>4811</name>
</trkpt>
<trkpt lat="49.241845" lon="8.906455">
<ele>220.5</ele>
<speed>1.0</speed>
<course>187.7</course>
<desc>Speed 1.0 km/h Distance 107 km</desc>
<time>2011-03-24T16:56:33.11</time>
<name>4812</name>
</trkpt>
<trkpt lat="49.241837" lon="8.906453">
<ele>220.0</ele>
<speed>0.8</speed>
<course>284.2</course>
<desc>Speed 0.8 km/h Distance 107 km</desc>
<time>2011-03-24T16:56:34.11</time>
<name>4813</name>
</trkpt>
<trkpt lat="49.241838" lon="8.906443">
<ele>220.0</ele>
<speed>0.5</speed>
<course>167.4</course>
<desc>Speed 0.5 km/h Distance 107 km</desc>
<time>2011-03-24T16:56:35.11</time>
<name>4814</name>
</trkpt>
<trkpt lat="49.241833" lon="8.906445">
<ele>219.0</ele>
<speed>1.7</speed>
<course>138.9</course>
<desc>Speed 1.7 km/h Distance 107 km</desc>
<time>2011-03-24T16:56:36.11</time>
<name>4815</name>
</trkpt>
<trkpt lat="49.241813" lon="8.906472">
<ele>219.0</ele>
<speed>10.2</speed>
<course>157.8</course>
<desc>Speed 10.2 km/h Distance 107 km</desc>
<time>2011-03-24T16:56:37.11</time>
<name>4816</name>
</trkpt>
<trkpt lat="49.241808" lon="8.906475">
<ele>219.0</ele>
<speed>5.2</speed>
<course>290.9</course>
<desc>Speed 5.2 km/h Distance 107 km</desc>
<time>2011-03-24T16:56:38.11</time>
<name>4817</name>
</trkpt>
<trkpt lat="49.241812" lon="8.906462">
<ele>219.0</ele>
<speed>0.8</speed>
<course>326.8</course>
<desc>Speed 0.8 km/h Distance 107 km</desc>
<time>2011-03-24T16:56:39.11</time>
<name>4818</name>
</trkpt>
<trkpt lat="49.241820" lon="8.906453">
<ele>220.5</ele>
<speed>3.7</speed>
<course>286.7</course>
<desc>Speed 3.7 km/h Distance 107 km</desc>
<time>2011-03-24T16:56:40.11</time>
<name>4819</name>
</trkpt>
<trkpt lat="49.241822" lon="8.906445">
<ele>220.5</ele>
<speed>0.2</speed>
<course>279.7</course>
<desc>Speed 0.2 km/h Distance 107 km</desc>
<time>2011-03-24T16:56:41.11</time>
<name>4820</name>
</trkpt>
<trkpt lat="49.241825" lon="8.906415">
<ele>220.0</ele>
<speed>0.2</speed>
<course>355.0</course>
<desc>Speed 0.2 km/h Distance 107 km</desc>
<time>2011-03-24T16:56:42.11</time>
<name>4821</name>
</trkpt>
<trkpt lat="49.241833" lon="8.906413">
<ele>220.5</ele>
<speed>2.8</speed>
<course>167.4</course>
<desc>Speed 2.8 km/h Distance 107 km</desc>
<time>2011-03-24T16:56:43.11</time>
<name>4822</name>
</trkpt>
<trkpt lat="49.241832" lon="8.906413">
<ele>220.0</ele>
<speed>0.3</speed>
<course>192.6</course>
<desc>Speed 0.3 km/h Distance 107 km</desc>
<time>2011-03-24T16:56:44.11</time>
<name>4823</name>
</trkpt>
<trkpt lat="49.241830" lon="8.906412">
<ele>220.5</ele>
<speed>2.5</speed>
<course>213.7</course>
<desc>Speed 2.5 km/h Distance 107 km</desc>
<time>2011-03-24T16:56:45.11</time>
<name>4824</name>
</trkpt>
<trkpt lat="49.241827" lon="8.906408">
<ele>220.5</ele>
<speed>0.6</speed>
<course>224.5</course>
<desc>Speed 0.6 km/h Distance 107 km</desc>
<time>2011-03-24T16:56:46.11</time>
<name>4825</name>
</trkpt>
<trkpt lat="49.241823" lon="8.906403">
<ele>220.5</ele>
<speed>0.6</speed>
<course>175.0</course>
<desc>Speed 0.6 km/h Distance 107 km</desc>
<time>2011-03-24T16:56:47.11</time>
<name>4826</name>
</trkpt>
<trkpt lat="49.241815" lon="8.906405">
<ele>220.5</ele>
<speed>1.4</speed>
<course>326.9</course>
<desc>Speed 1.4 km/h Distance 107 km</desc>
<time>2011-03-24T16:56:48.11</time>
<name>4827</name>
</trkpt>
<trkpt lat="49.241832" lon="8.906388">
<ele>222.0</ele>
<speed>1.4</speed>
<course>329.9</course>
<desc>Speed 1.4 km/h Distance 107 km</desc>
<time>2011-03-24T16:56:49.10</time>
<name>4828</name>
</trkpt>
<trkpt lat="49.241847" lon="8.906375">
<ele>222.5</ele>
<speed>1.4</speed>
<course>7.7</course>
<desc>Speed 1.4 km/h Distance 107 km</desc>
<time>2011-03-24T16:56:50.10</time>
<name>4829</name>
</trkpt>
<trkpt lat="49.241855" lon="8.906377">
<ele>222.0</ele>
<speed>2.7</speed>
<course>172.3</course>
<desc>Speed 2.7 km/h Distance 107 km</desc>
<time>2011-03-24T16:56:51.10</time>
<name>4830</name>
</trkpt>
<trkpt lat="49.241847" lon="8.906378">
<ele>220.5</ele>
<speed>3.0</speed>
<course>236.7</course>
<desc>Speed 3.0 km/h Distance 107 km</desc>
<time>2011-03-24T16:56:52.10</time>
<name>4831</name>
</trkpt>
<trkpt lat="49.241842" lon="8.906367">
<ele>221.0</ele>
<speed>2.9</speed>
<course>217.2</course>
<desc>Speed 2.9 km/h Distance 107 km</desc>
<time>2011-03-24T16:56:53.10</time>
<name>4832</name>
</trkpt>
<trkpt lat="49.241840" lon="8.906365">
<ele>223.0</ele>
<speed>0.9</speed>
<course>12.6</course>
<desc>Speed 0.9 km/h Distance 107 km</desc>
<time>2011-03-24T16:56:54.10</time>
<name>4833</name>
</trkpt>
<trkpt lat="49.241842" lon="8.906365">
<ele>223.0</ele>
<speed>1.2</speed>
<course>213.7</course>
<desc>Speed 1.2 km/h Distance 107 km</desc>
<time>2011-03-24T16:56:55.10</time>
<name>4834</name>
</trkpt>
<trkpt lat="49.241838" lon="8.906362">
<ele>224.5</ele>
<speed>1.5</speed>
<course>326.3</course>
<desc>Speed 1.5 km/h Distance 107 km</desc>
<time>2011-03-24T16:56:56.11</time>
<name>4835</name>
</trkpt>
<trkpt lat="49.241842" lon="8.906358">
<ele>223.5</ele>
<speed>0.9</speed>
<course>169.7</course>
<desc>Speed 0.9 km/h Distance 107 km</desc>
<time>2011-03-24T16:56:57.10</time>
<name>4836</name>
</trkpt>
<trkpt lat="49.241835" lon="8.906360">
<ele>225.5</ele>
<speed>0.4</speed>
<course>163.4</course>
<desc>Speed 0.4 km/h Distance 107 km</desc>
<time>2011-03-24T16:56:58.10</time>
<name>4837</name>
</trkpt>
<trkpt lat="49.241817" lon="8.906368">
<ele>226.0</ele>
<speed>1.0</speed>
<course>57.5</course>
<desc>Speed 1.0 km/h Distance 107 km</desc>
<time>2011-03-24T16:56:59.10</time>
<name>4838</name>
</trkpt>
<trkpt lat="49.241825" lon="8.906388">
<ele>224.0</ele>
<speed>0.6</speed>
<course>119.8</course>
<desc>Speed 0.6 km/h Distance 107 km</desc>
<time>2011-03-24T16:57:00.10</time>
<name>4839</name>
</trkpt>
<trkpt lat="49.241820" lon="8.906402">
<ele>223.5</ele>
<speed>3.8</speed>
<course>47.8</course>
<desc>Speed 3.8 km/h Distance 107 km</desc>
<time>2011-03-24T16:57:01.10</time>
<name>4840</name>
</trkpt>
<trkpt lat="49.241825" lon="8.906410">
<ele>222.5</ele>
<speed>3.8</speed>
<course>113.6</course>
<desc>Speed 3.8 km/h Distance 107 km</desc>
<time>2011-03-24T16:57:02.10</time>
<name>4841</name>
</trkpt>
<trkpt lat="49.241818" lon="8.906433">
<ele>221.5</ele>
<speed>3.8</speed>
<course>51.9</course>
<desc>Speed 3.8 km/h Distance 107 km</desc>
<time>2011-03-24T16:57:03.10</time>
<name>4842</name>
</trkpt>
<trkpt lat="49.241822" lon="8.906440">
<ele>221.5</ele>
<speed>3.8</speed>
<course>81.3</course>
<desc>Speed 3.8 km/h Distance 107 km</desc>
<time>2011-03-24T16:57:04.10</time>
<name>4843</name>
</trkpt>
<trkpt lat="49.241823" lon="8.906457">
<ele>220.5</ele>
<speed>3.8</speed>
<course>335.1</course>
<desc>Speed 3.8 km/h Distance 107 km</desc>
<time>2011-03-24T16:57:05.10</time>
<name>4844</name>
</trkpt>
<trkpt lat="49.241835" lon="8.906448">
<ele>220.0</ele>
<speed>2.8</speed>
<course>67.1</course>
<desc>Speed 2.8 km/h Distance 107 km</desc>
<time>2011-03-24T16:57:06.09</time>
<name>4845</name>
</trkpt>
<trkpt lat="49.241848" lon="8.906497">
<ele>218.0</ele>
<speed>2.8</speed>
<course>177.3</course>
<desc>Speed 2.8 km/h Distance 107 km</desc>
<time>2011-03-24T16:57:07.09</time>
<name>4846</name>
</trkpt>
<trkpt lat="49.241828" lon="8.906498">
<ele>215.0</ele>
<speed>2.8</speed>
<course>97.7</course>
<desc>Speed 2.8 km/h Distance 107 km</desc>
<time>2011-03-24T16:57:08.09</time>
<name>4847</name>
</trkpt>
<trkpt lat="49.241823" lon="8.906555">
<ele>213.5</ele>
<speed>2.5</speed>
<course>169.7</course>
<desc>Speed 2.5 km/h Distance 107 km</desc>
<time>2011-03-24T16:57:09.09</time>
<name>4848</name>
</trkpt>
<trkpt lat="49.241817" lon="8.906557">
<ele>213.0</ele>
<speed>3.2</speed>
<course>117.0</course>
<desc>Speed 3.2 km/h Distance 107 km</desc>
<time>2011-03-24T16:57:10.09</time>
<name>4849</name>
</trkpt>
<trkpt lat="49.241812" lon="8.906572">
<ele>213.0</ele>
<speed>3.2</speed>
<course>127.2</course>
<desc>Speed 3.2 km/h Distance 107 km</desc>
<time>2011-03-24T16:57:11.09</time>
<name>4850</name>
</trkpt>
<trkpt lat="49.241807" lon="8.906582">
<ele>213.0</ele>
<speed>3.2</speed>
<course>98.7</course>
<desc>Speed 3.2 km/h Distance 107 km</desc>
<time>2011-03-24T16:57:12.09</time>
<name>4851</name>
</trkpt>
<trkpt lat="49.241805" lon="8.906598">
<ele>213.0</ele>
<speed>4.5</speed>
<course>251.2</course>
<desc>Speed 4.5 km/h Distance 107 km</desc>
<time>2011-03-24T16:57:13.09</time>
<name>4852</name>
</trkpt>
<trkpt lat="49.241802" lon="8.906583">
<ele>212.5</ele>
<speed>4.5</speed>
<course>270.0</course>
<desc>Speed 4.5 km/h Distance 107 km</desc>
<time>2011-03-24T16:57:14.09</time>
<name>4853</name>
</trkpt>
<trkpt lat="49.241802" lon="8.906567">
<ele>212.0</ele>
<speed>4.5</speed>
<course>228.1</course>
<desc>Speed 4.5 km/h Distance 107 km</desc>
<time>2011-03-24T16:57:15.09</time>
<name>4854</name>
</trkpt>
<trkpt lat="49.241773" lon="8.906518">
<ele>211.5</ele>
<speed>4.5</speed>
<course>337.0</course>
<desc>Speed 4.5 km/h Distance 107 km</desc>
<time>2011-03-24T16:57:16.09</time>
<name>4855</name>
</trkpt>
<trkpt lat="49.241783" lon="8.906512">
<ele>212.0</ele>
<speed>3.2</speed>
<course>284.4</course>
<desc>Speed 3.2 km/h Distance 107 km</desc>
<time>2011-03-24T16:57:17.08</time>
<name>4856</name>
</trkpt>
<trkpt lat="49.241787" lon="8.906492">
<ele>211.5</ele>
<speed>1.4</speed>
<course>270.0</course>
<desc>Speed 1.4 km/h Distance 107 km</desc>
<time>2011-03-24T16:57:18.09</time>
<name>4857</name>
</trkpt>
<trkpt lat="49.241787" lon="8.906480">
<ele>211.5</ele>
<speed>1.4</speed>
<course>270.0</course>
<desc>Speed 1.4 km/h Distance 107 km</desc>
<time>2011-03-24T16:57:19.09</time>
<name>4858</name>
</trkpt>
<trkpt lat="49.241787" lon="8.906465">
<ele>211.0</ele>
<speed>1.4</speed>
<course>289.5</course>
<desc>Speed 1.4 km/h Distance 107 km</desc>
<time>2011-03-24T16:57:20.09</time>
<name>4859</name>
</trkpt>
<trkpt lat="49.241792" lon="8.906443">
<ele>210.5</ele>
<speed>4.1</speed>
<course>303.4</course>
<desc>Speed 4.1 km/h Distance 107 km</desc>
<time>2011-03-24T16:57:21.08</time>
<name>4860</name>
</trkpt>
<trkpt lat="49.241797" lon="8.906432">
<ele>210.0</ele>
<speed>4.1</speed>
<course>254.4</course>
<desc>Speed 4.1 km/h Distance 107 km</desc>
<time>2011-03-24T16:57:22.08</time>
<name>4861</name>
</trkpt>
<trkpt lat="49.241793" lon="8.906413">
<ele>210.5</ele>
<speed>3.4</speed>
<course>280.8</course>
<desc>Speed 3.4 km/h Distance 107 km</desc>
<time>2011-03-24T16:57:23.09</time>
<name>4862</name>
</trkpt>
<trkpt lat="49.241795" lon="8.906400">
<ele>210.5</ele>
<speed>3.4</speed>
<course>307.5</course>
<desc>Speed 3.4 km/h Distance 107 km</desc>
<time>2011-03-24T16:57:24.09</time>
<name>4863</name>
</trkpt>
<trkpt lat="49.241807" lon="8.906377">
<ele>210.0</ele>
<speed>3.4</speed>
<course>333.0</course>
<desc>Speed 3.4 km/h Distance 107 km</desc>
<time>2011-03-24T16:57:25.08</time>
<name>4864</name>
</trkpt>
<trkpt lat="49.241815" lon="8.906370">
<ele>210.0</ele>
<speed>3.4</speed>
<course>296.6</course>
<desc>Speed 3.4 km/h Distance 107 km</desc>
<time>2011-03-24T16:57:26.08</time>
<name>4865</name>
</trkpt>
<trkpt lat="49.241817" lon="8.906365">
<ele>210.5</ele>
<speed>2.8</speed>
<course>127.2</course>
<desc>Speed 2.8 km/h Distance 107 km</desc>
<time>2011-03-24T16:57:27.08</time>
<name>4866</name>
</trkpt>
<trkpt lat="49.241812" lon="8.906375">
<ele>209.0</ele>
<speed>3.0</speed>
<course>270.0</course>
<desc>Speed 3.0 km/h Distance 107 km</desc>
<time>2011-03-24T16:57:28.08</time>
<name>4867</name>
</trkpt>
<trkpt lat="49.241812" lon="8.906372">
<ele>208.5</ele>
<speed>3.0</speed>
<course>320.6</course>
<desc>Speed 3.0 km/h Distance 107 km</desc>
<time>2011-03-24T16:57:29.09</time>
<name>4868</name>
</trkpt>
<trkpt lat="49.241818" lon="8.906363">
<ele>208.5</ele>
<speed>3.0</speed>
<course>220.9</course>
<desc>Speed 3.0 km/h Distance 107 km</desc>
<time>2011-03-24T16:57:30.08</time>
<name>4869</name>
</trkpt>
<trkpt lat="49.241813" lon="8.906357">
<ele>208.5</ele>
<speed>2.0</speed>
<course>192.6</course>
<desc>Speed 2.0 km/h Distance 107 km</desc>
<time>2011-03-24T16:57:31.08</time>
<name>4870</name>
</trkpt>
<trkpt lat="49.241808" lon="8.906355">
<ele>208.5</ele>
<speed>2.4</speed>
<course>161.2</course>
<desc>Speed 2.4 km/h Distance 107 km</desc>
<time>2011-03-24T16:57:32.08</time>
<name>4871</name>
</trkpt>
<trkpt lat="49.241802" lon="8.906358">
<ele>208.0</ele>
<speed>1.0</speed>
<course>169.6</course>
<desc>Speed 1.0 km/h Distance 107 km</desc>
<time>2011-03-24T16:57:33.08</time>
<name>4872</name>
</trkpt>
<trkpt lat="49.241790" lon="8.906362">
<ele>208.0</ele>
<speed>1.3</speed>
<course>194.6</course>
<desc>Speed 1.3 km/h Distance 107 km</desc>
<time>2011-03-24T16:57:34.07</time>
<name>4873</name>
</trkpt>
<trkpt lat="49.241765" lon="8.906352">
<ele>210.0</ele>
<speed>2.4</speed>
<course>326.3</course>
<desc>Speed 2.4 km/h Distance 107 km</desc>
<time>2011-03-24T16:57:36.08</time>
<name>4874</name>
</trkpt>
<trkpt lat="49.241768" lon="8.906348">
<ele>210.0</ele>
<speed>0.4</speed>
<course>194.0</course>
<desc>Speed 0.4 km/h Distance 107 km</desc>
<time>2011-03-24T16:57:37.08</time>
<name>4875</name>
</trkpt>
<trkpt lat="49.241755" lon="8.906343">
<ele>210.5</ele>
<speed>0.8</speed>
<course>62.1</course>
<desc>Speed 0.8 km/h Distance 107 km</desc>
<time>2011-03-24T16:57:38.08</time>
<name>4876</name>
</trkpt>
<trkpt lat="49.241770" lon="8.906387">
<ele>201.5</ele>
<speed>1.7</speed>
<course>154.4</course>
<desc>Speed 1.7 km/h Distance 107 km</desc>
<time>2011-03-24T16:57:39.08</time>
<name>4877</name>
</trkpt>
<trkpt lat="49.241745" lon="8.906405">
<ele>202.0</ele>
<speed>6.1</speed>
<course>167.4</course>
<desc>Speed 6.1 km/h Distance 107 km</desc>
<time>2011-03-24T16:57:40.08</time>
<name>4878</name>
</trkpt>
<trkpt lat="49.241742" lon="8.906407">
<ele>202.5</ele>
<speed>6.1</speed>
<course>40.3</course>
<desc>Speed 6.1 km/h Distance 107 km</desc>
<time>2011-03-24T16:57:41.08</time>
<name>4879</name>
</trkpt>
<trkpt lat="49.241758" lon="8.906428">
<ele>201.0</ele>
<speed>5.0</speed>
<course>338.5</course>
<desc>Speed 5.0 km/h Distance 107 km</desc>
<time>2011-03-24T16:57:42.08</time>
<name>4880</name>
</trkpt>
<trkpt lat="49.241767" lon="8.906423">
<ele>201.0</ele>
<speed>2.8</speed>
<course>197.9</course>
<desc>Speed 2.8 km/h Distance 107 km</desc>
<time>2011-03-24T16:57:43.08</time>
<name>4881</name>
</trkpt>
<trkpt lat="49.241750" lon="8.906415">
<ele>200.0</ele>
<speed>9.3</speed>
<course>44.3</course>
<desc>Speed 9.3 km/h Distance 107 km</desc>
<time>2011-03-24T16:57:44.07</time>
<name>4882</name>
</trkpt>
<trkpt lat="49.241760" lon="8.906430">
<ele>199.5</ele>
<speed>5.5</speed>
<course>0.0</course>
<desc>Speed 5.5 km/h Distance 107 km</desc>
<time>2011-03-24T16:57:45.07</time>
<name>4883</name>
</trkpt>
<trkpt lat="49.241782" lon="8.906428">
<ele>200.0</ele>
<speed>1.6</speed>
<course>315.7</course>
<desc>Speed 1.6 km/h Distance 107 km</desc>
<time>2011-03-24T16:57:46.07</time>
<name>4884</name>
</trkpt>
<trkpt lat="49.241792" lon="8.906413">
<ele>200.0</ele>
<speed>1.4</speed>
<course>287.1</course>
<desc>Speed 1.4 km/h Distance 107 km</desc>
<time>2011-03-24T16:57:47.07</time>
<name>4885</name>
</trkpt>
<trkpt lat="49.241795" lon="8.906397">
<ele>200.5</ele>
<speed>1.5</speed>
<course>12.1</course>
<desc>Speed 1.5 km/h Distance 107 km</desc>
<time>2011-03-24T16:57:48.07</time>
<name>4886</name>
</trkpt>
<trkpt lat="49.241815" lon="8.906403">
<ele>201.5</ele>
<speed>0.3</speed>
<course>167.4</course>
<desc>Speed 0.3 km/h Distance 107 km</desc>
<time>2011-03-24T16:57:49.07</time>
<name>4887</name>
</trkpt>
<trkpt lat="49.241810" lon="8.906405">
<ele>203.0</ele>
<speed>2.3</speed>
<course>29.2</course>
<desc>Speed 2.3 km/h Distance 107 km</desc>
<time>2011-03-24T16:57:50.07</time>
<name>4888</name>
</trkpt>
<trkpt lat="49.241812" lon="8.906405">
<ele>203.0</ele>
<speed>0.8</speed>
<course>217.2</course>
<desc>Speed 0.8 km/h Distance 107 km</desc>
<time>2011-03-24T16:57:51.07</time>
<name>4889</name>
</trkpt>
<trkpt lat="49.241810" lon="8.906403">
<ele>204.0</ele>
<speed>0.8</speed>
<course>180.0</course>
<desc>Speed 0.8 km/h Distance 107 km</desc>
<time>2011-03-24T16:57:52.06</time>
<name>4890</name>
</trkpt>
<trkpt lat="49.241807" lon="8.906403">
<ele>205.0</ele>
<speed>0.3</speed>
<course>103.3</course>
<desc>Speed 0.3 km/h Distance 107 km</desc>
<time>2011-03-24T16:57:53.07</time>
<name>4891</name>
</trkpt>
<trkpt lat="49.241803" lon="8.906425">
<ele>209.0</ele>
<speed>1.2</speed>
<course>12.6</course>
<desc>Speed 1.2 km/h Distance 107 km</desc>
<time>2011-03-24T16:57:54.07</time>
<name>4892</name>
</trkpt>
<trkpt lat="49.241805" lon="8.906425">
<ele>208.5</ele>
<speed>1.0</speed>
<course>180.0</course>
<desc>Speed 1.0 km/h Distance 107 km</desc>
<time>2011-03-24T16:57:55.07</time>
<name>4893</name>
</trkpt>
<trkpt lat="49.241800" lon="8.906425">
<ele>211.0</ele>
<speed>0.2</speed>
<course>270.0</course>
<desc>Speed 0.2 km/h Distance 107 km</desc>
<time>2011-03-24T16:57:56.08</time>
<name>4894</name>
</trkpt>
<trkpt lat="49.241800" lon="8.906422">
<ele>211.5</ele>
<speed>1.7</speed>
<course>242.6</course>
<desc>Speed 1.7 km/h Distance 107 km</desc>
<time>2011-03-24T16:57:57.07</time>
<name>4895</name>
</trkpt>
<trkpt lat="49.241798" lon="8.906417">
<ele>210.5</ele>
<speed>0.1</speed>
<course>307.6</course>
<desc>Speed 0.1 km/h Distance 107 km</desc>
<time>2011-03-24T16:57:58.94</time>
<name>4896</name>
</trkpt>
<trkpt lat="49.241802" lon="8.906410">
<ele>210.5</ele>
<speed>0.3</speed>
<course>308.1</course>
<desc>Speed 0.3 km/h Distance 107 km</desc>
<time>2011-03-24T16:58:00.08</time>
<name>4897</name>
</trkpt>
<trkpt lat="49.241803" lon="8.906407">
<ele>211.0</ele>
<speed>0.3</speed>
<course>12.6</course>
<desc>Speed 0.3 km/h Distance 107 km</desc>
<time>2011-03-24T16:58:01.08</time>
<name>4898</name>
</trkpt>
<trkpt lat="49.241805" lon="8.906407">
<ele>210.5</ele>
<speed>0.7</speed>
<course>12.6</course>
<desc>Speed 0.7 km/h Distance 107 km</desc>
<time>2011-03-24T16:58:02.08</time>
<name>4899</name>
</trkpt>
<trkpt lat="49.241807" lon="8.906407">
<ele>210.0</ele>
<speed>0.3</speed>
<course>0.0</course>
<desc>Speed 0.3 km/h Distance 107 km</desc>
<time>2011-03-24T16:58:03.08</time>
<name>4900</name>
</trkpt>
<trkpt lat="49.241808" lon="8.906407">
<ele>209.0</ele>
<speed>0.2</speed>
<course>192.6</course>
<desc>Speed 0.2 km/h Distance 107 km</desc>
<time>2011-03-24T16:58:04.08</time>
<name>4901</name>
</trkpt>
<trkpt lat="49.241807" lon="8.906405">
<ele>210.0</ele>
<speed>0.3</speed>
<course>48.7</course>
<desc>Speed 0.3 km/h Distance 107 km</desc>
<time>2011-03-24T16:58:05.08</time>
<name>4902</name>
</trkpt>
<trkpt lat="49.241813" lon="8.906417">
<ele>209.5</ele>
<speed>0.3</speed>
<course>48.7</course>
<desc>Speed 0.3 km/h Distance 107 km</desc>
<time>2011-03-24T16:58:06.07</time>
<name>4903</name>
</trkpt>
<trkpt lat="49.241813" lon="8.906417">
<ele>209.5</ele>
<speed>0.5</speed>
<course>26.4</course>
<desc>Speed 0.5 km/h Distance 107 km</desc>
<time>2011-03-24T16:58:07.08</time>
<name>4904</name>
</trkpt>
<trkpt lat="49.241820" lon="8.906422">
<ele>209.0</ele>
<speed>0.4</speed>
<course>26.4</course>
<desc>Speed 0.4 km/h Distance 107 km</desc>
<time>2011-03-24T16:58:08.08</time>
<name>4905</name>
</trkpt>
<trkpt lat="49.241820" lon="8.906422">
<ele>209.0</ele>
<speed>0.5</speed>
<course>322.8</course>
<desc>Speed 0.5 km/h Distance 107 km</desc>
<time>2011-03-24T16:58:09.07</time>
<name>4906</name>
</trkpt>
<trkpt lat="49.241822" lon="8.906420">
<ele>208.5</ele>
<speed>0.3</speed>
<course>217.2</course>
<desc>Speed 0.3 km/h Distance 107 km</desc>
<time>2011-03-24T16:58:10.08</time>
<name>4907</name>
</trkpt>
<trkpt lat="49.241820" lon="8.906418">
<ele>210.0</ele>
<speed>1.7</speed>
<course>12.6</course>
<desc>Speed 1.7 km/h Distance 107 km</desc>
<time>2011-03-24T16:58:11.07</time>
<name>4908</name>
</trkpt>
<trkpt lat="49.241823" lon="8.906418">
<ele>210.0</ele>
<speed>0.6</speed>
<course>12.6</course>
<desc>Speed 0.6 km/h Distance 107 km</desc>
<time>2011-03-24T16:58:12.07</time>
<name>4909</name>
</trkpt>
<trkpt lat="49.241828" lon="8.906420">
<ele>209.5</ele>
<speed>0.2</speed>
<course>270.0</course>
<desc>Speed 0.2 km/h Distance 107 km</desc>
<time>2011-03-24T16:58:13.07</time>
<name>4910</name>
</trkpt>
<trkpt lat="49.241828" lon="8.906418">
<ele>210.0</ele>
<speed>0.8</speed>
<course>270.0</course>
<desc>Speed 0.8 km/h Distance 107 km</desc>
<time>2011-03-24T16:58:14.07</time>
<name>4911</name>
</trkpt>
<trkpt lat="49.241828" lon="8.906418">
<ele>210.0</ele>
<speed>1.8</speed>
<course>29.2</course>
<desc>Speed 1.8 km/h Distance 107 km</desc>
<time>2011-03-24T16:58:15.07</time>
<name>4912</name>
</trkpt>
<trkpt lat="49.241830" lon="8.906420">
<ele>209.0</ele>
<speed>0.2</speed>
<course>0.0</course>
<desc>Speed 0.2 km/h Distance 107 km</desc>
<time>2011-03-24T16:58:16.07</time>
<name>4913</name>
</trkpt>
<trkpt lat="49.241832" lon="8.906420">
<ele>209.0</ele>
<speed>0.3</speed>
<course>347.4</course>
<desc>Speed 0.3 km/h Distance 107 km</desc>
<time>2011-03-24T16:58:17.07</time>
<name>4914</name>
</trkpt>
<trkpt lat="49.241837" lon="8.906418">
<ele>208.5</ele>
<speed>0.3</speed>
<course>270.0</course>
<desc>Speed 0.3 km/h Distance 107 km</desc>
<time>2011-03-24T16:58:18.07</time>
<name>4915</name>
</trkpt>
<trkpt lat="49.241837" lon="8.906417">
<ele>208.5</ele>
<speed>0.6</speed>
<course>12.6</course>
<desc>Speed 0.6 km/h Distance 107 km</desc>
<time>2011-03-24T16:58:19.07</time>
<name>4916</name>
</trkpt>
<trkpt lat="49.241840" lon="8.906417">
<ele>208.0</ele>
<speed>0.2</speed>
<course>12.6</course>
<desc>Speed 0.2 km/h Distance 107 km</desc>
<time>2011-03-24T16:58:20.07</time>
<name>4917</name>
</trkpt>
<trkpt lat="49.241842" lon="8.906417">
<ele>207.5</ele>
<speed>0.7</speed>
<course>12.6</course>
<desc>Speed 0.7 km/h Distance 107 km</desc>
<time>2011-03-24T16:58:21.06</time>
<name>4918</name>
</trkpt>
<trkpt lat="49.241845" lon="8.906417">
<ele>207.0</ele>
<speed>0.4</speed>
<course>37.2</course>
<desc>Speed 0.4 km/h Distance 107 km</desc>
<time>2011-03-24T16:58:22.07</time>
<name>4919</name>
</trkpt>
<trkpt lat="49.241847" lon="8.906418">
<ele>206.0</ele>
<speed>0.3</speed>
<course>37.2</course>
<desc>Speed 0.3 km/h Distance 107 km</desc>
<time>2011-03-24T16:58:23.06</time>
<name>4920</name>
</trkpt>
<trkpt lat="49.241847" lon="8.906418">
<ele>206.0</ele>
<speed>0.2</speed>
<course>270.0</course>
<desc>Speed 0.2 km/h Distance 107 km</desc>
<time>2011-03-24T16:58:24.06</time>
<name>4921</name>
</trkpt>
<trkpt lat="49.241847" lon="8.906413">
<ele>205.5</ele>
<speed>1.4</speed>
<course>12.6</course>
<desc>Speed 1.4 km/h Distance 107 km</desc>
<time>2011-03-24T16:58:25.06</time>
<name>4922</name>
</trkpt>
<trkpt lat="49.241848" lon="8.906413">
<ele>205.0</ele>
<speed>0.2</speed>
<course>308.1</course>
<desc>Speed 0.2 km/h Distance 107 km</desc>
<time>2011-03-24T16:58:26.07</time>
<name>4923</name>
</trkpt>
<trkpt lat="49.241850" lon="8.906410">
<ele>204.5</ele>
<speed>0.9</speed>
<course>209.2</course>
<desc>Speed 0.9 km/h Distance 107 km</desc>
<time>2011-03-24T16:58:27.06</time>
<name>4924</name>
</trkpt>
<trkpt lat="49.241848" lon="8.906408">
<ele>203.5</ele>
<speed>1.9</speed>
<course>330.8</course>
<desc>Speed 1.9 km/h Distance 107 km</desc>
<time>2011-03-24T16:58:28.06</time>
<name>4925</name>
</trkpt>
<trkpt lat="49.241850" lon="8.906407">
<ele>202.5</ele>
<speed>1.5</speed>
<course>12.6</course>
<desc>Speed 1.5 km/h Distance 107 km</desc>
<time>2011-03-24T16:58:29.06</time>
<name>4926</name>
</trkpt>
<trkpt lat="49.241853" lon="8.906407">
<ele>201.0</ele>
<speed>1.4</speed>
<course>37.2</course>
<desc>Speed 1.4 km/h Distance 107 km</desc>
<time>2011-03-24T16:58:30.06</time>
<name>4927</name>
</trkpt>
<trkpt lat="49.241855" lon="8.906408">
<ele>200.0</ele>
<speed>0.6</speed>
<course>238.6</course>
<desc>Speed 0.6 km/h Distance 107 km</desc>
<time>2011-03-24T16:58:31.06</time>
<name>4928</name>
</trkpt>
<trkpt lat="49.241852" lon="8.906400">
<ele>200.5</ele>
<speed>1.9</speed>
<course>18.8</course>
<desc>Speed 1.9 km/h Distance 107 km</desc>
<time>2011-03-24T16:58:32.06</time>
<name>4929</name>
</trkpt>
<trkpt lat="49.241855" lon="8.906402">
<ele>199.5</ele>
<speed>0.6</speed>
<course>12.6</course>
<desc>Speed 0.6 km/h Distance 107 km</desc>
<time>2011-03-24T16:58:33.06</time>
<name>4930</name>
</trkpt>
<trkpt lat="49.241857" lon="8.906402">
<ele>199.5</ele>
<speed>0.1</speed>
<course>66.3</course>
<desc>Speed 0.1 km/h Distance 107 km</desc>
<time>2011-03-24T16:58:34.05</time>
<name>4931</name>
</trkpt>
<trkpt lat="49.241860" lon="8.906413">
<ele>198.5</ele>
<speed>2.9</speed>
<course>12.6</course>
<desc>Speed 2.9 km/h Distance 107 km</desc>
<time>2011-03-24T16:58:35.06</time>
<name>4932</name>
</trkpt>
<trkpt lat="49.241862" lon="8.906415">
<ele>198.5</ele>
<speed>0.4</speed>
<course>44.5</course>
<desc>Speed 0.4 km/h Distance 107 km</desc>
<time>2011-03-24T16:58:36.06</time>
<name>4933</name>
</trkpt>
<trkpt lat="49.241865" lon="8.906420">
<ele>198.5</ele>
<speed>1.2</speed>
<course>308.1</course>
<desc>Speed 1.2 km/h Distance 107 km</desc>
<time>2011-03-24T16:58:37.05</time>
<name>4934</name>
</trkpt>
<trkpt lat="49.241867" lon="8.906417">
<ele>199.0</ele>
<speed>1.3</speed>
<course>270.0</course>
<desc>Speed 1.3 km/h Distance 107 km</desc>
<time>2011-03-24T16:58:38.06</time>
<name>4935</name>
</trkpt>
<trkpt lat="49.241867" lon="8.906415">
<ele>199.0</ele>
<speed>1.3</speed>
<course>233.0</course>
<desc>Speed 1.3 km/h Distance 107 km</desc>
<time>2011-03-24T16:58:39.05</time>
<name>4936</name>
</trkpt>
<trkpt lat="49.241863" lon="8.906408">
<ele>200.0</ele>
<speed>1.4</speed>
<course>202.1</course>
<desc>Speed 1.4 km/h Distance 107 km</desc>
<time>2011-03-24T16:58:40.05</time>
<name>4937</name>
</trkpt>
<trkpt lat="49.241855" lon="8.906403">
<ele>199.5</ele>
<speed>0.7</speed>
<course>202.3</course>
<desc>Speed 0.7 km/h Distance 107 km</desc>
<time>2011-03-24T16:58:41.05</time>
<name>4938</name>
</trkpt>
<trkpt lat="49.241842" lon="8.906395">
<ele>199.0</ele>
<speed>1.2</speed>
<course>208.0</course>
<desc>Speed 1.2 km/h Distance 107 km</desc>
<time>2011-03-24T16:58:42.05</time>
<name>4939</name>
</trkpt>
<trkpt lat="49.241823" lon="8.906380">
<ele>198.5</ele>
<speed>1.4</speed>
<course>218.1</course>
<desc>Speed 1.4 km/h Distance 107 km</desc>
<time>2011-03-24T16:58:43.05</time>
<name>4940</name>
</trkpt>
<trkpt lat="49.241807" lon="8.906360">
<ele>199.0</ele>
<speed>0.1</speed>
<course>162.5</course>
<desc>Speed 0.1 km/h Distance 107 km</desc>
<time>2011-03-24T16:58:44.05</time>
<name>4941</name>
</trkpt>
<trkpt lat="49.241800" lon="8.906363">
<ele>198.5</ele>
<speed>0.9</speed>
<course>177.2</course>
<desc>Speed 0.9 km/h Distance 107 km</desc>
<time>2011-03-24T16:58:45.05</time>
<name>4942</name>
</trkpt>
<trkpt lat="49.241783" lon="8.906365">
<ele>197.0</ele>
<speed>3.1</speed>
<course>128.1</course>
<desc>Speed 3.1 km/h Distance 107 km</desc>
<time>2011-03-24T16:58:46.05</time>
<name>4943</name>
</trkpt>
<trkpt lat="49.241780" lon="8.906372">
<ele>196.5</ele>
<speed>0.6</speed>
<course>114.6</course>
<desc>Speed 0.6 km/h Distance 107 km</desc>
<time>2011-03-24T16:58:47.05</time>
<name>4944</name>
</trkpt>
<trkpt lat="49.241775" lon="8.906388">
<ele>195.0</ele>
<speed>1.5</speed>
<course>121.4</course>
<desc>Speed 1.5 km/h Distance 107 km</desc>
<time>2011-03-24T16:58:48.05</time>
<name>4945</name>
</trkpt>
<trkpt lat="49.241772" lon="8.906397">
<ele>194.5</ele>
<speed>0.6</speed>
<course>175.6</course>
<desc>Speed 0.6 km/h Distance 107 km</desc>
<time>2011-03-24T16:58:49.05</time>
<name>4946</name>
</trkpt>
<trkpt lat="49.241762" lon="8.906398">
<ele>193.5</ele>
<speed>3.4</speed>
<course>146.8</course>
<desc>Speed 3.4 km/h Distance 107 km</desc>
<time>2011-03-24T16:58:50.05</time>
<name>4947</name>
</trkpt>
<trkpt lat="49.241757" lon="8.906403">
<ele>195.0</ele>
<speed>1.1</speed>
<course>290.9</course>
<desc>Speed 1.1 km/h Distance 107 km</desc>
<time>2011-03-24T16:58:51.05</time>
<name>4948</name>
</trkpt>
<trkpt lat="49.241758" lon="8.906397">
<ele>196.5</ele>
<speed>1.8</speed>
<course>167.4</course>
<desc>Speed 1.8 km/h Distance 107 km</desc>
<time>2011-03-24T16:58:52.05</time>
<name>4949</name>
</trkpt>
<trkpt lat="49.241757" lon="8.906397">
<ele>196.5</ele>
<speed>0.8</speed>
<course>167.4</course>
<desc>Speed 0.8 km/h Distance 107 km</desc>
<time>2011-03-24T16:58:53.05</time>
<name>4950</name>
</trkpt>
<trkpt lat="49.241753" lon="8.906397">
<ele>197.0</ele>
<speed>1.5</speed>
<course>315.5</course>
<desc>Speed 1.5 km/h Distance 107 km</desc>
<time>2011-03-24T16:58:54.05</time>
<name>4951</name>
</trkpt>
<trkpt lat="49.241757" lon="8.906392">
<ele>197.0</ele>
<speed>0.2</speed>
<course>326.3</course>
<desc>Speed 0.2 km/h Distance 107 km</desc>
<time>2011-03-24T16:58:55.04</time>
<name>4952</name>
</trkpt>
<trkpt lat="49.241760" lon="8.906388">
<ele>197.0</ele>
<speed>0.7</speed>
<course>336.2</course>
<desc>Speed 0.7 km/h Distance 107 km</desc>
<time>2011-03-24T16:58:56.05</time>
<name>4953</name>
</trkpt>
<trkpt lat="49.241765" lon="8.906385">
<ele>197.5</ele>
<speed>0.2</speed>
<course>0.0</course>
<desc>Speed 0.2 km/h Distance 107 km</desc>
<time>2011-03-24T16:58:57.04</time>
<name>4954</name>
</trkpt>
<trkpt lat="49.241770" lon="8.906385">
<ele>197.5</ele>
<speed>1.4</speed>
<course>0.0</course>
<desc>Speed 1.4 km/h Distance 107 km</desc>
<time>2011-03-24T16:58:58.04</time>
<name>4955</name>
</trkpt>
<trkpt lat="49.241772" lon="8.906385">
<ele>197.5</ele>
<speed>0.7</speed>
<course>127.6</course>
<desc>Speed 0.7 km/h Distance 107 km</desc>
<time>2011-03-24T16:58:59.04</time>
<name>4956</name>
</trkpt>
<trkpt lat="49.241767" lon="8.906395">
<ele>197.5</ele>
<speed>1.1</speed>
<course>137.7</course>
<desc>Speed 1.1 km/h Distance 107 km</desc>
<time>2011-03-24T16:59:00.04</time>
<name>4957</name>
</trkpt>
<trkpt lat="49.241758" lon="8.906407">
<ele>199.0</ele>
<speed>1.2</speed>
<course>135.7</course>
<desc>Speed 1.2 km/h Distance 107 km</desc>
<time>2011-03-24T16:59:01.04</time>
<name>4958</name>
</trkpt>
<trkpt lat="49.241752" lon="8.906417">
<ele>199.0</ele>
<speed>1.2</speed>
<course>52.6</course>
<desc>Speed 1.2 km/h Distance 107 km</desc>
<time>2011-03-24T16:59:02.04</time>
<name>4959</name>
</trkpt>
<trkpt lat="49.241760" lon="8.906433">
<ele>197.0</ele>
<speed>1.2</speed>
<course>55.2</course>
<desc>Speed 1.2 km/h Distance 107 km</desc>
<time>2011-03-24T16:59:03.04</time>
<name>4960</name>
</trkpt>
<trkpt lat="49.241768" lon="8.906452">
<ele>195.5</ele>
<speed>0.2</speed>
<course>33.7</course>
<desc>Speed 0.2 km/h Distance 107 km</desc>
<time>2011-03-24T16:59:04.04</time>
<name>4961</name>
</trkpt>
<trkpt lat="49.241775" lon="8.906458">
<ele>194.5</ele>
<speed>0.9</speed>
<course>63.4</course>
<desc>Speed 0.9 km/h Distance 107 km</desc>
<time>2011-03-24T16:59:05.04</time>
<name>4962</name>
</trkpt>
<trkpt lat="49.241777" lon="8.906463">
<ele>194.5</ele>
<speed>1.8</speed>
<course>332.0</course>
<desc>Speed 1.8 km/h Distance 107 km</desc>
<time>2011-03-24T16:59:06.03</time>
<name>4963</name>
</trkpt>
<trkpt lat="49.241795" lon="8.906448">
<ele>195.5</ele>
<speed>3.4</speed>
<course>249.0</course>
<desc>Speed 3.4 km/h Distance 107 km</desc>
<time>2011-03-24T16:59:07.04</time>
<name>4964</name>
</trkpt>
<trkpt lat="49.241788" lon="8.906422">
<ele>198.5</ele>
<speed>10.4</speed>
<course>193.8</course>
<desc>Speed 10.4 km/h Distance 107 km</desc>
<time>2011-03-24T16:59:08.04</time>
<name>4965</name>
</trkpt>
<trkpt lat="49.241762" lon="8.906412">
<ele>201.5</ele>
<speed>1.1</speed>
<course>338.5</course>
<desc>Speed 1.1 km/h Distance 107 km</desc>
<time>2011-03-24T16:59:09.04</time>
<name>4966</name>
</trkpt>
<trkpt lat="49.241770" lon="8.906407">
<ele>202.0</ele>
<speed>1.6</speed>
<course>213.2</course>
<desc>Speed 1.6 km/h Distance 107 km</desc>
<time>2011-03-24T16:59:10.04</time>
<name>4967</name>
</trkpt>
<trkpt lat="49.241762" lon="8.906398">
<ele>204.5</ele>
<speed>4.8</speed>
<course>193.5</course>
<desc>Speed 4.8 km/h Distance 107 km</desc>
<time>2011-03-24T16:59:11.04</time>
<name>4968</name>
</trkpt>
<trkpt lat="49.241748" lon="8.906393">
<ele>207.5</ele>
<speed>2.1</speed>
<course>175.0</course>
<desc>Speed 2.1 km/h Distance 107 km</desc>
<time>2011-03-24T16:59:12.03</time>
<name>4969</name>
</trkpt>
<trkpt lat="49.241723" lon="8.906397">
<ele>209.5</ele>
<speed>4.0</speed>
<course>163.0</course>
<desc>Speed 4.0 km/h Distance 107 km</desc>
<time>2011-03-24T16:59:13.03</time>
<name>4970</name>
</trkpt>
<trkpt lat="49.241713" lon="8.906402">
<ele>210.0</ele>
<speed>1.4</speed>
<course>194.9</course>
<desc>Speed 1.4 km/h Distance 107 km</desc>
<time>2011-03-24T16:59:14.03</time>
<name>4971</name>
</trkpt>
<trkpt lat="49.241705" lon="8.906398">
<ele>211.5</ele>
<speed>0.7</speed>
<course>139.1</course>
<desc>Speed 0.7 km/h Distance 107 km</desc>
<time>2011-03-24T16:59:15.03</time>
<name>4972</name>
</trkpt>
<trkpt lat="49.241700" lon="8.906405">
<ele>211.5</ele>
<speed>0.4</speed>
<course>162.5</course>
<desc>Speed 0.4 km/h Distance 107 km</desc>
<time>2011-03-24T16:59:16.03</time>
<name>4973</name>
</trkpt>
<trkpt lat="49.241693" lon="8.906408">
<ele>212.0</ele>
<speed>2.3</speed>
<course>162.5</course>
<desc>Speed 2.3 km/h Distance 107 km</desc>
<time>2011-03-24T16:59:17.03</time>
<name>4974</name>
</trkpt>
<trkpt lat="49.241687" lon="8.906412">
<ele>212.0</ele>
<speed>2.3</speed>
<course>331.9</course>
<desc>Speed 2.3 km/h Distance 107 km</desc>
<time>2011-03-24T16:59:18.03</time>
<name>4975</name>
</trkpt>
<trkpt lat="49.241705" lon="8.906397">
<ele>213.5</ele>
<speed>0.1</speed>
<course>12.6</course>
<desc>Speed 0.1 km/h Distance 107 km</desc>
<time>2011-03-24T16:59:19.03</time>
<name>4976</name>
</trkpt>
<trkpt lat="49.241710" lon="8.906398">
<ele>213.0</ele>
<speed>0.8</speed>
<course>342.0</course>
<desc>Speed 0.8 km/h Distance 107 km</desc>
<time>2011-03-24T16:59:20.03</time>
<name>4977</name>
</trkpt>
<trkpt lat="49.241733" lon="8.906387">
<ele>213.5</ele>
<speed>2.3</speed>
<course>146.9</course>
<desc>Speed 2.3 km/h Distance 107 km</desc>
<time>2011-03-24T16:59:21.03</time>
<name>4978</name>
</trkpt>
<trkpt lat="49.241717" lon="8.906403">
<ele>213.0</ele>
<speed>4.6</speed>
<course>139.1</course>
<desc>Speed 4.6 km/h Distance 107 km</desc>
<time>2011-03-24T16:59:22.03</time>
<name>4979</name>
</trkpt>
<trkpt lat="49.241712" lon="8.906410">
<ele>213.0</ele>
<speed>2.1</speed>
<course>128.1</course>
<desc>Speed 2.1 km/h Distance 107 km</desc>
<time>2011-03-24T16:59:23.03</time>
<name>4980</name>
</trkpt>
<trkpt lat="49.241708" lon="8.906417">
<ele>212.5</ele>
<speed>2.3</speed>
<course>167.4</course>
<desc>Speed 2.3 km/h Distance 107 km</desc>
<time>2011-03-24T16:59:24.03</time>
<name>4981</name>
</trkpt>
<trkpt lat="49.241705" lon="8.906418">
<ele>212.5</ele>
<speed>1.0</speed>
<course>142.8</course>
<desc>Speed 1.0 km/h Distance 107 km</desc>
<time>2011-03-24T16:59:25.03</time>
<name>4982</name>
</trkpt>
<trkpt lat="49.241703" lon="8.906420">
<ele>212.5</ele>
<speed>0.6</speed>
<course>146.8</course>
<desc>Speed 0.6 km/h Distance 107 km</desc>
<time>2011-03-24T16:59:26.02</time>
<name>4983</name>
</trkpt>
<trkpt lat="49.241698" lon="8.906425">
<ele>212.5</ele>
<speed>0.5</speed>
<course>128.1</course>
<desc>Speed 0.5 km/h Distance 107 km</desc>
<time>2011-03-24T16:59:27.02</time>
<name>4984</name>
</trkpt>
<trkpt lat="49.241697" lon="8.906428">
<ele>212.5</ele>
<speed>0.5</speed>
<course>353.6</course>
<desc>Speed 0.5 km/h Distance 107 km</desc>
<time>2011-03-24T16:59:28.01</time>
<name>4985</name>
</trkpt>
<trkpt lat="49.241723" lon="8.906423">
<ele>212.0</ele>
<speed>1.9</speed>
<course>139.1</course>
<desc>Speed 1.9 km/h Distance 107 km</desc>
<time>2011-03-24T16:59:29.02</time>
<name>4986</name>
</trkpt>
<trkpt lat="49.241718" lon="8.906430">
<ele>212.0</ele>
<speed>0.9</speed>
<course>154.8</course>
<desc>Speed 0.9 km/h Distance 107 km</desc>
<time>2011-03-24T16:59:30.02</time>
<name>4987</name>
</trkpt>
<trkpt lat="49.241707" lon="8.906438">
<ele>211.5</ele>
<speed>3.1</speed>
<course>135.5</course>
<desc>Speed 3.1 km/h Distance 107 km</desc>
<time>2011-03-24T16:59:31.02</time>
<name>4988</name>
</trkpt>
<trkpt lat="49.241700" lon="8.906448">
<ele>211.5</ele>
<speed>1.5</speed>
<course>113.7</course>
<desc>Speed 1.5 km/h Distance 107 km</desc>
<time>2011-03-24T16:59:32.02</time>
<name>4989</name>
</trkpt>
<trkpt lat="49.241697" lon="8.906460">
<ele>211.5</ele>
<speed>3.1</speed>
<course>358.8</course>
<desc>Speed 3.1 km/h Distance 107 km</desc>
<time>2011-03-24T16:59:33.02</time>
<name>4990</name>
</trkpt>
<trkpt lat="49.241723" lon="8.906458">
<ele>210.5</ele>
<speed>3.1</speed>
<course>33.7</course>
<desc>Speed 3.1 km/h Distance 107 km</desc>
<time>2011-03-24T16:59:34.01</time>
<name>4991</name>
</trkpt>
<trkpt lat="49.241727" lon="8.906462">
<ele>211.0</ele>
<speed>3.0</speed>
<course>135.5</course>
<desc>Speed 3.0 km/h Distance 107 km</desc>
<time>2011-03-24T16:59:35.01</time>
<name>4992</name>
</trkpt>
<trkpt lat="49.241720" lon="8.906472">
<ele>211.0</ele>
<speed>5.5</speed>
<course>336.2</course>
<desc>Speed 5.5 km/h Distance 107 km</desc>
<time>2011-03-24T16:59:36.01</time>
<name>4993</name>
</trkpt>
<trkpt lat="49.241787" lon="8.906427">
<ele>210.0</ele>
<speed>1.5</speed>
<course>344.9</course>
<desc>Speed 1.5 km/h Distance 107 km</desc>
<time>2011-03-24T16:59:38.01</time>
<name>4994</name>
</trkpt>
<trkpt lat="49.241843" lon="8.906403">
<ele>211.0</ele>
<speed>1.5</speed>
<course>344.5</course>
<desc>Speed 1.5 km/h Distance 107 km</desc>
<time>2011-03-24T16:59:40.01</time>
<name>4995</name>
</trkpt>
<trkpt lat="49.241867" lon="8.906393">
<ele>211.0</ele>
<speed>0.8</speed>
<course>29.8</course>
<desc>Speed 0.8 km/h Distance 107 km</desc>
<time>2011-03-24T16:59:41.01</time>
<name>4996</name>
</trkpt>
<trkpt lat="49.241880" lon="8.906405">
<ele>213.0</ele>
<speed>3.9</speed>
<course>325.9</course>
<desc>Speed 3.9 km/h Distance 107 km</desc>
<time>2011-03-24T16:59:42.02</time>
<name>4997</name>
</trkpt>
<trkpt lat="49.241885" lon="8.906400">
<ele>213.0</ele>
<speed>1.4</speed>
<course>312.6</course>
<desc>Speed 1.4 km/h Distance 107 km</desc>
<time>2011-03-24T16:59:43.01</time>
<name>4998</name>
</trkpt>
<trkpt lat="49.241895" lon="8.906383">
<ele>213.0</ele>
<speed>5.1</speed>
<course>0.0</course>
<desc>Speed 5.1 km/h Distance 107 km</desc>
<time>2011-03-24T16:59:44.01</time>
<name>4999</name>
</trkpt>
<trkpt lat="49.241900" lon="8.906383">
<ele>213.0</ele>
<speed>0.9</speed>
<course>318.1</course>
<desc>Speed 0.9 km/h Distance 107 km</desc>
<time>2011-03-24T16:59:45.02</time>
<name>5000</name>
</trkpt>
<trkpt lat="49.241913" lon="8.906365">
<ele>213.5</ele>
<speed>2.9</speed>
<course>127.6</course>
<desc>Speed 2.9 km/h Distance 107 km</desc>
<time>2011-03-24T16:59:46.01</time>
<name>5001</name>
</trkpt>
<trkpt lat="49.241910" lon="8.906372">
<ele>213.5</ele>
<speed>0.4</speed>
<course>192.6</course>
<desc>Speed 0.4 km/h Distance 107 km</desc>
<time>2011-03-24T16:59:47.01</time>
<name>5002</name>
</trkpt>
<trkpt lat="49.241907" lon="8.906370">
<ele>214.0</ele>
<speed>6.8</speed>
<course>133.8</course>
<desc>Speed 6.8 km/h Distance 107 km</desc>
<time>2011-03-24T16:59:48.01</time>
<name>5003</name>
</trkpt>
<trkpt lat="49.241898" lon="8.906383">
<ele>214.5</ele>
<speed>0.8</speed>
<course>63.0</course>
<desc>Speed 0.8 km/h Distance 107 km</desc>
<time>2011-03-24T16:59:49.01</time>
<name>5004</name>
</trkpt>
<trkpt lat="49.241902" lon="8.906393">
<ele>214.5</ele>
<speed>2.4</speed>
<course>89.1</course>
<desc>Speed 2.4 km/h Distance 107 km</desc>
<time>2011-03-24T16:59:50.01</time>
<name>5005</name>
</trkpt>
<trkpt lat="49.241903" lon="8.906552">
<ele>214.5</ele>
<speed>8.6</speed>
<course>84.0</course>
<desc>Speed 8.6 km/h Distance 107 km</desc>
<time>2011-03-24T16:59:52.01</time>
<name>5006</name>
</trkpt>
<trkpt lat="49.241907" lon="8.906600">
<ele>215.0</ele>
<speed>9.8</speed>
<course>90.0</course>
<desc>Speed 9.8 km/h Distance 107 km</desc>
<time>2011-03-24T16:59:53.00</time>
<name>5007</name>
</trkpt>
<trkpt lat="49.241907" lon="8.906667">
<ele>216.0</ele>
<speed>18.3</speed>
<course>137.4</course>
<desc>Speed 18.3 km/h Distance 107 km</desc>
<time>2011-03-24T16:59:54.00</time>
<name>5008</name>
</trkpt>
<trkpt lat="49.241870" lon="8.906718">
<ele>216.0</ele>
<speed>20.7</speed>
<course>161.9</course>
<desc>Speed 20.7 km/h Distance 107 km</desc>
<time>2011-03-24T16:59:55.00</time>
<name>5009</name>
</trkpt>
<trkpt lat="49.241827" lon="8.906740">
<ele>216.0</ele>
<speed>18.5</speed>
<course>277.1</course>
<desc>Speed 18.5 km/h Distance 107 km</desc>
<time>2011-03-24T16:59:56.01</time>
<name>5010</name>
</trkpt>
<trkpt lat="49.241832" lon="8.906678">
<ele>215.5</ele>
<speed>16.5</speed>
<course>275.6</course>
<desc>Speed 16.5 km/h Distance 107 km</desc>
<time>2011-03-24T16:59:57.01</time>
<name>5011</name>
</trkpt>
<trkpt lat="49.241835" lon="8.906627">
<ele>215.5</ele>
<speed>16.5</speed>
<course>284.3</course>
<desc>Speed 16.5 km/h Distance 107 km</desc>
<time>2011-03-24T16:59:58.01</time>
<name>5012</name>
</trkpt>
<trkpt lat="49.241842" lon="8.906587">
<ele>216.0</ele>
<speed>16.5</speed>
<course>274.2</course>
<desc>Speed 16.5 km/h Distance 107 km</desc>
<time>2011-03-24T16:59:59.00</time>
<name>5013</name>
</trkpt>
<trkpt lat="49.241843" lon="8.906552">
<ele>216.0</ele>
<speed>16.5</speed>
<course>208.9</course>
<desc>Speed 16.5 km/h Distance 107 km</desc>
<time>2011-03-24T17:00:00.01</time>
<name>5014</name>
</trkpt>
<trkpt lat="49.241822" lon="8.906533">
<ele>216.0</ele>
<speed>9.4</speed>
<course>264.6</course>
<desc>Speed 9.4 km/h Distance 107 km</desc>
<time>2011-03-24T17:00:01.00</time>
<name>5015</name>
</trkpt>
<trkpt lat="49.241810" lon="8.906343">
<ele>216.5</ele>
<speed>19.5</speed>
<course>251.6</course>
<desc>Speed 19.5 km/h Distance 107 km</desc>
<time>2011-03-24T17:00:03.00</time>
<name>5016</name>
</trkpt>
<trkpt lat="49.241793" lon="8.906267">
<ele>216.5</ele>
<speed>20.3</speed>
<course>248.0</course>
<desc>Speed 20.3 km/h Distance 107 km</desc>
<time>2011-03-24T17:00:04.00</time>
<name>5017</name>
</trkpt>
<trkpt lat="49.241777" lon="8.906203">
<ele>217.0</ele>
<speed>18.0</speed>
<course>225.7</course>
<desc>Speed 18.0 km/h Distance 107 km</desc>
<time>2011-03-24T17:00:05.00</time>
<name>5018</name>
</trkpt>
<trkpt lat="49.241742" lon="8.906148">
<ele>217.5</ele>
<speed>19.1</speed>
<course>245.2</course>
<desc>Speed 19.1 km/h Distance 107 km</desc>
<time>2011-03-24T17:00:06.00</time>
<name>5019</name>
</trkpt>
<trkpt lat="49.241720" lon="8.906077">
<ele>220.0</ele>
<speed>17.7</speed>
<course>298.7</course>
<desc>Speed 17.7 km/h Distance 107 km</desc>
<time>2011-03-24T17:00:07.00</time>
<name>5020</name>
</trkpt>
<trkpt lat="49.241737" lon="8.906030">
<ele>221.0</ele>
<speed>11.7</speed>
<course>297.0</course>
<desc>Speed 11.7 km/h Distance 107 km</desc>
<time>2011-03-24T17:00:08.00</time>
<name>5021</name>
</trkpt>
<trkpt lat="49.241750" lon="8.905990">
<ele>221.5</ele>
<speed>11.2</speed>
<course>324.4</course>
<desc>Speed 11.2 km/h Distance 107 km</desc>
<time>2011-03-24T17:00:09.00</time>
<name>5022</name>
</trkpt>
<trkpt lat="49.241767" lon="8.905972">
<ele>221.5</ele>
<speed>7.7</speed>
<course>331.7</course>
<desc>Speed 7.7 km/h Distance 107 km</desc>
<time>2011-03-24T17:00:09.99</time>
<name>5023</name>
</trkpt>
<trkpt lat="49.241777" lon="8.905963">
<ele>221.5</ele>
<speed>6.1</speed>
<course>24.2</course>
<desc>Speed 6.1 km/h Distance 107 km</desc>
<time>2011-03-24T17:00:11.00</time>
<name>5024</name>
</trkpt>
<trkpt lat="49.241803" lon="8.905982">
<ele>221.5</ele>
<speed>15.6</speed>
<course>59.6</course>
<desc>Speed 15.6 km/h Distance 107 km</desc>
<time>2011-03-24T17:00:12.00</time>
<name>5025</name>
</trkpt>
<trkpt lat="49.241825" lon="8.906038">
<ele>222.5</ele>
<speed>16.1</speed>
<course>48.2</course>
<desc>Speed 16.1 km/h Distance 107 km</desc>
<time>2011-03-24T17:00:12.99</time>
<name>5026</name>
</trkpt>
<trkpt lat="49.241848" lon="8.906078">
<ele>222.5</ele>
<speed>16.1</speed>
<course>53.1</course>
<desc>Speed 16.1 km/h Distance 107 km</desc>
<time>2011-03-24T17:00:14.00</time>
<name>5027</name>
</trkpt>
<trkpt lat="49.241890" lon="8.906163">
<ele>225.0</ele>
<speed>21.9</speed>
<course>61.1</course>
<desc>Speed 21.9 km/h Distance 107 km</desc>
<time>2011-03-24T17:00:14.99</time>
<name>5028</name>
</trkpt>
<trkpt lat="49.241927" lon="8.906265">
<ele>224.5</ele>
<speed>26.7</speed>
<course>57.8</course>
<desc>Speed 26.7 km/h Distance 107 km</desc>
<time>2011-03-24T17:00:15.99</time>
<name>5029</name>
</trkpt>
<trkpt lat="49.241965" lon="8.906358">
<ele>224.5</ele>
<speed>26.2</speed>
<course>51.6</course>
<desc>Speed 26.2 km/h Distance 108 km</desc>
<time>2011-03-24T17:00:16.99</time>
<name>5030</name>
</trkpt>
<trkpt lat="49.242013" lon="8.906452">
<ele>224.5</ele>
<speed>29.3</speed>
<course>64.1</course>
<desc>Speed 29.3 km/h Distance 108 km</desc>
<time>2011-03-24T17:00:17.99</time>
<name>5031</name>
</trkpt>
<trkpt lat="49.242045" lon="8.906552">
<ele>223.5</ele>
<speed>25.7</speed>
<course>88.8</course>
<desc>Speed 25.7 km/h Distance 108 km</desc>
<time>2011-03-24T17:00:18.99</time>
<name>5032</name>
</trkpt>
<trkpt lat="49.242047" lon="8.906672">
<ele>225.0</ele>
<speed>31.7</speed>
<course>87.3</course>
<desc>Speed 31.7 km/h Distance 108 km</desc>
<time>2011-03-24T17:00:19.99</time>
<name>5033</name>
</trkpt>
<trkpt lat="49.242050" lon="8.906780">
<ele>224.5</ele>
<speed>27.8</speed>
<course>76.7</course>
<desc>Speed 27.8 km/h Distance 108 km</desc>
<time>2011-03-24T17:00:20.99</time>
<name>5034</name>
</trkpt>
<trkpt lat="49.242063" lon="8.906867">
<ele>224.0</ele>
<speed>22.3</speed>
<course>40.2</course>
<desc>Speed 22.3 km/h Distance 108 km</desc>
<time>2011-03-24T17:00:21.99</time>
<name>5035</name>
</trkpt>
<trkpt lat="49.242108" lon="8.906925">
<ele>223.5</ele>
<speed>23.7</speed>
<course>13.4</course>
<desc>Speed 23.7 km/h Distance 108 km</desc>
<time>2011-03-24T17:00:22.99</time>
<name>5036</name>
</trkpt>
<trkpt lat="49.242145" lon="8.906938">
<ele>223.5</ele>
<speed>12.8</speed>
<course>350.1</course>
<desc>Speed 12.8 km/h Distance 108 km</desc>
<time>2011-03-24T17:00:23.99</time>
<name>5037</name>
</trkpt>
<trkpt lat="49.242195" lon="8.906925">
<ele>221.5</ele>
<speed>19.8</speed>
<course>318.7</course>
<desc>Speed 19.8 km/h Distance 108 km</desc>
<time>2011-03-24T17:00:24.99</time>
<name>5038</name>
</trkpt>
<trkpt lat="49.242248" lon="8.906853">
<ele>221.0</ele>
<speed>28.8</speed>
<course>306.1</course>
<desc>Speed 28.8 km/h Distance 108 km</desc>
<time>2011-03-24T17:00:25.99</time>
<name>5039</name>
</trkpt>
<trkpt lat="49.242298" lon="8.906748">
<ele>220.5</ele>
<speed>34.2</speed>
<course>321.6</course>
<desc>Speed 34.2 km/h Distance 108 km</desc>
<time>2011-03-24T17:00:26.99</time>
<name>5040</name>
</trkpt>
<trkpt lat="49.242377" lon="8.906653">
<ele>219.5</ele>
<speed>40.2</speed>
<course>329.0</course>
<desc>Speed 40.2 km/h Distance 108 km</desc>
<time>2011-03-24T17:00:27.99</time>
<name>5041</name>
</trkpt>
<trkpt lat="49.242480" lon="8.906558">
<ele>219.5</ele>
<speed>47.2</speed>
<course>328.1</course>
<desc>Speed 47.2 km/h Distance 108 km</desc>
<time>2011-03-24T17:00:28.99</time>
<name>5042</name>
</trkpt>
<trkpt lat="49.242585" lon="8.906458">
<ele>219.5</ele>
<speed>48.2</speed>
<course>328.0</course>
<desc>Speed 48.2 km/h Distance 108 km</desc>
<time>2011-03-24T17:00:29.99</time>
<name>5043</name>
</trkpt>
<trkpt lat="49.242703" lon="8.906345">
<ele>220.0</ele>
<speed>55.3</speed>
<course>327.9</course>
<desc>Speed 55.3 km/h Distance 108 km</desc>
<time>2011-03-24T17:00:30.98</time>
<name>5044</name>
</trkpt>
<trkpt lat="49.242827" lon="8.906227">
<ele>220.0</ele>
<speed>57.5</speed>
<course>327.9</course>
<desc>Speed 57.5 km/h Distance 108 km</desc>
<time>2011-03-24T17:00:31.98</time>
<name>5045</name>
</trkpt>
<trkpt lat="49.242960" lon="8.906098">
<ele>220.0</ele>
<speed>61.4</speed>
<course>328.7</course>
<desc>Speed 61.4 km/h Distance 108 km</desc>
<time>2011-03-24T17:00:32.98</time>
<name>5046</name>
</trkpt>
<trkpt lat="49.243107" lon="8.905962">
<ele>220.5</ele>
<speed>66.7</speed>
<course>329.2</course>
<desc>Speed 66.7 km/h Distance 108 km</desc>
<time>2011-03-24T17:00:33.97</time>
<name>5047</name>
</trkpt>
<trkpt lat="49.243258" lon="8.905823">
<ele>220.0</ele>
<speed>68.2</speed>
<course>329.4</course>
<desc>Speed 68.2 km/h Distance 108 km</desc>
<time>2011-03-24T17:00:34.98</time>
<name>5048</name>
</trkpt>
<trkpt lat="49.243415" lon="8.905682">
<ele>219.5</ele>
<speed>70.8</speed>
<course>330.4</course>
<desc>Speed 70.8 km/h Distance 108 km</desc>
<time>2011-03-24T17:00:35.97</time>
<name>5049</name>
</trkpt>
<trkpt lat="49.243570" lon="8.905547">
<ele>220.0</ele>
<speed>70.0</speed>
<course>330.7</course>
<desc>Speed 70.0 km/h Distance 108 km</desc>
<time>2011-03-24T17:00:36.98</time>
<name>5050</name>
</trkpt>
<trkpt lat="49.243723" lon="8.905415">
<ele>220.0</ele>
<speed>70.0</speed>
<course>330.9</course>
<desc>Speed 70.0 km/h Distance 108 km</desc>
<time>2011-03-24T17:00:37.97</time>
<name>5051</name>
</trkpt>
<trkpt lat="49.243882" lon="8.905280">
<ele>220.5</ele>
<speed>71.8</speed>
<course>330.5</course>
<desc>Speed 71.8 km/h Distance 108 km</desc>
<time>2011-03-24T17:00:38.98</time>
<name>5052</name>
</trkpt>
<trkpt lat="49.244045" lon="8.905138">
<ele>220.5</ele>
<speed>74.3</speed>
<course>331.5</course>
<desc>Speed 74.3 km/h Distance 108 km</desc>
<time>2011-03-24T17:00:39.97</time>
<name>5053</name>
</trkpt>
<trkpt lat="49.244213" lon="8.904998">
<ele>220.5</ele>
<speed>75.7</speed>
<course>332.0</course>
<desc>Speed 75.7 km/h Distance 108 km</desc>
<time>2011-03-24T17:00:40.97</time>
<name>5054</name>
</trkpt>
<trkpt lat="49.244383" lon="8.904860">
<ele>220.5</ele>
<speed>75.8</speed>
<course>331.7</course>
<desc>Speed 75.8 km/h Distance 108 km</desc>
<time>2011-03-24T17:00:41.97</time>
<name>5055</name>
</trkpt>
<trkpt lat="49.244553" lon="8.904720">
<ele>220.5</ele>
<speed>75.7</speed>
<course>332.1</course>
<desc>Speed 75.7 km/h Distance 108 km</desc>
<time>2011-03-24T17:00:42.97</time>
<name>5056</name>
</trkpt>
<trkpt lat="49.244720" lon="8.904585">
<ele>220.0</ele>
<speed>75.3</speed>
<course>332.4</course>
<desc>Speed 75.3 km/h Distance 108 km</desc>
<time>2011-03-24T17:00:43.97</time>
<name>5057</name>
</trkpt>
<trkpt lat="49.244888" lon="8.904450">
<ele>219.5</ele>
<speed>75.3</speed>
<course>332.7</course>
<desc>Speed 75.3 km/h Distance 108 km</desc>
<time>2011-03-24T17:00:44.98</time>
<name>5058</name>
</trkpt>
<trkpt lat="49.245055" lon="8.904318">
<ele>219.0</ele>
<speed>74.5</speed>
<course>333.3</course>
<desc>Speed 74.5 km/h Distance 108 km</desc>
<time>2011-03-24T17:00:45.97</time>
<name>5059</name>
</trkpt>
<trkpt lat="49.245222" lon="8.904190">
<ele>219.0</ele>
<speed>73.9</speed>
<course>335.6</course>
<desc>Speed 73.9 km/h Distance 108 km</desc>
<time>2011-03-24T17:00:46.97</time>
<name>5060</name>
</trkpt>
<trkpt lat="49.245385" lon="8.904077">
<ele>219.0</ele>
<speed>71.4</speed>
<course>335.1</course>
<desc>Speed 71.4 km/h Distance 108 km</desc>
<time>2011-03-24T17:00:47.97</time>
<name>5061</name>
</trkpt>
<trkpt lat="49.245552" lon="8.903958">
<ele>219.0</ele>
<speed>73.2</speed>
<course>336.6</course>
<desc>Speed 73.2 km/h Distance 108 km</desc>
<time>2011-03-24T17:00:48.97</time>
<name>5062</name>
</trkpt>
<trkpt lat="49.245720" lon="8.903847">
<ele>219.5</ele>
<speed>72.5</speed>
<course>340.5</course>
<desc>Speed 72.5 km/h Distance 108 km</desc>
<time>2011-03-24T17:00:49.97</time>
<name>5063</name>
</trkpt>
<trkpt lat="49.245892" lon="8.903753">
<ele>219.5</ele>
<speed>72.0</speed>
<course>343.2</course>
<desc>Speed 72.0 km/h Distance 108 km</desc>
<time>2011-03-24T17:00:50.97</time>
<name>5064</name>
</trkpt>
<trkpt lat="49.246065" lon="8.903673">
<ele>219.5</ele>
<speed>71.5</speed>
<course>347.2</course>
<desc>Speed 71.5 km/h Distance 108 km</desc>
<time>2011-03-24T17:00:51.97</time>
<name>5065</name>
</trkpt>
<trkpt lat="49.246242" lon="8.903612">
<ele>219.0</ele>
<speed>71.4</speed>
<course>354.2</course>
<desc>Speed 71.4 km/h Distance 108 km</desc>
<time>2011-03-24T17:00:52.98</time>
<name>5066</name>
</trkpt>
<trkpt lat="49.246412" lon="8.903585">
<ele>220.0</ele>
<speed>68.5</speed>
<course>358.3</course>
<desc>Speed 68.5 km/h Distance 108 km</desc>
<time>2011-03-24T17:00:53.97</time>
<name>5067</name>
</trkpt>
<trkpt lat="49.246590" lon="8.903577">
<ele>218.5</ele>
<speed>70.2</speed>
<course>4.1</course>
<desc>Speed 70.2 km/h Distance 108 km</desc>
<time>2011-03-24T17:00:54.97</time>
<name>5068</name>
</trkpt>
<trkpt lat="49.246757" lon="8.903595">
<ele>219.0</ele>
<speed>67.3</speed>
<course>6.9</course>
<desc>Speed 67.3 km/h Distance 108 km</desc>
<time>2011-03-24T17:00:55.97</time>
<name>5069</name>
</trkpt>
<trkpt lat="49.246918" lon="8.903625">
<ele>219.0</ele>
<speed>65.5</speed>
<course>8.2</course>
<desc>Speed 65.5 km/h Distance 108 km</desc>
<time>2011-03-24T17:00:56.96</time>
<name>5070</name>
</trkpt>
<trkpt lat="49.247092" lon="8.903663">
<ele>219.0</ele>
<speed>69.8</speed>
<course>13.6</course>
<desc>Speed 69.8 km/h Distance 108 km</desc>
<time>2011-03-24T17:00:57.96</time>
<name>5071</name>
</trkpt>
<trkpt lat="49.247240" lon="8.903718">
<ele>219.0</ele>
<speed>61.2</speed>
<course>16.8</course>
<desc>Speed 61.2 km/h Distance 108 km</desc>
<time>2011-03-24T17:00:58.97</time>
<name>5072</name>
</trkpt>
<trkpt lat="49.247377" lon="8.903782">
<ele>218.0</ele>
<speed>57.9</speed>
<course>21.6</course>
<desc>Speed 57.9 km/h Distance 108 km</desc>
<time>2011-03-24T17:00:59.96</time>
<name>5073</name>
</trkpt>
<trkpt lat="49.247508" lon="8.903862">
<ele>218.5</ele>
<speed>56.2</speed>
<course>25.2</course>
<desc>Speed 56.2 km/h Distance 108 km</desc>
<time>2011-03-24T17:01:00.97</time>
<name>5074</name>
</trkpt>
<trkpt lat="49.247628" lon="8.903948">
<ele>218.5</ele>
<speed>54.0</speed>
<course>28.3</course>
<desc>Speed 54.0 km/h Distance 108 km</desc>
<time>2011-03-24T17:01:01.96</time>
<name>5075</name>
</trkpt>
<trkpt lat="49.247743" lon="8.904043">
<ele>218.5</ele>
<speed>52.3</speed>
<course>31.0</course>
<desc>Speed 52.3 km/h Distance 108 km</desc>
<time>2011-03-24T17:01:02.97</time>
<name>5076</name>
</trkpt>
<trkpt lat="49.247850" lon="8.904142">
<ele>218.5</ele>
<speed>50.1</speed>
<course>33.6</course>
<desc>Speed 50.1 km/h Distance 108 km</desc>
<time>2011-03-24T17:01:03.95</time>
<name>5077</name>
</trkpt>
<trkpt lat="49.247952" lon="8.904245">
<ele>218.0</ele>
<speed>48.5</speed>
<course>35.8</course>
<desc>Speed 48.5 km/h Distance 108 km</desc>
<time>2011-03-24T17:01:04.96</time>
<name>5078</name>
</trkpt>
<trkpt lat="49.248048" lon="8.904352">
<ele>217.5</ele>
<speed>47.6</speed>
<course>36.7</course>
<desc>Speed 47.6 km/h Distance 108 km</desc>
<time>2011-03-24T17:01:05.95</time>
<name>5079</name>
</trkpt>
<trkpt lat="49.248142" lon="8.904458">
<ele>217.5</ele>
<speed>46.5</speed>
<course>36.0</course>
<desc>Speed 46.5 km/h Distance 108 km</desc>
<time>2011-03-24T17:01:06.96</time>
<name>5080</name>
</trkpt>
<trkpt lat="49.248243" lon="8.904572">
<ele>217.5</ele>
<speed>50.1</speed>
<course>36.1</course>
<desc>Speed 50.1 km/h Distance 108 km</desc>
<time>2011-03-24T17:01:07.96</time>
<name>5081</name>
</trkpt>
<trkpt lat="49.248342" lon="8.904682">
<ele>217.0</ele>
<speed>48.6</speed>
<course>30.5</course>
<desc>Speed 48.6 km/h Distance 108 km</desc>
<time>2011-03-24T17:01:08.96</time>
<name>5082</name>
</trkpt>
<trkpt lat="49.248445" lon="8.904775">
<ele>217.0</ele>
<speed>48.6</speed>
<course>19.0</course>
<desc>Speed 48.6 km/h Distance 108 km</desc>
<time>2011-03-24T17:01:09.96</time>
<name>5083</name>
</trkpt>
<trkpt lat="49.248562" lon="8.904837">
<ele>216.5</ele>
<speed>49.4</speed>
<course>9.3</course>
<desc>Speed 49.4 km/h Distance 108 km</desc>
<time>2011-03-24T17:01:10.96</time>
<name>5084</name>
</trkpt>
<trkpt lat="49.248702" lon="8.904872">
<ele>217.5</ele>
<speed>55.9</speed>
<course>7.8</course>
<desc>Speed 55.9 km/h Distance 108 km</desc>
<time>2011-03-24T17:01:11.96</time>
<name>5085</name>
</trkpt>
<trkpt lat="49.248820" lon="8.904897">
<ele>217.5</ele>
<speed>47.4</speed>
<course>5.2</course>
<desc>Speed 47.4 km/h Distance 108 km</desc>
<time>2011-03-24T17:01:12.96</time>
<name>5086</name>
</trkpt>
<trkpt lat="49.248940" lon="8.904913">
<ele>217.5</ele>
<speed>47.8</speed>
<course>3.1</course>
<desc>Speed 47.8 km/h Distance 108 km</desc>
<time>2011-03-24T17:01:13.96</time>
<name>5087</name>
</trkpt>
<trkpt lat="49.249062" lon="8.904923">
<ele>217.5</ele>
<speed>48.8</speed>
<course>3.6</course>
<desc>Speed 48.8 km/h Distance 108 km</desc>
<time>2011-03-24T17:01:14.95</time>
<name>5088</name>
</trkpt>
<trkpt lat="49.249183" lon="8.904935">
<ele>217.5</ele>
<speed>48.7</speed>
<course>5.3</course>
<desc>Speed 48.7 km/h Distance 108 km</desc>
<time>2011-03-24T17:01:15.95</time>
<name>5089</name>
</trkpt>
<trkpt lat="49.249300" lon="8.904952">
<ele>217.5</ele>
<speed>48.1</speed>
<course>1.7</course>
<desc>Speed 48.1 km/h Distance 108 km</desc>
<time>2011-03-24T17:01:16.95</time>
<name>5090</name>
</trkpt>
<trkpt lat="49.249413" lon="8.904957">
<ele>217.5</ele>
<speed>45.4</speed>
<course>2.0</course>
<desc>Speed 45.4 km/h Distance 108 km</desc>
<time>2011-03-24T17:01:17.95</time>
<name>5091</name>
</trkpt>
<trkpt lat="49.249503" lon="8.904962">
<ele>217.5</ele>
<speed>45.4</speed>
<course>3.9</course>
<desc>Speed 45.4 km/h Distance 108 km</desc>
<time>2011-03-24T17:01:18.95</time>
<name>5092</name>
</trkpt>
<trkpt lat="49.249663" lon="8.904978">
<ele>217.5</ele>
<speed>37.1</speed>
<course>3.9</course>
<desc>Speed 37.1 km/h Distance 108 km</desc>
<time>2011-03-24T17:01:20.94</time>
<name>5093</name>
</trkpt>
<trkpt lat="49.249758" lon="8.904988">
<ele>217.5</ele>
<speed>38.5</speed>
<course>3.9</course>
<desc>Speed 38.5 km/h Distance 108 km</desc>
<time>2011-03-24T17:01:21.95</time>
<name>5094</name>
</trkpt>
<trkpt lat="49.249837" lon="8.904997">
<ele>217.5</ele>
<speed>38.5</speed>
<course>0.8</course>
<desc>Speed 38.5 km/h Distance 108 km</desc>
<time>2011-03-24T17:01:22.95</time>
<name>5095</name>
</trkpt>
<trkpt lat="49.249928" lon="8.904998">
<ele>217.5</ele>
<speed>37.1</speed>
<course>0.0</course>
<desc>Speed 37.1 km/h Distance 109 km</desc>
<time>2011-03-24T17:01:23.95</time>
<name>5096</name>
</trkpt>
<trkpt lat="49.250008" lon="8.904998">
<ele>219.0</ele>
<speed>34.4</speed>
<course>358.0</course>
<desc>Speed 34.4 km/h Distance 109 km</desc>
<time>2011-03-24T17:01:24.95</time>
<name>5097</name>
</trkpt>
<trkpt lat="49.250100" lon="8.904993">
<ele>220.5</ele>
<speed>37.0</speed>
<course>354.7</course>
<desc>Speed 37.0 km/h Distance 109 km</desc>
<time>2011-03-24T17:01:25.94</time>
<name>5098</name>
</trkpt>
<trkpt lat="49.250195" lon="8.904980">
<ele>220.5</ele>
<speed>37.2</speed>
<course>356.1</course>
<desc>Speed 37.2 km/h Distance 109 km</desc>
<time>2011-03-24T17:01:26.95</time>
<name>5099</name>
</trkpt>
<trkpt lat="49.250290" lon="8.904970">
<ele>221.0</ele>
<speed>36.3</speed>
<course>352.3</course>
<desc>Speed 36.3 km/h Distance 109 km</desc>
<time>2011-03-24T17:01:27.94</time>
<name>5100</name>
</trkpt>
<trkpt lat="49.250378" lon="8.904952">
<ele>221.0</ele>
<speed>35.1</speed>
<course>339.6</course>
<desc>Speed 35.1 km/h Distance 109 km</desc>
<time>2011-03-24T17:01:28.94</time>
<name>5101</name>
</trkpt>
<trkpt lat="49.250463" lon="8.904903">
<ele>221.0</ele>
<speed>33.2</speed>
<course>325.0</course>
<desc>Speed 33.2 km/h Distance 109 km</desc>
<time>2011-03-24T17:01:29.95</time>
<name>5102</name>
</trkpt>
<trkpt lat="49.250532" lon="8.904830">
<ele>221.0</ele>
<speed>32.8</speed>
<course>323.8</course>
<desc>Speed 32.8 km/h Distance 109 km</desc>
<time>2011-03-24T17:01:30.94</time>
<name>5103</name>
</trkpt>
<trkpt lat="49.250587" lon="8.904768">
<ele>221.0</ele>
<speed>26.8</speed>
<course>326.3</course>
<desc>Speed 26.8 km/h Distance 109 km</desc>
<time>2011-03-24T17:01:31.94</time>
<name>5104</name>
</trkpt>
<trkpt lat="49.250665" lon="8.904688">
<ele>221.0</ele>
<speed>35.4</speed>
<course>328.4</course>
<desc>Speed 35.4 km/h Distance 109 km</desc>
<time>2011-03-24T17:01:32.94</time>
<name>5105</name>
</trkpt>
<trkpt lat="49.250753" lon="8.904605">
<ele>221.5</ele>
<speed>37.6</speed>
<course>334.2</course>
<desc>Speed 37.6 km/h Distance 109 km</desc>
<time>2011-03-24T17:01:33.94</time>
<name>5106</name>
</trkpt>
<trkpt lat="49.250850" lon="8.904533">
<ele>221.5</ele>
<speed>39.2</speed>
<course>338.5</course>
<desc>Speed 39.2 km/h Distance 109 km</desc>
<time>2011-03-24T17:01:34.94</time>
<name>5107</name>
</trkpt>
<trkpt lat="49.250947" lon="8.904475">
<ele>221.5</ele>
<speed>39.3</speed>
<course>342.2</course>
<desc>Speed 39.3 km/h Distance 109 km</desc>
<time>2011-03-24T17:01:35.94</time>
<name>5108</name>
</trkpt>
<trkpt lat="49.251052" lon="8.904423">
<ele>220.5</ele>
<speed>39.3</speed>
<course>343.5</course>
<desc>Speed 39.3 km/h Distance 109 km</desc>
<time>2011-03-24T17:01:36.94</time>
<name>5109</name>
</trkpt>
<trkpt lat="49.251158" lon="8.904375">
<ele>220.0</ele>
<speed>39.2</speed>
<course>346.1</course>
<desc>Speed 39.2 km/h Distance 109 km</desc>
<time>2011-03-24T17:01:37.94</time>
<name>5110</name>
</trkpt>
<trkpt lat="49.251268" lon="8.904333">
<ele>220.0</ele>
<speed>39.7</speed>
<course>346.9</course>
<desc>Speed 39.7 km/h Distance 109 km</desc>
<time>2011-03-24T17:01:38.94</time>
<name>5111</name>
</trkpt>
<trkpt lat="49.251367" lon="8.904298">
<ele>220.0</ele>
<speed>39.1</speed>
<course>349.2</course>
<desc>Speed 39.1 km/h Distance 109 km</desc>
<time>2011-03-24T17:01:39.93</time>
<name>5112</name>
</trkpt>
<trkpt lat="49.251463" lon="8.904270">
<ele>218.5</ele>
<speed>40.8</speed>
<course>349.2</course>
<desc>Speed 40.8 km/h Distance 109 km</desc>
<time>2011-03-24T17:01:40.93</time>
<name>5113</name>
</trkpt>
<trkpt lat="49.251560" lon="8.904242">
<ele>217.5</ele>
<speed>39.9</speed>
<course>351.2</course>
<desc>Speed 39.9 km/h Distance 109 km</desc>
<time>2011-03-24T17:01:41.93</time>
<name>5114</name>
</trkpt>
<trkpt lat="49.251652" lon="8.904220">
<ele>217.0</ele>
<speed>37.9</speed>
<course>347.5</course>
<desc>Speed 37.9 km/h Distance 109 km</desc>
<time>2011-03-24T17:01:42.93</time>
<name>5115</name>
</trkpt>
<trkpt lat="49.251740" lon="8.904190">
<ele>217.0</ele>
<speed>35.1</speed>
<course>338.3</course>
<desc>Speed 35.1 km/h Distance 109 km</desc>
<time>2011-03-24T17:01:43.93</time>
<name>5116</name>
</trkpt>
<trkpt lat="49.251817" lon="8.904143">
<ele>217.5</ele>
<speed>33.2</speed>
<course>312.8</course>
<desc>Speed 33.2 km/h Distance 109 km</desc>
<time>2011-03-24T17:01:44.94</time>
<name>5117</name>
</trkpt>
<trkpt lat="49.251860" lon="8.904072">
<ele>218.0</ele>
<speed>27.5</speed>
<course>287.7</course>
<desc>Speed 27.5 km/h Distance 109 km</desc>
<time>2011-03-24T17:01:45.94</time>
<name>5118</name>
</trkpt>
<trkpt lat="49.251877" lon="8.903992">
<ele>218.5</ele>
<speed>22.2</speed>
<course>287.9</course>
<desc>Speed 22.2 km/h Distance 109 km</desc>
<time>2011-03-24T17:01:46.93</time>
<name>5119</name>
</trkpt>
<trkpt lat="49.251890" lon="8.903928">
<ele>218.5</ele>
<speed>22.2</speed>
<course>271.7</course>
<desc>Speed 22.2 km/h Distance 109 km</desc>
<time>2011-03-24T17:01:47.93</time>
<name>5120</name>
</trkpt>
<trkpt lat="49.251892" lon="8.903840">
<ele>218.5</ele>
<speed>22.4</speed>
<course>279.3</course>
<desc>Speed 22.4 km/h Distance 109 km</desc>
<time>2011-03-24T17:01:48.93</time>
<name>5121</name>
</trkpt>
<trkpt lat="49.251900" lon="8.903762">
<ele>218.5</ele>
<speed>20.2</speed>
<course>280.2</course>
<desc>Speed 20.2 km/h Distance 109 km</desc>
<time>2011-03-24T17:01:49.93</time>
<name>5122</name>
</trkpt>
<trkpt lat="49.251910" lon="8.903677">
<ele>218.5</ele>
<speed>22.2</speed>
<course>272.9</course>
<desc>Speed 22.2 km/h Distance 109 km</desc>
<time>2011-03-24T17:01:50.93</time>
<name>5123</name>
</trkpt>
<trkpt lat="49.251913" lon="8.903577">
<ele>218.5</ele>
<speed>24.6</speed>
<course>270.0</course>
<desc>Speed 24.6 km/h Distance 109 km</desc>
<time>2011-03-24T17:01:51.93</time>
<name>5124</name>
</trkpt>
<trkpt lat="49.251913" lon="8.903470">
<ele>220.5</ele>
<speed>27.3</speed>
<course>270.0</course>
<desc>Speed 27.3 km/h Distance 109 km</desc>
<time>2011-03-24T17:01:52.93</time>
<name>5125</name>
</trkpt>
<trkpt lat="49.251913" lon="8.903385">
<ele>220.5</ele>
<speed>27.3</speed>
<course>255.7</course>
<desc>Speed 27.3 km/h Distance 109 km</desc>
<time>2011-03-24T17:01:53.93</time>
<name>5126</name>
</trkpt>
<trkpt lat="49.251893" lon="8.903265">
<ele>220.5</ele>
<speed>31.0</speed>
<course>252.7</course>
<desc>Speed 31.0 km/h Distance 109 km</desc>
<time>2011-03-24T17:01:54.93</time>
<name>5127</name>
</trkpt>
<trkpt lat="49.251868" lon="8.903142">
<ele>220.5</ele>
<speed>31.8</speed>
<course>250.8</course>
<desc>Speed 31.8 km/h Distance 109 km</desc>
<time>2011-03-24T17:01:55.94</time>
<name>5128</name>
</trkpt>
<trkpt lat="49.251838" lon="8.903010">
<ele>221.0</ele>
<speed>34.2</speed>
<course>246.6</course>
<desc>Speed 34.2 km/h Distance 109 km</desc>
<time>2011-03-24T17:01:56.94</time>
<name>5129</name>
</trkpt>
<trkpt lat="49.251802" lon="8.902880">
<ele>220.5</ele>
<speed>34.5</speed>
<course>250.5</course>
<desc>Speed 34.5 km/h Distance 109 km</desc>
<time>2011-03-24T17:01:57.93</time>
<name>5130</name>
</trkpt>
<trkpt lat="49.251772" lon="8.902750">
<ele>220.0</ele>
<speed>35.1</speed>
<course>254.9</course>
<desc>Speed 35.1 km/h Distance 109 km</desc>
<time>2011-03-24T17:01:58.92</time>
<name>5131</name>
</trkpt>
<trkpt lat="49.251747" lon="8.902608">
<ele>220.0</ele>
<speed>37.3</speed>
<course>258.7</course>
<desc>Speed 37.3 km/h Distance 109 km</desc>
<time>2011-03-24T17:01:59.92</time>
<name>5132</name>
</trkpt>
<trkpt lat="49.251727" lon="8.902455">
<ele>219.5</ele>
<speed>39.3</speed>
<course>262.6</course>
<desc>Speed 39.3 km/h Distance 109 km</desc>
<time>2011-03-24T17:02:00.92</time>
<name>5133</name>
</trkpt>
<trkpt lat="49.251713" lon="8.902298">
<ele>219.5</ele>
<speed>40.2</speed>
<course>262.8</course>
<desc>Speed 40.2 km/h Distance 109 km</desc>
<time>2011-03-24T17:02:01.92</time>
<name>5134</name>
</trkpt>
<trkpt lat="49.251700" lon="8.902137">
<ele>219.0</ele>
<speed>42.8</speed>
<course>261.4</course>
<desc>Speed 42.8 km/h Distance 109 km</desc>
<time>2011-03-24T17:02:02.92</time>
<name>5135</name>
</trkpt>
<trkpt lat="49.251682" lon="8.901950">
<ele>219.0</ele>
<speed>49.6</speed>
<course>267.6</course>
<desc>Speed 49.6 km/h Distance 109 km</desc>
<time>2011-03-24T17:02:03.92</time>
<name>5136</name>
</trkpt>
<trkpt lat="49.251677" lon="8.901765">
<ele>219.5</ele>
<speed>48.1</speed>
<course>263.1</course>
<desc>Speed 48.1 km/h Distance 109 km</desc>
<time>2011-03-24T17:02:04.93</time>
<name>5137</name>
</trkpt>
<trkpt lat="49.251662" lon="8.901575">
<ele>219.5</ele>
<speed>50.8</speed>
<course>272.3</course>
<desc>Speed 50.8 km/h Distance 109 km</desc>
<time>2011-03-24T17:02:05.92</time>
<name>5138</name>
</trkpt>
<trkpt lat="49.251667" lon="8.901387">
<ele>219.5</ele>
<speed>50.3</speed>
<course>262.4</course>
<desc>Speed 50.3 km/h Distance 109 km</desc>
<time>2011-03-24T17:02:06.92</time>
<name>5139</name>
</trkpt>
<trkpt lat="49.251650" lon="8.901195">
<ele>219.5</ele>
<speed>51.8</speed>
<course>262.5</course>
<desc>Speed 51.8 km/h Distance 109 km</desc>
<time>2011-03-24T17:02:07.92</time>
<name>5140</name>
</trkpt>
<trkpt lat="49.251633" lon="8.901000">
<ele>219.5</ele>
<speed>52.1</speed>
<course>260.7</course>
<desc>Speed 52.1 km/h Distance 109 km</desc>
<time>2011-03-24T17:02:08.91</time>
<name>5141</name>
</trkpt>
<trkpt lat="49.251612" lon="8.900797">
<ele>219.5</ele>
<speed>54.5</speed>
<course>275.7</course>
<desc>Speed 54.5 km/h Distance 109 km</desc>
<time>2011-03-24T17:02:09.91</time>
<name>5142</name>
</trkpt>
<trkpt lat="49.251625" lon="8.900593">
<ele>219.0</ele>
<speed>53.9</speed>
<course>256.2</course>
<desc>Speed 53.9 km/h Distance 109 km</desc>
<time>2011-03-24T17:02:10.92</time>
<name>5143</name>
</trkpt>
<trkpt lat="49.251592" lon="8.900385">
<ele>219.0</ele>
<speed>56.6</speed>
<course>259.2</course>
<desc>Speed 56.6 km/h Distance 109 km</desc>
<time>2011-03-24T17:02:11.91</time>
<name>5144</name>
</trkpt>
<trkpt lat="49.251565" lon="8.900170">
<ele>219.0</ele>
<speed>57.0</speed>
<course>263.3</course>
<desc>Speed 57.0 km/h Distance 109 km</desc>
<time>2011-03-24T17:02:12.92</time>
<name>5145</name>
</trkpt>
<trkpt lat="49.251548" lon="8.899953">
<ele>218.5</ele>
<speed>57.6</speed>
<course>270.0</course>
<desc>Speed 57.6 km/h Distance 109 km</desc>
<time>2011-03-24T17:02:13.91</time>
<name>5146</name>
</trkpt>
<trkpt lat="49.251548" lon="8.899722">
<ele>218.5</ele>
<speed>60.7</speed>
<course>265.4</course>
<desc>Speed 60.7 km/h Distance 109 km</desc>
<time>2011-03-24T17:02:14.91</time>
<name>5147</name>
</trkpt>
<trkpt lat="49.251537" lon="8.899502">
<ele>218.5</ele>
<speed>58.0</speed>
<course>265.4</course>
<desc>Speed 58.0 km/h Distance 109 km</desc>
<time>2011-03-24T17:02:15.91</time>
<name>5148</name>
</trkpt>
<trkpt lat="49.251525" lon="8.899280">
<ele>218.5</ele>
<speed>58.8</speed>
<course>266.0</course>
<desc>Speed 58.8 km/h Distance 109 km</desc>
<time>2011-03-24T17:02:16.91</time>
<name>5149</name>
</trkpt>
<trkpt lat="49.251515" lon="8.899062">
<ele>219.0</ele>
<speed>58.8</speed>
<course>263.9</course>
<desc>Speed 58.8 km/h Distance 109 km</desc>
<time>2011-03-24T17:02:17.91</time>
<name>5150</name>
</trkpt>
<trkpt lat="49.251502" lon="8.898872">
<ele>219.0</ele>
<speed>50.5</speed>
<course>265.6</course>
<desc>Speed 50.5 km/h Distance 109 km</desc>
<time>2011-03-24T17:02:18.91</time>
<name>5151</name>
</trkpt>
<trkpt lat="49.251492" lon="8.898672">
<ele>219.5</ele>
<speed>52.4</speed>
<course>265.8</course>
<desc>Speed 52.4 km/h Distance 109 km</desc>
<time>2011-03-24T17:02:19.90</time>
<name>5152</name>
</trkpt>
<trkpt lat="49.251482" lon="8.898465">
<ele>219.5</ele>
<speed>54.4</speed>
<course>267.2</course>
<desc>Speed 54.4 km/h Distance 109 km</desc>
<time>2011-03-24T17:02:20.91</time>
<name>5153</name>
</trkpt>
<trkpt lat="49.251475" lon="8.898257">
<ele>220.0</ele>
<speed>54.5</speed>
<course>268.5</course>
<desc>Speed 54.5 km/h Distance 109 km</desc>
<time>2011-03-24T17:02:21.90</time>
<name>5154</name>
</trkpt>
<trkpt lat="49.251472" lon="8.898060">
<ele>220.0</ele>
<speed>52.1</speed>
<course>270.7</course>
<desc>Speed 52.1 km/h Distance 109 km</desc>
<time>2011-03-24T17:02:22.90</time>
<name>5155</name>
</trkpt>
<trkpt lat="49.251473" lon="8.897853">
<ele>220.0</ele>
<speed>54.1</speed>
<course>270.6</course>
<desc>Speed 54.1 km/h Distance 109 km</desc>
<time>2011-03-24T17:02:23.91</time>
<name>5156</name>
</trkpt>
<trkpt lat="49.251475" lon="8.897620">
<ele>220.0</ele>
<speed>60.9</speed>
<course>268.3</course>
<desc>Speed 60.9 km/h Distance 109 km</desc>
<time>2011-03-24T17:02:24.92</time>
<name>5157</name>
</trkpt>
<trkpt lat="49.251470" lon="8.897363">
<ele>220.0</ele>
<speed>67.4</speed>
<course>267.5</course>
<desc>Speed 67.4 km/h Distance 109 km</desc>
<time>2011-03-24T17:02:25.91</time>
<name>5158</name>
</trkpt>
<trkpt lat="49.251462" lon="8.897072">
<ele>220.0</ele>
<speed>74.7</speed>
<course>270.0</course>
<desc>Speed 74.7 km/h Distance 109 km</desc>
<time>2011-03-24T17:02:26.91</time>
<name>5159</name>
</trkpt>
<trkpt lat="49.251462" lon="8.896800">
<ele>220.0</ele>
<speed>68.8</speed>
<course>267.5</course>
<desc>Speed 68.8 km/h Distance 109 km</desc>
<time>2011-03-24T17:02:27.90</time>
<name>5160</name>
</trkpt>
<trkpt lat="49.251453" lon="8.896505">
<ele>220.0</ele>
<speed>75.5</speed>
<course>265.5</course>
<desc>Speed 75.5 km/h Distance 109 km</desc>
<time>2011-03-24T17:02:28.90</time>
<name>5161</name>
</trkpt>
<trkpt lat="49.251437" lon="8.896180">
<ele>220.0</ele>
<speed>85.6</speed>
<course>266.0</course>
<desc>Speed 85.6 km/h Distance 109 km</desc>
<time>2011-03-24T17:02:29.90</time>
<name>5162</name>
</trkpt>
<trkpt lat="49.251420" lon="8.895817">
<ele>220.0</ele>
<speed>94.9</speed>
<course>263.6</course>
<desc>Speed 94.9 km/h Distance 109 km</desc>
<time>2011-03-24T17:02:30.90</time>
<name>5163</name>
</trkpt>
<trkpt lat="49.251395" lon="8.895475">
<ele>220.0</ele>
<speed>89.9</speed>
<course>261.2</course>
<desc>Speed 89.9 km/h Distance 109 km</desc>
<time>2011-03-24T17:02:31.90</time>
<name>5164</name>
</trkpt>
<trkpt lat="49.251362" lon="8.895145">
<ele>220.0</ele>
<speed>87.8</speed>
<course>259.0</course>
<desc>Speed 87.8 km/h Distance 109 km</desc>
<time>2011-03-24T17:02:32.90</time>
<name>5165</name>
</trkpt>
<trkpt lat="49.251320" lon="8.894817">
<ele>220.0</ele>
<speed>87.6</speed>
<course>258.9</course>
<desc>Speed 87.6 km/h Distance 109 km</desc>
<time>2011-03-24T17:02:33.90</time>
<name>5166</name>
</trkpt>
<trkpt lat="49.251278" lon="8.894490">
<ele>220.0</ele>
<speed>87.3</speed>
<course>259.8</course>
<desc>Speed 87.3 km/h Distance 109 km</desc>
<time>2011-03-24T17:02:34.90</time>
<name>5167</name>
</trkpt>
<trkpt lat="49.251242" lon="8.894177">
<ele>220.0</ele>
<speed>83.7</speed>
<course>259.9</course>
<desc>Speed 83.7 km/h Distance 109 km</desc>
<time>2011-03-24T17:02:35.91</time>
<name>5168</name>
</trkpt>
<trkpt lat="49.251207" lon="8.893877">
<ele>220.0</ele>
<speed>79.9</speed>
<course>259.8</course>
<desc>Speed 79.9 km/h Distance 109 km</desc>
<time>2011-03-24T17:02:36.89</time>
<name>5169</name>
</trkpt>
<trkpt lat="49.251173" lon="8.893592">
<ele>220.0</ele>
<speed>76.4</speed>
<course>259.9</course>
<desc>Speed 76.4 km/h Distance 110 km</desc>
<time>2011-03-24T17:02:37.90</time>
<name>5170</name>
</trkpt>
<trkpt lat="49.251142" lon="8.893318">
<ele>220.0</ele>
<speed>73.3</speed>
<course>260.1</course>
<desc>Speed 73.3 km/h Distance 110 km</desc>
<time>2011-03-24T17:02:38.89</time>
<name>5171</name>
</trkpt>
<trkpt lat="49.251112" lon="8.893055">
<ele>220.0</ele>
<speed>70.5</speed>
<course>262.5</course>
<desc>Speed 70.5 km/h Distance 110 km</desc>
<time>2011-03-24T17:02:39.89</time>
<name>5172</name>
</trkpt>
<trkpt lat="49.251090" lon="8.892803">
<ele>220.0</ele>
<speed>67.5</speed>
<course>263.8</course>
<desc>Speed 67.5 km/h Distance 110 km</desc>
<time>2011-03-24T17:02:40.90</time>
<name>5173</name>
</trkpt>
<trkpt lat="49.251073" lon="8.892567">
<ele>219.0</ele>
<speed>63.6</speed>
<course>265.6</course>
<desc>Speed 63.6 km/h Distance 110 km</desc>
<time>2011-03-24T17:02:41.90</time>
<name>5174</name>
</trkpt>
<trkpt lat="49.251062" lon="8.892333">
<ele>219.0</ele>
<speed>62.5</speed>
<course>268.0</course>
<desc>Speed 62.5 km/h Distance 110 km</desc>
<time>2011-03-24T17:02:42.89</time>
<name>5175</name>
</trkpt>
<trkpt lat="49.251057" lon="8.892113">
<ele>217.5</ele>
<speed>58.4</speed>
<course>270.0</course>
<desc>Speed 58.4 km/h Distance 110 km</desc>
<time>2011-03-24T17:02:43.90</time>
<name>5176</name>
</trkpt>
<trkpt lat="49.251057" lon="8.891898">
<ele>216.5</ele>
<speed>56.7</speed>
<course>272.1</course>
<desc>Speed 56.7 km/h Distance 110 km</desc>
<time>2011-03-24T17:02:44.89</time>
<name>5177</name>
</trkpt>
<trkpt lat="49.251062" lon="8.891687">
<ele>216.0</ele>
<speed>54.4</speed>
<course>274.4</course>
<desc>Speed 54.4 km/h Distance 110 km</desc>
<time>2011-03-24T17:02:45.90</time>
<name>5178</name>
</trkpt>
<trkpt lat="49.251072" lon="8.891487">
<ele>216.0</ele>
<speed>53.0</speed>
<course>276.0</course>
<desc>Speed 53.0 km/h Distance 110 km</desc>
<time>2011-03-24T17:02:46.88</time>
<name>5179</name>
</trkpt>
<trkpt lat="49.251085" lon="8.891293">
<ele>216.0</ele>
<speed>50.7</speed>
<course>276.4</course>
<desc>Speed 50.7 km/h Distance 110 km</desc>
<time>2011-03-24T17:02:47.89</time>
<name>5180</name>
</trkpt>
<trkpt lat="49.251098" lon="8.891110">
<ele>216.0</ele>
<speed>49.2</speed>
<course>277.6</course>
<desc>Speed 49.2 km/h Distance 110 km</desc>
<time>2011-03-24T17:02:48.89</time>
<name>5181</name>
</trkpt>
<trkpt lat="49.251113" lon="8.890937">
<ele>216.0</ele>
<speed>46.2</speed>
<course>276.9</course>
<desc>Speed 46.2 km/h Distance 110 km</desc>
<time>2011-03-24T17:02:49.89</time>
<name>5182</name>
</trkpt>
<trkpt lat="49.251127" lon="8.890768">
<ele>216.0</ele>
<speed>45.1</speed>
<course>277.3</course>
<desc>Speed 45.1 km/h Distance 110 km</desc>
<time>2011-03-24T17:02:50.88</time>
<name>5183</name>
</trkpt>
<trkpt lat="49.251140" lon="8.890608">
<ele>216.0</ele>
<speed>43.1</speed>
<course>280.0</course>
<desc>Speed 43.1 km/h Distance 110 km</desc>
<time>2011-03-24T17:02:51.89</time>
<name>5184</name>
</trkpt>
<trkpt lat="49.251158" lon="8.890448">
<ele>216.0</ele>
<speed>42.8</speed>
<course>274.8</course>
<desc>Speed 42.8 km/h Distance 110 km</desc>
<time>2011-03-24T17:02:52.88</time>
<name>5185</name>
</trkpt>
<trkpt lat="49.251167" lon="8.890297">
<ele>218.0</ele>
<speed>41.3</speed>
<course>276.1</course>
<desc>Speed 41.3 km/h Distance 110 km</desc>
<time>2011-03-24T17:02:53.89</time>
<name>5186</name>
</trkpt>
<trkpt lat="49.251177" lon="8.890153">
<ele>217.5</ele>
<speed>37.8</speed>
<course>276.5</course>
<desc>Speed 37.8 km/h Distance 110 km</desc>
<time>2011-03-24T17:02:54.89</time>
<name>5187</name>
</trkpt>
<trkpt lat="49.251187" lon="8.890018">
<ele>217.5</ele>
<speed>35.7</speed>
<course>282.2</course>
<desc>Speed 35.7 km/h Distance 110 km</desc>
<time>2011-03-24T17:02:55.90</time>
<name>5188</name>
</trkpt>
<trkpt lat="49.251202" lon="8.889912">
<ele>217.0</ele>
<speed>8.6</speed>
<course>235.2</course>
<desc>Speed 8.6 km/h Distance 110 km</desc>
<time>2011-03-24T17:02:57.89</time>
<name>5189</name>
</trkpt>
<trkpt lat="49.251193" lon="8.889893">
<ele>217.0</ele>
<speed>1.3</speed>
<course>270.0</course>
<desc>Speed 1.3 km/h Distance 110 km</desc>
<time>2011-03-24T17:02:59.89</time>
<name>5190</name>
</trkpt>
<trkpt lat="49.251193" lon="8.889892">
<ele>217.0</ele>
<speed>0.3</speed>
<course>37.2</course>
<desc>Speed 0.3 km/h Distance 110 km</desc>
<time>2011-03-24T17:03:00.89</time>
<name>5191</name>
</trkpt>
<trkpt lat="49.251195" lon="8.889893">
<ele>217.0</ele>
<speed>0.6</speed>
<course>0.0</course>
<desc>Speed 0.6 km/h Distance 110 km</desc>
<time>2011-03-24T17:03:01.88</time>
<name>5192</name>
</trkpt>
<trkpt lat="49.251197" lon="8.889893">
<ele>216.5</ele>
<speed>0.5</speed>
<course>278.7</course>
<desc>Speed 0.5 km/h Distance 110 km</desc>
<time>2011-03-24T17:03:02.89</time>
<name>5193</name>
</trkpt>
<trkpt lat="49.251198" lon="8.889877">
<ele>216.5</ele>
<speed>3.6</speed>
<course>254.4</course>
<desc>Speed 3.6 km/h Distance 110 km</desc>
<time>2011-03-24T17:03:03.88</time>
<name>5194</name>
</trkpt>
<trkpt lat="49.251188" lon="8.889822">
<ele>218.0</ele>
<speed>14.5</speed>
<course>291.7</course>
<desc>Speed 14.5 km/h Distance 110 km</desc>
<time>2011-03-24T17:03:04.88</time>
<name>5195</name>
</trkpt>
<trkpt lat="49.251200" lon="8.889777">
<ele>217.0</ele>
<speed>12.2</speed>
<course>289.1</course>
<desc>Speed 12.2 km/h Distance 110 km</desc>
<time>2011-03-24T17:03:05.89</time>
<name>5196</name>
</trkpt>
<trkpt lat="49.251212" lon="8.889725">
<ele>217.0</ele>
<speed>13.4</speed>
<course>288.1</course>
<desc>Speed 13.4 km/h Distance 110 km</desc>
<time>2011-03-24T17:03:06.88</time>
<name>5197</name>
</trkpt>
<trkpt lat="49.251228" lon="8.889647">
<ele>217.5</ele>
<speed>20.1</speed>
<course>319.7</course>
<desc>Speed 20.1 km/h Distance 110 km</desc>
<time>2011-03-24T17:03:07.88</time>
<name>5198</name>
</trkpt>
<trkpt lat="49.251278" lon="8.889582">
<ele>219.5</ele>
<speed>25.0</speed>
<course>359.3</course>
<desc>Speed 25.0 km/h Distance 110 km</desc>
<time>2011-03-24T17:03:08.88</time>
<name>5199</name>
</trkpt>
<trkpt lat="49.251343" lon="8.889580">
<ele>222.0</ele>
<speed>25.6</speed>
<course>5.3</course>
<desc>Speed 25.6 km/h Distance 110 km</desc>
<time>2011-03-24T17:03:09.88</time>
<name>5200</name>
</trkpt>
<trkpt lat="49.251402" lon="8.889588">
<ele>222.5</ele>
<speed>24.3</speed>
<course>2.1</course>
<desc>Speed 24.3 km/h Distance 110 km</desc>
<time>2011-03-24T17:03:10.88</time>
<name>5201</name>
</trkpt>
<trkpt lat="49.251463" lon="8.889592">
<ele>222.5</ele>
<speed>24.7</speed>
<course>3.7</course>
<desc>Speed 24.7 km/h Distance 110 km</desc>
<time>2011-03-24T17:03:11.88</time>
<name>5202</name>
</trkpt>
<trkpt lat="49.251532" lon="8.889598">
<ele>224.0</ele>
<speed>27.4</speed>
<course>5.9</course>
<desc>Speed 27.4 km/h Distance 110 km</desc>
<time>2011-03-24T17:03:12.88</time>
<name>5203</name>
</trkpt>
<trkpt lat="49.251595" lon="8.889608">
<ele>226.0</ele>
<speed>25.5</speed>
<course>2.9</course>
<desc>Speed 25.5 km/h Distance 110 km</desc>
<time>2011-03-24T17:03:13.87</time>
<name>5204</name>
</trkpt>
<trkpt lat="49.251660" lon="8.889613">
<ele>226.0</ele>
<speed>26.2</speed>
<course>2.0</course>
<desc>Speed 26.2 km/h Distance 110 km</desc>
<time>2011-03-24T17:03:14.88</time>
<name>5205</name>
</trkpt>
<trkpt lat="49.251725" lon="8.889617">
<ele>226.0</ele>
<speed>26.4</speed>
<course>3.0</course>
<desc>Speed 26.4 km/h Distance 110 km</desc>
<time>2011-03-24T17:03:15.88</time>
<name>5206</name>
</trkpt>
<trkpt lat="49.251788" lon="8.889622">
<ele>226.0</ele>
<speed>25.3</speed>
<course>5.3</course>
<desc>Speed 25.3 km/h Distance 110 km</desc>
<time>2011-03-24T17:03:16.87</time>
<name>5207</name>
</trkpt>
<trkpt lat="49.251847" lon="8.889630">
<ele>226.5</ele>
<speed>23.2</speed>
<course>3.9</course>
<desc>Speed 23.2 km/h Distance 110 km</desc>
<time>2011-03-24T17:03:17.87</time>
<name>5208</name>
</trkpt>
<trkpt lat="49.251895" lon="8.889635">
<ele>226.0</ele>
<speed>19.2</speed>
<course>356.2</course>
<desc>Speed 19.2 km/h Distance 110 km</desc>
<time>2011-03-24T17:03:18.86</time>
<name>5209</name>
</trkpt>
<trkpt lat="49.251945" lon="8.889630">
<ele>226.0</ele>
<speed>19.4</speed>
<course>5.1</course>
<desc>Speed 19.4 km/h Distance 110 km</desc>
<time>2011-03-24T17:03:19.87</time>
<name>5210</name>
</trkpt>
<trkpt lat="49.251983" lon="8.889635">
<ele>226.0</ele>
<speed>16.0</speed>
<course>358.1</course>
<desc>Speed 16.0 km/h Distance 110 km</desc>
<time>2011-03-24T17:03:20.87</time>
<name>5211</name>
</trkpt>
<trkpt lat="49.252013" lon="8.889633">
<ele>225.0</ele>
<speed>12.5</speed>
<course>2.2</course>
<desc>Speed 12.5 km/h Distance 110 km</desc>
<time>2011-03-24T17:03:21.86</time>
<name>5212</name>
</trkpt>
<trkpt lat="49.252035" lon="8.889635">
<ele>224.5</ele>
<speed>9.5</speed>
<course>1.1</course>
<desc>Speed 9.5 km/h Distance 110 km</desc>
<time>2011-03-24T17:03:22.86</time>
<name>5213</name>
</trkpt>
<trkpt lat="49.252078" lon="8.889635">
<ele>224.0</ele>
<speed>17.3</speed>
<course>357.0</course>
<desc>Speed 17.3 km/h Distance 110 km</desc>
<time>2011-03-24T17:03:23.86</time>
<name>5214</name>
</trkpt>
<trkpt lat="49.252122" lon="8.889632">
<ele>224.0</ele>
<speed>18.2</speed>
<course>5.2</course>
<desc>Speed 18.2 km/h Distance 110 km</desc>
<time>2011-03-24T17:03:24.86</time>
<name>5215</name>
</trkpt>
<trkpt lat="49.252182" lon="8.889640">
<ele>224.5</ele>
<speed>23.9</speed>
<course>3.7</course>
<desc>Speed 23.9 km/h Distance 110 km</desc>
<time>2011-03-24T17:03:25.87</time>
<name>5216</name>
</trkpt>
<trkpt lat="49.252250" lon="8.889647">
<ele>224.5</ele>
<speed>26.9</speed>
<course>0.0</course>
<desc>Speed 26.9 km/h Distance 110 km</desc>
<time>2011-03-24T17:03:26.87</time>
<name>5217</name>
</trkpt>
<trkpt lat="49.252317" lon="8.889647">
<ele>225.0</ele>
<speed>26.6</speed>
<course>353.9</course>
<desc>Speed 26.6 km/h Distance 110 km</desc>
<time>2011-03-24T17:03:27.88</time>
<name>5218</name>
</trkpt>
<trkpt lat="49.252398" lon="8.889633">
<ele>225.0</ele>
<speed>32.0</speed>
<course>350.7</course>
<desc>Speed 32.0 km/h Distance 110 km</desc>
<time>2011-03-24T17:03:28.87</time>
<name>5219</name>
</trkpt>
<trkpt lat="49.252492" lon="8.889610">
<ele>225.5</ele>
<speed>34.6</speed>
<course>350.4</course>
<desc>Speed 34.6 km/h Distance 110 km</desc>
<time>2011-03-24T17:03:29.87</time>
<name>5220</name>
</trkpt>
<trkpt lat="49.252582" lon="8.889587">
<ele>225.5</ele>
<speed>33.6</speed>
<course>353.4</course>
<desc>Speed 33.6 km/h Distance 110 km</desc>
<time>2011-03-24T17:03:30.87</time>
<name>5221</name>
</trkpt>
<trkpt lat="49.252657" lon="8.889573">
<ele>226.0</ele>
<speed>32.6</speed>
<course>355.4</course>
<desc>Speed 32.6 km/h Distance 110 km</desc>
<time>2011-03-24T17:03:31.86</time>
<name>5222</name>
</trkpt>
<trkpt lat="49.252737" lon="8.889563">
<ele>226.0</ele>
<speed>33.4</speed>
<course>352.4</course>
<desc>Speed 33.4 km/h Distance 110 km</desc>
<time>2011-03-24T17:03:32.86</time>
<name>5223</name>
</trkpt>
<trkpt lat="49.252810" lon="8.889548">
<ele>226.5</ele>
<speed>32.8</speed>
<course>352.0</course>
<desc>Speed 32.8 km/h Distance 110 km</desc>
<time>2011-03-24T17:03:33.87</time>
<name>5224</name>
</trkpt>
<trkpt lat="49.252895" lon="8.889530">
<ele>227.0</ele>
<speed>33.3</speed>
<course>351.7</course>
<desc>Speed 33.3 km/h Distance 110 km</desc>
<time>2011-03-24T17:03:34.85</time>
<name>5225</name>
</trkpt>
<trkpt lat="49.252985" lon="8.889510">
<ele>227.0</ele>
<speed>35.2</speed>
<course>351.2</course>
<desc>Speed 35.2 km/h Distance 110 km</desc>
<time>2011-03-24T17:03:35.86</time>
<name>5226</name>
</trkpt>
<trkpt lat="49.253083" lon="8.889487">
<ele>228.0</ele>
<speed>37.3</speed>
<course>351.2</course>
<desc>Speed 37.3 km/h Distance 110 km</desc>
<time>2011-03-24T17:03:36.86</time>
<name>5227</name>
</trkpt>
<trkpt lat="49.253182" lon="8.889463">
<ele>228.5</ele>
<speed>38.4</speed>
<course>350.4</course>
<desc>Speed 38.4 km/h Distance 110 km</desc>
<time>2011-03-24T17:03:37.85</time>
<name>5228</name>
</trkpt>
<trkpt lat="49.253285" lon="8.889437">
<ele>229.5</ele>
<speed>40.4</speed>
<course>350.6</course>
<desc>Speed 40.4 km/h Distance 110 km</desc>
<time>2011-03-24T17:03:38.85</time>
<name>5229</name>
</trkpt>
<trkpt lat="49.253383" lon="8.889412">
<ele>229.5</ele>
<speed>39.2</speed>
<course>349.3</course>
<desc>Speed 39.2 km/h Distance 110 km</desc>
<time>2011-03-24T17:03:39.86</time>
<name>5230</name>
</trkpt>
<trkpt lat="49.253487" lon="8.889382">
<ele>230.5</ele>
<speed>42.0</speed>
<course>345.9</course>
<desc>Speed 42.0 km/h Distance 110 km</desc>
<time>2011-03-24T17:03:40.85</time>
<name>5231</name>
</trkpt>
<trkpt lat="49.253595" lon="8.889340">
<ele>230.5</ele>
<speed>45.0</speed>
<course>351.3</course>
<desc>Speed 45.0 km/h Distance 110 km</desc>
<time>2011-03-24T17:03:41.86</time>
<name>5232</name>
</trkpt>
<trkpt lat="49.253695" lon="8.889317">
<ele>230.5</ele>
<speed>39.6</speed>
<course>350.7</course>
<desc>Speed 39.6 km/h Distance 110 km</desc>
<time>2011-03-24T17:03:42.86</time>
<name>5233</name>
</trkpt>
<trkpt lat="49.253788" lon="8.889293">
<ele>231.0</ele>
<speed>38.9</speed>
<course>348.8</course>
<desc>Speed 38.9 km/h Distance 110 km</desc>
<time>2011-03-24T17:03:43.85</time>
<name>5234</name>
</trkpt>
<trkpt lat="49.253882" lon="8.889265">
<ele>230.0</ele>
<speed>37.0</speed>
<course>347.9</course>
<desc>Speed 37.0 km/h Distance 110 km</desc>
<time>2011-03-24T17:03:44.85</time>
<name>5235</name>
</trkpt>
<trkpt lat="49.253968" lon="8.889237">
<ele>231.0</ele>
<speed>35.3</speed>
<course>350.9</course>
<desc>Speed 35.3 km/h Distance 110 km</desc>
<time>2011-03-24T17:03:45.85</time>
<name>5236</name>
</trkpt>
<trkpt lat="49.254037" lon="8.889220">
<ele>231.0</ele>
<speed>28.4</speed>
<course>348.8</course>
<desc>Speed 28.4 km/h Distance 110 km</desc>
<time>2011-03-24T17:03:46.85</time>
<name>5237</name>
</trkpt>
<trkpt lat="49.254092" lon="8.889203">
<ele>232.0</ele>
<speed>22.2</speed>
<course>356.8</course>
<desc>Speed 22.2 km/h Distance 110 km</desc>
<time>2011-03-24T17:03:47.85</time>
<name>5238</name>
</trkpt>
<trkpt lat="49.254128" lon="8.889200">
<ele>233.0</ele>
<speed>8.7</speed>
<course>337.9</course>
<desc>Speed 8.7 km/h Distance 110 km</desc>
<time>2011-03-24T17:03:49.86</time>
<name>5239</name>
</trkpt>
<trkpt lat="49.254142" lon="8.889192">
<ele>233.0</ele>
<speed>4.5</speed>
<course>270.0</course>
<desc>Speed 4.5 km/h Distance 110 km</desc>
<time>2011-03-24T17:03:50.85</time>
<name>5240</name>
</trkpt>
<trkpt lat="49.254142" lon="8.889188">
<ele>233.0</ele>
<speed>0.8</speed>
<course>270.0</course>
<desc>Speed 0.8 km/h Distance 110 km</desc>
<time>2011-03-24T17:03:51.85</time>
<name>5241</name>
</trkpt>
<trkpt lat="49.254142" lon="8.889188">
<ele>233.0</ele>
<speed>0.3</speed>
<course>142.8</course>
<desc>Speed 0.3 km/h Distance 110 km</desc>
<time>2011-03-24T17:03:52.85</time>
<name>5242</name>
</trkpt>
<trkpt lat="49.254140" lon="8.889190">
<ele>233.0</ele>
<speed>0.0</speed>
<course>344.0</course>
<desc>Speed 0.0 km/h Distance 110 km</desc>
<time>2011-03-24T17:03:53.85</time>
<name>5243</name>
</trkpt>
<trkpt lat="49.254152" lon="8.889185">
<ele>233.0</ele>
<speed>4.6</speed>
<course>337.5</course>
<desc>Speed 4.6 km/h Distance 110 km</desc>
<time>2011-03-24T17:03:54.85</time>
<name>5244</name>
</trkpt>
<trkpt lat="49.254188" lon="8.889162">
<ele>232.5</ele>
<speed>16.7</speed>
<course>347.1</course>
<desc>Speed 16.7 km/h Distance 110 km</desc>
<time>2011-03-24T17:03:55.85</time>
<name>5245</name>
</trkpt>
<trkpt lat="49.254250" lon="8.889140">
<ele>232.0</ele>
<speed>25.0</speed>
<course>347.0</course>
<desc>Speed 25.0 km/h Distance 110 km</desc>
<time>2011-03-24T17:03:56.85</time>
<name>5246</name>
</trkpt>
<trkpt lat="49.254335" lon="8.889110">
<ele>232.0</ele>
<speed>36.5</speed>
<course>348.8</course>
<desc>Speed 36.5 km/h Distance 110 km</desc>
<time>2011-03-24T17:03:57.84</time>
<name>5247</name>
</trkpt>
<trkpt lat="49.254412" lon="8.889087">
<ele>233.0</ele>
<speed>30.7</speed>
<course>349.9</course>
<desc>Speed 30.7 km/h Distance 110 km</desc>
<time>2011-03-24T17:03:58.85</time>
<name>5248</name>
</trkpt>
<trkpt lat="49.254485" lon="8.889067">
<ele>233.5</ele>
<speed>29.6</speed>
<course>349.5</course>
<desc>Speed 29.6 km/h Distance 110 km</desc>
<time>2011-03-24T17:03:59.84</time>
<name>5249</name>
</trkpt>
<trkpt lat="49.254562" lon="8.889045">
<ele>234.5</ele>
<speed>30.2</speed>
<course>350.0</course>
<desc>Speed 30.2 km/h Distance 110 km</desc>
<time>2011-03-24T17:04:00.85</time>
<name>5250</name>
</trkpt>
<trkpt lat="49.254642" lon="8.889023">
<ele>235.5</ele>
<speed>31.0</speed>
<course>351.1</course>
<desc>Speed 31.0 km/h Distance 110 km</desc>
<time>2011-03-24T17:04:01.85</time>
<name>5251</name>
</trkpt>
<trkpt lat="49.254718" lon="8.889005">
<ele>235.5</ele>
<speed>31.0</speed>
<course>353.0</course>
<desc>Speed 31.0 km/h Distance 110 km</desc>
<time>2011-03-24T17:04:02.84</time>
<name>5252</name>
</trkpt>
<trkpt lat="49.254798" lon="8.888990">
<ele>235.5</ele>
<speed>31.6</speed>
<course>352.9</course>
<desc>Speed 31.6 km/h Distance 110 km</desc>
<time>2011-03-24T17:04:03.84</time>
<name>5253</name>
</trkpt>
<trkpt lat="49.254877" lon="8.888975">
<ele>235.5</ele>
<speed>31.4</speed>
<course>352.3</course>
<desc>Speed 31.4 km/h Distance 110 km</desc>
<time>2011-03-24T17:04:04.85</time>
<name>5254</name>
</trkpt>
<trkpt lat="49.254957" lon="8.888958">
<ele>236.0</ele>
<speed>32.7</speed>
<course>347.5</course>
<desc>Speed 32.7 km/h Distance 110 km</desc>
<time>2011-03-24T17:04:05.84</time>
<name>5255</name>
</trkpt>
<trkpt lat="49.255040" lon="8.888930">
<ele>237.0</ele>
<speed>33.8</speed>
<course>350.4</course>
<desc>Speed 33.8 km/h Distance 110 km</desc>
<time>2011-03-24T17:04:06.84</time>
<name>5256</name>
</trkpt>
<trkpt lat="49.255123" lon="8.888908">
<ele>237.0</ele>
<speed>33.6</speed>
<course>352.1</course>
<desc>Speed 33.6 km/h Distance 110 km</desc>
<time>2011-03-24T17:04:07.84</time>
<name>5257</name>
</trkpt>
<trkpt lat="49.255210" lon="8.888890">
<ele>237.0</ele>
<speed>35.1</speed>
<course>350.6</course>
<desc>Speed 35.1 km/h Distance 110 km</desc>
<time>2011-03-24T17:04:08.84</time>
<name>5258</name>
</trkpt>
<trkpt lat="49.255295" lon="8.888868">
<ele>237.5</ele>
<speed>34.7</speed>
<course>349.4</course>
<desc>Speed 34.7 km/h Distance 110 km</desc>
<time>2011-03-24T17:04:09.83</time>
<name>5259</name>
</trkpt>
<trkpt lat="49.255382" lon="8.888843">
<ele>237.5</ele>
<speed>35.7</speed>
<course>347.5</course>
<desc>Speed 35.7 km/h Distance 110 km</desc>
<time>2011-03-24T17:04:10.84</time>
<name>5260</name>
</trkpt>
<trkpt lat="49.255470" lon="8.888813">
<ele>238.0</ele>
<speed>36.4</speed>
<course>347.5</course>
<desc>Speed 36.4 km/h Distance 110 km</desc>
<time>2011-03-24T17:04:11.84</time>
<name>5261</name>
</trkpt>
<trkpt lat="49.255563" lon="8.888782">
<ele>238.0</ele>
<speed>37.7</speed>
<course>346.2</course>
<desc>Speed 37.7 km/h Distance 110 km</desc>
<time>2011-03-24T17:04:12.84</time>
<name>5262</name>
</trkpt>
<trkpt lat="49.255652" lon="8.888748">
<ele>238.0</ele>
<speed>37.3</speed>
<course>343.6</course>
<desc>Speed 37.3 km/h Distance 110 km</desc>
<time>2011-03-24T17:04:13.85</time>
<name>5263</name>
</trkpt>
<trkpt lat="49.255737" lon="8.888710">
<ele>239.0</ele>
<speed>34.5</speed>
<course>348.3</course>
<desc>Speed 34.5 km/h Distance 110 km</desc>
<time>2011-03-24T17:04:14.84</time>
<name>5264</name>
</trkpt>
<trkpt lat="49.255800" lon="8.888690">
<ele>239.5</ele>
<speed>25.5</speed>
<course>345.2</course>
<desc>Speed 25.5 km/h Distance 110 km</desc>
<time>2011-03-24T17:04:15.84</time>
<name>5265</name>
</trkpt>
<trkpt lat="49.255862" lon="8.888665">
<ele>240.0</ele>
<speed>24.8</speed>
<course>343.6</course>
<desc>Speed 24.8 km/h Distance 110 km</desc>
<time>2011-03-24T17:04:16.84</time>
<name>5266</name>
</trkpt>
<trkpt lat="49.255913" lon="8.888642">
<ele>241.0</ele>
<speed>21.3</speed>
<course>326.9</course>
<desc>Speed 21.3 km/h Distance 110 km</desc>
<time>2011-03-24T17:04:17.84</time>
<name>5267</name>
</trkpt>
<trkpt lat="49.255932" lon="8.888623">
<ele>241.5</ele>
<speed>9.3</speed>
<course>340.6</course>
<desc>Speed 9.3 km/h Distance 110 km</desc>
<time>2011-03-24T17:04:18.84</time>
<name>5268</name>
</trkpt>
<trkpt lat="49.255953" lon="8.888612">
<ele>241.5</ele>
<speed>9.1</speed>
<course>320.3</course>
<desc>Speed 9.1 km/h Distance 110 km</desc>
<time>2011-03-24T17:04:19.84</time>
<name>5269</name>
</trkpt>
<trkpt lat="49.255972" lon="8.888588">
<ele>241.5</ele>
<speed>10.0</speed>
<course>285.9</course>
<desc>Speed 10.0 km/h Distance 110 km</desc>
<time>2011-03-24T17:04:20.84</time>
<name>5270</name>
</trkpt>
<trkpt lat="49.255985" lon="8.888517">
<ele>240.0</ele>
<speed>19.5</speed>
<course>255.4</course>
<desc>Speed 19.5 km/h Distance 110 km</desc>
<time>2011-03-24T17:04:21.84</time>
<name>5271</name>
</trkpt>
<trkpt lat="49.255972" lon="8.888438">
<ele>239.5</ele>
<speed>21.5</speed>
<course>239.9</course>
<desc>Speed 21.5 km/h Distance 110 km</desc>
<time>2011-03-24T17:04:22.84</time>
<name>5272</name>
</trkpt>
<trkpt lat="49.255930" lon="8.888328">
<ele>239.5</ele>
<speed>33.6</speed>
<course>251.2</course>
<desc>Speed 33.6 km/h Distance 110 km</desc>
<time>2011-03-24T17:04:23.84</time>
<name>5273</name>
</trkpt>
<trkpt lat="49.255907" lon="8.888223">
<ele>238.5</ele>
<speed>28.5</speed>
<course>251.0</course>
<desc>Speed 28.5 km/h Distance 110 km</desc>
<time>2011-03-24T17:04:24.83</time>
<name>5274</name>
</trkpt>
<trkpt lat="49.255880" lon="8.888105">
<ele>239.0</ele>
<speed>32.7</speed>
<course>251.8</course>
<desc>Speed 32.7 km/h Distance 110 km</desc>
<time>2011-03-24T17:04:25.83</time>
<name>5275</name>
</trkpt>
<trkpt lat="49.255855" lon="8.887988">
<ele>237.5</ele>
<speed>33.2</speed>
<course>255.7</course>
<desc>Speed 33.2 km/h Distance 110 km</desc>
<time>2011-03-24T17:04:26.83</time>
<name>5276</name>
</trkpt>
<trkpt lat="49.255833" lon="8.887858">
<ele>236.5</ele>
<speed>35.0</speed>
<course>252.2</course>
<desc>Speed 35.0 km/h Distance 110 km</desc>
<time>2011-03-24T17:04:27.84</time>
<name>5277</name>
</trkpt>
<trkpt lat="49.255805" lon="8.887723">
<ele>236.5</ele>
<speed>36.9</speed>
<course>254.9</course>
<desc>Speed 36.9 km/h Distance 110 km</desc>
<time>2011-03-24T17:04:28.83</time>
<name>5278</name>
</trkpt>
<trkpt lat="49.255780" lon="8.887582">
<ele>237.0</ele>
<speed>38.0</speed>
<course>255.2</course>
<desc>Speed 38.0 km/h Distance 110 km</desc>
<time>2011-03-24T17:04:29.83</time>
<name>5279</name>
</trkpt>
<trkpt lat="49.255755" lon="8.887437">
<ele>237.5</ele>
<speed>39.4</speed>
<course>256.9</course>
<desc>Speed 39.4 km/h Distance 110 km</desc>
<time>2011-03-24T17:04:30.83</time>
<name>5280</name>
</trkpt>
<trkpt lat="49.255732" lon="8.887283">
<ele>238.5</ele>
<speed>40.7</speed>
<course>256.4</course>
<desc>Speed 40.7 km/h Distance 110 km</desc>
<time>2011-03-24T17:04:31.84</time>
<name>5281</name>
</trkpt>
<trkpt lat="49.255707" lon="8.887125">
<ele>238.5</ele>
<speed>42.6</speed>
<course>258.6</course>
<desc>Speed 42.6 km/h Distance 110 km</desc>
<time>2011-03-24T17:04:32.84</time>
<name>5282</name>
</trkpt>
<trkpt lat="49.255685" lon="8.886960">
<ele>239.0</ele>
<speed>43.2</speed>
<course>258.8</course>
<desc>Speed 43.2 km/h Distance 110 km</desc>
<time>2011-03-24T17:04:33.82</time>
<name>5283</name>
</trkpt>
<trkpt lat="49.255663" lon="8.886792">
<ele>240.0</ele>
<speed>44.0</speed>
<course>261.6</course>
<desc>Speed 44.0 km/h Distance 110 km</desc>
<time>2011-03-24T17:04:34.83</time>
<name>5284</name>
</trkpt>
<trkpt lat="49.255648" lon="8.886637">
<ele>241.0</ele>
<speed>40.8</speed>
<course>264.9</course>
<desc>Speed 40.8 km/h Distance 110 km</desc>
<time>2011-03-24T17:04:35.83</time>
<name>5285</name>
</trkpt>
<trkpt lat="49.255640" lon="8.886495">
<ele>240.5</ele>
<speed>36.4</speed>
<course>267.0</course>
<desc>Speed 36.4 km/h Distance 110 km</desc>
<time>2011-03-24T17:04:36.83</time>
<name>5286</name>
</trkpt>
<trkpt lat="49.255635" lon="8.886350">
<ele>241.5</ele>
<speed>37.9</speed>
<course>267.0</course>
<desc>Speed 37.9 km/h Distance 111 km</desc>
<time>2011-03-24T17:04:37.82</time>
<name>5287</name>
</trkpt>
<trkpt lat="49.255630" lon="8.886205">
<ele>242.0</ele>
<speed>38.0</speed>
<course>269.0</course>
<desc>Speed 38.0 km/h Distance 111 km</desc>
<time>2011-03-24T17:04:38.83</time>
<name>5288</name>
</trkpt>
<trkpt lat="49.255628" lon="8.886057">
<ele>242.5</ele>
<speed>38.6</speed>
<course>269.0</course>
<desc>Speed 38.6 km/h Distance 111 km</desc>
<time>2011-03-24T17:04:39.83</time>
<name>5289</name>
</trkpt>
<trkpt lat="49.255627" lon="8.885903">
<ele>242.5</ele>
<speed>39.9</speed>
<course>272.0</course>
<desc>Speed 39.9 km/h Distance 111 km</desc>
<time>2011-03-24T17:04:40.83</time>
<name>5290</name>
</trkpt>
<trkpt lat="49.255630" lon="8.885757">
<ele>242.0</ele>
<speed>38.8</speed>
<course>270.0</course>
<desc>Speed 38.8 km/h Distance 111 km</desc>
<time>2011-03-24T17:04:41.83</time>
<name>5291</name>
</trkpt>
<trkpt lat="49.255630" lon="8.885615">
<ele>242.5</ele>
<speed>37.1</speed>
<course>270.0</course>
<desc>Speed 37.1 km/h Distance 111 km</desc>
<time>2011-03-24T17:04:42.82</time>
<name>5292</name>
</trkpt>
<trkpt lat="49.255630" lon="8.885483">
<ele>242.5</ele>
<speed>34.5</speed>
<course>270.0</course>
<desc>Speed 34.5 km/h Distance 111 km</desc>
<time>2011-03-24T17:04:43.82</time>
<name>5293</name>
</trkpt>
<trkpt lat="49.255630" lon="8.885357">
<ele>242.5</ele>
<speed>32.8</speed>
<course>271.3</course>
<desc>Speed 32.8 km/h Distance 111 km</desc>
<time>2011-03-24T17:04:44.82</time>
<name>5294</name>
</trkpt>
<trkpt lat="49.255632" lon="8.885242">
<ele>242.0</ele>
<speed>30.0</speed>
<course>270.0</course>
<desc>Speed 30.0 km/h Distance 111 km</desc>
<time>2011-03-24T17:04:45.82</time>
<name>5295</name>
</trkpt>
<trkpt lat="49.255632" lon="8.885123">
<ele>242.0</ele>
<speed>30.7</speed>
<course>270.0</course>
<desc>Speed 30.7 km/h Distance 111 km</desc>
<time>2011-03-24T17:04:46.82</time>
<name>5296</name>
</trkpt>
<trkpt lat="49.255632" lon="8.885008">
<ele>242.0</ele>
<speed>30.0</speed>
<course>270.0</course>
<desc>Speed 30.0 km/h Distance 111 km</desc>
<time>2011-03-24T17:04:47.82</time>
<name>5297</name>
</trkpt>
<trkpt lat="49.255632" lon="8.884902">
<ele>242.0</ele>
<speed>27.1</speed>
<course>271.6</course>
<desc>Speed 27.1 km/h Distance 111 km</desc>
<time>2011-03-24T17:04:48.82</time>
<name>5298</name>
</trkpt>
<trkpt lat="49.255633" lon="8.884812">
<ele>241.5</ele>
<speed>23.0</speed>
<course>270.0</course>
<desc>Speed 23.0 km/h Distance 111 km</desc>
<time>2011-03-24T17:04:49.82</time>
<name>5299</name>
</trkpt>
<trkpt lat="49.255633" lon="8.884722">
<ele>241.5</ele>
<speed>24.0</speed>
<course>271.8</course>
<desc>Speed 24.0 km/h Distance 111 km</desc>
<time>2011-03-24T17:04:50.82</time>
<name>5300</name>
</trkpt>
<trkpt lat="49.255635" lon="8.884638">
<ele>241.5</ele>
<speed>22.6</speed>
<course>271.6</course>
<desc>Speed 22.6 km/h Distance 111 km</desc>
<time>2011-03-24T17:04:51.82</time>
<name>5301</name>
</trkpt>
<trkpt lat="49.255637" lon="8.884547">
<ele>241.5</ele>
<speed>24.1</speed>
<course>266.9</course>
<desc>Speed 24.1 km/h Distance 111 km</desc>
<time>2011-03-24T17:04:52.82</time>
<name>5302</name>
</trkpt>
<trkpt lat="49.255633" lon="8.884453">
<ele>241.0</ele>
<speed>24.5</speed>
<course>267.3</course>
<desc>Speed 24.5 km/h Distance 111 km</desc>
<time>2011-03-24T17:04:53.82</time>
<name>5303</name>
</trkpt>
<trkpt lat="49.255630" lon="8.884345">
<ele>242.5</ele>
<speed>26.3</speed>
<course>268.5</course>
<desc>Speed 26.3 km/h Distance 111 km</desc>
<time>2011-03-24T17:04:54.82</time>
<name>5304</name>
</trkpt>
<trkpt lat="49.255628" lon="8.884247">
<ele>242.5</ele>
<speed>25.9</speed>
<course>267.3</course>
<desc>Speed 25.9 km/h Distance 111 km</desc>
<time>2011-03-24T17:04:55.83</time>
<name>5305</name>
</trkpt>
<trkpt lat="49.255625" lon="8.884137">
<ele>244.5</ele>
<speed>26.0</speed>
<course>266.9</course>
<desc>Speed 26.0 km/h Distance 111 km</desc>
<time>2011-03-24T17:04:56.82</time>
<name>5306</name>
</trkpt>
<trkpt lat="49.255622" lon="8.884043">
<ele>244.5</ele>
<speed>25.2</speed>
<course>263.6</course>
<desc>Speed 25.2 km/h Distance 111 km</desc>
<time>2011-03-24T17:04:57.82</time>
<name>5307</name>
</trkpt>
<trkpt lat="49.255617" lon="8.883975">
<ele>242.5</ele>
<speed>19.8</speed>
<course>255.4</course>
<desc>Speed 19.8 km/h Distance 111 km</desc>
<time>2011-03-24T17:04:58.82</time>
<name>5308</name>
</trkpt>
<trkpt lat="49.255603" lon="8.883897">
<ele>242.0</ele>
<speed>22.1</speed>
<course>251.5</course>
<desc>Speed 22.1 km/h Distance 111 km</desc>
<time>2011-03-24T17:04:59.82</time>
<name>5309</name>
</trkpt>
<trkpt lat="49.255583" lon="8.883805">
<ele>242.5</ele>
<speed>24.0</speed>
<course>244.8</course>
<desc>Speed 24.0 km/h Distance 111 km</desc>
<time>2011-03-24T17:05:00.82</time>
<name>5310</name>
</trkpt>
<trkpt lat="49.255557" lon="8.883718">
<ele>241.5</ele>
<speed>27.0</speed>
<course>246.4</course>
<desc>Speed 27.0 km/h Distance 111 km</desc>
<time>2011-03-24T17:05:01.82</time>
<name>5311</name>
</trkpt>
<trkpt lat="49.255530" lon="8.883625">
<ele>241.5</ele>
<speed>27.7</speed>
<course>252.0</course>
<desc>Speed 27.7 km/h Distance 111 km</desc>
<time>2011-03-24T17:05:02.81</time>
<name>5312</name>
</trkpt>
<trkpt lat="49.255512" lon="8.883538">
<ele>241.0</ele>
<speed>24.9</speed>
<course>251.2</course>
<desc>Speed 24.9 km/h Distance 111 km</desc>
<time>2011-03-24T17:05:03.80</time>
<name>5313</name>
</trkpt>
<trkpt lat="49.255492" lon="8.883448">
<ele>241.5</ele>
<speed>24.8</speed>
<course>239.5</course>
<desc>Speed 24.8 km/h Distance 111 km</desc>
<time>2011-03-24T17:05:04.81</time>
<name>5314</name>
</trkpt>
<trkpt lat="49.255458" lon="8.883362">
<ele>240.5</ele>
<speed>26.5</speed>
<course>238.5</course>
<desc>Speed 26.5 km/h Distance 111 km</desc>
<time>2011-03-24T17:05:05.81</time>
<name>5315</name>
</trkpt>
<trkpt lat="49.255422" lon="8.883270">
<ele>240.5</ele>
<speed>28.7</speed>
<course>238.3</course>
<desc>Speed 28.7 km/h Distance 111 km</desc>
<time>2011-03-24T17:05:06.81</time>
<name>5316</name>
</trkpt>
<trkpt lat="49.255380" lon="8.883167">
<ele>240.5</ele>
<speed>32.7</speed>
<course>239.3</course>
<desc>Speed 32.7 km/h Distance 111 km</desc>
<time>2011-03-24T17:05:07.81</time>
<name>5317</name>
</trkpt>
<trkpt lat="49.255337" lon="8.883055">
<ele>240.5</ele>
<speed>34.9</speed>
<course>237.8</course>
<desc>Speed 34.9 km/h Distance 111 km</desc>
<time>2011-03-24T17:05:08.81</time>
<name>5318</name>
</trkpt>
<trkpt lat="49.255290" lon="8.882942">
<ele>240.5</ele>
<speed>34.8</speed>
<course>242.6</course>
<desc>Speed 34.8 km/h Distance 111 km</desc>
<time>2011-03-24T17:05:09.81</time>
<name>5319</name>
</trkpt>
<trkpt lat="49.255252" lon="8.882828">
<ele>240.5</ele>
<speed>34.0</speed>
<course>243.3</course>
<desc>Speed 34.0 km/h Distance 111 km</desc>
<time>2011-03-24T17:05:10.81</time>
<name>5320</name>
</trkpt>
<trkpt lat="49.255215" lon="8.882717">
<ele>240.5</ele>
<speed>33.0</speed>
<course>244.0</course>
<desc>Speed 33.0 km/h Distance 111 km</desc>
<time>2011-03-24T17:05:11.81</time>
<name>5321</name>
</trkpt>
<trkpt lat="49.255180" lon="8.882607">
<ele>240.0</ele>
<speed>32.5</speed>
<course>244.1</course>
<desc>Speed 32.5 km/h Distance 111 km</desc>
<time>2011-03-24T17:05:12.80</time>
<name>5322</name>
</trkpt>
<trkpt lat="49.255147" lon="8.882502">
<ele>238.5</ele>
<speed>31.7</speed>
<course>244.0</course>
<desc>Speed 31.7 km/h Distance 111 km</desc>
<time>2011-03-24T17:05:13.80</time>
<name>5323</name>
</trkpt>
<trkpt lat="49.255112" lon="8.882392">
<ele>237.0</ele>
<speed>32.9</speed>
<course>230.7</course>
<desc>Speed 32.9 km/h Distance 111 km</desc>
<time>2011-03-24T17:05:14.80</time>
<name>5324</name>
</trkpt>
<trkpt lat="49.255047" lon="8.882270">
<ele>237.0</ele>
<speed>41.5</speed>
<course>241.6</course>
<desc>Speed 41.5 km/h Distance 111 km</desc>
<time>2011-03-24T17:05:15.81</time>
<name>5325</name>
</trkpt>
<trkpt lat="49.254995" lon="8.882123">
<ele>236.5</ele>
<speed>16.6</speed>
<course>244.9</course>
<desc>Speed 16.6 km/h Distance 111 km</desc>
<time>2011-03-24T17:05:17.80</time>
<name>5326</name>
</trkpt>
<trkpt lat="49.254977" lon="8.882063">
<ele>235.0</ele>
<speed>17.6</speed>
<course>249.6</course>
<desc>Speed 17.6 km/h Distance 111 km</desc>
<time>2011-03-24T17:05:18.79</time>
<name>5327</name>
</trkpt>
<trkpt lat="49.254962" lon="8.882002">
<ele>233.5</ele>
<speed>17.8</speed>
<course>260.3</course>
<desc>Speed 17.8 km/h Distance 111 km</desc>
<time>2011-03-24T17:05:19.79</time>
<name>5328</name>
</trkpt>
<trkpt lat="49.254955" lon="8.881942">
<ele>232.5</ele>
<speed>17.0</speed>
<course>255.7</course>
<desc>Speed 17.0 km/h Distance 111 km</desc>
<time>2011-03-24T17:05:20.79</time>
<name>5329</name>
</trkpt>
<trkpt lat="49.254943" lon="8.881872">
<ele>232.0</ele>
<speed>20.5</speed>
<course>238.1</course>
<desc>Speed 20.5 km/h Distance 111 km</desc>
<time>2011-03-24T17:05:21.79</time>
<name>5330</name>
</trkpt>
<trkpt lat="49.254922" lon="8.881818">
<ele>228.5</ele>
<speed>21.2</speed>
<course>240.5</course>
<desc>Speed 21.2 km/h Distance 111 km</desc>
<time>2011-03-24T17:05:22.80</time>
<name>5331</name>
</trkpt>
<trkpt lat="49.254893" lon="8.881742">
<ele>227.0</ele>
<speed>23.9</speed>
<course>240.5</course>
<desc>Speed 23.9 km/h Distance 111 km</desc>
<time>2011-03-24T17:05:23.80</time>
<name>5332</name>
</trkpt>
<trkpt lat="49.254865" lon="8.881665">
<ele>226.5</ele>
<speed>23.9</speed>
<course>245.9</course>
<desc>Speed 23.9 km/h Distance 111 km</desc>
<time>2011-03-24T17:05:24.79</time>
<name>5333</name>
</trkpt>
<trkpt lat="49.254842" lon="8.881585">
<ele>226.5</ele>
<speed>23.3</speed>
<course>243.5</course>
<desc>Speed 23.3 km/h Distance 111 km</desc>
<time>2011-03-24T17:05:25.79</time>
<name>5334</name>
</trkpt>
<trkpt lat="49.254817" lon="8.881508">
<ele>226.5</ele>
<speed>22.6</speed>
<course>244.0</course>
<desc>Speed 22.6 km/h Distance 111 km</desc>
<time>2011-03-24T17:05:26.80</time>
<name>5335</name>
</trkpt>
<trkpt lat="49.254793" lon="8.881435">
<ele>226.0</ele>
<speed>21.6</speed>
<course>241.3</course>
<desc>Speed 21.6 km/h Distance 111 km</desc>
<time>2011-03-24T17:05:27.79</time>
<name>5336</name>
</trkpt>
<trkpt lat="49.254768" lon="8.881365">
<ele>225.0</ele>
<speed>21.1</speed>
<course>239.7</course>
<desc>Speed 21.1 km/h Distance 111 km</desc>
<time>2011-03-24T17:05:28.79</time>
<name>5337</name>
</trkpt>
<trkpt lat="49.254742" lon="8.881295">
<ele>225.0</ele>
<speed>20.9</speed>
<course>243.5</course>
<desc>Speed 20.9 km/h Distance 111 km</desc>
<time>2011-03-24T17:05:29.79</time>
<name>5338</name>
</trkpt>
<trkpt lat="49.254720" lon="8.881228">
<ele>224.0</ele>
<speed>19.9</speed>
<course>231.3</course>
<desc>Speed 19.9 km/h Distance 111 km</desc>
<time>2011-03-24T17:05:30.79</time>
<name>5339</name>
</trkpt>
<trkpt lat="49.254683" lon="8.881158">
<ele>223.0</ele>
<speed>22.6</speed>
<course>240.6</course>
<desc>Speed 22.6 km/h Distance 111 km</desc>
<time>2011-03-24T17:05:31.79</time>
<name>5340</name>
</trkpt>
<trkpt lat="49.254660" lon="8.881095">
<ele>223.0</ele>
<speed>22.6</speed>
<course>248.2</course>
<desc>Speed 22.6 km/h Distance 111 km</desc>
<time>2011-03-24T17:05:32.78</time>
<name>5341</name>
</trkpt>
<trkpt lat="49.254640" lon="8.881018">
<ele>223.0</ele>
<speed>21.3</speed>
<course>248.0</course>
<desc>Speed 21.3 km/h Distance 111 km</desc>
<time>2011-03-24T17:05:33.79</time>
<name>5342</name>
</trkpt>
<trkpt lat="49.254623" lon="8.880955">
<ele>221.0</ele>
<speed>18.4</speed>
<course>244.0</course>
<desc>Speed 18.4 km/h Distance 111 km</desc>
<time>2011-03-24T17:05:34.79</time>
<name>5343</name>
</trkpt>
<trkpt lat="49.254600" lon="8.880882">
<ele>220.5</ele>
<speed>21.7</speed>
<course>255.7</course>
<desc>Speed 21.7 km/h Distance 111 km</desc>
<time>2011-03-24T17:05:35.78</time>
<name>5344</name>
</trkpt>
<trkpt lat="49.254587" lon="8.880802">
<ele>219.5</ele>
<speed>22.9</speed>
<course>268.4</course>
<desc>Speed 22.9 km/h Distance 111 km</desc>
<time>2011-03-24T17:05:36.78</time>
<name>5345</name>
</trkpt>
<trkpt lat="49.254585" lon="8.880710">
<ele>218.5</ele>
<speed>25.1</speed>
<course>261.1</course>
<desc>Speed 25.1 km/h Distance 111 km</desc>
<time>2011-03-24T17:05:37.79</time>
<name>5346</name>
</trkpt>
<trkpt lat="49.254575" lon="8.880612">
<ele>217.5</ele>
<speed>26.2</speed>
<course>266.1</course>
<desc>Speed 26.2 km/h Distance 111 km</desc>
<time>2011-03-24T17:05:38.78</time>
<name>5347</name>
</trkpt>
<trkpt lat="49.254570" lon="8.880500">
<ele>217.0</ele>
<speed>28.9</speed>
<course>264.9</course>
<desc>Speed 28.9 km/h Distance 111 km</desc>
<time>2011-03-24T17:05:39.79</time>
<name>5348</name>
</trkpt>
<trkpt lat="49.254563" lon="8.880387">
<ele>217.0</ele>
<speed>29.5</speed>
<course>263.8</course>
<desc>Speed 29.5 km/h Distance 111 km</desc>
<time>2011-03-24T17:05:40.79</time>
<name>5349</name>
</trkpt>
<trkpt lat="49.254555" lon="8.880270">
<ele>217.0</ele>
<speed>30.7</speed>
<course>266.2</course>
<desc>Speed 30.7 km/h Distance 111 km</desc>
<time>2011-03-24T17:05:41.79</time>
<name>5350</name>
</trkpt>
<trkpt lat="49.254550" lon="8.880155">
<ele>217.5</ele>
<speed>30.1</speed>
<course>267.1</course>
<desc>Speed 30.1 km/h Distance 111 km</desc>
<time>2011-03-24T17:05:42.79</time>
<name>5351</name>
</trkpt>
<trkpt lat="49.254547" lon="8.880055">
<ele>217.0</ele>
<speed>26.4</speed>
<course>270.0</course>
<desc>Speed 26.4 km/h Distance 111 km</desc>
<time>2011-03-24T17:05:43.78</time>
<name>5352</name>
</trkpt>
<trkpt lat="49.254547" lon="8.879955">
<ele>217.0</ele>
<speed>26.1</speed>
<course>270.0</course>
<desc>Speed 26.1 km/h Distance 111 km</desc>
<time>2011-03-24T17:05:44.79</time>
<name>5353</name>
</trkpt>
<trkpt lat="49.254547" lon="8.879858">
<ele>217.0</ele>
<speed>25.4</speed>
<course>245.1</course>
<desc>Speed 25.4 km/h Distance 111 km</desc>
<time>2011-03-24T17:05:45.79</time>
<name>5354</name>
</trkpt>
<trkpt lat="49.254530" lon="8.879803">
<ele>216.5</ele>
<speed>16.8</speed>
<course>272.6</course>
<desc>Speed 16.8 km/h Distance 111 km</desc>
<time>2011-03-24T17:05:46.79</time>
<name>5355</name>
</trkpt>
<trkpt lat="49.254532" lon="8.879747">
<ele>216.0</ele>
<speed>15.8</speed>
<course>267.3</course>
<desc>Speed 15.8 km/h Distance 111 km</desc>
<time>2011-03-24T17:05:47.79</time>
<name>5356</name>
</trkpt>
<trkpt lat="49.254530" lon="8.879693">
<ele>216.0</ele>
<speed>13.6</speed>
<course>267.0</course>
<desc>Speed 13.6 km/h Distance 111 km</desc>
<time>2011-03-24T17:05:48.78</time>
<name>5357</name>
</trkpt>
<trkpt lat="49.254528" lon="8.879645">
<ele>215.5</ele>
<speed>13.1</speed>
<course>277.9</course>
<desc>Speed 13.1 km/h Distance 111 km</desc>
<time>2011-03-24T17:05:49.78</time>
<name>5358</name>
</trkpt>
<trkpt lat="49.254533" lon="8.879590">
<ele>215.5</ele>
<speed>14.7</speed>
<course>282.8</course>
<desc>Speed 14.7 km/h Distance 111 km</desc>
<time>2011-03-24T17:05:50.79</time>
<name>5359</name>
</trkpt>
<trkpt lat="49.254540" lon="8.879545">
<ele>215.5</ele>
<speed>14.7</speed>
<course>297.1</course>
<desc>Speed 14.7 km/h Distance 111 km</desc>
<time>2011-03-24T17:05:51.78</time>
<name>5360</name>
</trkpt>
<trkpt lat="49.254557" lon="8.879495">
<ele>214.5</ele>
<speed>14.7</speed>
<course>329.3</course>
<desc>Speed 14.7 km/h Distance 111 km</desc>
<time>2011-03-24T17:05:52.78</time>
<name>5361</name>
</trkpt>
<trkpt lat="49.254853" lon="8.879225">
<ele>216.5</ele>
<speed>47.4</speed>
<course>336.5</course>
<desc>Speed 47.4 km/h Distance 111 km</desc>
<time>2011-03-24T17:05:55.78</time>
<name>5362</name>
</trkpt>
<trkpt lat="49.254963" lon="8.879152">
<ele>216.5</ele>
<speed>45.8</speed>
<course>349.9</course>
<desc>Speed 45.8 km/h Distance 111 km</desc>
<time>2011-03-24T17:05:56.77</time>
<name>5363</name>
</trkpt>
<trkpt lat="49.255073" lon="8.879122">
<ele>216.5</ele>
<speed>43.5</speed>
<course>334.1</course>
<desc>Speed 43.5 km/h Distance 111 km</desc>
<time>2011-03-24T17:05:57.78</time>
<name>5364</name>
</trkpt>
<trkpt lat="49.255183" lon="8.879040">
<ele>216.0</ele>
<speed>48.7</speed>
<course>350.1</course>
<desc>Speed 48.7 km/h Distance 111 km</desc>
<time>2011-03-24T17:05:58.78</time>
<name>5365</name>
</trkpt>
<trkpt lat="49.255315" lon="8.879005">
<ele>216.0</ele>
<speed>53.5</speed>
<course>358.8</course>
<desc>Speed 53.5 km/h Distance 111 km</desc>
<time>2011-03-24T17:05:59.77</time>
<name>5366</name>
</trkpt>
<trkpt lat="49.255422" lon="8.879002">
<ele>216.0</ele>
<speed>42.6</speed>
<course>10.3</course>
<desc>Speed 42.6 km/h Distance 111 km</desc>
<time>2011-03-24T17:06:00.78</time>
<name>5367</name>
</trkpt>
<trkpt lat="49.255523" lon="8.879030">
<ele>216.0</ele>
<speed>42.0</speed>
<course>12.3</course>
<desc>Speed 42.0 km/h Distance 111 km</desc>
<time>2011-03-24T17:06:01.78</time>
<name>5368</name>
</trkpt>
<trkpt lat="49.255628" lon="8.879065">
<ele>216.0</ele>
<speed>42.8</speed>
<course>14.3</course>
<desc>Speed 42.8 km/h Distance 111 km</desc>
<time>2011-03-24T17:06:02.77</time>
<name>5369</name>
</trkpt>
<trkpt lat="49.255735" lon="8.879107">
<ele>216.0</ele>
<speed>44.7</speed>
<course>15.8</course>
<desc>Speed 44.7 km/h Distance 111 km</desc>
<time>2011-03-24T17:06:03.77</time>
<name>5370</name>
</trkpt>
<trkpt lat="49.255847" lon="8.879155">
<ele>216.0</ele>
<speed>46.7</speed>
<course>12.8</course>
<desc>Speed 46.7 km/h Distance 111 km</desc>
<time>2011-03-24T17:06:04.77</time>
<name>5371</name>
</trkpt>
<trkpt lat="49.255967" lon="8.879197">
<ele>217.0</ele>
<speed>50.6</speed>
<course>17.4</course>
<desc>Speed 50.6 km/h Distance 111 km</desc>
<time>2011-03-24T17:06:05.77</time>
<name>5372</name>
</trkpt>
<trkpt lat="49.256095" lon="8.879258">
<ele>217.0</ele>
<speed>54.8</speed>
<course>17.2</course>
<desc>Speed 54.8 km/h Distance 111 km</desc>
<time>2011-03-24T17:06:06.76</time>
<name>5373</name>
</trkpt>
<trkpt lat="49.256232" lon="8.879323">
<ele>216.5</ele>
<speed>58.2</speed>
<course>16.5</course>
<desc>Speed 58.2 km/h Distance 111 km</desc>
<time>2011-03-24T17:06:07.77</time>
<name>5374</name>
</trkpt>
<trkpt lat="49.256375" lon="8.879388">
<ele>216.5</ele>
<speed>60.0</speed>
<course>16.5</course>
<desc>Speed 60.0 km/h Distance 111 km</desc>
<time>2011-03-24T17:06:08.77</time>
<name>5375</name>
</trkpt>
<trkpt lat="49.256518" lon="8.879453">
<ele>216.5</ele>
<speed>60.0</speed>
<course>16.5</course>
<desc>Speed 60.0 km/h Distance 111 km</desc>
<time>2011-03-24T17:06:09.77</time>
<name>5376</name>
</trkpt>
<trkpt lat="49.256665" lon="8.879520">
<ele>216.5</ele>
<speed>60.3</speed>
<course>16.1</course>
<desc>Speed 60.3 km/h Distance 111 km</desc>
<time>2011-03-24T17:06:10.76</time>
<name>5377</name>
</trkpt>
<trkpt lat="49.256812" lon="8.879585">
<ele>216.5</ele>
<speed>59.8</speed>
<course>14.1</course>
<desc>Speed 59.8 km/h Distance 111 km</desc>
<time>2011-03-24T17:06:11.77</time>
<name>5378</name>
</trkpt>
<trkpt lat="49.256942" lon="8.879635">
<ele>216.5</ele>
<speed>53.1</speed>
<course>10.5</course>
<desc>Speed 53.1 km/h Distance 111 km</desc>
<time>2011-03-24T17:06:12.76</time>
<name>5379</name>
</trkpt>
<trkpt lat="49.257065" lon="8.879670">
<ele>216.0</ele>
<speed>49.7</speed>
<course>7.1</course>
<desc>Speed 49.7 km/h Distance 111 km</desc>
<time>2011-03-24T17:06:13.77</time>
<name>5380</name>
</trkpt>
<trkpt lat="49.257187" lon="8.879693">
<ele>216.0</ele>
<speed>49.5</speed>
<course>21.2</course>
<desc>Speed 49.5 km/h Distance 111 km</desc>
<time>2011-03-24T17:06:14.77</time>
<name>5381</name>
</trkpt>
<trkpt lat="49.257285" lon="8.879752">
<ele>216.0</ele>
<speed>39.9</speed>
<course>25.7</course>
<desc>Speed 39.9 km/h Distance 111 km</desc>
<time>2011-03-24T17:06:15.77</time>
<name>5382</name>
</trkpt>
<trkpt lat="49.257393" lon="8.879832">
<ele>215.5</ele>
<speed>47.7</speed>
<course>24.7</course>
<desc>Speed 47.7 km/h Distance 111 km</desc>
<time>2011-03-24T17:06:16.77</time>
<name>5383</name>
</trkpt>
<trkpt lat="49.257495" lon="8.879903">
<ele>216.0</ele>
<speed>44.2</speed>
<course>9.3</course>
<desc>Speed 44.2 km/h Distance 111 km</desc>
<time>2011-03-24T17:06:17.77</time>
<name>5384</name>
</trkpt>
<trkpt lat="49.257595" lon="8.879928">
<ele>215.0</ele>
<speed>43.4</speed>
<course>16.9</course>
<desc>Speed 43.4 km/h Distance 111 km</desc>
<time>2011-03-24T17:06:18.77</time>
<name>5385</name>
</trkpt>
<trkpt lat="49.257692" lon="8.879973">
<ele>214.5</ele>
<speed>42.3</speed>
<course>41.2</course>
<desc>Speed 42.3 km/h Distance 111 km</desc>
<time>2011-03-24T17:06:19.77</time>
<name>5386</name>
</trkpt>
<trkpt lat="49.257780" lon="8.880092">
<ele>214.5</ele>
<speed>47.3</speed>
<course>38.0</course>
<desc>Speed 47.3 km/h Distance 111 km</desc>
<time>2011-03-24T17:06:20.77</time>
<name>5387</name>
</trkpt>
<trkpt lat="49.257898" lon="8.880233">
<ele>214.5</ele>
<speed>60.8</speed>
<course>40.0</course>
<desc>Speed 60.8 km/h Distance 111 km</desc>
<time>2011-03-24T17:06:21.77</time>
<name>5388</name>
</trkpt>
<trkpt lat="49.258033" lon="8.880407">
<ele>214.5</ele>
<speed>70.5</speed>
<course>43.9</course>
<desc>Speed 70.5 km/h Distance 111 km</desc>
<time>2011-03-24T17:06:22.76</time>
<name>5389</name>
</trkpt>
<trkpt lat="49.258157" lon="8.880588">
<ele>214.0</ele>
<speed>68.1</speed>
<course>44.0</course>
<desc>Speed 68.1 km/h Distance 111 km</desc>
<time>2011-03-24T17:06:23.77</time>
<name>5390</name>
</trkpt>
<trkpt lat="49.258282" lon="8.880773">
<ele>214.0</ele>
<speed>69.3</speed>
<course>44.8</course>
<desc>Speed 69.3 km/h Distance 111 km</desc>
<time>2011-03-24T17:06:24.76</time>
<name>5391</name>
</trkpt>
<trkpt lat="49.258390" lon="8.880938">
<ele>214.0</ele>
<speed>60.4</speed>
<course>32.8</course>
<desc>Speed 60.4 km/h Distance 112 km</desc>
<time>2011-03-24T17:06:25.77</time>
<name>5392</name>
</trkpt>
<trkpt lat="49.258522" lon="8.881068">
<ele>214.0</ele>
<speed>63.3</speed>
<course>24.3</course>
<desc>Speed 63.3 km/h Distance 112 km</desc>
<time>2011-03-24T17:06:26.76</time>
<name>5393</name>
</trkpt>
<trkpt lat="49.258668" lon="8.881170">
<ele>213.5</ele>
<speed>62.8</speed>
<course>14.2</course>
<desc>Speed 62.8 km/h Distance 112 km</desc>
<time>2011-03-24T17:06:27.76</time>
<name>5394</name>
</trkpt>
<trkpt lat="49.258832" lon="8.881233">
<ele>213.5</ele>
<speed>66.1</speed>
<course>10.2</course>
<desc>Speed 66.1 km/h Distance 112 km</desc>
<time>2011-03-24T17:06:28.76</time>
<name>5395</name>
</trkpt>
<trkpt lat="49.258983" lon="8.881275">
<ele>213.5</ele>
<speed>66.1</speed>
<course>6.3</course>
<desc>Speed 66.1 km/h Distance 112 km</desc>
<time>2011-03-24T17:06:29.76</time>
<name>5396</name>
</trkpt>
<trkpt lat="49.259252" lon="8.881320">
<ele>212.5</ele>
<speed>57.2</speed>
<course>354.4</course>
<desc>Speed 57.2 km/h Distance 112 km</desc>
<time>2011-03-24T17:06:31.76</time>
<name>5397</name>
</trkpt>
<trkpt lat="49.259677" lon="8.881257">
<ele>215.5</ele>
<speed>71.6</speed>
<course>358.2</course>
<desc>Speed 71.6 km/h Distance 112 km</desc>
<time>2011-03-24T17:06:33.76</time>
<name>5398</name>
</trkpt>
<trkpt lat="49.259882" lon="8.881247">
<ele>217.5</ele>
<speed>71.8</speed>
<course>6.8</course>
<desc>Speed 71.8 km/h Distance 112 km</desc>
<time>2011-03-24T17:06:34.76</time>
<name>5399</name>
</trkpt>
<trkpt lat="49.260082" lon="8.881283">
<ele>219.0</ele>
<speed>73.8</speed>
<course>10.2</course>
<desc>Speed 73.8 km/h Distance 112 km</desc>
<time>2011-03-24T17:06:35.76</time>
<name>5400</name>
</trkpt>
<trkpt lat="49.260263" lon="8.881333">
<ele>220.5</ele>
<speed>68.6</speed>
<course>12.1</course>
<desc>Speed 68.6 km/h Distance 112 km</desc>
<time>2011-03-24T17:06:36.75</time>
<name>5401</name>
</trkpt>
<trkpt lat="49.260442" lon="8.881392">
<ele>222.5</ele>
<speed>69.9</speed>
<course>19.3</course>
<desc>Speed 69.9 km/h Distance 112 km</desc>
<time>2011-03-24T17:06:37.75</time>
<name>5402</name>
</trkpt>
<trkpt lat="49.260618" lon="8.881487">
<ele>223.5</ele>
<speed>75.0</speed>
<course>20.5</course>
<desc>Speed 75.0 km/h Distance 112 km</desc>
<time>2011-03-24T17:06:38.75</time>
<name>5403</name>
</trkpt>
<trkpt lat="49.261038" lon="8.881727">
<ele>225.0</ele>
<speed>88.1</speed>
<course>22.0</course>
<desc>Speed 88.1 km/h Distance 112 km</desc>
<time>2011-03-24T17:06:40.75</time>
<name>5404</name>
</trkpt>
<trkpt lat="49.261235" lon="8.881848">
<ele>226.5</ele>
<speed>84.1</speed>
<course>23.0</course>
<desc>Speed 84.1 km/h Distance 112 km</desc>
<time>2011-03-24T17:06:41.74</time>
<name>5405</name>
</trkpt>
<trkpt lat="49.261430" lon="8.881975">
<ele>227.0</ele>
<speed>84.9</speed>
<course>24.6</course>
<desc>Speed 84.9 km/h Distance 112 km</desc>
<time>2011-03-24T17:06:42.75</time>
<name>5406</name>
</trkpt>
<trkpt lat="49.261887" lon="8.882295">
<ele>228.0</ele>
<speed>101</speed>
<course>24.7</course>
<desc>Speed 101 km/h Distance 112 km</desc>
<time>2011-03-24T17:06:44.75</time>
<name>5407</name>
</trkpt>
<trkpt lat="49.262102" lon="8.882447">
<ele>230.0</ele>
<speed>94.6</speed>
<course>25.5</course>
<desc>Speed 94.6 km/h Distance 112 km</desc>
<time>2011-03-24T17:06:45.75</time>
<name>5408</name>
</trkpt>
<trkpt lat="49.262293" lon="8.882587">
<ele>230.5</ele>
<speed>84.7</speed>
<course>30.2</course>
<desc>Speed 84.7 km/h Distance 112 km</desc>
<time>2011-03-24T17:06:46.75</time>
<name>5409</name>
</trkpt>
<trkpt lat="49.262463" lon="8.882738">
<ele>231.0</ele>
<speed>78.9</speed>
<course>34.8</course>
<desc>Speed 78.9 km/h Distance 112 km</desc>
<time>2011-03-24T17:06:47.75</time>
<name>5410</name>
</trkpt>
<trkpt lat="49.262622" lon="8.882907">
<ele>231.0</ele>
<speed>77.1</speed>
<course>40.5</course>
<desc>Speed 77.1 km/h Distance 112 km</desc>
<time>2011-03-24T17:06:48.75</time>
<name>5411</name>
</trkpt>
<trkpt lat="49.262773" lon="8.883105">
<ele>231.0</ele>
<speed>80.3</speed>
<course>52.7</course>
<desc>Speed 80.3 km/h Distance 112 km</desc>
<time>2011-03-24T17:06:49.75</time>
<name>5412</name>
</trkpt>
<trkpt lat="49.262902" lon="8.883363">
<ele>231.5</ele>
<speed>85.5</speed>
<course>60.3</course>
<desc>Speed 85.5 km/h Distance 112 km</desc>
<time>2011-03-24T17:06:50.75</time>
<name>5413</name>
</trkpt>
<trkpt lat="49.263007" lon="8.883645">
<ele>231.5</ele>
<speed>86.1</speed>
<course>62.0</course>
<desc>Speed 86.1 km/h Distance 112 km</desc>
<time>2011-03-24T17:06:51.75</time>
<name>5414</name>
</trkpt>
<trkpt lat="49.263200" lon="8.884203">
<ele>232.0</ele>
<speed>98.7</speed>
<course>61.5</course>
<desc>Speed 98.7 km/h Distance 112 km</desc>
<time>2011-03-24T17:06:53.75</time>
<name>5415</name>
</trkpt>
<trkpt lat="49.263330" lon="8.884570">
<ele>232.0</ele>
<speed>108</speed>
<course>58.3</course>
<desc>Speed 108 km/h Distance 112 km</desc>
<time>2011-03-24T17:06:54.75</time>
<name>5416</name>
</trkpt>
<trkpt lat="49.263475" lon="8.884930">
<ele>233.5</ele>
<speed>109</speed>
<course>53.7</course>
<desc>Speed 109 km/h Distance 112 km</desc>
<time>2011-03-24T17:06:55.76</time>
<name>5417</name>
</trkpt>
<trkpt lat="49.263828" lon="8.885668">
<ele>235.0</ele>
<speed>116</speed>
<course>48.8</course>
<desc>Speed 116 km/h Distance 112 km</desc>
<time>2011-03-24T17:06:57.75</time>
<name>5418</name>
</trkpt>
<trkpt lat="49.264033" lon="8.886027">
<ele>235.5</ele>
<speed>122</speed>
<course>45.1</course>
<desc>Speed 122 km/h Distance 112 km</desc>
<time>2011-03-24T17:06:58.75</time>
<name>5419</name>
</trkpt>
<trkpt lat="49.264253" lon="8.886365">
<ele>235.0</ele>
<speed>119</speed>
<course>44.2</course>
<desc>Speed 119 km/h Distance 112 km</desc>
<time>2011-03-24T17:06:59.75</time>
<name>5420</name>
</trkpt>
<trkpt lat="49.264477" lon="8.886698">
<ele>236.0</ele>
<speed>124</speed>
<course>36.9</course>
<desc>Speed 124 km/h Distance 112 km</desc>
<time>2011-03-24T17:07:00.75</time>
<name>5421</name>
</trkpt>
<trkpt lat="49.264743" lon="8.887005">
<ele>237.0</ele>
<speed>129</speed>
<course>35.1</course>
<desc>Speed 129 km/h Distance 112 km</desc>
<time>2011-03-24T17:07:01.75</time>
<name>5422</name>
</trkpt>
<trkpt lat="49.265007" lon="8.887288">
<ele>237.0</ele>
<speed>129</speed>
<course>32.6</course>
<desc>Speed 129 km/h Distance 112 km</desc>
<time>2011-03-24T17:07:02.75</time>
<name>5423</name>
</trkpt>
<trkpt lat="49.265282" lon="8.887558">
<ele>237.0</ele>
<speed>130</speed>
<course>31.4</course>
<desc>Speed 130 km/h Distance 112 km</desc>
<time>2011-03-24T17:07:03.75</time>
<name>5424</name>
</trkpt>
<trkpt lat="49.265563" lon="8.887822">
<ele>239.0</ele>
<speed>131</speed>
<course>30.6</course>
<desc>Speed 131 km/h Distance 112 km</desc>
<time>2011-03-24T17:07:04.74</time>
<name>5425</name>
</trkpt>
<trkpt lat="49.265847" lon="8.888078">
<ele>240.0</ele>
<speed>131</speed>
<course>30.3</course>
<desc>Speed 131 km/h Distance 113 km</desc>
<time>2011-03-24T17:07:05.74</time>
<name>5426</name>
</trkpt>
<trkpt lat="49.266135" lon="8.888337">
<ele>242.0</ele>
<speed>132</speed>
<course>31.8</course>
<desc>Speed 132 km/h Distance 113 km</desc>
<time>2011-03-24T17:07:06.75</time>
<name>5427</name>
</trkpt>
<trkpt lat="49.266433" lon="8.888620">
<ele>242.0</ele>
<speed>142</speed>
<course>31.4</course>
<desc>Speed 142 km/h Distance 113 km</desc>
<time>2011-03-24T17:07:07.74</time>
<name>5428</name>
</trkpt>
<trkpt lat="49.266722" lon="8.888890">
<ele>244.5</ele>
<speed>132</speed>
<course>37.8</course>
<desc>Speed 132 km/h Distance 113 km</desc>
<time>2011-03-24T17:07:08.75</time>
<name>5429</name>
</trkpt>
<trkpt lat="49.266987" lon="8.889205">
<ele>245.0</ele>
<speed>133</speed>
<course>38.8</course>
<desc>Speed 133 km/h Distance 113 km</desc>
<time>2011-03-24T17:07:09.74</time>
<name>5430</name>
</trkpt>
<trkpt lat="49.267243" lon="8.889522">
<ele>247.5</ele>
<speed>132</speed>
<course>42.4</course>
<desc>Speed 132 km/h Distance 113 km</desc>
<time>2011-03-24T17:07:10.74</time>
<name>5431</name>
</trkpt>
<trkpt lat="49.267480" lon="8.889853">
<ele>248.5</ele>
<speed>130</speed>
<course>40.4</course>
<desc>Speed 130 km/h Distance 113 km</desc>
<time>2011-03-24T17:07:11.74</time>
<name>5432</name>
</trkpt>
<trkpt lat="49.267710" lon="8.890153">
<ele>248.0</ele>
<speed>119</speed>
<course>53.3</course>
<desc>Speed 119 km/h Distance 113 km</desc>
<time>2011-03-24T17:07:12.73</time>
<name>5433</name>
</trkpt>
<trkpt lat="49.268117" lon="8.890990">
<ele>250.5</ele>
<speed>133</speed>
<course>54.5</course>
<desc>Speed 133 km/h Distance 113 km</desc>
<time>2011-03-24T17:07:14.74</time>
<name>5434</name>
</trkpt>
<trkpt lat="49.268305" lon="8.891395">
<ele>251.5</ele>
<speed>130</speed>
<course>55.8</course>
<desc>Speed 130 km/h Distance 113 km</desc>
<time>2011-03-24T17:07:15.73</time>
<name>5435</name>
</trkpt>
<trkpt lat="49.268477" lon="8.891782">
<ele>253.5</ele>
<speed>120</speed>
<course>53.4</course>
<desc>Speed 120 km/h Distance 113 km</desc>
<time>2011-03-24T17:07:16.74</time>
<name>5436</name>
</trkpt>
<trkpt lat="49.268655" lon="8.892150">
<ele>256.0</ele>
<speed>123</speed>
<course>53.5</course>
<desc>Speed 123 km/h Distance 113 km</desc>
<time>2011-03-24T17:07:17.73</time>
<name>5437</name>
</trkpt>
<trkpt lat="49.268835" lon="8.892523">
<ele>257.5</ele>
<speed>120</speed>
<course>52.0</course>
<desc>Speed 120 km/h Distance 113 km</desc>
<time>2011-03-24T17:07:18.73</time>
<name>5438</name>
</trkpt>
<trkpt lat="49.269013" lon="8.892873">
<ele>259.0</ele>
<speed>115</speed>
<course>49.5</course>
<desc>Speed 115 km/h Distance 113 km</desc>
<time>2011-03-24T17:07:19.74</time>
<name>5439</name>
</trkpt>
<trkpt lat="49.269192" lon="8.893193">
<ele>262.0</ele>
<speed>112</speed>
<course>44.7</course>
<desc>Speed 112 km/h Distance 113 km</desc>
<time>2011-03-24T17:07:20.73</time>
<name>5440</name>
</trkpt>
<trkpt lat="49.269392" lon="8.893497">
<ele>264.0</ele>
<speed>109</speed>
<course>40.6</course>
<desc>Speed 109 km/h Distance 113 km</desc>
<time>2011-03-24T17:07:21.73</time>
<name>5441</name>
</trkpt>
<trkpt lat="49.269605" lon="8.893777">
<ele>266.5</ele>
<speed>109</speed>
<course>42.5</course>
<desc>Speed 109 km/h Distance 113 km</desc>
<time>2011-03-24T17:07:22.73</time>
<name>5442</name>
</trkpt>
<trkpt lat="49.269795" lon="8.894043">
<ele>267.5</ele>
<speed>102</speed>
<course>40.2</course>
<desc>Speed 102 km/h Distance 113 km</desc>
<time>2011-03-24T17:07:23.73</time>
<name>5443</name>
</trkpt>
<trkpt lat="49.269987" lon="8.894292">
<ele>269.0</ele>
<speed>99.4</speed>
<course>36.0</course>
<desc>Speed 99.4 km/h Distance 113 km</desc>
<time>2011-03-24T17:07:24.73</time>
<name>5444</name>
</trkpt>
<trkpt lat="49.270177" lon="8.894503">
<ele>272.0</ele>
<speed>97.0</speed>
<course>36.4</course>
<desc>Speed 97.0 km/h Distance 113 km</desc>
<time>2011-03-24T17:07:25.72</time>
<name>5445</name>
</trkpt>
<trkpt lat="49.270368" lon="8.894720">
<ele>273.0</ele>
<speed>95.1</speed>
<course>37.8</course>
<desc>Speed 95.1 km/h Distance 113 km</desc>
<time>2011-03-24T17:07:26.73</time>
<name>5446</name>
</trkpt>
<trkpt lat="49.270537" lon="8.894920">
<ele>274.0</ele>
<speed>87.7</speed>
<course>36.6</course>
<desc>Speed 87.7 km/h Distance 113 km</desc>
<time>2011-03-24T17:07:27.72</time>
<name>5447</name>
</trkpt>
<trkpt lat="49.270718" lon="8.895127">
<ele>276.0</ele>
<speed>91.5</speed>
<course>38.5</course>
<desc>Speed 91.5 km/h Distance 113 km</desc>
<time>2011-03-24T17:07:28.73</time>
<name>5448</name>
</trkpt>
<trkpt lat="49.270895" lon="8.895342">
<ele>276.5</ele>
<speed>91.3</speed>
<course>40.9</course>
<desc>Speed 91.3 km/h Distance 113 km</desc>
<time>2011-03-24T17:07:29.73</time>
<name>5449</name>
</trkpt>
<trkpt lat="49.271068" lon="8.895572">
<ele>277.5</ele>
<speed>91.8</speed>
<course>42.8</course>
<desc>Speed 91.8 km/h Distance 113 km</desc>
<time>2011-03-24T17:07:30.73</time>
<name>5450</name>
</trkpt>
<trkpt lat="49.271238" lon="8.895813">
<ele>278.5</ele>
<speed>92.4</speed>
<course>43.7</course>
<desc>Speed 92.4 km/h Distance 113 km</desc>
<time>2011-03-24T17:07:31.72</time>
<name>5451</name>
</trkpt>
<trkpt lat="49.271407" lon="8.896060">
<ele>279.5</ele>
<speed>92.4</speed>
<course>44.0</course>
<desc>Speed 92.4 km/h Distance 113 km</desc>
<time>2011-03-24T17:07:32.72</time>
<name>5452</name>
</trkpt>
<trkpt lat="49.271573" lon="8.896307">
<ele>280.5</ele>
<speed>92.3</speed>
<course>44.8</course>
<desc>Speed 92.3 km/h Distance 113 km</desc>
<time>2011-03-24T17:07:33.72</time>
<name>5453</name>
</trkpt>
<trkpt lat="49.271737" lon="8.896555">
<ele>281.5</ele>
<speed>92.0</speed>
<course>45.8</course>
<desc>Speed 92.0 km/h Distance 113 km</desc>
<time>2011-03-24T17:07:34.72</time>
<name>5454</name>
</trkpt>
<trkpt lat="49.271898" lon="8.896810">
<ele>283.0</ele>
<speed>92.3</speed>
<course>46.6</course>
<desc>Speed 92.3 km/h Distance 113 km</desc>
<time>2011-03-24T17:07:35.72</time>
<name>5455</name>
</trkpt>
<trkpt lat="49.272060" lon="8.897072">
<ele>284.0</ele>
<speed>93.6</speed>
<course>46.6</course>
<desc>Speed 93.6 km/h Distance 113 km</desc>
<time>2011-03-24T17:07:36.72</time>
<name>5456</name>
</trkpt>
<trkpt lat="49.272223" lon="8.897337">
<ele>284.5</ele>
<speed>95.0</speed>
<course>46.3</course>
<desc>Speed 95.0 km/h Distance 114 km</desc>
<time>2011-03-24T17:07:37.72</time>
<name>5457</name>
</trkpt>
<trkpt lat="49.272392" lon="8.897607">
<ele>285.0</ele>
<speed>96.8</speed>
<course>46.3</course>
<desc>Speed 96.8 km/h Distance 114 km</desc>
<time>2011-03-24T17:07:38.73</time>
<name>5458</name>
</trkpt>
<trkpt lat="49.272560" lon="8.897877">
<ele>285.5</ele>
<speed>97.2</speed>
<course>45.9</course>
<desc>Speed 97.2 km/h Distance 114 km</desc>
<time>2011-03-24T17:07:39.72</time>
<name>5459</name>
</trkpt>
<trkpt lat="49.272728" lon="8.898143">
<ele>286.5</ele>
<speed>96.0</speed>
<course>45.5</course>
<desc>Speed 96.0 km/h Distance 114 km</desc>
<time>2011-03-24T17:07:40.72</time>
<name>5460</name>
</trkpt>
<trkpt lat="49.272895" lon="8.898403">
<ele>287.0</ele>
<speed>94.5</speed>
<course>45.6</course>
<desc>Speed 94.5 km/h Distance 114 km</desc>
<time>2011-03-24T17:07:41.72</time>
<name>5461</name>
</trkpt>
<trkpt lat="49.273060" lon="8.898662">
<ele>287.0</ele>
<speed>93.1</speed>
<course>47.7</course>
<desc>Speed 93.1 km/h Distance 114 km</desc>
<time>2011-03-24T17:07:42.72</time>
<name>5462</name>
</trkpt>
<trkpt lat="49.273218" lon="8.898928">
<ele>287.0</ele>
<speed>94.3</speed>
<course>50.6</course>
<desc>Speed 94.3 km/h Distance 114 km</desc>
<time>2011-03-24T17:07:43.71</time>
<name>5463</name>
</trkpt>
<trkpt lat="49.273377" lon="8.899223">
<ele>287.0</ele>
<speed>100.0</speed>
<course>51.3</course>
<desc>Speed 100.0 km/h Distance 114 km</desc>
<time>2011-03-24T17:07:44.72</time>
<name>5464</name>
</trkpt>
<trkpt lat="49.273545" lon="8.899545">
<ele>287.5</ele>
<speed>107</speed>
<course>57.9</course>
<desc>Speed 107 km/h Distance 114 km</desc>
<time>2011-03-24T17:07:45.72</time>
<name>5465</name>
</trkpt>
<trkpt lat="49.273687" lon="8.899892">
<ele>287.5</ele>
<speed>107</speed>
<course>65.5</course>
<desc>Speed 107 km/h Distance 114 km</desc>
<time>2011-03-24T17:07:46.72</time>
<name>5466</name>
</trkpt>
<trkpt lat="49.273902" lon="8.900613">
<ele>286.5</ele>
<speed>117</speed>
<course>69.6</course>
<desc>Speed 117 km/h Distance 114 km</desc>
<time>2011-03-24T17:07:48.72</time>
<name>5467</name>
</trkpt>
<trkpt lat="49.274012" lon="8.901067">
<ele>289.0</ele>
<speed>122</speed>
<course>75.4</course>
<desc>Speed 122 km/h Distance 114 km</desc>
<time>2011-03-24T17:07:49.72</time>
<name>5468</name>
</trkpt>
<trkpt lat="49.274082" lon="8.901480">
<ele>289.5</ele>
<speed>111</speed>
<course>80.5</course>
<desc>Speed 111 km/h Distance 114 km</desc>
<time>2011-03-24T17:07:50.72</time>
<name>5469</name>
</trkpt>
<trkpt lat="49.274125" lon="8.901875">
<ele>289.5</ele>
<speed>104</speed>
<course>81.4</course>
<desc>Speed 104 km/h Distance 114 km</desc>
<time>2011-03-24T17:07:51.72</time>
<name>5470</name>
</trkpt>
<trkpt lat="49.274185" lon="8.902480">
<ele>289.5</ele>
<speed>104</speed>
<course>85.3</course>
<desc>Speed 104 km/h Distance 114 km</desc>
<time>2011-03-24T17:07:53.72</time>
<name>5471</name>
</trkpt>
<trkpt lat="49.274238" lon="8.903467">
<ele>287.5</ele>
<speed>104</speed>
<course>73.1</course>
<desc>Speed 104 km/h Distance 114 km</desc>
<time>2011-03-24T17:07:57.70</time>
<name>5472</name>
</trkpt>
<trkpt lat="49.274352" lon="8.904040">
<ele>290.0</ele>
<speed>104</speed>
<course>53.0</course>
<desc>Speed 104 km/h Distance 114 km</desc>
<time>2011-03-24T17:08:02.71</time>
<name>5473</name>
</trkpt>
<trkpt lat="49.275508" lon="8.906395">
<ele>289.0</ele>
<speed>86.7</speed>
<course>36.5</course>
<desc>Speed 86.7 km/h Distance 114 km</desc>
<time>2011-03-24T17:08:07.70</time>
<name>5474</name>
</trkpt>
<trkpt lat="49.276187" lon="8.907163">
<ele>285.5</ele>
<speed>82.0</speed>
<course>39.1</course>
<desc>Speed 82.0 km/h Distance 114 km</desc>
<time>2011-03-24T17:08:10.70</time>
<name>5475</name>
</trkpt>
<trkpt lat="49.276343" lon="8.907358">
<ele>284.5</ele>
<speed>80.7</speed>
<course>39.2</course>
<desc>Speed 80.7 km/h Distance 114 km</desc>
<time>2011-03-24T17:08:11.70</time>
<name>5476</name>
</trkpt>
<trkpt lat="49.276523" lon="8.907583">
<ele>283.5</ele>
<speed>79.8</speed>
<course>37.1</course>
<desc>Speed 79.8 km/h Distance 114 km</desc>
<time>2011-03-24T17:08:12.69</time>
<name>5477</name>
</trkpt>
<trkpt lat="49.276703" lon="8.907792">
<ele>283.0</ele>
<speed>81.4</speed>
<course>37.2</course>
<desc>Speed 81.4 km/h Distance 114 km</desc>
<time>2011-03-24T17:08:13.69</time>
<name>5478</name>
</trkpt>
<trkpt lat="49.276875" lon="8.907992">
<ele>282.0</ele>
<speed>80.2</speed>
<course>35.3</course>
<desc>Speed 80.2 km/h Distance 114 km</desc>
<time>2011-03-24T17:08:14.69</time>
<name>5479</name>
</trkpt>
<trkpt lat="49.277052" lon="8.908183">
<ele>281.0</ele>
<speed>84.1</speed>
<course>34.6</course>
<desc>Speed 84.1 km/h Distance 115 km</desc>
<time>2011-03-24T17:08:15.69</time>
<name>5480</name>
</trkpt>
<trkpt lat="49.277230" lon="8.908372">
<ele>280.5</ele>
<speed>84.5</speed>
<course>34.4</course>
<desc>Speed 84.5 km/h Distance 115 km</desc>
<time>2011-03-24T17:08:16.69</time>
<name>5481</name>
</trkpt>
<trkpt lat="49.277402" lon="8.908552">
<ele>280.0</ele>
<speed>83.1</speed>
<course>32.9</course>
<desc>Speed 83.1 km/h Distance 115 km</desc>
<time>2011-03-24T17:08:17.70</time>
<name>5482</name>
</trkpt>
<trkpt lat="49.277577" lon="8.908725">
<ele>279.5</ele>
<speed>82.0</speed>
<course>31.5</course>
<desc>Speed 82.0 km/h Distance 115 km</desc>
<time>2011-03-24T17:08:18.69</time>
<name>5483</name>
</trkpt>
<trkpt lat="49.277747" lon="8.908885">
<ele>279.5</ele>
<speed>79.0</speed>
<course>23.3</course>
<desc>Speed 79.0 km/h Distance 115 km</desc>
<time>2011-03-24T17:08:19.69</time>
<name>5484</name>
</trkpt>
<trkpt lat="49.277957" lon="8.909023">
<ele>279.0</ele>
<speed>90.6</speed>
<course>25.8</course>
<desc>Speed 90.6 km/h Distance 115 km</desc>
<time>2011-03-24T17:08:20.69</time>
<name>5485</name>
</trkpt>
<trkpt lat="49.278137" lon="8.909157">
<ele>279.0</ele>
<speed>80.8</speed>
<course>24.1</course>
<desc>Speed 80.8 km/h Distance 115 km</desc>
<time>2011-03-24T17:08:21.69</time>
<name>5486</name>
</trkpt>
<trkpt lat="49.278322" lon="8.909283">
<ele>278.5</ele>
<speed>81.2</speed>
<course>21.4</course>
<desc>Speed 81.2 km/h Distance 115 km</desc>
<time>2011-03-24T17:08:22.68</time>
<name>5487</name>
</trkpt>
<trkpt lat="49.278513" lon="8.909398">
<ele>278.0</ele>
<speed>81.6</speed>
<course>20.6</course>
<desc>Speed 81.6 km/h Distance 115 km</desc>
<time>2011-03-24T17:08:23.69</time>
<name>5488</name>
</trkpt>
<trkpt lat="49.278702" lon="8.909507">
<ele>277.5</ele>
<speed>79.9</speed>
<course>22.7</course>
<desc>Speed 79.9 km/h Distance 115 km</desc>
<time>2011-03-24T17:08:24.68</time>
<name>5489</name>
</trkpt>
<trkpt lat="49.278868" lon="8.909613">
<ele>277.5</ele>
<speed>73.0</speed>
<course>22.1</course>
<desc>Speed 73.0 km/h Distance 115 km</desc>
<time>2011-03-24T17:08:25.69</time>
<name>5490</name>
</trkpt>
<trkpt lat="49.279005" lon="8.909698">
<ele>277.5</ele>
<speed>73.0</speed>
<course>16.3</course>
<desc>Speed 73.0 km/h Distance 115 km</desc>
<time>2011-03-24T17:08:26.69</time>
<name>5491</name>
</trkpt>
<trkpt lat="49.279187" lon="8.909780">
<ele>277.0</ele>
<speed>73.8</speed>
<course>11.9</course>
<desc>Speed 73.8 km/h Distance 115 km</desc>
<time>2011-03-24T17:08:27.69</time>
<name>5492</name>
</trkpt>
<trkpt lat="49.279622" lon="8.909920">
<ele>276.5</ele>
<speed>89.9</speed>
<course>10.3</course>
<desc>Speed 89.9 km/h Distance 115 km</desc>
<time>2011-03-24T17:08:29.68</time>
<name>5493</name>
</trkpt>
<trkpt lat="49.279837" lon="8.909980">
<ele>277.0</ele>
<speed>83.4</speed>
<course>9.6</course>
<desc>Speed 83.4 km/h Distance 115 km</desc>
<time>2011-03-24T17:08:30.68</time>
<name>5494</name>
</trkpt>
<trkpt lat="49.280062" lon="8.910038">
<ele>276.5</ele>
<speed>85.3</speed>
<course>9.7</course>
<desc>Speed 85.3 km/h Distance 115 km</desc>
<time>2011-03-24T17:08:31.68</time>
<name>5495</name>
</trkpt>
<trkpt lat="49.280285" lon="8.910097">
<ele>276.0</ele>
<speed>85.8</speed>
<course>9.6</course>
<desc>Speed 85.8 km/h Distance 115 km</desc>
<time>2011-03-24T17:08:32.68</time>
<name>5496</name>
</trkpt>
<trkpt lat="49.280510" lon="8.910155">
<ele>275.5</ele>
<speed>85.0</speed>
<course>9.3</course>
<desc>Speed 85.0 km/h Distance 115 km</desc>
<time>2011-03-24T17:08:33.69</time>
<name>5497</name>
</trkpt>
<trkpt lat="49.280723" lon="8.910208">
<ele>275.0</ele>
<speed>81.4</speed>
<course>11.0</course>
<desc>Speed 81.4 km/h Distance 115 km</desc>
<time>2011-03-24T17:08:34.68</time>
<name>5498</name>
</trkpt>
<trkpt lat="49.280935" lon="8.910272">
<ele>275.0</ele>
<speed>81.4</speed>
<course>9.9</course>
<desc>Speed 81.4 km/h Distance 115 km</desc>
<time>2011-03-24T17:08:35.68</time>
<name>5499</name>
</trkpt>
<trkpt lat="49.281158" lon="8.910332">
<ele>274.5</ele>
<speed>82.4</speed>
<course>12.4</course>
<desc>Speed 82.4 km/h Distance 115 km</desc>
<time>2011-03-24T17:08:36.68</time>
<name>5500</name>
</trkpt>
<trkpt lat="49.281367" lon="8.910402">
<ele>274.5</ele>
<speed>82.5</speed>
<course>13.3</course>
<desc>Speed 82.5 km/h Distance 115 km</desc>
<time>2011-03-24T17:08:37.69</time>
<name>5501</name>
</trkpt>
<trkpt lat="49.281573" lon="8.910477">
<ele>273.0</ele>
<speed>82.5</speed>
<course>14.0</course>
<desc>Speed 82.5 km/h Distance 115 km</desc>
<time>2011-03-24T17:08:38.68</time>
<name>5502</name>
</trkpt>
<trkpt lat="49.281783" lon="8.910557">
<ele>272.0</ele>
<speed>83.4</speed>
<course>15.7</course>
<desc>Speed 83.4 km/h Distance 115 km</desc>
<time>2011-03-24T17:08:39.69</time>
<name>5503</name>
</trkpt>
<trkpt lat="49.281988" lon="8.910645">
<ele>271.0</ele>
<speed>84.6</speed>
<course>16.4</course>
<desc>Speed 84.6 km/h Distance 115 km</desc>
<time>2011-03-24T17:08:40.68</time>
<name>5504</name>
</trkpt>
<trkpt lat="49.282195" lon="8.910738">
<ele>270.0</ele>
<speed>85.5</speed>
<course>17.0</course>
<desc>Speed 85.5 km/h Distance 115 km</desc>
<time>2011-03-24T17:08:41.68</time>
<name>5505</name>
</trkpt>
<trkpt lat="49.282405" lon="8.910837">
<ele>269.0</ele>
<speed>87.3</speed>
<course>17.1</course>
<desc>Speed 87.3 km/h Distance 115 km</desc>
<time>2011-03-24T17:08:42.68</time>
<name>5506</name>
</trkpt>
<trkpt lat="49.282617" lon="8.910937">
<ele>268.0</ele>
<speed>88.8</speed>
<course>17.9</course>
<desc>Speed 88.8 km/h Distance 115 km</desc>
<time>2011-03-24T17:08:43.68</time>
<name>5507</name>
</trkpt>
<trkpt lat="49.282832" lon="8.911043">
<ele>268.0</ele>
<speed>90.1</speed>
<course>19.2</course>
<desc>Speed 90.1 km/h Distance 115 km</desc>
<time>2011-03-24T17:08:44.67</time>
<name>5508</name>
</trkpt>
<trkpt lat="49.283047" lon="8.911158">
<ele>266.5</ele>
<speed>91.3</speed>
<course>19.2</course>
<desc>Speed 91.3 km/h Distance 115 km</desc>
<time>2011-03-24T17:08:45.68</time>
<name>5509</name>
</trkpt>
<trkpt lat="49.283262" lon="8.911273">
<ele>266.0</ele>
<speed>92.2</speed>
<course>19.9</course>
<desc>Speed 92.2 km/h Distance 115 km</desc>
<time>2011-03-24T17:08:46.67</time>
<name>5510</name>
</trkpt>
<trkpt lat="49.283478" lon="8.911393">
<ele>265.5</ele>
<speed>93.1</speed>
<course>20.9</course>
<desc>Speed 93.1 km/h Distance 115 km</desc>
<time>2011-03-24T17:08:47.68</time>
<name>5511</name>
</trkpt>
<trkpt lat="49.283692" lon="8.911518">
<ele>265.0</ele>
<speed>92.8</speed>
<course>21.8</course>
<desc>Speed 92.8 km/h Distance 115 km</desc>
<time>2011-03-24T17:08:48.67</time>
<name>5512</name>
</trkpt>
<trkpt lat="49.283907" lon="8.911650">
<ele>264.0</ele>
<speed>93.2</speed>
<course>22.6</course>
<desc>Speed 93.2 km/h Distance 115 km</desc>
<time>2011-03-24T17:08:49.68</time>
<name>5513</name>
</trkpt>
<trkpt lat="49.284118" lon="8.911785">
<ele>263.5</ele>
<speed>92.8</speed>
<course>23.3</course>
<desc>Speed 92.8 km/h Distance 115 km</desc>
<time>2011-03-24T17:08:50.67</time>
<name>5514</name>
</trkpt>
<trkpt lat="49.284330" lon="8.911925">
<ele>263.0</ele>
<speed>92.8</speed>
<course>24.3</course>
<desc>Speed 92.8 km/h Distance 115 km</desc>
<time>2011-03-24T17:08:51.67</time>
<name>5515</name>
</trkpt>
<trkpt lat="49.284535" lon="8.912067">
<ele>262.5</ele>
<speed>92.1</speed>
<course>25.2</course>
<desc>Speed 92.1 km/h Distance 115 km</desc>
<time>2011-03-24T17:08:52.67</time>
<name>5516</name>
</trkpt>
<trkpt lat="49.284738" lon="8.912213">
<ele>261.5</ele>
<speed>91.2</speed>
<course>26.5</course>
<desc>Speed 91.2 km/h Distance 115 km</desc>
<time>2011-03-24T17:08:53.67</time>
<name>5517</name>
</trkpt>
<trkpt lat="49.284937" lon="8.912365">
<ele>260.5</ele>
<speed>90.6</speed>
<course>26.4</course>
<desc>Speed 90.6 km/h Distance 115 km</desc>
<time>2011-03-24T17:08:54.67</time>
<name>5518</name>
</trkpt>
<trkpt lat="49.285138" lon="8.912518">
<ele>258.5</ele>
<speed>90.4</speed>
<course>26.6</course>
<desc>Speed 90.4 km/h Distance 115 km</desc>
<time>2011-03-24T17:08:55.68</time>
<name>5519</name>
</trkpt>
<trkpt lat="49.285340" lon="8.912673">
<ele>257.0</ele>
<speed>90.1</speed>
<course>27.1</course>
<desc>Speed 90.1 km/h Distance 115 km</desc>
<time>2011-03-24T17:08:56.67</time>
<name>5520</name>
</trkpt>
<trkpt lat="49.285542" lon="8.912832">
<ele>256.0</ele>
<speed>90.4</speed>
<course>27.8</course>
<desc>Speed 90.4 km/h Distance 116 km</desc>
<time>2011-03-24T17:08:57.68</time>
<name>5521</name>
</trkpt>
<trkpt lat="49.285742" lon="8.912993">
<ele>255.0</ele>
<speed>90.3</speed>
<course>28.7</course>
<desc>Speed 90.3 km/h Distance 116 km</desc>
<time>2011-03-24T17:08:58.67</time>
<name>5522</name>
</trkpt>
<trkpt lat="49.285938" lon="8.913158">
<ele>253.5</ele>
<speed>91.1</speed>
<course>28.7</course>
<desc>Speed 91.1 km/h Distance 116 km</desc>
<time>2011-03-24T17:08:59.67</time>
<name>5523</name>
</trkpt>
<trkpt lat="49.286137" lon="8.913325">
<ele>252.5</ele>
<speed>91.4</speed>
<course>29.0</course>
<desc>Speed 91.4 km/h Distance 116 km</desc>
<time>2011-03-24T17:09:00.67</time>
<name>5524</name>
</trkpt>
<trkpt lat="49.286335" lon="8.913493">
<ele>251.0</ele>
<speed>92.1</speed>
<course>29.2</course>
<desc>Speed 92.1 km/h Distance 116 km</desc>
<time>2011-03-24T17:09:01.67</time>
<name>5525</name>
</trkpt>
<trkpt lat="49.286532" lon="8.913662">
<ele>250.0</ele>
<speed>92.4</speed>
<course>28.8</course>
<desc>Speed 92.4 km/h Distance 116 km</desc>
<time>2011-03-24T17:09:02.67</time>
<name>5526</name>
</trkpt>
<trkpt lat="49.286732" lon="8.913830">
<ele>248.0</ele>
<speed>93.1</speed>
<course>28.4</course>
<desc>Speed 93.1 km/h Distance 116 km</desc>
<time>2011-03-24T17:09:03.68</time>
<name>5527</name>
</trkpt>
<trkpt lat="49.286937" lon="8.914000">
<ele>247.0</ele>
<speed>93.5</speed>
<course>28.6</course>
<desc>Speed 93.5 km/h Distance 116 km</desc>
<time>2011-03-24T17:09:04.67</time>
<name>5528</name>
</trkpt>
<trkpt lat="49.287142" lon="8.914172">
<ele>246.0</ele>
<speed>93.9</speed>
<course>28.7</course>
<desc>Speed 93.9 km/h Distance 116 km</desc>
<time>2011-03-24T17:09:05.67</time>
<name>5529</name>
</trkpt>
<trkpt lat="49.287348" lon="8.914345">
<ele>245.0</ele>
<speed>94.6</speed>
<course>28.8</course>
<desc>Speed 94.6 km/h Distance 116 km</desc>
<time>2011-03-24T17:09:06.67</time>
<name>5530</name>
</trkpt>
<trkpt lat="49.287552" lon="8.914517">
<ele>244.0</ele>
<speed>94.9</speed>
<course>28.4</course>
<desc>Speed 94.9 km/h Distance 116 km</desc>
<time>2011-03-24T17:09:07.67</time>
<name>5531</name>
</trkpt>
<trkpt lat="49.287758" lon="8.914688">
<ele>243.0</ele>
<speed>95.1</speed>
<course>28.4</course>
<desc>Speed 95.1 km/h Distance 116 km</desc>
<time>2011-03-24T17:09:08.67</time>
<name>5532</name>
</trkpt>
<trkpt lat="49.287965" lon="8.914860">
<ele>242.0</ele>
<speed>95.2</speed>
<course>28.4</course>
<desc>Speed 95.2 km/h Distance 116 km</desc>
<time>2011-03-24T17:09:09.67</time>
<name>5533</name>
</trkpt>
<trkpt lat="49.288172" lon="8.915032">
<ele>241.0</ele>
<speed>95.3</speed>
<course>28.6</course>
<desc>Speed 95.3 km/h Distance 116 km</desc>
<time>2011-03-24T17:09:10.67</time>
<name>5534</name>
</trkpt>
<trkpt lat="49.288377" lon="8.915203">
<ele>240.0</ele>
<speed>94.5</speed>
<course>28.1</course>
<desc>Speed 94.5 km/h Distance 116 km</desc>
<time>2011-03-24T17:09:11.67</time>
<name>5535</name>
</trkpt>
<trkpt lat="49.288580" lon="8.915370">
<ele>239.5</ele>
<speed>92.8</speed>
<course>28.0</course>
<desc>Speed 92.8 km/h Distance 116 km</desc>
<time>2011-03-24T17:09:12.67</time>
<name>5536</name>
</trkpt>
<trkpt lat="49.288778" lon="8.915532">
<ele>239.0</ele>
<speed>90.5</speed>
<course>28.0</course>
<desc>Speed 90.5 km/h Distance 116 km</desc>
<time>2011-03-24T17:09:13.67</time>
<name>5537</name>
</trkpt>
<trkpt lat="49.288968" lon="8.915687">
<ele>238.5</ele>
<speed>86.1</speed>
<course>28.1</course>
<desc>Speed 86.1 km/h Distance 116 km</desc>
<time>2011-03-24T17:09:14.67</time>
<name>5538</name>
</trkpt>
<trkpt lat="49.289152" lon="8.915837">
<ele>238.0</ele>
<speed>83.1</speed>
<course>28.2</course>
<desc>Speed 83.1 km/h Distance 116 km</desc>
<time>2011-03-24T17:09:15.66</time>
<name>5539</name>
</trkpt>
<trkpt lat="49.289328" lon="8.915982">
<ele>238.0</ele>
<speed>80.2</speed>
<course>29.0</course>
<desc>Speed 80.2 km/h Distance 116 km</desc>
<time>2011-03-24T17:09:16.66</time>
<name>5540</name>
</trkpt>
<trkpt lat="49.289497" lon="8.916125">
<ele>237.0</ele>
<speed>78.0</speed>
<course>29.0</course>
<desc>Speed 78.0 km/h Distance 116 km</desc>
<time>2011-03-24T17:09:17.67</time>
<name>5541</name>
</trkpt>
<trkpt lat="49.289665" lon="8.916268">
<ele>236.5</ele>
<speed>77.0</speed>
<course>28.9</course>
<desc>Speed 77.0 km/h Distance 116 km</desc>
<time>2011-03-24T17:09:18.66</time>
<name>5542</name>
</trkpt>
<trkpt lat="49.289828" lon="8.916407">
<ele>236.0</ele>
<speed>75.3</speed>
<course>29.7</course>
<desc>Speed 75.3 km/h Distance 116 km</desc>
<time>2011-03-24T17:09:19.66</time>
<name>5543</name>
</trkpt>
<trkpt lat="49.289988" lon="8.916547">
<ele>235.5</ele>
<speed>74.2</speed>
<course>30.6</course>
<desc>Speed 74.2 km/h Distance 116 km</desc>
<time>2011-03-24T17:09:20.66</time>
<name>5544</name>
</trkpt>
<trkpt lat="49.290150" lon="8.916693">
<ele>235.0</ele>
<speed>75.0</speed>
<course>32.3</course>
<desc>Speed 75.0 km/h Distance 116 km</desc>
<time>2011-03-24T17:09:21.66</time>
<name>5545</name>
</trkpt>
<trkpt lat="49.290310" lon="8.916848">
<ele>234.5</ele>
<speed>76.6</speed>
<course>33.1</course>
<desc>Speed 76.6 km/h Distance 116 km</desc>
<time>2011-03-24T17:09:22.66</time>
<name>5546</name>
</trkpt>
<trkpt lat="49.290475" lon="8.917013">
<ele>234.0</ele>
<speed>78.9</speed>
<course>34.7</course>
<desc>Speed 78.9 km/h Distance 116 km</desc>
<time>2011-03-24T17:09:23.67</time>
<name>5547</name>
</trkpt>
<trkpt lat="49.290642" lon="8.917190">
<ele>233.5</ele>
<speed>80.7</speed>
<course>36.1</course>
<desc>Speed 80.7 km/h Distance 116 km</desc>
<time>2011-03-24T17:09:24.66</time>
<name>5548</name>
</trkpt>
<trkpt lat="49.290808" lon="8.917377">
<ele>232.5</ele>
<speed>82.3</speed>
<course>37.1</course>
<desc>Speed 82.3 km/h Distance 116 km</desc>
<time>2011-03-24T17:09:25.66</time>
<name>5549</name>
</trkpt>
<trkpt lat="49.290977" lon="8.917572">
<ele>232.0</ele>
<speed>83.8</speed>
<course>39.0</course>
<desc>Speed 83.8 km/h Distance 116 km</desc>
<time>2011-03-24T17:09:26.66</time>
<name>5550</name>
</trkpt>
<trkpt lat="49.291142" lon="8.917777">
<ele>231.5</ele>
<speed>85.2</speed>
<course>40.9</course>
<desc>Speed 85.2 km/h Distance 116 km</desc>
<time>2011-03-24T17:09:27.66</time>
<name>5551</name>
</trkpt>
<trkpt lat="49.291305" lon="8.917993">
<ele>231.0</ele>
<speed>86.6</speed>
<course>42.7</course>
<desc>Speed 86.6 km/h Distance 116 km</desc>
<time>2011-03-24T17:09:28.66</time>
<name>5552</name>
</trkpt>
<trkpt lat="49.291465" lon="8.918220">
<ele>231.0</ele>
<speed>87.4</speed>
<course>44.6</course>
<desc>Speed 87.4 km/h Distance 116 km</desc>
<time>2011-03-24T17:09:29.66</time>
<name>5553</name>
</trkpt>
<trkpt lat="49.291622" lon="8.918457">
<ele>230.5</ele>
<speed>87.9</speed>
<course>53.1</course>
<desc>Speed 87.9 km/h Distance 116 km</desc>
<time>2011-03-24T17:09:30.66</time>
<name>5554</name>
</trkpt>
<trkpt lat="49.291752" lon="8.918722">
<ele>229.5</ele>
<speed>87.2</speed>
<course>49.7</course>
<desc>Speed 87.2 km/h Distance 116 km</desc>
<time>2011-03-24T17:09:31.66</time>
<name>5555</name>
</trkpt>
<trkpt lat="49.291888" lon="8.918968">
<ele>229.0</ele>
<speed>84.9</speed>
<course>48.4</course>
<desc>Speed 84.9 km/h Distance 116 km</desc>
<time>2011-03-24T17:09:32.66</time>
<name>5556</name>
</trkpt>
<trkpt lat="49.292023" lon="8.919202">
<ele>229.0</ele>
<speed>81.8</speed>
<course>45.7</course>
<desc>Speed 81.8 km/h Distance 116 km</desc>
<time>2011-03-24T17:09:33.66</time>
<name>5557</name>
</trkpt>
<trkpt lat="49.292163" lon="8.919422">
<ele>228.5</ele>
<speed>80.6</speed>
<course>44.8</course>
<desc>Speed 80.6 km/h Distance 116 km</desc>
<time>2011-03-24T17:09:34.65</time>
<name>5558</name>
</trkpt>
<trkpt lat="49.292303" lon="8.919635">
<ele>228.0</ele>
<speed>79.4</speed>
<course>41.6</course>
<desc>Speed 79.4 km/h Distance 116 km</desc>
<time>2011-03-24T17:09:35.66</time>
<name>5559</name>
</trkpt>
<trkpt lat="49.292450" lon="8.919835">
<ele>228.0</ele>
<speed>78.8</speed>
<course>37.6</course>
<desc>Speed 78.8 km/h Distance 116 km</desc>
<time>2011-03-24T17:09:36.66</time>
<name>5560</name>
</trkpt>
<trkpt lat="49.292607" lon="8.920020">
<ele>228.0</ele>
<speed>79.2</speed>
<course>33.6</course>
<desc>Speed 79.2 km/h Distance 116 km</desc>
<time>2011-03-24T17:09:37.66</time>
<name>5561</name>
</trkpt>
<trkpt lat="49.292773" lon="8.920190">
<ele>228.5</ele>
<speed>81.4</speed>
<course>30.7</course>
<desc>Speed 81.4 km/h Distance 116 km</desc>
<time>2011-03-24T17:09:38.66</time>
<name>5562</name>
</trkpt>
<trkpt lat="49.292940" lon="8.920342">
<ele>228.0</ele>
<speed>78.4</speed>
<course>25.8</course>
<desc>Speed 78.4 km/h Distance 117 km</desc>
<time>2011-03-24T17:09:39.67</time>
<name>5563</name>
</trkpt>
<trkpt lat="49.293120" lon="8.920475">
<ele>227.5</ele>
<speed>79.8</speed>
<course>24.5</course>
<desc>Speed 79.8 km/h Distance 117 km</desc>
<time>2011-03-24T17:09:40.65</time>
<name>5564</name>
</trkpt>
<trkpt lat="49.293303" lon="8.920603">
<ele>227.5</ele>
<speed>80.7</speed>
<course>22.8</course>
<desc>Speed 80.7 km/h Distance 117 km</desc>
<time>2011-03-24T17:09:41.65</time>
<name>5565</name>
</trkpt>
<trkpt lat="49.293492" lon="8.920725">
<ele>227.5</ele>
<speed>82.0</speed>
<course>22.7</course>
<desc>Speed 82.0 km/h Distance 117 km</desc>
<time>2011-03-24T17:09:42.65</time>
<name>5566</name>
</trkpt>
<trkpt lat="49.293682" lon="8.920847">
<ele>227.0</ele>
<speed>82.4</speed>
<course>23.3</course>
<desc>Speed 82.4 km/h Distance 117 km</desc>
<time>2011-03-24T17:09:43.65</time>
<name>5567</name>
</trkpt>
<trkpt lat="49.293873" lon="8.920973">
<ele>227.0</ele>
<speed>83.4</speed>
<course>23.4</course>
<desc>Speed 83.4 km/h Distance 117 km</desc>
<time>2011-03-24T17:09:44.66</time>
<name>5568</name>
</trkpt>
<trkpt lat="49.294067" lon="8.921102">
<ele>227.0</ele>
<speed>84.5</speed>
<course>23.3</course>
<desc>Speed 84.5 km/h Distance 117 km</desc>
<time>2011-03-24T17:09:45.65</time>
<name>5569</name>
</trkpt>
<trkpt lat="49.294263" lon="8.921232">
<ele>227.0</ele>
<speed>85.4</speed>
<course>22.9</course>
<desc>Speed 85.4 km/h Distance 117 km</desc>
<time>2011-03-24T17:09:46.66</time>
<name>5570</name>
</trkpt>
<trkpt lat="49.294462" lon="8.921360">
<ele>227.0</ele>
<speed>85.7</speed>
<course>22.3</course>
<desc>Speed 85.7 km/h Distance 117 km</desc>
<time>2011-03-24T17:09:47.65</time>
<name>5571</name>
</trkpt>
<trkpt lat="49.294663" lon="8.921487">
<ele>227.0</ele>
<speed>86.4</speed>
<course>22.4</course>
<desc>Speed 86.4 km/h Distance 117 km</desc>
<time>2011-03-24T17:09:48.66</time>
<name>5572</name>
</trkpt>
<trkpt lat="49.294863" lon="8.921613">
<ele>226.5</ele>
<speed>86.9</speed>
<course>22.3</course>
<desc>Speed 86.9 km/h Distance 117 km</desc>
<time>2011-03-24T17:09:49.66</time>
<name>5573</name>
</trkpt>
<trkpt lat="49.295065" lon="8.921740">
<ele>226.0</ele>
<speed>87.3</speed>
<course>22.1</course>
<desc>Speed 87.3 km/h Distance 117 km</desc>
<time>2011-03-24T17:09:50.64</time>
<name>5574</name>
</trkpt>
<trkpt lat="49.295268" lon="8.921867">
<ele>226.0</ele>
<speed>87.9</speed>
<course>21.9</course>
<desc>Speed 87.9 km/h Distance 117 km</desc>
<time>2011-03-24T17:09:51.65</time>
<name>5575</name>
</trkpt>
<trkpt lat="49.295473" lon="8.921993">
<ele>225.5</ele>
<speed>88.3</speed>
<course>22.1</course>
<desc>Speed 88.3 km/h Distance 117 km</desc>
<time>2011-03-24T17:09:52.64</time>
<name>5576</name>
</trkpt>
<trkpt lat="49.295677" lon="8.922120">
<ele>225.0</ele>
<speed>88.5</speed>
<course>23.3</course>
<desc>Speed 88.5 km/h Distance 117 km</desc>
<time>2011-03-24T17:09:53.66</time>
<name>5577</name>
</trkpt>
<trkpt lat="49.295878" lon="8.922253">
<ele>224.5</ele>
<speed>88.5</speed>
<course>23.2</course>
<desc>Speed 88.5 km/h Distance 117 km</desc>
<time>2011-03-24T17:09:54.64</time>
<name>5578</name>
</trkpt>
<trkpt lat="49.296082" lon="8.922387">
<ele>224.0</ele>
<speed>88.7</speed>
<course>23.9</course>
<desc>Speed 88.7 km/h Distance 117 km</desc>
<time>2011-03-24T17:09:55.65</time>
<name>5579</name>
</trkpt>
<trkpt lat="49.296285" lon="8.922525">
<ele>223.5</ele>
<speed>88.9</speed>
<course>25.1</course>
<desc>Speed 88.9 km/h Distance 117 km</desc>
<time>2011-03-24T17:09:56.64</time>
<name>5580</name>
</trkpt>
<trkpt lat="49.296487" lon="8.922670">
<ele>223.5</ele>
<speed>89.4</speed>
<course>26.3</course>
<desc>Speed 89.4 km/h Distance 117 km</desc>
<time>2011-03-24T17:09:57.65</time>
<name>5581</name>
</trkpt>
<trkpt lat="49.296687" lon="8.922822">
<ele>223.0</ele>
<speed>89.6</speed>
<course>27.0</course>
<desc>Speed 89.6 km/h Distance 117 km</desc>
<time>2011-03-24T17:09:58.64</time>
<name>5582</name>
</trkpt>
<trkpt lat="49.296885" lon="8.922977">
<ele>222.5</ele>
<speed>90.0</speed>
<course>28.2</course>
<desc>Speed 90.0 km/h Distance 117 km</desc>
<time>2011-03-24T17:09:59.65</time>
<name>5583</name>
</trkpt>
<trkpt lat="49.297082" lon="8.923138">
<ele>222.5</ele>
<speed>89.2</speed>
<course>29.2</course>
<desc>Speed 89.2 km/h Distance 117 km</desc>
<time>2011-03-24T17:10:00.65</time>
<name>5584</name>
</trkpt>
<trkpt lat="49.297278" lon="8.923307">
<ele>223.0</ele>
<speed>90.3</speed>
<course>32.2</course>
<desc>Speed 90.3 km/h Distance 117 km</desc>
<time>2011-03-24T17:10:01.65</time>
<name>5585</name>
</trkpt>
<trkpt lat="49.297467" lon="8.923488">
<ele>222.5</ele>
<speed>89.0</speed>
<course>33.6</course>
<desc>Speed 89.0 km/h Distance 117 km</desc>
<time>2011-03-24T17:10:02.65</time>
<name>5586</name>
</trkpt>
<trkpt lat="49.297652" lon="8.923677">
<ele>222.5</ele>
<speed>89.4</speed>
<course>34.7</course>
<desc>Speed 89.4 km/h Distance 117 km</desc>
<time>2011-03-24T17:10:03.64</time>
<name>5587</name>
</trkpt>
<trkpt lat="49.297835" lon="8.923872">
<ele>222.0</ele>
<speed>90.1</speed>
<course>36.2</course>
<desc>Speed 90.1 km/h Distance 117 km</desc>
<time>2011-03-24T17:10:04.66</time>
<name>5588</name>
</trkpt>
<trkpt lat="49.298013" lon="8.924072">
<ele>221.5</ele>
<speed>89.0</speed>
<course>37.9</course>
<desc>Speed 89.0 km/h Distance 117 km</desc>
<time>2011-03-24T17:10:05.65</time>
<name>5589</name>
</trkpt>
<trkpt lat="49.298185" lon="8.924277">
<ele>221.5</ele>
<speed>87.5</speed>
<course>39.0</course>
<desc>Speed 87.5 km/h Distance 117 km</desc>
<time>2011-03-24T17:10:06.66</time>
<name>5590</name>
</trkpt>
<trkpt lat="49.298350" lon="8.924482">
<ele>221.5</ele>
<speed>85.4</speed>
<course>39.9</course>
<desc>Speed 85.4 km/h Distance 117 km</desc>
<time>2011-03-24T17:10:07.64</time>
<name>5591</name>
</trkpt>
<trkpt lat="49.298510" lon="8.924687">
<ele>222.0</ele>
<speed>83.7</speed>
<course>41.0</course>
<desc>Speed 83.7 km/h Distance 117 km</desc>
<time>2011-03-24T17:10:08.64</time>
<name>5592</name>
</trkpt>
<trkpt lat="49.298660" lon="8.924887">
<ele>222.0</ele>
<speed>79.8</speed>
<course>41.4</course>
<desc>Speed 79.8 km/h Distance 117 km</desc>
<time>2011-03-24T17:10:09.64</time>
<name>5593</name>
</trkpt>
<trkpt lat="49.298802" lon="8.925078">
<ele>222.0</ele>
<speed>76.3</speed>
<course>41.9</course>
<desc>Speed 76.3 km/h Distance 117 km</desc>
<time>2011-03-24T17:10:10.64</time>
<name>5594</name>
</trkpt>
<trkpt lat="49.298935" lon="8.925262">
<ele>222.0</ele>
<speed>71.6</speed>
<course>42.5</course>
<desc>Speed 71.6 km/h Distance 117 km</desc>
<time>2011-03-24T17:10:11.65</time>
<name>5595</name>
</trkpt>
<trkpt lat="49.299058" lon="8.925435">
<ele>222.0</ele>
<speed>67.5</speed>
<course>43.2</course>
<desc>Speed 67.5 km/h Distance 117 km</desc>
<time>2011-03-24T17:10:12.64</time>
<name>5596</name>
</trkpt>
<trkpt lat="49.299172" lon="8.925598">
<ele>222.5</ele>
<speed>63.0</speed>
<course>45.0</course>
<desc>Speed 63.0 km/h Distance 117 km</desc>
<time>2011-03-24T17:10:13.64</time>
<name>5597</name>
</trkpt>
<trkpt lat="49.299272" lon="8.925752">
<ele>222.0</ele>
<speed>56.9</speed>
<course>48.7</course>
<desc>Speed 56.9 km/h Distance 117 km</desc>
<time>2011-03-24T17:10:14.64</time>
<name>5598</name>
</trkpt>
<trkpt lat="49.299395" lon="8.925967">
<ele>222.5</ele>
<speed>33.0</speed>
<course>46.1</course>
<desc>Speed 33.0 km/h Distance 117 km</desc>
<time>2011-03-24T17:10:16.64</time>
<name>5599</name>
</trkpt>
<trkpt lat="49.299448" lon="8.926052">
<ele>222.0</ele>
<speed>31.4</speed>
<course>50.6</course>
<desc>Speed 31.4 km/h Distance 117 km</desc>
<time>2011-03-24T17:10:17.64</time>
<name>5600</name>
</trkpt>
<trkpt lat="49.299487" lon="8.926123">
<ele>222.0</ele>
<speed>24.6</speed>
<course>50.2</course>
<desc>Speed 24.6 km/h Distance 117 km</desc>
<time>2011-03-24T17:10:18.64</time>
<name>5601</name>
</trkpt>
<trkpt lat="49.299518" lon="8.926182">
<ele>222.0</ele>
<speed>20.4</speed>
<course>50.6</course>
<desc>Speed 20.4 km/h Distance 117 km</desc>
<time>2011-03-24T17:10:19.64</time>
<name>5602</name>
</trkpt>
<trkpt lat="49.299543" lon="8.926228">
<ele>222.0</ele>
<speed>16.6</speed>
<course>48.2</course>
<desc>Speed 16.6 km/h Distance 117 km</desc>
<time>2011-03-24T17:10:20.64</time>
<name>5603</name>
</trkpt>
<trkpt lat="49.299578" lon="8.926288">
<ele>222.0</ele>
<speed>9.3</speed>
<course>119.9</course>
<desc>Speed 9.3 km/h Distance 117 km</desc>
<time>2011-03-24T17:10:22.64</time>
<name>5604</name>
</trkpt>
<trkpt lat="49.299573" lon="8.926302">
<ele>221.0</ele>
<speed>5.4</speed>
<course>167.4</course>
<desc>Speed 5.4 km/h Distance 117 km</desc>
<time>2011-03-24T17:10:24.64</time>
<name>5605</name>
</trkpt>
<trkpt lat="49.299572" lon="8.926302">
<ele>221.0</ele>
<speed>1.3</speed>
<course>178.8</course>
<desc>Speed 1.3 km/h Distance 117 km</desc>
<time>2011-03-24T17:10:26.64</time>
<name>5606</name>
</trkpt>
<trkpt lat="49.299565" lon="8.926302">
<ele>220.5</ele>
<speed>2.2</speed>
<course>2.2</course>
<desc>Speed 2.2 km/h Distance 117 km</desc>
<time>2011-03-24T17:10:28.64</time>
<name>5607</name>
</trkpt>
<trkpt lat="49.299577" lon="8.926302">
<ele>221.5</ele>
<speed>0.4</speed>
<course>10.3</course>
<desc>Speed 0.4 km/h Distance 117 km</desc>
<time>2011-03-24T17:10:30.63</time>
<name>5608</name>
</trkpt>
<trkpt lat="49.299583" lon="8.926303">
<ele>222.0</ele>
<speed>1.0</speed>
<course>62.6</course>
<desc>Speed 1.0 km/h Distance 117 km</desc>
<time>2011-03-24T17:10:32.63</time>
<name>5609</name>
</trkpt>
<trkpt lat="49.299585" lon="8.926308">
<ele>222.0</ele>
<speed>0.3</speed>
<course>0.0</course>
<desc>Speed 0.3 km/h Distance 117 km</desc>
<time>2011-03-24T17:10:34.64</time>
<name>5610</name>
</trkpt>
<trkpt lat="49.299592" lon="8.926308">
<ele>222.5</ele>
<speed>1.8</speed>
<course>347.4</course>
<desc>Speed 1.8 km/h Distance 117 km</desc>
<time>2011-03-24T17:10:36.64</time>
<name>5611</name>
</trkpt>
<trkpt lat="49.299597" lon="8.926307">
<ele>223.0</ele>
<speed>0.3</speed>
<course>192.6</course>
<desc>Speed 0.3 km/h Distance 117 km</desc>
<time>2011-03-24T17:10:38.63</time>
<name>5612</name>
</trkpt>
<trkpt lat="49.299592" lon="8.926305">
<ele>223.0</ele>
<speed>1.4</speed>
<course>0.0</course>
<desc>Speed 1.4 km/h Distance 117 km</desc>
<time>2011-03-24T17:10:40.63</time>
<name>5613</name>
</trkpt>
<trkpt lat="49.299593" lon="8.926305">
<ele>223.0</ele>
<speed>1.7</speed>
<course>22.2</course>
<desc>Speed 1.7 km/h Distance 117 km</desc>
<time>2011-03-24T17:10:42.64</time>
<name>5614</name>
</trkpt>
<trkpt lat="49.299598" lon="8.926308">
<ele>223.0</ele>
<speed>0.2</speed>
<course>90.0</course>
<desc>Speed 0.2 km/h Distance 117 km</desc>
<time>2011-03-24T17:10:44.64</time>
<name>5615</name>
</trkpt>
<trkpt lat="49.299598" lon="8.926310">
<ele>223.0</ele>
<speed>0.2</speed>
<course>90.0</course>
<desc>Speed 0.2 km/h Distance 117 km</desc>
<time>2011-03-24T17:10:46.64</time>
<name>5616</name>
</trkpt>
<trkpt lat="49.299598" lon="8.926310">
<ele>223.0</ele>
<speed>0.1</speed>
<course>5.0</course>
<desc>Speed 0.1 km/h Distance 117 km</desc>
<time>2011-03-24T17:10:48.63</time>
<name>5617</name>
</trkpt>
<trkpt lat="49.299607" lon="8.926310">
<ele>223.5</ele>
<speed>0.1</speed>
<course>5.0</course>
<desc>Speed 0.1 km/h Distance 117 km</desc>
<time>2011-03-24T17:10:50.63</time>
<name>5618</name>
</trkpt>
<trkpt lat="49.299607" lon="8.926310">
<ele>223.5</ele>
<speed>0.4</speed>
<course>12.3</course>
<desc>Speed 0.4 km/h Distance 117 km</desc>
<time>2011-03-24T17:10:52.63</time>
<name>5619</name>
</trkpt>
<trkpt lat="49.299632" lon="8.926318">
<ele>225.0</ele>
<speed>10.2</speed>
<course>56.4</course>
<desc>Speed 10.2 km/h Distance 117 km</desc>
<time>2011-03-24T17:10:54.63</time>
<name>5620</name>
</trkpt>
<trkpt lat="49.299692" lon="8.926457">
<ele>223.5</ele>
<speed>26.0</speed>
<course>34.4</course>
<desc>Speed 26.0 km/h Distance 117 km</desc>
<time>2011-03-24T17:10:56.63</time>
<name>5621</name>
</trkpt>
<trkpt lat="49.299792" lon="8.926562">
<ele>224.0</ele>
<speed>22.2</speed>
<course>338.8</course>
<desc>Speed 22.2 km/h Distance 117 km</desc>
<time>2011-03-24T17:10:58.63</time>
<name>5622</name>
</trkpt>
<trkpt lat="49.299923" lon="8.926483">
<ele>224.5</ele>
<speed>32.0</speed>
<course>291.6</course>
<desc>Speed 32.0 km/h Distance 117 km</desc>
<time>2011-03-24T17:11:00.63</time>
<name>5623</name>
</trkpt>
<trkpt lat="49.300005" lon="8.926167">
<ele>225.0</ele>
<speed>42.8</speed>
<course>258.6</course>
<desc>Speed 42.8 km/h Distance 117 km</desc>
<time>2011-03-24T17:11:02.62</time>
<name>5624</name>
</trkpt>
<trkpt lat="49.299960" lon="8.925823">
<ele>223.5</ele>
<speed>48.6</speed>
<course>256.7</course>
<desc>Speed 48.6 km/h Distance 117 km</desc>
<time>2011-03-24T17:11:04.64</time>
<name>5625</name>
</trkpt>
<trkpt lat="49.299903" lon="8.925455">
<ele>221.5</ele>
<speed>50.0</speed>
<course>257.2</course>
<desc>Speed 50.0 km/h Distance 118 km</desc>
<time>2011-03-24T17:11:06.64</time>
<name>5626</name>
</trkpt>
<trkpt lat="49.299847" lon="8.925072">
<ele>221.0</ele>
<speed>52.8</speed>
<course>259.9</course>
<desc>Speed 52.8 km/h Distance 118 km</desc>
<time>2011-03-24T17:11:08.64</time>
<name>5627</name>
</trkpt>
<trkpt lat="49.299798" lon="8.924657">
<ele>220.5</ele>
<speed>55.9</speed>
<course>264.7</course>
<desc>Speed 55.9 km/h Distance 118 km</desc>
<time>2011-03-24T17:11:10.63</time>
<name>5628</name>
</trkpt>
<trkpt lat="49.299772" lon="8.924220">
<ele>219.5</ele>
<speed>58.8</speed>
<course>266.8</course>
<desc>Speed 58.8 km/h Distance 118 km</desc>
<time>2011-03-24T17:11:12.63</time>
<name>5629</name>
</trkpt>
<trkpt lat="49.299755" lon="8.923765">
<ele>219.5</ele>
<speed>59.8</speed>
<course>272.5</course>
<desc>Speed 59.8 km/h Distance 118 km</desc>
<time>2011-03-24T17:11:14.62</time>
<name>5630</name>
</trkpt>
<trkpt lat="49.299768" lon="8.923305">
<ele>218.0</ele>
<speed>60.3</speed>
<course>278.7</course>
<desc>Speed 60.3 km/h Distance 118 km</desc>
<time>2011-03-24T17:11:16.62</time>
<name>5631</name>
</trkpt>
<trkpt lat="49.299813" lon="8.922853">
<ele>217.5</ele>
<speed>59.3</speed>
<course>283.7</course>
<desc>Speed 59.3 km/h Distance 118 km</desc>
<time>2011-03-24T17:11:18.62</time>
<name>5632</name>
</trkpt>
<trkpt lat="49.299882" lon="8.922425">
<ele>217.5</ele>
<speed>56.8</speed>
<course>293.4</course>
<desc>Speed 56.8 km/h Distance 118 km</desc>
<time>2011-03-24T17:11:20.63</time>
<name>5633</name>
</trkpt>
<trkpt lat="49.299992" lon="8.922035">
<ele>219.0</ele>
<speed>55.0</speed>
<course>297.8</course>
<desc>Speed 55.0 km/h Distance 118 km</desc>
<time>2011-03-24T17:11:22.63</time>
<name>5634</name>
</trkpt>
<trkpt lat="49.300112" lon="8.921687">
<ele>219.0</ele>
<speed>51.3</speed>
<course>288.3</course>
<desc>Speed 51.3 km/h Distance 118 km</desc>
<time>2011-03-24T17:11:24.63</time>
<name>5635</name>
</trkpt>
<trkpt lat="49.300187" lon="8.921338">
<ele>220.0</ele>
<speed>47.0</speed>
<course>290.7</course>
<desc>Speed 47.0 km/h Distance 118 km</desc>
<time>2011-03-24T17:11:26.63</time>
<name>5636</name>
</trkpt>
<trkpt lat="49.300255" lon="8.921062">
<ele>218.5</ele>
<speed>37.5</speed>
<course>287.6</course>
<desc>Speed 37.5 km/h Distance 118 km</desc>
<time>2011-03-24T17:11:28.63</time>
<name>5637</name>
</trkpt>
<trkpt lat="49.300303" lon="8.920828">
<ele>217.5</ele>
<speed>31.1</speed>
<course>286.7</course>
<desc>Speed 31.1 km/h Distance 118 km</desc>
<time>2011-03-24T17:11:30.62</time>
<name>5638</name>
</trkpt>
<trkpt lat="49.300337" lon="8.920658">
<ele>217.5</ele>
<speed>21.4</speed>
<course>271.4</course>
<desc>Speed 21.4 km/h Distance 118 km</desc>
<time>2011-03-24T17:11:32.61</time>
<name>5639</name>
</trkpt>
<trkpt lat="49.300338" lon="8.920552">
<ele>216.5</ele>
<speed>12.2</speed>
<course>278.4</course>
<desc>Speed 12.2 km/h Distance 118 km</desc>
<time>2011-03-24T17:11:34.62</time>
<name>5640</name>
</trkpt>
<trkpt lat="49.300343" lon="8.920500">
<ele>216.0</ele>
<speed>5.1</speed>
<course>253.0</course>
<desc>Speed 5.1 km/h Distance 118 km</desc>
<time>2011-03-24T17:11:36.61</time>
<name>5641</name>
</trkpt>
<trkpt lat="49.300340" lon="8.920483">
<ele>218.0</ele>
<speed>0.5</speed>
<course>270.0</course>
<desc>Speed 0.5 km/h Distance 118 km</desc>
<time>2011-03-24T17:11:38.62</time>
<name>5642</name>
</trkpt>
<trkpt lat="49.300340" lon="8.920480">
<ele>219.0</ele>
<speed>0.0</speed>
<course>167.4</course>
<desc>Speed 0.0 km/h Distance 118 km</desc>
<time>2011-03-24T17:11:40.62</time>
<name>5643</name>
</trkpt>
<trkpt lat="49.300338" lon="8.920480">
<ele>219.0</ele>
<speed>0.1</speed>
<course>167.4</course>
<desc>Speed 0.1 km/h Distance 118 km</desc>
<time>2011-03-24T17:11:42.61</time>
<name>5644</name>
</trkpt>
<trkpt lat="49.300338" lon="8.920480">
<ele>219.0</ele>
<speed>0.4</speed>
<course>270.0</course>
<desc>Speed 0.4 km/h Distance 118 km</desc>
<time>2011-03-24T17:11:44.61</time>
<name>5645</name>
</trkpt>
<trkpt lat="49.300338" lon="8.920467">
<ele>219.0</ele>
<speed>3.4</speed>
<course>300.9</course>
<desc>Speed 3.4 km/h Distance 118 km</desc>
<time>2011-03-24T17:11:46.61</time>
<name>5646</name>
</trkpt>
<trkpt lat="49.300392" lon="8.920330">
<ele>219.0</ele>
<speed>22.8</speed>
<course>280.1</course>
<desc>Speed 22.8 km/h Distance 118 km</desc>
<time>2011-03-24T17:11:48.62</time>
<name>5647</name>
</trkpt>
<trkpt lat="49.300412" lon="8.920158">
<ele>218.0</ele>
<speed>21.2</speed>
<course>274.4</course>
<desc>Speed 21.2 km/h Distance 118 km</desc>
<time>2011-03-24T17:11:50.61</time>
<name>5648</name>
</trkpt>
<trkpt lat="49.300420" lon="8.919992">
<ele>218.0</ele>
<speed>23.5</speed>
<course>281.7</course>
<desc>Speed 23.5 km/h Distance 118 km</desc>
<time>2011-03-24T17:11:52.61</time>
<name>5649</name>
</trkpt>
<trkpt lat="49.300443" lon="8.919818">
<ele>217.5</ele>
<speed>24.3</speed>
<course>331.3</course>
<desc>Speed 24.3 km/h Distance 118 km</desc>
<time>2011-03-24T17:11:54.61</time>
<name>5650</name>
</trkpt>
<trkpt lat="49.300537" lon="8.919740">
<ele>218.0</ele>
<speed>22.4</speed>
<course>356.4</course>
<desc>Speed 22.4 km/h Distance 118 km</desc>
<time>2011-03-24T17:11:56.61</time>
<name>5651</name>
</trkpt>
<trkpt lat="49.300575" lon="8.919737">
<ele>217.0</ele>
<speed>1.8</speed>
<course>26.2</course>
<desc>Speed 1.8 km/h Distance 118 km</desc>
<time>2011-03-24T17:11:58.60</time>
<name>5652</name>
</trkpt>
<trkpt lat="49.300697" lon="8.919828">
<ele>217.0</ele>
<speed>28.6</speed>
<course>30.6</course>
<desc>Speed 28.6 km/h Distance 118 km</desc>
<time>2011-03-24T17:12:00.61</time>
<name>5653</name>
</trkpt>
<trkpt lat="49.300892" lon="8.920005">
<ele>218.5</ele>
<speed>49.1</speed>
<course>31.7</course>
<desc>Speed 49.1 km/h Distance 118 km</desc>
<time>2011-03-24T17:12:02.60</time>
<name>5654</name>
</trkpt>
<trkpt lat="49.301107" lon="8.920208">
<ele>218.5</ele>
<speed>49.3</speed>
<course>30.9</course>
<desc>Speed 49.3 km/h Distance 118 km</desc>
<time>2011-03-24T17:12:04.61</time>
<name>5655</name>
</trkpt>
<trkpt lat="49.301332" lon="8.920415">
<ele>217.5</ele>
<speed>52.2</speed>
<course>25.9</course>
<desc>Speed 52.2 km/h Distance 118 km</desc>
<time>2011-03-24T17:12:06.60</time>
<name>5656</name>
</trkpt>
<trkpt lat="49.301585" lon="8.920603">
<ele>216.0</ele>
<speed>56.3</speed>
<course>20.9</course>
<desc>Speed 56.3 km/h Distance 118 km</desc>
<time>2011-03-24T17:12:08.59</time>
<name>5657</name>
</trkpt>
<trkpt lat="49.301858" lon="8.920763">
<ele>215.0</ele>
<speed>58.0</speed>
<course>15.5</course>
<desc>Speed 58.0 km/h Distance 118 km</desc>
<time>2011-03-24T17:12:10.60</time>
<name>5658</name>
</trkpt>
<trkpt lat="49.302128" lon="8.920878">
<ele>215.0</ele>
<speed>53.9</speed>
<course>6.9</course>
<desc>Speed 53.9 km/h Distance 118 km</desc>
<time>2011-03-24T17:12:12.60</time>
<name>5659</name>
</trkpt>
<trkpt lat="49.302460" lon="8.920940">
<ele>215.5</ele>
<speed>76.2</speed>
<course>1.1</course>
<desc>Speed 76.2 km/h Distance 118 km</desc>
<time>2011-03-24T17:12:14.61</time>
<name>5660</name>
</trkpt>
<trkpt lat="49.302842" lon="8.920952">
<ele>218.5</ele>
<speed>77.5</speed>
<course>358.8</course>
<desc>Speed 77.5 km/h Distance 118 km</desc>
<time>2011-03-24T17:12:16.60</time>
<name>5661</name>
</trkpt>
<trkpt lat="49.303213" lon="8.920940">
<ele>222.5</ele>
<speed>67.8</speed>
<course>357.7</course>
<desc>Speed 67.8 km/h Distance 118 km</desc>
<time>2011-03-24T17:12:18.60</time>
<name>5662</name>
</trkpt>
<trkpt lat="49.303572" lon="8.920918">
<ele>227.0</ele>
<speed>73.0</speed>
<course>357.9</course>
<desc>Speed 73.0 km/h Distance 118 km</desc>
<time>2011-03-24T17:12:20.60</time>
<name>5663</name>
</trkpt>
<trkpt lat="49.303927" lon="8.920898">
<ele>232.5</ele>
<speed>74.7</speed>
<course>356.0</course>
<desc>Speed 74.7 km/h Distance 118 km</desc>
<time>2011-03-24T17:12:22.59</time>
<name>5664</name>
</trkpt>
<trkpt lat="49.304287" lon="8.920860">
<ele>235.0</ele>
<speed>73.7</speed>
<course>355.1</course>
<desc>Speed 73.7 km/h Distance 118 km</desc>
<time>2011-03-24T17:12:24.60</time>
<name>5665</name>
</trkpt>
<trkpt lat="49.304638" lon="8.920813">
<ele>237.5</ele>
<speed>72.9</speed>
<course>353.9</course>
<desc>Speed 72.9 km/h Distance 118 km</desc>
<time>2011-03-24T17:12:26.59</time>
<name>5666</name>
</trkpt>
<trkpt lat="49.304987" lon="8.920757">
<ele>241.5</ele>
<speed>71.7</speed>
<course>352.6</course>
<desc>Speed 71.7 km/h Distance 118 km</desc>
<time>2011-03-24T17:12:28.59</time>
<name>5667</name>
</trkpt>
<trkpt lat="49.305322" lon="8.920690">
<ele>245.0</ele>
<speed>66.9</speed>
<course>353.3</course>
<desc>Speed 66.9 km/h Distance 119 km</desc>
<time>2011-03-24T17:12:30.60</time>
<name>5668</name>
</trkpt>
<trkpt lat="49.305610" lon="8.920638">
<ele>248.0</ele>
<speed>59.9</speed>
<course>351.3</course>
<desc>Speed 59.9 km/h Distance 119 km</desc>
<time>2011-03-24T17:12:32.59</time>
<name>5669</name>
</trkpt>
<trkpt lat="49.305860" lon="8.920580">
<ele>250.5</ele>
<speed>47.3</speed>
<course>349.2</course>
<desc>Speed 47.3 km/h Distance 119 km</desc>
<time>2011-03-24T17:12:34.59</time>
<name>5670</name>
</trkpt>
<trkpt lat="49.306042" lon="8.920527">
<ele>251.0</ele>
<speed>32.9</speed>
<course>355.5</course>
<desc>Speed 32.9 km/h Distance 119 km</desc>
<time>2011-03-24T17:12:36.60</time>
<name>5671</name>
</trkpt>
<trkpt lat="49.306165" lon="8.920512">
<ele>252.5</ele>
<speed>21.3</speed>
<course>20.2</course>
<desc>Speed 21.3 km/h Distance 119 km</desc>
<time>2011-03-24T17:12:38.59</time>
<name>5672</name>
</trkpt>
<trkpt lat="49.306257" lon="8.920563">
<ele>253.0</ele>
<speed>18.9</speed>
<course>25.5</course>
<desc>Speed 18.9 km/h Distance 119 km</desc>
<time>2011-03-24T17:12:40.60</time>
<name>5673</name>
</trkpt>
<trkpt lat="49.306375" lon="8.920650">
<ele>253.0</ele>
<speed>28.9</speed>
<course>24.8</course>
<desc>Speed 28.9 km/h Distance 119 km</desc>
<time>2011-03-24T17:12:42.59</time>
<name>5674</name>
</trkpt>
<trkpt lat="49.306490" lon="8.920732">
<ele>253.5</ele>
<speed>24.6</speed>
<course>26.1</course>
<desc>Speed 24.6 km/h Distance 119 km</desc>
<time>2011-03-24T17:12:44.59</time>
<name>5675</name>
</trkpt>
<trkpt lat="49.306570" lon="8.920792">
<ele>254.0</ele>
<speed>14.7</speed>
<course>27.6</course>
<desc>Speed 14.7 km/h Distance 119 km</desc>
<time>2011-03-24T17:12:46.59</time>
<name>5676</name>
</trkpt>
<trkpt lat="49.306587" lon="8.920805">
<ele>255.5</ele>
<speed>1.3</speed>
<course>352.6</course>
<desc>Speed 1.3 km/h Distance 119 km</desc>
<time>2011-03-24T17:12:48.59</time>
<name>5677</name>
</trkpt>
<trkpt lat="49.306593" lon="8.920803">
<ele>256.0</ele>
<speed>0.6</speed>
<course>326.3</course>
<desc>Speed 0.6 km/h Distance 119 km</desc>
<time>2011-03-24T17:12:50.58</time>
<name>5678</name>
</trkpt>
<trkpt lat="49.306597" lon="8.920800">
<ele>257.0</ele>
<speed>0.4</speed>
<course>336.2</course>
<desc>Speed 0.4 km/h Distance 119 km</desc>
<time>2011-03-24T17:12:52.59</time>
<name>5679</name>
</trkpt>
<trkpt lat="49.306602" lon="8.920797">
<ele>257.0</ele>
<speed>0.1</speed>
<course>90.0</course>
<desc>Speed 0.1 km/h Distance 119 km</desc>
<time>2011-03-24T17:12:54.59</time>
<name>5680</name>
</trkpt>
<trkpt lat="49.306602" lon="8.920798">
<ele>257.0</ele>
<speed>0.1</speed>
<course>167.4</course>
<desc>Speed 0.1 km/h Distance 119 km</desc>
<time>2011-03-24T17:12:56.59</time>
<name>5681</name>
</trkpt>
<trkpt lat="49.306600" lon="8.920798">
<ele>257.5</ele>
<speed>0.6</speed>
<course>180.0</course>
<desc>Speed 0.6 km/h Distance 119 km</desc>
<time>2011-03-24T17:12:58.94</time>
<name>5682</name>
</trkpt>
<trkpt lat="49.306598" lon="8.920798">
<ele>257.5</ele>
<speed>0.2</speed>
<course>180.0</course>
<desc>Speed 0.2 km/h Distance 119 km</desc>
<time>2011-03-24T17:13:00.59</time>
<name>5683</name>
</trkpt>
<trkpt lat="49.306598" lon="8.920798">
<ele>257.5</ele>
<speed>0.1</speed>
<course>0.0</course>
<desc>Speed 0.1 km/h Distance 119 km</desc>
<time>2011-03-24T17:13:02.58</time>
<name>5684</name>
</trkpt>
<trkpt lat="49.306600" lon="8.920798">
<ele>257.5</ele>
<speed>0.1</speed>
<course>0.0</course>
<desc>Speed 0.1 km/h Distance 119 km</desc>
<time>2011-03-24T17:13:04.58</time>
<name>5685</name>
</trkpt>
<trkpt lat="49.306600" lon="8.920798">
<ele>257.5</ele>
<speed>0.1</speed>
<course>0.0</course>
<desc>Speed 0.1 km/h Distance 119 km</desc>
<time>2011-03-24T17:13:06.58</time>
<name>5686</name>
</trkpt>
<trkpt lat="49.306600" lon="8.920798">
<ele>257.5</ele>
<speed>0.1</speed>
<course>0.0</course>
<desc>Speed 0.1 km/h Distance 119 km</desc>
<time>2011-03-24T17:13:08.58</time>
<name>5687</name>
</trkpt>
<trkpt lat="49.306600" lon="8.920798">
<ele>257.5</ele>
<speed>0.3</speed>
<course>0.0</course>
<desc>Speed 0.3 km/h Distance 119 km</desc>
<time>2011-03-24T17:13:10.57</time>
<name>5688</name>
</trkpt>
<trkpt lat="49.306600" lon="8.920798">
<ele>257.5</ele>
<speed>0.2</speed>
<course>0.0</course>
<desc>Speed 0.2 km/h Distance 119 km</desc>
<time>2011-03-24T17:13:12.57</time>
<name>5689</name>
</trkpt>
<trkpt lat="49.306600" lon="8.920798">
<ele>257.5</ele>
<speed>0.1</speed>
<course>0.0</course>
<desc>Speed 0.1 km/h Distance 119 km</desc>
<time>2011-03-24T17:13:14.57</time>
<name>5690</name>
</trkpt>
<trkpt lat="49.306600" lon="8.920798">
<ele>257.5</ele>
<speed>0.1</speed>
<course>0.0</course>
<desc>Speed 0.1 km/h Distance 119 km</desc>
<time>2011-03-24T17:13:16.57</time>
<name>5691</name>
</trkpt>
<trkpt lat="49.306600" lon="8.920798">
<ele>258.0</ele>
<speed>0.1</speed>
<course>0.0</course>
<desc>Speed 0.1 km/h Distance 119 km</desc>
<time>2011-03-24T17:13:18.57</time>
<name>5692</name>
</trkpt>
<trkpt lat="49.306600" lon="8.920798">
<ele>258.0</ele>
<speed>0.2</speed>
<course>0.0</course>
<desc>Speed 0.2 km/h Distance 119 km</desc>
<time>2011-03-24T17:13:20.58</time>
<name>5693</name>
</trkpt>
<trkpt lat="49.306600" lon="8.920798">
<ele>258.0</ele>
<speed>0.1</speed>
<course>0.0</course>
<desc>Speed 0.1 km/h Distance 119 km</desc>
<time>2011-03-24T17:13:22.58</time>
<name>5694</name>
</trkpt>
<trkpt lat="49.306600" lon="8.920798">
<ele>258.0</ele>
<speed>0.1</speed>
<course>12.6</course>
<desc>Speed 0.1 km/h Distance 119 km</desc>
<time>2011-03-24T17:13:24.58</time>
<name>5695</name>
</trkpt>
<trkpt lat="49.306602" lon="8.920798">
<ele>258.0</ele>
<speed>0.0</speed>
<course>270.0</course>
<desc>Speed 0.0 km/h Distance 119 km</desc>
<time>2011-03-24T17:13:26.57</time>
<name>5696</name>
</trkpt>
<trkpt lat="49.306602" lon="8.920797">
<ele>258.0</ele>
<speed>0.3</speed>
<course>270.0</course>
<desc>Speed 0.3 km/h Distance 119 km</desc>
<time>2011-03-24T17:13:28.57</time>
<name>5697</name>
</trkpt>
<trkpt lat="49.306602" lon="8.920797">
<ele>257.5</ele>
<speed>0.1</speed>
<course>270.0</course>
<desc>Speed 0.1 km/h Distance 119 km</desc>
<time>2011-03-24T17:13:30.57</time>
<name>5698</name>
</trkpt>
<trkpt lat="49.306602" lon="8.920797">
<ele>257.5</ele>
<speed>0.1</speed>
<course>270.0</course>
<desc>Speed 0.1 km/h Distance 119 km</desc>
<time>2011-03-24T17:13:32.57</time>
<name>5699</name>
</trkpt>
<trkpt lat="49.306602" lon="8.920797">
<ele>258.0</ele>
<speed>0.2</speed>
<course>270.0</course>
<desc>Speed 0.2 km/h Distance 119 km</desc>
<time>2011-03-24T17:13:34.56</time>
<name>5700</name>
</trkpt>
<trkpt lat="49.306602" lon="8.920797">
<ele>258.0</ele>
<speed>0.1</speed>
<course>270.0</course>
<desc>Speed 0.1 km/h Distance 119 km</desc>
<time>2011-03-24T17:13:36.56</time>
<name>5701</name>
</trkpt>
<trkpt lat="49.306602" lon="8.920797">
<ele>258.0</ele>
<speed>0.1</speed>
<course>270.0</course>
<desc>Speed 0.1 km/h Distance 119 km</desc>
<time>2011-03-24T17:13:38.57</time>
<name>5702</name>
</trkpt>
<trkpt lat="49.306602" lon="8.920797">
<ele>258.0</ele>
<speed>0.3</speed>
<course>270.0</course>
<desc>Speed 0.3 km/h Distance 119 km</desc>
<time>2011-03-24T17:13:40.57</time>
<name>5703</name>
</trkpt>
<trkpt lat="49.306602" lon="8.920797">
<ele>258.0</ele>
<speed>0.1</speed>
<course>270.0</course>
<desc>Speed 0.1 km/h Distance 119 km</desc>
<time>2011-03-24T17:13:42.56</time>
<name>5704</name>
</trkpt>
<trkpt lat="49.306602" lon="8.920797">
<ele>258.0</ele>
<speed>0.1</speed>
<course>270.0</course>
<desc>Speed 0.1 km/h Distance 119 km</desc>
<time>2011-03-24T17:13:44.56</time>
<name>5705</name>
</trkpt>
<trkpt lat="49.306602" lon="8.920797">
<ele>258.0</ele>
<speed>0.3</speed>
<course>270.0</course>
<desc>Speed 0.3 km/h Distance 119 km</desc>
<time>2011-03-24T17:13:46.56</time>
<name>5706</name>
</trkpt>
<trkpt lat="49.306602" lon="8.920797">
<ele>258.0</ele>
<speed>0.1</speed>
<course>270.0</course>
<desc>Speed 0.1 km/h Distance 119 km</desc>
<time>2011-03-24T17:13:48.56</time>
<name>5707</name>
</trkpt>
<trkpt lat="49.306602" lon="8.920797">
<ele>258.0</ele>
<speed>0.0</speed>
<course>270.0</course>
<desc>Speed 0.0 km/h Distance 119 km</desc>
<time>2011-03-24T17:13:50.56</time>
<name>5708</name>
</trkpt>
<trkpt lat="49.306602" lon="8.920797">
<ele>258.0</ele>
<speed>0.1</speed>
<course>270.0</course>
<desc>Speed 0.1 km/h Distance 119 km</desc>
<time>2011-03-24T17:13:52.56</time>
<name>5709</name>
</trkpt>
<trkpt lat="49.306602" lon="8.920797">
<ele>258.0</ele>
<speed>0.2</speed>
<course>167.4</course>
<desc>Speed 0.2 km/h Distance 119 km</desc>
<time>2011-03-24T17:13:54.56</time>
<name>5710</name>
</trkpt>
<trkpt lat="49.306600" lon="8.920797">
<ele>258.0</ele>
<speed>0.2</speed>
<course>167.4</course>
<desc>Speed 0.2 km/h Distance 119 km</desc>
<time>2011-03-24T17:13:56.56</time>
<name>5711</name>
</trkpt>
<trkpt lat="49.306600" lon="8.920797">
<ele>258.0</ele>
<speed>0.1</speed>
<course>167.4</course>
<desc>Speed 0.1 km/h Distance 119 km</desc>
<time>2011-03-24T17:13:58.55</time>
<name>5712</name>
</trkpt>
<trkpt lat="49.306600" lon="8.920797">
<ele>258.0</ele>
<speed>0.1</speed>
<course>167.4</course>
<desc>Speed 0.1 km/h Distance 119 km</desc>
<time>2011-03-24T17:14:00.55</time>
<name>5713</name>
</trkpt>
<trkpt lat="49.306600" lon="8.920797">
<ele>258.0</ele>
<speed>0.1</speed>
<course>167.4</course>
<desc>Speed 0.1 km/h Distance 119 km</desc>
<time>2011-03-24T17:14:02.56</time>
<name>5714</name>
</trkpt>
<trkpt lat="49.306600" lon="8.920797">
<ele>258.0</ele>
<speed>0.1</speed>
<course>167.4</course>
<desc>Speed 0.1 km/h Distance 119 km</desc>
<time>2011-03-24T17:14:04.55</time>
<name>5715</name>
</trkpt>
<trkpt lat="49.306600" lon="8.920797">
<ele>258.0</ele>
<speed>0.1</speed>
<course>167.4</course>
<desc>Speed 0.1 km/h Distance 119 km</desc>
<time>2011-03-24T17:14:06.55</time>
<name>5716</name>
</trkpt>
<trkpt lat="49.306600" lon="8.920797">
<ele>258.0</ele>
<speed>0.1</speed>
<course>167.4</course>
<desc>Speed 0.1 km/h Distance 119 km</desc>
<time>2011-03-24T17:14:08.55</time>
<name>5717</name>
</trkpt>
<trkpt lat="49.306600" lon="8.920797">
<ele>258.0</ele>
<speed>0.2</speed>
<course>167.4</course>
<desc>Speed 0.2 km/h Distance 119 km</desc>
<time>2011-03-24T17:14:10.55</time>
<name>5718</name>
</trkpt>
<trkpt lat="49.306600" lon="8.920797">
<ele>258.0</ele>
<speed>0.2</speed>
<course>167.4</course>
<desc>Speed 0.2 km/h Distance 119 km</desc>
<time>2011-03-24T17:14:12.55</time>
<name>5719</name>
</trkpt>
<trkpt lat="49.306600" lon="8.920797">
<ele>258.5</ele>
<speed>0.1</speed>
<course>167.4</course>
<desc>Speed 0.1 km/h Distance 119 km</desc>
<time>2011-03-24T17:14:14.55</time>
<name>5720</name>
</trkpt>
<trkpt lat="49.306600" lon="8.920797">
<ele>258.5</ele>
<speed>0.1</speed>
<course>167.4</course>
<desc>Speed 0.1 km/h Distance 119 km</desc>
<time>2011-03-24T17:14:16.55</time>
<name>5721</name>
</trkpt>
<trkpt lat="49.306600" lon="8.920797">
<ele>258.5</ele>
<speed>0.1</speed>
<course>167.4</course>
<desc>Speed 0.1 km/h Distance 119 km</desc>
<time>2011-03-24T17:14:18.55</time>
<name>5722</name>
</trkpt>
<trkpt lat="49.306600" lon="8.920797">
<ele>258.5</ele>
<speed>0.1</speed>
<course>167.4</course>
<desc>Speed 0.1 km/h Distance 119 km</desc>
<time>2011-03-24T17:14:20.54</time>
<name>5723</name>
</trkpt>
<trkpt lat="49.306600" lon="8.920797">
<ele>258.5</ele>
<speed>0.1</speed>
<course>167.4</course>
<desc>Speed 0.1 km/h Distance 119 km</desc>
<time>2011-03-24T17:14:22.55</time>
<name>5724</name>
</trkpt>
<trkpt lat="49.306600" lon="8.920797">
<ele>258.5</ele>
<speed>0.1</speed>
<course>167.4</course>
<desc>Speed 0.1 km/h Distance 119 km</desc>
<time>2011-03-24T17:14:24.54</time>
<name>5725</name>
</trkpt>
<trkpt lat="49.306600" lon="8.920797">
<ele>258.5</ele>
<speed>0.1</speed>
<course>167.4</course>
<desc>Speed 0.1 km/h Distance 119 km</desc>
<time>2011-03-24T17:14:26.54</time>
<name>5726</name>
</trkpt>
<trkpt lat="49.306600" lon="8.920797">
<ele>258.5</ele>
<speed>0.3</speed>
<course>167.4</course>
<desc>Speed 0.3 km/h Distance 119 km</desc>
<time>2011-03-24T17:14:28.54</time>
<name>5727</name>
</trkpt>
<trkpt lat="49.306600" lon="8.920797">
<ele>258.5</ele>
<speed>0.1</speed>
<course>167.4</course>
<desc>Speed 0.1 km/h Distance 119 km</desc>
<time>2011-03-24T17:14:30.55</time>
<name>5728</name>
</trkpt>
<trkpt lat="49.306600" lon="8.920797">
<ele>258.5</ele>
<speed>0.1</speed>
<course>167.4</course>
<desc>Speed 0.1 km/h Distance 119 km</desc>
<time>2011-03-24T17:14:32.55</time>
<name>5729</name>
</trkpt>
<trkpt lat="49.306600" lon="8.920797">
<ele>258.5</ele>
<speed>0.1</speed>
<course>167.4</course>
<desc>Speed 0.1 km/h Distance 119 km</desc>
<time>2011-03-24T17:14:34.55</time>
<name>5730</name>
</trkpt>
<trkpt lat="49.306600" lon="8.920797">
<ele>258.5</ele>
<speed>0.3</speed>
<course>167.4</course>
<desc>Speed 0.3 km/h Distance 119 km</desc>
<time>2011-03-24T17:14:36.55</time>
<name>5731</name>
</trkpt>
<trkpt lat="49.306600" lon="8.920797">
<ele>258.5</ele>
<speed>0.0</speed>
<course>167.4</course>
<desc>Speed 0.0 km/h Distance 119 km</desc>
<time>2011-03-24T17:14:38.54</time>
<name>5732</name>
</trkpt>
<trkpt lat="49.306600" lon="8.920797">
<ele>258.5</ele>
<speed>0.1</speed>
<course>167.4</course>
<desc>Speed 0.1 km/h Distance 119 km</desc>
<time>2011-03-24T17:14:40.54</time>
<name>5733</name>
</trkpt>
<trkpt lat="49.306600" lon="8.920797">
<ele>258.5</ele>
<speed>0.1</speed>
<course>90.0</course>
<desc>Speed 0.1 km/h Distance 119 km</desc>
<time>2011-03-24T17:14:42.54</time>
<name>5734</name>
</trkpt>
<trkpt lat="49.306600" lon="8.920798">
<ele>259.0</ele>
<speed>0.3</speed>
<course>90.0</course>
<desc>Speed 0.3 km/h Distance 119 km</desc>
<time>2011-03-24T17:14:44.53</time>
<name>5735</name>
</trkpt>
<trkpt lat="49.306600" lon="8.920798">
<ele>259.0</ele>
<speed>0.3</speed>
<course>90.0</course>
<desc>Speed 0.3 km/h Distance 119 km</desc>
<time>2011-03-24T17:14:46.53</time>
<name>5736</name>
</trkpt>
<trkpt lat="49.306600" lon="8.920798">
<ele>259.0</ele>
<speed>0.2</speed>
<course>270.0</course>
<desc>Speed 0.2 km/h Distance 119 km</desc>
<time>2011-03-24T17:14:48.54</time>
<name>5737</name>
</trkpt>
<trkpt lat="49.306600" lon="8.920797">
<ele>259.0</ele>
<speed>0.1</speed>
<course>270.0</course>
<desc>Speed 0.1 km/h Distance 119 km</desc>
<time>2011-03-24T17:14:50.53</time>
<name>5738</name>
</trkpt>
<trkpt lat="49.306600" lon="8.920797">
<ele>259.0</ele>
<speed>0.2</speed>
<course>270.0</course>
<desc>Speed 0.2 km/h Distance 119 km</desc>
<time>2011-03-24T17:14:52.53</time>
<name>5739</name>
</trkpt>
<trkpt lat="49.306600" lon="8.920797">
<ele>259.0</ele>
<speed>0.4</speed>
<course>270.0</course>
<desc>Speed 0.4 km/h Distance 119 km</desc>
<time>2011-03-24T17:14:54.53</time>
<name>5740</name>
</trkpt>
<trkpt lat="49.306600" lon="8.920797">
<ele>259.0</ele>
<speed>0.1</speed>
<course>270.0</course>
<desc>Speed 0.1 km/h Distance 119 km</desc>
<time>2011-03-24T17:14:56.54</time>
<name>5741</name>
</trkpt>
<trkpt lat="49.306600" lon="8.920795">
<ele>258.5</ele>
<speed>1.1</speed>
<course>270.0</course>
<desc>Speed 1.1 km/h Distance 119 km</desc>
<time>2011-03-24T17:14:58.53</time>
<name>5742</name>
</trkpt>
<trkpt lat="49.306600" lon="8.920795">
<ele>258.5</ele>
<speed>0.5</speed>
<course>128.1</course>
<desc>Speed 0.5 km/h Distance 119 km</desc>
<time>2011-03-24T17:15:00.53</time>
<name>5743</name>
</trkpt>
<trkpt lat="49.306598" lon="8.920798">
<ele>259.0</ele>
<speed>0.2</speed>
<course>347.4</course>
<desc>Speed 0.2 km/h Distance 119 km</desc>
<time>2011-03-24T17:15:02.53</time>
<name>5744</name>
</trkpt>
<trkpt lat="49.306602" lon="8.920797">
<ele>259.0</ele>
<speed>0.6</speed>
<course>339.8</course>
<desc>Speed 0.6 km/h Distance 119 km</desc>
<time>2011-03-24T17:15:04.54</time>
<name>5745</name>
</trkpt>
<trkpt lat="49.306613" lon="8.920790">
<ele>259.0</ele>
<speed>3.3</speed>
<course>345.0</course>
<desc>Speed 3.3 km/h Distance 119 km</desc>
<time>2011-03-24T17:15:06.53</time>
<name>5746</name>
</trkpt>
<trkpt lat="49.306633" lon="8.920782">
<ele>259.0</ele>
<speed>5.9</speed>
<course>165.1</course>
<desc>Speed 5.9 km/h Distance 119 km</desc>
<time>2011-03-24T17:15:08.54</time>
<name>5747</name>
</trkpt>
<trkpt lat="49.306625" lon="8.920785">
<ele>259.0</ele>
<speed>2.8</speed>
<course>180.0</course>
<desc>Speed 2.8 km/h Distance 119 km</desc>
<time>2011-03-24T17:15:10.54</time>
<name>5748</name>
</trkpt>
<trkpt lat="49.306620" lon="8.920785">
<ele>258.5</ele>
<speed>1.3</speed>
<course>250.3</course>
<desc>Speed 1.3 km/h Distance 119 km</desc>
<time>2011-03-24T17:15:12.53</time>
<name>5749</name>
</trkpt>
<trkpt lat="49.306608" lon="8.920735">
<ele>258.0</ele>
<speed>11.6</speed>
<course>196.9</course>
<desc>Speed 11.6 km/h Distance 119 km</desc>
<time>2011-03-24T17:15:14.53</time>
<name>5750</name>
</trkpt>
<trkpt lat="49.306512" lon="8.920690">
<ele>259.0</ele>
<speed>20.9</speed>
<course>195.3</course>
<desc>Speed 20.9 km/h Distance 119 km</desc>
<time>2011-03-24T17:15:16.53</time>
<name>5751</name>
</trkpt>
<trkpt lat="49.306397" lon="8.920642">
<ele>259.5</ele>
<speed>23.8</speed>
<course>196.8</course>
<desc>Speed 23.8 km/h Distance 119 km</desc>
<time>2011-03-24T17:15:18.53</time>
<name>5752</name>
</trkpt>
<trkpt lat="49.306282" lon="8.920588">
<ele>259.5</ele>
<speed>22.9</speed>
<course>216.1</course>
<desc>Speed 22.9 km/h Distance 119 km</desc>
<time>2011-03-24T17:15:20.53</time>
<name>5753</name>
</trkpt>
<trkpt lat="49.306225" lon="8.920525">
<ele>259.5</ele>
<speed>11.7</speed>
<course>283.8</course>
<desc>Speed 11.7 km/h Distance 119 km</desc>
<time>2011-03-24T17:15:22.52</time>
<name>5754</name>
</trkpt>
<trkpt lat="49.306240" lon="8.920432">
<ele>261.5</ele>
<speed>13.7</speed>
<course>334.7</course>
<desc>Speed 13.7 km/h Distance 119 km</desc>
<time>2011-03-24T17:15:24.53</time>
<name>5755</name>
</trkpt>
<trkpt lat="49.306380" lon="8.920330">
<ele>261.0</ele>
<speed>36.5</speed>
<course>339.0</course>
<desc>Speed 36.5 km/h Distance 119 km</desc>
<time>2011-03-24T17:15:26.53</time>
<name>5756</name>
</trkpt>
<trkpt lat="49.306677" lon="8.920155">
<ele>259.5</ele>
<speed>59.5</speed>
<course>328.4</course>
<desc>Speed 59.5 km/h Distance 119 km</desc>
<time>2011-03-24T17:15:28.68</time>
<name>5757</name>
</trkpt>
<trkpt lat="49.306965" lon="8.919883">
<ele>259.0</ele>
<speed>65.4</speed>
<course>321.4</course>
<desc>Speed 65.4 km/h Distance 119 km</desc>
<time>2011-03-24T17:15:30.53</time>
<name>5758</name>
</trkpt>
<trkpt lat="49.307260" lon="8.919522">
<ele>257.0</ele>
<speed>77.0</speed>
<course>329.7</course>
<desc>Speed 77.0 km/h Distance 119 km</desc>
<time>2011-03-24T17:15:32.53</time>
<name>5759</name>
</trkpt>
<trkpt lat="49.307585" lon="8.919230">
<ele>256.5</ele>
<speed>78.7</speed>
<course>336.1</course>
<desc>Speed 78.7 km/h Distance 119 km</desc>
<time>2011-03-24T17:15:34.60</time>
<name>5760</name>
</trkpt>
<trkpt lat="49.307992" lon="8.918953">
<ele>256.0</ele>
<speed>93.6</speed>
<course>343.8</course>
<desc>Speed 93.6 km/h Distance 119 km</desc>
<time>2011-03-24T17:15:36.54</time>
<name>5761</name>
</trkpt>
<trkpt lat="49.308427" lon="8.918760">
<ele>254.5</ele>
<speed>95.7</speed>
<course>348.0</course>
<desc>Speed 95.7 km/h Distance 119 km</desc>
<time>2011-03-24T17:15:38.51</time>
<name>5762</name>
</trkpt>
<trkpt lat="49.308927" lon="8.918597">
<ele>256.5</ele>
<speed>110</speed>
<course>350.6</course>
<desc>Speed 110 km/h Distance 119 km</desc>
<time>2011-03-24T17:15:40.52</time>
<name>5763</name>
</trkpt>
<trkpt lat="49.309432" lon="8.918468">
<ele>256.0</ele>
<speed>102</speed>
<course>354.0</course>
<desc>Speed 102 km/h Distance 119 km</desc>
<time>2011-03-24T17:15:42.52</time>
<name>5764</name>
</trkpt>
<trkpt lat="49.309947" lon="8.918385">
<ele>256.5</ele>
<speed>105</speed>
<course>357.3</course>
<desc>Speed 105 km/h Distance 119 km</desc>
<time>2011-03-24T17:15:44.51</time>
<name>5765</name>
</trkpt>
<trkpt lat="49.310480" lon="8.918347">
<ele>258.0</ele>
<speed>107</speed>
<course>1.2</course>
<desc>Speed 107 km/h Distance 119 km</desc>
<time>2011-03-24T17:15:46.51</time>
<name>5766</name>
</trkpt>
<trkpt lat="49.311028" lon="8.918365">
<ele>257.5</ele>
<speed>110</speed>
<course>5.4</course>
<desc>Speed 110 km/h Distance 119 km</desc>
<time>2011-03-24T17:15:48.51</time>
<name>5767</name>
</trkpt>
<trkpt lat="49.311587" lon="8.918447">
<ele>256.5</ele>
<speed>113</speed>
<course>6.0</course>
<desc>Speed 113 km/h Distance 119 km</desc>
<time>2011-03-24T17:15:50.50</time>
<name>5768</name>
</trkpt>
<trkpt lat="49.312147" lon="8.918537">
<ele>255.5</ele>
<speed>114</speed>
<course>3.4</course>
<desc>Speed 114 km/h Distance 119 km</desc>
<time>2011-03-24T17:15:52.51</time>
<name>5769</name>
</trkpt>
<trkpt lat="49.312708" lon="8.918588">
<ele>256.0</ele>
<speed>113</speed>
<course>357.2</course>
<desc>Speed 113 km/h Distance 119 km</desc>
<time>2011-03-24T17:15:54.51</time>
<name>5770</name>
</trkpt>
<trkpt lat="49.313268" lon="8.918547">
<ele>255.0</ele>
<speed>116</speed>
<course>347.9</course>
<desc>Speed 116 km/h Distance 120 km</desc>
<time>2011-03-24T17:15:56.50</time>
<name>5771</name>
</trkpt>
<trkpt lat="49.313810" lon="8.918368">
<ele>255.0</ele>
<speed>115</speed>
<course>338.7</course>
<desc>Speed 115 km/h Distance 120 km</desc>
<time>2011-03-24T17:15:58.50</time>
<name>5772</name>
</trkpt>
<trkpt lat="49.314313" lon="8.918067">
<ele>255.0</ele>
<speed>117</speed>
<course>337.1</course>
<desc>Speed 117 km/h Distance 120 km</desc>
<time>2011-03-24T17:16:00.50</time>
<name>5773</name>
</trkpt>
<trkpt lat="49.314857" lon="8.917715">
<ele>256.5</ele>
<speed>118</speed>
<course>338.5</course>
<desc>Speed 118 km/h Distance 120 km</desc>
<time>2011-03-24T17:16:02.50</time>
<name>5774</name>
</trkpt>
<trkpt lat="49.315382" lon="8.917398">
<ele>259.5</ele>
<speed>111</speed>
<course>342.3</course>
<desc>Speed 111 km/h Distance 120 km</desc>
<time>2011-03-24T17:16:04.50</time>
<name>5775</name>
</trkpt>
<trkpt lat="49.315908" lon="8.917140">
<ele>260.0</ele>
<speed>109</speed>
<course>345.5</course>
<desc>Speed 109 km/h Distance 120 km</desc>
<time>2011-03-24T17:16:06.50</time>
<name>5776</name>
</trkpt>
<trkpt lat="49.316440" lon="8.916928">
<ele>261.5</ele>
<speed>109</speed>
<course>346.6</course>
<desc>Speed 109 km/h Distance 120 km</desc>
<time>2011-03-24T17:16:08.51</time>
<name>5777</name>
</trkpt>
<trkpt lat="49.316977" lon="8.916732">
<ele>263.0</ele>
<speed>110</speed>
<course>346.0</course>
<desc>Speed 110 km/h Distance 120 km</desc>
<time>2011-03-24T17:16:10.50</time>
<name>5778</name>
</trkpt>
<trkpt lat="49.317530" lon="8.916520">
<ele>264.0</ele>
<speed>114</speed>
<course>345.0</course>
<desc>Speed 114 km/h Distance 120 km</desc>
<time>2011-03-24T17:16:12.49</time>
<name>5779</name>
</trkpt>
<trkpt lat="49.318085" lon="8.916292">
<ele>266.0</ele>
<speed>115</speed>
<course>342.5</course>
<desc>Speed 115 km/h Distance 120 km</desc>
<time>2011-03-24T17:16:14.50</time>
<name>5780</name>
</trkpt>
<trkpt lat="49.318633" lon="8.916027">
<ele>268.0</ele>
<speed>116</speed>
<course>339.4</course>
<desc>Speed 116 km/h Distance 120 km</desc>
<time>2011-03-24T17:16:16.50</time>
<name>5781</name>
</trkpt>
<trkpt lat="49.319163" lon="8.915722">
<ele>270.5</ele>
<speed>111</speed>
<course>336.8</course>
<desc>Speed 111 km/h Distance 120 km</desc>
<time>2011-03-24T17:16:18.49</time>
<name>5782</name>
</trkpt>
<trkpt lat="49.319658" lon="8.915397">
<ele>272.5</ele>
<speed>107</speed>
<course>332.1</course>
<desc>Speed 107 km/h Distance 120 km</desc>
<time>2011-03-24T17:16:20.49</time>
<name>5783</name>
</trkpt>
<trkpt lat="49.320123" lon="8.915018">
<ele>273.5</ele>
<speed>105</speed>
<course>338.5</course>
<desc>Speed 105 km/h Distance 120 km</desc>
<time>2011-03-24T17:16:22.49</time>
<name>5784</name>
</trkpt>
<trkpt lat="49.320623" lon="8.914717">
<ele>273.5</ele>
<speed>108</speed>
<course>345.7</course>
<desc>Speed 108 km/h Distance 120 km</desc>
<time>2011-03-24T17:16:24.49</time>
<name>5785</name>
</trkpt>
<trkpt lat="49.321173" lon="8.914502">
<ele>276.5</ele>
<speed>110</speed>
<course>348.3</course>
<desc>Speed 110 km/h Distance 120 km</desc>
<time>2011-03-24T17:16:26.49</time>
<name>5786</name>
</trkpt>
<trkpt lat="49.321703" lon="8.914333">
<ele>276.5</ele>
<speed>107</speed>
<course>343.5</course>
<desc>Speed 107 km/h Distance 121 km</desc>
<time>2011-03-24T17:16:28.49</time>
<name>5787</name>
</trkpt>
<trkpt lat="49.322118" lon="8.914145">
<ele>277.0</ele>
<speed>107</speed>
<course>332.0</course>
<desc>Speed 107 km/h Distance 121 km</desc>
<time>2011-03-24T17:16:30.49</time>
<name>5788</name>
</trkpt>
<trkpt lat="49.322617" lon="8.913738">
<ele>278.0</ele>
<speed>110</speed>
<course>328.9</course>
<desc>Speed 110 km/h Distance 121 km</desc>
<time>2011-03-24T17:16:32.50</time>
<name>5789</name>
</trkpt>
<trkpt lat="49.323115" lon="8.913277">
<ele>280.5</ele>
<speed>112</speed>
<course>329.6</course>
<desc>Speed 112 km/h Distance 121 km</desc>
<time>2011-03-24T17:16:34.49</time>
<name>5790</name>
</trkpt>
<trkpt lat="49.323542" lon="8.912893">
<ele>283.5</ele>
<speed>95.3</speed>
<course>336.1</course>
<desc>Speed 95.3 km/h Distance 121 km</desc>
<time>2011-03-24T17:16:36.48</time>
<name>5791</name>
</trkpt>
<trkpt lat="49.323907" lon="8.912645">
<ele>284.5</ele>
<speed>85.5</speed>
<course>349.8</course>
<desc>Speed 85.5 km/h Distance 121 km</desc>
<time>2011-03-24T17:16:38.49</time>
<name>5792</name>
</trkpt>
<trkpt lat="49.324330" lon="8.912528">
<ele>287.0</ele>
<speed>85.7</speed>
<course>358.8</course>
<desc>Speed 85.7 km/h Distance 121 km</desc>
<time>2011-03-24T17:16:40.49</time>
<name>5793</name>
</trkpt>
<trkpt lat="49.324802" lon="8.912513">
<ele>287.0</ele>
<speed>94.2</speed>
<course>356.2</course>
<desc>Speed 94.2 km/h Distance 121 km</desc>
<time>2011-03-24T17:16:42.49</time>
<name>5794</name>
</trkpt>
<trkpt lat="49.325245" lon="8.912468">
<ele>287.0</ele>
<speed>86.8</speed>
<course>2.7</course>
<desc>Speed 86.8 km/h Distance 121 km</desc>
<time>2011-03-24T17:16:44.48</time>
<name>5795</name>
</trkpt>
<trkpt lat="49.325725" lon="8.912503">
<ele>290.5</ele>
<speed>98.2</speed>
<course>5.4</course>
<desc>Speed 98.2 km/h Distance 121 km</desc>
<time>2011-03-24T17:16:46.48</time>
<name>5796</name>
</trkpt>
<trkpt lat="49.326203" lon="8.912573">
<ele>288.5</ele>
<speed>94.2</speed>
<course>16.3</course>
<desc>Speed 94.2 km/h Distance 121 km</desc>
<time>2011-03-24T17:16:48.48</time>
<name>5797</name>
</trkpt>
<trkpt lat="49.326612" lon="8.912757">
<ele>286.5</ele>
<speed>90.0</speed>
<course>22.3</course>
<desc>Speed 90.0 km/h Distance 121 km</desc>
<time>2011-03-24T17:16:50.49</time>
<name>5798</name>
</trkpt>
<trkpt lat="49.327035" lon="8.913023">
<ele>286.0</ele>
<speed>92.2</speed>
<course>13.4</course>
<desc>Speed 92.2 km/h Distance 121 km</desc>
<time>2011-03-24T17:16:52.48</time>
<name>5799</name>
</trkpt>
<trkpt lat="49.327478" lon="8.913185">
<ele>284.0</ele>
<speed>92.0</speed>
<course>11.2</course>
<desc>Speed 92.0 km/h Distance 121 km</desc>
<time>2011-03-24T17:16:54.48</time>
<name>5800</name>
</trkpt>
<trkpt lat="49.327912" lon="8.913317">
<ele>281.0</ele>
<speed>87.1</speed>
<course>1.7</course>
<desc>Speed 87.1 km/h Distance 121 km</desc>
<time>2011-03-24T17:16:56.49</time>
<name>5801</name>
</trkpt>
<trkpt lat="49.328325" lon="8.913335">
<ele>279.5</ele>
<speed>87.6</speed>
<course>348.7</course>
<desc>Speed 87.6 km/h Distance 121 km</desc>
<time>2011-03-24T17:16:58.48</time>
<name>5802</name>
</trkpt>
<trkpt lat="49.328763" lon="8.913200">
<ele>279.5</ele>
<speed>92.1</speed>
<course>339.7</course>
<desc>Speed 92.1 km/h Distance 121 km</desc>
<time>2011-03-24T17:17:00.47</time>
<name>5803</name>
</trkpt>
<trkpt lat="49.329165" lon="8.912972">
<ele>279.0</ele>
<speed>92.1</speed>
<course>332.3</course>
<desc>Speed 92.1 km/h Distance 121 km</desc>
<time>2011-03-24T17:17:02.48</time>
<name>5804</name>
</trkpt>
<trkpt lat="49.329515" lon="8.912690">
<ele>278.5</ele>
<speed>95.2</speed>
<course>335.6</course>
<desc>Speed 95.2 km/h Distance 121 km</desc>
<time>2011-03-24T17:17:04.48</time>
<name>5805</name>
</trkpt>
<trkpt lat="49.329982" lon="8.912365">
<ele>277.5</ele>
<speed>99.5</speed>
<course>339.4</course>
<desc>Speed 99.5 km/h Distance 121 km</desc>
<time>2011-03-24T17:17:06.47</time>
<name>5806</name>
</trkpt>
<trkpt lat="49.330477" lon="8.912080">
<ele>276.5</ele>
<speed>102</speed>
<course>336.6</course>
<desc>Speed 102 km/h Distance 122 km</desc>
<time>2011-03-24T17:17:08.48</time>
<name>5807</name>
</trkpt>
<trkpt lat="49.330955" lon="8.911762">
<ele>274.5</ele>
<speed>101</speed>
<course>331.5</course>
<desc>Speed 101 km/h Distance 122 km</desc>
<time>2011-03-24T17:17:10.49</time>
<name>5808</name>
</trkpt>
<trkpt lat="49.331475" lon="8.911328">
<ele>274.5</ele>
<speed>117</speed>
<course>333.3</course>
<desc>Speed 117 km/h Distance 122 km</desc>
<time>2011-03-24T17:17:12.48</time>
<name>5809</name>
</trkpt>
<trkpt lat="49.332022" lon="8.910907">
<ele>275.0</ele>
<speed>121</speed>
<course>333.5</course>
<desc>Speed 121 km/h Distance 122 km</desc>
<time>2011-03-24T17:17:14.48</time>
<name>5810</name>
</trkpt>
<trkpt lat="49.332497" lon="8.910543">
<ele>278.0</ele>
<speed>105</speed>
<course>332.6</course>
<desc>Speed 105 km/h Distance 122 km</desc>
<time>2011-03-24T17:17:16.47</time>
<name>5811</name>
</trkpt>
<trkpt lat="49.332902" lon="8.910222">
<ele>280.0</ele>
<speed>87.2</speed>
<course>335.1</course>
<desc>Speed 87.2 km/h Distance 122 km</desc>
<time>2011-03-24T17:17:18.46</time>
<name>5812</name>
</trkpt>
<trkpt lat="49.333248" lon="8.909975">
<ele>280.0</ele>
<speed>72.1</speed>
<course>338.3</course>
<desc>Speed 72.1 km/h Distance 122 km</desc>
<time>2011-03-24T17:17:20.46</time>
<name>5813</name>
</trkpt>
<trkpt lat="49.333568" lon="8.909780">
<ele>280.5</ele>
<speed>65.1</speed>
<course>337.2</course>
<desc>Speed 65.1 km/h Distance 122 km</desc>
<time>2011-03-24T17:17:22.46</time>
<name>5814</name>
</trkpt>
<trkpt lat="49.333878" lon="8.909580">
<ele>278.0</ele>
<speed>64.3</speed>
<course>338.3</course>
<desc>Speed 64.3 km/h Distance 122 km</desc>
<time>2011-03-24T17:17:24.46</time>
<name>5815</name>
</trkpt>
<trkpt lat="49.334102" lon="8.909443">
<ele>278.0</ele>
<speed>64.3</speed>
<course>11.9</course>
<desc>Speed 64.3 km/h Distance 122 km</desc>
<time>2011-03-24T17:17:26.47</time>
<name>5816</name>
</trkpt>
<trkpt lat="49.334370" lon="8.909530">
<ele>278.0</ele>
<speed>52.5</speed>
<course>38.8</course>
<desc>Speed 52.5 km/h Distance 122 km</desc>
<time>2011-03-24T17:17:28.47</time>
<name>5817</name>
</trkpt>
<trkpt lat="49.334607" lon="8.909822">
<ele>277.5</ele>
<speed>58.4</speed>
<course>62.1</course>
<desc>Speed 58.4 km/h Distance 122 km</desc>
<time>2011-03-24T17:17:30.47</time>
<name>5818</name>
</trkpt>
<trkpt lat="49.334755" lon="8.910252">
<ele>276.0</ele>
<speed>63.7</speed>
<course>58.3</course>
<desc>Speed 63.7 km/h Distance 122 km</desc>
<time>2011-03-24T17:17:32.47</time>
<name>5819</name>
</trkpt>
<trkpt lat="49.334910" lon="8.910637">
<ele>275.5</ele>
<speed>58.3</speed>
<course>58.8</course>
<desc>Speed 58.3 km/h Distance 122 km</desc>
<time>2011-03-24T17:17:34.46</time>
<name>5820</name>
</trkpt>
<trkpt lat="49.335048" lon="8.910987">
<ele>276.0</ele>
<speed>49.6</speed>
<course>52.9</course>
<desc>Speed 49.6 km/h Distance 122 km</desc>
<time>2011-03-24T17:17:36.46</time>
<name>5821</name>
</trkpt>
<trkpt lat="49.335178" lon="8.911250">
<ele>275.0</ele>
<speed>49.6</speed>
<course>27.0</course>
<desc>Speed 49.6 km/h Distance 122 km</desc>
<time>2011-03-24T17:17:38.46</time>
<name>5822</name>
</trkpt>
<trkpt lat="49.335317" lon="8.911358">
<ele>274.5</ele>
<speed>38.7</speed>
<course>340.9</course>
<desc>Speed 38.7 km/h Distance 122 km</desc>
<time>2011-03-24T17:17:40.46</time>
<name>5823</name>
</trkpt>
<trkpt lat="49.335552" lon="8.911233">
<ele>271.0</ele>
<speed>38.5</speed>
<course>326.2</course>
<desc>Speed 38.5 km/h Distance 122 km</desc>
<time>2011-03-24T17:17:42.46</time>
<name>5824</name>
</trkpt>
<trkpt lat="49.335735" lon="8.911045">
<ele>267.5</ele>
<speed>35.3</speed>
<course>297.3</course>
<desc>Speed 35.3 km/h Distance 122 km</desc>
<time>2011-03-24T17:17:44.46</time>
<name>5825</name>
</trkpt>
<trkpt lat="49.335788" lon="8.910887">
<ele>266.0</ele>
<speed>19.7</speed>
<course>284.5</course>
<desc>Speed 19.7 km/h Distance 122 km</desc>
<time>2011-03-24T17:17:46.46</time>
<name>5826</name>
</trkpt>
<trkpt lat="49.335810" lon="8.910758">
<ele>263.5</ele>
<speed>15.9</speed>
<course>222.0</course>
<desc>Speed 15.9 km/h Distance 122 km</desc>
<time>2011-03-24T17:17:48.46</time>
<name>5827</name>
</trkpt>
<trkpt lat="49.335740" lon="8.910662">
<ele>261.5</ele>
<speed>18.1</speed>
<course>216.0</course>
<desc>Speed 18.1 km/h Distance 122 km</desc>
<time>2011-03-24T17:17:50.46</time>
<name>5828</name>
</trkpt>
<trkpt lat="49.335638" lon="8.910548">
<ele>261.5</ele>
<speed>31.5</speed>
<course>223.3</course>
<desc>Speed 31.5 km/h Distance 122 km</desc>
<time>2011-03-24T17:17:52.45</time>
<name>5829</name>
</trkpt>
<trkpt lat="49.335512" lon="8.910365">
<ele>261.0</ele>
<speed>38.1</speed>
<course>226.1</course>
<desc>Speed 38.1 km/h Distance 122 km</desc>
<time>2011-03-24T17:17:54.45</time>
<name>5830</name>
</trkpt>
<trkpt lat="49.335400" lon="8.910187">
<ele>261.0</ele>
<speed>38.1</speed>
<course>231.1</course>
<desc>Speed 38.1 km/h Distance 122 km</desc>
<time>2011-03-24T17:17:56.45</time>
<name>5831</name>
</trkpt>
<trkpt lat="49.335297" lon="8.909990">
<ele>261.0</ele>
<speed>38.1</speed>
<course>232.8</course>
<desc>Speed 38.1 km/h Distance 122 km</desc>
<time>2011-03-24T17:17:58.93</time>
<name>5832</name>
</trkpt>
<trkpt lat="49.335218" lon="8.909832">
<ele>260.5</ele>
<speed>33.9</speed>
<course>242.9</course>
<desc>Speed 33.9 km/h Distance 122 km</desc>
<time>2011-03-24T17:18:00.43</time>
<name>5833</name>
</trkpt>
<trkpt lat="49.335163" lon="8.909667">
<ele>262.5</ele>
<speed>21.2</speed>
<course>244.3</course>
<desc>Speed 21.2 km/h Distance 122 km</desc>
<time>2011-03-24T17:18:02.43</time>
<name>5834</name>
</trkpt>
<trkpt lat="49.335110" lon="8.909497">
<ele>262.0</ele>
<speed>14.6</speed>
<course>257.8</course>
<desc>Speed 14.6 km/h Distance 122 km</desc>
<time>2011-03-24T17:18:04.43</time>
<name>5835</name>
</trkpt>
<trkpt lat="49.335087" lon="8.909332">
<ele>260.5</ele>
<speed>15.4</speed>
<course>287.9</course>
<desc>Speed 15.4 km/h Distance 122 km</desc>
<time>2011-03-24T17:18:06.43</time>
<name>5836</name>
</trkpt>
<trkpt lat="49.335093" lon="8.909300">
<ele>258.0</ele>
<speed>4.8</speed>
<course>222.8</course>
<desc>Speed 4.8 km/h Distance 122 km</desc>
<time>2011-03-24T17:18:08.42</time>
<name>5837</name>
</trkpt>
<trkpt lat="49.335062" lon="8.909255">
<ele>258.5</ele>
<speed>5.5</speed>
<course>152.0</course>
<desc>Speed 5.5 km/h Distance 122 km</desc>
<time>2011-03-24T17:18:10.43</time>
<name>5838</name>
</trkpt>
<trkpt lat="49.335017" lon="8.909292">
<ele>259.0</ele>
<speed>10.5</speed>
<course>62.0</course>
<desc>Speed 10.5 km/h Distance 122 km</desc>
<time>2011-03-24T17:18:12.42</time>
<name>5839</name>
</trkpt>
<trkpt lat="49.335045" lon="8.909373">
<ele>260.0</ele>
<speed>17.4</speed>
<course>108.4</course>
<desc>Speed 17.4 km/h Distance 122 km</desc>
<time>2011-03-24T17:18:14.43</time>
<name>5840</name>
</trkpt>
<trkpt lat="49.335015" lon="8.909512">
<ele>259.0</ele>
<speed>17.4</speed>
<course>106.5</course>
<desc>Speed 17.4 km/h Distance 122 km</desc>
<time>2011-03-24T17:18:16.42</time>
<name>5841</name>
</trkpt>
<trkpt lat="49.334997" lon="8.909607">
<ele>259.5</ele>
<speed>17.4</speed>
<course>59.7</course>
<desc>Speed 17.4 km/h Distance 122 km</desc>
<time>2011-03-24T17:18:18.43</time>
<name>5842</name>
</trkpt>
<trkpt lat="49.335072" lon="8.909803">
<ele>260.0</ele>
<speed>43.8</speed>
<course>49.4</course>
<desc>Speed 43.8 km/h Distance 122 km</desc>
<time>2011-03-24T17:18:20.43</time>
<name>5843</name>
</trkpt>
<trkpt lat="49.335240" lon="8.910105">
<ele>257.5</ele>
<speed>45.5</speed>
<course>49.5</course>
<desc>Speed 45.5 km/h Distance 122 km</desc>
<time>2011-03-24T17:18:22.43</time>
<name>5844</name>
</trkpt>
<trkpt lat="49.335405" lon="8.910402">
<ele>253.5</ele>
<speed>40.2</speed>
<course>48.6</course>
<desc>Speed 40.2 km/h Distance 123 km</desc>
<time>2011-03-24T17:18:24.43</time>
<name>5845</name>
</trkpt>
<trkpt lat="49.335513" lon="8.910590">
<ele>253.5</ele>
<speed>20.4</speed>
<course>36.2</course>
<desc>Speed 20.4 km/h Distance 123 km</desc>
<time>2011-03-24T17:18:26.42</time>
<name>5846</name>
</trkpt>
<trkpt lat="49.335580" lon="8.910665">
<ele>252.0</ele>
<speed>10.7</speed>
<course>3.5</course>
<desc>Speed 10.7 km/h Distance 123 km</desc>
<time>2011-03-24T17:18:28.42</time>
<name>5847</name>
</trkpt>
<trkpt lat="49.335755" lon="8.910682">
<ele>252.0</ele>
<speed>37.5</speed>
<course>356.4</course>
<desc>Speed 37.5 km/h Distance 123 km</desc>
<time>2011-03-24T17:18:30.42</time>
<name>5848</name>
</trkpt>
<trkpt lat="49.335960" lon="8.910662">
<ele>253.5</ele>
<speed>37.5</speed>
<course>344.3</course>
<desc>Speed 37.5 km/h Distance 123 km</desc>
<time>2011-03-24T17:18:32.41</time>
<name>5849</name>
</trkpt>
<trkpt lat="49.336145" lon="8.910582">
<ele>255.5</ele>
<speed>35.2</speed>
<course>344.2</course>
<desc>Speed 35.2 km/h Distance 123 km</desc>
<time>2011-03-24T17:18:34.42</time>
<name>5850</name>
</trkpt>
<trkpt lat="49.336348" lon="8.910493">
<ele>256.0</ele>
<speed>35.9</speed>
<course>343.3</course>
<desc>Speed 35.9 km/h Distance 123 km</desc>
<time>2011-03-24T17:18:36.42</time>
<name>5851</name>
</trkpt>
<trkpt lat="49.336518" lon="8.910415">
<ele>256.0</ele>
<speed>30.3</speed>
<course>341.7</course>
<desc>Speed 30.3 km/h Distance 123 km</desc>
<time>2011-03-24T17:18:38.42</time>
<name>5852</name>
</trkpt>
<trkpt lat="49.336647" lon="8.910350">
<ele>256.0</ele>
<speed>23.1</speed>
<course>343.5</course>
<desc>Speed 23.1 km/h Distance 123 km</desc>
<time>2011-03-24T17:18:40.41</time>
<name>5853</name>
</trkpt>
<trkpt lat="49.336702" lon="8.910325">
<ele>257.5</ele>
<speed>8.6</speed>
<course>348.5</course>
<desc>Speed 8.6 km/h Distance 123 km</desc>
<time>2011-03-24T17:18:42.42</time>
<name>5854</name>
</trkpt>
<trkpt lat="49.336728" lon="8.910317">
<ele>257.5</ele>
<speed>2.6</speed>
<course>347.4</course>
<desc>Speed 2.6 km/h Distance 123 km</desc>
<time>2011-03-24T17:18:44.41</time>
<name>5855</name>
</trkpt>
<trkpt lat="49.336733" lon="8.910315">
<ele>257.5</ele>
<speed>0.5</speed>
<course>336.2</course>
<desc>Speed 0.5 km/h Distance 123 km</desc>
<time>2011-03-24T17:18:46.42</time>
<name>5856</name>
</trkpt>
<trkpt lat="49.336738" lon="8.910312">
<ele>257.0</ele>
<speed>0.1</speed>
<course>349.1</course>
<desc>Speed 0.1 km/h Distance 123 km</desc>
<time>2011-03-24T17:18:48.41</time>
<name>5857</name>
</trkpt>
<trkpt lat="49.336783" lon="8.910298">
<ele>256.5</ele>
<speed>14.9</speed>
<course>349.7</course>
<desc>Speed 14.9 km/h Distance 123 km</desc>
<time>2011-03-24T17:18:50.40</time>
<name>5858</name>
</trkpt>
<trkpt lat="49.336873" lon="8.910273">
<ele>256.0</ele>
<speed>22.8</speed>
<course>316.4</course>
<desc>Speed 22.8 km/h Distance 123 km</desc>
<time>2011-03-24T17:18:52.41</time>
<name>5859</name>
</trkpt>
<trkpt lat="49.336957" lon="8.910152">
<ele>255.0</ele>
<speed>21.7</speed>
<course>304.9</course>
<desc>Speed 21.7 km/h Distance 123 km</desc>
<time>2011-03-24T17:18:54.41</time>
<name>5860</name>
</trkpt>
<trkpt lat="49.337032" lon="8.909987">
<ele>256.0</ele>
<speed>29.7</speed>
<course>309.1</course>
<desc>Speed 29.7 km/h Distance 123 km</desc>
<time>2011-03-24T17:18:56.41</time>
<name>5861</name>
</trkpt>
<trkpt lat="49.337137" lon="8.909788">
<ele>256.0</ele>
<speed>36.1</speed>
<course>312.6</course>
<desc>Speed 36.1 km/h Distance 123 km</desc>
<time>2011-03-24T17:18:58.40</time>
<name>5862</name>
</trkpt>
<trkpt lat="49.337227" lon="8.909638">
<ele>256.0</ele>
<speed>36.1</speed>
<course>316.1</course>
<desc>Speed 36.1 km/h Distance 123 km</desc>
<time>2011-03-24T17:19:00.40</time>
<name>5863</name>
</trkpt>
<trkpt lat="49.337332" lon="8.909483">
<ele>256.0</ele>
<speed>36.1</speed>
<course>322.0</course>
<desc>Speed 36.1 km/h Distance 123 km</desc>
<time>2011-03-24T17:19:02.41</time>
<name>5864</name>
</trkpt>
<trkpt lat="49.337515" lon="8.909263">
<ele>256.0</ele>
<speed>41.3</speed>
<course>323.5</course>
<desc>Speed 41.3 km/h Distance 123 km</desc>
<time>2011-03-24T17:19:04.40</time>
<name>5865</name>
</trkpt>
<trkpt lat="49.337685" lon="8.909070">
<ele>256.5</ele>
<speed>39.1</speed>
<course>332.0</course>
<desc>Speed 39.1 km/h Distance 123 km</desc>
<time>2011-03-24T17:19:06.40</time>
<name>5866</name>
</trkpt>
<trkpt lat="49.337875" lon="8.908915">
<ele>257.0</ele>
<speed>39.1</speed>
<course>329.8</course>
<desc>Speed 39.1 km/h Distance 123 km</desc>
<time>2011-03-24T17:19:08.40</time>
<name>5867</name>
</trkpt>
<trkpt lat="49.338090" lon="8.908723">
<ele>257.5</ele>
<speed>49.0</speed>
<course>330.6</course>
<desc>Speed 49.0 km/h Distance 123 km</desc>
<time>2011-03-24T17:19:10.40</time>
<name>5868</name>
</trkpt>
<trkpt lat="49.338287" lon="8.908553">
<ele>257.5</ele>
<speed>44.2</speed>
<course>331.9</course>
<desc>Speed 44.2 km/h Distance 123 km</desc>
<time>2011-03-24T17:19:12.40</time>
<name>5869</name>
</trkpt>
<trkpt lat="49.338488" lon="8.908388">
<ele>258.0</ele>
<speed>43.6</speed>
<course>333.6</course>
<desc>Speed 43.6 km/h Distance 123 km</desc>
<time>2011-03-24T17:19:14.40</time>
<name>5870</name>
</trkpt>
<trkpt lat="49.338692" lon="8.908233">
<ele>257.5</ele>
<speed>43.4</speed>
<course>323.9</course>
<desc>Speed 43.4 km/h Distance 123 km</desc>
<time>2011-03-24T17:19:16.40</time>
<name>5871</name>
</trkpt>
<trkpt lat="49.338877" lon="8.908027">
<ele>258.0</ele>
<speed>45.2</speed>
<course>303.3</course>
<desc>Speed 45.2 km/h Distance 123 km</desc>
<time>2011-03-24T17:19:18.39</time>
<name>5872</name>
</trkpt>
<trkpt lat="49.339007" lon="8.907723">
<ele>258.0</ele>
<speed>47.3</speed>
<course>297.1</course>
<desc>Speed 47.3 km/h Distance 123 km</desc>
<time>2011-03-24T17:19:20.40</time>
<name>5873</name>
</trkpt>
<trkpt lat="49.339132" lon="8.907348">
<ele>257.5</ele>
<speed>51.7</speed>
<course>298.1</course>
<desc>Speed 51.7 km/h Distance 123 km</desc>
<time>2011-03-24T17:19:22.40</time>
<name>5874</name>
</trkpt>
<trkpt lat="49.339270" lon="8.906950">
<ele>258.0</ele>
<speed>59.5</speed>
<course>297.9</course>
<desc>Speed 59.5 km/h Distance 123 km</desc>
<time>2011-03-24T17:19:24.39</time>
<name>5875</name>
</trkpt>
<trkpt lat="49.339420" lon="8.906515">
<ele>258.0</ele>
<speed>64.6</speed>
<course>297.0</course>
<desc>Speed 64.6 km/h Distance 123 km</desc>
<time>2011-03-24T17:19:26.39</time>
<name>5876</name>
</trkpt>
<trkpt lat="49.339570" lon="8.906063">
<ele>259.0</ele>
<speed>65.2</speed>
<course>301.8</course>
<desc>Speed 65.2 km/h Distance 123 km</desc>
<time>2011-03-24T17:19:28.40</time>
<name>5877</name>
</trkpt>
<trkpt lat="49.339745" lon="8.905630">
<ele>259.0</ele>
<speed>66.5</speed>
<course>295.1</course>
<desc>Speed 66.5 km/h Distance 123 km</desc>
<time>2011-03-24T17:19:30.40</time>
<name>5878</name>
</trkpt>
<trkpt lat="49.339857" lon="8.905263">
<ele>259.0</ele>
<speed>66.5</speed>
<course>295.5</course>
<desc>Speed 66.5 km/h Distance 123 km</desc>
<time>2011-03-24T17:19:32.39</time>
<name>5879</name>
</trkpt>
<trkpt lat="49.339947" lon="8.904973">
<ele>258.5</ele>
<speed>66.5</speed>
<course>287.0</course>
<desc>Speed 66.5 km/h Distance 123 km</desc>
<time>2011-03-24T17:19:34.39</time>
<name>5880</name>
</trkpt>
<trkpt lat="49.340042" lon="8.904497">
<ele>260.0</ele>
<speed>69.8</speed>
<course>276.9</course>
<desc>Speed 69.8 km/h Distance 123 km</desc>
<time>2011-03-24T17:19:36.39</time>
<name>5881</name>
</trkpt>
<trkpt lat="49.340092" lon="8.903862">
<ele>263.5</ele>
<speed>67.6</speed>
<course>268.8</course>
<desc>Speed 67.6 km/h Distance 123 km</desc>
<time>2011-03-24T17:19:38.40</time>
<name>5882</name>
</trkpt>
<trkpt lat="49.340083" lon="8.903255">
<ele>263.5</ele>
<speed>73.8</speed>
<course>271.2</course>
<desc>Speed 73.8 km/h Distance 123 km</desc>
<time>2011-03-24T17:19:40.39</time>
<name>5883</name>
</trkpt>
<trkpt lat="49.340092" lon="8.902638">
<ele>264.0</ele>
<speed>79.8</speed>
<course>283.1</course>
<desc>Speed 79.8 km/h Distance 123 km</desc>
<time>2011-03-24T17:19:42.39</time>
<name>5884</name>
</trkpt>
<trkpt lat="49.340193" lon="8.901967">
<ele>263.0</ele>
<speed>94.8</speed>
<course>283.9</course>
<desc>Speed 94.8 km/h Distance 123 km</desc>
<time>2011-03-24T17:19:44.39</time>
<name>5885</name>
</trkpt>
<trkpt lat="49.340322" lon="8.901173">
<ele>265.5</ele>
<speed>108</speed>
<course>290.5</course>
<desc>Speed 108 km/h Distance 124 km</desc>
<time>2011-03-24T17:19:46.39</time>
<name>5886</name>
</trkpt>
<trkpt lat="49.340532" lon="8.900310">
<ele>268.0</ele>
<speed>125</speed>
<course>290.9</course>
<desc>Speed 125 km/h Distance 124 km</desc>
<time>2011-03-24T17:19:50.57</time>
<name>5887</name>
</trkpt>
<trkpt lat="49.341065" lon="8.898163">
<ele>272.0</ele>
<speed>125</speed>
<course>283.0</course>
<desc>Speed 125 km/h Distance 124 km</desc>
<time>2011-03-24T17:19:54.41</time>
<name>5888</name>
</trkpt>
<trkpt lat="49.341135" lon="8.897697">
<ele>270.5</ele>
<speed>114</speed>
<course>277.7</course>
<desc>Speed 114 km/h Distance 124 km</desc>
<time>2011-03-24T17:19:55.43</time>
<name>5889</name>
</trkpt>
<trkpt lat="49.341172" lon="8.897280">
<ele>271.5</ele>
<speed>101</speed>
<course>281.2</course>
<desc>Speed 101 km/h Distance 124 km</desc>
<time>2011-03-24T17:19:56.40</time>
<name>5890</name>
</trkpt>
<trkpt lat="49.341267" lon="8.896542">
<ele>275.5</ele>
<speed>101</speed>
<course>275.1</course>
<desc>Speed 101 km/h Distance 124 km</desc>
<time>2011-03-24T17:19:58.39</time>
<name>5891</name>
</trkpt>
<trkpt lat="49.341312" lon="8.895770">
<ele>282.5</ele>
<speed>59.3</speed>
<course>283.9</course>
<desc>Speed 59.3 km/h Distance 124 km</desc>
<time>2011-03-24T17:20:01.40</time>
<name>5892</name>
</trkpt>
<trkpt lat="49.341347" lon="8.895553">
<ele>284.0</ele>
<speed>59.3</speed>
<course>297.5</course>
<desc>Speed 59.3 km/h Distance 124 km</desc>
<time>2011-03-24T17:20:02.38</time>
<name>5893</name>
</trkpt>
<trkpt lat="49.341412" lon="8.895362">
<ele>284.5</ele>
<speed>59.3</speed>
<course>295.1</course>
<desc>Speed 59.3 km/h Distance 124 km</desc>
<time>2011-03-24T17:20:03.38</time>
<name>5894</name>
</trkpt>
<trkpt lat="49.341702" lon="8.894412">
<ele>283.5</ele>
<speed>89.8</speed>
<course>294.9</course>
<desc>Speed 89.8 km/h Distance 124 km</desc>
<time>2011-03-24T17:20:06.38</time>
<name>5895</name>
</trkpt>
<trkpt lat="49.341900" lon="8.893755">
<ele>280.5</ele>
<speed>106</speed>
<course>291.2</course>
<desc>Speed 106 km/h Distance 124 km</desc>
<time>2011-03-24T17:20:08.37</time>
<name>5896</name>
</trkpt>
<trkpt lat="49.341993" lon="8.893385">
<ele>280.0</ele>
<speed>106</speed>
<course>288.6</course>
<desc>Speed 106 km/h Distance 124 km</desc>
<time>2011-03-24T17:20:09.38</time>
<name>5897</name>
</trkpt>
<trkpt lat="49.342077" lon="8.893005">
<ele>279.5</ele>
<speed>106</speed>
<course>288.7</course>
<desc>Speed 106 km/h Distance 124 km</desc>
<time>2011-03-24T17:20:10.37</time>
<name>5898</name>
</trkpt>
<trkpt lat="49.342387" lon="8.891598">
<ele>282.0</ele>
<speed>88.8</speed>
<course>289.7</course>
<desc>Speed 88.8 km/h Distance 124 km</desc>
<time>2011-03-24T17:20:13.36</time>
<name>5899</name>
</trkpt>
<trkpt lat="49.342465" lon="8.891263">
<ele>281.0</ele>
<speed>86.9</speed>
<course>299.5</course>
<desc>Speed 86.9 km/h Distance 124 km</desc>
<time>2011-03-24T17:20:14.36</time>
<name>5900</name>
</trkpt>
<trkpt lat="49.342682" lon="8.890675">
<ele>281.0</ele>
<speed>80.6</speed>
<course>300.3</course>
<desc>Speed 80.6 km/h Distance 124 km</desc>
<time>2011-03-24T17:20:16.37</time>
<name>5901</name>
</trkpt>
<trkpt lat="49.342790" lon="8.890390">
<ele>282.0</ele>
<speed>83.3</speed>
<course>307.3</course>
<desc>Speed 83.3 km/h Distance 124 km</desc>
<time>2011-03-24T17:20:17.40</time>
<name>5902</name>
</trkpt>
<trkpt lat="49.343072" lon="8.889823">
<ele>283.0</ele>
<speed>87.2</speed>
<course>316.3</course>
<desc>Speed 87.2 km/h Distance 124 km</desc>
<time>2011-03-24T17:20:19.38</time>
<name>5903</name>
</trkpt>
<trkpt lat="49.343372" lon="8.889383">
<ele>283.0</ele>
<speed>82.4</speed>
<course>326.6</course>
<desc>Speed 82.4 km/h Distance 124 km</desc>
<time>2011-03-24T17:20:21.36</time>
<name>5904</name>
</trkpt>
<trkpt lat="49.343685" lon="8.889067">
<ele>280.0</ele>
<speed>75.0</speed>
<course>336.8</course>
<desc>Speed 75.0 km/h Distance 124 km</desc>
<time>2011-03-24T17:20:23.36</time>
<name>5905</name>
</trkpt>
<trkpt lat="49.344017" lon="8.888848">
<ele>279.5</ele>
<speed>63.0</speed>
<course>341.5</course>
<desc>Speed 63.0 km/h Distance 125 km</desc>
<time>2011-03-24T17:20:25.36</time>
<name>5906</name>
</trkpt>
<trkpt lat="49.344240" lon="8.888733">
<ele>279.5</ele>
<speed>63.0</speed>
<course>347.6</course>
<desc>Speed 63.0 km/h Distance 125 km</desc>
<time>2011-03-24T17:20:27.35</time>
<name>5907</name>
</trkpt>
<trkpt lat="49.344477" lon="8.888653">
<ele>279.5</ele>
<speed>63.0</speed>
<course>19.5</course>
<desc>Speed 63.0 km/h Distance 125 km</desc>
<time>2011-03-24T17:20:30.36</time>
<name>5908</name>
</trkpt>
<trkpt lat="49.344593" lon="8.888717">
<ele>280.5</ele>
<speed>63.0</speed>
<course>324.5</course>
<desc>Speed 63.0 km/h Distance 125 km</desc>
<time>2011-03-24T17:20:36.32</time>
<name>5909</name>
</trkpt>
<trkpt lat="49.345488" lon="8.887737">
<ele>273.0</ele>
<speed>51.7</speed>
<course>292.4</course>
<desc>Speed 51.7 km/h Distance 125 km</desc>
<time>2011-03-24T17:20:40.33</time>
<name>5910</name>
</trkpt>
<trkpt lat="49.345618" lon="8.887253">
<ele>272.0</ele>
<speed>56.9</speed>
<course>265.9</course>
<desc>Speed 56.9 km/h Distance 125 km</desc>
<time>2011-03-24T17:20:42.33</time>
<name>5911</name>
</trkpt>
<trkpt lat="49.345595" lon="8.886757">
<ele>271.5</ele>
<speed>56.9</speed>
<course>258.8</course>
<desc>Speed 56.9 km/h Distance 125 km</desc>
<time>2011-03-24T17:20:44.33</time>
<name>5912</name>
</trkpt>
<trkpt lat="49.345543" lon="8.886355">
<ele>270.5</ele>
<speed>53.5</speed>
<course>255.2</course>
<desc>Speed 53.5 km/h Distance 125 km</desc>
<time>2011-03-24T17:20:46.33</time>
<name>5913</name>
</trkpt>
<trkpt lat="49.345490" lon="8.886045">
<ele>266.5</ele>
<speed>46.5</speed>
<course>262.2</course>
<desc>Speed 46.5 km/h Distance 125 km</desc>
<time>2011-03-24T17:20:48.33</time>
<name>5914</name>
</trkpt>
<trkpt lat="49.345463" lon="8.885745">
<ele>265.0</ele>
<speed>37.5</speed>
<course>284.9</course>
<desc>Speed 37.5 km/h Distance 125 km</desc>
<time>2011-03-24T17:20:50.32</time>
<name>5915</name>
</trkpt>
<trkpt lat="49.345512" lon="8.885467">
<ele>262.0</ele>
<speed>41.9</speed>
<course>308.7</course>
<desc>Speed 41.9 km/h Distance 125 km</desc>
<time>2011-03-24T17:20:52.32</time>
<name>5916</name>
</trkpt>
<trkpt lat="49.345673" lon="8.885157">
<ele>261.5</ele>
<speed>52.5</speed>
<course>315.5</course>
<desc>Speed 52.5 km/h Distance 125 km</desc>
<time>2011-03-24T17:20:54.32</time>
<name>5917</name>
</trkpt>
<trkpt lat="49.345863" lon="8.884870">
<ele>262.0</ele>
<speed>48.5</speed>
<course>313.9</course>
<desc>Speed 48.5 km/h Distance 125 km</desc>
<time>2011-03-24T17:20:56.32</time>
<name>5918</name>
</trkpt>
<trkpt lat="49.346015" lon="8.884628">
<ele>261.0</ele>
<speed>36.1</speed>
<course>314.5</course>
<desc>Speed 36.1 km/h Distance 125 km</desc>
<time>2011-03-24T17:20:58.32</time>
<name>5919</name>
</trkpt>
<trkpt lat="49.346125" lon="8.884457">
<ele>262.5</ele>
<speed>30.5</speed>
<course>334.1</course>
<desc>Speed 30.5 km/h Distance 125 km</desc>
<time>2011-03-24T17:21:00.32</time>
<name>5920</name>
</trkpt>
<trkpt lat="49.346203" lon="8.884398">
<ele>262.5</ele>
<speed>11.7</speed>
<course>4.2</course>
<desc>Speed 11.7 km/h Distance 125 km</desc>
<time>2011-03-24T17:21:02.32</time>
<name>5921</name>
</trkpt>
<trkpt lat="49.346277" lon="8.884407">
<ele>260.5</ele>
<speed>19.1</speed>
<course>26.0</course>
<desc>Speed 19.1 km/h Distance 125 km</desc>
<time>2011-03-24T17:21:04.32</time>
<name>5922</name>
</trkpt>
<trkpt lat="49.346403" lon="8.884502">
<ele>250.0</ele>
<speed>19.1</speed>
<course>28.9</course>
<desc>Speed 19.1 km/h Distance 125 km</desc>
<time>2011-03-24T17:21:06.32</time>
<name>5923</name>
</trkpt>
<trkpt lat="49.346567" lon="8.884640">
<ele>247.0</ele>
<speed>41.5</speed>
<course>15.1</course>
<desc>Speed 41.5 km/h Distance 125 km</desc>
<time>2011-03-24T17:21:08.32</time>
<name>5924</name>
</trkpt>
<trkpt lat="49.346852" lon="8.884758">
<ele>244.5</ele>
<speed>56.7</speed>
<course>11.8</course>
<desc>Speed 56.7 km/h Distance 125 km</desc>
<time>2011-03-24T17:21:10.32</time>
<name>5925</name>
</trkpt>
<trkpt lat="49.347080" lon="8.884832">
<ele>244.5</ele>
<speed>41.6</speed>
<course>11.2</course>
<desc>Speed 41.6 km/h Distance 125 km</desc>
<time>2011-03-24T17:21:12.31</time>
<name>5926</name>
</trkpt>
<trkpt lat="49.347332" lon="8.884908">
<ele>245.0</ele>
<speed>40.5</speed>
<course>334.1</course>
<desc>Speed 40.5 km/h Distance 125 km</desc>
<time>2011-03-24T17:21:14.31</time>
<name>5927</name>
</trkpt>
<trkpt lat="49.347508" lon="8.884777">
<ele>244.5</ele>
<speed>40.5</speed>
<course>309.7</course>
<desc>Speed 40.5 km/h Distance 125 km</desc>
<time>2011-03-24T17:21:16.32</time>
<name>5928</name>
</trkpt>
<trkpt lat="49.347675" lon="8.884468">
<ele>244.5</ele>
<speed>54.4</speed>
<course>308.4</course>
<desc>Speed 54.4 km/h Distance 125 km</desc>
<time>2011-03-24T17:21:18.32</time>
<name>5929</name>
</trkpt>
<trkpt lat="49.347865" lon="8.884100">
<ele>246.0</ele>
<speed>59.8</speed>
<course>306.5</course>
<desc>Speed 59.8 km/h Distance 125 km</desc>
<time>2011-03-24T17:21:20.31</time>
<name>5930</name>
</trkpt>
<trkpt lat="49.348063" lon="8.883688">
<ele>246.5</ele>
<speed>66.4</speed>
<course>305.3</course>
<desc>Speed 66.4 km/h Distance 125 km</desc>
<time>2011-03-24T17:21:22.30</time>
<name>5931</name>
</trkpt>
<trkpt lat="49.348288" lon="8.883200">
<ele>245.0</ele>
<speed>81.8</speed>
<course>304.3</course>
<desc>Speed 81.8 km/h Distance 125 km</desc>
<time>2011-03-24T17:21:24.31</time>
<name>5932</name>
</trkpt>
<trkpt lat="49.348520" lon="8.882678">
<ele>245.0</ele>
<speed>81.8</speed>
<course>310.5</course>
<desc>Speed 81.8 km/h Distance 125 km</desc>
<time>2011-03-24T17:21:26.31</time>
<name>5933</name>
</trkpt>
<trkpt lat="49.348793" lon="8.882187">
<ele>245.5</ele>
<speed>83.7</speed>
<course>316.1</course>
<desc>Speed 83.7 km/h Distance 125 km</desc>
<time>2011-03-24T17:21:28.31</time>
<name>5934</name>
</trkpt>
<trkpt lat="49.349092" lon="8.881747">
<ele>246.0</ele>
<speed>82.3</speed>
<course>321.8</course>
<desc>Speed 82.3 km/h Distance 125 km</desc>
<time>2011-03-24T17:21:30.30</time>
<name>5935</name>
</trkpt>
<trkpt lat="49.349452" lon="8.881312">
<ele>247.0</ele>
<speed>90.4</speed>
<course>327.8</course>
<desc>Speed 90.4 km/h Distance 125 km</desc>
<time>2011-03-24T17:21:32.30</time>
<name>5936</name>
</trkpt>
<trkpt lat="49.349875" lon="8.880902">
<ele>251.0</ele>
<speed>103</speed>
<course>333.5</course>
<desc>Speed 103 km/h Distance 126 km</desc>
<time>2011-03-24T17:21:34.31</time>
<name>5937</name>
</trkpt>
<trkpt lat="49.350360" lon="8.880530">
<ele>254.5</ele>
<speed>108</speed>
<course>331.4</course>
<desc>Speed 108 km/h Distance 126 km</desc>
<time>2011-03-24T17:21:36.30</time>
<name>5938</name>
</trkpt>
<trkpt lat="49.350835" lon="8.880132">
<ele>258.0</ele>
<speed>108</speed>
<course>331.3</course>
<desc>Speed 108 km/h Distance 126 km</desc>
<time>2011-03-24T17:21:38.30</time>
<name>5939</name>
</trkpt>
<trkpt lat="49.351315" lon="8.879728">
<ele>260.0</ele>
<speed>112</speed>
<course>325.5</course>
<desc>Speed 112 km/h Distance 126 km</desc>
<time>2011-03-24T17:21:40.30</time>
<name>5940</name>
</trkpt>
<trkpt lat="49.351803" lon="8.879213">
<ele>260.0</ele>
<speed>123</speed>
<course>321.4</course>
<desc>Speed 123 km/h Distance 126 km</desc>
<time>2011-03-24T17:21:42.30</time>
<name>5941</name>
</trkpt>
<trkpt lat="49.352232" lon="8.878688">
<ele>262.0</ele>
<speed>108</speed>
<course>319.9</course>
<desc>Speed 108 km/h Distance 126 km</desc>
<time>2011-03-24T17:21:44.30</time>
<name>5942</name>
</trkpt>
<trkpt lat="49.352620" lon="8.878187">
<ele>262.5</ele>
<speed>99.0</speed>
<course>326.6</course>
<desc>Speed 99.0 km/h Distance 126 km</desc>
<time>2011-03-24T17:21:46.30</time>
<name>5943</name>
</trkpt>
<trkpt lat="49.353013" lon="8.877788">
<ele>262.5</ele>
<speed>86.0</speed>
<course>337.4</course>
<desc>Speed 86.0 km/h Distance 126 km</desc>
<time>2011-03-24T17:21:48.30</time>
<name>5944</name>
</trkpt>
<trkpt lat="49.353407" lon="8.877537">
<ele>261.5</ele>
<speed>84.3</speed>
<course>343.3</course>
<desc>Speed 84.3 km/h Distance 126 km</desc>
<time>2011-03-24T17:21:50.30</time>
<name>5945</name>
</trkpt>
<trkpt lat="49.353808" lon="8.877352">
<ele>261.5</ele>
<speed>100</speed>
<course>345.6</course>
<desc>Speed 100 km/h Distance 126 km</desc>
<time>2011-03-24T17:21:52.30</time>
<name>5946</name>
</trkpt>
<trkpt lat="49.354268" lon="8.877170">
<ele>257.5</ele>
<speed>92.4</speed>
<course>337.5</course>
<desc>Speed 92.4 km/h Distance 126 km</desc>
<time>2011-03-24T17:21:54.30</time>
<name>5947</name>
</trkpt>
<trkpt lat="49.354688" lon="8.876903">
<ele>256.5</ele>
<speed>88.3</speed>
<course>330.0</course>
<desc>Speed 88.3 km/h Distance 126 km</desc>
<time>2011-03-24T17:21:56.30</time>
<name>5948</name>
</trkpt>
<trkpt lat="49.355025" lon="8.876605">
<ele>256.5</ele>
<speed>83.3</speed>
<course>323.7</course>
<desc>Speed 83.3 km/h Distance 126 km</desc>
<time>2011-03-24T17:21:58.29</time>
<name>5949</name>
</trkpt>
<trkpt lat="49.355372" lon="8.876213">
<ele>256.5</ele>
<speed>86.0</speed>
<course>320.2</course>
<desc>Speed 86.0 km/h Distance 126 km</desc>
<time>2011-03-24T17:22:00.30</time>
<name>5950</name>
</trkpt>
<trkpt lat="49.355682" lon="8.875817">
<ele>253.0</ele>
<speed>79.9</speed>
<course>313.3</course>
<desc>Speed 79.9 km/h Distance 126 km</desc>
<time>2011-03-24T17:22:02.30</time>
<name>5951</name>
</trkpt>
<trkpt lat="49.355955" lon="8.875372">
<ele>252.0</ele>
<speed>76.9</speed>
<course>294.9</course>
<desc>Speed 76.9 km/h Distance 126 km</desc>
<time>2011-03-24T17:22:04.30</time>
<name>5952</name>
</trkpt>
<trkpt lat="49.356108" lon="8.874865">
<ele>252.0</ele>
<speed>71.8</speed>
<course>274.2</course>
<desc>Speed 71.8 km/h Distance 126 km</desc>
<time>2011-03-24T17:22:06.29</time>
<name>5953</name>
</trkpt>
<trkpt lat="49.356133" lon="8.874342">
<ele>252.0</ele>
<speed>67.5</speed>
<course>251.7</course>
<desc>Speed 67.5 km/h Distance 126 km</desc>
<time>2011-03-24T17:22:08.28</time>
<name>5954</name>
</trkpt>
<trkpt lat="49.356032" lon="8.873870">
<ele>253.5</ele>
<speed>66.1</speed>
<course>242.6</course>
<desc>Speed 66.1 km/h Distance 126 km</desc>
<time>2011-03-24T17:22:10.28</time>
<name>5955</name>
</trkpt>
<trkpt lat="49.355903" lon="8.873490">
<ele>253.5</ele>
<speed>56.2</speed>
<course>244.1</course>
<desc>Speed 56.2 km/h Distance 126 km</desc>
<time>2011-03-24T17:22:12.29</time>
<name>5956</name>
</trkpt>
<trkpt lat="49.355788" lon="8.873127">
<ele>253.5</ele>
<speed>52.4</speed>
<course>252.0</course>
<desc>Speed 52.4 km/h Distance 127 km</desc>
<time>2011-03-24T17:22:14.29</time>
<name>5957</name>
</trkpt>
<trkpt lat="49.355710" lon="8.872757">
<ele>252.5</ele>
<speed>51.3</speed>
<course>267.1</course>
<desc>Speed 51.3 km/h Distance 127 km</desc>
<time>2011-03-24T17:22:16.29</time>
<name>5958</name>
</trkpt>
<trkpt lat="49.355697" lon="8.872357">
<ele>253.0</ele>
<speed>52.6</speed>
<course>276.3</course>
<desc>Speed 52.6 km/h Distance 127 km</desc>
<time>2011-03-24T17:22:18.28</time>
<name>5959</name>
</trkpt>
<trkpt lat="49.355725" lon="8.871965">
<ele>253.0</ele>
<speed>51.3</speed>
<course>281.6</course>
<desc>Speed 51.3 km/h Distance 127 km</desc>
<time>2011-03-24T17:22:20.29</time>
<name>5960</name>
</trkpt>
<trkpt lat="49.355768" lon="8.871640">
<ele>253.5</ele>
<speed>43.2</speed>
<course>279.1</course>
<desc>Speed 43.2 km/h Distance 127 km</desc>
<time>2011-03-24T17:22:22.28</time>
<name>5961</name>
</trkpt>
<trkpt lat="49.355798" lon="8.871352">
<ele>255.0</ele>
<speed>36.2</speed>
<course>279.2</course>
<desc>Speed 36.2 km/h Distance 127 km</desc>
<time>2011-03-24T17:22:24.28</time>
<name>5962</name>
</trkpt>
<trkpt lat="49.355823" lon="8.871115">
<ele>254.5</ele>
<speed>29.4</speed>
<course>290.1</course>
<desc>Speed 29.4 km/h Distance 127 km</desc>
<time>2011-03-24T17:22:26.28</time>
<name>5963</name>
</trkpt>
<trkpt lat="49.355865" lon="8.870940">
<ele>254.5</ele>
<speed>23.5</speed>
<course>334.2</course>
<desc>Speed 23.5 km/h Distance 127 km</desc>
<time>2011-03-24T17:22:28.28</time>
<name>5964</name>
</trkpt>
<trkpt lat="49.355975" lon="8.870858">
<ele>255.5</ele>
<speed>25.7</speed>
<course>3.6</course>
<desc>Speed 25.7 km/h Distance 127 km</desc>
<time>2011-03-24T17:22:30.28</time>
<name>5965</name>
</trkpt>
<trkpt lat="49.356200" lon="8.870880">
<ele>254.0</ele>
<speed>47.7</speed>
<course>20.1</course>
<desc>Speed 47.7 km/h Distance 127 km</desc>
<time>2011-03-24T17:22:32.29</time>
<name>5966</name>
</trkpt>
<trkpt lat="49.356425" lon="8.871007">
<ele>248.5</ele>
<speed>43.8</speed>
<course>27.1</course>
<desc>Speed 43.8 km/h Distance 127 km</desc>
<time>2011-03-24T17:22:34.28</time>
<name>5967</name>
</trkpt>
<trkpt lat="49.356633" lon="8.871170">
<ele>246.0</ele>
<speed>45.8</speed>
<course>31.7</course>
<desc>Speed 45.8 km/h Distance 127 km</desc>
<time>2011-03-24T17:22:36.28</time>
<name>5968</name>
</trkpt>
<trkpt lat="49.356825" lon="8.871352">
<ele>245.5</ele>
<speed>45.4</speed>
<course>29.8</course>
<desc>Speed 45.4 km/h Distance 127 km</desc>
<time>2011-03-24T17:22:38.28</time>
<name>5969</name>
</trkpt>
<trkpt lat="49.357030" lon="8.871532">
<ele>244.5</ele>
<speed>47.0</speed>
<course>24.5</course>
<desc>Speed 47.0 km/h Distance 127 km</desc>
<time>2011-03-24T17:22:40.28</time>
<name>5970</name>
</trkpt>
<trkpt lat="49.357252" lon="8.871687">
<ele>244.0</ele>
<speed>47.6</speed>
<course>23.3</course>
<desc>Speed 47.6 km/h Distance 127 km</desc>
<time>2011-03-24T17:22:42.27</time>
<name>5971</name>
</trkpt>
<trkpt lat="49.357453" lon="8.871820">
<ele>243.0</ele>
<speed>47.6</speed>
<course>22.2</course>
<desc>Speed 47.6 km/h Distance 127 km</desc>
<time>2011-03-24T17:22:44.27</time>
<name>5972</name>
</trkpt>
<trkpt lat="49.357680" lon="8.871962">
<ele>242.5</ele>
<speed>48.4</speed>
<course>20.2</course>
<desc>Speed 48.4 km/h Distance 127 km</desc>
<time>2011-03-24T17:22:46.27</time>
<name>5973</name>
</trkpt>
<trkpt lat="49.357902" lon="8.872087">
<ele>242.0</ele>
<speed>45.4</speed>
<course>11.5</course>
<desc>Speed 45.4 km/h Distance 127 km</desc>
<time>2011-03-24T17:22:48.26</time>
<name>5974</name>
</trkpt>
<trkpt lat="49.358105" lon="8.872150">
<ele>241.5</ele>
<speed>39.7</speed>
<course>349.0</course>
<desc>Speed 39.7 km/h Distance 127 km</desc>
<time>2011-03-24T17:22:50.27</time>
<name>5975</name>
</trkpt>
<trkpt lat="49.358312" lon="8.872088">
<ele>241.0</ele>
<speed>46.7</speed>
<course>338.3</course>
<desc>Speed 46.7 km/h Distance 127 km</desc>
<time>2011-03-24T17:22:52.27</time>
<name>5976</name>
</trkpt>
<trkpt lat="49.358590" lon="8.871918">
<ele>241.0</ele>
<speed>65.9</speed>
<course>341.4</course>
<desc>Speed 65.9 km/h Distance 127 km</desc>
<time>2011-03-24T17:22:54.26</time>
<name>5977</name>
</trkpt>
<trkpt lat="49.358935" lon="8.871740">
<ele>240.5</ele>
<speed>73.0</speed>
<course>340.6</course>
<desc>Speed 73.0 km/h Distance 127 km</desc>
<time>2011-03-24T17:22:56.25</time>
<name>5978</name>
</trkpt>
<trkpt lat="49.359273" lon="8.871557">
<ele>240.5</ele>
<speed>71.3</speed>
<course>340.0</course>
<desc>Speed 71.3 km/h Distance 127 km</desc>
<time>2011-03-24T17:22:58.93</time>
<name>5979</name>
</trkpt>
<trkpt lat="49.359808" lon="8.871258">
<ele>241.0</ele>
<speed>78.0</speed>
<course>340.8</course>
<desc>Speed 78.0 km/h Distance 127 km</desc>
<time>2011-03-24T17:23:01.26</time>
<name>5980</name>
</trkpt>
<trkpt lat="49.360185" lon="8.871057">
<ele>242.5</ele>
<speed>80.8</speed>
<course>342.8</course>
<desc>Speed 80.8 km/h Distance 127 km</desc>
<time>2011-03-24T17:23:03.27</time>
<name>5981</name>
</trkpt>
<trkpt lat="49.360608" lon="8.870855">
<ele>243.5</ele>
<speed>92.1</speed>
<course>343.3</course>
<desc>Speed 92.1 km/h Distance 127 km</desc>
<time>2011-03-24T17:23:05.27</time>
<name>5982</name>
</trkpt>
<trkpt lat="49.361063" lon="8.870645">
<ele>246.0</ele>
<speed>97.0</speed>
<course>344.7</course>
<desc>Speed 97.0 km/h Distance 127 km</desc>
<time>2011-03-24T17:23:07.26</time>
<name>5983</name>
</trkpt>
<trkpt lat="49.361563" lon="8.870435">
<ele>247.5</ele>
<speed>107</speed>
<course>346.4</course>
<desc>Speed 107 km/h Distance 127 km</desc>
<time>2011-03-24T17:23:09.26</time>
<name>5984</name>
</trkpt>
<trkpt lat="49.362053" lon="8.870253">
<ele>248.0</ele>
<speed>95.3</speed>
<course>346.6</course>
<desc>Speed 95.3 km/h Distance 127 km</desc>
<time>2011-03-24T17:23:11.26</time>
<name>5985</name>
</trkpt>
<trkpt lat="49.362547" lon="8.870073">
<ele>250.0</ele>
<speed>99.2</speed>
<course>350.8</course>
<desc>Speed 99.2 km/h Distance 127 km</desc>
<time>2011-03-24T17:23:13.26</time>
<name>5986</name>
</trkpt>
<trkpt lat="49.362960" lon="8.869970">
<ele>253.5</ele>
<speed>74.9</speed>
<course>356.7</course>
<desc>Speed 74.9 km/h Distance 128 km</desc>
<time>2011-03-24T17:23:15.25</time>
<name>5987</name>
</trkpt>
<trkpt lat="49.363322" lon="8.869938">
<ele>256.0</ele>
<speed>66.2</speed>
<course>1.0</course>
<desc>Speed 66.2 km/h Distance 128 km</desc>
<time>2011-03-24T17:23:17.25</time>
<name>5988</name>
</trkpt>
<trkpt lat="49.363573" lon="8.869945">
<ele>256.5</ele>
<speed>46.7</speed>
<course>358.0</course>
<desc>Speed 46.7 km/h Distance 128 km</desc>
<time>2011-03-24T17:23:19.25</time>
<name>5989</name>
</trkpt>
<trkpt lat="49.363785" lon="8.869933">
<ele>259.0</ele>
<speed>41.1</speed>
<course>3.7</course>
<desc>Speed 41.1 km/h Distance 128 km</desc>
<time>2011-03-24T17:23:21.25</time>
<name>5990</name>
</trkpt>
<trkpt lat="49.363970" lon="8.869952">
<ele>260.5</ele>
<speed>36.3</speed>
<course>27.9</course>
<desc>Speed 36.3 km/h Distance 128 km</desc>
<time>2011-03-24T17:23:23.25</time>
<name>5991</name>
</trkpt>
<trkpt lat="49.364130" lon="8.870082">
<ele>260.5</ele>
<speed>38.7</speed>
<course>59.3</course>
<desc>Speed 38.7 km/h Distance 128 km</desc>
<time>2011-03-24T17:23:25.25</time>
<name>5992</name>
</trkpt>
<trkpt lat="49.364270" lon="8.870443">
<ele>259.5</ele>
<speed>60.3</speed>
<course>64.4</course>
<desc>Speed 60.3 km/h Distance 128 km</desc>
<time>2011-03-24T17:23:27.26</time>
<name>5993</name>
</trkpt>
<trkpt lat="49.364430" lon="8.870955">
<ele>260.5</ele>
<speed>76.5</speed>
<course>50.6</course>
<desc>Speed 76.5 km/h Distance 128 km</desc>
<time>2011-03-24T17:23:29.26</time>
<name>5994</name>
</trkpt>
<trkpt lat="49.364748" lon="8.871550">
<ele>260.5</ele>
<speed>64.5</speed>
<course>53.3</course>
<desc>Speed 64.5 km/h Distance 128 km</desc>
<time>2011-03-24T17:23:31.25</time>
<name>5995</name>
</trkpt>
<trkpt lat="49.365420" lon="8.872933">
<ele>265.0</ele>
<speed>116</speed>
<course>54.1</course>
<desc>Speed 116 km/h Distance 128 km</desc>
<time>2011-03-24T17:23:35.25</time>
<name>5996</name>
</trkpt>
<trkpt lat="49.365787" lon="8.873710">
<ele>264.5</ele>
<speed>116</speed>
<course>46.8</course>
<desc>Speed 116 km/h Distance 128 km</desc>
<time>2011-03-24T17:23:37.25</time>
<name>5997</name>
</trkpt>
<trkpt lat="49.366193" lon="8.874375">
<ele>267.5</ele>
<speed>105</speed>
<course>47.8</course>
<desc>Speed 105 km/h Distance 128 km</desc>
<time>2011-03-24T17:23:39.25</time>
<name>5998</name>
</trkpt>
<trkpt lat="49.366545" lon="8.874970">
<ele>270.0</ele>
<speed>102</speed>
<course>42.0</course>
<desc>Speed 102 km/h Distance 128 km</desc>
<time>2011-03-24T17:23:41.24</time>
<name>5999</name>
</trkpt>
<trkpt lat="49.366942" lon="8.875518">
<ele>272.0</ele>
<speed>104</speed>
<course>39.6</course>
<desc>Speed 104 km/h Distance 128 km</desc>
<time>2011-03-24T17:23:43.25</time>
<name>6000</name>
</trkpt>
<trkpt lat="49.367350" lon="8.876037">
<ele>274.5</ele>
<speed>106</speed>
<course>36.2</course>
<desc>Speed 106 km/h Distance 128 km</desc>
<time>2011-03-24T17:23:45.24</time>
<name>6001</name>
</trkpt>
<trkpt lat="49.367777" lon="8.876517">
<ele>276.0</ele>
<speed>103</speed>
<course>34.3</course>
<desc>Speed 103 km/h Distance 128 km</desc>
<time>2011-03-24T17:23:47.24</time>
<name>6002</name>
</trkpt>
<trkpt lat="49.368198" lon="8.876958">
<ele>276.5</ele>
<speed>99.7</speed>
<course>30.3</course>
<desc>Speed 99.7 km/h Distance 128 km</desc>
<time>2011-03-24T17:23:49.24</time>
<name>6003</name>
</trkpt>
<trkpt lat="49.368665" lon="8.877377">
<ele>276.0</ele>
<speed>112</speed>
<course>31.1</course>
<desc>Speed 112 km/h Distance 128 km</desc>
<time>2011-03-24T17:23:51.24</time>
<name>6004</name>
</trkpt>
<trkpt lat="49.369182" lon="8.877855">
<ele>272.5</ele>
<speed>122</speed>
<course>30.6</course>
<desc>Speed 122 km/h Distance 128 km</desc>
<time>2011-03-24T17:23:53.24</time>
<name>6005</name>
</trkpt>
<trkpt lat="49.369677" lon="8.878305">
<ele>271.5</ele>
<speed>108</speed>
<course>29.4</course>
<desc>Speed 108 km/h Distance 129 km</desc>
<time>2011-03-24T17:23:55.26</time>
<name>6006</name>
</trkpt>
<trkpt lat="49.370120" lon="8.878688">
<ele>271.0</ele>
<speed>96.7</speed>
<course>27.8</course>
<desc>Speed 96.7 km/h Distance 129 km</desc>
<time>2011-03-24T17:23:57.23</time>
<name>6007</name>
</trkpt>
<trkpt lat="49.370538" lon="8.879027">
<ele>272.5</ele>
<speed>91.2</speed>
<course>28.5</course>
<desc>Speed 91.2 km/h Distance 129 km</desc>
<time>2011-03-24T17:23:59.23</time>
<name>6008</name>
</trkpt>
<trkpt lat="49.370933" lon="8.879357">
<ele>273.5</ele>
<speed>88.8</speed>
<course>28.4</course>
<desc>Speed 88.8 km/h Distance 129 km</desc>
<time>2011-03-24T17:24:01.23</time>
<name>6009</name>
</trkpt>
<trkpt lat="49.371335" lon="8.879690">
<ele>274.0</ele>
<speed>90.8</speed>
<course>28.8</course>
<desc>Speed 90.8 km/h Distance 129 km</desc>
<time>2011-03-24T17:24:03.23</time>
<name>6010</name>
</trkpt>
<trkpt lat="49.371738" lon="8.880030">
<ele>274.0</ele>
<speed>91.5</speed>
<course>28.4</course>
<desc>Speed 91.5 km/h Distance 129 km</desc>
<time>2011-03-24T17:24:05.23</time>
<name>6011</name>
</trkpt>
<trkpt lat="49.372145" lon="8.880368">
<ele>273.5</ele>
<speed>91.4</speed>
<course>28.1</course>
<desc>Speed 91.4 km/h Distance 129 km</desc>
<time>2011-03-24T17:24:07.23</time>
<name>6012</name>
</trkpt>
<trkpt lat="49.372550" lon="8.880700">
<ele>273.5</ele>
<speed>91.0</speed>
<course>37.5</course>
<desc>Speed 91.0 km/h Distance 129 km</desc>
<time>2011-03-24T17:24:09.23</time>
<name>6013</name>
</trkpt>
<trkpt lat="49.372893" lon="8.881105">
<ele>274.5</ele>
<speed>85.4</speed>
<course>39.2</course>
<desc>Speed 85.4 km/h Distance 129 km</desc>
<time>2011-03-24T17:24:11.23</time>
<name>6014</name>
</trkpt>
<trkpt lat="49.373228" lon="8.881525">
<ele>274.5</ele>
<speed>83.9</speed>
<course>38.1</course>
<desc>Speed 83.9 km/h Distance 129 km</desc>
<time>2011-03-24T17:24:13.22</time>
<name>6015</name>
</trkpt>
<trkpt lat="49.373540" lon="8.881900">
<ele>274.5</ele>
<speed>76.8</speed>
<course>35.4</course>
<desc>Speed 76.8 km/h Distance 129 km</desc>
<time>2011-03-24T17:24:15.22</time>
<name>6016</name>
</trkpt>
<trkpt lat="49.373833" lon="8.882220">
<ele>275.0</ele>
<speed>70.1</speed>
<course>32.9</course>
<desc>Speed 70.1 km/h Distance 129 km</desc>
<time>2011-03-24T17:24:17.23</time>
<name>6017</name>
</trkpt>
<trkpt lat="49.374040" lon="8.882425">
<ele>275.0</ele>
<speed>70.1</speed>
<course>20.3</course>
<desc>Speed 70.1 km/h Distance 129 km</desc>
<time>2011-03-24T17:24:19.23</time>
<name>6018</name>
</trkpt>
<trkpt lat="49.374280" lon="8.882562">
<ele>274.5</ele>
<speed>42.4</speed>
<course>314.5</course>
<desc>Speed 42.4 km/h Distance 129 km</desc>
<time>2011-03-24T17:24:22.22</time>
<name>6019</name>
</trkpt>
<trkpt lat="49.374383" lon="8.882400">
<ele>275.5</ele>
<speed>36.9</speed>
<course>305.5</course>
<desc>Speed 36.9 km/h Distance 129 km</desc>
<time>2011-03-24T17:24:24.22</time>
<name>6020</name>
</trkpt>
<trkpt lat="49.374503" lon="8.882142">
<ele>275.0</ele>
<speed>36.9</speed>
<course>309.2</course>
<desc>Speed 36.9 km/h Distance 129 km</desc>
<time>2011-03-24T17:24:26.22</time>
<name>6021</name>
</trkpt>
<trkpt lat="49.374617" lon="8.881928">
<ele>275.5</ele>
<speed>36.9</speed>
<course>305.4</course>
<desc>Speed 36.9 km/h Distance 129 km</desc>
<time>2011-03-24T17:24:28.22</time>
<name>6022</name>
</trkpt>
<trkpt lat="49.374770" lon="8.881597">
<ele>277.0</ele>
<speed>36.9</speed>
<course>302.7</course>
<desc>Speed 36.9 km/h Distance 129 km</desc>
<time>2011-03-24T17:24:30.21</time>
<name>6023</name>
</trkpt>
<trkpt lat="49.374918" lon="8.881242">
<ele>277.5</ele>
<speed>36.9</speed>
<course>313.7</course>
<desc>Speed 36.9 km/h Distance 129 km</desc>
<time>2011-03-24T17:24:32.22</time>
<name>6024</name>
</trkpt>
<trkpt lat="49.375530" lon="8.880258">
<ele>285.5</ele>
<speed>76.5</speed>
<course>302.3</course>
<desc>Speed 76.5 km/h Distance 129 km</desc>
<time>2011-03-24T17:24:36.22</time>
<name>6025</name>
</trkpt>
<trkpt lat="49.375728" lon="8.879777">
<ele>286.0</ele>
<speed>69.0</speed>
<course>306.3</course>
<desc>Speed 69.0 km/h Distance 129 km</desc>
<time>2011-03-24T17:24:38.22</time>
<name>6026</name>
</trkpt>
<trkpt lat="49.375918" lon="8.879380">
<ele>286.5</ele>
<speed>58.1</speed>
<course>322.2</course>
<desc>Speed 58.1 km/h Distance 129 km</desc>
<time>2011-03-24T17:24:40.21</time>
<name>6027</name>
</trkpt>
<trkpt lat="49.376195" lon="8.879050">
<ele>288.0</ele>
<speed>73.7</speed>
<course>332.2</course>
<desc>Speed 73.7 km/h Distance 129 km</desc>
<time>2011-03-24T17:24:42.21</time>
<name>6028</name>
</trkpt>
<trkpt lat="49.376613" lon="8.878712">
<ele>288.0</ele>
<speed>97.6</speed>
<course>336.1</course>
<desc>Speed 97.6 km/h Distance 129 km</desc>
<time>2011-03-24T17:24:44.21</time>
<name>6029</name>
</trkpt>
<trkpt lat="49.377102" lon="8.878380">
<ele>288.0</ele>
<speed>108</speed>
<course>336.1</course>
<desc>Speed 108 km/h Distance 130 km</desc>
<time>2011-03-24T17:24:46.22</time>
<name>6030</name>
</trkpt>
<trkpt lat="49.377628" lon="8.878022">
<ele>288.0</ele>
<speed>115</speed>
<course>337.2</course>
<desc>Speed 115 km/h Distance 130 km</desc>
<time>2011-03-24T17:24:48.21</time>
<name>6031</name>
</trkpt>
<trkpt lat="49.378172" lon="8.877672">
<ele>289.5</ele>
<speed>115</speed>
<course>325.3</course>
<desc>Speed 115 km/h Distance 130 km</desc>
<time>2011-03-24T17:24:51.21</time>
<name>6032</name>
</trkpt>
<trkpt lat="49.378718" lon="8.877090">
<ele>289.0</ele>
<speed>86.9</speed>
<course>322.4</course>
<desc>Speed 86.9 km/h Distance 130 km</desc>
<time>2011-03-24T17:24:55.22</time>
<name>6033</name>
</trkpt>
<trkpt lat="49.379115" lon="8.876620">
<ele>288.5</ele>
<speed>87.4</speed>
<course>319.9</course>
<desc>Speed 87.4 km/h Distance 130 km</desc>
<time>2011-03-24T17:24:57.20</time>
<name>6034</name>
</trkpt>
<trkpt lat="49.379533" lon="8.876078">
<ele>287.5</ele>
<speed>84.2</speed>
<course>325.3</course>
<desc>Speed 84.2 km/h Distance 130 km</desc>
<time>2011-03-24T17:24:59.20</time>
<name>6035</name>
</trkpt>
<trkpt lat="49.379908" lon="8.875680">
<ele>287.5</ele>
<speed>84.2</speed>
<course>325.9</course>
<desc>Speed 84.2 km/h Distance 130 km</desc>
<time>2011-03-24T17:25:01.20</time>
<name>6036</name>
</trkpt>
<trkpt lat="49.380293" lon="8.875280">
<ele>288.0</ele>
<speed>89.1</speed>
<course>333.1</course>
<desc>Speed 89.1 km/h Distance 130 km</desc>
<time>2011-03-24T17:25:03.21</time>
<name>6037</name>
</trkpt>
<trkpt lat="49.380698" lon="8.874965">
<ele>288.5</ele>
<speed>87.6</speed>
<course>331.7</course>
<desc>Speed 87.6 km/h Distance 130 km</desc>
<time>2011-03-24T17:25:05.20</time>
<name>6038</name>
</trkpt>
<trkpt lat="49.381062" lon="8.874665">
<ele>288.0</ele>
<speed>77.5</speed>
<course>314.7</course>
<desc>Speed 77.5 km/h Distance 130 km</desc>
<time>2011-03-24T17:25:07.20</time>
<name>6039</name>
</trkpt>
<trkpt lat="49.381355" lon="8.874210">
<ele>288.5</ele>
<speed>82.0</speed>
<course>310.3</course>
<desc>Speed 82.0 km/h Distance 130 km</desc>
<time>2011-03-24T17:25:09.20</time>
<name>6040</name>
</trkpt>
<trkpt lat="49.381665" lon="8.873648">
<ele>287.0</ele>
<speed>88.7</speed>
<course>306.0</course>
<desc>Speed 88.7 km/h Distance 130 km</desc>
<time>2011-03-24T17:25:11.20</time>
<name>6041</name>
</trkpt>
<trkpt lat="49.382000" lon="8.872940">
<ele>287.5</ele>
<speed>106</speed>
<course>296.4</course>
<desc>Speed 106 km/h Distance 130 km</desc>
<time>2011-03-24T17:25:13.20</time>
<name>6042</name>
</trkpt>
<trkpt lat="49.382235" lon="8.872212">
<ele>292.0</ele>
<speed>94.3</speed>
<course>291.7</course>
<desc>Speed 94.3 km/h Distance 130 km</desc>
<time>2011-03-24T17:25:15.19</time>
<name>6043</name>
</trkpt>
<trkpt lat="49.382400" lon="8.871573">
<ele>296.0</ele>
<speed>77.4</speed>
<course>308.3</course>
<desc>Speed 77.4 km/h Distance 130 km</desc>
<time>2011-03-24T17:25:17.20</time>
<name>6044</name>
</trkpt>
<trkpt lat="49.382647" lon="8.871093">
<ele>297.5</ele>
<speed>71.4</speed>
<course>318.5</course>
<desc>Speed 71.4 km/h Distance 130 km</desc>
<time>2011-03-24T17:25:19.20</time>
<name>6045</name>
</trkpt>
<trkpt lat="49.382950" lon="8.870682">
<ele>300.5</ele>
<speed>81.3</speed>
<course>318.8</course>
<desc>Speed 81.3 km/h Distance 130 km</desc>
<time>2011-03-24T17:25:21.19</time>
<name>6046</name>
</trkpt>
<trkpt lat="49.383312" lon="8.870195">
<ele>302.5</ele>
<speed>99.4</speed>
<course>318.0</course>
<desc>Speed 99.4 km/h Distance 130 km</desc>
<time>2011-03-24T17:25:23.20</time>
<name>6047</name>
</trkpt>
<trkpt lat="49.383697" lon="8.869663">
<ele>304.0</ele>
<speed>103</speed>
<course>312.8</course>
<desc>Speed 103 km/h Distance 131 km</desc>
<time>2011-03-24T17:25:25.20</time>
<name>6048</name>
</trkpt>
<trkpt lat="49.384032" lon="8.869107">
<ele>308.0</ele>
<speed>92.5</speed>
<course>309.8</course>
<desc>Speed 92.5 km/h Distance 131 km</desc>
<time>2011-03-24T17:25:27.19</time>
<name>6049</name>
</trkpt>
<trkpt lat="49.384312" lon="8.868590">
<ele>310.5</ele>
<speed>83.9</speed>
<course>307.1</course>
<desc>Speed 83.9 km/h Distance 131 km</desc>
<time>2011-03-24T17:25:29.19</time>
<name>6050</name>
</trkpt>
<trkpt lat="49.384558" lon="8.868088">
<ele>311.0</ele>
<speed>78.4</speed>
<course>308.9</course>
<desc>Speed 78.4 km/h Distance 131 km</desc>
<time>2011-03-24T17:25:31.18</time>
<name>6051</name>
</trkpt>
<trkpt lat="49.384797" lon="8.867635">
<ele>309.5</ele>
<speed>75.7</speed>
<course>306.9</course>
<desc>Speed 75.7 km/h Distance 131 km</desc>
<time>2011-03-24T17:25:33.18</time>
<name>6052</name>
</trkpt>
<trkpt lat="49.385023" lon="8.867172">
<ele>306.0</ele>
<speed>74.3</speed>
<course>297.0</course>
<desc>Speed 74.3 km/h Distance 131 km</desc>
<time>2011-03-24T17:25:35.18</time>
<name>6053</name>
</trkpt>
<trkpt lat="49.385212" lon="8.866603">
<ele>304.0</ele>
<speed>84.4</speed>
<course>290.2</course>
<desc>Speed 84.4 km/h Distance 131 km</desc>
<time>2011-03-24T17:25:37.19</time>
<name>6054</name>
</trkpt>
<trkpt lat="49.385365" lon="8.865963">
<ele>304.0</ele>
<speed>87.6</speed>
<course>285.6</course>
<desc>Speed 87.6 km/h Distance 131 km</desc>
<time>2011-03-24T17:25:39.19</time>
<name>6055</name>
</trkpt>
<trkpt lat="49.385483" lon="8.865312">
<ele>303.0</ele>
<speed>90.1</speed>
<course>274.1</course>
<desc>Speed 90.1 km/h Distance 131 km</desc>
<time>2011-03-24T17:25:41.19</time>
<name>6056</name>
</trkpt>
<trkpt lat="49.385517" lon="8.864595">
<ele>302.0</ele>
<speed>91.0</speed>
<course>258.0</course>
<desc>Speed 91.0 km/h Distance 131 km</desc>
<time>2011-03-24T17:25:43.18</time>
<name>6057</name>
</trkpt>
<trkpt lat="49.385417" lon="8.863875">
<ele>301.5</ele>
<speed>95.1</speed>
<course>250.3</course>
<desc>Speed 95.1 km/h Distance 131 km</desc>
<time>2011-03-24T17:25:45.19</time>
<name>6058</name>
</trkpt>
<trkpt lat="49.385242" lon="8.863123">
<ele>302.5</ele>
<speed>110</speed>
<course>248.3</course>
<desc>Speed 110 km/h Distance 131 km</desc>
<time>2011-03-24T17:25:47.19</time>
<name>6059</name>
</trkpt>
<trkpt lat="49.385065" lon="8.862440">
<ele>304.0</ele>
<speed>93.0</speed>
<course>248.6</course>
<desc>Speed 93.0 km/h Distance 131 km</desc>
<time>2011-03-24T17:25:49.18</time>
<name>6060</name>
</trkpt>
<trkpt lat="49.384913" lon="8.861845">
<ele>304.0</ele>
<speed>79.9</speed>
<course>254.3</course>
<desc>Speed 79.9 km/h Distance 131 km</desc>
<time>2011-03-24T17:25:51.18</time>
<name>6061</name>
</trkpt>
<trkpt lat="49.384817" lon="8.861317">
<ele>304.0</ele>
<speed>65.5</speed>
<course>268.7</course>
<desc>Speed 65.5 km/h Distance 131 km</desc>
<time>2011-03-24T17:25:53.18</time>
<name>6062</name>
</trkpt>
<trkpt lat="49.384810" lon="8.860877">
<ele>306.0</ele>
<speed>57.8</speed>
<course>292.8</course>
<desc>Speed 57.8 km/h Distance 131 km</desc>
<time>2011-03-24T17:25:55.19</time>
<name>6063</name>
</trkpt>
<trkpt lat="49.384943" lon="8.860390">
<ele>307.0</ele>
<speed>71.6</speed>
<course>303.3</course>
<desc>Speed 71.6 km/h Distance 131 km</desc>
<time>2011-03-24T17:25:57.19</time>
<name>6064</name>
</trkpt>
<trkpt lat="49.385123" lon="8.859968">
<ele>307.0</ele>
<speed>62.1</speed>
<course>291.7</course>
<desc>Speed 62.1 km/h Distance 131 km</desc>
<time>2011-03-24T17:25:59.17</time>
<name>6065</name>
</trkpt>
<trkpt lat="49.385247" lon="8.859492">
<ele>305.5</ele>
<speed>70.9</speed>
<course>280.4</course>
<desc>Speed 70.9 km/h Distance 131 km</desc>
<time>2011-03-24T17:26:01.18</time>
<name>6066</name>
</trkpt>
<trkpt lat="49.385322" lon="8.858867">
<ele>304.0</ele>
<speed>81.1</speed>
<course>279.6</course>
<desc>Speed 81.1 km/h Distance 131 km</desc>
<time>2011-03-24T17:26:03.18</time>
<name>6067</name>
</trkpt>
<trkpt lat="49.385385" lon="8.858292">
<ele>302.0</ele>
<speed>73.0</speed>
<course>284.6</course>
<desc>Speed 73.0 km/h Distance 131 km</desc>
<time>2011-03-24T17:26:05.17</time>
<name>6068</name>
</trkpt>
<trkpt lat="49.385428" lon="8.858037">
<ele>300.0</ele>
<speed>69.9</speed>
<course>292.7</course>
<desc>Speed 69.9 km/h Distance 131 km</desc>
<time>2011-03-24T17:26:06.17</time>
<name>6069</name>
</trkpt>
<trkpt lat="49.385565" lon="8.857535">
<ele>298.0</ele>
<speed>68.2</speed>
<course>292.2</course>
<desc>Speed 68.2 km/h Distance 132 km</desc>
<time>2011-03-24T17:26:08.17</time>
<name>6070</name>
</trkpt>
<trkpt lat="49.385675" lon="8.857120">
<ele>296.0</ele>
<speed>58.2</speed>
<course>288.3</course>
<desc>Speed 58.2 km/h Distance 132 km</desc>
<time>2011-03-24T17:26:10.17</time>
<name>6071</name>
</trkpt>
<trkpt lat="49.385713" lon="8.856942">
<ele>295.0</ele>
<speed>48.8</speed>
<course>285.6</course>
<desc>Speed 48.8 km/h Distance 132 km</desc>
<time>2011-03-24T17:26:11.17</time>
<name>6072</name>
</trkpt>
<trkpt lat="49.385737" lon="8.856813">
<ele>294.5</ele>
<speed>35.3</speed>
<course>287.9</course>
<desc>Speed 35.3 km/h Distance 132 km</desc>
<time>2011-03-24T17:26:12.17</time>
<name>6073</name>
</trkpt>
<trkpt lat="49.385763" lon="8.856687">
<ele>294.0</ele>
<speed>35.2</speed>
<course>315.3</course>
<desc>Speed 35.2 km/h Distance 132 km</desc>
<time>2011-03-24T17:26:13.16</time>
<name>6074</name>
</trkpt>
<trkpt lat="49.385805" lon="8.856623">
<ele>294.0</ele>
<speed>23.7</speed>
<course>313.2</course>
<desc>Speed 23.7 km/h Distance 132 km</desc>
<time>2011-03-24T17:26:14.17</time>
<name>6075</name>
</trkpt>
<trkpt lat="49.385855" lon="8.856542">
<ele>293.5</ele>
<speed>29.2</speed>
<course>327.7</course>
<desc>Speed 29.2 km/h Distance 132 km</desc>
<time>2011-03-24T17:26:15.17</time>
<name>6076</name>
</trkpt>
<trkpt lat="49.385910" lon="8.856488">
<ele>293.5</ele>
<speed>25.6</speed>
<course>72.9</course>
<desc>Speed 25.6 km/h Distance 132 km</desc>
<time>2011-03-24T17:26:16.17</time>
<name>6077</name>
</trkpt>
<trkpt lat="49.385930" lon="8.856588">
<ele>293.0</ele>
<speed>24.3</speed>
<course>93.2</course>
<desc>Speed 24.3 km/h Distance 132 km</desc>
<time>2011-03-24T17:26:17.17</time>
<name>6078</name>
</trkpt>
<trkpt lat="49.385925" lon="8.856727">
<ele>292.5</ele>
<speed>35.2</speed>
<course>95.9</course>
<desc>Speed 35.2 km/h Distance 132 km</desc>
<time>2011-03-24T17:26:18.17</time>
<name>6079</name>
</trkpt>
<trkpt lat="49.385898" lon="8.857122">
<ele>292.0</ele>
<speed>49.6</speed>
<course>77.5</course>
<desc>Speed 49.6 km/h Distance 132 km</desc>
<time>2011-03-24T17:26:20.17</time>
<name>6080</name>
</trkpt>
<trkpt lat="49.385975" lon="8.857655">
<ele>291.5</ele>
<speed>72.7</speed>
<course>62.1</course>
<desc>Speed 72.7 km/h Distance 132 km</desc>
<time>2011-03-24T17:26:22.17</time>
<name>6081</name>
</trkpt>
<trkpt lat="49.386072" lon="8.857935">
<ele>290.5</ele>
<speed>81.0</speed>
<course>55.8</course>
<desc>Speed 81.0 km/h Distance 132 km</desc>
<time>2011-03-24T17:26:23.16</time>
<name>6082</name>
</trkpt>
<trkpt lat="49.386187" lon="8.858195">
<ele>290.5</ele>
<speed>82.8</speed>
<course>56.5</course>
<desc>Speed 82.8 km/h Distance 132 km</desc>
<time>2011-03-24T17:26:24.16</time>
<name>6083</name>
</trkpt>
<trkpt lat="49.386287" lon="8.858427">
<ele>290.0</ele>
<speed>72.1</speed>
<course>49.8</course>
<desc>Speed 72.1 km/h Distance 132 km</desc>
<time>2011-03-24T17:26:25.16</time>
<name>6084</name>
</trkpt>
<trkpt lat="49.386405" lon="8.858642">
<ele>290.0</ele>
<speed>73.0</speed>
<course>52.0</course>
<desc>Speed 73.0 km/h Distance 132 km</desc>
<time>2011-03-24T17:26:26.16</time>
<name>6085</name>
</trkpt>
<trkpt lat="49.386498" lon="8.858825">
<ele>289.0</ele>
<speed>60.0</speed>
<course>39.3</course>
<desc>Speed 60.0 km/h Distance 132 km</desc>
<time>2011-03-24T17:26:27.17</time>
<name>6086</name>
</trkpt>
<trkpt lat="49.386622" lon="8.858980">
<ele>288.5</ele>
<speed>62.4</speed>
<course>38.6</course>
<desc>Speed 62.4 km/h Distance 132 km</desc>
<time>2011-03-24T17:26:28.16</time>
<name>6087</name>
</trkpt>
<trkpt lat="49.386740" lon="8.859125">
<ele>287.0</ele>
<speed>60.0</speed>
<course>34.8</course>
<desc>Speed 60.0 km/h Distance 132 km</desc>
<time>2011-03-24T17:26:29.15</time>
<name>6088</name>
</trkpt>
<trkpt lat="49.386865" lon="8.859258">
<ele>285.5</ele>
<speed>59.0</speed>
<course>24.5</course>
<desc>Speed 59.0 km/h Distance 132 km</desc>
<time>2011-03-24T17:26:30.17</time>
<name>6089</name>
</trkpt>
<trkpt lat="49.386998" lon="8.859352">
<ele>285.0</ele>
<speed>57.6</speed>
<course>24.7</course>
<desc>Speed 57.6 km/h Distance 132 km</desc>
<time>2011-03-24T17:26:31.16</time>
<name>6090</name>
</trkpt>
<trkpt lat="49.387107" lon="8.859428">
<ele>285.5</ele>
<speed>57.6</speed>
<course>4.8</course>
<desc>Speed 57.6 km/h Distance 132 km</desc>
<time>2011-03-24T17:26:32.17</time>
<name>6091</name>
</trkpt>
<trkpt lat="49.387325" lon="8.859457">
<ele>284.0</ele>
<speed>42.7</speed>
<course>0.6</course>
<desc>Speed 42.7 km/h Distance 132 km</desc>
<time>2011-03-24T17:26:34.16</time>
<name>6092</name>
</trkpt>
<trkpt lat="49.387428" lon="8.859458">
<ele>283.5</ele>
<speed>41.1</speed>
<course>341.6</course>
<desc>Speed 41.1 km/h Distance 132 km</desc>
<time>2011-03-24T17:26:35.16</time>
<name>6093</name>
</trkpt>
<trkpt lat="49.387503" lon="8.859420">
<ele>283.5</ele>
<speed>31.9</speed>
<course>331.4</course>
<desc>Speed 31.9 km/h Distance 132 km</desc>
<time>2011-03-24T17:26:36.16</time>
<name>6094</name>
</trkpt>
<trkpt lat="49.387585" lon="8.859352">
<ele>283.5</ele>
<speed>38.0</speed>
<course>325.4</course>
<desc>Speed 38.0 km/h Distance 132 km</desc>
<time>2011-03-24T17:26:37.15</time>
<name>6095</name>
</trkpt>
<trkpt lat="49.387668" lon="8.859263">
<ele>283.5</ele>
<speed>41.6</speed>
<course>321.6</course>
<desc>Speed 41.6 km/h Distance 132 km</desc>
<time>2011-03-24T17:26:38.16</time>
<name>6096</name>
</trkpt>
<trkpt lat="49.387745" lon="8.859170">
<ele>282.0</ele>
<speed>39.1</speed>
<course>331.6</course>
<desc>Speed 39.1 km/h Distance 132 km</desc>
<time>2011-03-24T17:26:39.15</time>
<name>6097</name>
</trkpt>
<trkpt lat="49.387843" lon="8.859088">
<ele>282.5</ele>
<speed>45.1</speed>
<course>330.5</course>
<desc>Speed 45.1 km/h Distance 132 km</desc>
<time>2011-03-24T17:26:40.15</time>
<name>6098</name>
</trkpt>
<trkpt lat="49.387933" lon="8.859010">
<ele>281.0</ele>
<speed>42.2</speed>
<course>332.8</course>
<desc>Speed 42.2 km/h Distance 132 km</desc>
<time>2011-03-24T17:26:41.15</time>
<name>6099</name>
</trkpt>
<trkpt lat="49.388028" lon="8.858935">
<ele>280.5</ele>
<speed>43.2</speed>
<course>332.1</course>
<desc>Speed 43.2 km/h Distance 132 km</desc>
<time>2011-03-24T17:26:42.15</time>
<name>6100</name>
</trkpt>
<trkpt lat="49.388135" lon="8.858848">
<ele>281.5</ele>
<speed>49.1</speed>
<course>302.1</course>
<desc>Speed 49.1 km/h Distance 132 km</desc>
<time>2011-03-24T17:26:43.15</time>
<name>6101</name>
</trkpt>
<trkpt lat="49.388183" lon="8.858730">
<ele>281.0</ele>
<speed>36.5</speed>
<course>280.0</course>
<desc>Speed 36.5 km/h Distance 132 km</desc>
<time>2011-03-24T17:26:44.15</time>
<name>6102</name>
</trkpt>
<trkpt lat="49.388195" lon="8.858628">
<ele>280.0</ele>
<speed>36.5</speed>
<course>298.1</course>
<desc>Speed 36.5 km/h Distance 132 km</desc>
<time>2011-03-24T17:26:45.15</time>
<name>6103</name>
</trkpt>
<trkpt lat="49.388223" lon="8.858547">
<ele>280.0</ele>
<speed>36.5</speed>
<course>258.1</course>
<desc>Speed 36.5 km/h Distance 132 km</desc>
<time>2011-03-24T17:26:46.15</time>
<name>6104</name>
</trkpt>
<trkpt lat="49.388195" lon="8.858340">
<ele>278.5</ele>
<speed>34.3</speed>
<course>277.6</course>
<desc>Speed 34.3 km/h Distance 132 km</desc>
<time>2011-03-24T17:26:48.14</time>
<name>6105</name>
</trkpt>
<trkpt lat="49.388208" lon="8.858187">
<ele>278.0</ele>
<speed>37.8</speed>
<course>283.6</course>
<desc>Speed 37.8 km/h Distance 132 km</desc>
<time>2011-03-24T17:26:49.15</time>
<name>6106</name>
</trkpt>
<trkpt lat="49.388227" lon="8.858070">
<ele>277.0</ele>
<speed>33.0</speed>
<course>309.6</course>
<desc>Speed 33.0 km/h Distance 132 km</desc>
<time>2011-03-24T17:26:50.14</time>
<name>6107</name>
</trkpt>
<trkpt lat="49.388273" lon="8.857983">
<ele>276.5</ele>
<speed>32.4</speed>
<course>300.2</course>
<desc>Speed 32.4 km/h Distance 132 km</desc>
<time>2011-03-24T17:26:51.14</time>
<name>6108</name>
</trkpt>
<trkpt lat="49.388315" lon="8.857873">
<ele>276.0</ele>
<speed>34.7</speed>
<course>285.3</course>
<desc>Speed 34.7 km/h Distance 132 km</desc>
<time>2011-03-24T17:26:52.15</time>
<name>6109</name>
</trkpt>
<trkpt lat="49.388328" lon="8.857798">
<ele>275.5</ele>
<speed>21.3</speed>
<course>244.3</course>
<desc>Speed 21.3 km/h Distance 132 km</desc>
<time>2011-03-24T17:26:53.15</time>
<name>6110</name>
</trkpt>
<trkpt lat="49.388320" lon="8.857772">
<ele>275.0</ele>
<speed>8.0</speed>
<course>196.3</course>
<desc>Speed 8.0 km/h Distance 132 km</desc>
<time>2011-03-24T17:26:54.14</time>
<name>6111</name>
</trkpt>
<trkpt lat="49.388305" lon="8.857765">
<ele>275.0</ele>
<speed>1.2</speed>
<course>280.9</course>
<desc>Speed 1.2 km/h Distance 132 km</desc>
<time>2011-03-24T17:26:55.15</time>
<name>6112</name>
</trkpt>
<trkpt lat="49.388310" lon="8.857725">
<ele>274.5</ele>
<speed>8.8</speed>
<course>288.5</course>
<desc>Speed 8.8 km/h Distance 132 km</desc>
<time>2011-03-24T17:26:56.13</time>
<name>6113</name>
</trkpt>
<trkpt lat="49.388318" lon="8.857687">
<ele>274.5</ele>
<speed>8.4</speed>
<course>277.0</course>
<desc>Speed 8.4 km/h Distance 132 km</desc>
<time>2011-03-24T17:26:57.14</time>
<name>6114</name>
</trkpt>
<trkpt lat="49.388322" lon="8.857645">
<ele>272.5</ele>
<speed>9.5</speed>
<course>262.4</course>
<desc>Speed 9.5 km/h Distance 132 km</desc>
<time>2011-03-24T17:26:58.14</time>
<name>6115</name>
</trkpt>
<trkpt lat="49.388318" lon="8.857607">
<ele>272.0</ele>
<speed>8.9</speed>
<course>270.0</course>
<desc>Speed 8.9 km/h Distance 132 km</desc>
<time>2011-03-24T17:26:59.14</time>
<name>6116</name>
</trkpt>
<trkpt lat="49.388318" lon="8.857543">
<ele>271.5</ele>
<speed>14.5</speed>
<course>252.1</course>
<desc>Speed 14.5 km/h Distance 132 km</desc>
<time>2011-03-24T17:27:00.14</time>
<name>6117</name>
</trkpt>
<trkpt lat="49.388298" lon="8.857448">
<ele>271.5</ele>
<speed>25.2</speed>
<course>274.7</course>
<desc>Speed 25.2 km/h Distance 132 km</desc>
<time>2011-03-24T17:27:01.13</time>
<name>6118</name>
</trkpt>
<trkpt lat="49.388315" lon="8.857138">
<ele>271.0</ele>
<speed>40.3</speed>
<course>275.7</course>
<desc>Speed 40.3 km/h Distance 132 km</desc>
<time>2011-03-24T17:27:03.14</time>
<name>6119</name>
</trkpt>
<trkpt lat="49.388325" lon="8.856985">
<ele>270.5</ele>
<speed>40.0</speed>
<course>272.7</course>
<desc>Speed 40.0 km/h Distance 132 km</desc>
<time>2011-03-24T17:27:04.14</time>
<name>6120</name>
</trkpt>
<trkpt lat="49.388330" lon="8.856823">
<ele>270.0</ele>
<speed>40.9</speed>
<course>274.4</course>
<desc>Speed 40.9 km/h Distance 132 km</desc>
<time>2011-03-24T17:27:05.13</time>
<name>6121</name>
</trkpt>
<trkpt lat="49.388338" lon="8.856658">
<ele>270.0</ele>
<speed>41.6</speed>
<course>275.3</course>
<desc>Speed 41.6 km/h Distance 132 km</desc>
<time>2011-03-24T17:27:06.13</time>
<name>6122</name>
</trkpt>
<trkpt lat="49.388348" lon="8.856492">
<ele>270.0</ele>
<speed>42.8</speed>
<course>294.3</course>
<desc>Speed 42.8 km/h Distance 132 km</desc>
<time>2011-03-24T17:27:07.14</time>
<name>6123</name>
</trkpt>
<trkpt lat="49.388393" lon="8.856338">
<ele>270.0</ele>
<speed>42.7</speed>
<course>283.2</course>
<desc>Speed 42.7 km/h Distance 132 km</desc>
<time>2011-03-24T17:27:08.13</time>
<name>6124</name>
</trkpt>
<trkpt lat="49.388420" lon="8.856163">
<ele>269.5</ele>
<speed>44.7</speed>
<course>285.1</course>
<desc>Speed 44.7 km/h Distance 132 km</desc>
<time>2011-03-24T17:27:09.14</time>
<name>6125</name>
</trkpt>
<trkpt lat="49.388452" lon="8.855983">
<ele>269.0</ele>
<speed>47.7</speed>
<course>282.4</course>
<desc>Speed 47.7 km/h Distance 132 km</desc>
<time>2011-03-24T17:27:10.13</time>
<name>6126</name>
</trkpt>
<trkpt lat="49.388480" lon="8.855785">
<ele>268.5</ele>
<speed>52.1</speed>
<course>292.4</course>
<desc>Speed 52.1 km/h Distance 132 km</desc>
<time>2011-03-24T17:27:11.13</time>
<name>6127</name>
</trkpt>
<trkpt lat="49.388530" lon="8.855598">
<ele>268.5</ele>
<speed>53.3</speed>
<course>300.3</course>
<desc>Speed 53.3 km/h Distance 132 km</desc>
<time>2011-03-24T17:27:12.14</time>
<name>6128</name>
</trkpt>
<trkpt lat="49.388607" lon="8.855397">
<ele>267.0</ele>
<speed>61.0</speed>
<course>296.0</course>
<desc>Speed 61.0 km/h Distance 132 km</desc>
<time>2011-03-24T17:27:13.14</time>
<name>6129</name>
</trkpt>
<trkpt lat="49.388673" lon="8.855187">
<ele>267.0</ele>
<speed>59.3</speed>
<course>295.2</course>
<desc>Speed 59.3 km/h Distance 132 km</desc>
<time>2011-03-24T17:27:14.12</time>
<name>6130</name>
</trkpt>
<trkpt lat="49.388737" lon="8.854980">
<ele>266.0</ele>
<speed>58.4</speed>
<course>293.8</course>
<desc>Speed 58.4 km/h Distance 132 km</desc>
<time>2011-03-24T17:27:15.12</time>
<name>6131</name>
</trkpt>
<trkpt lat="49.388795" lon="8.854777">
<ele>266.0</ele>
<speed>56.4</speed>
<course>290.3</course>
<desc>Speed 56.4 km/h Distance 132 km</desc>
<time>2011-03-24T17:27:16.12</time>
<name>6132</name>
</trkpt>
<trkpt lat="49.388842" lon="8.854583">
<ele>265.5</ele>
<speed>53.0</speed>
<course>290.1</course>
<desc>Speed 53.0 km/h Distance 132 km</desc>
<time>2011-03-24T17:27:17.12</time>
<name>6133</name>
</trkpt>
<trkpt lat="49.388883" lon="8.854408">
<ele>264.5</ele>
<speed>47.7</speed>
<course>286.3</course>
<desc>Speed 47.7 km/h Distance 132 km</desc>
<time>2011-03-24T17:27:18.12</time>
<name>6134</name>
</trkpt>
<trkpt lat="49.388927" lon="8.854180">
<ele>265.5</ele>
<speed>29.3</speed>
<course>293.7</course>
<desc>Speed 29.3 km/h Distance 132 km</desc>
<time>2011-03-24T17:27:20.12</time>
<name>6135</name>
</trkpt>
<trkpt lat="49.388953" lon="8.854087">
<ele>265.0</ele>
<speed>26.8</speed>
<course>294.9</course>
<desc>Speed 26.8 km/h Distance 132 km</desc>
<time>2011-03-24T17:27:21.12</time>
<name>6136</name>
</trkpt>
<trkpt lat="49.388980" lon="8.853998">
<ele>265.0</ele>
<speed>25.2</speed>
<course>298.8</course>
<desc>Speed 25.2 km/h Distance 132 km</desc>
<time>2011-03-24T17:27:22.13</time>
<name>6137</name>
</trkpt>
<trkpt lat="49.389012" lon="8.853910">
<ele>264.0</ele>
<speed>26.5</speed>
<course>296.8</course>
<desc>Speed 26.5 km/h Distance 132 km</desc>
<time>2011-03-24T17:27:23.12</time>
<name>6138</name>
</trkpt>
<trkpt lat="49.389048" lon="8.853798">
<ele>263.5</ele>
<speed>31.5</speed>
<course>294.3</course>
<desc>Speed 31.5 km/h Distance 132 km</desc>
<time>2011-03-24T17:27:24.12</time>
<name>6139</name>
</trkpt>
<trkpt lat="49.389085" lon="8.853673">
<ele>262.0</ele>
<speed>35.0</speed>
<course>293.3</course>
<desc>Speed 35.0 km/h Distance 132 km</desc>
<time>2011-03-24T17:27:25.12</time>
<name>6140</name>
</trkpt>
<trkpt lat="49.389123" lon="8.853537">
<ele>261.5</ele>
<speed>38.6</speed>
<course>292.3</course>
<desc>Speed 38.6 km/h Distance 132 km</desc>
<time>2011-03-24T17:27:26.12</time>
<name>6141</name>
</trkpt>
<trkpt lat="49.389163" lon="8.853387">
<ele>262.0</ele>
<speed>41.6</speed>
<course>292.4</course>
<desc>Speed 41.6 km/h Distance 132 km</desc>
<time>2011-03-24T17:27:27.12</time>
<name>6142</name>
</trkpt>
<trkpt lat="49.389205" lon="8.853232">
<ele>261.5</ele>
<speed>43.7</speed>
<course>293.9</course>
<desc>Speed 43.7 km/h Distance 132 km</desc>
<time>2011-03-24T17:27:28.13</time>
<name>6143</name>
</trkpt>
<trkpt lat="49.389252" lon="8.853070">
<ele>260.5</ele>
<speed>46.2</speed>
<course>296.7</course>
<desc>Speed 46.2 km/h Distance 132 km</desc>
<time>2011-03-24T17:27:29.13</time>
<name>6144</name>
</trkpt>
<trkpt lat="49.389307" lon="8.852902">
<ele>259.0</ele>
<speed>49.3</speed>
<course>295.6</course>
<desc>Speed 49.3 km/h Distance 132 km</desc>
<time>2011-03-24T17:27:30.13</time>
<name>6145</name>
</trkpt>
<trkpt lat="49.389363" lon="8.852720">
<ele>258.0</ele>
<speed>52.2</speed>
<course>293.7</course>
<desc>Speed 52.2 km/h Distance 132 km</desc>
<time>2011-03-24T17:27:31.12</time>
<name>6146</name>
</trkpt>
<trkpt lat="49.389420" lon="8.852522">
<ele>258.5</ele>
<speed>56.1</speed>
<course>294.9</course>
<desc>Speed 56.1 km/h Distance 132 km</desc>
<time>2011-03-24T17:27:32.13</time>
<name>6147</name>
</trkpt>
<trkpt lat="49.389480" lon="8.852323">
<ele>259.0</ele>
<speed>56.8</speed>
<course>299.9</course>
<desc>Speed 56.8 km/h Distance 133 km</desc>
<time>2011-03-24T17:27:33.11</time>
<name>6148</name>
</trkpt>
<trkpt lat="49.389555" lon="8.852123">
<ele>259.0</ele>
<speed>60.7</speed>
<course>304.1</course>
<desc>Speed 60.7 km/h Distance 133 km</desc>
<time>2011-03-24T17:27:34.13</time>
<name>6149</name>
</trkpt>
<trkpt lat="49.389642" lon="8.851927">
<ele>258.5</ele>
<speed>62.8</speed>
<course>315.8</course>
<desc>Speed 62.8 km/h Distance 133 km</desc>
<time>2011-03-24T17:27:35.11</time>
<name>6150</name>
</trkpt>
<trkpt lat="49.389763" lon="8.851745">
<ele>257.0</ele>
<speed>68.1</speed>
<course>322.5</course>
<desc>Speed 68.1 km/h Distance 133 km</desc>
<time>2011-03-24T17:27:36.12</time>
<name>6151</name>
</trkpt>
<trkpt lat="49.389893" lon="8.851592">
<ele>257.0</ele>
<speed>66.9</speed>
<course>322.7</course>
<desc>Speed 66.9 km/h Distance 133 km</desc>
<time>2011-03-24T17:27:37.11</time>
<name>6152</name>
</trkpt>
<trkpt lat="49.390022" lon="8.851442">
<ele>256.5</ele>
<speed>64.5</speed>
<course>326.1</course>
<desc>Speed 64.5 km/h Distance 133 km</desc>
<time>2011-03-24T17:27:38.12</time>
<name>6153</name>
</trkpt>
<trkpt lat="49.390172" lon="8.851287">
<ele>257.5</ele>
<speed>72.4</speed>
<course>323.9</course>
<desc>Speed 72.4 km/h Distance 133 km</desc>
<time>2011-03-24T17:27:39.12</time>
<name>6154</name>
</trkpt>
<trkpt lat="49.390323" lon="8.851117">
<ele>258.0</ele>
<speed>76.1</speed>
<course>325.1</course>
<desc>Speed 76.1 km/h Distance 133 km</desc>
<time>2011-03-24T17:27:40.12</time>
<name>6155</name>
</trkpt>
<trkpt lat="49.390490" lon="8.850938">
<ele>257.5</ele>
<speed>81.2</speed>
<course>326.4</course>
<desc>Speed 81.2 km/h Distance 133 km</desc>
<time>2011-03-24T17:27:41.12</time>
<name>6156</name>
</trkpt>
<trkpt lat="49.390653" lon="8.850772">
<ele>257.5</ele>
<speed>78.8</speed>
<course>334.3</course>
<desc>Speed 78.8 km/h Distance 133 km</desc>
<time>2011-03-24T17:27:42.12</time>
<name>6157</name>
</trkpt>
<trkpt lat="49.390838" lon="8.850635">
<ele>259.0</ele>
<speed>82.1</speed>
<course>341.0</course>
<desc>Speed 82.1 km/h Distance 133 km</desc>
<time>2011-03-24T17:27:43.12</time>
<name>6158</name>
</trkpt>
<trkpt lat="49.391040" lon="8.850528">
<ele>258.5</ele>
<speed>85.5</speed>
<course>350.2</course>
<desc>Speed 85.5 km/h Distance 133 km</desc>
<time>2011-03-24T17:27:44.11</time>
<name>6159</name>
</trkpt>
<trkpt lat="49.391260" lon="8.850470">
<ele>260.0</ele>
<speed>90.0</speed>
<course>353.5</course>
<desc>Speed 90.0 km/h Distance 133 km</desc>
<time>2011-03-24T17:27:45.12</time>
<name>6160</name>
</trkpt>
<trkpt lat="49.391508" lon="8.850427">
<ele>259.5</ele>
<speed>100</speed>
<course>355.0</course>
<desc>Speed 100 km/h Distance 133 km</desc>
<time>2011-03-24T17:27:46.11</time>
<name>6161</name>
</trkpt>
<trkpt lat="49.391743" lon="8.850395">
<ele>260.0</ele>
<speed>95.0</speed>
<course>354.8</course>
<desc>Speed 95.0 km/h Distance 133 km</desc>
<time>2011-03-24T17:27:47.11</time>
<name>6162</name>
</trkpt>
<trkpt lat="49.391983" lon="8.850362">
<ele>260.0</ele>
<speed>96.4</speed>
<course>354.9</course>
<desc>Speed 96.4 km/h Distance 133 km</desc>
<time>2011-03-24T17:27:48.12</time>
<name>6163</name>
</trkpt>
<trkpt lat="49.392215" lon="8.850330">
<ele>260.0</ele>
<speed>93.6</speed>
<course>355.8</course>
<desc>Speed 93.6 km/h Distance 133 km</desc>
<time>2011-03-24T17:27:49.11</time>
<name>6164</name>
</trkpt>
<trkpt lat="49.392422" lon="8.850307">
<ele>259.5</ele>
<speed>83.4</speed>
<course>355.0</course>
<desc>Speed 83.4 km/h Distance 133 km</desc>
<time>2011-03-24T17:27:50.11</time>
<name>6165</name>
</trkpt>
<trkpt lat="49.392622" lon="8.850280">
<ele>259.5</ele>
<speed>80.2</speed>
<course>353.0</course>
<desc>Speed 80.2 km/h Distance 133 km</desc>
<time>2011-03-24T17:27:51.11</time>
<name>6166</name>
</trkpt>
<trkpt lat="49.392808" lon="8.850245">
<ele>260.0</ele>
<speed>75.2</speed>
<course>344.6</course>
<desc>Speed 75.2 km/h Distance 133 km</desc>
<time>2011-03-24T17:27:52.10</time>
<name>6167</name>
</trkpt>
<trkpt lat="49.392958" lon="8.850182">
<ele>259.5</ele>
<speed>63.4</speed>
<course>335.1</course>
<desc>Speed 63.4 km/h Distance 133 km</desc>
<time>2011-03-24T17:27:53.10</time>
<name>6168</name>
</trkpt>
<trkpt lat="49.393127" lon="8.850062">
<ele>259.5</ele>
<speed>75.1</speed>
<course>310.8</course>
<desc>Speed 75.1 km/h Distance 133 km</desc>
<time>2011-03-24T17:27:54.11</time>
<name>6169</name>
</trkpt>
<trkpt lat="49.393302" lon="8.849750">
<ele>260.0</ele>
<speed>59.0</speed>
<course>302.8</course>
<desc>Speed 59.0 km/h Distance 133 km</desc>
<time>2011-03-24T17:27:56.11</time>
<name>6170</name>
</trkpt>
<trkpt lat="49.393367" lon="8.849595">
<ele>260.0</ele>
<speed>59.0</speed>
<course>287.8</course>
<desc>Speed 59.0 km/h Distance 133 km</desc>
<time>2011-03-24T17:27:57.11</time>
<name>6171</name>
</trkpt>
<trkpt lat="49.393777" lon="8.847628">
<ele>259.5</ele>
<speed>59.0</speed>
<course>290.6</course>
<desc>Speed 59.0 km/h Distance 133 km</desc>
<time>2011-03-24T17:28:05.10</time>
<name>6172</name>
</trkpt>
<trkpt lat="49.394158" lon="8.846070">
<ele>261.5</ele>
<speed>92.6</speed>
<course>304.8</course>
<desc>Speed 92.6 km/h Distance 133 km</desc>
<time>2011-03-24T17:28:09.10</time>
<name>6173</name>
</trkpt>
<trkpt lat="49.394303" lon="8.845750">
<ele>261.5</ele>
<speed>96.2</speed>
<course>297.5</course>
<desc>Speed 96.2 km/h Distance 133 km</desc>
<time>2011-03-24T17:28:10.10</time>
<name>6174</name>
</trkpt>
<trkpt lat="49.394402" lon="8.845460">
<ele>261.5</ele>
<speed>96.2</speed>
<course>302.4</course>
<desc>Speed 96.2 km/h Distance 133 km</desc>
<time>2011-03-24T17:28:11.10</time>
<name>6175</name>
</trkpt>
<trkpt lat="49.394602" lon="8.844977">
<ele>261.5</ele>
<speed>96.2</speed>
<course>296.2</course>
<desc>Speed 96.2 km/h Distance 133 km</desc>
<time>2011-03-24T17:28:13.10</time>
<name>6176</name>
</trkpt>
<trkpt lat="49.394693" lon="8.844690">
<ele>261.0</ele>
<speed>96.2</speed>
<course>300.3</course>
<desc>Speed 96.2 km/h Distance 133 km</desc>
<time>2011-03-24T17:28:14.10</time>
<name>6177</name>
</trkpt>
<trkpt lat="49.394805" lon="8.844397">
<ele>261.5</ele>
<speed>96.2</speed>
<course>308.6</course>
<desc>Speed 96.2 km/h Distance 133 km</desc>
<time>2011-03-24T17:28:15.09</time>
<name>6178</name>
</trkpt>
<trkpt lat="49.395125" lon="8.843780">
<ele>264.5</ele>
<speed>96.2</speed>
<course>294.7</course>
<desc>Speed 96.2 km/h Distance 133 km</desc>
<time>2011-03-24T17:28:19.10</time>
<name>6179</name>
</trkpt>
<trkpt lat="49.395523" lon="8.842452">
<ele>268.0</ele>
<speed>50.5</speed>
<course>278.1</course>
<desc>Speed 50.5 km/h Distance 134 km</desc>
<time>2011-03-24T17:28:23.08</time>
<name>6180</name>
</trkpt>
<trkpt lat="49.395568" lon="8.841967">
<ele>270.0</ele>
<speed>47.1</speed>
<course>287.5</course>
<desc>Speed 47.1 km/h Distance 134 km</desc>
<time>2011-03-24T17:28:25.09</time>
<name>6181</name>
</trkpt>
<trkpt lat="49.395608" lon="8.841772">
<ele>269.5</ele>
<speed>46.0</speed>
<course>291.0</course>
<desc>Speed 46.0 km/h Distance 134 km</desc>
<time>2011-03-24T17:28:26.10</time>
<name>6182</name>
</trkpt>
<trkpt lat="49.395652" lon="8.841598">
<ele>269.5</ele>
<speed>45.5</speed>
<course>299.9</course>
<desc>Speed 45.5 km/h Distance 134 km</desc>
<time>2011-03-24T17:28:27.10</time>
<name>6183</name>
</trkpt>
<trkpt lat="49.395708" lon="8.841447">
<ele>270.5</ele>
<speed>43.4</speed>
<course>292.3</course>
<desc>Speed 43.4 km/h Distance 134 km</desc>
<time>2011-03-24T17:28:28.10</time>
<name>6184</name>
</trkpt>
<trkpt lat="49.395748" lon="8.841297">
<ele>271.0</ele>
<speed>40.3</speed>
<course>280.6</course>
<desc>Speed 40.3 km/h Distance 134 km</desc>
<time>2011-03-24T17:28:29.08</time>
<name>6185</name>
</trkpt>
<trkpt lat="49.395763" lon="8.841173">
<ele>272.0</ele>
<speed>29.6</speed>
<course>282.4</course>
<desc>Speed 29.6 km/h Distance 134 km</desc>
<time>2011-03-24T17:28:30.09</time>
<name>6186</name>
</trkpt>
<trkpt lat="49.395778" lon="8.841068">
<ele>268.5</ele>
<speed>21.8</speed>
<course>229.9</course>
<desc>Speed 21.8 km/h Distance 134 km</desc>
<time>2011-03-24T17:28:31.09</time>
<name>6187</name>
</trkpt>
<trkpt lat="49.395750" lon="8.841017">
<ele>268.0</ele>
<speed>17.9</speed>
<course>194.3</course>
<desc>Speed 17.9 km/h Distance 134 km</desc>
<time>2011-03-24T17:28:32.09</time>
<name>6188</name>
</trkpt>
<trkpt lat="49.395712" lon="8.841002">
<ele>267.5</ele>
<speed>16.5</speed>
<course>170.2</course>
<desc>Speed 16.5 km/h Distance 134 km</desc>
<time>2011-03-24T17:28:33.09</time>
<name>6189</name>
</trkpt>
<trkpt lat="49.395662" lon="8.841015">
<ele>266.0</ele>
<speed>22.8</speed>
<course>157.1</course>
<desc>Speed 22.8 km/h Distance 134 km</desc>
<time>2011-03-24T17:28:34.10</time>
<name>6190</name>
</trkpt>
<trkpt lat="49.395595" lon="8.841058">
<ele>268.0</ele>
<speed>31.6</speed>
<course>128.7</course>
<desc>Speed 31.6 km/h Distance 134 km</desc>
<time>2011-03-24T17:28:35.10</time>
<name>6191</name>
</trkpt>
<trkpt lat="49.395477" lon="8.841285">
<ele>270.5</ele>
<speed>37.1</speed>
<course>124.4</course>
<desc>Speed 37.1 km/h Distance 134 km</desc>
<time>2011-03-24T17:28:37.09</time>
<name>6192</name>
</trkpt>
<trkpt lat="49.395435" lon="8.841378">
<ele>270.5</ele>
<speed>37.1</speed>
<course>133.1</course>
<desc>Speed 37.1 km/h Distance 134 km</desc>
<time>2011-03-24T17:28:38.09</time>
<name>6193</name>
</trkpt>
<trkpt lat="49.395365" lon="8.841493">
<ele>271.0</ele>
<speed>41.4</speed>
<course>149.1</course>
<desc>Speed 41.4 km/h Distance 134 km</desc>
<time>2011-03-24T17:28:39.08</time>
<name>6194</name>
</trkpt>
<trkpt lat="49.395263" lon="8.841587">
<ele>271.0</ele>
<speed>48.1</speed>
<course>154.9</course>
<desc>Speed 48.1 km/h Distance 134 km</desc>
<time>2011-03-24T17:28:40.09</time>
<name>6195</name>
</trkpt>
<trkpt lat="49.395145" lon="8.841672">
<ele>272.0</ele>
<speed>50.5</speed>
<course>162.4</course>
<desc>Speed 50.5 km/h Distance 134 km</desc>
<time>2011-03-24T17:28:41.08</time>
<name>6196</name>
</trkpt>
<trkpt lat="49.395022" lon="8.841732">
<ele>273.5</ele>
<speed>54.4</speed>
<course>165.3</course>
<desc>Speed 54.4 km/h Distance 134 km</desc>
<time>2011-03-24T17:28:42.09</time>
<name>6197</name>
</trkpt>
<trkpt lat="49.394910" lon="8.841777">
<ele>275.0</ele>
<speed>41.1</speed>
<course>167.2</course>
<desc>Speed 41.1 km/h Distance 134 km</desc>
<time>2011-03-24T17:28:43.08</time>
<name>6198</name>
</trkpt>
<trkpt lat="49.394805" lon="8.841813">
<ele>276.0</ele>
<speed>40.0</speed>
<course>173.2</course>
<desc>Speed 40.0 km/h Distance 134 km</desc>
<time>2011-03-24T17:28:44.09</time>
<name>6199</name>
</trkpt>
<trkpt lat="49.394697" lon="8.841833">
<ele>275.5</ele>
<speed>39.6</speed>
<course>169.6</course>
<desc>Speed 39.6 km/h Distance 134 km</desc>
<time>2011-03-24T17:28:45.07</time>
<name>6200</name>
</trkpt>
<trkpt lat="49.394590" lon="8.841863">
<ele>276.0</ele>
<speed>42.8</speed>
<course>168.3</course>
<desc>Speed 42.8 km/h Distance 134 km</desc>
<time>2011-03-24T17:28:46.08</time>
<name>6201</name>
</trkpt>
<trkpt lat="49.394480" lon="8.841898">
<ele>274.5</ele>
<speed>45.1</speed>
<course>170.8</course>
<desc>Speed 45.1 km/h Distance 134 km</desc>
<time>2011-03-24T17:28:47.08</time>
<name>6202</name>
</trkpt>
<trkpt lat="49.394367" lon="8.841927">
<ele>274.0</ele>
<speed>46.0</speed>
<course>173.4</course>
<desc>Speed 46.0 km/h Distance 134 km</desc>
<time>2011-03-24T17:28:48.08</time>
<name>6203</name>
</trkpt>
<trkpt lat="49.394255" lon="8.841947">
<ele>272.5</ele>
<speed>47.1</speed>
<course>171.5</course>
<desc>Speed 47.1 km/h Distance 134 km</desc>
<time>2011-03-24T17:28:49.08</time>
<name>6204</name>
</trkpt>
<trkpt lat="49.394138" lon="8.841973">
<ele>272.0</ele>
<speed>49.1</speed>
<course>172.8</course>
<desc>Speed 49.1 km/h Distance 134 km</desc>
<time>2011-03-24T17:28:50.07</time>
<name>6205</name>
</trkpt>
<trkpt lat="49.394018" lon="8.841997">
<ele>272.0</ele>
<speed>48.1</speed>
<course>178.3</course>
<desc>Speed 48.1 km/h Distance 134 km</desc>
<time>2011-03-24T17:28:51.07</time>
<name>6206</name>
</trkpt>
<trkpt lat="49.393908" lon="8.842002">
<ele>272.0</ele>
<speed>44.3</speed>
<course>184.1</course>
<desc>Speed 44.3 km/h Distance 134 km</desc>
<time>2011-03-24T17:28:52.07</time>
<name>6207</name>
</trkpt>
<trkpt lat="49.393803" lon="8.841990">
<ele>272.0</ele>
<speed>41.9</speed>
<course>204.7</course>
<desc>Speed 41.9 km/h Distance 134 km</desc>
<time>2011-03-24T17:28:53.07</time>
<name>6208</name>
</trkpt>
<trkpt lat="49.393707" lon="8.841922">
<ele>272.5</ele>
<speed>43.0</speed>
<course>202.6</course>
<desc>Speed 43.0 km/h Distance 134 km</desc>
<time>2011-03-24T17:28:54.06</time>
<name>6209</name>
</trkpt>
<trkpt lat="49.393605" lon="8.841857">
<ele>272.0</ele>
<speed>44.6</speed>
<course>205.2</course>
<desc>Speed 44.6 km/h Distance 134 km</desc>
<time>2011-03-24T17:28:55.07</time>
<name>6210</name>
</trkpt>
<trkpt lat="49.393508" lon="8.841787">
<ele>272.0</ele>
<speed>44.5</speed>
<course>204.0</course>
<desc>Speed 44.5 km/h Distance 134 km</desc>
<time>2011-03-24T17:28:56.08</time>
<name>6211</name>
</trkpt>
<trkpt lat="49.393413" lon="8.841722">
<ele>272.5</ele>
<speed>43.5</speed>
<course>198.3</course>
<desc>Speed 43.5 km/h Distance 134 km</desc>
<time>2011-03-24T17:28:57.06</time>
<name>6212</name>
</trkpt>
<trkpt lat="49.393312" lon="8.841670">
<ele>272.5</ele>
<speed>43.4</speed>
<course>197.5</course>
<desc>Speed 43.4 km/h Distance 134 km</desc>
<time>2011-03-24T17:28:58.07</time>
<name>6213</name>
</trkpt>
<trkpt lat="49.393212" lon="8.841622">
<ele>272.5</ele>
<speed>44.0</speed>
<course>189.9</course>
<desc>Speed 44.0 km/h Distance 134 km</desc>
<time>2011-03-24T17:28:59.06</time>
<name>6214</name>
</trkpt>
<trkpt lat="49.393100" lon="8.841592">
<ele>272.5</ele>
<speed>45.2</speed>
<course>193.6</course>
<desc>Speed 45.2 km/h Distance 134 km</desc>
<time>2011-03-24T17:29:00.06</time>
<name>6215</name>
</trkpt>
<trkpt lat="49.392997" lon="8.841553">
<ele>272.0</ele>
<speed>44.5</speed>
<course>190.1</course>
<desc>Speed 44.5 km/h Distance 134 km</desc>
<time>2011-03-24T17:29:01.06</time>
<name>6216</name>
</trkpt>
<trkpt lat="49.392887" lon="8.841523">
<ele>271.5</ele>
<speed>44.7</speed>
<course>191.5</course>
<desc>Speed 44.7 km/h Distance 134 km</desc>
<time>2011-03-24T17:29:02.06</time>
<name>6217</name>
</trkpt>
<trkpt lat="49.392780" lon="8.841490">
<ele>271.0</ele>
<speed>44.5</speed>
<course>192.4</course>
<desc>Speed 44.5 km/h Distance 134 km</desc>
<time>2011-03-24T17:29:03.06</time>
<name>6218</name>
</trkpt>
<trkpt lat="49.392672" lon="8.841453">
<ele>270.0</ele>
<speed>44.7</speed>
<course>193.2</course>
<desc>Speed 44.7 km/h Distance 134 km</desc>
<time>2011-03-24T17:29:04.06</time>
<name>6219</name>
</trkpt>
<trkpt lat="49.392565" lon="8.841415">
<ele>269.5</ele>
<speed>44.5</speed>
<course>193.4</course>
<desc>Speed 44.5 km/h Distance 134 km</desc>
<time>2011-03-24T17:29:05.06</time>
<name>6220</name>
</trkpt>
<trkpt lat="49.392460" lon="8.841377">
<ele>269.0</ele>
<speed>44.5</speed>
<course>192.0</course>
<desc>Speed 44.5 km/h Distance 134 km</desc>
<time>2011-03-24T17:29:06.06</time>
<name>6221</name>
</trkpt>
<trkpt lat="49.392353" lon="8.841342">
<ele>268.5</ele>
<speed>44.1</speed>
<course>191.3</course>
<desc>Speed 44.1 km/h Distance 134 km</desc>
<time>2011-03-24T17:29:07.06</time>
<name>6222</name>
</trkpt>
<trkpt lat="49.392250" lon="8.841310">
<ele>268.0</ele>
<speed>42.9</speed>
<course>193.9</course>
<desc>Speed 42.9 km/h Distance 134 km</desc>
<time>2011-03-24T17:29:08.06</time>
<name>6223</name>
</trkpt>
<trkpt lat="49.392153" lon="8.841273">
<ele>268.0</ele>
<speed>40.4</speed>
<course>196.4</course>
<desc>Speed 40.4 km/h Distance 134 km</desc>
<time>2011-03-24T17:29:09.05</time>
<name>6224</name>
</trkpt>
<trkpt lat="49.392068" lon="8.841235">
<ele>268.0</ele>
<speed>35.4</speed>
<course>209.9</course>
<desc>Speed 35.4 km/h Distance 134 km</desc>
<time>2011-03-24T17:29:10.06</time>
<name>6225</name>
</trkpt>
<trkpt lat="49.392012" lon="8.841185">
<ele>268.5</ele>
<speed>26.3</speed>
<course>235.7</course>
<desc>Speed 26.3 km/h Distance 134 km</desc>
<time>2011-03-24T17:29:11.05</time>
<name>6226</name>
</trkpt>
<trkpt lat="49.391978" lon="8.841110">
<ele>269.0</ele>
<speed>23.8</speed>
<course>238.2</course>
<desc>Speed 23.8 km/h Distance 134 km</desc>
<time>2011-03-24T17:29:12.05</time>
<name>6227</name>
</trkpt>
<trkpt lat="49.391947" lon="8.841032">
<ele>269.0</ele>
<speed>24.0</speed>
<course>222.1</course>
<desc>Speed 24.0 km/h Distance 134 km</desc>
<time>2011-03-24T17:29:13.06</time>
<name>6228</name>
</trkpt>
<trkpt lat="49.391895" lon="8.840960">
<ele>268.5</ele>
<speed>28.5</speed>
<course>199.9</course>
<desc>Speed 28.5 km/h Distance 134 km</desc>
<time>2011-03-24T17:29:14.06</time>
<name>6229</name>
</trkpt>
<trkpt lat="49.391805" lon="8.840910">
<ele>268.5</ele>
<speed>38.1</speed>
<course>185.6</course>
<desc>Speed 38.1 km/h Distance 134 km</desc>
<time>2011-03-24T17:29:15.06</time>
<name>6230</name>
</trkpt>
<trkpt lat="49.391683" lon="8.840892">
<ele>268.0</ele>
<speed>48.2</speed>
<course>186.4</course>
<desc>Speed 48.2 km/h Distance 134 km</desc>
<time>2011-03-24T17:29:16.06</time>
<name>6231</name>
</trkpt>
<trkpt lat="49.391567" lon="8.840872">
<ele>267.5</ele>
<speed>46.8</speed>
<course>183.2</course>
<desc>Speed 46.8 km/h Distance 134 km</desc>
<time>2011-03-24T17:29:17.06</time>
<name>6232</name>
</trkpt>
<trkpt lat="49.391450" lon="8.840862">
<ele>267.5</ele>
<speed>46.6</speed>
<course>177.2</course>
<desc>Speed 46.6 km/h Distance 134 km</desc>
<time>2011-03-24T17:29:18.06</time>
<name>6233</name>
</trkpt>
<trkpt lat="49.391320" lon="8.840872">
<ele>267.0</ele>
<speed>51.8</speed>
<course>183.0</course>
<desc>Speed 51.8 km/h Distance 134 km</desc>
<time>2011-03-24T17:29:19.05</time>
<name>6234</name>
</trkpt>
<trkpt lat="49.391197" lon="8.840862">
<ele>267.0</ele>
<speed>49.0</speed>
<course>183.6</course>
<desc>Speed 49.0 km/h Distance 134 km</desc>
<time>2011-03-24T17:29:20.05</time>
<name>6235</name>
</trkpt>
<trkpt lat="49.391075" lon="8.840850">
<ele>267.0</ele>
<speed>48.8</speed>
<course>185.5</course>
<desc>Speed 48.8 km/h Distance 134 km</desc>
<time>2011-03-24T17:29:21.05</time>
<name>6236</name>
</trkpt>
<trkpt lat="49.390952" lon="8.840832">
<ele>267.0</ele>
<speed>49.7</speed>
<course>186.9</course>
<desc>Speed 49.7 km/h Distance 134 km</desc>
<time>2011-03-24T17:29:22.04</time>
<name>6237</name>
</trkpt>
<trkpt lat="49.390827" lon="8.840808">
<ele>267.0</ele>
<speed>49.9</speed>
<course>191.0</course>
<desc>Speed 49.9 km/h Distance 134 km</desc>
<time>2011-03-24T17:29:23.04</time>
<name>6238</name>
</trkpt>
<trkpt lat="49.390703" lon="8.840772">
<ele>267.0</ele>
<speed>49.9</speed>
<course>195.9</course>
<desc>Speed 49.9 km/h Distance 134 km</desc>
<time>2011-03-24T17:29:24.04</time>
<name>6239</name>
</trkpt>
<trkpt lat="49.390582" lon="8.840718">
<ele>266.5</ele>
<speed>50.3</speed>
<course>201.4</course>
<desc>Speed 50.3 km/h Distance 134 km</desc>
<time>2011-03-24T17:29:25.04</time>
<name>6240</name>
</trkpt>
<trkpt lat="49.390460" lon="8.840645">
<ele>265.0</ele>
<speed>51.9</speed>
<course>205.4</course>
<desc>Speed 51.9 km/h Distance 134 km</desc>
<time>2011-03-24T17:29:26.04</time>
<name>6241</name>
</trkpt>
<trkpt lat="49.390337" lon="8.840555">
<ele>264.0</ele>
<speed>54.7</speed>
<course>206.4</course>
<desc>Speed 54.7 km/h Distance 134 km</desc>
<time>2011-03-24T17:29:27.04</time>
<name>6242</name>
</trkpt>
<trkpt lat="49.390203" lon="8.840453">
<ele>264.0</ele>
<speed>60.2</speed>
<course>201.9</course>
<desc>Speed 60.2 km/h Distance 134 km</desc>
<time>2011-03-24T17:29:28.04</time>
<name>6243</name>
</trkpt>
<trkpt lat="49.390033" lon="8.840348">
<ele>264.0</ele>
<speed>73.6</speed>
<course>200.7</course>
<desc>Speed 73.6 km/h Distance 134 km</desc>
<time>2011-03-24T17:29:29.05</time>
<name>6244</name>
</trkpt>
<trkpt lat="49.389867" lon="8.840252">
<ele>264.0</ele>
<speed>72.0</speed>
<course>198.3</course>
<desc>Speed 72.0 km/h Distance 134 km</desc>
<time>2011-03-24T17:29:30.05</time>
<name>6245</name>
</trkpt>
<trkpt lat="49.389687" lon="8.840160">
<ele>264.0</ele>
<speed>75.5</speed>
<course>197.9</course>
<desc>Speed 75.5 km/h Distance 134 km</desc>
<time>2011-03-24T17:29:31.04</time>
<name>6246</name>
</trkpt>
<trkpt lat="49.389505" lon="8.840070">
<ele>264.0</ele>
<speed>77.1</speed>
<course>198.8</course>
<desc>Speed 77.1 km/h Distance 134 km</desc>
<time>2011-03-24T17:29:32.04</time>
<name>6247</name>
</trkpt>
<trkpt lat="49.389330" lon="8.839978">
<ele>265.0</ele>
<speed>74.6</speed>
<course>198.9</course>
<desc>Speed 74.6 km/h Distance 134 km</desc>
<time>2011-03-24T17:29:33.04</time>
<name>6248</name>
</trkpt>
<trkpt lat="49.389162" lon="8.839890">
<ele>265.0</ele>
<speed>70.9</speed>
<course>197.0</course>
<desc>Speed 70.9 km/h Distance 134 km</desc>
<time>2011-03-24T17:29:34.03</time>
<name>6249</name>
</trkpt>
<trkpt lat="49.388995" lon="8.839812">
<ele>264.5</ele>
<speed>70.2</speed>
<course>195.1</course>
<desc>Speed 70.2 km/h Distance 135 km</desc>
<time>2011-03-24T17:29:35.04</time>
<name>6250</name>
</trkpt>
<trkpt lat="49.388827" lon="8.839742">
<ele>264.5</ele>
<speed>69.9</speed>
<course>190.3</course>
<desc>Speed 69.9 km/h Distance 135 km</desc>
<time>2011-03-24T17:29:36.04</time>
<name>6251</name>
</trkpt>
<trkpt lat="49.388660" lon="8.839695">
<ele>264.5</ele>
<speed>68.1</speed>
<course>184.1</course>
<desc>Speed 68.1 km/h Distance 135 km</desc>
<time>2011-03-24T17:29:37.04</time>
<name>6252</name>
</trkpt>
<trkpt lat="49.388495" lon="8.839677">
<ele>265.0</ele>
<speed>66.1</speed>
<course>183.5</course>
<desc>Speed 66.1 km/h Distance 135 km</desc>
<time>2011-03-24T17:29:38.04</time>
<name>6253</name>
</trkpt>
<trkpt lat="49.388337" lon="8.839662">
<ele>265.0</ele>
<speed>63.5</speed>
<course>197.5</course>
<desc>Speed 63.5 km/h Distance 135 km</desc>
<time>2011-03-24T17:29:39.03</time>
<name>6254</name>
</trkpt>
<trkpt lat="49.388185" lon="8.839588">
<ele>265.0</ele>
<speed>63.4</speed>
<course>198.2</course>
<desc>Speed 63.4 km/h Distance 135 km</desc>
<time>2011-03-24T17:29:40.04</time>
<name>6255</name>
</trkpt>
<trkpt lat="49.388023" lon="8.839507">
<ele>266.5</ele>
<speed>68.5</speed>
<course>213.7</course>
<desc>Speed 68.5 km/h Distance 135 km</desc>
<time>2011-03-24T17:29:41.03</time>
<name>6256</name>
</trkpt>
<trkpt lat="49.387880" lon="8.839360">
<ele>266.5</ele>
<speed>69.3</speed>
<course>213.1</course>
<desc>Speed 69.3 km/h Distance 135 km</desc>
<time>2011-03-24T17:29:42.04</time>
<name>6257</name>
</trkpt>
<trkpt lat="49.387735" lon="8.839215">
<ele>266.5</ele>
<speed>69.0</speed>
<course>219.3</course>
<desc>Speed 69.0 km/h Distance 135 km</desc>
<time>2011-03-24T17:29:43.03</time>
<name>6258</name>
</trkpt>
<trkpt lat="49.387605" lon="8.839052">
<ele>266.5</ele>
<speed>67.6</speed>
<course>225.0</course>
<desc>Speed 67.6 km/h Distance 135 km</desc>
<time>2011-03-24T17:29:44.03</time>
<name>6259</name>
</trkpt>
<trkpt lat="49.387490" lon="8.838875">
<ele>266.0</ele>
<speed>65.1</speed>
<course>224.3</course>
<desc>Speed 65.1 km/h Distance 135 km</desc>
<time>2011-03-24T17:29:45.03</time>
<name>6260</name>
</trkpt>
<trkpt lat="49.387373" lon="8.838700">
<ele>266.0</ele>
<speed>65.8</speed>
<course>226.9</course>
<desc>Speed 65.8 km/h Distance 135 km</desc>
<time>2011-03-24T17:29:46.03</time>
<name>6261</name>
</trkpt>
<trkpt lat="49.387275" lon="8.838538">
<ele>266.0</ele>
<speed>58.0</speed>
<course>223.5</course>
<desc>Speed 58.0 km/h Distance 135 km</desc>
<time>2011-03-24T17:29:47.03</time>
<name>6262</name>
</trkpt>
<trkpt lat="49.387180" lon="8.838400">
<ele>267.0</ele>
<speed>52.9</speed>
<course>222.6</course>
<desc>Speed 52.9 km/h Distance 135 km</desc>
<time>2011-03-24T17:29:48.03</time>
<name>6263</name>
</trkpt>
<trkpt lat="49.387103" lon="8.838292">
<ele>267.0</ele>
<speed>52.9</speed>
<course>206.6</course>
<desc>Speed 52.9 km/h Distance 135 km</desc>
<time>2011-03-24T17:29:49.03</time>
<name>6264</name>
</trkpt>
<trkpt lat="49.386995" lon="8.838208">
<ele>267.0</ele>
<speed>49.5</speed>
<course>196.8</course>
<desc>Speed 49.5 km/h Distance 135 km</desc>
<time>2011-03-24T17:29:50.03</time>
<name>6265</name>
</trkpt>
<trkpt lat="49.386877" lon="8.838153">
<ele>266.5</ele>
<speed>48.4</speed>
<course>185.3</course>
<desc>Speed 48.4 km/h Distance 135 km</desc>
<time>2011-03-24T17:29:51.03</time>
<name>6266</name>
</trkpt>
<trkpt lat="49.386748" lon="8.838135">
<ele>266.5</ele>
<speed>51.1</speed>
<course>185.9</course>
<desc>Speed 51.1 km/h Distance 135 km</desc>
<time>2011-03-24T17:29:52.02</time>
<name>6267</name>
</trkpt>
<trkpt lat="49.386622" lon="8.838115">
<ele>265.0</ele>
<speed>51.2</speed>
<course>186.1</course>
<desc>Speed 51.2 km/h Distance 135 km</desc>
<time>2011-03-24T17:29:53.04</time>
<name>6268</name>
</trkpt>
<trkpt lat="49.386500" lon="8.838095">
<ele>264.0</ele>
<speed>49.3</speed>
<course>183.5</course>
<desc>Speed 49.3 km/h Distance 135 km</desc>
<time>2011-03-24T17:29:54.12</time>
<name>6269</name>
</trkpt>
<trkpt lat="49.386375" lon="8.838083">
<ele>263.5</ele>
<speed>50.5</speed>
<course>173.8</course>
<desc>Speed 50.5 km/h Distance 135 km</desc>
<time>2011-03-24T17:29:55.03</time>
<name>6270</name>
</trkpt>
<trkpt lat="49.386235" lon="8.838107">
<ele>263.0</ele>
<speed>55.4</speed>
<course>177.7</course>
<desc>Speed 55.4 km/h Distance 135 km</desc>
<time>2011-03-24T17:29:56.04</time>
<name>6271</name>
</trkpt>
<trkpt lat="49.386098" lon="8.838115">
<ele>263.0</ele>
<speed>54.4</speed>
<course>178.3</course>
<desc>Speed 54.4 km/h Distance 135 km</desc>
<time>2011-03-24T17:29:57.04</time>
<name>6272</name>
</trkpt>
<trkpt lat="49.385950" lon="8.838122">
<ele>263.0</ele>
<speed>59.0</speed>
<course>176.8</course>
<desc>Speed 59.0 km/h Distance 135 km</desc>
<time>2011-03-24T17:29:58.03</time>
<name>6273</name>
</trkpt>
<trkpt lat="49.385792" lon="8.838135">
<ele>262.0</ele>
<speed>64.2</speed>
<course>178.1</course>
<desc>Speed 64.2 km/h Distance 135 km</desc>
<time>2011-03-24T17:29:59.03</time>
<name>6274</name>
</trkpt>
<trkpt lat="49.385632" lon="8.838143">
<ele>261.0</ele>
<speed>64.9</speed>
<course>178.1</course>
<desc>Speed 64.9 km/h Distance 135 km</desc>
<time>2011-03-24T17:30:00.03</time>
<name>6275</name>
</trkpt>
<trkpt lat="49.385470" lon="8.838152">
<ele>259.5</ele>
<speed>64.5</speed>
<course>178.1</course>
<desc>Speed 64.5 km/h Distance 135 km</desc>
<time>2011-03-24T17:30:01.02</time>
<name>6276</name>
</trkpt>
<trkpt lat="49.385310" lon="8.838160">
<ele>257.5</ele>
<speed>64.2</speed>
<course>178.1</course>
<desc>Speed 64.2 km/h Distance 135 km</desc>
<time>2011-03-24T17:30:02.03</time>
<name>6277</name>
</trkpt>
<trkpt lat="49.385148" lon="8.838168">
<ele>255.5</ele>
<speed>64.5</speed>
<course>179.2</course>
<desc>Speed 64.5 km/h Distance 135 km</desc>
<time>2011-03-24T17:30:03.02</time>
<name>6278</name>
</trkpt>
<trkpt lat="49.384987" lon="8.838172">
<ele>254.5</ele>
<speed>64.4</speed>
<course>178.8</course>
<desc>Speed 64.4 km/h Distance 135 km</desc>
<time>2011-03-24T17:30:04.02</time>
<name>6279</name>
</trkpt>
<trkpt lat="49.384828" lon="8.838177">
<ele>253.5</ele>
<speed>64.2</speed>
<course>179.2</course>
<desc>Speed 64.2 km/h Distance 135 km</desc>
<time>2011-03-24T17:30:05.02</time>
<name>6280</name>
</trkpt>
<trkpt lat="49.384672" lon="8.838180">
<ele>252.5</ele>
<speed>63.1</speed>
<course>178.8</course>
<desc>Speed 63.1 km/h Distance 135 km</desc>
<time>2011-03-24T17:30:06.02</time>
<name>6281</name>
</trkpt>
<trkpt lat="49.384517" lon="8.838185">
<ele>252.0</ele>
<speed>61.8</speed>
<course>178.8</course>
<desc>Speed 61.8 km/h Distance 135 km</desc>
<time>2011-03-24T17:30:07.02</time>
<name>6282</name>
</trkpt>
<trkpt lat="49.384362" lon="8.838190">
<ele>251.5</ele>
<speed>61.2</speed>
<course>178.4</course>
<desc>Speed 61.2 km/h Distance 135 km</desc>
<time>2011-03-24T17:30:08.02</time>
<name>6283</name>
</trkpt>
<trkpt lat="49.384208" lon="8.838197">
<ele>250.5</ele>
<speed>61.3</speed>
<course>178.4</course>
<desc>Speed 61.3 km/h Distance 135 km</desc>
<time>2011-03-24T17:30:09.02</time>
<name>6284</name>
</trkpt>
<trkpt lat="49.384055" lon="8.838203">
<ele>250.0</ele>
<speed>60.6</speed>
<course>178.7</course>
<desc>Speed 60.6 km/h Distance 135 km</desc>
<time>2011-03-24T17:30:10.01</time>
<name>6285</name>
</trkpt>
<trkpt lat="49.383905" lon="8.838208">
<ele>250.0</ele>
<speed>59.5</speed>
<course>178.4</course>
<desc>Speed 59.5 km/h Distance 135 km</desc>
<time>2011-03-24T17:30:11.02</time>
<name>6286</name>
</trkpt>
<trkpt lat="49.383757" lon="8.838215">
<ele>250.5</ele>
<speed>58.8</speed>
<course>178.3</course>
<desc>Speed 58.8 km/h Distance 135 km</desc>
<time>2011-03-24T17:30:12.01</time>
<name>6287</name>
</trkpt>
<trkpt lat="49.383610" lon="8.838222">
<ele>250.5</ele>
<speed>58.9</speed>
<course>178.4</course>
<desc>Speed 58.9 km/h Distance 135 km</desc>
<time>2011-03-24T17:30:13.02</time>
<name>6288</name>
</trkpt>
<trkpt lat="49.383462" lon="8.838228">
<ele>250.5</ele>
<speed>58.9</speed>
<course>178.3</course>
<desc>Speed 58.9 km/h Distance 135 km</desc>
<time>2011-03-24T17:30:14.02</time>
<name>6289</name>
</trkpt>
<trkpt lat="49.383313" lon="8.838235">
<ele>251.0</ele>
<speed>58.8</speed>
<course>178.3</course>
<desc>Speed 58.8 km/h Distance 135 km</desc>
<time>2011-03-24T17:30:15.02</time>
<name>6290</name>
</trkpt>
<trkpt lat="49.383167" lon="8.838242">
<ele>251.0</ele>
<speed>58.2</speed>
<course>178.7</course>
<desc>Speed 58.2 km/h Distance 135 km</desc>
<time>2011-03-24T17:30:16.01</time>
<name>6291</name>
</trkpt>
<trkpt lat="49.383022" lon="8.838247">
<ele>250.5</ele>
<speed>57.9</speed>
<course>175.8</course>
<desc>Speed 57.9 km/h Distance 135 km</desc>
<time>2011-03-24T17:30:17.02</time>
<name>6292</name>
</trkpt>
<trkpt lat="49.382873" lon="8.838263">
<ele>250.0</ele>
<speed>59.8</speed>
<course>179.1</course>
<desc>Speed 59.8 km/h Distance 135 km</desc>
<time>2011-03-24T17:30:18.01</time>
<name>6293</name>
</trkpt>
<trkpt lat="49.382732" lon="8.838267">
<ele>249.5</ele>
<speed>56.8</speed>
<course>179.5</course>
<desc>Speed 56.8 km/h Distance 135 km</desc>
<time>2011-03-24T17:30:19.02</time>
<name>6294</name>
</trkpt>
<trkpt lat="49.382593" lon="8.838268">
<ele>249.0</ele>
<speed>55.8</speed>
<course>180.0</course>
<desc>Speed 55.8 km/h Distance 135 km</desc>
<time>2011-03-24T17:30:20.01</time>
<name>6295</name>
</trkpt>
<trkpt lat="49.382457" lon="8.838268">
<ele>248.5</ele>
<speed>54.9</speed>
<course>178.6</course>
<desc>Speed 54.9 km/h Distance 135 km</desc>
<time>2011-03-24T17:30:21.02</time>
<name>6296</name>
</trkpt>
<trkpt lat="49.382322" lon="8.838273">
<ele>247.5</ele>
<speed>54.9</speed>
<course>179.4</course>
<desc>Speed 54.9 km/h Distance 135 km</desc>
<time>2011-03-24T17:30:22.01</time>
<name>6297</name>
</trkpt>
<trkpt lat="49.382187" lon="8.838275">
<ele>247.0</ele>
<speed>54.0</speed>
<course>178.6</course>
<desc>Speed 54.0 km/h Distance 135 km</desc>
<time>2011-03-24T17:30:23.01</time>
<name>6298</name>
</trkpt>
<trkpt lat="49.382053" lon="8.838280">
<ele>246.5</ele>
<speed>54.0</speed>
<course>179.6</course>
<desc>Speed 54.0 km/h Distance 135 km</desc>
<time>2011-03-24T17:30:24.01</time>
<name>6299</name>
</trkpt>
<trkpt lat="49.381923" lon="8.838282">
<ele>245.5</ele>
<speed>52.1</speed>
<course>179.4</course>
<desc>Speed 52.1 km/h Distance 135 km</desc>
<time>2011-03-24T17:30:25.02</time>
<name>6300</name>
</trkpt>
<trkpt lat="49.381800" lon="8.838283">
<ele>245.0</ele>
<speed>49.4</speed>
<course>179.5</course>
<desc>Speed 49.4 km/h Distance 135 km</desc>
<time>2011-03-24T17:30:26.00</time>
<name>6301</name>
</trkpt>
<trkpt lat="49.381683" lon="8.838285">
<ele>244.5</ele>
<speed>47.1</speed>
<course>178.9</course>
<desc>Speed 47.1 km/h Distance 135 km</desc>
<time>2011-03-24T17:30:27.00</time>
<name>6302</name>
</trkpt>
<trkpt lat="49.381572" lon="8.838288">
<ele>244.0</ele>
<speed>45.0</speed>
<course>178.8</course>
<desc>Speed 45.0 km/h Distance 135 km</desc>
<time>2011-03-24T17:30:28.02</time>
<name>6303</name>
</trkpt>
<trkpt lat="49.381467" lon="8.838292">
<ele>244.0</ele>
<speed>42.4</speed>
<course>179.5</course>
<desc>Speed 42.4 km/h Distance 135 km</desc>
<time>2011-03-24T17:30:29.01</time>
<name>6304</name>
</trkpt>
<trkpt lat="49.381367" lon="8.838293">
<ele>244.0</ele>
<speed>40.2</speed>
<course>178.1</course>
<desc>Speed 40.2 km/h Distance 135 km</desc>
<time>2011-03-24T17:30:30.00</time>
<name>6305</name>
</trkpt>
<trkpt lat="49.381270" lon="8.838298">
<ele>244.0</ele>
<speed>38.9</speed>
<course>178.7</course>
<desc>Speed 38.9 km/h Distance 135 km</desc>
<time>2011-03-24T17:30:31.00</time>
<name>6306</name>
</trkpt>
<trkpt lat="49.381180" lon="8.838302">
<ele>243.5</ele>
<speed>36.0</speed>
<course>177.4</course>
<desc>Speed 36.0 km/h Distance 135 km</desc>
<time>2011-03-24T17:30:32.01</time>
<name>6307</name>
</trkpt>
<trkpt lat="49.381088" lon="8.838308">
<ele>243.5</ele>
<speed>36.6</speed>
<course>178.8</course>
<desc>Speed 36.6 km/h Distance 135 km</desc>
<time>2011-03-24T17:30:33.00</time>
<name>6308</name>
</trkpt>
<trkpt lat="49.380995" lon="8.838312">
<ele>243.5</ele>
<speed>37.5</speed>
<course>178.0</course>
<desc>Speed 37.5 km/h Distance 135 km</desc>
<time>2011-03-24T17:30:34.00</time>
<name>6309</name>
</trkpt>
<trkpt lat="49.380900" lon="8.838317">
<ele>243.5</ele>
<speed>38.3</speed>
<course>177.6</course>
<desc>Speed 38.3 km/h Distance 135 km</desc>
<time>2011-03-24T17:30:35.15</time>
<name>6310</name>
</trkpt>
<trkpt lat="49.380718" lon="8.838328">
<ele>243.5</ele>
<speed>34.7</speed>
<course>177.6</course>
<desc>Speed 34.7 km/h Distance 135 km</desc>
<time>2011-03-24T17:30:36.99</time>
<name>6311</name>
</trkpt>
<trkpt lat="49.380640" lon="8.838333">
<ele>243.5</ele>
<speed>31.6</speed>
<course>176.2</course>
<desc>Speed 31.6 km/h Distance 135 km</desc>
<time>2011-03-24T17:30:38.00</time>
<name>6312</name>
</trkpt>
<trkpt lat="49.380558" lon="8.838342">
<ele>243.5</ele>
<speed>32.6</speed>
<course>175.6</course>
<desc>Speed 32.6 km/h Distance 135 km</desc>
<time>2011-03-24T17:30:38.99</time>
<name>6313</name>
</trkpt>
<trkpt lat="49.380473" lon="8.838352">
<ele>243.5</ele>
<speed>34.2</speed>
<course>177.8</course>
<desc>Speed 34.2 km/h Distance 135 km</desc>
<time>2011-03-24T17:30:39.99</time>
<name>6314</name>
</trkpt>
<trkpt lat="49.380388" lon="8.838357">
<ele>243.5</ele>
<speed>34.7</speed>
<course>177.1</course>
<desc>Speed 34.7 km/h Distance 135 km</desc>
<time>2011-03-24T17:30:41.00</time>
<name>6315</name>
</trkpt>
<trkpt lat="49.380302" lon="8.838363">
<ele>243.0</ele>
<speed>34.7</speed>
<course>175.5</course>
<desc>Speed 34.7 km/h Distance 136 km</desc>
<time>2011-03-24T17:30:41.99</time>
<name>6316</name>
</trkpt>
<trkpt lat="49.380205" lon="8.838375">
<ele>245.0</ele>
<speed>39.2</speed>
<course>178.4</course>
<desc>Speed 39.2 km/h Distance 136 km</desc>
<time>2011-03-24T17:30:43.00</time>
<name>6317</name>
</trkpt>
<trkpt lat="49.380122" lon="8.838378">
<ele>245.0</ele>
<speed>33.7</speed>
<course>194.3</course>
<desc>Speed 33.7 km/h Distance 136 km</desc>
<time>2011-03-24T17:30:43.99</time>
<name>6318</name>
</trkpt>
<trkpt lat="49.380045" lon="8.838348">
<ele>245.0</ele>
<speed>31.9</speed>
<course>178.5</course>
<desc>Speed 31.9 km/h Distance 136 km</desc>
<time>2011-03-24T17:30:45.00</time>
<name>6319</name>
</trkpt>
<trkpt lat="49.379963" lon="8.838352">
<ele>245.0</ele>
<speed>33.0</speed>
<course>181.4</course>
<desc>Speed 33.0 km/h Distance 136 km</desc>
<time>2011-03-24T17:30:45.99</time>
<name>6320</name>
</trkpt>
<trkpt lat="49.379880" lon="8.838348">
<ele>245.5</ele>
<speed>33.9</speed>
<course>182.1</course>
<desc>Speed 33.9 km/h Distance 136 km</desc>
<time>2011-03-24T17:30:47.00</time>
<name>6321</name>
</trkpt>
<trkpt lat="49.379798" lon="8.838343">
<ele>245.5</ele>
<speed>32.8</speed>
<course>179.8</course>
<desc>Speed 32.8 km/h Distance 136 km</desc>
<time>2011-03-24T17:30:48.20</time>
<name>6322</name>
</trkpt>
<trkpt lat="49.379715" lon="8.838343">
<ele>245.5</ele>
<speed>33.8</speed>
<course>179.8</course>
<desc>Speed 33.8 km/h Distance 136 km</desc>
<time>2011-03-24T17:30:49.00</time>
<name>6323</name>
</trkpt>
<trkpt lat="49.379632" lon="8.838343">
<ele>245.5</ele>
<speed>33.3</speed>
<course>181.4</course>
<desc>Speed 33.3 km/h Distance 136 km</desc>
<time>2011-03-24T17:30:50.00</time>
<name>6324</name>
</trkpt>
<trkpt lat="49.379547" lon="8.838340">
<ele>245.5</ele>
<speed>34.6</speed>
<course>179.3</course>
<desc>Speed 34.6 km/h Distance 136 km</desc>
<time>2011-03-24T17:30:50.99</time>
<name>6325</name>
</trkpt>
<trkpt lat="49.379460" lon="8.838342">
<ele>245.5</ele>
<speed>35.3</speed>
<course>179.3</course>
<desc>Speed 35.3 km/h Distance 136 km</desc>
<time>2011-03-24T17:30:51.99</time>
<name>6326</name>
</trkpt>
<trkpt lat="49.379365" lon="8.838343">
<ele>245.0</ele>
<speed>38.2</speed>
<course>180.0</course>
<desc>Speed 38.2 km/h Distance 136 km</desc>
<time>2011-03-24T17:30:52.99</time>
<name>6327</name>
</trkpt>
<trkpt lat="49.379272" lon="8.838343">
<ele>245.0</ele>
<speed>37.8</speed>
<course>179.5</course>
<desc>Speed 37.8 km/h Distance 136 km</desc>
<time>2011-03-24T17:30:53.99</time>
<name>6328</name>
</trkpt>
<trkpt lat="49.379177" lon="8.838343">
<ele>244.5</ele>
<speed>38.5</speed>
<course>178.7</course>
<desc>Speed 38.5 km/h Distance 136 km</desc>
<time>2011-03-24T17:30:54.99</time>
<name>6329</name>
</trkpt>
<trkpt lat="49.379080" lon="8.838347">
<ele>244.5</ele>
<speed>38.3</speed>
<course>177.5</course>
<desc>Speed 38.3 km/h Distance 136 km</desc>
<time>2011-03-24T17:30:56.00</time>
<name>6330</name>
</trkpt>
<trkpt lat="49.378980" lon="8.838353">
<ele>244.5</ele>
<speed>39.0</speed>
<course>176.7</course>
<desc>Speed 39.0 km/h Distance 136 km</desc>
<time>2011-03-24T17:30:56.99</time>
<name>6331</name>
</trkpt>
<trkpt lat="49.378885" lon="8.838362">
<ele>244.0</ele>
<speed>38.7</speed>
<course>178.0</course>
<desc>Speed 38.7 km/h Distance 136 km</desc>
<time>2011-03-24T17:30:57.99</time>
<name>6332</name>
</trkpt>
<trkpt lat="49.378792" lon="8.838367">
<ele>244.0</ele>
<speed>37.9</speed>
<course>180.7</course>
<desc>Speed 37.9 km/h Distance 136 km</desc>
<time>2011-03-24T17:30:58.98</time>
<name>6333</name>
</trkpt>
<trkpt lat="49.378697" lon="8.838365">
<ele>244.0</ele>
<speed>38.4</speed>
<course>182.6</course>
<desc>Speed 38.4 km/h Distance 136 km</desc>
<time>2011-03-24T17:30:59.98</time>
<name>6334</name>
</trkpt>
<trkpt lat="49.378598" lon="8.838358">
<ele>244.5</ele>
<speed>39.5</speed>
<course>178.4</course>
<desc>Speed 39.5 km/h Distance 136 km</desc>
<time>2011-03-24T17:31:00.99</time>
<name>6335</name>
</trkpt>
<trkpt lat="49.378482" lon="8.838363">
<ele>244.5</ele>
<speed>47.4</speed>
<course>181.0</course>
<desc>Speed 47.4 km/h Distance 136 km</desc>
<time>2011-03-24T17:31:01.97</time>
<name>6336</name>
</trkpt>
<trkpt lat="49.378362" lon="8.838360">
<ele>245.5</ele>
<speed>48.2</speed>
<course>180.4</course>
<desc>Speed 48.2 km/h Distance 136 km</desc>
<time>2011-03-24T17:31:02.97</time>
<name>6337</name>
</trkpt>
<trkpt lat="49.378025" lon="8.838357">
<ele>245.0</ele>
<speed>71.6</speed>
<course>178.1</course>
<desc>Speed 71.6 km/h Distance 136 km</desc>
<time>2011-03-24T17:31:04.97</time>
<name>6338</name>
</trkpt>
<trkpt lat="49.376918" lon="8.838413">
<ele>248.5</ele>
<speed>128</speed>
<course>180.0</course>
<desc>Speed 128 km/h Distance 136 km</desc>
<time>2011-03-24T17:31:08.98</time>
<name>6339</name>
</trkpt>
<trkpt lat="49.376587" lon="8.838413">
<ele>249.5</ele>
<speed>134</speed>
<course>181.4</course>
<desc>Speed 134 km/h Distance 136 km</desc>
<time>2011-03-24T17:31:09.98</time>
<name>6340</name>
</trkpt>
<trkpt lat="49.376233" lon="8.838400">
<ele>251.0</ele>
<speed>144</speed>
<course>179.8</course>
<desc>Speed 144 km/h Distance 136 km</desc>
<time>2011-03-24T17:31:10.98</time>
<name>6341</name>
</trkpt>
<trkpt lat="49.375877" lon="8.838402">
<ele>252.5</ele>
<speed>144</speed>
<course>178.7</course>
<desc>Speed 144 km/h Distance 136 km</desc>
<time>2011-03-24T17:31:11.98</time>
<name>6342</name>
</trkpt>
<trkpt lat="49.375500" lon="8.838415">
<ele>253.0</ele>
<speed>151</speed>
<course>178.9</course>
<desc>Speed 151 km/h Distance 136 km</desc>
<time>2011-03-24T17:31:13.01</time>
<name>6343</name>
</trkpt>
<trkpt lat="49.375112" lon="8.838427">
<ele>254.5</ele>
<speed>155</speed>
<course>179.3</course>
<desc>Speed 155 km/h Distance 136 km</desc>
<time>2011-03-24T17:31:13.99</time>
<name>6344</name>
</trkpt>
<trkpt lat="49.374730" lon="8.838433">
<ele>255.5</ele>
<speed>155</speed>
<course>178.9</course>
<desc>Speed 155 km/h Distance 136 km</desc>
<time>2011-03-24T17:31:14.98</time>
<name>6345</name>
</trkpt>
<trkpt lat="49.374340" lon="8.838445">
<ele>257.0</ele>
<speed>157</speed>
<course>178.9</course>
<desc>Speed 157 km/h Distance 136 km</desc>
<time>2011-03-24T17:31:15.97</time>
<name>6346</name>
</trkpt>
<trkpt lat="49.373955" lon="8.838457">
<ele>258.5</ele>
<speed>154</speed>
<course>179.2</course>
<desc>Speed 154 km/h Distance 136 km</desc>
<time>2011-03-24T17:31:16.97</time>
<name>6347</name>
</trkpt>
<trkpt lat="49.373585" lon="8.838465">
<ele>259.5</ele>
<speed>149</speed>
<course>178.4</course>
<desc>Speed 149 km/h Distance 136 km</desc>
<time>2011-03-24T17:31:17.97</time>
<name>6348</name>
</trkpt>
<trkpt lat="49.373235" lon="8.838480">
<ele>260.0</ele>
<speed>141</speed>
<course>179.4</course>
<desc>Speed 141 km/h Distance 136 km</desc>
<time>2011-03-24T17:31:18.97</time>
<name>6349</name>
</trkpt>
<trkpt lat="49.372898" lon="8.838485">
<ele>261.0</ele>
<speed>136</speed>
<course>177.2</course>
<desc>Speed 136 km/h Distance 136 km</desc>
<time>2011-03-24T17:31:19.97</time>
<name>6350</name>
</trkpt>
<trkpt lat="49.372588" lon="8.838508">
<ele>261.5</ele>
<speed>125</speed>
<course>180.2</course>
<desc>Speed 125 km/h Distance 136 km</desc>
<time>2011-03-24T17:31:20.97</time>
<name>6351</name>
</trkpt>
<trkpt lat="49.372307" lon="8.838507">
<ele>261.5</ele>
<speed>114</speed>
<course>180.2</course>
<desc>Speed 114 km/h Distance 136 km</desc>
<time>2011-03-24T17:31:21.97</time>
<name>6352</name>
</trkpt>
<trkpt lat="49.371792" lon="8.838503">
<ele>261.5</ele>
<speed>114</speed>
<course>180.5</course>
<desc>Speed 114 km/h Distance 136 km</desc>
<time>2011-03-24T17:31:23.97</time>
<name>6353</name>
</trkpt>
<trkpt lat="49.371542" lon="8.838500">
<ele>261.5</ele>
<speed>100</speed>
<course>183.1</course>
<desc>Speed 100 km/h Distance 136 km</desc>
<time>2011-03-24T17:31:24.96</time>
<name>6354</name>
</trkpt>
<trkpt lat="49.371323" lon="8.838482">
<ele>260.0</ele>
<speed>87.6</speed>
<course>181.2</course>
<desc>Speed 87.6 km/h Distance 137 km</desc>
<time>2011-03-24T17:31:25.98</time>
<name>6355</name>
</trkpt>
<trkpt lat="49.371120" lon="8.838475">
<ele>260.0</ele>
<speed>80.6</speed>
<course>181.7</course>
<desc>Speed 80.6 km/h Distance 137 km</desc>
<time>2011-03-24T17:31:26.96</time>
<name>6356</name>
</trkpt>
<trkpt lat="49.370905" lon="8.838465">
<ele>259.5</ele>
<speed>85.1</speed>
<course>183.4</course>
<desc>Speed 85.1 km/h Distance 137 km</desc>
<time>2011-03-24T17:31:27.96</time>
<name>6357</name>
</trkpt>
<trkpt lat="49.370725" lon="8.838448">
<ele>259.0</ele>
<speed>85.1</speed>
<course>188.6</course>
<desc>Speed 85.1 km/h Distance 137 km</desc>
<time>2011-03-24T17:31:28.96</time>
<name>6358</name>
</trkpt>
<trkpt lat="49.370268" lon="8.838342">
<ele>258.0</ele>
<speed>100</speed>
<course>191.2</course>
<desc>Speed 100 km/h Distance 137 km</desc>
<time>2011-03-24T17:31:30.96</time>
<name>6359</name>
</trkpt>
<trkpt lat="49.369320" lon="8.838053">
<ele>255.5</ele>
<speed>130</speed>
<course>189.4</course>
<desc>Speed 130 km/h Distance 137 km</desc>
<time>2011-03-24T17:31:33.96</time>
<name>6360</name>
</trkpt>
<trkpt lat="49.368985" lon="8.837968">
<ele>254.5</ele>
<speed>132</speed>
<course>190.8</course>
<desc>Speed 132 km/h Distance 137 km</desc>
<time>2011-03-24T17:31:34.96</time>
<name>6361</name>
</trkpt>
<trkpt lat="49.368672" lon="8.837877">
<ele>254.5</ele>
<speed>126</speed>
<course>189.3</course>
<desc>Speed 126 km/h Distance 137 km</desc>
<time>2011-03-24T17:31:35.96</time>
<name>6362</name>
</trkpt>
<trkpt lat="49.368355" lon="8.837797">
<ele>252.5</ele>
<speed>126</speed>
<course>190.0</course>
<desc>Speed 126 km/h Distance 137 km</desc>
<time>2011-03-24T17:31:36.96</time>
<name>6363</name>
</trkpt>
<trkpt lat="49.368053" lon="8.837715">
<ele>250.5</ele>
<speed>121</speed>
<course>190.4</course>
<desc>Speed 121 km/h Distance 137 km</desc>
<time>2011-03-24T17:31:37.95</time>
<name>6364</name>
</trkpt>
<trkpt lat="49.367758" lon="8.837632">
<ele>250.5</ele>
<speed>118</speed>
<course>190.0</course>
<desc>Speed 118 km/h Distance 137 km</desc>
<time>2011-03-24T17:31:38.95</time>
<name>6365</name>
</trkpt>
<trkpt lat="49.367463" lon="8.837552">
<ele>250.5</ele>
<speed>116</speed>
<course>190.3</course>
<desc>Speed 116 km/h Distance 137 km</desc>
<time>2011-03-24T17:31:39.95</time>
<name>6366</name>
</trkpt>
<trkpt lat="49.367182" lon="8.837473">
<ele>250.5</ele>
<speed>113</speed>
<course>190.1</course>
<desc>Speed 113 km/h Distance 137 km</desc>
<time>2011-03-24T17:31:40.97</time>
<name>6367</name>
</trkpt>
<trkpt lat="49.366908" lon="8.837398">
<ele>250.0</ele>
<speed>109</speed>
<course>189.4</course>
<desc>Speed 109 km/h Distance 137 km</desc>
<time>2011-03-24T17:31:41.95</time>
<name>6368</name>
</trkpt>
<trkpt lat="49.366645" lon="8.837332">
<ele>248.5</ele>
<speed>104</speed>
<course>188.2</course>
<desc>Speed 104 km/h Distance 137 km</desc>
<time>2011-03-24T17:31:42.95</time>
<name>6369</name>
</trkpt>
<trkpt lat="49.366397" lon="8.837277">
<ele>247.5</ele>
<speed>98.9</speed>
<course>185.4</course>
<desc>Speed 98.9 km/h Distance 137 km</desc>
<time>2011-03-24T17:31:43.95</time>
<name>6370</name>
</trkpt>
<trkpt lat="49.366177" lon="8.837245">
<ele>245.5</ele>
<speed>87.9</speed>
<course>184.6</course>
<desc>Speed 87.9 km/h Distance 137 km</desc>
<time>2011-03-24T17:31:44.95</time>
<name>6371</name>
</trkpt>
<trkpt lat="49.365973" lon="8.837220">
<ele>245.0</ele>
<speed>81.1</speed>
<course>181.3</course>
<desc>Speed 81.1 km/h Distance 137 km</desc>
<time>2011-03-24T17:31:45.96</time>
<name>6372</name>
</trkpt>
<trkpt lat="49.365788" lon="8.837213">
<ele>244.5</ele>
<speed>74.7</speed>
<course>173.4</course>
<desc>Speed 74.7 km/h Distance 137 km</desc>
<time>2011-03-24T17:31:46.94</time>
<name>6373</name>
</trkpt>
<trkpt lat="49.365620" lon="8.837243">
<ele>242.0</ele>
<speed>66.9</speed>
<course>171.4</course>
<desc>Speed 66.9 km/h Distance 137 km</desc>
<time>2011-03-24T17:31:47.94</time>
<name>6374</name>
</trkpt>
<trkpt lat="49.365477" lon="8.837277">
<ele>241.5</ele>
<speed>66.9</speed>
<course>156.9</course>
<desc>Speed 66.9 km/h Distance 137 km</desc>
<time>2011-03-24T17:31:48.95</time>
<name>6375</name>
</trkpt>
<trkpt lat="49.365298" lon="8.837393">
<ele>241.0</ele>
<speed>74.5</speed>
<course>149.3</course>
<desc>Speed 74.5 km/h Distance 137 km</desc>
<time>2011-03-24T17:31:49.95</time>
<name>6376</name>
</trkpt>
<trkpt lat="49.365125" lon="8.837552">
<ele>241.0</ele>
<speed>78.9</speed>
<course>143.4</course>
<desc>Speed 78.9 km/h Distance 137 km</desc>
<time>2011-03-24T17:31:50.94</time>
<name>6377</name>
</trkpt>
<trkpt lat="49.364982" lon="8.837715">
<ele>241.0</ele>
<speed>66.1</speed>
<course>146.0</course>
<desc>Speed 66.1 km/h Distance 137 km</desc>
<time>2011-03-24T17:31:51.95</time>
<name>6378</name>
</trkpt>
<trkpt lat="49.364848" lon="8.837853">
<ele>240.5</ele>
<speed>60.6</speed>
<course>148.1</course>
<desc>Speed 60.6 km/h Distance 137 km</desc>
<time>2011-03-24T17:31:52.94</time>
<name>6379</name>
</trkpt>
<trkpt lat="49.364732" lon="8.837965">
<ele>240.5</ele>
<speed>53.4</speed>
<course>160.7</course>
<desc>Speed 53.4 km/h Distance 137 km</desc>
<time>2011-03-24T17:31:53.94</time>
<name>6380</name>
</trkpt>
<trkpt lat="49.364620" lon="8.838025">
<ele>240.0</ele>
<speed>45.9</speed>
<course>159.2</course>
<desc>Speed 45.9 km/h Distance 137 km</desc>
<time>2011-03-24T17:31:54.94</time>
<name>6381</name>
</trkpt>
<trkpt lat="49.364500" lon="8.838095">
<ele>240.0</ele>
<speed>28.0</speed>
<course>208.1</course>
<desc>Speed 28.0 km/h Distance 137 km</desc>
<time>2011-03-24T17:31:56.94</time>
<name>6382</name>
</trkpt>
<trkpt lat="49.364453" lon="8.838057">
<ele>240.0</ele>
<speed>28.0</speed>
<course>205.3</course>
<desc>Speed 28.0 km/h Distance 137 km</desc>
<time>2011-03-24T17:31:57.94</time>
<name>6383</name>
</trkpt>
<trkpt lat="49.364417" lon="8.838030">
<ele>240.0</ele>
<speed>28.0</speed>
<course>197.2</course>
<desc>Speed 28.0 km/h Distance 137 km</desc>
<time>2011-03-24T17:31:58.94</time>
<name>6384</name>
</trkpt>
<trkpt lat="49.364382" lon="8.838013">
<ele>237.0</ele>
<speed>28.0</speed>
<course>186.8</course>
<desc>Speed 28.0 km/h Distance 137 km</desc>
<time>2011-03-24T17:31:59.94</time>
<name>6385</name>
</trkpt>
<trkpt lat="49.364337" lon="8.838005">
<ele>236.5</ele>
<speed>28.0</speed>
<course>205.1</course>
<desc>Speed 28.0 km/h Distance 137 km</desc>
<time>2011-03-24T17:32:01.94</time>
<name>6386</name>
</trkpt>
<trkpt lat="49.364212" lon="8.837915">
<ele>236.5</ele>
<speed>28.0</speed>
<course>210.6</course>
<desc>Speed 28.0 km/h Distance 137 km</desc>
<time>2011-03-24T17:32:03.94</time>
<name>6387</name>
</trkpt>
<trkpt lat="49.363833" lon="8.837572">
<ele>233.0</ele>
<speed>33.9</speed>
<course>235.6</course>
<desc>Speed 33.9 km/h Distance 137 km</desc>
<time>2011-03-24T17:32:06.93</time>
<name>6388</name>
</trkpt>
<trkpt lat="49.363690" lon="8.837250">
<ele>212.0</ele>
<speed>34.7</speed>
<course>240.9</course>
<desc>Speed 34.7 km/h Distance 137 km</desc>
<time>2011-03-24T17:32:08.94</time>
<name>6389</name>
</trkpt>
<trkpt lat="49.363563" lon="8.836900">
<ele>213.5</ele>
<speed>44.2</speed>
<course>272.9</course>
<desc>Speed 44.2 km/h Distance 137 km</desc>
<time>2011-03-24T17:32:10.94</time>
<name>6390</name>
</trkpt>
<trkpt lat="49.363570" lon="8.836700">
<ele>214.0</ele>
<speed>47.1</speed>
<course>262.6</course>
<desc>Speed 47.1 km/h Distance 137 km</desc>
<time>2011-03-24T17:32:11.93</time>
<name>6391</name>
</trkpt>
<trkpt lat="49.363493" lon="8.835793">
<ele>213.0</ele>
<speed>63.0</speed>
<course>257.0</course>
<desc>Speed 63.0 km/h Distance 138 km</desc>
<time>2011-03-24T17:32:14.94</time>
<name>6392</name>
</trkpt>
<trkpt lat="49.363432" lon="8.835383">
<ele>213.0</ele>
<speed>63.0</speed>
<course>260.0</course>
<desc>Speed 63.0 km/h Distance 138 km</desc>
<time>2011-03-24T17:32:16.92</time>
<name>6393</name>
</trkpt>
<trkpt lat="49.363403" lon="8.835137">
<ele>215.5</ele>
<speed>63.0</speed>
<course>271.0</course>
<desc>Speed 63.0 km/h Distance 138 km</desc>
<time>2011-03-24T17:32:17.93</time>
<name>6394</name>
</trkpt>
<trkpt lat="49.363420" lon="8.833715">
<ele>216.0</ele>
<speed>63.0</speed>
<course>226.2</course>
<desc>Speed 63.0 km/h Distance 138 km</desc>
<time>2011-03-24T17:32:19.94</time>
<name>6395</name>
</trkpt>
<trkpt lat="49.362577" lon="8.832363">
<ele>218.5</ele>
<speed>109</speed>
<course>220.2</course>
<desc>Speed 109 km/h Distance 138 km</desc>
<time>2011-03-24T17:32:22.92</time>
<name>6396</name>
</trkpt>
<trkpt lat="49.362058" lon="8.831690">
<ele>218.5</ele>
<speed>105</speed>
<course>226.2</course>
<desc>Speed 105 km/h Distance 138 km</desc>
<time>2011-03-24T17:32:24.92</time>
<name>6397</name>
</trkpt>
<trkpt lat="49.361867" lon="8.831383">
<ele>215.0</ele>
<speed>102</speed>
<course>237.0</course>
<desc>Speed 102 km/h Distance 138 km</desc>
<time>2011-03-24T17:32:25.93</time>
<name>6398</name>
</trkpt>
<trkpt lat="49.361722" lon="8.831040">
<ele>210.0</ele>
<speed>101</speed>
<course>238.9</course>
<desc>Speed 101 km/h Distance 138 km</desc>
<time>2011-03-24T17:32:26.92</time>
<name>6399</name>
</trkpt>
<trkpt lat="49.361582" lon="8.830683">
<ele>210.0</ele>
<speed>103</speed>
<course>242.0</course>
<desc>Speed 103 km/h Distance 138 km</desc>
<time>2011-03-24T17:32:27.92</time>
<name>6400</name>
</trkpt>
<trkpt lat="49.361460" lon="8.830332">
<ele>208.0</ele>
<speed>102</speed>
<course>243.7</course>
<desc>Speed 102 km/h Distance 138 km</desc>
<time>2011-03-24T17:32:28.92</time>
<name>6401</name>
</trkpt>
<trkpt lat="49.361343" lon="8.829970">
<ele>206.5</ele>
<speed>104</speed>
<course>252.0</course>
<desc>Speed 104 km/h Distance 138 km</desc>
<time>2011-03-24T17:32:29.92</time>
<name>6402</name>
</trkpt>
<trkpt lat="49.361262" lon="8.829583">
<ele>205.5</ele>
<speed>105</speed>
<course>261.4</course>
<desc>Speed 105 km/h Distance 138 km</desc>
<time>2011-03-24T17:32:30.92</time>
<name>6403</name>
</trkpt>
<trkpt lat="49.361220" lon="8.829162">
<ele>204.0</ele>
<speed>111</speed>
<course>258.0</course>
<desc>Speed 111 km/h Distance 138 km</desc>
<time>2011-03-24T17:32:31.92</time>
<name>6404</name>
</trkpt>
<trkpt lat="49.361162" lon="8.828740">
<ele>204.5</ele>
<speed>107</speed>
<course>260.7</course>
<desc>Speed 107 km/h Distance 138 km</desc>
<time>2011-03-24T17:32:32.92</time>
<name>6405</name>
</trkpt>
<trkpt lat="49.361120" lon="8.828348">
<ele>205.0</ele>
<speed>103</speed>
<course>258.6</course>
<desc>Speed 103 km/h Distance 138 km</desc>
<time>2011-03-24T17:32:33.92</time>
<name>6406</name>
</trkpt>
<trkpt lat="49.361070" lon="8.827968">
<ele>205.0</ele>
<speed>102</speed>
<course>255.7</course>
<desc>Speed 102 km/h Distance 138 km</desc>
<time>2011-03-24T17:32:34.92</time>
<name>6407</name>
</trkpt>
<trkpt lat="49.361008" lon="8.827597">
<ele>204.5</ele>
<speed>100</speed>
<course>246.1</course>
<desc>Speed 100 km/h Distance 138 km</desc>
<time>2011-03-24T17:32:35.91</time>
<name>6408</name>
</trkpt>
<trkpt lat="49.360903" lon="8.827233">
<ele>204.5</ele>
<speed>103</speed>
<course>242.1</course>
<desc>Speed 103 km/h Distance 138 km</desc>
<time>2011-03-24T17:32:36.93</time>
<name>6409</name>
</trkpt>
<trkpt lat="49.360777" lon="8.826867">
<ele>204.5</ele>
<speed>108</speed>
<course>235.8</course>
<desc>Speed 108 km/h Distance 138 km</desc>
<time>2011-03-24T17:32:37.91</time>
<name>6410</name>
</trkpt>
<trkpt lat="49.360617" lon="8.826505">
<ele>204.5</ele>
<speed>115</speed>
<course>235.4</course>
<desc>Speed 115 km/h Distance 138 km</desc>
<time>2011-03-24T17:32:38.92</time>
<name>6411</name>
</trkpt>
<trkpt lat="49.360457" lon="8.826148">
<ele>205.0</ele>
<speed>113</speed>
<course>233.0</course>
<desc>Speed 113 km/h Distance 138 km</desc>
<time>2011-03-24T17:32:39.92</time>
<name>6412</name>
</trkpt>
<trkpt lat="49.360283" lon="8.825795">
<ele>205.0</ele>
<speed>115</speed>
<course>238.0</course>
<desc>Speed 115 km/h Distance 138 km</desc>
<time>2011-03-24T17:32:40.92</time>
<name>6413</name>
</trkpt>
<trkpt lat="49.360140" lon="8.825443">
<ele>205.0</ele>
<speed>108</speed>
<course>240.3</course>
<desc>Speed 108 km/h Distance 138 km</desc>
<time>2011-03-24T17:32:41.92</time>
<name>6414</name>
</trkpt>
<trkpt lat="49.360010" lon="8.825093">
<ele>206.5</ele>
<speed>105</speed>
<course>240.6</course>
<desc>Speed 105 km/h Distance 138 km</desc>
<time>2011-03-24T17:32:42.91</time>
<name>6415</name>
</trkpt>
<trkpt lat="49.359887" lon="8.824757">
<ele>206.5</ele>
<speed>101</speed>
<course>249.6</course>
<desc>Speed 101 km/h Distance 138 km</desc>
<time>2011-03-24T17:32:43.92</time>
<name>6416</name>
</trkpt>
<trkpt lat="49.359802" lon="8.824407">
<ele>207.0</ele>
<speed>97.6</speed>
<course>252.6</course>
<desc>Speed 97.6 km/h Distance 138 km</desc>
<time>2011-03-24T17:32:44.91</time>
<name>6417</name>
</trkpt>
<trkpt lat="49.359728" lon="8.824047">
<ele>207.0</ele>
<speed>99.0</speed>
<course>255.8</course>
<desc>Speed 99.0 km/h Distance 138 km</desc>
<time>2011-03-24T17:32:45.92</time>
<name>6418</name>
</trkpt>
<trkpt lat="49.359667" lon="8.823672">
<ele>207.0</ele>
<speed>102</speed>
<course>266.6</course>
<desc>Speed 102 km/h Distance 139 km</desc>
<time>2011-03-24T17:32:46.92</time>
<name>6419</name>
</trkpt>
<trkpt lat="49.359652" lon="8.823282">
<ele>205.5</ele>
<speed>102</speed>
<course>267.9</course>
<desc>Speed 102 km/h Distance 139 km</desc>
<time>2011-03-24T17:32:47.91</time>
<name>6420</name>
</trkpt>
<trkpt lat="49.359642" lon="8.822863">
<ele>205.5</ele>
<speed>110</speed>
<course>275.2</course>
<desc>Speed 110 km/h Distance 139 km</desc>
<time>2011-03-24T17:32:48.91</time>
<name>6421</name>
</trkpt>
<trkpt lat="49.359667" lon="8.822442">
<ele>205.0</ele>
<speed>111</speed>
<course>277.5</course>
<desc>Speed 111 km/h Distance 139 km</desc>
<time>2011-03-24T17:32:49.90</time>
<name>6422</name>
</trkpt>
<trkpt lat="49.359703" lon="8.822017">
<ele>204.5</ele>
<speed>113</speed>
<course>275.9</course>
<desc>Speed 113 km/h Distance 139 km</desc>
<time>2011-03-24T17:32:50.91</time>
<name>6423</name>
</trkpt>
<trkpt lat="49.359732" lon="8.821595">
<ele>203.5</ele>
<speed>112</speed>
<course>276.3</course>
<desc>Speed 112 km/h Distance 139 km</desc>
<time>2011-03-24T17:32:51.91</time>
<name>6424</name>
</trkpt>
<trkpt lat="49.359762" lon="8.821180">
<ele>202.5</ele>
<speed>111</speed>
<course>275.1</course>
<desc>Speed 111 km/h Distance 139 km</desc>
<time>2011-03-24T17:32:52.91</time>
<name>6425</name>
</trkpt>
<trkpt lat="49.359788" lon="8.820718">
<ele>203.0</ele>
<speed>122</speed>
<course>275.8</course>
<desc>Speed 122 km/h Distance 139 km</desc>
<time>2011-03-24T17:32:53.91</time>
<name>6426</name>
</trkpt>
<trkpt lat="49.359820" lon="8.820240">
<ele>203.0</ele>
<speed>126</speed>
<course>275.6</course>
<desc>Speed 126 km/h Distance 139 km</desc>
<time>2011-03-24T17:32:54.91</time>
<name>6427</name>
</trkpt>
<trkpt lat="49.359850" lon="8.819768">
<ele>203.5</ele>
<speed>124</speed>
<course>274.1</course>
<desc>Speed 124 km/h Distance 139 km</desc>
<time>2011-03-24T17:32:55.93</time>
<name>6428</name>
</trkpt>
<trkpt lat="49.359872" lon="8.819307">
<ele>203.5</ele>
<speed>121</speed>
<course>272.3</course>
<desc>Speed 121 km/h Distance 139 km</desc>
<time>2011-03-24T17:32:56.91</time>
<name>6429</name>
</trkpt>
<trkpt lat="49.359883" lon="8.818863">
<ele>203.0</ele>
<speed>116</speed>
<course>267.6</course>
<desc>Speed 116 km/h Distance 139 km</desc>
<time>2011-03-24T17:32:57.91</time>
<name>6430</name>
</trkpt>
<trkpt lat="49.359872" lon="8.818442">
<ele>203.0</ele>
<speed>111</speed>
<course>265.0</course>
<desc>Speed 111 km/h Distance 139 km</desc>
<time>2011-03-24T17:32:58.91</time>
<name>6431</name>
</trkpt>
<trkpt lat="49.359825" lon="8.817627">
<ele>203.5</ele>
<speed>105</speed>
<course>263.1</course>
<desc>Speed 105 km/h Distance 139 km</desc>
<time>2011-03-24T17:33:00.91</time>
<name>6432</name>
</trkpt>
<trkpt lat="49.359795" lon="8.817247">
<ele>203.5</ele>
<speed>101</speed>
<course>261.4</course>
<desc>Speed 101 km/h Distance 139 km</desc>
<time>2011-03-24T17:33:01.90</time>
<name>6433</name>
</trkpt>
<trkpt lat="49.359760" lon="8.816893">
<ele>204.0</ele>
<speed>93.4</speed>
<course>260.8</course>
<desc>Speed 93.4 km/h Distance 139 km</desc>
<time>2011-03-24T17:33:02.91</time>
<name>6434</name>
</trkpt>
<trkpt lat="49.359725" lon="8.816560">
<ele>203.0</ele>
<speed>88.8</speed>
<course>261.3</course>
<desc>Speed 88.8 km/h Distance 139 km</desc>
<time>2011-03-24T17:33:03.92</time>
<name>6435</name>
</trkpt>
<trkpt lat="49.359693" lon="8.816242">
<ele>203.0</ele>
<speed>84.1</speed>
<course>261.5</course>
<desc>Speed 84.1 km/h Distance 139 km</desc>
<time>2011-03-24T17:33:04.90</time>
<name>6436</name>
</trkpt>
<trkpt lat="49.359663" lon="8.815935">
<ele>203.0</ele>
<speed>81.3</speed>
<course>263.0</course>
<desc>Speed 81.3 km/h Distance 139 km</desc>
<time>2011-03-24T17:33:05.90</time>
<name>6437</name>
</trkpt>
<trkpt lat="49.359640" lon="8.815642">
<ele>202.5</ele>
<speed>77.3</speed>
<course>264.7</course>
<desc>Speed 77.3 km/h Distance 139 km</desc>
<time>2011-03-24T17:33:06.90</time>
<name>6438</name>
</trkpt>
<trkpt lat="49.359623" lon="8.815363">
<ele>202.0</ele>
<speed>73.4</speed>
<course>266.7</course>
<desc>Speed 73.4 km/h Distance 139 km</desc>
<time>2011-03-24T17:33:07.91</time>
<name>6439</name>
</trkpt>
<trkpt lat="49.359613" lon="8.815098">
<ele>201.5</ele>
<speed>69.7</speed>
<course>267.7</course>
<desc>Speed 69.7 km/h Distance 139 km</desc>
<time>2011-03-24T17:33:08.89</time>
<name>6440</name>
</trkpt>
<trkpt lat="49.359607" lon="8.814843">
<ele>201.0</ele>
<speed>66.7</speed>
<course>269.4</course>
<desc>Speed 66.7 km/h Distance 139 km</desc>
<time>2011-03-24T17:33:09.91</time>
<name>6441</name>
</trkpt>
<trkpt lat="49.359605" lon="8.814600">
<ele>201.0</ele>
<speed>64.0</speed>
<course>268.7</course>
<desc>Speed 64.0 km/h Distance 139 km</desc>
<time>2011-03-24T17:33:10.90</time>
<name>6442</name>
</trkpt>
<trkpt lat="49.359602" lon="8.814370">
<ele>200.5</ele>
<speed>60.4</speed>
<course>268.1</course>
<desc>Speed 60.4 km/h Distance 139 km</desc>
<time>2011-03-24T17:33:11.89</time>
<name>6443</name>
</trkpt>
<trkpt lat="49.359597" lon="8.814143">
<ele>201.0</ele>
<speed>57.7</speed>
<course>267.9</course>
<desc>Speed 57.7 km/h Distance 139 km</desc>
<time>2011-03-24T17:33:12.90</time>
<name>6444</name>
</trkpt>
<trkpt lat="49.359592" lon="8.813930">
<ele>200.5</ele>
<speed>56.1</speed>
<course>272.4</course>
<desc>Speed 56.1 km/h Distance 139 km</desc>
<time>2011-03-24T17:33:13.90</time>
<name>6445</name>
</trkpt>
<trkpt lat="49.359597" lon="8.813747">
<ele>198.5</ele>
<speed>48.7</speed>
<course>270.0</course>
<desc>Speed 48.7 km/h Distance 139 km</desc>
<time>2011-03-24T17:33:14.89</time>
<name>6446</name>
</trkpt>
<trkpt lat="49.359597" lon="8.813557">
<ele>198.5</ele>
<speed>49.8</speed>
<course>270.8</course>
<desc>Speed 49.8 km/h Distance 139 km</desc>
<time>2011-03-24T17:33:15.89</time>
<name>6447</name>
</trkpt>
<trkpt lat="49.359598" lon="8.813373">
<ele>198.5</ele>
<speed>48.7</speed>
<course>272.4</course>
<desc>Speed 48.7 km/h Distance 139 km</desc>
<time>2011-03-24T17:33:16.89</time>
<name>6448</name>
</trkpt>
<trkpt lat="49.359603" lon="8.813193">
<ele>199.5</ele>
<speed>47.7</speed>
<course>273.5</course>
<desc>Speed 47.7 km/h Distance 139 km</desc>
<time>2011-03-24T17:33:17.90</time>
<name>6449</name>
</trkpt>
<trkpt lat="49.359610" lon="8.813025">
<ele>199.0</ele>
<speed>44.1</speed>
<course>275.4</course>
<desc>Speed 44.1 km/h Distance 139 km</desc>
<time>2011-03-24T17:33:18.89</time>
<name>6450</name>
</trkpt>
<trkpt lat="49.359620" lon="8.812863">
<ele>199.0</ele>
<speed>42.3</speed>
<course>275.5</course>
<desc>Speed 42.3 km/h Distance 139 km</desc>
<time>2011-03-24T17:33:19.90</time>
<name>6451</name>
</trkpt>
<trkpt lat="49.359630" lon="8.812705">
<ele>199.0</ele>
<speed>41.7</speed>
<course>275.8</course>
<desc>Speed 41.7 km/h Distance 139 km</desc>
<time>2011-03-24T17:33:20.89</time>
<name>6452</name>
</trkpt>
<trkpt lat="49.359640" lon="8.812555">
<ele>199.0</ele>
<speed>39.5</speed>
<course>273.3</course>
<desc>Speed 39.5 km/h Distance 139 km</desc>
<time>2011-03-24T17:33:21.89</time>
<name>6453</name>
</trkpt>
<trkpt lat="49.359645" lon="8.812423">
<ele>199.0</ele>
<speed>34.8</speed>
<course>270.0</course>
<desc>Speed 34.8 km/h Distance 139 km</desc>
<time>2011-03-24T17:33:22.89</time>
<name>6454</name>
</trkpt>
<trkpt lat="49.359645" lon="8.812303">
<ele>199.0</ele>
<speed>31.9</speed>
<course>263.2</course>
<desc>Speed 31.9 km/h Distance 139 km</desc>
<time>2011-03-24T17:33:23.89</time>
<name>6455</name>
</trkpt>
<trkpt lat="49.359635" lon="8.812175">
<ele>201.0</ele>
<speed>33.7</speed>
<course>262.9</course>
<desc>Speed 33.7 km/h Distance 139 km</desc>
<time>2011-03-24T17:33:24.89</time>
<name>6456</name>
</trkpt>
<trkpt lat="49.359625" lon="8.812052">
<ele>200.5</ele>
<speed>32.7</speed>
<course>262.0</course>
<desc>Speed 32.7 km/h Distance 139 km</desc>
<time>2011-03-24T17:33:25.90</time>
<name>6457</name>
</trkpt>
<trkpt lat="49.359613" lon="8.811925">
<ele>199.5</ele>
<speed>33.4</speed>
<course>259.4</course>
<desc>Speed 33.4 km/h Distance 139 km</desc>
<time>2011-03-24T17:33:26.89</time>
<name>6458</name>
</trkpt>
<trkpt lat="49.359597" lon="8.811788">
<ele>200.0</ele>
<speed>36.0</speed>
<course>260.5</course>
<desc>Speed 36.0 km/h Distance 139 km</desc>
<time>2011-03-24T17:33:27.88</time>
<name>6459</name>
</trkpt>
<trkpt lat="49.359582" lon="8.811650">
<ele>200.0</ele>
<speed>36.9</speed>
<course>265.1</course>
<desc>Speed 36.9 km/h Distance 139 km</desc>
<time>2011-03-24T17:33:28.89</time>
<name>6460</name>
</trkpt>
<trkpt lat="49.359573" lon="8.811502">
<ele>200.5</ele>
<speed>38.6</speed>
<course>273.0</course>
<desc>Speed 38.6 km/h Distance 139 km</desc>
<time>2011-03-24T17:33:29.89</time>
<name>6461</name>
</trkpt>
<trkpt lat="49.359578" lon="8.811355">
<ele>200.5</ele>
<speed>38.7</speed>
<course>285.9</course>
<desc>Speed 38.7 km/h Distance 139 km</desc>
<time>2011-03-24T17:33:30.89</time>
<name>6462</name>
</trkpt>
<trkpt lat="49.359605" lon="8.811212">
<ele>200.5</ele>
<speed>38.8</speed>
<course>288.5</course>
<desc>Speed 38.8 km/h Distance 139 km</desc>
<time>2011-03-24T17:33:31.89</time>
<name>6463</name>
</trkpt>
<trkpt lat="49.359637" lon="8.811067">
<ele>200.5</ele>
<speed>39.6</speed>
<course>284.5</course>
<desc>Speed 39.6 km/h Distance 139 km</desc>
<time>2011-03-24T17:33:32.89</time>
<name>6464</name>
</trkpt>
<trkpt lat="49.359662" lon="8.810918">
<ele>200.5</ele>
<speed>40.4</speed>
<course>285.0</course>
<desc>Speed 40.4 km/h Distance 139 km</desc>
<time>2011-03-24T17:33:33.88</time>
<name>6465</name>
</trkpt>
<trkpt lat="49.359688" lon="8.810765">
<ele>200.5</ele>
<speed>41.5</speed>
<course>284.8</course>
<desc>Speed 41.5 km/h Distance 139 km</desc>
<time>2011-03-24T17:33:34.88</time>
<name>6466</name>
</trkpt>
<trkpt lat="49.359715" lon="8.810610">
<ele>200.5</ele>
<speed>42.1</speed>
<course>280.5</course>
<desc>Speed 42.1 km/h Distance 139 km</desc>
<time>2011-03-24T17:33:35.88</time>
<name>6467</name>
</trkpt>
<trkpt lat="49.359735" lon="8.810445">
<ele>200.5</ele>
<speed>43.8</speed>
<course>271.8</course>
<desc>Speed 43.8 km/h Distance 139 km</desc>
<time>2011-03-24T17:33:36.88</time>
<name>6468</name>
</trkpt>
<trkpt lat="49.359738" lon="8.810278">
<ele>200.5</ele>
<speed>44.2</speed>
<course>272.6</course>
<desc>Speed 44.2 km/h Distance 140 km</desc>
<time>2011-03-24T17:33:37.88</time>
<name>6469</name>
</trkpt>
<trkpt lat="49.359743" lon="8.810108">
<ele>200.5</ele>
<speed>44.7</speed>
<course>273.4</course>
<desc>Speed 44.7 km/h Distance 140 km</desc>
<time>2011-03-24T17:33:38.88</time>
<name>6470</name>
</trkpt>
<trkpt lat="49.359750" lon="8.809937">
<ele>200.0</ele>
<speed>45.1</speed>
<course>274.3</course>
<desc>Speed 45.1 km/h Distance 140 km</desc>
<time>2011-03-24T17:33:39.88</time>
<name>6471</name>
</trkpt>
<trkpt lat="49.359758" lon="8.809765">
<ele>199.0</ele>
<speed>46.1</speed>
<course>274.1</course>
<desc>Speed 46.1 km/h Distance 140 km</desc>
<time>2011-03-24T17:33:40.88</time>
<name>6472</name>
</trkpt>
<trkpt lat="49.359767" lon="8.809585">
<ele>198.5</ele>
<speed>47.2</speed>
<course>274.0</course>
<desc>Speed 47.2 km/h Distance 140 km</desc>
<time>2011-03-24T17:33:41.87</time>
<name>6473</name>
</trkpt>
<trkpt lat="49.359775" lon="8.809400">
<ele>197.5</ele>
<speed>48.6</speed>
<course>272.3</course>
<desc>Speed 48.6 km/h Distance 140 km</desc>
<time>2011-03-24T17:33:42.87</time>
<name>6474</name>
</trkpt>
<trkpt lat="49.359780" lon="8.809210">
<ele>198.0</ele>
<speed>49.4</speed>
<course>270.0</course>
<desc>Speed 49.4 km/h Distance 140 km</desc>
<time>2011-03-24T17:33:43.88</time>
<name>6475</name>
</trkpt>
<trkpt lat="49.359780" lon="8.809017">
<ele>198.0</ele>
<speed>50.3</speed>
<course>261.0</course>
<desc>Speed 50.3 km/h Distance 140 km</desc>
<time>2011-03-24T17:33:44.88</time>
<name>6476</name>
</trkpt>
<trkpt lat="49.359760" lon="8.808823">
<ele>197.5</ele>
<speed>51.4</speed>
<course>255.8</course>
<desc>Speed 51.4 km/h Distance 140 km</desc>
<time>2011-03-24T17:33:45.87</time>
<name>6477</name>
</trkpt>
<trkpt lat="49.359728" lon="8.808632">
<ele>197.5</ele>
<speed>51.7</speed>
<course>251.9</course>
<desc>Speed 51.7 km/h Distance 140 km</desc>
<time>2011-03-24T17:33:46.87</time>
<name>6478</name>
</trkpt>
<trkpt lat="49.359688" lon="8.808443">
<ele>197.5</ele>
<speed>51.4</speed>
<course>253.7</course>
<desc>Speed 51.4 km/h Distance 140 km</desc>
<time>2011-03-24T17:33:47.87</time>
<name>6479</name>
</trkpt>
<trkpt lat="49.359653" lon="8.808260">
<ele>197.0</ele>
<speed>50.1</speed>
<course>266.7</course>
<desc>Speed 50.1 km/h Distance 140 km</desc>
<time>2011-03-24T17:33:48.87</time>
<name>6480</name>
</trkpt>
<trkpt lat="49.359647" lon="8.808083">
<ele>196.0</ele>
<speed>46.7</speed>
<course>238.7</course>
<desc>Speed 46.7 km/h Distance 140 km</desc>
<time>2011-03-24T17:33:49.87</time>
<name>6481</name>
</trkpt>
<trkpt lat="49.359587" lon="8.807932">
<ele>196.0</ele>
<speed>46.4</speed>
<course>258.4</course>
<desc>Speed 46.4 km/h Distance 140 km</desc>
<time>2011-03-24T17:33:50.87</time>
<name>6482</name>
</trkpt>
<trkpt lat="49.359567" lon="8.807782">
<ele>195.0</ele>
<speed>40.0</speed>
<course>259.0</course>
<desc>Speed 40.0 km/h Distance 140 km</desc>
<time>2011-03-24T17:33:51.87</time>
<name>6483</name>
</trkpt>
<trkpt lat="49.359548" lon="8.807637">
<ele>193.5</ele>
<speed>38.9</speed>
<course>262.9</course>
<desc>Speed 38.9 km/h Distance 140 km</desc>
<time>2011-03-24T17:33:52.86</time>
<name>6484</name>
</trkpt>
<trkpt lat="49.359537" lon="8.807493">
<ele>192.0</ele>
<speed>38.5</speed>
<course>258.9</course>
<desc>Speed 38.5 km/h Distance 140 km</desc>
<time>2011-03-24T17:33:53.86</time>
<name>6485</name>
</trkpt>
<trkpt lat="49.359518" lon="8.807350">
<ele>190.5</ele>
<speed>39.2</speed>
<course>259.0</course>
<desc>Speed 39.2 km/h Distance 140 km</desc>
<time>2011-03-24T17:33:54.87</time>
<name>6486</name>
</trkpt>
<trkpt lat="49.359502" lon="8.807218">
<ele>189.5</ele>
<speed>35.5</speed>
<course>259.4</course>
<desc>Speed 35.5 km/h Distance 140 km</desc>
<time>2011-03-24T17:33:55.88</time>
<name>6487</name>
</trkpt>
<trkpt lat="49.359487" lon="8.807095">
<ele>188.5</ele>
<speed>33.4</speed>
<course>258.2</course>
<desc>Speed 33.4 km/h Distance 140 km</desc>
<time>2011-03-24T17:33:56.87</time>
<name>6488</name>
</trkpt>
<trkpt lat="49.359472" lon="8.806985">
<ele>188.0</ele>
<speed>30.5</speed>
<course>256.8</course>
<desc>Speed 30.5 km/h Distance 140 km</desc>
<time>2011-03-24T17:33:57.87</time>
<name>6489</name>
</trkpt>
<trkpt lat="49.359457" lon="8.806887">
<ele>186.5</ele>
<speed>27.8</speed>
<course>255.6</course>
<desc>Speed 27.8 km/h Distance 140 km</desc>
<time>2011-03-24T17:33:58.87</time>
<name>6490</name>
</trkpt>
<trkpt lat="49.359440" lon="8.806787">
<ele>186.5</ele>
<speed>26.7</speed>
<course>257.8</course>
<desc>Speed 26.7 km/h Distance 140 km</desc>
<time>2011-03-24T17:33:59.87</time>
<name>6491</name>
</trkpt>
<trkpt lat="49.359427" lon="8.806692">
<ele>186.5</ele>
<speed>25.5</speed>
<course>260.8</course>
<desc>Speed 25.5 km/h Distance 140 km</desc>
<time>2011-03-24T17:34:00.87</time>
<name>6492</name>
</trkpt>
<trkpt lat="49.359417" lon="8.806597">
<ele>186.5</ele>
<speed>25.6</speed>
<course>263.1</course>
<desc>Speed 25.6 km/h Distance 140 km</desc>
<time>2011-03-24T17:34:01.86</time>
<name>6493</name>
</trkpt>
<trkpt lat="49.359408" lon="8.806492">
<ele>186.5</ele>
<speed>28.1</speed>
<course>264.8</course>
<desc>Speed 28.1 km/h Distance 140 km</desc>
<time>2011-03-24T17:34:02.86</time>
<name>6494</name>
</trkpt>
<trkpt lat="49.359402" lon="8.806380">
<ele>186.5</ele>
<speed>29.9</speed>
<course>262.5</course>
<desc>Speed 29.9 km/h Distance 140 km</desc>
<time>2011-03-24T17:34:03.86</time>
<name>6495</name>
</trkpt>
<trkpt lat="49.359392" lon="8.806263">
<ele>186.0</ele>
<speed>31.2</speed>
<course>261.6</course>
<desc>Speed 31.2 km/h Distance 140 km</desc>
<time>2011-03-24T17:34:04.86</time>
<name>6496</name>
</trkpt>
<trkpt lat="49.359380" lon="8.806142">
<ele>185.5</ele>
<speed>32.4</speed>
<course>263.0</course>
<desc>Speed 32.4 km/h Distance 140 km</desc>
<time>2011-03-24T17:34:05.87</time>
<name>6497</name>
</trkpt>
<trkpt lat="49.359370" lon="8.806017">
<ele>185.0</ele>
<speed>32.9</speed>
<course>262.0</course>
<desc>Speed 32.9 km/h Distance 140 km</desc>
<time>2011-03-24T17:34:06.86</time>
<name>6498</name>
</trkpt>
<trkpt lat="49.359358" lon="8.805890">
<ele>185.5</ele>
<speed>33.0</speed>
<course>263.1</course>
<desc>Speed 33.0 km/h Distance 140 km</desc>
<time>2011-03-24T17:34:07.86</time>
<name>6499</name>
</trkpt>
<trkpt lat="49.359348" lon="8.805763">
<ele>185.0</ele>
<speed>33.7</speed>
<course>266.7</course>
<desc>Speed 33.7 km/h Distance 140 km</desc>
<time>2011-03-24T17:34:08.86</time>
<name>6500</name>
</trkpt>
<trkpt lat="49.359343" lon="8.805632">
<ele>184.5</ele>
<speed>34.2</speed>
<course>272.2</course>
<desc>Speed 34.2 km/h Distance 140 km</desc>
<time>2011-03-24T17:34:09.86</time>
<name>6501</name>
</trkpt>
<trkpt lat="49.359347" lon="8.805497">
<ele>184.5</ele>
<speed>35.0</speed>
<course>277.7</course>
<desc>Speed 35.0 km/h Distance 140 km</desc>
<time>2011-03-24T17:34:10.86</time>
<name>6502</name>
</trkpt>
<trkpt lat="49.359358" lon="8.805363">
<ele>184.0</ele>
<speed>34.4</speed>
<course>282.5</course>
<desc>Speed 34.4 km/h Distance 140 km</desc>
<time>2011-03-24T17:34:11.85</time>
<name>6503</name>
</trkpt>
<trkpt lat="49.359377" lon="8.805237">
<ele>184.0</ele>
<speed>33.4</speed>
<course>285.8</course>
<desc>Speed 33.4 km/h Distance 140 km</desc>
<time>2011-03-24T17:34:12.85</time>
<name>6504</name>
</trkpt>
<trkpt lat="49.359400" lon="8.805110">
<ele>184.0</ele>
<speed>33.8</speed>
<course>285.0</course>
<desc>Speed 33.8 km/h Distance 140 km</desc>
<time>2011-03-24T17:34:13.86</time>
<name>6505</name>
</trkpt>
<trkpt lat="49.359420" lon="8.804995">
<ele>184.0</ele>
<speed>30.9</speed>
<course>288.8</course>
<desc>Speed 30.9 km/h Distance 140 km</desc>
<time>2011-03-24T17:34:14.86</time>
<name>6506</name>
</trkpt>
<trkpt lat="49.359447" lon="8.804875">
<ele>184.0</ele>
<speed>33.0</speed>
<course>292.6</course>
<desc>Speed 33.0 km/h Distance 140 km</desc>
<time>2011-03-24T17:34:15.85</time>
<name>6507</name>
</trkpt>
<trkpt lat="49.359483" lon="8.804740">
<ele>184.0</ele>
<speed>38.4</speed>
<course>301.1</course>
<desc>Speed 38.4 km/h Distance 140 km</desc>
<time>2011-03-24T17:34:16.86</time>
<name>6508</name>
</trkpt>
<trkpt lat="49.359517" lon="8.804655">
<ele>184.0</ele>
<speed>26.1</speed>
<course>305.4</course>
<desc>Speed 26.1 km/h Distance 140 km</desc>
<time>2011-03-24T17:34:17.85</time>
<name>6509</name>
</trkpt>
<trkpt lat="49.359558" lon="8.804565">
<ele>183.5</ele>
<speed>28.9</speed>
<course>306.7</course>
<desc>Speed 28.9 km/h Distance 140 km</desc>
<time>2011-03-24T17:34:18.85</time>
<name>6510</name>
</trkpt>
<trkpt lat="49.359615" lon="8.804448">
<ele>183.5</ele>
<speed>37.9</speed>
<course>319.7</course>
<desc>Speed 37.9 km/h Distance 140 km</desc>
<time>2011-03-24T17:34:19.86</time>
<name>6511</name>
</trkpt>
<trkpt lat="49.359670" lon="8.804377">
<ele>183.5</ele>
<speed>31.4</speed>
<course>325.7</course>
<desc>Speed 31.4 km/h Distance 140 km</desc>
<time>2011-03-24T17:34:20.85</time>
<name>6512</name>
</trkpt>
<trkpt lat="49.359738" lon="8.804305">
<ele>183.5</ele>
<speed>33.9</speed>
<course>331.3</course>
<desc>Speed 33.9 km/h Distance 140 km</desc>
<time>2011-03-24T17:34:21.85</time>
<name>6513</name>
</trkpt>
<trkpt lat="49.359812" lon="8.804243">
<ele>183.5</ele>
<speed>34.3</speed>
<course>335.4</course>
<desc>Speed 34.3 km/h Distance 140 km</desc>
<time>2011-03-24T17:34:22.84</time>
<name>6514</name>
</trkpt>
<trkpt lat="49.359890" lon="8.804188">
<ele>183.5</ele>
<speed>34.6</speed>
<course>345.4</course>
<desc>Speed 34.6 km/h Distance 140 km</desc>
<time>2011-03-24T17:34:23.85</time>
<name>6515</name>
</trkpt>
<trkpt lat="49.359973" lon="8.804155">
<ele>183.0</ele>
<speed>35.7</speed>
<course>351.3</course>
<desc>Speed 35.7 km/h Distance 140 km</desc>
<time>2011-03-24T17:34:24.85</time>
<name>6516</name>
</trkpt>
<trkpt lat="49.360052" lon="8.804137">
<ele>183.0</ele>
<speed>31.7</speed>
<course>350.2</course>
<desc>Speed 31.7 km/h Distance 140 km</desc>
<time>2011-03-24T17:34:25.84</time>
<name>6517</name>
</trkpt>
<trkpt lat="49.360140" lon="8.804113">
<ele>182.5</ele>
<speed>33.2</speed>
<course>350.8</course>
<desc>Speed 33.2 km/h Distance 140 km</desc>
<time>2011-03-24T17:34:26.85</time>
<name>6518</name>
</trkpt>
<trkpt lat="49.360227" lon="8.804092">
<ele>182.5</ele>
<speed>35.1</speed>
<course>348.0</course>
<desc>Speed 35.1 km/h Distance 140 km</desc>
<time>2011-03-24T17:34:27.85</time>
<name>6519</name>
</trkpt>
<trkpt lat="49.360308" lon="8.804065">
<ele>183.0</ele>
<speed>34.8</speed>
<course>339.0</course>
<desc>Speed 34.8 km/h Distance 140 km</desc>
<time>2011-03-24T17:34:28.85</time>
<name>6520</name>
</trkpt>
<trkpt lat="49.360365" lon="8.804032">
<ele>183.0</ele>
<speed>24.4</speed>
<course>340.0</course>
<desc>Speed 24.4 km/h Distance 140 km</desc>
<time>2011-03-24T17:34:29.85</time>
<name>6521</name>
</trkpt>
<trkpt lat="49.360523" lon="8.803943">
<ele>181.5</ele>
<speed>26.1</speed>
<course>340.0</course>
<desc>Speed 26.1 km/h Distance 140 km</desc>
<time>2011-03-24T17:34:31.85</time>
<name>6522</name>
</trkpt>
<trkpt lat="49.360607" lon="8.803897">
<ele>180.5</ele>
<speed>33.8</speed>
<course>340.2</course>
<desc>Speed 33.8 km/h Distance 140 km</desc>
<time>2011-03-24T17:34:32.84</time>
<name>6523</name>
</trkpt>
<trkpt lat="49.360685" lon="8.803853">
<ele>180.5</ele>
<speed>33.8</speed>
<course>340.3</course>
<desc>Speed 33.8 km/h Distance 140 km</desc>
<time>2011-03-24T17:34:33.84</time>
<name>6524</name>
</trkpt>
<trkpt lat="49.360767" lon="8.803808">
<ele>180.0</ele>
<speed>34.2</speed>
<course>332.0</course>
<desc>Speed 34.2 km/h Distance 140 km</desc>
<time>2011-03-24T17:34:34.84</time>
<name>6525</name>
</trkpt>
<trkpt lat="49.360840" lon="8.803748">
<ele>180.0</ele>
<speed>33.9</speed>
<course>335.9</course>
<desc>Speed 33.9 km/h Distance 140 km</desc>
<time>2011-03-24T17:34:35.85</time>
<name>6526</name>
</trkpt>
<trkpt lat="49.360920" lon="8.803693">
<ele>180.0</ele>
<speed>35.0</speed>
<course>326.9</course>
<desc>Speed 35.0 km/h Distance 140 km</desc>
<time>2011-03-24T17:34:36.84</time>
<name>6527</name>
</trkpt>
<trkpt lat="49.360990" lon="8.803623">
<ele>180.5</ele>
<speed>33.1</speed>
<course>328.5</course>
<desc>Speed 33.1 km/h Distance 140 km</desc>
<time>2011-03-24T17:34:37.84</time>
<name>6528</name>
</trkpt>
<trkpt lat="49.361048" lon="8.803568">
<ele>180.5</ele>
<speed>33.1</speed>
<course>313.2</course>
<desc>Speed 33.1 km/h Distance 140 km</desc>
<time>2011-03-24T17:34:38.84</time>
<name>6529</name>
</trkpt>
<trkpt lat="49.361103" lon="8.803478">
<ele>180.5</ele>
<speed>31.2</speed>
<course>308.0</course>
<desc>Speed 31.2 km/h Distance 140 km</desc>
<time>2011-03-24T17:34:39.85</time>
<name>6530</name>
</trkpt>
<trkpt lat="49.361157" lon="8.803373">
<ele>180.5</ele>
<speed>34.2</speed>
<course>304.8</course>
<desc>Speed 34.2 km/h Distance 140 km</desc>
<time>2011-03-24T17:34:40.84</time>
<name>6531</name>
</trkpt>
<trkpt lat="49.361205" lon="8.803267">
<ele>180.5</ele>
<speed>34.3</speed>
<course>304.7</course>
<desc>Speed 34.3 km/h Distance 140 km</desc>
<time>2011-03-24T17:34:41.84</time>
<name>6532</name>
</trkpt>
<trkpt lat="49.361252" lon="8.803163">
<ele>180.5</ele>
<speed>34.4</speed>
<course>347.7</course>
<desc>Speed 34.4 km/h Distance 140 km</desc>
<time>2011-03-24T17:34:42.84</time>
<name>6533</name>
</trkpt>
<trkpt lat="49.361312" lon="8.803143">
<ele>180.5</ele>
<speed>24.3</speed>
<course>201.1</course>
<desc>Speed 24.3 km/h Distance 140 km</desc>
<time>2011-03-24T17:34:43.84</time>
<name>6534</name>
</trkpt>
<trkpt lat="49.361258" lon="8.803112">
<ele>180.5</ele>
<speed>27.7</speed>
<course>344.4</course>
<desc>Speed 27.7 km/h Distance 140 km</desc>
<time>2011-03-24T17:34:44.84</time>
<name>6535</name>
</trkpt>
<trkpt lat="49.361282" lon="8.803102">
<ele>180.0</ele>
<speed>3.3</speed>
<course>132.6</course>
<desc>Speed 3.3 km/h Distance 140 km</desc>
<time>2011-03-24T17:34:46.84</time>
<name>6536</name>
</trkpt>
<trkpt lat="49.361277" lon="8.803110">
<ele>181.0</ele>
<speed>6.9</speed>
<course>308.1</course>
<desc>Speed 6.9 km/h Distance 140 km</desc>
<time>2011-03-24T17:34:47.84</time>
<name>6537</name>
</trkpt>
<trkpt lat="49.361278" lon="8.803107">
<ele>181.0</ele>
<speed>0.5</speed>
<course>290.9</course>
<desc>Speed 0.5 km/h Distance 140 km</desc>
<time>2011-03-24T17:34:48.84</time>
<name>6538</name>
</trkpt>
<trkpt lat="49.361280" lon="8.803100">
<ele>181.0</ele>
<speed>0.1</speed>
<course>192.6</course>
<desc>Speed 0.1 km/h Distance 140 km</desc>
<time>2011-03-24T17:34:49.84</time>
<name>6539</name>
</trkpt>
<trkpt lat="49.361277" lon="8.803098">
<ele>181.0</ele>
<speed>0.0</speed>
<course>249.1</course>
<desc>Speed 0.0 km/h Distance 140 km</desc>
<time>2011-03-24T17:34:50.84</time>
<name>6540</name>
</trkpt>
<trkpt lat="49.361275" lon="8.803092">
<ele>181.0</ele>
<speed>0.3</speed>
<course>249.1</course>
<desc>Speed 0.3 km/h Distance 140 km</desc>
<time>2011-03-24T17:34:51.84</time>
<name>6541</name>
</trkpt>
<trkpt lat="49.361273" lon="8.803085">
<ele>181.0</ele>
<speed>0.3</speed>
<course>322.8</course>
<desc>Speed 0.3 km/h Distance 140 km</desc>
<time>2011-03-24T17:34:52.84</time>
<name>6542</name>
</trkpt>
<trkpt lat="49.361275" lon="8.803083">
<ele>181.0</ele>
<speed>0.1</speed>
<course>167.4</course>
<desc>Speed 0.1 km/h Distance 140 km</desc>
<time>2011-03-24T17:34:53.84</time>
<name>6543</name>
</trkpt>
<trkpt lat="49.361273" lon="8.803083">
<ele>181.0</ele>
<speed>0.4</speed>
<course>270.0</course>
<desc>Speed 0.4 km/h Distance 140 km</desc>
<time>2011-03-24T17:34:54.83</time>
<name>6544</name>
</trkpt>
<trkpt lat="49.361273" lon="8.803082">
<ele>181.0</ele>
<speed>0.2</speed>
<course>270.0</course>
<desc>Speed 0.2 km/h Distance 140 km</desc>
<time>2011-03-24T17:34:55.85</time>
<name>6545</name>
</trkpt>
<trkpt lat="49.361273" lon="8.803080">
<ele>181.0</ele>
<speed>0.1</speed>
<course>270.0</course>
<desc>Speed 0.1 km/h Distance 140 km</desc>
<time>2011-03-24T17:34:56.83</time>
<name>6546</name>
</trkpt>
<trkpt lat="49.361273" lon="8.803080">
<ele>181.0</ele>
<speed>0.3</speed>
<course>150.8</course>
<desc>Speed 0.3 km/h Distance 140 km</desc>
<time>2011-03-24T17:34:57.83</time>
<name>6547</name>
</trkpt>
<trkpt lat="49.361272" lon="8.803080">
<ele>181.0</ele>
<speed>0.3</speed>
<course>90.0</course>
<desc>Speed 0.3 km/h Distance 140 km</desc>
<time>2011-03-24T17:34:58.83</time>
<name>6548</name>
</trkpt>
<trkpt lat="49.361272" lon="8.803082">
<ele>181.0</ele>
<speed>0.0</speed>
<course>307.0</course>
<desc>Speed 0.0 km/h Distance 140 km</desc>
<time>2011-03-24T17:34:59.83</time>
<name>6549</name>
</trkpt>
<trkpt lat="49.361275" lon="8.803075">
<ele>181.0</ele>
<speed>0.8</speed>
<course>294.7</course>
<desc>Speed 0.8 km/h Distance 140 km</desc>
<time>2011-03-24T17:35:00.83</time>
<name>6550</name>
</trkpt>
<trkpt lat="49.361280" lon="8.803058">
<ele>181.5</ele>
<speed>4.5</speed>
<course>302.6</course>
<desc>Speed 4.5 km/h Distance 140 km</desc>
<time>2011-03-24T17:35:01.83</time>
<name>6551</name>
</trkpt>
<trkpt lat="49.361305" lon="8.802998">
<ele>181.5</ele>
<speed>18.7</speed>
<course>301.9</course>
<desc>Speed 18.7 km/h Distance 140 km</desc>
<time>2011-03-24T17:35:02.82</time>
<name>6552</name>
</trkpt>
<trkpt lat="49.361333" lon="8.802928">
<ele>180.5</ele>
<speed>20.9</speed>
<course>298.9</course>
<desc>Speed 20.9 km/h Distance 140 km</desc>
<time>2011-03-24T17:35:03.83</time>
<name>6553</name>
</trkpt>
<trkpt lat="49.361363" lon="8.802845">
<ele>180.0</ele>
<speed>23.7</speed>
<course>293.7</course>
<desc>Speed 23.7 km/h Distance 140 km</desc>
<time>2011-03-24T17:35:04.83</time>
<name>6554</name>
</trkpt>
<trkpt lat="49.361390" lon="8.802752">
<ele>180.0</ele>
<speed>26.4</speed>
<course>304.6</course>
<desc>Speed 26.4 km/h Distance 140 km</desc>
<time>2011-03-24T17:35:05.83</time>
<name>6555</name>
</trkpt>
<trkpt lat="49.361427" lon="8.802670">
<ele>180.5</ele>
<speed>26.1</speed>
<course>298.5</course>
<desc>Speed 26.1 km/h Distance 140 km</desc>
<time>2011-03-24T17:35:06.83</time>
<name>6556</name>
</trkpt>
<trkpt lat="49.361465" lon="8.802562">
<ele>180.5</ele>
<speed>31.6</speed>
<course>296.7</course>
<desc>Speed 31.6 km/h Distance 140 km</desc>
<time>2011-03-24T17:35:07.83</time>
<name>6557</name>
</trkpt>
<trkpt lat="49.361495" lon="8.802470">
<ele>180.5</ele>
<speed>31.6</speed>
<course>300.5</course>
<desc>Speed 31.6 km/h Distance 140 km</desc>
<time>2011-03-24T17:35:08.82</time>
<name>6558</name>
</trkpt>
<trkpt lat="49.361542" lon="8.802348">
<ele>180.5</ele>
<speed>36.1</speed>
<course>298.3</course>
<desc>Speed 36.1 km/h Distance 140 km</desc>
<time>2011-03-24T17:35:09.83</time>
<name>6559</name>
</trkpt>
<trkpt lat="49.361587" lon="8.802220">
<ele>180.5</ele>
<speed>36.9</speed>
<course>300.5</course>
<desc>Speed 36.9 km/h Distance 140 km</desc>
<time>2011-03-24T17:35:10.82</time>
<name>6560</name>
</trkpt>
<trkpt lat="49.361633" lon="8.802098">
<ele>180.5</ele>
<speed>36.9</speed>
<course>290.0</course>
<desc>Speed 36.9 km/h Distance 140 km</desc>
<time>2011-03-24T17:35:11.83</time>
<name>6561</name>
</trkpt>
<trkpt lat="49.361673" lon="8.801930">
<ele>180.5</ele>
<speed>39.2</speed>
<course>273.7</course>
<desc>Speed 39.2 km/h Distance 140 km</desc>
<time>2011-03-24T17:35:12.82</time>
<name>6562</name>
</trkpt>
<trkpt lat="49.361680" lon="8.801773">
<ele>180.5</ele>
<speed>36.8</speed>
<course>273.8</course>
<desc>Speed 36.8 km/h Distance 140 km</desc>
<time>2011-03-24T17:35:13.83</time>
<name>6563</name>
</trkpt>
<trkpt lat="49.361687" lon="8.801620">
<ele>180.5</ele>
<speed>37.0</speed>
<course>270.0</course>
<desc>Speed 37.0 km/h Distance 140 km</desc>
<time>2011-03-24T17:35:14.83</time>
<name>6564</name>
</trkpt>
<trkpt lat="49.361687" lon="8.801468">
<ele>181.5</ele>
<speed>37.0</speed>
<course>264.0</course>
<desc>Speed 37.0 km/h Distance 140 km</desc>
<time>2011-03-24T17:35:15.83</time>
<name>6565</name>
</trkpt>
<trkpt lat="49.361677" lon="8.801323">
<ele>182.0</ele>
<speed>36.1</speed>
<course>257.2</course>
<desc>Speed 36.1 km/h Distance 140 km</desc>
<time>2011-03-24T17:35:16.83</time>
<name>6566</name>
</trkpt>
<trkpt lat="49.361657" lon="8.801188">
<ele>182.0</ele>
<speed>35.6</speed>
<course>254.1</course>
<desc>Speed 35.6 km/h Distance 140 km</desc>
<time>2011-03-24T17:35:17.82</time>
<name>6567</name>
</trkpt>
<trkpt lat="49.361632" lon="8.801053">
<ele>182.0</ele>
<speed>36.1</speed>
<course>252.1</course>
<desc>Speed 36.1 km/h Distance 140 km</desc>
<time>2011-03-24T17:35:18.83</time>
<name>6568</name>
</trkpt>
<trkpt lat="49.361603" lon="8.800918">
<ele>182.0</ele>
<speed>35.6</speed>
<course>265.3</course>
<desc>Speed 35.6 km/h Distance 140 km</desc>
<time>2011-03-24T17:35:19.82</time>
<name>6569</name>
</trkpt>
<trkpt lat="49.361597" lon="8.800793">
<ele>182.0</ele>
<speed>30.7</speed>
<course>261.1</course>
<desc>Speed 30.7 km/h Distance 140 km</desc>
<time>2011-03-24T17:35:20.82</time>
<name>6570</name>
</trkpt>
<trkpt lat="49.361587" lon="8.800695">
<ele>184.0</ele>
<speed>24.0</speed>
<course>259.6</course>
<desc>Speed 24.0 km/h Distance 140 km</desc>
<time>2011-03-24T17:35:21.82</time>
<name>6571</name>
</trkpt>
<trkpt lat="49.361582" lon="8.800653">
<ele>184.0</ele>
<speed>11.3</speed>
<course>252.4</course>
<desc>Speed 11.3 km/h Distance 140 km</desc>
<time>2011-03-24T17:35:22.82</time>
<name>6572</name>
</trkpt>
<trkpt lat="49.361572" lon="8.800605">
<ele>185.0</ele>
<speed>12.5</speed>
<course>259.6</course>
<desc>Speed 12.5 km/h Distance 140 km</desc>
<time>2011-03-24T17:35:23.82</time>
<name>6573</name>
</trkpt>
<trkpt lat="49.361567" lon="8.800563">
<ele>185.0</ele>
<speed>10.0</speed>
<course>262.7</course>
<desc>Speed 10.0 km/h Distance 140 km</desc>
<time>2011-03-24T17:35:24.82</time>
<name>6574</name>
</trkpt>
<trkpt lat="49.361563" lon="8.800523">
<ele>185.0</ele>
<speed>9.7</speed>
<course>263.7</course>
<desc>Speed 9.7 km/h Distance 140 km</desc>
<time>2011-03-24T17:35:25.82</time>
<name>6575</name>
</trkpt>
<trkpt lat="49.361560" lon="8.800477">
<ele>185.0</ele>
<speed>10.9</speed>
<course>262.9</course>
<desc>Speed 10.9 km/h Distance 140 km</desc>
<time>2011-03-24T17:35:26.81</time>
<name>6576</name>
</trkpt>
<trkpt lat="49.361555" lon="8.800415">
<ele>185.0</ele>
<speed>15.0</speed>
<course>260.1</course>
<desc>Speed 15.0 km/h Distance 140 km</desc>
<time>2011-03-24T17:35:27.81</time>
<name>6577</name>
</trkpt>
<trkpt lat="49.361547" lon="8.800342">
<ele>184.5</ele>
<speed>18.1</speed>
<course>258.7</course>
<desc>Speed 18.1 km/h Distance 140 km</desc>
<time>2011-03-24T17:35:28.82</time>
<name>6578</name>
</trkpt>
<trkpt lat="49.361537" lon="8.800265">
<ele>184.5</ele>
<speed>19.4</speed>
<course>256.8</course>
<desc>Speed 19.4 km/h Distance 140 km</desc>
<time>2011-03-24T17:35:29.82</time>
<name>6579</name>
</trkpt>
<trkpt lat="49.361525" lon="8.800188">
<ele>184.0</ele>
<speed>20.6</speed>
<course>259.6</course>
<desc>Speed 20.6 km/h Distance 140 km</desc>
<time>2011-03-24T17:35:30.81</time>
<name>6580</name>
</trkpt>
<trkpt lat="49.361515" lon="8.800105">
<ele>183.0</ele>
<speed>22.6</speed>
<course>253.2</course>
<desc>Speed 22.6 km/h Distance 140 km</desc>
<time>2011-03-24T17:35:31.81</time>
<name>6581</name>
</trkpt>
<trkpt lat="49.361497" lon="8.800012">
<ele>180.5</ele>
<speed>25.5</speed>
<course>260.7</course>
<desc>Speed 25.5 km/h Distance 140 km</desc>
<time>2011-03-24T17:35:32.81</time>
<name>6582</name>
</trkpt>
<trkpt lat="49.361487" lon="8.799918">
<ele>179.5</ele>
<speed>24.4</speed>
<course>260.2</course>
<desc>Speed 24.4 km/h Distance 140 km</desc>
<time>2011-03-24T17:35:33.80</time>
<name>6583</name>
</trkpt>
<trkpt lat="49.361475" lon="8.799815">
<ele>179.0</ele>
<speed>27.4</speed>
<course>260.6</course>
<desc>Speed 27.4 km/h Distance 140 km</desc>
<time>2011-03-24T17:35:34.80</time>
<name>6584</name>
</trkpt>
<trkpt lat="49.361463" lon="8.799707">
<ele>178.5</ele>
<speed>28.9</speed>
<course>256.2</course>
<desc>Speed 28.9 km/h Distance 140 km</desc>
<time>2011-03-24T17:35:35.81</time>
<name>6585</name>
</trkpt>
<trkpt lat="49.361443" lon="8.799582">
<ele>178.0</ele>
<speed>33.9</speed>
<course>257.5</course>
<desc>Speed 33.9 km/h Distance 140 km</desc>
<time>2011-03-24T17:35:36.80</time>
<name>6586</name>
</trkpt>
<trkpt lat="49.361425" lon="8.799455">
<ele>178.0</ele>
<speed>33.2</speed>
<course>257.5</course>
<desc>Speed 33.2 km/h Distance 140 km</desc>
<time>2011-03-24T17:35:37.81</time>
<name>6587</name>
</trkpt>
<trkpt lat="49.361407" lon="8.799328">
<ele>178.5</ele>
<speed>33.0</speed>
<course>260.3</course>
<desc>Speed 33.0 km/h Distance 140 km</desc>
<time>2011-03-24T17:35:38.81</time>
<name>6588</name>
</trkpt>
<trkpt lat="49.361392" lon="8.799193">
<ele>179.0</ele>
<speed>35.3</speed>
<course>259.0</course>
<desc>Speed 35.3 km/h Distance 140 km</desc>
<time>2011-03-24T17:35:39.81</time>
<name>6589</name>
</trkpt>
<trkpt lat="49.361375" lon="8.799062">
<ele>178.5</ele>
<speed>33.9</speed>
<course>255.2</course>
<desc>Speed 33.9 km/h Distance 140 km</desc>
<time>2011-03-24T17:35:40.81</time>
<name>6590</name>
</trkpt>
<trkpt lat="49.361348" lon="8.798907">
<ele>179.5</ele>
<speed>40.5</speed>
<course>258.3</course>
<desc>Speed 40.5 km/h Distance 140 km</desc>
<time>2011-03-24T17:35:41.80</time>
<name>6591</name>
</trkpt>
<trkpt lat="49.361328" lon="8.798758">
<ele>179.5</ele>
<speed>40.1</speed>
<course>257.6</course>
<desc>Speed 40.1 km/h Distance 140 km</desc>
<time>2011-03-24T17:35:42.80</time>
<name>6592</name>
</trkpt>
<trkpt lat="49.361307" lon="8.798607">
<ele>180.0</ele>
<speed>39.8</speed>
<course>259.1</course>
<desc>Speed 39.8 km/h Distance 141 km</desc>
<time>2011-03-24T17:35:43.80</time>
<name>6593</name>
</trkpt>
<trkpt lat="49.361288" lon="8.798460">
<ele>180.5</ele>
<speed>38.6</speed>
<course>264.7</course>
<desc>Speed 38.6 km/h Distance 141 km</desc>
<time>2011-03-24T17:35:44.81</time>
<name>6594</name>
</trkpt>
<trkpt lat="49.361280" lon="8.798322">
<ele>180.0</ele>
<speed>36.6</speed>
<course>258.1</course>
<desc>Speed 36.6 km/h Distance 141 km</desc>
<time>2011-03-24T17:35:45.81</time>
<name>6595</name>
</trkpt>
<trkpt lat="49.361262" lon="8.798188">
<ele>180.0</ele>
<speed>36.5</speed>
<course>256.5</course>
<desc>Speed 36.5 km/h Distance 141 km</desc>
<time>2011-03-24T17:35:46.80</time>
<name>6596</name>
</trkpt>
<trkpt lat="49.361242" lon="8.798060">
<ele>180.0</ele>
<speed>34.9</speed>
<course>253.7</course>
<desc>Speed 34.9 km/h Distance 141 km</desc>
<time>2011-03-24T17:35:47.81</time>
<name>6597</name>
</trkpt>
<trkpt lat="49.361217" lon="8.797928">
<ele>180.0</ele>
<speed>35.7</speed>
<course>253.3</course>
<desc>Speed 35.7 km/h Distance 141 km</desc>
<time>2011-03-24T17:35:48.80</time>
<name>6598</name>
</trkpt>
<trkpt lat="49.361192" lon="8.797800">
<ele>180.0</ele>
<speed>35.9</speed>
<course>251.5</course>
<desc>Speed 35.9 km/h Distance 141 km</desc>
<time>2011-03-24T17:35:49.81</time>
<name>6599</name>
</trkpt>
<trkpt lat="49.361163" lon="8.797670">
<ele>180.0</ele>
<speed>35.6</speed>
<course>249.3</course>
<desc>Speed 35.6 km/h Distance 141 km</desc>
<time>2011-03-24T17:35:50.79</time>
<name>6600</name>
</trkpt>
<trkpt lat="49.361135" lon="8.797555">
<ele>179.5</ele>
<speed>32.1</speed>
<course>246.5</course>
<desc>Speed 32.1 km/h Distance 141 km</desc>
<time>2011-03-24T17:35:51.80</time>
<name>6601</name>
</trkpt>
<trkpt lat="49.361107" lon="8.797455">
<ele>178.0</ele>
<speed>29.1</speed>
<course>246.1</course>
<desc>Speed 29.1 km/h Distance 141 km</desc>
<time>2011-03-24T17:35:52.80</time>
<name>6602</name>
</trkpt>
<trkpt lat="49.361078" lon="8.797357">
<ele>177.5</ele>
<speed>28.7</speed>
<course>247.1</course>
<desc>Speed 28.7 km/h Distance 141 km</desc>
<time>2011-03-24T17:35:53.81</time>
<name>6603</name>
</trkpt>
<trkpt lat="49.361055" lon="8.797272">
<ele>177.5</ele>
<speed>24.7</speed>
<course>242.0</course>
<desc>Speed 24.7 km/h Distance 141 km</desc>
<time>2011-03-24T17:35:54.80</time>
<name>6604</name>
</trkpt>
<trkpt lat="49.361027" lon="8.797190">
<ele>177.5</ele>
<speed>24.6</speed>
<course>246.1</course>
<desc>Speed 24.6 km/h Distance 141 km</desc>
<time>2011-03-24T17:35:55.81</time>
<name>6605</name>
</trkpt>
<trkpt lat="49.361005" lon="8.797115">
<ele>177.0</ele>
<speed>21.7</speed>
<course>247.6</course>
<desc>Speed 21.7 km/h Distance 141 km</desc>
<time>2011-03-24T17:35:56.80</time>
<name>6606</name>
</trkpt>
<trkpt lat="49.360987" lon="8.797047">
<ele>177.0</ele>
<speed>19.5</speed>
<course>249.5</course>
<desc>Speed 19.5 km/h Distance 141 km</desc>
<time>2011-03-24T17:35:57.80</time>
<name>6607</name>
</trkpt>
<trkpt lat="49.360972" lon="8.796985">
<ele>176.5</ele>
<speed>17.3</speed>
<course>259.1</course>
<desc>Speed 17.3 km/h Distance 141 km</desc>
<time>2011-03-24T17:35:58.80</time>
<name>6608</name>
</trkpt>
<trkpt lat="49.360963" lon="8.796918">
<ele>176.5</ele>
<speed>18.5</speed>
<course>264.6</course>
<desc>Speed 18.5 km/h Distance 141 km</desc>
<time>2011-03-24T17:35:59.80</time>
<name>6609</name>
</trkpt>
<trkpt lat="49.360958" lon="8.796837">
<ele>176.5</ele>
<speed>22.0</speed>
<course>251.0</course>
<desc>Speed 22.0 km/h Distance 141 km</desc>
<time>2011-03-24T17:36:00.79</time>
<name>6610</name>
</trkpt>
<trkpt lat="49.360940" lon="8.796755">
<ele>176.5</ele>
<speed>23.0</speed>
<course>233.5</course>
<desc>Speed 23.0 km/h Distance 141 km</desc>
<time>2011-03-24T17:36:01.80</time>
<name>6611</name>
</trkpt>
<trkpt lat="49.360833" lon="8.796533">
<ele>175.5</ele>
<speed>36.6</speed>
<course>251.1</course>
<desc>Speed 36.6 km/h Distance 141 km</desc>
<time>2011-03-24T17:36:03.80</time>
<name>6612</name>
</trkpt>
<trkpt lat="49.360798" lon="8.796377">
<ele>175.5</ele>
<speed>43.7</speed>
<course>245.7</course>
<desc>Speed 43.7 km/h Distance 141 km</desc>
<time>2011-03-24T17:36:04.80</time>
<name>6613</name>
</trkpt>
<trkpt lat="49.360748" lon="8.796207">
<ele>175.5</ele>
<speed>49.2</speed>
<course>245.3</course>
<desc>Speed 49.2 km/h Distance 141 km</desc>
<time>2011-03-24T17:36:05.80</time>
<name>6614</name>
</trkpt>
<trkpt lat="49.360698" lon="8.796040">
<ele>175.5</ele>
<speed>48.2</speed>
<course>245.2</course>
<desc>Speed 48.2 km/h Distance 141 km</desc>
<time>2011-03-24T17:36:06.80</time>
<name>6615</name>
</trkpt>
<trkpt lat="49.360647" lon="8.795868">
<ele>176.0</ele>
<speed>48.8</speed>
<course>246.6</course>
<desc>Speed 48.8 km/h Distance 141 km</desc>
<time>2011-03-24T17:36:07.80</time>
<name>6616</name>
</trkpt>
<trkpt lat="49.360598" lon="8.795697">
<ele>176.0</ele>
<speed>48.3</speed>
<course>244.5</course>
<desc>Speed 48.3 km/h Distance 141 km</desc>
<time>2011-03-24T17:36:08.79</time>
<name>6617</name>
</trkpt>
<trkpt lat="49.360545" lon="8.795525">
<ele>176.0</ele>
<speed>49.8</speed>
<course>244.9</course>
<desc>Speed 49.8 km/h Distance 141 km</desc>
<time>2011-03-24T17:36:09.78</time>
<name>6618</name>
</trkpt>
<trkpt lat="49.360492" lon="8.795350">
<ele>176.0</ele>
<speed>50.6</speed>
<course>241.5</course>
<desc>Speed 50.6 km/h Distance 141 km</desc>
<time>2011-03-24T17:36:10.79</time>
<name>6619</name>
</trkpt>
<trkpt lat="49.360433" lon="8.795185">
<ele>175.5</ele>
<speed>49.3</speed>
<course>233.9</course>
<desc>Speed 49.3 km/h Distance 141 km</desc>
<time>2011-03-24T17:36:11.79</time>
<name>6620</name>
</trkpt>
<trkpt lat="49.360353" lon="8.795017">
<ele>176.5</ele>
<speed>52.5</speed>
<course>227.0</course>
<desc>Speed 52.5 km/h Distance 141 km</desc>
<time>2011-03-24T17:36:12.79</time>
<name>6621</name>
</trkpt>
<trkpt lat="49.360263" lon="8.794868">
<ele>177.5</ele>
<speed>51.3</speed>
<course>224.3</course>
<desc>Speed 51.3 km/h Distance 141 km</desc>
<time>2011-03-24T17:36:13.80</time>
<name>6622</name>
</trkpt>
<trkpt lat="49.360183" lon="8.794748">
<ele>177.0</ele>
<speed>43.7</speed>
<course>229.8</course>
<desc>Speed 43.7 km/h Distance 141 km</desc>
<time>2011-03-24T17:36:14.79</time>
<name>6623</name>
</trkpt>
<trkpt lat="49.360120" lon="8.794633">
<ele>176.5</ele>
<speed>39.9</speed>
<course>249.7</course>
<desc>Speed 39.9 km/h Distance 141 km</desc>
<time>2011-03-24T17:36:15.78</time>
<name>6624</name>
</trkpt>
<trkpt lat="49.360088" lon="8.794502">
<ele>176.5</ele>
<speed>36.0</speed>
<course>268.9</course>
<desc>Speed 36.0 km/h Distance 141 km</desc>
<time>2011-03-24T17:36:16.79</time>
<name>6625</name>
</trkpt>
<trkpt lat="49.360087" lon="8.794363">
<ele>176.0</ele>
<speed>36.0</speed>
<course>283.6</course>
<desc>Speed 36.0 km/h Distance 141 km</desc>
<time>2011-03-24T17:36:17.78</time>
<name>6626</name>
</trkpt>
<trkpt lat="49.360112" lon="8.794205">
<ele>176.0</ele>
<speed>42.4</speed>
<course>282.1</course>
<desc>Speed 42.4 km/h Distance 141 km</desc>
<time>2011-03-24T17:36:18.78</time>
<name>6627</name>
</trkpt>
<trkpt lat="49.360135" lon="8.794038">
<ele>176.0</ele>
<speed>44.9</speed>
<course>283.3</course>
<desc>Speed 44.9 km/h Distance 141 km</desc>
<time>2011-03-24T17:36:19.78</time>
<name>6628</name>
</trkpt>
<trkpt lat="49.360163" lon="8.793855">
<ele>177.0</ele>
<speed>49.5</speed>
<course>282.0</course>
<desc>Speed 49.5 km/h Distance 141 km</desc>
<time>2011-03-24T17:36:20.80</time>
<name>6629</name>
</trkpt>
<trkpt lat="49.360190" lon="8.793662">
<ele>177.0</ele>
<speed>51.9</speed>
<course>281.3</course>
<desc>Speed 51.9 km/h Distance 141 km</desc>
<time>2011-03-24T17:36:21.79</time>
<name>6630</name>
</trkpt>
<trkpt lat="49.360218" lon="8.793443">
<ele>175.5</ele>
<speed>58.4</speed>
<course>278.9</course>
<desc>Speed 58.4 km/h Distance 141 km</desc>
<time>2011-03-24T17:36:22.79</time>
<name>6631</name>
</trkpt>
<trkpt lat="49.360240" lon="8.793230">
<ele>175.0</ele>
<speed>56.3</speed>
<course>277.9</course>
<desc>Speed 56.3 km/h Distance 141 km</desc>
<time>2011-03-24T17:36:23.79</time>
<name>6632</name>
</trkpt>
<trkpt lat="49.360258" lon="8.793027">
<ele>174.5</ele>
<speed>53.3</speed>
<course>279.1</course>
<desc>Speed 53.3 km/h Distance 141 km</desc>
<time>2011-03-24T17:36:24.78</time>
<name>6633</name>
</trkpt>
<trkpt lat="49.360278" lon="8.792835">
<ele>174.0</ele>
<speed>51.2</speed>
<course>277.5</course>
<desc>Speed 51.2 km/h Distance 141 km</desc>
<time>2011-03-24T17:36:25.79</time>
<name>6634</name>
</trkpt>
<trkpt lat="49.360295" lon="8.792642">
<ele>173.5</ele>
<speed>51.3</speed>
<course>279.5</course>
<desc>Speed 51.3 km/h Distance 141 km</desc>
<time>2011-03-24T17:36:26.78</time>
<name>6635</name>
</trkpt>
<trkpt lat="49.360317" lon="8.792443">
<ele>172.5</ele>
<speed>52.9</speed>
<course>280.7</course>
<desc>Speed 52.9 km/h Distance 141 km</desc>
<time>2011-03-24T17:36:27.78</time>
<name>6636</name>
</trkpt>
<trkpt lat="49.360342" lon="8.792240">
<ele>172.0</ele>
<speed>54.6</speed>
<course>281.5</course>
<desc>Speed 54.6 km/h Distance 141 km</desc>
<time>2011-03-24T17:36:28.78</time>
<name>6637</name>
</trkpt>
<trkpt lat="49.360370" lon="8.792027">
<ele>172.0</ele>
<speed>57.2</speed>
<course>285.2</course>
<desc>Speed 57.2 km/h Distance 141 km</desc>
<time>2011-03-24T17:36:29.78</time>
<name>6638</name>
</trkpt>
<trkpt lat="49.360408" lon="8.791810">
<ele>171.5</ele>
<speed>58.8</speed>
<course>287.1</course>
<desc>Speed 58.8 km/h Distance 141 km</desc>
<time>2011-03-24T17:36:30.78</time>
<name>6639</name>
</trkpt>
<trkpt lat="49.360452" lon="8.791593">
<ele>170.5</ele>
<speed>59.5</speed>
<course>289.0</course>
<desc>Speed 59.5 km/h Distance 141 km</desc>
<time>2011-03-24T17:36:31.78</time>
<name>6640</name>
</trkpt>
<trkpt lat="49.360498" lon="8.791385">
<ele>170.5</ele>
<speed>57.5</speed>
<course>288.4</course>
<desc>Speed 57.5 km/h Distance 141 km</desc>
<time>2011-03-24T17:36:32.78</time>
<name>6641</name>
</trkpt>
<trkpt lat="49.360542" lon="8.791185">
<ele>170.0</ele>
<speed>55.1</speed>
<course>303.0</course>
<desc>Speed 55.1 km/h Distance 141 km</desc>
<time>2011-03-24T17:36:33.77</time>
<name>6642</name>
</trkpt>
<trkpt lat="49.360610" lon="8.791023">
<ele>171.5</ele>
<speed>50.6</speed>
<course>297.6</course>
<desc>Speed 50.6 km/h Distance 141 km</desc>
<time>2011-03-24T17:36:34.78</time>
<name>6643</name>
</trkpt>
<trkpt lat="49.360667" lon="8.790857">
<ele>171.5</ele>
<speed>49.3</speed>
<course>300.2</course>
<desc>Speed 49.3 km/h Distance 141 km</desc>
<time>2011-03-24T17:36:35.77</time>
<name>6644</name>
</trkpt>
<trkpt lat="49.360722" lon="8.790712">
<ele>170.5</ele>
<speed>44.0</speed>
<course>302.6</course>
<desc>Speed 44.0 km/h Distance 141 km</desc>
<time>2011-03-24T17:36:36.78</time>
<name>6645</name>
</trkpt>
<trkpt lat="49.360763" lon="8.790612">
<ele>169.5</ele>
<speed>31.3</speed>
<course>304.7</course>
<desc>Speed 31.3 km/h Distance 141 km</desc>
<time>2011-03-24T17:36:37.77</time>
<name>6646</name>
</trkpt>
<trkpt lat="49.360802" lon="8.790527">
<ele>168.0</ele>
<speed>27.9</speed>
<course>302.5</course>
<desc>Speed 27.9 km/h Distance 141 km</desc>
<time>2011-03-24T17:36:38.77</time>
<name>6647</name>
</trkpt>
<trkpt lat="49.360830" lon="8.790458">
<ele>168.0</ele>
<speed>21.6</speed>
<course>300.4</course>
<desc>Speed 21.6 km/h Distance 141 km</desc>
<time>2011-03-24T17:36:39.76</time>
<name>6648</name>
</trkpt>
<trkpt lat="49.360852" lon="8.790402">
<ele>168.0</ele>
<speed>17.4</speed>
<course>295.5</course>
<desc>Speed 17.4 km/h Distance 141 km</desc>
<time>2011-03-24T17:36:40.76</time>
<name>6649</name>
</trkpt>
<trkpt lat="49.360867" lon="8.790353">
<ele>167.5</ele>
<speed>15.5</speed>
<course>298.0</course>
<desc>Speed 15.5 km/h Distance 141 km</desc>
<time>2011-03-24T17:36:41.76</time>
<name>6650</name>
</trkpt>
<trkpt lat="49.360882" lon="8.790310">
<ele>167.5</ele>
<speed>13.3</speed>
<course>301.6</course>
<desc>Speed 13.3 km/h Distance 141 km</desc>
<time>2011-03-24T17:36:42.76</time>
<name>6651</name>
</trkpt>
<trkpt lat="49.360895" lon="8.790277">
<ele>168.0</ele>
<speed>10.3</speed>
<course>297.1</course>
<desc>Speed 10.3 km/h Distance 141 km</desc>
<time>2011-03-24T17:36:43.76</time>
<name>6652</name>
</trkpt>
<trkpt lat="49.360903" lon="8.790252">
<ele>168.0</ele>
<speed>7.2</speed>
<course>303.3</course>
<desc>Speed 7.2 km/h Distance 141 km</desc>
<time>2011-03-24T17:36:44.76</time>
<name>6653</name>
</trkpt>
<trkpt lat="49.360908" lon="8.790240">
<ele>168.0</ele>
<speed>3.0</speed>
<course>270.0</course>
<desc>Speed 3.0 km/h Distance 141 km</desc>
<time>2011-03-24T17:36:45.76</time>
<name>6654</name>
</trkpt>
<trkpt lat="49.360908" lon="8.790238">
<ele>168.0</ele>
<speed>0.2</speed>
<course>270.0</course>
<desc>Speed 0.2 km/h Distance 141 km</desc>
<time>2011-03-24T17:36:46.76</time>
<name>6655</name>
</trkpt>
<trkpt lat="49.360908" lon="8.790237">
<ele>168.5</ele>
<speed>0.4</speed>
<course>90.0</course>
<desc>Speed 0.4 km/h Distance 141 km</desc>
<time>2011-03-24T17:36:47.76</time>
<name>6656</name>
</trkpt>
<trkpt lat="49.360908" lon="8.790238">
<ele>168.5</ele>
<speed>0.1</speed>
<course>157.0</course>
<desc>Speed 0.1 km/h Distance 141 km</desc>
<time>2011-03-24T17:36:48.77</time>
<name>6657</name>
</trkpt>
<trkpt lat="49.360905" lon="8.790240">
<ele>168.5</ele>
<speed>0.1</speed>
<course>128.1</course>
<desc>Speed 0.1 km/h Distance 141 km</desc>
<time>2011-03-24T17:36:49.77</time>
<name>6658</name>
</trkpt>
<trkpt lat="49.360903" lon="8.790243">
<ele>168.5</ele>
<speed>0.0</speed>
<course>167.4</course>
<desc>Speed 0.0 km/h Distance 141 km</desc>
<time>2011-03-24T17:36:50.76</time>
<name>6659</name>
</trkpt>
<trkpt lat="49.360902" lon="8.790243">
<ele>168.5</ele>
<speed>0.0</speed>
<course>167.4</course>
<desc>Speed 0.0 km/h Distance 141 km</desc>
<time>2011-03-24T17:36:51.77</time>
<name>6660</name>
</trkpt>
<trkpt lat="49.360902" lon="8.790243">
<ele>168.5</ele>
<speed>0.1</speed>
<course>167.4</course>
<desc>Speed 0.1 km/h Distance 141 km</desc>
<time>2011-03-24T17:36:52.76</time>
<name>6661</name>
</trkpt>
<trkpt lat="49.360900" lon="8.790243">
<ele>168.5</ele>
<speed>0.1</speed>
<course>167.4</course>
<desc>Speed 0.1 km/h Distance 141 km</desc>
<time>2011-03-24T17:36:53.77</time>
<name>6662</name>
</trkpt>
<trkpt lat="49.360900" lon="8.790243">
<ele>169.0</ele>
<speed>0.1</speed>
<course>167.4</course>
<desc>Speed 0.1 km/h Distance 141 km</desc>
<time>2011-03-24T17:36:54.76</time>
<name>6663</name>
</trkpt>
<trkpt lat="49.360900" lon="8.790243">
<ele>169.0</ele>
<speed>0.1</speed>
<course>167.4</course>
<desc>Speed 0.1 km/h Distance 141 km</desc>
<time>2011-03-24T17:36:55.78</time>
<name>6664</name>
</trkpt>
<trkpt lat="49.360900" lon="8.790243">
<ele>169.0</ele>
<speed>0.1</speed>
<course>167.4</course>
<desc>Speed 0.1 km/h Distance 141 km</desc>
<time>2011-03-24T17:36:56.76</time>
<name>6665</name>
</trkpt>
<trkpt lat="49.360900" lon="8.790243">
<ele>169.0</ele>
<speed>0.1</speed>
<course>167.4</course>
<desc>Speed 0.1 km/h Distance 141 km</desc>
<time>2011-03-24T17:36:57.76</time>
<name>6666</name>
</trkpt>
<trkpt lat="49.360900" lon="8.790243">
<ele>169.0</ele>
<speed>0.1</speed>
<course>270.0</course>
<desc>Speed 0.1 km/h Distance 141 km</desc>
<time>2011-03-24T17:36:58.76</time>
<name>6667</name>
</trkpt>
<trkpt lat="49.360900" lon="8.790242">
<ele>169.0</ele>
<speed>0.1</speed>
<course>270.0</course>
<desc>Speed 0.1 km/h Distance 141 km</desc>
<time>2011-03-24T17:36:59.76</time>
<name>6668</name>
</trkpt>
<trkpt lat="49.360900" lon="8.790242">
<ele>169.0</ele>
<speed>0.1</speed>
<course>270.0</course>
<desc>Speed 0.1 km/h Distance 141 km</desc>
<time>2011-03-24T17:37:00.75</time>
<name>6669</name>
</trkpt>
<trkpt lat="49.360900" lon="8.790242">
<ele>169.0</ele>
<speed>0.1</speed>
<course>270.0</course>
<desc>Speed 0.1 km/h Distance 141 km</desc>
<time>2011-03-24T17:37:01.75</time>
<name>6670</name>
</trkpt>
<trkpt lat="49.360900" lon="8.790242">
<ele>169.5</ele>
<speed>0.1</speed>
<course>270.0</course>
<desc>Speed 0.1 km/h Distance 141 km</desc>
<time>2011-03-24T17:37:02.75</time>
<name>6671</name>
</trkpt>
<trkpt lat="49.360900" lon="8.790242">
<ele>169.5</ele>
<speed>0.1</speed>
<course>270.0</course>
<desc>Speed 0.1 km/h Distance 141 km</desc>
<time>2011-03-24T17:37:03.76</time>
<name>6672</name>
</trkpt>
<trkpt lat="49.360900" lon="8.790242">
<ele>169.5</ele>
<speed>0.1</speed>
<course>270.0</course>
<desc>Speed 0.1 km/h Distance 141 km</desc>
<time>2011-03-24T17:37:04.75</time>
<name>6673</name>
</trkpt>
<trkpt lat="49.360900" lon="8.790242">
<ele>169.5</ele>
<speed>0.1</speed>
<course>270.0</course>
<desc>Speed 0.1 km/h Distance 141 km</desc>
<time>2011-03-24T17:37:05.76</time>
<name>6674</name>
</trkpt>
<trkpt lat="49.360900" lon="8.790242">
<ele>169.5</ele>
<speed>0.1</speed>
<course>270.0</course>
<desc>Speed 0.1 km/h Distance 141 km</desc>
<time>2011-03-24T17:37:06.76</time>
<name>6675</name>
</trkpt>
<trkpt lat="49.360900" lon="8.790242">
<ele>169.5</ele>
<speed>0.1</speed>
<course>270.0</course>
<desc>Speed 0.1 km/h Distance 141 km</desc>
<time>2011-03-24T17:37:07.75</time>
<name>6676</name>
</trkpt>
<trkpt lat="49.360900" lon="8.790242">
<ele>169.5</ele>
<speed>0.2</speed>
<course>270.0</course>
<desc>Speed 0.2 km/h Distance 141 km</desc>
<time>2011-03-24T17:37:08.75</time>
<name>6677</name>
</trkpt>
<trkpt lat="49.360900" lon="8.790242">
<ele>169.5</ele>
<speed>0.0</speed>
<course>270.0</course>
<desc>Speed 0.0 km/h Distance 141 km</desc>
<time>2011-03-24T17:37:09.76</time>
<name>6678</name>
</trkpt>
<trkpt lat="49.360900" lon="8.790242">
<ele>169.5</ele>
<speed>0.2</speed>
<course>270.0</course>
<desc>Speed 0.2 km/h Distance 141 km</desc>
<time>2011-03-24T17:37:10.76</time>
<name>6679</name>
</trkpt>
<trkpt lat="49.360900" lon="8.790242">
<ele>169.5</ele>
<speed>0.0</speed>
<course>270.0</course>
<desc>Speed 0.0 km/h Distance 141 km</desc>
<time>2011-03-24T17:37:11.76</time>
<name>6680</name>
</trkpt>
<trkpt lat="49.360900" lon="8.790242">
<ele>169.5</ele>
<speed>0.1</speed>
<course>270.0</course>
<desc>Speed 0.1 km/h Distance 141 km</desc>
<time>2011-03-24T17:37:12.75</time>
<name>6681</name>
</trkpt>
<trkpt lat="49.360900" lon="8.790240">
<ele>169.5</ele>
<speed>0.1</speed>
<course>270.0</course>
<desc>Speed 0.1 km/h Distance 141 km</desc>
<time>2011-03-24T17:37:13.75</time>
<name>6682</name>
</trkpt>
<trkpt lat="49.360900" lon="8.790240">
<ele>169.5</ele>
<speed>0.2</speed>
<course>270.0</course>
<desc>Speed 0.2 km/h Distance 141 km</desc>
<time>2011-03-24T17:37:14.75</time>
<name>6683</name>
</trkpt>
<trkpt lat="49.360900" lon="8.790240">
<ele>169.5</ele>
<speed>0.1</speed>
<course>270.0</course>
<desc>Speed 0.1 km/h Distance 141 km</desc>
<time>2011-03-24T17:37:15.74</time>
<name>6684</name>
</trkpt>
<trkpt lat="49.360900" lon="8.790240">
<ele>169.5</ele>
<speed>0.1</speed>
<course>231.9</course>
<desc>Speed 0.1 km/h Distance 141 km</desc>
<time>2011-03-24T17:37:16.74</time>
<name>6685</name>
</trkpt>
<trkpt lat="49.360898" lon="8.790237">
<ele>169.5</ele>
<speed>1.0</speed>
<course>192.6</course>
<desc>Speed 1.0 km/h Distance 141 km</desc>
<time>2011-03-24T17:37:17.74</time>
<name>6686</name>
</trkpt>
<trkpt lat="49.360897" lon="8.790235">
<ele>169.5</ele>
<speed>0.1</speed>
<course>192.6</course>
<desc>Speed 0.1 km/h Distance 141 km</desc>
<time>2011-03-24T17:37:18.74</time>
<name>6687</name>
</trkpt>
<trkpt lat="49.360897" lon="8.790235">
<ele>169.5</ele>
<speed>0.1</speed>
<course>192.6</course>
<desc>Speed 0.1 km/h Distance 141 km</desc>
<time>2011-03-24T17:37:19.74</time>
<name>6688</name>
</trkpt>
<trkpt lat="49.360897" lon="8.790235">
<ele>169.5</ele>
<speed>0.1</speed>
<course>192.6</course>
<desc>Speed 0.1 km/h Distance 141 km</desc>
<time>2011-03-24T17:37:20.74</time>
<name>6689</name>
</trkpt>
<trkpt lat="49.360897" lon="8.790235">
<ele>169.5</ele>
<speed>0.2</speed>
<course>192.6</course>
<desc>Speed 0.2 km/h Distance 141 km</desc>
<time>2011-03-24T17:37:21.74</time>
<name>6690</name>
</trkpt>
<trkpt lat="49.360897" lon="8.790235">
<ele>169.5</ele>
<speed>0.1</speed>
<course>142.8</course>
<desc>Speed 0.1 km/h Distance 141 km</desc>
<time>2011-03-24T17:37:22.75</time>
<name>6691</name>
</trkpt>
<trkpt lat="49.360895" lon="8.790237">
<ele>169.5</ele>
<speed>0.1</speed>
<course>142.8</course>
<desc>Speed 0.1 km/h Distance 141 km</desc>
<time>2011-03-24T17:37:23.75</time>
<name>6692</name>
</trkpt>
<trkpt lat="49.360895" lon="8.790237">
<ele>169.5</ele>
<speed>0.2</speed>
<course>90.0</course>
<desc>Speed 0.2 km/h Distance 141 km</desc>
<time>2011-03-24T17:37:24.75</time>
<name>6693</name>
</trkpt>
<trkpt lat="49.360895" lon="8.790238">
<ele>169.5</ele>
<speed>0.1</speed>
<course>167.4</course>
<desc>Speed 0.1 km/h Distance 141 km</desc>
<time>2011-03-24T17:37:25.75</time>
<name>6694</name>
</trkpt>
<trkpt lat="49.360893" lon="8.790238">
<ele>169.5</ele>
<speed>0.2</speed>
<course>167.4</course>
<desc>Speed 0.2 km/h Distance 141 km</desc>
<time>2011-03-24T17:37:26.74</time>
<name>6695</name>
</trkpt>
<trkpt lat="49.360893" lon="8.790238">
<ele>169.5</ele>
<speed>0.2</speed>
<course>90.0</course>
<desc>Speed 0.2 km/h Distance 141 km</desc>
<time>2011-03-24T17:37:27.74</time>
<name>6696</name>
</trkpt>
<trkpt lat="49.360893" lon="8.790240">
<ele>169.5</ele>
<speed>0.1</speed>
<course>90.0</course>
<desc>Speed 0.1 km/h Distance 141 km</desc>
<time>2011-03-24T17:37:28.73</time>
<name>6697</name>
</trkpt>
<trkpt lat="49.360893" lon="8.790240">
<ele>169.5</ele>
<speed>0.2</speed>
<course>90.0</course>
<desc>Speed 0.2 km/h Distance 141 km</desc>
<time>2011-03-24T17:37:29.75</time>
<name>6698</name>
</trkpt>
<trkpt lat="49.360893" lon="8.790240">
<ele>169.5</ele>
<speed>0.0</speed>
<course>90.0</course>
<desc>Speed 0.0 km/h Distance 141 km</desc>
<time>2011-03-24T17:37:30.74</time>
<name>6699</name>
</trkpt>
<trkpt lat="49.360893" lon="8.790240">
<ele>169.5</ele>
<speed>0.1</speed>
<course>90.0</course>
<desc>Speed 0.1 km/h Distance 141 km</desc>
<time>2011-03-24T17:37:31.75</time>
<name>6700</name>
</trkpt>
<trkpt lat="49.360893" lon="8.790240">
<ele>169.5</ele>
<speed>0.1</speed>
<course>90.0</course>
<desc>Speed 0.1 km/h Distance 141 km</desc>
<time>2011-03-24T17:37:32.74</time>
<name>6701</name>
</trkpt>
<trkpt lat="49.360893" lon="8.790242">
<ele>169.5</ele>
<speed>0.1</speed>
<course>90.0</course>
<desc>Speed 0.1 km/h Distance 141 km</desc>
<time>2011-03-24T17:37:33.74</time>
<name>6702</name>
</trkpt>
<trkpt lat="49.360893" lon="8.790242">
<ele>169.5</ele>
<speed>0.1</speed>
<course>90.0</course>
<desc>Speed 0.1 km/h Distance 141 km</desc>
<time>2011-03-24T17:37:34.74</time>
<name>6703</name>
</trkpt>
<trkpt lat="49.360893" lon="8.790242">
<ele>169.5</ele>
<speed>0.2</speed>
<course>322.8</course>
<desc>Speed 0.2 km/h Distance 141 km</desc>
<time>2011-03-24T17:37:35.74</time>
<name>6704</name>
</trkpt>
<trkpt lat="49.360895" lon="8.790240">
<ele>169.5</ele>
<speed>2.2</speed>
<course>322.5</course>
<desc>Speed 2.2 km/h Distance 141 km</desc>
<time>2011-03-24T17:37:36.74</time>
<name>6705</name>
</trkpt>
<trkpt lat="49.360923" lon="8.790207">
<ele>170.0</ele>
<speed>15.3</speed>
<course>216.0</course>
<desc>Speed 15.3 km/h Distance 141 km</desc>
<time>2011-03-24T17:37:37.73</time>
<name>6706</name>
</trkpt>
<trkpt lat="49.360895" lon="8.790175">
<ele>169.5</ele>
<speed>14.3</speed>
<course>277.8</course>
<desc>Speed 14.3 km/h Distance 141 km</desc>
<time>2011-03-24T17:37:38.73</time>
<name>6707</name>
</trkpt>
<trkpt lat="49.360903" lon="8.790082">
<ele>169.5</ele>
<speed>23.0</speed>
<course>247.9</course>
<desc>Speed 23.0 km/h Distance 141 km</desc>
<time>2011-03-24T17:37:39.74</time>
<name>6708</name>
</trkpt>
<trkpt lat="49.360872" lon="8.789962">
<ele>169.0</ele>
<speed>32.9</speed>
<course>272.9</course>
<desc>Speed 32.9 km/h Distance 141 km</desc>
<time>2011-03-24T17:37:40.74</time>
<name>6709</name>
</trkpt>
<trkpt lat="49.360877" lon="8.789812">
<ele>170.0</ele>
<speed>32.9</speed>
<course>229.2</course>
<desc>Speed 32.9 km/h Distance 141 km</desc>
<time>2011-03-24T17:37:41.74</time>
<name>6710</name>
</trkpt>
<trkpt lat="49.360817" lon="8.789705">
<ele>170.0</ele>
<speed>35.6</speed>
<course>226.5</course>
<desc>Speed 35.6 km/h Distance 141 km</desc>
<time>2011-03-24T17:37:42.73</time>
<name>6711</name>
</trkpt>
<trkpt lat="49.360752" lon="8.789600">
<ele>170.5</ele>
<speed>37.3</speed>
<course>225.7</course>
<desc>Speed 37.3 km/h Distance 141 km</desc>
<time>2011-03-24T17:37:43.74</time>
<name>6712</name>
</trkpt>
<trkpt lat="49.360682" lon="8.789490">
<ele>170.5</ele>
<speed>39.6</speed>
<course>226.1</course>
<desc>Speed 39.6 km/h Distance 141 km</desc>
<time>2011-03-24T17:37:44.74</time>
<name>6713</name>
</trkpt>
<trkpt lat="49.360612" lon="8.789378">
<ele>171.0</ele>
<speed>40.5</speed>
<course>224.7</course>
<desc>Speed 40.5 km/h Distance 141 km</desc>
<time>2011-03-24T17:37:45.73</time>
<name>6714</name>
</trkpt>
<trkpt lat="49.360535" lon="8.789262">
<ele>171.0</ele>
<speed>43.7</speed>
<course>225.9</course>
<desc>Speed 43.7 km/h Distance 141 km</desc>
<time>2011-03-24T17:37:46.73</time>
<name>6715</name>
</trkpt>
<trkpt lat="49.360455" lon="8.789135">
<ele>171.5</ele>
<speed>46.4</speed>
<course>226.3</course>
<desc>Speed 46.4 km/h Distance 141 km</desc>
<time>2011-03-24T17:37:47.73</time>
<name>6716</name>
</trkpt>
<trkpt lat="49.360370" lon="8.788998">
<ele>172.0</ele>
<speed>49.9</speed>
<course>226.6</course>
<desc>Speed 49.9 km/h Distance 141 km</desc>
<time>2011-03-24T17:37:48.73</time>
<name>6717</name>
</trkpt>
<trkpt lat="49.360282" lon="8.788855">
<ele>172.5</ele>
<speed>51.6</speed>
<course>224.8</course>
<desc>Speed 51.6 km/h Distance 141 km</desc>
<time>2011-03-24T17:37:49.72</time>
<name>6718</name>
</trkpt>
<trkpt lat="49.360190" lon="8.788715">
<ele>172.5</ele>
<speed>52.1</speed>
<course>224.5</course>
<desc>Speed 52.1 km/h Distance 141 km</desc>
<time>2011-03-24T17:37:50.73</time>
<name>6719</name>
</trkpt>
<trkpt lat="49.360095" lon="8.788572">
<ele>173.0</ele>
<speed>53.7</speed>
<course>226.1</course>
<desc>Speed 53.7 km/h Distance 141 km</desc>
<time>2011-03-24T17:37:51.72</time>
<name>6720</name>
</trkpt>
<trkpt lat="49.360000" lon="8.788420">
<ele>173.0</ele>
<speed>56.0</speed>
<course>226.4</course>
<desc>Speed 56.0 km/h Distance 141 km</desc>
<time>2011-03-24T17:37:52.72</time>
<name>6721</name>
</trkpt>
<trkpt lat="49.359902" lon="8.788262">
<ele>173.0</ele>
<speed>57.7</speed>
<course>225.1</course>
<desc>Speed 57.7 km/h Distance 141 km</desc>
<time>2011-03-24T17:37:53.72</time>
<name>6722</name>
</trkpt>
<trkpt lat="49.359797" lon="8.788100">
<ele>173.0</ele>
<speed>59.8</speed>
<course>226.1</course>
<desc>Speed 59.8 km/h Distance 141 km</desc>
<time>2011-03-24T17:37:54.73</time>
<name>6723</name>
</trkpt>
<trkpt lat="49.359690" lon="8.787930">
<ele>173.0</ele>
<speed>61.9</speed>
<course>226.9</course>
<desc>Speed 61.9 km/h Distance 141 km</desc>
<time>2011-03-24T17:37:55.74</time>
<name>6724</name>
</trkpt>
<trkpt lat="49.359583" lon="8.787755">
<ele>173.0</ele>
<speed>62.8</speed>
<course>226.8</course>
<desc>Speed 62.8 km/h Distance 141 km</desc>
<time>2011-03-24T17:37:56.72</time>
<name>6725</name>
</trkpt>
<trkpt lat="49.359473" lon="8.787575">
<ele>173.0</ele>
<speed>64.8</speed>
<course>224.3</course>
<desc>Speed 64.8 km/h Distance 141 km</desc>
<time>2011-03-24T17:37:57.72</time>
<name>6726</name>
</trkpt>
<trkpt lat="49.359357" lon="8.787400">
<ele>173.0</ele>
<speed>65.6</speed>
<course>225.4</course>
<desc>Speed 65.6 km/h Distance 141 km</desc>
<time>2011-03-24T17:37:58.72</time>
<name>6727</name>
</trkpt>
<trkpt lat="49.359243" lon="8.787223">
<ele>173.0</ele>
<speed>65.1</speed>
<course>223.5</course>
<desc>Speed 65.1 km/h Distance 141 km</desc>
<time>2011-03-24T17:37:59.93</time>
<name>6728</name>
</trkpt>
<trkpt lat="49.359017" lon="8.786893">
<ele>173.0</ele>
<speed>58.6</speed>
<course>226.1</course>
<desc>Speed 58.6 km/h Distance 142 km</desc>
<time>2011-03-24T17:38:01.73</time>
<name>6729</name>
</trkpt>
<trkpt lat="49.358910" lon="8.786723">
<ele>173.5</ele>
<speed>61.6</speed>
<course>224.2</course>
<desc>Speed 61.6 km/h Distance 142 km</desc>
<time>2011-03-24T17:38:02.73</time>
<name>6730</name>
</trkpt>
<trkpt lat="49.358795" lon="8.786552">
<ele>173.0</ele>
<speed>63.0</speed>
<course>218.6</course>
<desc>Speed 63.0 km/h Distance 142 km</desc>
<time>2011-03-24T17:38:03.72</time>
<name>6731</name>
</trkpt>
<trkpt lat="49.358655" lon="8.786380">
<ele>174.0</ele>
<speed>70.6</speed>
<course>216.6</course>
<desc>Speed 70.6 km/h Distance 142 km</desc>
<time>2011-03-24T17:38:04.72</time>
<name>6732</name>
</trkpt>
<trkpt lat="49.358513" lon="8.786218">
<ele>174.0</ele>
<speed>67.2</speed>
<course>212.8</course>
<desc>Speed 67.2 km/h Distance 142 km</desc>
<time>2011-03-24T17:38:05.72</time>
<name>6733</name>
</trkpt>
<trkpt lat="49.358370" lon="8.786077">
<ele>174.0</ele>
<speed>64.9</speed>
<course>212.4</course>
<desc>Speed 64.9 km/h Distance 142 km</desc>
<time>2011-03-24T17:38:06.73</time>
<name>6734</name>
</trkpt>
<trkpt lat="49.358233" lon="8.785943">
<ele>173.5</ele>
<speed>64.0</speed>
<course>209.9</course>
<desc>Speed 64.0 km/h Distance 142 km</desc>
<time>2011-03-24T17:38:07.71</time>
<name>6735</name>
</trkpt>
<trkpt lat="49.358092" lon="8.785818">
<ele>173.5</ele>
<speed>65.0</speed>
<course>208.8</course>
<desc>Speed 65.0 km/h Distance 142 km</desc>
<time>2011-03-24T17:38:08.71</time>
<name>6736</name>
</trkpt>
<trkpt lat="49.357953" lon="8.785702">
<ele>173.5</ele>
<speed>61.3</speed>
<course>206.4</course>
<desc>Speed 61.3 km/h Distance 142 km</desc>
<time>2011-03-24T17:38:09.72</time>
<name>6737</name>
</trkpt>
<trkpt lat="49.357820" lon="8.785600">
<ele>173.5</ele>
<speed>58.0</speed>
<course>204.3</course>
<desc>Speed 58.0 km/h Distance 142 km</desc>
<time>2011-03-24T17:38:10.71</time>
<name>6738</name>
</trkpt>
<trkpt lat="49.357690" lon="8.785510">
<ele>173.5</ele>
<speed>54.9</speed>
<course>203.2</course>
<desc>Speed 54.9 km/h Distance 142 km</desc>
<time>2011-03-24T17:38:11.71</time>
<name>6739</name>
</trkpt>
<trkpt lat="49.357568" lon="8.785430">
<ele>173.5</ele>
<speed>52.1</speed>
<course>199.6</course>
<desc>Speed 52.1 km/h Distance 142 km</desc>
<time>2011-03-24T17:38:12.71</time>
<name>6740</name>
</trkpt>
<trkpt lat="49.357447" lon="8.785363">
<ele>173.0</ele>
<speed>50.4</speed>
<course>199.0</course>
<desc>Speed 50.4 km/h Distance 142 km</desc>
<time>2011-03-24T17:38:13.72</time>
<name>6741</name>
</trkpt>
<trkpt lat="49.357333" lon="8.785303">
<ele>173.0</ele>
<speed>48.6</speed>
<course>200.2</course>
<desc>Speed 48.6 km/h Distance 142 km</desc>
<time>2011-03-24T17:38:14.71</time>
<name>6742</name>
</trkpt>
<trkpt lat="49.357230" lon="8.785245">
<ele>172.5</ele>
<speed>44.3</speed>
<course>214.3</course>
<desc>Speed 44.3 km/h Distance 142 km</desc>
<time>2011-03-24T17:38:15.71</time>
<name>6743</name>
</trkpt>
<trkpt lat="49.357160" lon="8.785172">
<ele>172.5</ele>
<speed>34.8</speed>
<course>222.6</course>
<desc>Speed 34.8 km/h Distance 142 km</desc>
<time>2011-03-24T17:38:16.72</time>
<name>6744</name>
</trkpt>
<trkpt lat="49.357103" lon="8.785092">
<ele>173.5</ele>
<speed>30.5</speed>
<course>242.1</course>
<desc>Speed 30.5 km/h Distance 142 km</desc>
<time>2011-03-24T17:38:17.71</time>
<name>6745</name>
</trkpt>
<trkpt lat="49.357072" lon="8.785000">
<ele>173.5</ele>
<speed>27.0</speed>
<course>278.1</course>
<desc>Speed 27.0 km/h Distance 142 km</desc>
<time>2011-03-24T17:38:18.71</time>
<name>6746</name>
</trkpt>
<trkpt lat="49.357080" lon="8.784910">
<ele>173.5</ele>
<speed>22.7</speed>
<course>293.1</course>
<desc>Speed 22.7 km/h Distance 142 km</desc>
<time>2011-03-24T17:38:19.71</time>
<name>6747</name>
</trkpt>
<trkpt lat="49.357170" lon="8.784587">
<ele>173.0</ele>
<speed>46.5</speed>
<course>308.1</course>
<desc>Speed 46.5 km/h Distance 142 km</desc>
<time>2011-03-24T17:38:21.70</time>
<name>6748</name>
</trkpt>
<trkpt lat="49.357252" lon="8.784427">
<ele>173.5</ele>
<speed>51.7</speed>
<course>318.0</course>
<desc>Speed 51.7 km/h Distance 142 km</desc>
<time>2011-03-24T17:38:22.70</time>
<name>6749</name>
</trkpt>
<trkpt lat="49.357360" lon="8.784277">
<ele>174.0</ele>
<speed>57.0</speed>
<course>313.8</course>
<desc>Speed 57.0 km/h Distance 142 km</desc>
<time>2011-03-24T17:38:23.70</time>
<name>6750</name>
</trkpt>
<trkpt lat="49.357452" lon="8.784130">
<ele>174.0</ele>
<speed>53.1</speed>
<course>311.6</course>
<desc>Speed 53.1 km/h Distance 142 km</desc>
<time>2011-03-24T17:38:24.70</time>
<name>6751</name>
</trkpt>
<trkpt lat="49.357538" lon="8.783980">
<ele>174.0</ele>
<speed>52.1</speed>
<course>305.7</course>
<desc>Speed 52.1 km/h Distance 142 km</desc>
<time>2011-03-24T17:38:25.70</time>
<name>6752</name>
</trkpt>
<trkpt lat="49.357600" lon="8.783848">
<ele>174.0</ele>
<speed>42.3</speed>
<course>304.0</course>
<desc>Speed 42.3 km/h Distance 142 km</desc>
<time>2011-03-24T17:38:26.70</time>
<name>6753</name>
</trkpt>
<trkpt lat="49.357648" lon="8.783738">
<ele>174.0</ele>
<speed>42.3</speed>
<course>303.1</course>
<desc>Speed 42.3 km/h Distance 142 km</desc>
<time>2011-03-24T17:38:27.70</time>
<name>6754</name>
</trkpt>
<trkpt lat="49.357747" lon="8.783507">
<ele>173.5</ele>
<speed>43.9</speed>
<course>298.1</course>
<desc>Speed 43.9 km/h Distance 142 km</desc>
<time>2011-03-24T17:38:29.70</time>
<name>6755</name>
</trkpt>
<trkpt lat="49.357802" lon="8.783348">
<ele>173.5</ele>
<speed>45.5</speed>
<course>297.1</course>
<desc>Speed 45.5 km/h Distance 142 km</desc>
<time>2011-03-24T17:38:30.69</time>
<name>6756</name>
</trkpt>
<trkpt lat="49.357857" lon="8.783183">
<ele>173.5</ele>
<speed>44.8</speed>
<course>296.6</course>
<desc>Speed 44.8 km/h Distance 142 km</desc>
<time>2011-03-24T17:38:31.69</time>
<name>6757</name>
</trkpt>
<trkpt lat="49.357907" lon="8.783030">
<ele>173.5</ele>
<speed>43.9</speed>
<course>294.1</course>
<desc>Speed 43.9 km/h Distance 142 km</desc>
<time>2011-03-24T17:38:32.69</time>
<name>6758</name>
</trkpt>
<trkpt lat="49.357953" lon="8.782870">
<ele>173.5</ele>
<speed>45.4</speed>
<course>289.8</course>
<desc>Speed 45.4 km/h Distance 142 km</desc>
<time>2011-03-24T17:38:33.69</time>
<name>6759</name>
</trkpt>
<trkpt lat="49.357992" lon="8.782707">
<ele>173.5</ele>
<speed>42.5</speed>
<course>284.8</course>
<desc>Speed 42.5 km/h Distance 142 km</desc>
<time>2011-03-24T17:38:34.69</time>
<name>6760</name>
</trkpt>
<trkpt lat="49.358020" lon="8.782542">
<ele>173.5</ele>
<speed>42.3</speed>
<course>277.0</course>
<desc>Speed 42.3 km/h Distance 142 km</desc>
<time>2011-03-24T17:38:35.70</time>
<name>6761</name>
</trkpt>
<trkpt lat="49.358033" lon="8.782375">
<ele>175.5</ele>
<speed>42.3</speed>
<course>279.7</course>
<desc>Speed 42.3 km/h Distance 142 km</desc>
<time>2011-03-24T17:38:36.70</time>
<name>6762</name>
</trkpt>
<trkpt lat="49.358052" lon="8.782210">
<ele>175.0</ele>
<speed>41.7</speed>
<course>290.3</course>
<desc>Speed 41.7 km/h Distance 142 km</desc>
<time>2011-03-24T17:38:37.73</time>
<name>6763</name>
</trkpt>
<trkpt lat="49.358087" lon="8.782065">
<ele>175.0</ele>
<speed>39.8</speed>
<course>290.3</course>
<desc>Speed 39.8 km/h Distance 142 km</desc>
<time>2011-03-24T17:38:38.69</time>
<name>6764</name>
</trkpt>
<trkpt lat="49.358118" lon="8.781933">
<ele>175.0</ele>
<speed>35.1</speed>
<course>280.5</course>
<desc>Speed 35.1 km/h Distance 142 km</desc>
<time>2011-03-24T17:38:39.69</time>
<name>6765</name>
</trkpt>
<trkpt lat="49.358135" lon="8.781795">
<ele>174.5</ele>
<speed>35.4</speed>
<course>270.0</course>
<desc>Speed 35.4 km/h Distance 142 km</desc>
<time>2011-03-24T17:38:40.69</time>
<name>6766</name>
</trkpt>
<trkpt lat="49.358135" lon="8.781645">
<ele>174.5</ele>
<speed>36.6</speed>
<course>270.0</course>
<desc>Speed 36.6 km/h Distance 142 km</desc>
<time>2011-03-24T17:38:41.69</time>
<name>6767</name>
</trkpt>
<trkpt lat="49.358135" lon="8.781525">
<ele>174.5</ele>
<speed>36.6</speed>
<course>271.6</course>
<desc>Speed 36.6 km/h Distance 142 km</desc>
<time>2011-03-24T17:38:42.68</time>
<name>6768</name>
</trkpt>
<trkpt lat="49.358137" lon="8.781433">
<ele>174.5</ele>
<speed>36.6</speed>
<course>237.1</course>
<desc>Speed 36.6 km/h Distance 142 km</desc>
<time>2011-03-24T17:38:43.69</time>
<name>6769</name>
</trkpt>
<trkpt lat="49.358083" lon="8.781307">
<ele>174.5</ele>
<speed>38.8</speed>
<course>230.1</course>
<desc>Speed 38.8 km/h Distance 142 km</desc>
<time>2011-03-24T17:38:44.69</time>
<name>6770</name>
</trkpt>
<trkpt lat="49.358013" lon="8.781178">
<ele>174.5</ele>
<speed>41.0</speed>
<course>231.8</course>
<desc>Speed 41.0 km/h Distance 142 km</desc>
<time>2011-03-24T17:38:45.69</time>
<name>6771</name>
</trkpt>
<trkpt lat="49.357943" lon="8.781042">
<ele>174.5</ele>
<speed>42.4</speed>
<course>229.5</course>
<desc>Speed 42.4 km/h Distance 142 km</desc>
<time>2011-03-24T17:38:46.69</time>
<name>6772</name>
</trkpt>
<trkpt lat="49.357877" lon="8.780922">
<ele>173.0</ele>
<speed>37.4</speed>
<course>234.4</course>
<desc>Speed 37.4 km/h Distance 142 km</desc>
<time>2011-03-24T17:38:47.69</time>
<name>6773</name>
</trkpt>
<trkpt lat="49.357820" lon="8.780800">
<ele>172.5</ele>
<speed>37.4</speed>
<course>232.5</course>
<desc>Speed 37.4 km/h Distance 142 km</desc>
<time>2011-03-24T17:38:48.69</time>
<name>6774</name>
</trkpt>
<trkpt lat="49.357767" lon="8.780693">
<ele>172.5</ele>
<speed>34.6</speed>
<course>249.0</course>
<desc>Speed 34.6 km/h Distance 142 km</desc>
<time>2011-03-24T17:38:49.69</time>
<name>6775</name>
</trkpt>
<trkpt lat="49.357738" lon="8.780580">
<ele>172.5</ele>
<speed>31.0</speed>
<course>291.5</course>
<desc>Speed 31.0 km/h Distance 142 km</desc>
<time>2011-03-24T17:38:50.69</time>
<name>6776</name>
</trkpt>
<trkpt lat="49.357770" lon="8.780457">
<ele>172.5</ele>
<speed>34.1</speed>
<course>287.1</course>
<desc>Speed 34.1 km/h Distance 142 km</desc>
<time>2011-03-24T17:38:51.69</time>
<name>6777</name>
</trkpt>
<trkpt lat="49.357792" lon="8.780348">
<ele>172.5</ele>
<speed>34.1</speed>
<course>251.1</course>
<desc>Speed 34.1 km/h Distance 142 km</desc>
<time>2011-03-24T17:38:52.69</time>
<name>6778</name>
</trkpt>
<trkpt lat="49.357760" lon="8.780207">
<ele>172.5</ele>
<speed>36.6</speed>
<course>253.9</course>
<desc>Speed 36.6 km/h Distance 142 km</desc>
<time>2011-03-24T17:38:53.68</time>
<name>6779</name>
</trkpt>
<trkpt lat="49.357735" lon="8.780073">
<ele>172.5</ele>
<speed>35.4</speed>
<course>260.1</course>
<desc>Speed 35.4 km/h Distance 142 km</desc>
<time>2011-03-24T17:38:54.69</time>
<name>6780</name>
</trkpt>
<trkpt lat="49.357720" lon="8.779942">
<ele>172.5</ele>
<speed>34.6</speed>
<course>260.1</course>
<desc>Speed 34.6 km/h Distance 142 km</desc>
<time>2011-03-24T17:38:55.70</time>
<name>6781</name>
</trkpt>
<trkpt lat="49.357705" lon="8.779810">
<ele>172.5</ele>
<speed>34.4</speed>
<course>258.3</course>
<desc>Speed 34.4 km/h Distance 142 km</desc>
<time>2011-03-24T17:38:56.69</time>
<name>6782</name>
</trkpt>
<trkpt lat="49.357688" lon="8.779687">
<ele>172.5</ele>
<speed>32.5</speed>
<course>254.9</course>
<desc>Speed 32.5 km/h Distance 142 km</desc>
<time>2011-03-24T17:38:57.69</time>
<name>6783</name>
</trkpt>
<trkpt lat="49.357667" lon="8.779563">
<ele>172.5</ele>
<speed>32.3</speed>
<course>254.4</course>
<desc>Speed 32.3 km/h Distance 142 km</desc>
<time>2011-03-24T17:38:58.69</time>
<name>6784</name>
</trkpt>
<trkpt lat="49.357643" lon="8.779435">
<ele>172.5</ele>
<speed>33.7</speed>
<course>255.8</course>
<desc>Speed 33.7 km/h Distance 142 km</desc>
<time>2011-03-24T17:38:59.69</time>
<name>6785</name>
</trkpt>
<trkpt lat="49.357622" lon="8.779303">
<ele>172.5</ele>
<speed>34.4</speed>
<course>264.3</course>
<desc>Speed 34.4 km/h Distance 142 km</desc>
<time>2011-03-24T17:39:00.68</time>
<name>6786</name>
</trkpt>
<trkpt lat="49.357613" lon="8.779175">
<ele>171.5</ele>
<speed>33.0</speed>
<course>258.4</course>
<desc>Speed 33.0 km/h Distance 142 km</desc>
<time>2011-03-24T17:39:01.68</time>
<name>6787</name>
</trkpt>
<trkpt lat="49.357597" lon="8.779050">
<ele>171.0</ele>
<speed>34.1</speed>
<course>251.0</course>
<desc>Speed 34.1 km/h Distance 142 km</desc>
<time>2011-03-24T17:39:02.68</time>
<name>6788</name>
</trkpt>
<trkpt lat="49.357568" lon="8.778923">
<ele>170.5</ele>
<speed>34.1</speed>
<course>254.0</course>
<desc>Speed 34.1 km/h Distance 142 km</desc>
<time>2011-03-24T17:39:03.68</time>
<name>6789</name>
</trkpt>
<trkpt lat="49.357545" lon="8.778798">
<ele>171.0</ele>
<speed>33.2</speed>
<course>250.4</course>
<desc>Speed 33.2 km/h Distance 142 km</desc>
<time>2011-03-24T17:39:04.68</time>
<name>6790</name>
</trkpt>
<trkpt lat="49.357518" lon="8.778683">
<ele>171.0</ele>
<speed>31.2</speed>
<course>254.8</course>
<desc>Speed 31.2 km/h Distance 142 km</desc>
<time>2011-03-24T17:39:05.67</time>
<name>6791</name>
</trkpt>
<trkpt lat="49.357498" lon="8.778570">
<ele>171.0</ele>
<speed>30.1</speed>
<course>254.7</course>
<desc>Speed 30.1 km/h Distance 142 km</desc>
<time>2011-03-24T17:39:06.67</time>
<name>6792</name>
</trkpt>
<trkpt lat="49.357477" lon="8.778448">
<ele>171.5</ele>
<speed>32.4</speed>
<course>265.5</course>
<desc>Speed 32.4 km/h Distance 142 km</desc>
<time>2011-03-24T17:39:07.68</time>
<name>6793</name>
</trkpt>
<trkpt lat="49.357470" lon="8.778318">
<ele>172.0</ele>
<speed>33.8</speed>
<course>281.4</course>
<desc>Speed 33.8 km/h Distance 142 km</desc>
<time>2011-03-24T17:39:08.67</time>
<name>6794</name>
</trkpt>
<trkpt lat="49.357487" lon="8.778192">
<ele>173.5</ele>
<speed>34.4</speed>
<course>287.7</course>
<desc>Speed 34.4 km/h Distance 142 km</desc>
<time>2011-03-24T17:39:09.67</time>
<name>6795</name>
</trkpt>
<trkpt lat="49.357515" lon="8.778055">
<ele>174.5</ele>
<speed>37.2</speed>
<course>291.9</course>
<desc>Speed 37.2 km/h Distance 142 km</desc>
<time>2011-03-24T17:39:10.68</time>
<name>6796</name>
</trkpt>
<trkpt lat="49.357553" lon="8.777908">
<ele>176.0</ele>
<speed>41.3</speed>
<course>293.7</course>
<desc>Speed 41.3 km/h Distance 142 km</desc>
<time>2011-03-24T17:39:11.67</time>
<name>6797</name>
</trkpt>
<trkpt lat="49.357597" lon="8.777757">
<ele>177.0</ele>
<speed>43.6</speed>
<course>290.6</course>
<desc>Speed 43.6 km/h Distance 142 km</desc>
<time>2011-03-24T17:39:12.67</time>
<name>6798</name>
</trkpt>
<trkpt lat="49.357635" lon="8.777600">
<ele>178.0</ele>
<speed>43.7</speed>
<course>282.4</course>
<desc>Speed 43.7 km/h Distance 142 km</desc>
<time>2011-03-24T17:39:13.67</time>
<name>6799</name>
</trkpt>
<trkpt lat="49.357658" lon="8.777437">
<ele>180.5</ele>
<speed>42.0</speed>
<course>273.5</course>
<desc>Speed 42.0 km/h Distance 142 km</desc>
<time>2011-03-24T17:39:14.68</time>
<name>6800</name>
</trkpt>
<trkpt lat="49.357665" lon="8.777268">
<ele>180.5</ele>
<speed>43.5</speed>
<course>277.5</course>
<desc>Speed 43.5 km/h Distance 142 km</desc>
<time>2011-03-24T17:39:15.67</time>
<name>6801</name>
</trkpt>
<trkpt lat="49.357680" lon="8.777093">
<ele>182.0</ele>
<speed>44.8</speed>
<course>274.1</course>
<desc>Speed 44.8 km/h Distance 142 km</desc>
<time>2011-03-24T17:39:16.68</time>
<name>6802</name>
</trkpt>
<trkpt lat="49.357688" lon="8.776915">
<ele>182.5</ele>
<speed>46.3</speed>
<course>274.0</course>
<desc>Speed 46.3 km/h Distance 142 km</desc>
<time>2011-03-24T17:39:17.67</time>
<name>6803</name>
</trkpt>
<trkpt lat="49.357697" lon="8.776730">
<ele>182.5</ele>
<speed>48.2</speed>
<course>272.4</course>
<desc>Speed 48.2 km/h Distance 142 km</desc>
<time>2011-03-24T17:39:18.67</time>
<name>6804</name>
</trkpt>
<trkpt lat="49.357702" lon="8.776547">
<ele>184.5</ele>
<speed>47.1</speed>
<course>272.4</course>
<desc>Speed 47.1 km/h Distance 142 km</desc>
<time>2011-03-24T17:39:19.66</time>
<name>6805</name>
</trkpt>
<trkpt lat="49.357707" lon="8.776362">
<ele>184.5</ele>
<speed>46.9</speed>
<course>270.0</course>
<desc>Speed 46.9 km/h Distance 142 km</desc>
<time>2011-03-24T17:39:20.66</time>
<name>6806</name>
</trkpt>
<trkpt lat="49.357707" lon="8.776168">
<ele>186.0</ele>
<speed>49.2</speed>
<course>269.0</course>
<desc>Speed 49.2 km/h Distance 142 km</desc>
<time>2011-03-24T17:39:21.67</time>
<name>6807</name>
</trkpt>
<trkpt lat="49.357705" lon="8.776015">
<ele>186.5</ele>
<speed>49.2</speed>
<course>246.0</course>
<desc>Speed 49.2 km/h Distance 142 km</desc>
<time>2011-03-24T17:39:22.66</time>
<name>6808</name>
</trkpt>
<trkpt lat="49.357657" lon="8.775848">
<ele>186.5</ele>
<speed>46.9</speed>
<course>236.7</course>
<desc>Speed 46.9 km/h Distance 142 km</desc>
<time>2011-03-24T17:39:23.66</time>
<name>6809</name>
</trkpt>
<trkpt lat="49.357592" lon="8.775697">
<ele>187.0</ele>
<speed>45.4</speed>
<course>237.2</course>
<desc>Speed 45.4 km/h Distance 142 km</desc>
<time>2011-03-24T17:39:24.67</time>
<name>6810</name>
</trkpt>
<trkpt lat="49.357522" lon="8.775530">
<ele>187.5</ele>
<speed>48.7</speed>
<course>238.8</course>
<desc>Speed 48.7 km/h Distance 143 km</desc>
<time>2011-03-24T17:39:25.66</time>
<name>6811</name>
</trkpt>
<trkpt lat="49.357472" lon="8.775403">
<ele>188.0</ele>
<speed>48.7</speed>
<course>243.3</course>
<desc>Speed 48.7 km/h Distance 143 km</desc>
<time>2011-03-24T17:39:26.66</time>
<name>6812</name>
</trkpt>
<trkpt lat="49.357372" lon="8.775098">
<ele>188.0</ele>
<speed>56.1</speed>
<course>247.7</course>
<desc>Speed 56.1 km/h Distance 143 km</desc>
<time>2011-03-24T17:39:28.66</time>
<name>6813</name>
</trkpt>
<trkpt lat="49.357315" lon="8.774887">
<ele>188.0</ele>
<speed>54.4</speed>
<course>251.0</course>
<desc>Speed 54.4 km/h Distance 143 km</desc>
<time>2011-03-24T17:39:29.66</time>
<name>6814</name>
</trkpt>
<trkpt lat="49.357267" lon="8.774672">
<ele>188.0</ele>
<speed>54.3</speed>
<course>254.3</course>
<desc>Speed 54.3 km/h Distance 143 km</desc>
<time>2011-03-24T17:39:30.66</time>
<name>6815</name>
</trkpt>
<trkpt lat="49.357230" lon="8.774472">
<ele>188.0</ele>
<speed>54.3</speed>
<course>256.8</course>
<desc>Speed 54.3 km/h Distance 143 km</desc>
<time>2011-03-24T17:39:31.65</time>
<name>6816</name>
</trkpt>
<trkpt lat="49.357200" lon="8.774275">
<ele>188.0</ele>
<speed>52.1</speed>
<course>259.0</course>
<desc>Speed 52.1 km/h Distance 143 km</desc>
<time>2011-03-24T17:39:32.65</time>
<name>6817</name>
</trkpt>
<trkpt lat="49.357175" lon="8.774077">
<ele>188.5</ele>
<speed>52.6</speed>
<course>255.9</course>
<desc>Speed 52.6 km/h Distance 143 km</desc>
<time>2011-03-24T17:39:33.65</time>
<name>6818</name>
</trkpt>
<trkpt lat="49.357140" lon="8.773863">
<ele>189.0</ele>
<speed>55.9</speed>
<course>270.7</course>
<desc>Speed 55.9 km/h Distance 143 km</desc>
<time>2011-03-24T17:39:34.66</time>
<name>6819</name>
</trkpt>
<trkpt lat="49.357142" lon="8.773652">
<ele>189.0</ele>
<speed>53.5</speed>
<course>283.2</course>
<desc>Speed 53.5 km/h Distance 143 km</desc>
<time>2011-03-24T17:39:35.66</time>
<name>6820</name>
</trkpt>
<trkpt lat="49.357173" lon="8.773445">
<ele>189.5</ele>
<speed>54.1</speed>
<course>286.3</course>
<desc>Speed 54.1 km/h Distance 143 km</desc>
<time>2011-03-24T17:39:36.65</time>
<name>6821</name>
</trkpt>
<trkpt lat="49.357213" lon="8.773235">
<ele>190.0</ele>
<speed>55.3</speed>
<course>297.8</course>
<desc>Speed 55.3 km/h Distance 143 km</desc>
<time>2011-03-24T17:39:37.66</time>
<name>6822</name>
</trkpt>
<trkpt lat="49.357272" lon="8.773065">
<ele>190.0</ele>
<speed>50.4</speed>
<course>289.9</course>
<desc>Speed 50.4 km/h Distance 143 km</desc>
<time>2011-03-24T17:39:38.65</time>
<name>6823</name>
</trkpt>
<trkpt lat="49.357315" lon="8.772882">
<ele>190.5</ele>
<speed>50.1</speed>
<course>290.6</course>
<desc>Speed 50.1 km/h Distance 143 km</desc>
<time>2011-03-24T17:39:39.65</time>
<name>6824</name>
</trkpt>
<trkpt lat="49.357358" lon="8.772705">
<ele>190.5</ele>
<speed>49.0</speed>
<course>290.3</course>
<desc>Speed 49.0 km/h Distance 143 km</desc>
<time>2011-03-24T17:39:40.65</time>
<name>6825</name>
</trkpt>
<trkpt lat="49.357400" lon="8.772532">
<ele>191.0</ele>
<speed>48.0</speed>
<course>291.6</course>
<desc>Speed 48.0 km/h Distance 143 km</desc>
<time>2011-03-24T17:39:41.65</time>
<name>6826</name>
</trkpt>
<trkpt lat="49.357442" lon="8.772370">
<ele>191.0</ele>
<speed>45.4</speed>
<course>289.9</course>
<desc>Speed 45.4 km/h Distance 143 km</desc>
<time>2011-03-24T17:39:42.64</time>
<name>6827</name>
</trkpt>
<trkpt lat="49.357482" lon="8.772200">
<ele>191.0</ele>
<speed>47.2</speed>
<course>288.5</course>
<desc>Speed 47.2 km/h Distance 143 km</desc>
<time>2011-03-24T17:39:43.65</time>
<name>6828</name>
</trkpt>
<trkpt lat="49.357522" lon="8.772017">
<ele>191.0</ele>
<speed>51.0</speed>
<course>286.4</course>
<desc>Speed 51.0 km/h Distance 143 km</desc>
<time>2011-03-24T17:39:44.64</time>
<name>6829</name>
</trkpt>
<trkpt lat="49.357553" lon="8.771852">
<ele>191.5</ele>
<speed>45.2</speed>
<course>292.7</course>
<desc>Speed 45.2 km/h Distance 143 km</desc>
<time>2011-03-24T17:39:45.65</time>
<name>6830</name>
</trkpt>
<trkpt lat="49.357598" lon="8.771687">
<ele>191.5</ele>
<speed>46.3</speed>
<course>293.6</course>
<desc>Speed 46.3 km/h Distance 143 km</desc>
<time>2011-03-24T17:39:46.65</time>
<name>6831</name>
</trkpt>
<trkpt lat="49.357647" lon="8.771517">
<ele>192.0</ele>
<speed>48.2</speed>
<course>291.2</course>
<desc>Speed 48.2 km/h Distance 143 km</desc>
<time>2011-03-24T17:39:47.65</time>
<name>6832</name>
</trkpt>
<trkpt lat="49.357690" lon="8.771345">
<ele>192.0</ele>
<speed>46.6</speed>
<course>305.1</course>
<desc>Speed 46.6 km/h Distance 143 km</desc>
<time>2011-03-24T17:39:48.65</time>
<name>6833</name>
</trkpt>
<trkpt lat="49.357762" lon="8.771188">
<ele>192.5</ele>
<speed>48.9</speed>
<course>310.6</course>
<desc>Speed 48.9 km/h Distance 143 km</desc>
<time>2011-03-24T17:39:49.65</time>
<name>6834</name>
</trkpt>
<trkpt lat="49.357833" lon="8.771060">
<ele>193.0</ele>
<speed>43.8</speed>
<course>315.7</course>
<desc>Speed 43.8 km/h Distance 143 km</desc>
<time>2011-03-24T17:39:50.64</time>
<name>6835</name>
</trkpt>
<trkpt lat="49.357910" lon="8.770945">
<ele>193.0</ele>
<speed>42.8</speed>
<course>316.3</course>
<desc>Speed 42.8 km/h Distance 143 km</desc>
<time>2011-03-24T17:39:51.64</time>
<name>6836</name>
</trkpt>
<trkpt lat="49.357988" lon="8.770830">
<ele>193.0</ele>
<speed>44.7</speed>
<course>311.9</course>
<desc>Speed 44.7 km/h Distance 143 km</desc>
<time>2011-03-24T17:39:52.64</time>
<name>6837</name>
</trkpt>
<trkpt lat="49.358068" lon="8.770693">
<ele>193.5</ele>
<speed>47.3</speed>
<course>299.1</course>
<desc>Speed 47.3 km/h Distance 143 km</desc>
<time>2011-03-24T17:39:53.65</time>
<name>6838</name>
</trkpt>
<trkpt lat="49.358123" lon="8.770542">
<ele>194.0</ele>
<speed>45.6</speed>
<course>280.0</course>
<desc>Speed 45.6 km/h Distance 143 km</desc>
<time>2011-03-24T17:39:54.64</time>
<name>6839</name>
</trkpt>
<trkpt lat="49.358147" lon="8.770338">
<ele>195.0</ele>
<speed>49.6</speed>
<course>286.3</course>
<desc>Speed 49.6 km/h Distance 143 km</desc>
<time>2011-03-24T17:39:55.65</time>
<name>6840</name>
</trkpt>
<trkpt lat="49.358180" lon="8.770163">
<ele>195.0</ele>
<speed>47.6</speed>
<course>306.9</course>
<desc>Speed 47.6 km/h Distance 143 km</desc>
<time>2011-03-24T17:39:56.64</time>
<name>6841</name>
</trkpt>
<trkpt lat="49.358258" lon="8.770003">
<ele>195.0</ele>
<speed>51.6</speed>
<course>305.0</course>
<desc>Speed 51.6 km/h Distance 143 km</desc>
<time>2011-03-24T17:39:57.65</time>
<name>6842</name>
</trkpt>
<trkpt lat="49.358320" lon="8.769868">
<ele>195.0</ele>
<speed>51.6</speed>
<course>302.5</course>
<desc>Speed 51.6 km/h Distance 143 km</desc>
<time>2011-03-24T17:39:58.64</time>
<name>6843</name>
</trkpt>
<trkpt lat="49.358385" lon="8.769712">
<ele>195.5</ele>
<speed>45.8</speed>
<course>317.6</course>
<desc>Speed 45.8 km/h Distance 143 km</desc>
<time>2011-03-24T17:39:59.64</time>
<name>6844</name>
</trkpt>
<trkpt lat="49.358612" lon="8.769393">
<ele>197.0</ele>
<speed>59.9</speed>
<course>312.7</course>
<desc>Speed 59.9 km/h Distance 143 km</desc>
<time>2011-03-24T17:40:01.64</time>
<name>6845</name>
</trkpt>
<trkpt lat="49.358715" lon="8.769222">
<ele>198.0</ele>
<speed>55.4</speed>
<course>302.4</course>
<desc>Speed 55.4 km/h Distance 143 km</desc>
<time>2011-03-24T17:40:02.64</time>
<name>6846</name>
</trkpt>
<trkpt lat="49.358787" lon="8.769048">
<ele>201.5</ele>
<speed>55.4</speed>
<course>314.3</course>
<desc>Speed 55.4 km/h Distance 143 km</desc>
<time>2011-03-24T17:40:03.64</time>
<name>6847</name>
</trkpt>
<trkpt lat="49.358877" lon="8.768907">
<ele>201.5</ele>
<speed>53.1</speed>
<course>301.3</course>
<desc>Speed 53.1 km/h Distance 143 km</desc>
<time>2011-03-24T17:40:04.64</time>
<name>6848</name>
</trkpt>
<trkpt lat="49.358943" lon="8.768738">
<ele>202.0</ele>
<speed>49.2</speed>
<course>308.7</course>
<desc>Speed 49.2 km/h Distance 143 km</desc>
<time>2011-03-24T17:40:05.64</time>
<name>6849</name>
</trkpt>
<trkpt lat="49.359023" lon="8.768585">
<ele>202.5</ele>
<speed>53.7</speed>
<course>301.1</course>
<desc>Speed 53.7 km/h Distance 143 km</desc>
<time>2011-03-24T17:40:06.64</time>
<name>6850</name>
</trkpt>
<trkpt lat="49.359093" lon="8.768407">
<ele>203.0</ele>
<speed>58.2</speed>
<course>298.7</course>
<desc>Speed 58.2 km/h Distance 143 km</desc>
<time>2011-03-24T17:40:07.64</time>
<name>6851</name>
</trkpt>
<trkpt lat="49.359160" lon="8.768220">
<ele>203.0</ele>
<speed>58.2</speed>
<course>297.1</course>
<desc>Speed 58.2 km/h Distance 143 km</desc>
<time>2011-03-24T17:40:08.64</time>
<name>6852</name>
</trkpt>
<trkpt lat="49.359210" lon="8.768070">
<ele>204.0</ele>
<speed>58.2</speed>
<course>297.5</course>
<desc>Speed 58.2 km/h Distance 143 km</desc>
<time>2011-03-24T17:40:09.63</time>
<name>6853</name>
</trkpt>
<trkpt lat="49.359285" lon="8.767848">
<ele>204.5</ele>
<speed>62.2</speed>
<course>293.6</course>
<desc>Speed 62.2 km/h Distance 143 km</desc>
<time>2011-03-24T17:40:10.64</time>
<name>6854</name>
</trkpt>
<trkpt lat="49.359343" lon="8.767643">
<ele>205.5</ele>
<speed>62.2</speed>
<course>293.5</course>
<desc>Speed 62.2 km/h Distance 143 km</desc>
<time>2011-03-24T17:40:11.63</time>
<name>6855</name>
</trkpt>
<trkpt lat="49.359430" lon="8.767337">
<ele>207.0</ele>
<speed>62.2</speed>
<course>305.5</course>
<desc>Speed 62.2 km/h Distance 143 km</desc>
<time>2011-03-24T17:40:13.64</time>
<name>6856</name>
</trkpt>
<trkpt lat="49.359575" lon="8.767025">
<ele>208.5</ele>
<speed>62.2</speed>
<course>317.0</course>
<desc>Speed 62.2 km/h Distance 143 km</desc>
<time>2011-03-24T17:40:16.64</time>
<name>6857</name>
</trkpt>
<trkpt lat="49.359790" lon="8.766717">
<ele>210.0</ele>
<speed>72.3</speed>
<course>320.1</course>
<desc>Speed 72.3 km/h Distance 143 km</desc>
<time>2011-03-24T17:40:18.64</time>
<name>6858</name>
</trkpt>
<trkpt lat="49.360380" lon="8.765958">
<ele>212.5</ele>
<speed>98.7</speed>
<course>316.5</course>
<desc>Speed 98.7 km/h Distance 143 km</desc>
<time>2011-03-24T17:40:21.64</time>
<name>6859</name>
</trkpt>
<trkpt lat="49.360643" lon="8.765575">
<ele>212.5</ele>
<speed>98.7</speed>
<course>317.4</course>
<desc>Speed 98.7 km/h Distance 143 km</desc>
<time>2011-03-24T17:40:23.63</time>
<name>6860</name>
</trkpt>
<trkpt lat="49.360810" lon="8.765340">
<ele>211.5</ele>
<speed>98.7</speed>
<course>325.6</course>
<desc>Speed 98.7 km/h Distance 143 km</desc>
<time>2011-03-24T17:40:24.63</time>
<name>6861</name>
</trkpt>
<trkpt lat="49.361468" lon="8.764648">
<ele>211.5</ele>
<speed>105</speed>
<course>325.6</course>
<desc>Speed 105 km/h Distance 143 km</desc>
<time>2011-03-24T17:40:28.63</time>
<name>6862</name>
</trkpt>
<trkpt lat="49.362312" lon="8.763763">
<ele>211.5</ele>
<speed>95.9</speed>
<course>335.3</course>
<desc>Speed 95.9 km/h Distance 144 km</desc>
<time>2011-03-24T17:40:31.62</time>
<name>6863</name>
</trkpt>
<trkpt lat="49.362708" lon="8.763483">
<ele>213.5</ele>
<speed>77.3</speed>
<course>309.5</course>
<desc>Speed 77.3 km/h Distance 144 km</desc>
<time>2011-03-24T17:40:33.63</time>
<name>6864</name>
</trkpt>
<trkpt lat="49.362982" lon="8.762975">
<ele>215.5</ele>
<speed>70.0</speed>
<course>293.0</course>
<desc>Speed 70.0 km/h Distance 144 km</desc>
<time>2011-03-24T17:40:35.62</time>
<name>6865</name>
</trkpt>
<trkpt lat="49.363140" lon="8.762402">
<ele>217.0</ele>
<speed>70.0</speed>
<course>311.3</course>
<desc>Speed 70.0 km/h Distance 144 km</desc>
<time>2011-03-24T17:40:37.62</time>
<name>6866</name>
</trkpt>
<trkpt lat="49.363380" lon="8.761982">
<ele>217.0</ele>
<speed>70.0</speed>
<course>302.9</course>
<desc>Speed 70.0 km/h Distance 144 km</desc>
<time>2011-03-24T17:40:39.62</time>
<name>6867</name>
</trkpt>
<trkpt lat="49.363797" lon="8.760993">
<ele>219.5</ele>
<speed>78.1</speed>
<course>283.7</course>
<desc>Speed 78.1 km/h Distance 144 km</desc>
<time>2011-03-24T17:40:42.62</time>
<name>6868</name>
</trkpt>
<trkpt lat="49.363887" lon="8.760427">
<ele>221.0</ele>
<speed>56.9</speed>
<course>276.6</course>
<desc>Speed 56.9 km/h Distance 144 km</desc>
<time>2011-03-24T17:40:44.62</time>
<name>6869</name>
</trkpt>
<trkpt lat="49.363925" lon="8.759915">
<ele>223.0</ele>
<speed>55.7</speed>
<course>235.8</course>
<desc>Speed 55.7 km/h Distance 144 km</desc>
<time>2011-03-24T17:40:46.62</time>
<name>6870</name>
</trkpt>
<trkpt lat="49.363702" lon="8.759410">
<ele>224.5</ele>
<speed>69.8</speed>
<course>238.4</course>
<desc>Speed 69.8 km/h Distance 144 km</desc>
<time>2011-03-24T17:40:48.62</time>
<name>6871</name>
</trkpt>
<trkpt lat="49.363468" lon="8.758828">
<ele>232.5</ele>
<speed>64.3</speed>
<course>256.7</course>
<desc>Speed 64.3 km/h Distance 144 km</desc>
<time>2011-03-24T17:40:50.61</time>
<name>6872</name>
</trkpt>
<trkpt lat="49.363400" lon="8.758383">
<ele>234.5</ele>
<speed>58.4</speed>
<course>273.9</course>
<desc>Speed 58.4 km/h Distance 144 km</desc>
<time>2011-03-24T17:40:52.69</time>
<name>6873</name>
</trkpt>
<trkpt lat="49.363420" lon="8.757938">
<ele>236.0</ele>
<speed>47.7</speed>
<course>278.8</course>
<desc>Speed 47.7 km/h Distance 144 km</desc>
<time>2011-03-24T17:40:54.62</time>
<name>6874</name>
</trkpt>
<trkpt lat="49.363437" lon="8.757773">
<ele>238.0</ele>
<speed>47.7</speed>
<course>300.3</course>
<desc>Speed 47.7 km/h Distance 144 km</desc>
<time>2011-03-24T17:40:55.63</time>
<name>6875</name>
</trkpt>
<trkpt lat="49.363517" lon="8.757563">
<ele>248.5</ele>
<speed>47.7</speed>
<course>320.9</course>
<desc>Speed 47.7 km/h Distance 144 km</desc>
<time>2011-03-24T17:40:57.61</time>
<name>6876</name>
</trkpt>
<trkpt lat="49.363710" lon="8.757322">
<ele>251.0</ele>
<speed>67.0</speed>
<course>325.9</course>
<desc>Speed 67.0 km/h Distance 144 km</desc>
<time>2011-03-24T17:40:59.62</time>
<name>6877</name>
</trkpt>
<trkpt lat="49.363840" lon="8.757187">
<ele>251.5</ele>
<speed>55.0</speed>
<course>324.5</course>
<desc>Speed 55.0 km/h Distance 144 km</desc>
<time>2011-03-24T17:41:00.60</time>
<name>6878</name>
</trkpt>
<trkpt lat="49.363982" lon="8.757032">
<ele>252.0</ele>
<speed>59.3</speed>
<course>315.9</course>
<desc>Speed 59.3 km/h Distance 144 km</desc>
<time>2011-03-24T17:41:01.61</time>
<name>6879</name>
</trkpt>
<trkpt lat="49.364237" lon="8.756652">
<ele>263.5</ele>
<speed>57.5</speed>
<course>306.4</course>
<desc>Speed 57.5 km/h Distance 144 km</desc>
<time>2011-03-24T17:41:03.61</time>
<name>6880</name>
</trkpt>
<trkpt lat="49.364342" lon="8.756433">
<ele>265.5</ele>
<speed>57.7</speed>
<course>307.9</course>
<desc>Speed 57.7 km/h Distance 144 km</desc>
<time>2011-03-24T17:41:04.61</time>
<name>6881</name>
</trkpt>
<trkpt lat="49.364545" lon="8.756032">
<ele>271.5</ele>
<speed>57.8</speed>
<course>307.3</course>
<desc>Speed 57.8 km/h Distance 144 km</desc>
<time>2011-03-24T17:41:06.61</time>
<name>6882</name>
</trkpt>
<trkpt lat="49.364635" lon="8.755850">
<ele>276.0</ele>
<speed>51.8</speed>
<course>297.1</course>
<desc>Speed 51.8 km/h Distance 144 km</desc>
<time>2011-03-24T17:41:07.60</time>
<name>6883</name>
</trkpt>
<trkpt lat="49.364698" lon="8.755660">
<ele>277.0</ele>
<speed>55.9</speed>
<course>300.1</course>
<desc>Speed 55.9 km/h Distance 144 km</desc>
<time>2011-03-24T17:41:08.60</time>
<name>6884</name>
</trkpt>
<trkpt lat="49.364882" lon="8.755175">
<ele>279.5</ele>
<speed>54.8</speed>
<course>294.5</course>
<desc>Speed 54.8 km/h Distance 144 km</desc>
<time>2011-03-24T17:41:10.60</time>
<name>6885</name>
</trkpt>
<trkpt lat="49.365028" lon="8.754680">
<ele>282.0</ele>
<speed>48.8</speed>
<course>281.9</course>
<desc>Speed 48.8 km/h Distance 144 km</desc>
<time>2011-03-24T17:41:12.60</time>
<name>6886</name>
</trkpt>
<trkpt lat="49.365057" lon="8.754473">
<ele>282.0</ele>
<speed>47.5</speed>
<course>275.9</course>
<desc>Speed 47.5 km/h Distance 144 km</desc>
<time>2011-03-24T17:41:13.60</time>
<name>6887</name>
</trkpt>
<trkpt lat="49.365070" lon="8.754275">
<ele>282.5</ele>
<speed>48.6</speed>
<course>273.6</course>
<desc>Speed 48.6 km/h Distance 144 km</desc>
<time>2011-03-24T17:41:14.60</time>
<name>6888</name>
</trkpt>
<trkpt lat="49.365078" lon="8.754070">
<ele>283.0</ele>
<speed>49.5</speed>
<course>272.8</course>
<desc>Speed 49.5 km/h Distance 144 km</desc>
<time>2011-03-24T17:41:15.60</time>
<name>6889</name>
</trkpt>
<trkpt lat="49.365085" lon="8.753863">
<ele>284.5</ele>
<speed>50.0</speed>
<course>272.8</course>
<desc>Speed 50.0 km/h Distance 144 km</desc>
<time>2011-03-24T17:41:16.61</time>
<name>6890</name>
</trkpt>
<trkpt lat="49.365092" lon="8.753657">
<ele>286.0</ele>
<speed>50.4</speed>
<course>270.0</course>
<desc>Speed 50.4 km/h Distance 144 km</desc>
<time>2011-03-24T17:41:17.60</time>
<name>6891</name>
</trkpt>
<trkpt lat="49.365092" lon="8.753452">
<ele>287.0</ele>
<speed>50.9</speed>
<course>270.0</course>
<desc>Speed 50.9 km/h Distance 145 km</desc>
<time>2011-03-24T17:41:18.60</time>
<name>6892</name>
</trkpt>
<trkpt lat="49.365092" lon="8.753243">
<ele>289.0</ele>
<speed>51.8</speed>
<course>267.2</course>
<desc>Speed 51.8 km/h Distance 145 km</desc>
<time>2011-03-24T17:41:19.60</time>
<name>6893</name>
</trkpt>
<trkpt lat="49.365085" lon="8.753033">
<ele>292.5</ele>
<speed>52.5</speed>
<course>270.0</course>
<desc>Speed 52.5 km/h Distance 145 km</desc>
<time>2011-03-24T17:41:20.60</time>
<name>6894</name>
</trkpt>
<trkpt lat="49.365085" lon="8.752828">
<ele>297.0</ele>
<speed>52.1</speed>
<course>291.7</course>
<desc>Speed 52.1 km/h Distance 145 km</desc>
<time>2011-03-24T17:41:21.60</time>
<name>6895</name>
</trkpt>
<trkpt lat="49.365133" lon="8.752642">
<ele>299.5</ele>
<speed>49.9</speed>
<course>300.6</course>
<desc>Speed 49.9 km/h Distance 145 km</desc>
<time>2011-03-24T17:41:22.60</time>
<name>6896</name>
</trkpt>
<trkpt lat="49.365200" lon="8.752468">
<ele>302.0</ele>
<speed>49.1</speed>
<course>309.5</course>
<desc>Speed 49.1 km/h Distance 145 km</desc>
<time>2011-03-24T17:41:23.60</time>
<name>6897</name>
</trkpt>
<trkpt lat="49.365295" lon="8.752292">
<ele>305.0</ele>
<speed>55.3</speed>
<course>308.9</course>
<desc>Speed 55.3 km/h Distance 145 km</desc>
<time>2011-03-24T17:41:24.60</time>
<name>6898</name>
</trkpt>
<trkpt lat="49.365378" lon="8.752133">
<ele>306.5</ele>
<speed>52.9</speed>
<course>310.9</course>
<desc>Speed 52.9 km/h Distance 145 km</desc>
<time>2011-03-24T17:41:25.60</time>
<name>6899</name>
</trkpt>
<trkpt lat="49.365467" lon="8.751977">
<ele>307.5</ele>
<speed>53.6</speed>
<course>310.6</course>
<desc>Speed 53.6 km/h Distance 145 km</desc>
<time>2011-03-24T17:41:26.60</time>
<name>6900</name>
</trkpt>
<trkpt lat="49.365553" lon="8.751822">
<ele>308.5</ele>
<speed>50.9</speed>
<course>308.3</course>
<desc>Speed 50.9 km/h Distance 145 km</desc>
<time>2011-03-24T17:41:27.59</time>
<name>6901</name>
</trkpt>
<trkpt lat="49.365647" lon="8.751640">
<ele>309.5</ele>
<speed>59.4</speed>
<course>309.1</course>
<desc>Speed 59.4 km/h Distance 145 km</desc>
<time>2011-03-24T17:41:28.59</time>
<name>6902</name>
</trkpt>
<trkpt lat="49.365735" lon="8.751473">
<ele>311.0</ele>
<speed>54.4</speed>
<course>310.2</course>
<desc>Speed 54.4 km/h Distance 145 km</desc>
<time>2011-03-24T17:41:29.59</time>
<name>6903</name>
</trkpt>
<trkpt lat="49.365808" lon="8.751340">
<ele>312.0</ele>
<speed>46.2</speed>
<course>311.1</course>
<desc>Speed 46.2 km/h Distance 145 km</desc>
<time>2011-03-24T17:41:30.59</time>
<name>6904</name>
</trkpt>
<trkpt lat="49.365892" lon="8.751193">
<ele>312.5</ele>
<speed>50.1</speed>
<course>316.2</course>
<desc>Speed 50.1 km/h Distance 145 km</desc>
<time>2011-03-24T17:41:31.59</time>
<name>6905</name>
</trkpt>
<trkpt lat="49.365980" lon="8.751063">
<ele>312.5</ele>
<speed>49.7</speed>
<course>318.6</course>
<desc>Speed 49.7 km/h Distance 145 km</desc>
<time>2011-03-24T17:41:32.59</time>
<name>6906</name>
</trkpt>
<trkpt lat="49.366070" lon="8.750942">
<ele>313.0</ele>
<speed>47.1</speed>
<course>325.8</course>
<desc>Speed 47.1 km/h Distance 145 km</desc>
<time>2011-03-24T17:41:33.59</time>
<name>6907</name>
</trkpt>
<trkpt lat="49.366147" lon="8.750862">
<ele>313.5</ele>
<speed>35.7</speed>
<course>324.1</course>
<desc>Speed 35.7 km/h Distance 145 km</desc>
<time>2011-03-24T17:41:34.59</time>
<name>6908</name>
</trkpt>
<trkpt lat="49.366207" lon="8.750795">
<ele>314.5</ele>
<speed>35.7</speed>
<course>324.2</course>
<desc>Speed 35.7 km/h Distance 145 km</desc>
<time>2011-03-24T17:41:35.59</time>
<name>6909</name>
</trkpt>
<trkpt lat="49.366253" lon="8.750743">
<ele>315.5</ele>
<speed>35.7</speed>
<course>276.5</course>
<desc>Speed 35.7 km/h Distance 145 km</desc>
<time>2011-03-24T17:41:36.59</time>
<name>6910</name>
</trkpt>
<trkpt lat="49.366262" lon="8.750632">
<ele>316.0</ele>
<speed>28.4</speed>
<course>255.6</course>
<desc>Speed 28.4 km/h Distance 145 km</desc>
<time>2011-03-24T17:41:37.59</time>
<name>6911</name>
</trkpt>
<trkpt lat="49.366240" lon="8.750502">
<ele>318.5</ele>
<speed>31.4</speed>
<course>232.1</course>
<desc>Speed 31.4 km/h Distance 145 km</desc>
<time>2011-03-24T17:41:38.59</time>
<name>6912</name>
</trkpt>
<trkpt lat="49.366177" lon="8.750377">
<ele>318.5</ele>
<speed>40.7</speed>
<course>213.6</course>
<desc>Speed 40.7 km/h Distance 145 km</desc>
<time>2011-03-24T17:41:39.59</time>
<name>6913</name>
</trkpt>
<trkpt lat="49.366088" lon="8.750287">
<ele>318.5</ele>
<speed>41.8</speed>
<course>223.3</course>
<desc>Speed 41.8 km/h Distance 145 km</desc>
<time>2011-03-24T17:41:40.59</time>
<name>6914</name>
</trkpt>
<trkpt lat="49.366007" lon="8.750168">
<ele>318.5</ele>
<speed>44.7</speed>
<course>211.2</course>
<desc>Speed 44.7 km/h Distance 145 km</desc>
<time>2011-03-24T17:41:41.59</time>
<name>6915</name>
</trkpt>
<trkpt lat="49.365910" lon="8.750078">
<ele>318.5</ele>
<speed>44.2</speed>
<course>218.1</course>
<desc>Speed 44.2 km/h Distance 145 km</desc>
<time>2011-03-24T17:41:42.59</time>
<name>6916</name>
</trkpt>
<trkpt lat="49.365820" lon="8.749970">
<ele>319.0</ele>
<speed>44.5</speed>
<course>219.5</course>
<desc>Speed 44.5 km/h Distance 145 km</desc>
<time>2011-03-24T17:41:43.59</time>
<name>6917</name>
</trkpt>
<trkpt lat="49.365727" lon="8.749852">
<ele>320.5</ele>
<speed>43.6</speed>
<course>221.6</course>
<desc>Speed 43.6 km/h Distance 145 km</desc>
<time>2011-03-24T17:41:44.58</time>
<name>6918</name>
</trkpt>
<trkpt lat="49.365640" lon="8.749733">
<ele>321.5</ele>
<speed>44.2</speed>
<course>214.4</course>
<desc>Speed 44.2 km/h Distance 145 km</desc>
<time>2011-03-24T17:41:45.58</time>
<name>6919</name>
</trkpt>
<trkpt lat="49.365540" lon="8.749628">
<ele>322.5</ele>
<speed>45.7</speed>
<course>216.8</course>
<desc>Speed 45.7 km/h Distance 145 km</desc>
<time>2011-03-24T17:41:46.59</time>
<name>6920</name>
</trkpt>
<trkpt lat="49.365440" lon="8.749513">
<ele>323.5</ele>
<speed>46.2</speed>
<course>212.2</course>
<desc>Speed 46.2 km/h Distance 145 km</desc>
<time>2011-03-24T17:41:47.58</time>
<name>6921</name>
</trkpt>
<trkpt lat="49.365343" lon="8.749420">
<ele>324.5</ele>
<speed>47.5</speed>
<course>209.9</course>
<desc>Speed 47.5 km/h Distance 145 km</desc>
<time>2011-03-24T17:41:48.57</time>
<name>6922</name>
</trkpt>
<trkpt lat="49.365243" lon="8.749332">
<ele>324.5</ele>
<speed>46.4</speed>
<course>217.2</course>
<desc>Speed 46.4 km/h Distance 145 km</desc>
<time>2011-03-24T17:41:49.58</time>
<name>6923</name>
</trkpt>
<trkpt lat="49.365152" lon="8.749225">
<ele>324.5</ele>
<speed>45.8</speed>
<course>221.1</course>
<desc>Speed 45.8 km/h Distance 145 km</desc>
<time>2011-03-24T17:41:50.58</time>
<name>6924</name>
</trkpt>
<trkpt lat="49.365063" lon="8.749107">
<ele>324.5</ele>
<speed>46.9</speed>
<course>221.2</course>
<desc>Speed 46.9 km/h Distance 145 km</desc>
<time>2011-03-24T17:41:51.58</time>
<name>6925</name>
</trkpt>
<trkpt lat="49.364967" lon="8.748977">
<ele>326.0</ele>
<speed>45.9</speed>
<course>219.2</course>
<desc>Speed 45.9 km/h Distance 145 km</desc>
<time>2011-03-24T17:41:52.58</time>
<name>6926</name>
</trkpt>
<trkpt lat="49.364875" lon="8.748862">
<ele>326.5</ele>
<speed>45.6</speed>
<course>218.0</course>
<desc>Speed 45.6 km/h Distance 145 km</desc>
<time>2011-03-24T17:41:53.57</time>
<name>6927</name>
</trkpt>
<trkpt lat="49.364783" lon="8.748752">
<ele>327.0</ele>
<speed>45.0</speed>
<course>214.0</course>
<desc>Speed 45.0 km/h Distance 145 km</desc>
<time>2011-03-24T17:41:54.58</time>
<name>6928</name>
</trkpt>
<trkpt lat="49.364690" lon="8.748655">
<ele>327.5</ele>
<speed>43.6</speed>
<course>206.5</course>
<desc>Speed 43.6 km/h Distance 145 km</desc>
<time>2011-03-24T17:41:55.58</time>
<name>6929</name>
</trkpt>
<trkpt lat="49.364590" lon="8.748578">
<ele>328.0</ele>
<speed>42.7</speed>
<course>202.1</course>
<desc>Speed 42.7 km/h Distance 145 km</desc>
<time>2011-03-24T17:41:56.57</time>
<name>6930</name>
</trkpt>
<trkpt lat="49.364488" lon="8.748515">
<ele>330.5</ele>
<speed>42.0</speed>
<course>201.2</course>
<desc>Speed 42.0 km/h Distance 145 km</desc>
<time>2011-03-24T17:41:57.57</time>
<name>6931</name>
</trkpt>
<trkpt lat="49.364418" lon="8.748473">
<ele>331.0</ele>
<speed>28.0</speed>
<course>191.9</course>
<desc>Speed 28.0 km/h Distance 145 km</desc>
<time>2011-03-24T17:41:58.57</time>
<name>6932</name>
</trkpt>
<trkpt lat="49.364367" lon="8.748457">
<ele>331.0</ele>
<speed>19.5</speed>
<course>197.5</course>
<desc>Speed 19.5 km/h Distance 145 km</desc>
<time>2011-03-24T17:41:59.57</time>
<name>6933</name>
</trkpt>
<trkpt lat="49.364318" lon="8.748433">
<ele>332.0</ele>
<speed>19.5</speed>
<course>209.4</course>
<desc>Speed 19.5 km/h Distance 145 km</desc>
<time>2011-03-24T17:42:00.56</time>
<name>6934</name>
</trkpt>
<trkpt lat="49.364293" lon="8.748412">
<ele>333.5</ele>
<speed>10.0</speed>
<course>190.2</course>
<desc>Speed 10.0 km/h Distance 145 km</desc>
<time>2011-03-24T17:42:01.57</time>
<name>6935</name>
</trkpt>
<trkpt lat="49.364263" lon="8.748403">
<ele>334.5</ele>
<speed>11.1</speed>
<course>189.2</course>
<desc>Speed 11.1 km/h Distance 145 km</desc>
<time>2011-03-24T17:42:02.57</time>
<name>6936</name>
</trkpt>
<trkpt lat="49.364210" lon="8.748390">
<ele>334.5</ele>
<speed>21.7</speed>
<course>205.8</course>
<desc>Speed 21.7 km/h Distance 145 km</desc>
<time>2011-03-24T17:42:03.57</time>
<name>6937</name>
</trkpt>
<trkpt lat="49.364158" lon="8.748352">
<ele>335.0</ele>
<speed>22.2</speed>
<course>209.6</course>
<desc>Speed 22.2 km/h Distance 145 km</desc>
<time>2011-03-24T17:42:04.56</time>
<name>6938</name>
</trkpt>
<trkpt lat="49.364107" lon="8.748307">
<ele>335.5</ele>
<speed>23.3</speed>
<course>202.4</course>
<desc>Speed 23.3 km/h Distance 145 km</desc>
<time>2011-03-24T17:42:05.56</time>
<name>6939</name>
</trkpt>
<trkpt lat="49.364057" lon="8.748275">
<ele>336.0</ele>
<speed>20.7</speed>
<course>204.5</course>
<desc>Speed 20.7 km/h Distance 145 km</desc>
<time>2011-03-24T17:42:06.57</time>
<name>6940</name>
</trkpt>
<trkpt lat="49.364040" lon="8.748263">
<ele>334.5</ele>
<speed>6.7</speed>
<course>206.6</course>
<desc>Speed 6.7 km/h Distance 145 km</desc>
<time>2011-03-24T17:42:07.56</time>
<name>6941</name>
</trkpt>
<trkpt lat="49.364018" lon="8.748247">
<ele>335.0</ele>
<speed>9.4</speed>
<course>216.4</course>
<desc>Speed 9.4 km/h Distance 145 km</desc>
<time>2011-03-24T17:42:08.57</time>
<name>6942</name>
</trkpt>
<trkpt lat="49.363993" lon="8.748218">
<ele>335.5</ele>
<speed>12.3</speed>
<course>196.0</course>
<desc>Speed 12.3 km/h Distance 145 km</desc>
<time>2011-03-24T17:42:09.57</time>
<name>6943</name>
</trkpt>
<trkpt lat="49.363937" lon="8.748193">
<ele>335.5</ele>
<speed>23.1</speed>
<course>213.7</course>
<desc>Speed 23.1 km/h Distance 145 km</desc>
<time>2011-03-24T17:42:10.56</time>
<name>6944</name>
</trkpt>
<trkpt lat="49.363868" lon="8.748123">
<ele>336.0</ele>
<speed>32.0</speed>
<course>211.6</course>
<desc>Speed 32.0 km/h Distance 145 km</desc>
<time>2011-03-24T17:42:11.56</time>
<name>6945</name>
</trkpt>
<trkpt lat="49.363662" lon="8.747928">
<ele>337.5</ele>
<speed>48.7</speed>
<course>212.1</course>
<desc>Speed 48.7 km/h Distance 145 km</desc>
<time>2011-03-24T17:42:13.57</time>
<name>6946</name>
</trkpt>
<trkpt lat="49.363400" lon="8.747677">
<ele>340.5</ele>
<speed>60.4</speed>
<course>227.1</course>
<desc>Speed 60.4 km/h Distance 145 km</desc>
<time>2011-03-24T17:42:15.56</time>
<name>6947</name>
</trkpt>
<trkpt lat="49.363318" lon="8.747542">
<ele>341.5</ele>
<speed>48.9</speed>
<course>230.8</course>
<desc>Speed 48.9 km/h Distance 145 km</desc>
<time>2011-03-24T17:42:16.56</time>
<name>6948</name>
</trkpt>
<trkpt lat="49.363100" lon="8.747130">
<ele>342.0</ele>
<speed>69.6</speed>
<course>252.9</course>
<desc>Speed 69.6 km/h Distance 145 km</desc>
<time>2011-03-24T17:42:18.57</time>
<name>6949</name>
</trkpt>
<trkpt lat="49.363050" lon="8.746880">
<ele>342.0</ele>
<speed>69.6</speed>
<course>251.7</course>
<desc>Speed 69.6 km/h Distance 145 km</desc>
<time>2011-03-24T17:42:19.57</time>
<name>6950</name>
</trkpt>
<trkpt lat="49.362995" lon="8.746625">
<ele>342.0</ele>
<speed>70.5</speed>
<course>257.6</course>
<desc>Speed 70.5 km/h Distance 145 km</desc>
<time>2011-03-24T17:42:20.57</time>
<name>6951</name>
</trkpt>
<trkpt lat="49.362957" lon="8.746357">
<ele>342.0</ele>
<speed>71.9</speed>
<course>251.3</course>
<desc>Speed 71.9 km/h Distance 145 km</desc>
<time>2011-03-24T17:42:21.57</time>
<name>6952</name>
</trkpt>
<trkpt lat="49.362820" lon="8.745735">
<ele>343.0</ele>
<speed>82.4</speed>
<course>254.7</course>
<desc>Speed 82.4 km/h Distance 145 km</desc>
<time>2011-03-24T17:42:23.57</time>
<name>6953</name>
</trkpt>
<trkpt lat="49.362767" lon="8.745435">
<ele>344.0</ele>
<speed>82.4</speed>
<course>254.0</course>
<desc>Speed 82.4 km/h Distance 145 km</desc>
<time>2011-03-24T17:42:24.57</time>
<name>6954</name>
</trkpt>
<trkpt lat="49.362712" lon="8.745140">
<ele>344.5</ele>
<speed>81.5</speed>
<course>250.0</course>
<desc>Speed 81.5 km/h Distance 145 km</desc>
<time>2011-03-24T17:42:25.57</time>
<name>6955</name>
</trkpt>
<trkpt lat="49.362643" lon="8.744852">
<ele>346.0</ele>
<speed>80.7</speed>
<course>251.0</course>
<desc>Speed 80.7 km/h Distance 145 km</desc>
<time>2011-03-24T17:42:26.57</time>
<name>6956</name>
</trkpt>
<trkpt lat="49.362582" lon="8.744577">
<ele>347.0</ele>
<speed>75.9</speed>
<course>256.1</course>
<desc>Speed 75.9 km/h Distance 145 km</desc>
<time>2011-03-24T17:42:27.57</time>
<name>6957</name>
</trkpt>
<trkpt lat="49.362512" lon="8.744142">
<ele>347.0</ele>
<speed>57.2</speed>
<course>254.9</course>
<desc>Speed 57.2 km/h Distance 145 km</desc>
<time>2011-03-24T17:42:29.57</time>
<name>6958</name>
</trkpt>
<trkpt lat="49.362478" lon="8.743952">
<ele>347.5</ele>
<speed>51.0</speed>
<course>237.5</course>
<desc>Speed 51.0 km/h Distance 145 km</desc>
<time>2011-03-24T17:42:30.56</time>
<name>6959</name>
</trkpt>
<trkpt lat="49.362413" lon="8.743795">
<ele>348.0</ele>
<speed>48.6</speed>
<course>250.8</course>
<desc>Speed 48.6 km/h Distance 145 km</desc>
<time>2011-03-24T17:42:31.57</time>
<name>6960</name>
</trkpt>
<trkpt lat="49.362360" lon="8.743560">
<ele>348.0</ele>
<speed>32.7</speed>
<course>279.2</course>
<desc>Speed 32.7 km/h Distance 145 km</desc>
<time>2011-03-24T17:42:33.57</time>
<name>6961</name>
</trkpt>
<trkpt lat="49.362372" lon="8.743450">
<ele>348.0</ele>
<speed>28.9</speed>
<course>273.8</course>
<desc>Speed 28.9 km/h Distance 145 km</desc>
<time>2011-03-24T17:42:34.57</time>
<name>6962</name>
</trkpt>
<trkpt lat="49.362377" lon="8.743333">
<ele>349.5</ele>
<speed>30.2</speed>
<course>256.4</course>
<desc>Speed 30.2 km/h Distance 145 km</desc>
<time>2011-03-24T17:42:35.57</time>
<name>6963</name>
</trkpt>
<trkpt lat="49.362357" lon="8.743207">
<ele>351.5</ele>
<speed>33.0</speed>
<course>229.0</course>
<desc>Speed 33.0 km/h Distance 145 km</desc>
<time>2011-03-24T17:42:36.56</time>
<name>6964</name>
</trkpt>
<trkpt lat="49.362292" lon="8.743092">
<ele>352.0</ele>
<speed>37.4</speed>
<course>229.2</course>
<desc>Speed 37.4 km/h Distance 146 km</desc>
<time>2011-03-24T17:42:37.55</time>
<name>6965</name>
</trkpt>
<trkpt lat="49.362223" lon="8.742970">
<ele>352.5</ele>
<speed>41.5</speed>
<course>238.1</course>
<desc>Speed 41.5 km/h Distance 146 km</desc>
<time>2011-03-24T17:42:38.56</time>
<name>6966</name>
</trkpt>
<trkpt lat="49.362053" lon="8.742550">
<ele>354.5</ele>
<speed>68.4</speed>
<course>242.3</course>
<desc>Speed 68.4 km/h Distance 146 km</desc>
<time>2011-03-24T17:42:40.55</time>
<name>6967</name>
</trkpt>
<trkpt lat="49.361970" lon="8.742307">
<ele>355.5</ele>
<speed>70.2</speed>
<course>245.1</course>
<desc>Speed 70.2 km/h Distance 146 km</desc>
<time>2011-03-24T17:42:41.56</time>
<name>6968</name>
</trkpt>
<trkpt lat="49.361890" lon="8.742042">
<ele>356.5</ele>
<speed>76.4</speed>
<course>248.4</course>
<desc>Speed 76.4 km/h Distance 146 km</desc>
<time>2011-03-24T17:42:42.56</time>
<name>6969</name>
</trkpt>
<trkpt lat="49.361820" lon="8.741770">
<ele>356.5</ele>
<speed>76.4</speed>
<course>250.0</course>
<desc>Speed 76.4 km/h Distance 146 km</desc>
<time>2011-03-24T17:42:43.56</time>
<name>6970</name>
</trkpt>
<trkpt lat="49.361750" lon="8.741475">
<ele>356.5</ele>
<speed>81.9</speed>
<course>256.7</course>
<desc>Speed 81.9 km/h Distance 146 km</desc>
<time>2011-03-24T17:42:44.56</time>
<name>6971</name>
</trkpt>
<trkpt lat="49.361700" lon="8.741150">
<ele>358.0</ele>
<speed>86.6</speed>
<course>257.3</course>
<desc>Speed 86.6 km/h Distance 146 km</desc>
<time>2011-03-24T17:42:45.55</time>
<name>6972</name>
</trkpt>
<trkpt lat="49.361653" lon="8.740832">
<ele>358.5</ele>
<speed>83.6</speed>
<course>258.4</course>
<desc>Speed 83.6 km/h Distance 146 km</desc>
<time>2011-03-24T17:42:46.55</time>
<name>6973</name>
</trkpt>
<trkpt lat="49.361612" lon="8.740520">
<ele>358.5</ele>
<speed>81.2</speed>
<course>261.1</course>
<desc>Speed 81.2 km/h Distance 146 km</desc>
<time>2011-03-24T17:42:47.56</time>
<name>6974</name>
</trkpt>
<trkpt lat="49.361582" lon="8.740225">
<ele>358.0</ele>
<speed>78.0</speed>
<course>260.2</course>
<desc>Speed 78.0 km/h Distance 146 km</desc>
<time>2011-03-24T17:42:48.55</time>
<name>6975</name>
</trkpt>
<trkpt lat="49.361550" lon="8.739943">
<ele>357.5</ele>
<speed>74.5</speed>
<course>260.1</course>
<desc>Speed 74.5 km/h Distance 146 km</desc>
<time>2011-03-24T17:42:49.56</time>
<name>6976</name>
</trkpt>
<trkpt lat="49.361520" lon="8.739678">
<ele>357.5</ele>
<speed>70.2</speed>
<course>252.7</course>
<desc>Speed 70.2 km/h Distance 146 km</desc>
<time>2011-03-24T17:42:50.55</time>
<name>6977</name>
</trkpt>
<trkpt lat="49.361470" lon="8.739432">
<ele>357.5</ele>
<speed>67.2</speed>
<course>246.1</course>
<desc>Speed 67.2 km/h Distance 146 km</desc>
<time>2011-03-24T17:42:51.55</time>
<name>6978</name>
</trkpt>
<trkpt lat="49.361412" lon="8.739230">
<ele>357.5</ele>
<speed>57.1</speed>
<course>237.8</course>
<desc>Speed 57.1 km/h Distance 146 km</desc>
<time>2011-03-24T17:42:52.55</time>
<name>6979</name>
</trkpt>
<trkpt lat="49.361332" lon="8.739035">
<ele>357.5</ele>
<speed>59.9</speed>
<course>231.5</course>
<desc>Speed 59.9 km/h Distance 146 km</desc>
<time>2011-03-24T17:42:53.56</time>
<name>6980</name>
</trkpt>
<trkpt lat="49.361233" lon="8.738845">
<ele>357.5</ele>
<speed>63.1</speed>
<course>216.7</course>
<desc>Speed 63.1 km/h Distance 146 km</desc>
<time>2011-03-24T17:42:54.56</time>
<name>6981</name>
</trkpt>
<trkpt lat="49.361118" lon="8.738713">
<ele>357.5</ele>
<speed>57.7</speed>
<course>206.7</course>
<desc>Speed 57.7 km/h Distance 146 km</desc>
<time>2011-03-24T17:42:55.56</time>
<name>6982</name>
</trkpt>
<trkpt lat="49.361008" lon="8.738628">
<ele>357.5</ele>
<speed>50.2</speed>
<course>190.1</course>
<desc>Speed 50.2 km/h Distance 146 km</desc>
<time>2011-03-24T17:42:56.55</time>
<name>6983</name>
</trkpt>
<trkpt lat="49.360862" lon="8.738588">
<ele>357.5</ele>
<speed>59.5</speed>
<course>178.5</course>
<desc>Speed 59.5 km/h Distance 146 km</desc>
<time>2011-03-24T17:42:57.56</time>
<name>6984</name>
</trkpt>
<trkpt lat="49.360735" lon="8.738593">
<ele>358.0</ele>
<speed>50.4</speed>
<course>175.9</course>
<desc>Speed 50.4 km/h Distance 146 km</desc>
<time>2011-03-24T17:42:58.56</time>
<name>6985</name>
</trkpt>
<trkpt lat="49.360613" lon="8.738607">
<ele>358.0</ele>
<speed>48.8</speed>
<course>162.1</course>
<desc>Speed 48.8 km/h Distance 146 km</desc>
<time>2011-03-24T17:42:59.93</time>
<name>6986</name>
</trkpt>
<trkpt lat="49.360368" lon="8.738728">
<ele>355.5</ele>
<speed>54.3</speed>
<course>162.8</course>
<desc>Speed 54.3 km/h Distance 146 km</desc>
<time>2011-03-24T17:43:01.56</time>
<name>6987</name>
</trkpt>
<trkpt lat="49.360232" lon="8.738793">
<ele>355.0</ele>
<speed>57.4</speed>
<course>164.3</course>
<desc>Speed 57.4 km/h Distance 146 km</desc>
<time>2011-03-24T17:43:02.55</time>
<name>6988</name>
</trkpt>
<trkpt lat="49.360088" lon="8.738855">
<ele>354.0</ele>
<speed>58.9</speed>
<course>167.4</course>
<desc>Speed 58.9 km/h Distance 146 km</desc>
<time>2011-03-24T17:43:03.55</time>
<name>6989</name>
</trkpt>
<trkpt lat="49.359938" lon="8.738907">
<ele>354.0</ele>
<speed>61.2</speed>
<course>171.6</course>
<desc>Speed 61.2 km/h Distance 146 km</desc>
<time>2011-03-24T17:43:04.55</time>
<name>6990</name>
</trkpt>
<trkpt lat="49.359783" lon="8.738942">
<ele>353.5</ele>
<speed>62.7</speed>
<course>176.2</course>
<desc>Speed 62.7 km/h Distance 146 km</desc>
<time>2011-03-24T17:43:05.55</time>
<name>6991</name>
</trkpt>
<trkpt lat="49.359622" lon="8.738958">
<ele>353.5</ele>
<speed>63.6</speed>
<course>184.7</course>
<desc>Speed 63.6 km/h Distance 146 km</desc>
<time>2011-03-24T17:43:06.54</time>
<name>6992</name>
</trkpt>
<trkpt lat="49.359450" lon="8.738937">
<ele>353.5</ele>
<speed>67.5</speed>
<course>188.9</course>
<desc>Speed 67.5 km/h Distance 146 km</desc>
<time>2011-03-24T17:43:07.55</time>
<name>6993</name>
</trkpt>
<trkpt lat="49.359270" lon="8.738893">
<ele>353.0</ele>
<speed>71.7</speed>
<course>194.0</course>
<desc>Speed 71.7 km/h Distance 146 km</desc>
<time>2011-03-24T17:43:08.54</time>
<name>6994</name>
</trkpt>
<trkpt lat="49.359087" lon="8.738823">
<ele>355.0</ele>
<speed>73.7</speed>
<course>197.9</course>
<desc>Speed 73.7 km/h Distance 146 km</desc>
<time>2011-03-24T17:43:09.54</time>
<name>6995</name>
</trkpt>
<trkpt lat="49.358918" lon="8.738740">
<ele>354.5</ele>
<speed>70.9</speed>
<course>199.3</course>
<desc>Speed 70.9 km/h Distance 146 km</desc>
<time>2011-03-24T17:43:10.55</time>
<name>6996</name>
</trkpt>
<trkpt lat="49.358745" lon="8.738647">
<ele>354.0</ele>
<speed>72.9</speed>
<course>201.5</course>
<desc>Speed 72.9 km/h Distance 146 km</desc>
<time>2011-03-24T17:43:11.56</time>
<name>6997</name>
</trkpt>
<trkpt lat="49.358568" lon="8.738540">
<ele>353.5</ele>
<speed>75.6</speed>
<course>202.3</course>
<desc>Speed 75.6 km/h Distance 146 km</desc>
<time>2011-03-24T17:43:12.54</time>
<name>6998</name>
</trkpt>
<trkpt lat="49.358383" lon="8.738423">
<ele>352.5</ele>
<speed>79.6</speed>
<course>204.2</course>
<desc>Speed 79.6 km/h Distance 146 km</desc>
<time>2011-03-24T17:43:13.54</time>
<name>6999</name>
</trkpt>
<trkpt lat="49.358200" lon="8.738297">
<ele>351.5</ele>
<speed>80.8</speed>
<course>207.2</course>
<desc>Speed 80.8 km/h Distance 146 km</desc>
<time>2011-03-24T17:43:14.54</time>
<name>7000</name>
</trkpt>
<trkpt lat="49.358018" lon="8.738153">
<ele>351.0</ele>
<speed>81.4</speed>
<course>211.6</course>
<desc>Speed 81.4 km/h Distance 146 km</desc>
<time>2011-03-24T17:43:15.54</time>
<name>7001</name>
</trkpt>
<trkpt lat="49.357843" lon="8.737988">
<ele>350.5</ele>
<speed>82.0</speed>
<course>215.4</course>
<desc>Speed 82.0 km/h Distance 146 km</desc>
<time>2011-03-24T17:43:16.53</time>
<name>7002</name>
</trkpt>
<trkpt lat="49.357678" lon="8.737808">
<ele>349.5</ele>
<speed>80.9</speed>
<course>219.2</course>
<desc>Speed 80.9 km/h Distance 146 km</desc>
<time>2011-03-24T17:43:17.54</time>
<name>7003</name>
</trkpt>
<trkpt lat="49.357520" lon="8.737610">
<ele>350.0</ele>
<speed>81.9</speed>
<course>220.1</course>
<desc>Speed 81.9 km/h Distance 146 km</desc>
<time>2011-03-24T17:43:18.53</time>
<name>7004</name>
</trkpt>
<trkpt lat="49.357362" lon="8.737405">
<ele>350.0</ele>
<speed>82.8</speed>
<course>220.2</course>
<desc>Speed 82.8 km/h Distance 146 km</desc>
<time>2011-03-24T17:43:19.54</time>
<name>7005</name>
</trkpt>
<trkpt lat="49.357193" lon="8.737187">
<ele>350.0</ele>
<speed>87.6</speed>
<course>221.9</course>
<desc>Speed 87.6 km/h Distance 146 km</desc>
<time>2011-03-24T17:43:20.54</time>
<name>7006</name>
</trkpt>
<trkpt lat="49.357025" lon="8.736955">
<ele>351.0</ele>
<speed>90.1</speed>
<course>222.8</course>
<desc>Speed 90.1 km/h Distance 146 km</desc>
<time>2011-03-24T17:43:21.54</time>
<name>7007</name>
</trkpt>
<trkpt lat="49.356870" lon="8.736735">
<ele>351.0</ele>
<speed>84.6</speed>
<course>226.4</course>
<desc>Speed 84.6 km/h Distance 146 km</desc>
<time>2011-03-24T17:43:22.53</time>
<name>7008</name>
</trkpt>
<trkpt lat="49.356737" lon="8.736520">
<ele>352.0</ele>
<speed>77.7</speed>
<course>225.5</course>
<desc>Speed 77.7 km/h Distance 146 km</desc>
<time>2011-03-24T17:43:23.54</time>
<name>7009</name>
</trkpt>
<trkpt lat="49.356607" lon="8.736317">
<ele>352.5</ele>
<speed>74.2</speed>
<course>224.5</course>
<desc>Speed 74.2 km/h Distance 146 km</desc>
<time>2011-03-24T17:43:24.53</time>
<name>7010</name>
</trkpt>
<trkpt lat="49.356475" lon="8.736118">
<ele>353.0</ele>
<speed>74.1</speed>
<course>223.1</course>
<desc>Speed 74.1 km/h Distance 146 km</desc>
<time>2011-03-24T17:43:25.53</time>
<name>7011</name>
</trkpt>
<trkpt lat="49.356342" lon="8.735927">
<ele>353.5</ele>
<speed>72.8</speed>
<course>224.3</course>
<desc>Speed 72.8 km/h Distance 146 km</desc>
<time>2011-03-24T17:43:26.54</time>
<name>7012</name>
</trkpt>
<trkpt lat="49.356225" lon="8.735752">
<ele>354.0</ele>
<speed>65.5</speed>
<course>222.7</course>
<desc>Speed 65.5 km/h Distance 146 km</desc>
<time>2011-03-24T17:43:27.53</time>
<name>7013</name>
</trkpt>
<trkpt lat="49.356105" lon="8.735582">
<ele>354.5</ele>
<speed>64.0</speed>
<course>227.1</course>
<desc>Speed 64.0 km/h Distance 147 km</desc>
<time>2011-03-24T17:43:28.53</time>
<name>7014</name>
</trkpt>
<trkpt lat="49.355995" lon="8.735400">
<ele>355.0</ele>
<speed>64.8</speed>
<course>230.0</course>
<desc>Speed 64.8 km/h Distance 147 km</desc>
<time>2011-03-24T17:43:29.53</time>
<name>7015</name>
</trkpt>
<trkpt lat="49.355887" lon="8.735202">
<ele>355.0</ele>
<speed>67.3</speed>
<course>238.2</course>
<desc>Speed 67.3 km/h Distance 147 km</desc>
<time>2011-03-24T17:43:30.53</time>
<name>7016</name>
</trkpt>
<trkpt lat="49.355800" lon="8.734987">
<ele>356.0</ele>
<speed>65.7</speed>
<course>234.6</course>
<desc>Speed 65.7 km/h Distance 147 km</desc>
<time>2011-03-24T17:43:31.53</time>
<name>7017</name>
</trkpt>
<trkpt lat="49.355697" lon="8.734763">
<ele>357.5</ele>
<speed>72.1</speed>
<course>245.8</course>
<desc>Speed 72.1 km/h Distance 147 km</desc>
<time>2011-03-24T17:43:32.52</time>
<name>7018</name>
</trkpt>
<trkpt lat="49.355625" lon="8.734518">
<ele>359.0</ele>
<speed>69.6</speed>
<course>253.0</course>
<desc>Speed 69.6 km/h Distance 147 km</desc>
<time>2011-03-24T17:43:33.52</time>
<name>7019</name>
</trkpt>
<trkpt lat="49.355575" lon="8.734267">
<ele>359.0</ele>
<speed>68.5</speed>
<course>255.6</course>
<desc>Speed 68.5 km/h Distance 147 km</desc>
<time>2011-03-24T17:43:34.52</time>
<name>7020</name>
</trkpt>
<trkpt lat="49.355532" lon="8.734007">
<ele>360.5</ele>
<speed>69.6</speed>
<course>261.3</course>
<desc>Speed 69.6 km/h Distance 147 km</desc>
<time>2011-03-24T17:43:35.52</time>
<name>7021</name>
</trkpt>
<trkpt lat="49.355505" lon="8.733740">
<ele>361.5</ele>
<speed>70.4</speed>
<course>264.1</course>
<desc>Speed 70.4 km/h Distance 147 km</desc>
<time>2011-03-24T17:43:36.52</time>
<name>7022</name>
</trkpt>
<trkpt lat="49.355487" lon="8.733468">
<ele>363.0</ele>
<speed>71.8</speed>
<course>264.6</course>
<desc>Speed 71.8 km/h Distance 147 km</desc>
<time>2011-03-24T17:43:37.52</time>
<name>7023</name>
</trkpt>
<trkpt lat="49.355470" lon="8.733198">
<ele>364.5</ele>
<speed>70.5</speed>
<course>265.0</course>
<desc>Speed 70.5 km/h Distance 147 km</desc>
<time>2011-03-24T17:43:38.52</time>
<name>7024</name>
</trkpt>
<trkpt lat="49.355455" lon="8.732933">
<ele>365.5</ele>
<speed>69.8</speed>
<course>263.0</course>
<desc>Speed 69.8 km/h Distance 147 km</desc>
<time>2011-03-24T17:43:39.52</time>
<name>7025</name>
</trkpt>
<trkpt lat="49.355415" lon="8.732433">
<ele>365.0</ele>
<speed>63.3</speed>
<course>254.0</course>
<desc>Speed 63.3 km/h Distance 147 km</desc>
<time>2011-03-24T17:43:41.52</time>
<name>7026</name>
</trkpt>
<trkpt lat="49.355323" lon="8.731942">
<ele>366.0</ele>
<speed>66.7</speed>
<course>246.0</course>
<desc>Speed 66.7 km/h Distance 147 km</desc>
<time>2011-03-24T17:43:43.52</time>
<name>7027</name>
</trkpt>
<trkpt lat="49.355187" lon="8.731470">
<ele>365.0</ele>
<speed>65.1</speed>
<course>243.3</course>
<desc>Speed 65.1 km/h Distance 147 km</desc>
<time>2011-03-24T17:43:45.52</time>
<name>7028</name>
</trkpt>
<trkpt lat="49.355042" lon="8.731028">
<ele>365.0</ele>
<speed>64.8</speed>
<course>241.5</course>
<desc>Speed 64.8 km/h Distance 147 km</desc>
<time>2011-03-24T17:43:47.52</time>
<name>7029</name>
</trkpt>
<trkpt lat="49.354882" lon="8.730577">
<ele>364.5</ele>
<speed>68.4</speed>
<course>241.6</course>
<desc>Speed 68.4 km/h Distance 147 km</desc>
<time>2011-03-24T17:43:49.53</time>
<name>7030</name>
</trkpt>
<trkpt lat="49.354697" lon="8.730052">
<ele>363.5</ele>
<speed>81.8</speed>
<course>240.5</course>
<desc>Speed 81.8 km/h Distance 147 km</desc>
<time>2011-03-24T17:43:51.52</time>
<name>7031</name>
</trkpt>
<trkpt lat="49.354470" lon="8.729437">
<ele>362.0</ele>
<speed>101</speed>
<course>244.3</course>
<desc>Speed 101 km/h Distance 147 km</desc>
<time>2011-03-24T17:43:53.52</time>
<name>7032</name>
</trkpt>
<trkpt lat="49.354245" lon="8.728718">
<ele>361.0</ele>
<speed>104</speed>
<course>243.9</course>
<desc>Speed 104 km/h Distance 147 km</desc>
<time>2011-03-24T17:43:55.52</time>
<name>7033</name>
</trkpt>
<trkpt lat="49.354042" lon="8.728080">
<ele>362.0</ele>
<speed>86.3</speed>
<course>248.4</course>
<desc>Speed 86.3 km/h Distance 147 km</desc>
<time>2011-03-24T17:43:57.52</time>
<name>7034</name>
</trkpt>
<trkpt lat="49.353883" lon="8.727467">
<ele>362.0</ele>
<speed>84.9</speed>
<course>258.9</course>
<desc>Speed 84.9 km/h Distance 147 km</desc>
<time>2011-03-24T17:43:59.52</time>
<name>7035</name>
</trkpt>
<trkpt lat="49.353802" lon="8.726830">
<ele>362.0</ele>
<speed>83.8</speed>
<course>273.4</course>
<desc>Speed 83.8 km/h Distance 147 km</desc>
<time>2011-03-24T17:44:01.50</time>
<name>7036</name>
</trkpt>
<trkpt lat="49.353827" lon="8.726193">
<ele>361.5</ele>
<speed>85.9</speed>
<course>280.5</course>
<desc>Speed 85.9 km/h Distance 147 km</desc>
<time>2011-03-24T17:44:03.52</time>
<name>7037</name>
</trkpt>
<trkpt lat="49.353907" lon="8.725528">
<ele>361.0</ele>
<speed>89.7</speed>
<course>276.4</course>
<desc>Speed 89.7 km/h Distance 147 km</desc>
<time>2011-03-24T17:44:05.51</time>
<name>7038</name>
</trkpt>
<trkpt lat="49.353952" lon="8.724915">
<ele>361.5</ele>
<speed>78.2</speed>
<course>277.8</course>
<desc>Speed 78.2 km/h Distance 147 km</desc>
<time>2011-03-24T17:44:07.51</time>
<name>7039</name>
</trkpt>
<trkpt lat="49.353995" lon="8.724428">
<ele>361.5</ele>
<speed>78.2</speed>
<course>262.6</course>
<desc>Speed 78.2 km/h Distance 147 km</desc>
<time>2011-03-24T17:44:09.51</time>
<name>7040</name>
</trkpt>
<trkpt lat="49.353948" lon="8.723878">
<ele>362.0</ele>
<speed>46.8</speed>
<course>264.4</course>
<desc>Speed 46.8 km/h Distance 147 km</desc>
<time>2011-03-24T17:44:12.50</time>
<name>7041</name>
</trkpt>
<trkpt lat="49.353925" lon="8.723513">
<ele>361.0</ele>
<speed>47.4</speed>
<course>259.2</course>
<desc>Speed 47.4 km/h Distance 147 km</desc>
<time>2011-03-24T17:44:14.51</time>
<name>7042</name>
</trkpt>
<trkpt lat="49.353878" lon="8.723137">
<ele>361.0</ele>
<speed>50.8</speed>
<course>249.9</course>
<desc>Speed 50.8 km/h Distance 147 km</desc>
<time>2011-03-24T17:44:16.50</time>
<name>7043</name>
</trkpt>
<trkpt lat="49.353785" lon="8.722745">
<ele>361.0</ele>
<speed>56.2</speed>
<course>242.9</course>
<desc>Speed 56.2 km/h Distance 147 km</desc>
<time>2011-03-24T17:44:18.49</time>
<name>7044</name>
</trkpt>
<trkpt lat="49.353660" lon="8.722370">
<ele>361.0</ele>
<speed>54.7</speed>
<course>240.6</course>
<desc>Speed 54.7 km/h Distance 148 km</desc>
<time>2011-03-24T17:44:20.49</time>
<name>7045</name>
</trkpt>
<trkpt lat="49.353533" lon="8.722025">
<ele>360.5</ele>
<speed>53.0</speed>
<course>236.1</course>
<desc>Speed 53.0 km/h Distance 148 km</desc>
<time>2011-03-24T17:44:22.50</time>
<name>7046</name>
</trkpt>
<trkpt lat="49.353385" lon="8.721687">
<ele>360.5</ele>
<speed>55.3</speed>
<course>236.9</course>
<desc>Speed 55.3 km/h Distance 148 km</desc>
<time>2011-03-24T17:44:24.50</time>
<name>7047</name>
</trkpt>
<trkpt lat="49.353228" lon="8.721318">
<ele>360.5</ele>
<speed>60.2</speed>
<course>238.7</course>
<desc>Speed 60.2 km/h Distance 148 km</desc>
<time>2011-03-24T17:44:26.49</time>
<name>7048</name>
</trkpt>
<trkpt lat="49.353048" lon="8.720863">
<ele>359.5</ele>
<speed>77.5</speed>
<course>243.3</course>
<desc>Speed 77.5 km/h Distance 148 km</desc>
<time>2011-03-24T17:44:28.49</time>
<name>7049</name>
</trkpt>
<trkpt lat="49.352905" lon="8.720425">
<ele>359.5</ele>
<speed>62.7</speed>
<course>238.9</course>
<desc>Speed 62.7 km/h Distance 148 km</desc>
<time>2011-03-24T17:44:30.48</time>
<name>7050</name>
</trkpt>
<trkpt lat="49.352750" lon="8.720030">
<ele>358.0</ele>
<speed>62.1</speed>
<course>236.5</course>
<desc>Speed 62.1 km/h Distance 148 km</desc>
<time>2011-03-24T17:44:32.49</time>
<name>7051</name>
</trkpt>
<trkpt lat="49.352587" lon="8.719652">
<ele>356.5</ele>
<speed>59.8</speed>
<course>238.2</course>
<desc>Speed 59.8 km/h Distance 148 km</desc>
<time>2011-03-24T17:44:34.49</time>
<name>7052</name>
</trkpt>
<trkpt lat="49.352443" lon="8.719297">
<ele>355.5</ele>
<speed>54.4</speed>
<course>237.0</course>
<desc>Speed 54.4 km/h Distance 148 km</desc>
<time>2011-03-24T17:44:36.49</time>
<name>7053</name>
</trkpt>
<trkpt lat="49.352293" lon="8.718942">
<ele>354.0</ele>
<speed>55.8</speed>
<course>244.3</course>
<desc>Speed 55.8 km/h Distance 148 km</desc>
<time>2011-03-24T17:44:38.49</time>
<name>7054</name>
</trkpt>
<trkpt lat="49.352190" lon="8.718612">
<ele>354.5</ele>
<speed>55.8</speed>
<course>241.6</course>
<desc>Speed 55.8 km/h Distance 148 km</desc>
<time>2011-03-24T17:44:40.49</time>
<name>7055</name>
</trkpt>
<trkpt lat="49.352077" lon="8.718290">
<ele>355.0</ele>
<speed>60.0</speed>
<course>247.3</course>
<desc>Speed 60.0 km/h Distance 148 km</desc>
<time>2011-03-24T17:44:42.48</time>
<name>7056</name>
</trkpt>
<trkpt lat="49.351980" lon="8.717935">
<ele>355.0</ele>
<speed>48.2</speed>
<course>257.8</course>
<desc>Speed 48.2 km/h Distance 148 km</desc>
<time>2011-03-24T17:44:44.48</time>
<name>7057</name>
</trkpt>
<trkpt lat="49.351927" lon="8.717557">
<ele>354.5</ele>
<speed>50.9</speed>
<course>270.4</course>
<desc>Speed 50.9 km/h Distance 148 km</desc>
<time>2011-03-24T17:44:46.48</time>
<name>7058</name>
</trkpt>
<trkpt lat="49.351928" lon="8.717217">
<ele>354.0</ele>
<speed>50.9</speed>
<course>288.5</course>
<desc>Speed 50.9 km/h Distance 148 km</desc>
<time>2011-03-24T17:44:48.48</time>
<name>7059</name>
</trkpt>
<trkpt lat="49.351993" lon="8.716918">
<ele>353.0</ele>
<speed>53.0</speed>
<course>305.8</course>
<desc>Speed 53.0 km/h Distance 148 km</desc>
<time>2011-03-24T17:44:50.49</time>
<name>7060</name>
</trkpt>
<trkpt lat="49.352148" lon="8.716588">
<ele>352.0</ele>
<speed>53.0</speed>
<course>313.9</course>
<desc>Speed 53.0 km/h Distance 148 km</desc>
<time>2011-03-24T17:44:52.48</time>
<name>7061</name>
</trkpt>
<trkpt lat="49.352345" lon="8.716275">
<ele>351.0</ele>
<speed>53.0</speed>
<course>318.8</course>
<desc>Speed 53.0 km/h Distance 148 km</desc>
<time>2011-03-24T17:44:54.47</time>
<name>7062</name>
</trkpt>
<trkpt lat="49.352500" lon="8.716067">
<ele>349.0</ele>
<speed>53.0</speed>
<course>312.6</course>
<desc>Speed 53.0 km/h Distance 148 km</desc>
<time>2011-03-24T17:44:56.48</time>
<name>7063</name>
</trkpt>
<trkpt lat="49.352595" lon="8.715908">
<ele>347.5</ele>
<speed>53.0</speed>
<course>300.3</course>
<desc>Speed 53.0 km/h Distance 148 km</desc>
<time>2011-03-24T17:44:58.47</time>
<name>7064</name>
</trkpt>
<trkpt lat="49.352690" lon="8.715658">
<ele>347.5</ele>
<speed>53.0</speed>
<course>294.2</course>
<desc>Speed 53.0 km/h Distance 148 km</desc>
<time>2011-03-24T17:45:01.47</time>
<name>7065</name>
</trkpt>
<trkpt lat="49.352733" lon="8.715510">
<ele>348.5</ele>
<speed>53.0</speed>
<course>305.4</course>
<desc>Speed 53.0 km/h Distance 148 km</desc>
<time>2011-03-24T17:45:04.48</time>
<name>7066</name>
</trkpt>
<trkpt lat="49.352953" lon="8.715035">
<ele>346.5</ele>
<speed>48.9</speed>
<course>297.7</course>
<desc>Speed 48.9 km/h Distance 148 km</desc>
<time>2011-03-24T17:45:06.47</time>
<name>7067</name>
</trkpt>
<trkpt lat="49.353103" lon="8.714597">
<ele>348.0</ele>
<speed>51.6</speed>
<course>297.4</course>
<desc>Speed 51.6 km/h Distance 148 km</desc>
<time>2011-03-24T17:45:08.47</time>
<name>7068</name>
</trkpt>
<trkpt lat="49.353400" lon="8.713717">
<ele>347.5</ele>
<speed>53.1</speed>
<course>287.9</course>
<desc>Speed 53.1 km/h Distance 148 km</desc>
<time>2011-03-24T17:45:11.56</time>
<name>7069</name>
</trkpt>
<trkpt lat="49.353577" lon="8.712875">
<ele>344.5</ele>
<speed>58.2</speed>
<course>281.9</course>
<desc>Speed 58.2 km/h Distance 148 km</desc>
<time>2011-03-24T17:45:14.46</time>
<name>7070</name>
</trkpt>
<trkpt lat="49.353640" lon="8.712413">
<ele>343.5</ele>
<speed>55.6</speed>
<course>279.5</course>
<desc>Speed 55.6 km/h Distance 148 km</desc>
<time>2011-03-24T17:45:16.46</time>
<name>7071</name>
</trkpt>
<trkpt lat="49.353692" lon="8.711942">
<ele>343.5</ele>
<speed>56.8</speed>
<course>279.4</course>
<desc>Speed 56.8 km/h Distance 148 km</desc>
<time>2011-03-24T17:45:18.45</time>
<name>7072</name>
</trkpt>
<trkpt lat="49.353740" lon="8.711493">
<ele>342.5</ele>
<speed>58.8</speed>
<course>284.1</course>
<desc>Speed 58.8 km/h Distance 148 km</desc>
<time>2011-03-24T17:45:20.45</time>
<name>7073</name>
</trkpt>
<trkpt lat="49.353817" lon="8.711023">
<ele>343.0</ele>
<speed>60.5</speed>
<course>275.4</course>
<desc>Speed 60.5 km/h Distance 148 km</desc>
<time>2011-03-24T17:45:22.45</time>
<name>7074</name>
</trkpt>
<trkpt lat="49.353845" lon="8.710562">
<ele>343.0</ele>
<speed>59.4</speed>
<course>273.7</course>
<desc>Speed 59.4 km/h Distance 148 km</desc>
<time>2011-03-24T17:45:24.45</time>
<name>7075</name>
</trkpt>
<trkpt lat="49.353862" lon="8.710165">
<ele>342.5</ele>
<speed>59.4</speed>
<course>273.3</course>
<desc>Speed 59.4 km/h Distance 149 km</desc>
<time>2011-03-24T17:45:26.44</time>
<name>7076</name>
</trkpt>
<trkpt lat="49.353872" lon="8.709902">
<ele>342.5</ele>
<speed>59.4</speed>
<course>272.2</course>
<desc>Speed 59.4 km/h Distance 149 km</desc>
<time>2011-03-24T17:45:28.45</time>
<name>7077</name>
</trkpt>
<trkpt lat="49.353880" lon="8.709573">
<ele>342.0</ele>
<speed>59.4</speed>
<course>263.7</course>
<desc>Speed 59.4 km/h Distance 149 km</desc>
<time>2011-03-24T17:45:31.44</time>
<name>7078</name>
</trkpt>
<trkpt lat="49.353858" lon="8.709270">
<ele>340.0</ele>
<speed>39.0</speed>
<course>276.6</course>
<desc>Speed 39.0 km/h Distance 149 km</desc>
<time>2011-03-24T17:45:34.48</time>
<name>7079</name>
</trkpt>
<trkpt lat="49.353892" lon="8.708830">
<ele>340.0</ele>
<speed>39.0</speed>
<course>284.5</course>
<desc>Speed 39.0 km/h Distance 149 km</desc>
<time>2011-03-24T17:45:36.53</time>
<name>7080</name>
</trkpt>
<trkpt lat="49.353940" lon="8.708543">
<ele>338.0</ele>
<speed>39.0</speed>
<course>321.9</course>
<desc>Speed 39.0 km/h Distance 149 km</desc>
<time>2011-03-24T17:45:38.59</time>
<name>7081</name>
</trkpt>
<trkpt lat="49.354160" lon="8.708278">
<ele>332.5</ele>
<speed>47.1</speed>
<course>331.9</course>
<desc>Speed 47.1 km/h Distance 149 km</desc>
<time>2011-03-24T17:45:40.43</time>
<name>7082</name>
</trkpt>
<trkpt lat="49.354365" lon="8.708110">
<ele>330.0</ele>
<speed>41.2</speed>
<course>342.3</course>
<desc>Speed 41.2 km/h Distance 149 km</desc>
<time>2011-03-24T17:45:42.42</time>
<name>7083</name>
</trkpt>
<trkpt lat="49.354613" lon="8.707988">
<ele>327.5</ele>
<speed>46.5</speed>
<course>342.6</course>
<desc>Speed 46.5 km/h Distance 149 km</desc>
<time>2011-03-24T17:45:44.43</time>
<name>7084</name>
</trkpt>
<trkpt lat="49.354877" lon="8.707862">
<ele>327.0</ele>
<speed>54.1</speed>
<course>342.5</course>
<desc>Speed 54.1 km/h Distance 149 km</desc>
<time>2011-03-24T17:45:46.43</time>
<name>7085</name>
</trkpt>
<trkpt lat="49.355167" lon="8.707722">
<ele>325.5</ele>
<speed>52.7</speed>
<course>343.6</course>
<desc>Speed 52.7 km/h Distance 149 km</desc>
<time>2011-03-24T17:45:48.42</time>
<name>7086</name>
</trkpt>
<trkpt lat="49.355465" lon="8.707587">
<ele>320.5</ele>
<speed>43.7</speed>
<course>313.1</course>
<desc>Speed 43.7 km/h Distance 149 km</desc>
<time>2011-03-24T17:45:50.42</time>
<name>7087</name>
</trkpt>
<trkpt lat="49.355668" lon="8.707253">
<ele>319.5</ele>
<speed>50.8</speed>
<course>297.2</course>
<desc>Speed 50.8 km/h Distance 149 km</desc>
<time>2011-03-24T17:45:52.42</time>
<name>7088</name>
</trkpt>
<trkpt lat="49.355777" lon="8.706930">
<ele>320.0</ele>
<speed>45.2</speed>
<course>284.5</course>
<desc>Speed 45.2 km/h Distance 149 km</desc>
<time>2011-03-24T17:45:54.42</time>
<name>7089</name>
</trkpt>
<trkpt lat="49.355830" lon="8.706613">
<ele>319.5</ele>
<speed>40.6</speed>
<course>270.5</course>
<desc>Speed 40.6 km/h Distance 149 km</desc>
<time>2011-03-24T17:45:56.41</time>
<name>7090</name>
</trkpt>
<trkpt lat="49.355832" lon="8.706320">
<ele>318.0</ele>
<speed>38.1</speed>
<course>260.4</course>
<desc>Speed 38.1 km/h Distance 149 km</desc>
<time>2011-03-24T17:45:58.41</time>
<name>7091</name>
</trkpt>
<trkpt lat="49.355798" lon="8.706017">
<ele>317.5</ele>
<speed>41.8</speed>
<course>267.0</course>
<desc>Speed 41.8 km/h Distance 149 km</desc>
<time>2011-03-24T17:46:00.42</time>
<name>7092</name>
</trkpt>
<trkpt lat="49.355787" lon="8.705680">
<ele>315.0</ele>
<speed>43.7</speed>
<course>264.3</course>
<desc>Speed 43.7 km/h Distance 149 km</desc>
<time>2011-03-24T17:46:02.41</time>
<name>7093</name>
</trkpt>
<trkpt lat="49.355765" lon="8.705345">
<ele>310.5</ele>
<speed>45.7</speed>
<course>261.7</course>
<desc>Speed 45.7 km/h Distance 149 km</desc>
<time>2011-03-24T17:46:04.41</time>
<name>7094</name>
</trkpt>
<trkpt lat="49.355735" lon="8.705030">
<ele>307.0</ele>
<speed>43.7</speed>
<course>252.4</course>
<desc>Speed 43.7 km/h Distance 149 km</desc>
<time>2011-03-24T17:46:06.41</time>
<name>7095</name>
</trkpt>
<trkpt lat="49.355705" lon="8.704885">
<ele>305.0</ele>
<speed>41.5</speed>
<course>260.2</course>
<desc>Speed 41.5 km/h Distance 149 km</desc>
<time>2011-03-24T17:46:07.40</time>
<name>7096</name>
</trkpt>
<trkpt lat="49.355688" lon="8.704737">
<ele>304.0</ele>
<speed>43.4</speed>
<course>253.9</course>
<desc>Speed 43.4 km/h Distance 149 km</desc>
<time>2011-03-24T17:46:08.40</time>
<name>7097</name>
</trkpt>
<trkpt lat="49.355657" lon="8.704568">
<ele>302.5</ele>
<speed>43.1</speed>
<course>270.0</course>
<desc>Speed 43.1 km/h Distance 149 km</desc>
<time>2011-03-24T17:46:09.40</time>
<name>7098</name>
</trkpt>
<trkpt lat="49.355657" lon="8.704402">
<ele>299.5</ele>
<speed>44.7</speed>
<course>253.8</course>
<desc>Speed 44.7 km/h Distance 149 km</desc>
<time>2011-03-24T17:46:10.40</time>
<name>7099</name>
</trkpt>
<trkpt lat="49.355623" lon="8.704225">
<ele>298.5</ele>
<speed>46.8</speed>
<course>257.9</course>
<desc>Speed 46.8 km/h Distance 149 km</desc>
<time>2011-03-24T17:46:11.41</time>
<name>7100</name>
</trkpt>
<trkpt lat="49.355600" lon="8.704058">
<ele>295.0</ele>
<speed>47.7</speed>
<course>257.9</course>
<desc>Speed 47.7 km/h Distance 149 km</desc>
<time>2011-03-24T17:46:12.40</time>
<name>7101</name>
</trkpt>
<trkpt lat="49.355577" lon="8.703892">
<ele>291.5</ele>
<speed>48.5</speed>
<course>257.9</course>
<desc>Speed 48.5 km/h Distance 149 km</desc>
<time>2011-03-24T17:46:13.40</time>
<name>7102</name>
</trkpt>
<trkpt lat="49.355552" lon="8.703713">
<ele>288.5</ele>
<speed>50.1</speed>
<course>261.7</course>
<desc>Speed 50.1 km/h Distance 149 km</desc>
<time>2011-03-24T17:46:14.40</time>
<name>7103</name>
</trkpt>
<trkpt lat="49.355533" lon="8.703520">
<ele>286.5</ele>
<speed>51.7</speed>
<course>263.4</course>
<desc>Speed 51.7 km/h Distance 149 km</desc>
<time>2011-03-24T17:46:15.41</time>
<name>7104</name>
</trkpt>
<trkpt lat="49.355518" lon="8.703322">
<ele>283.0</ele>
<speed>53.0</speed>
<course>265.8</course>
<desc>Speed 53.0 km/h Distance 149 km</desc>
<time>2011-03-24T17:46:16.40</time>
<name>7105</name>
</trkpt>
<trkpt lat="49.355508" lon="8.703112">
<ele>280.0</ele>
<speed>54.7</speed>
<course>271.4</course>
<desc>Speed 54.7 km/h Distance 149 km</desc>
<time>2011-03-24T17:46:17.39</time>
<name>7106</name>
</trkpt>
<trkpt lat="49.355512" lon="8.702900">
<ele>277.5</ele>
<speed>55.8</speed>
<course>274.1</course>
<desc>Speed 55.8 km/h Distance 149 km</desc>
<time>2011-03-24T17:46:18.41</time>
<name>7107</name>
</trkpt>
<trkpt lat="49.355522" lon="8.702687">
<ele>275.0</ele>
<speed>56.8</speed>
<course>278.0</course>
<desc>Speed 56.8 km/h Distance 149 km</desc>
<time>2011-03-24T17:46:19.39</time>
<name>7108</name>
</trkpt>
<trkpt lat="49.355542" lon="8.702468">
<ele>273.0</ele>
<speed>58.3</speed>
<course>279.7</course>
<desc>Speed 58.3 km/h Distance 149 km</desc>
<time>2011-03-24T17:46:20.40</time>
<name>7109</name>
</trkpt>
<trkpt lat="49.355567" lon="8.702243">
<ele>271.0</ele>
<speed>59.1</speed>
<course>287.9</course>
<desc>Speed 59.1 km/h Distance 149 km</desc>
<time>2011-03-24T17:46:21.39</time>
<name>7110</name>
</trkpt>
<trkpt lat="49.355613" lon="8.702022">
<ele>271.5</ele>
<speed>60.9</speed>
<course>285.0</course>
<desc>Speed 60.9 km/h Distance 149 km</desc>
<time>2011-03-24T17:46:22.41</time>
<name>7111</name>
</trkpt>
<trkpt lat="49.355652" lon="8.701802">
<ele>271.0</ele>
<speed>59.8</speed>
<course>287.3</course>
<desc>Speed 59.8 km/h Distance 149 km</desc>
<time>2011-03-24T17:46:23.39</time>
<name>7112</name>
</trkpt>
<trkpt lat="49.355693" lon="8.701597">
<ele>270.0</ele>
<speed>57.7</speed>
<course>295.6</course>
<desc>Speed 57.7 km/h Distance 149 km</desc>
<time>2011-03-24T17:46:24.40</time>
<name>7113</name>
</trkpt>
<trkpt lat="49.355812" lon="8.701218">
<ele>267.5</ele>
<speed>55.2</speed>
<course>299.6</course>
<desc>Speed 55.2 km/h Distance 149 km</desc>
<time>2011-03-24T17:46:26.41</time>
<name>7114</name>
</trkpt>
<trkpt lat="49.355878" lon="8.701038">
<ele>265.5</ele>
<speed>54.5</speed>
<course>302.0</course>
<desc>Speed 54.5 km/h Distance 149 km</desc>
<time>2011-03-24T17:46:27.39</time>
<name>7115</name>
</trkpt>
<trkpt lat="49.355948" lon="8.700867">
<ele>264.0</ele>
<speed>53.7</speed>
<course>306.1</course>
<desc>Speed 53.7 km/h Distance 149 km</desc>
<time>2011-03-24T17:46:28.47</time>
<name>7116</name>
</trkpt>
<trkpt lat="49.356102" lon="8.700543">
<ele>261.0</ele>
<speed>52.7</speed>
<course>311.3</course>
<desc>Speed 52.7 km/h Distance 149 km</desc>
<time>2011-03-24T17:46:30.53</time>
<name>7117</name>
</trkpt>
<trkpt lat="49.356273" lon="8.700243">
<ele>258.5</ele>
<speed>51.7</speed>
<course>310.5</course>
<desc>Speed 51.7 km/h Distance 149 km</desc>
<time>2011-03-24T17:46:32.39</time>
<name>7118</name>
</trkpt>
<trkpt lat="49.356357" lon="8.700093">
<ele>258.0</ele>
<speed>51.7</speed>
<course>312.7</course>
<desc>Speed 51.7 km/h Distance 149 km</desc>
<time>2011-03-24T17:46:33.38</time>
<name>7119</name>
</trkpt>
<trkpt lat="49.356442" lon="8.699952">
<ele>258.0</ele>
<speed>50.5</speed>
<course>311.3</course>
<desc>Speed 50.5 km/h Distance 149 km</desc>
<time>2011-03-24T17:46:34.39</time>
<name>7120</name>
</trkpt>
<trkpt lat="49.356527" lon="8.699803">
<ele>256.5</ele>
<speed>51.8</speed>
<course>309.0</course>
<desc>Speed 51.8 km/h Distance 149 km</desc>
<time>2011-03-24T17:46:35.39</time>
<name>7121</name>
</trkpt>
<trkpt lat="49.356608" lon="8.699648">
<ele>255.5</ele>
<speed>52.2</speed>
<course>304.4</course>
<desc>Speed 52.2 km/h Distance 149 km</desc>
<time>2011-03-24T17:46:36.39</time>
<name>7122</name>
</trkpt>
<trkpt lat="49.356683" lon="8.699480">
<ele>254.0</ele>
<speed>53.4</speed>
<course>300.2</course>
<desc>Speed 53.4 km/h Distance 149 km</desc>
<time>2011-03-24T17:46:37.38</time>
<name>7123</name>
</trkpt>
<trkpt lat="49.356752" lon="8.699300">
<ele>252.5</ele>
<speed>54.4</speed>
<course>295.2</course>
<desc>Speed 54.4 km/h Distance 149 km</desc>
<time>2011-03-24T17:46:38.38</time>
<name>7124</name>
</trkpt>
<trkpt lat="49.356810" lon="8.699110">
<ele>250.0</ele>
<speed>54.7</speed>
<course>287.3</course>
<desc>Speed 54.7 km/h Distance 150 km</desc>
<time>2011-03-24T17:46:39.38</time>
<name>7125</name>
</trkpt>
<trkpt lat="49.356852" lon="8.698905">
<ele>249.5</ele>
<speed>56.6</speed>
<course>285.1</course>
<desc>Speed 56.6 km/h Distance 150 km</desc>
<time>2011-03-24T17:46:40.39</time>
<name>7126</name>
</trkpt>
<trkpt lat="49.356888" lon="8.698697">
<ele>247.0</ele>
<speed>56.1</speed>
<course>278.9</course>
<desc>Speed 56.1 km/h Distance 150 km</desc>
<time>2011-03-24T17:46:41.38</time>
<name>7127</name>
</trkpt>
<trkpt lat="49.356910" lon="8.698485">
<ele>245.5</ele>
<speed>56.4</speed>
<course>271.3</course>
<desc>Speed 56.4 km/h Distance 150 km</desc>
<time>2011-03-24T17:46:42.38</time>
<name>7128</name>
</trkpt>
<trkpt lat="49.356913" lon="8.698263">
<ele>245.0</ele>
<speed>57.7</speed>
<course>268.0</course>
<desc>Speed 57.7 km/h Distance 150 km</desc>
<time>2011-03-24T17:46:43.38</time>
<name>7129</name>
</trkpt>
<trkpt lat="49.356908" lon="8.698042">
<ele>243.5</ele>
<speed>58.3</speed>
<course>267.4</course>
<desc>Speed 58.3 km/h Distance 150 km</desc>
<time>2011-03-24T17:46:44.39</time>
<name>7130</name>
</trkpt>
<trkpt lat="49.356902" lon="8.697820">
<ele>241.0</ele>
<speed>59.5</speed>
<course>266.6</course>
<desc>Speed 59.5 km/h Distance 150 km</desc>
<time>2011-03-24T17:46:45.38</time>
<name>7131</name>
</trkpt>
<trkpt lat="49.356893" lon="8.697602">
<ele>239.0</ele>
<speed>57.9</speed>
<course>267.3</course>
<desc>Speed 57.9 km/h Distance 150 km</desc>
<time>2011-03-24T17:46:46.38</time>
<name>7132</name>
</trkpt>
<trkpt lat="49.356887" lon="8.697385">
<ele>237.5</ele>
<speed>57.1</speed>
<course>270.0</course>
<desc>Speed 57.1 km/h Distance 150 km</desc>
<time>2011-03-24T17:46:47.38</time>
<name>7133</name>
</trkpt>
<trkpt lat="49.356887" lon="8.697178">
<ele>236.0</ele>
<speed>54.4</speed>
<course>270.8</course>
<desc>Speed 54.4 km/h Distance 150 km</desc>
<time>2011-03-24T17:46:48.39</time>
<name>7134</name>
</trkpt>
<trkpt lat="49.356888" lon="8.696988">
<ele>235.0</ele>
<speed>49.9</speed>
<course>274.0</course>
<desc>Speed 49.9 km/h Distance 150 km</desc>
<time>2011-03-24T17:46:49.37</time>
<name>7135</name>
</trkpt>
<trkpt lat="49.356897" lon="8.696803">
<ele>233.0</ele>
<speed>49.1</speed>
<course>274.1</course>
<desc>Speed 49.1 km/h Distance 150 km</desc>
<time>2011-03-24T17:46:50.38</time>
<name>7136</name>
</trkpt>
<trkpt lat="49.356905" lon="8.696625">
<ele>232.0</ele>
<speed>46.4</speed>
<course>278.8</course>
<desc>Speed 46.4 km/h Distance 150 km</desc>
<time>2011-03-24T17:46:51.40</time>
<name>7137</name>
</trkpt>
<trkpt lat="49.356923" lon="8.696443">
<ele>230.5</ele>
<speed>47.9</speed>
<course>281.1</course>
<desc>Speed 47.9 km/h Distance 150 km</desc>
<time>2011-03-24T17:46:52.38</time>
<name>7138</name>
</trkpt>
<trkpt lat="49.356947" lon="8.696260">
<ele>229.0</ele>
<speed>49.0</speed>
<course>282.3</course>
<desc>Speed 49.0 km/h Distance 150 km</desc>
<time>2011-03-24T17:46:53.47</time>
<name>7139</name>
</trkpt>
<trkpt lat="49.357002" lon="8.695872">
<ele>228.5</ele>
<speed>52.4</speed>
<course>288.2</course>
<desc>Speed 52.4 km/h Distance 150 km</desc>
<time>2011-03-24T17:46:55.54</time>
<name>7140</name>
</trkpt>
<trkpt lat="49.357085" lon="8.695482">
<ele>227.0</ele>
<speed>54.6</speed>
<course>297.7</course>
<desc>Speed 54.6 km/h Distance 150 km</desc>
<time>2011-03-24T17:46:57.36</time>
<name>7141</name>
</trkpt>
<trkpt lat="49.357152" lon="8.695287">
<ele>226.0</ele>
<speed>57.1</speed>
<course>300.5</course>
<desc>Speed 57.1 km/h Distance 150 km</desc>
<time>2011-03-24T17:46:58.36</time>
<name>7142</name>
</trkpt>
<trkpt lat="49.357223" lon="8.695100">
<ele>223.0</ele>
<speed>56.8</speed>
<course>306.2</course>
<desc>Speed 56.8 km/h Distance 150 km</desc>
<time>2011-03-24T17:46:59.36</time>
<name>7143</name>
</trkpt>
<trkpt lat="49.357308" lon="8.694922">
<ele>222.5</ele>
<speed>57.8</speed>
<course>314.0</course>
<desc>Speed 57.8 km/h Distance 150 km</desc>
<time>2011-03-24T17:47:00.36</time>
<name>7144</name>
</trkpt>
<trkpt lat="49.357410" lon="8.694760">
<ele>222.0</ele>
<speed>58.8</speed>
<course>323.7</course>
<desc>Speed 58.8 km/h Distance 150 km</desc>
<time>2011-03-24T17:47:01.36</time>
<name>7145</name>
</trkpt>
<trkpt lat="49.357528" lon="8.694627">
<ele>221.0</ele>
<speed>59.2</speed>
<course>329.0</course>
<desc>Speed 59.2 km/h Distance 150 km</desc>
<time>2011-03-24T17:47:02.37</time>
<name>7146</name>
</trkpt>
<trkpt lat="49.357660" lon="8.694505">
<ele>220.5</ele>
<speed>62.1</speed>
<course>338.4</course>
<desc>Speed 62.1 km/h Distance 150 km</desc>
<time>2011-03-24T17:47:03.37</time>
<name>7147</name>
</trkpt>
<trkpt lat="49.357813" lon="8.694412">
<ele>217.5</ele>
<speed>62.0</speed>
<course>347.9</course>
<desc>Speed 62.0 km/h Distance 150 km</desc>
<time>2011-03-24T17:47:04.37</time>
<name>7148</name>
</trkpt>
<trkpt lat="49.357965" lon="8.694362">
<ele>216.5</ele>
<speed>63.4</speed>
<course>352.1</course>
<desc>Speed 63.4 km/h Distance 150 km</desc>
<time>2011-03-24T17:47:05.36</time>
<name>7149</name>
</trkpt>
<trkpt lat="49.358107" lon="8.694332">
<ele>215.5</ele>
<speed>59.0</speed>
<course>4.9</course>
<desc>Speed 59.0 km/h Distance 150 km</desc>
<time>2011-03-24T17:47:06.37</time>
<name>7150</name>
</trkpt>
<trkpt lat="49.358233" lon="8.694348">
<ele>215.5</ele>
<speed>52.3</speed>
<course>358.7</course>
<desc>Speed 52.3 km/h Distance 150 km</desc>
<time>2011-03-24T17:47:07.36</time>
<name>7151</name>
</trkpt>
<trkpt lat="49.358375" lon="8.694343">
<ele>214.0</ele>
<speed>56.8</speed>
<course>356.5</course>
<desc>Speed 56.8 km/h Distance 150 km</desc>
<time>2011-03-24T17:47:08.36</time>
<name>7152</name>
</trkpt>
<trkpt lat="49.358518" lon="8.694330">
<ele>212.0</ele>
<speed>57.7</speed>
<course>353.1</course>
<desc>Speed 57.7 km/h Distance 150 km</desc>
<time>2011-03-24T17:47:09.36</time>
<name>7153</name>
</trkpt>
<trkpt lat="49.358662" lon="8.694303">
<ele>211.0</ele>
<speed>58.6</speed>
<course>349.2</course>
<desc>Speed 58.6 km/h Distance 150 km</desc>
<time>2011-03-24T17:47:10.36</time>
<name>7154</name>
</trkpt>
<trkpt lat="49.358803" lon="8.694262">
<ele>210.5</ele>
<speed>58.6</speed>
<course>332.8</course>
<desc>Speed 58.6 km/h Distance 150 km</desc>
<time>2011-03-24T17:47:11.35</time>
<name>7155</name>
</trkpt>
<trkpt lat="49.358937" lon="8.694157">
<ele>210.5</ele>
<speed>60.7</speed>
<course>331.3</course>
<desc>Speed 60.7 km/h Distance 150 km</desc>
<time>2011-03-24T17:47:12.59</time>
<name>7156</name>
</trkpt>
<trkpt lat="49.359185" lon="8.693948">
<ele>207.0</ele>
<speed>56.5</speed>
<course>319.3</course>
<desc>Speed 56.5 km/h Distance 150 km</desc>
<time>2011-03-24T17:47:14.91</time>
<name>7157</name>
</trkpt>
<trkpt lat="49.359392" lon="8.693675">
<ele>203.5</ele>
<speed>55.8</speed>
<course>311.6</course>
<desc>Speed 55.8 km/h Distance 150 km</desc>
<time>2011-03-24T17:47:16.35</time>
<name>7158</name>
</trkpt>
<trkpt lat="49.359478" lon="8.693525">
<ele>203.5</ele>
<speed>52.5</speed>
<course>306.3</course>
<desc>Speed 52.5 km/h Distance 150 km</desc>
<time>2011-03-24T17:47:17.34</time>
<name>7159</name>
</trkpt>
<trkpt lat="49.359555" lon="8.693365">
<ele>203.0</ele>
<speed>52.0</speed>
<course>295.6</course>
<desc>Speed 52.0 km/h Distance 150 km</desc>
<time>2011-03-24T17:47:18.64</time>
<name>7160</name>
</trkpt>
<trkpt lat="49.359672" lon="8.692992">
<ele>202.0</ele>
<speed>53.9</speed>
<course>285.9</course>
<desc>Speed 53.9 km/h Distance 150 km</desc>
<time>2011-03-24T17:47:20.57</time>
<name>7161</name>
</trkpt>
<trkpt lat="49.359743" lon="8.692605">
<ele>199.5</ele>
<speed>50.5</speed>
<course>277.6</course>
<desc>Speed 50.5 km/h Distance 150 km</desc>
<time>2011-03-24T17:47:22.34</time>
<name>7162</name>
</trkpt>
<trkpt lat="49.359758" lon="8.692432">
<ele>199.0</ele>
<speed>44.9</speed>
<course>272.7</course>
<desc>Speed 44.9 km/h Distance 150 km</desc>
<time>2011-03-24T17:47:23.34</time>
<name>7163</name>
</trkpt>
<trkpt lat="49.359763" lon="8.692272">
<ele>198.0</ele>
<speed>42.0</speed>
<course>274.7</course>
<desc>Speed 42.0 km/h Distance 150 km</desc>
<time>2011-03-24T17:47:24.35</time>
<name>7164</name>
</trkpt>
<trkpt lat="49.359770" lon="8.692148">
<ele>196.0</ele>
<speed>33.9</speed>
<course>272.3</course>
<desc>Speed 33.9 km/h Distance 150 km</desc>
<time>2011-03-24T17:47:25.35</time>
<name>7165</name>
</trkpt>
<trkpt lat="49.359773" lon="8.692020">
<ele>195.0</ele>
<speed>32.7</speed>
<course>271.2</course>
<desc>Speed 32.7 km/h Distance 150 km</desc>
<time>2011-03-24T17:47:26.35</time>
<name>7166</name>
</trkpt>
<trkpt lat="49.359775" lon="8.691893">
<ele>194.5</ele>
<speed>32.9</speed>
<course>270.0</course>
<desc>Speed 32.9 km/h Distance 150 km</desc>
<time>2011-03-24T17:47:27.34</time>
<name>7167</name>
</trkpt>
<trkpt lat="49.359775" lon="8.691768">
<ele>193.5</ele>
<speed>32.6</speed>
<course>270.0</course>
<desc>Speed 32.6 km/h Distance 150 km</desc>
<time>2011-03-24T17:47:28.34</time>
<name>7168</name>
</trkpt>
<trkpt lat="49.359775" lon="8.691635">
<ele>192.5</ele>
<speed>34.5</speed>
<course>270.0</course>
<desc>Speed 34.5 km/h Distance 150 km</desc>
<time>2011-03-24T17:47:29.39</time>
<name>7169</name>
</trkpt>
<trkpt lat="49.359775" lon="8.691493">
<ele>191.0</ele>
<speed>38.2</speed>
<course>270.9</course>
<desc>Speed 38.2 km/h Distance 150 km</desc>
<time>2011-03-24T17:47:30.34</time>
<name>7170</name>
</trkpt>
<trkpt lat="49.359777" lon="8.691335">
<ele>189.5</ele>
<speed>40.8</speed>
<course>271.9</course>
<desc>Speed 40.8 km/h Distance 150 km</desc>
<time>2011-03-24T17:47:31.46</time>
<name>7171</name>
</trkpt>
<trkpt lat="49.359780" lon="8.691182">
<ele>188.0</ele>
<speed>42.4</speed>
<course>272.7</course>
<desc>Speed 42.4 km/h Distance 150 km</desc>
<time>2011-03-24T17:47:32.33</time>
<name>7172</name>
</trkpt>
<trkpt lat="49.359785" lon="8.691022">
<ele>186.5</ele>
<speed>43.9</speed>
<course>274.5</course>
<desc>Speed 43.9 km/h Distance 150 km</desc>
<time>2011-03-24T17:47:33.33</time>
<name>7173</name>
</trkpt>
<trkpt lat="49.359793" lon="8.690860">
<ele>183.5</ele>
<speed>44.7</speed>
<course>275.4</course>
<desc>Speed 44.7 km/h Distance 150 km</desc>
<time>2011-03-24T17:47:34.33</time>
<name>7174</name>
</trkpt>
<trkpt lat="49.359803" lon="8.690697">
<ele>181.0</ele>
<speed>44.8</speed>
<course>273.4</course>
<desc>Speed 44.8 km/h Distance 150 km</desc>
<time>2011-03-24T17:47:35.33</time>
<name>7175</name>
</trkpt>
<trkpt lat="49.359810" lon="8.690525">
<ele>178.5</ele>
<speed>45.0</speed>
<course>270.8</course>
<desc>Speed 45.0 km/h Distance 150 km</desc>
<time>2011-03-24T17:47:36.33</time>
<name>7176</name>
</trkpt>
<trkpt lat="49.359812" lon="8.690352">
<ele>176.5</ele>
<speed>45.5</speed>
<course>269.2</course>
<desc>Speed 45.5 km/h Distance 150 km</desc>
<time>2011-03-24T17:47:37.33</time>
<name>7177</name>
</trkpt>
<trkpt lat="49.359810" lon="8.690177">
<ele>175.0</ele>
<speed>46.0</speed>
<course>270.0</course>
<desc>Speed 46.0 km/h Distance 150 km</desc>
<time>2011-03-24T17:47:38.33</time>
<name>7178</name>
</trkpt>
<trkpt lat="49.359810" lon="8.690002">
<ele>173.5</ele>
<speed>46.2</speed>
<course>270.0</course>
<desc>Speed 46.2 km/h Distance 150 km</desc>
<time>2011-03-24T17:47:39.32</time>
<name>7179</name>
</trkpt>
<trkpt lat="49.359810" lon="8.689833">
<ele>172.5</ele>
<speed>44.4</speed>
<course>270.9</course>
<desc>Speed 44.4 km/h Distance 150 km</desc>
<time>2011-03-24T17:47:40.32</time>
<name>7180</name>
</trkpt>
<trkpt lat="49.359812" lon="8.689673">
<ele>172.0</ele>
<speed>42.2</speed>
<course>269.0</course>
<desc>Speed 42.2 km/h Distance 150 km</desc>
<time>2011-03-24T17:47:41.32</time>
<name>7181</name>
</trkpt>
<trkpt lat="49.359810" lon="8.689527">
<ele>171.0</ele>
<speed>38.8</speed>
<course>272.4</course>
<desc>Speed 38.8 km/h Distance 150 km</desc>
<time>2011-03-24T17:47:42.33</time>
<name>7182</name>
</trkpt>
<trkpt lat="49.359813" lon="8.689405">
<ele>170.0</ele>
<speed>31.6</speed>
<course>292.5</course>
<desc>Speed 31.6 km/h Distance 150 km</desc>
<time>2011-03-24T17:47:43.32</time>
<name>7183</name>
</trkpt>
<trkpt lat="49.359837" lon="8.689318">
<ele>169.5</ele>
<speed>24.6</speed>
<course>291.0</course>
<desc>Speed 24.6 km/h Distance 150 km</desc>
<time>2011-03-24T17:47:44.32</time>
<name>7184</name>
</trkpt>
<trkpt lat="49.359858" lon="8.689232">
<ele>169.0</ele>
<speed>24.2</speed>
<course>316.1</course>
<desc>Speed 24.2 km/h Distance 150 km</desc>
<time>2011-03-24T17:47:45.32</time>
<name>7185</name>
</trkpt>
<trkpt lat="49.359900" lon="8.689170">
<ele>169.5</ele>
<speed>22.8</speed>
<course>342.0</course>
<desc>Speed 22.8 km/h Distance 150 km</desc>
<time>2011-03-24T17:47:46.32</time>
<name>7186</name>
</trkpt>
<trkpt lat="49.359960" lon="8.689140">
<ele>170.0</ele>
<speed>25.5</speed>
<course>356.4</course>
<desc>Speed 25.5 km/h Distance 150 km</desc>
<time>2011-03-24T17:47:47.32</time>
<name>7187</name>
</trkpt>
<trkpt lat="49.360202" lon="8.689117">
<ele>170.0</ele>
<speed>53.0</speed>
<course>356.5</course>
<desc>Speed 53.0 km/h Distance 150 km</desc>
<time>2011-03-24T17:47:49.32</time>
<name>7188</name>
</trkpt>
<trkpt lat="49.360343" lon="8.689103">
<ele>170.0</ele>
<speed>56.4</speed>
<course>356.8</course>
<desc>Speed 56.4 km/h Distance 150 km</desc>
<time>2011-03-24T17:47:50.32</time>
<name>7189</name>
</trkpt>
<trkpt lat="49.360517" lon="8.689088">
<ele>170.0</ele>
<speed>69.3</speed>
<course>356.6</course>
<desc>Speed 69.3 km/h Distance 150 km</desc>
<time>2011-03-24T17:47:51.32</time>
<name>7190</name>
</trkpt>
<trkpt lat="49.360682" lon="8.689073">
<ele>170.0</ele>
<speed>64.6</speed>
<course>356.0</course>
<desc>Speed 64.6 km/h Distance 151 km</desc>
<time>2011-03-24T17:47:52.32</time>
<name>7191</name>
</trkpt>
<trkpt lat="49.360853" lon="8.689055">
<ele>169.5</ele>
<speed>67.5</speed>
<course>354.6</course>
<desc>Speed 67.5 km/h Distance 151 km</desc>
<time>2011-03-24T17:47:53.32</time>
<name>7192</name>
</trkpt>
<trkpt lat="49.361050" lon="8.689027">
<ele>169.5</ele>
<speed>77.9</speed>
<course>355.3</course>
<desc>Speed 77.9 km/h Distance 151 km</desc>
<time>2011-03-24T17:47:54.31</time>
<name>7193</name>
</trkpt>
<trkpt lat="49.361237" lon="8.689003">
<ele>169.0</ele>
<speed>75.1</speed>
<course>356.3</course>
<desc>Speed 75.1 km/h Distance 151 km</desc>
<time>2011-03-24T17:47:55.34</time>
<name>7194</name>
</trkpt>
<trkpt lat="49.361420" lon="8.688985">
<ele>169.0</ele>
<speed>73.2</speed>
<course>356.3</course>
<desc>Speed 73.2 km/h Distance 151 km</desc>
<time>2011-03-24T17:47:56.36</time>
<name>7195</name>
</trkpt>
<trkpt lat="49.361605" lon="8.688967">
<ele>169.0</ele>
<speed>73.3</speed>
<course>356.3</course>
<desc>Speed 73.3 km/h Distance 151 km</desc>
<time>2011-03-24T17:47:57.32</time>
<name>7196</name>
</trkpt>
<trkpt lat="49.361792" lon="8.688948">
<ele>169.0</ele>
<speed>74.2</speed>
<course>356.0</course>
<desc>Speed 74.2 km/h Distance 151 km</desc>
<time>2011-03-24T17:47:58.43</time>
<name>7197</name>
</trkpt>
<trkpt lat="49.362335" lon="8.688890">
<ele>168.5</ele>
<speed>72.1</speed>
<course>355.8</course>
<desc>Speed 72.1 km/h Distance 151 km</desc>
<time>2011-03-24T17:48:01.29</time>
<name>7198</name>
</trkpt>
<trkpt lat="49.362513" lon="8.688870">
<ele>168.0</ele>
<speed>71.7</speed>
<course>355.8</course>
<desc>Speed 71.7 km/h Distance 151 km</desc>
<time>2011-03-24T17:48:02.29</time>
<name>7199</name>
</trkpt>
<trkpt lat="49.362690" lon="8.688850">
<ele>168.0</ele>
<speed>71.4</speed>
<course>355.1</course>
<desc>Speed 71.4 km/h Distance 151 km</desc>
<time>2011-03-24T17:48:03.29</time>
<name>7200</name>
</trkpt>
<trkpt lat="49.362867" lon="8.688827">
<ele>167.0</ele>
<speed>71.2</speed>
<course>355.8</course>
<desc>Speed 71.2 km/h Distance 151 km</desc>
<time>2011-03-24T17:48:04.29</time>
<name>7201</name>
</trkpt>
<trkpt lat="49.363045" lon="8.688807">
<ele>166.5</ele>
<speed>70.5</speed>
<course>356.1</course>
<desc>Speed 70.5 km/h Distance 151 km</desc>
<time>2011-03-24T17:48:05.29</time>
<name>7202</name>
</trkpt>
<trkpt lat="49.363222" lon="8.688788">
<ele>166.5</ele>
<speed>70.6</speed>
<course>355.4</course>
<desc>Speed 70.6 km/h Distance 151 km</desc>
<time>2011-03-24T17:48:06.29</time>
<name>7203</name>
</trkpt>
<trkpt lat="49.363398" lon="8.688767">
<ele>166.5</ele>
<speed>70.2</speed>
<course>355.4</course>
<desc>Speed 70.2 km/h Distance 151 km</desc>
<time>2011-03-24T17:48:07.29</time>
<name>7204</name>
</trkpt>
<trkpt lat="49.363920" lon="8.688702">
<ele>167.0</ele>
<speed>69.2</speed>
<course>356.0</course>
<desc>Speed 69.2 km/h Distance 151 km</desc>
<time>2011-03-24T17:48:10.62</time>
<name>7205</name>
</trkpt>
<trkpt lat="49.364258" lon="8.688665">
<ele>167.0</ele>
<speed>65.9</speed>
<course>356.2</course>
<desc>Speed 65.9 km/h Distance 151 km</desc>
<time>2011-03-24T17:48:12.29</time>
<name>7206</name>
</trkpt>
<trkpt lat="49.364407" lon="8.688650">
<ele>168.0</ele>
<speed>59.7</speed>
<course>356.1</course>
<desc>Speed 59.7 km/h Distance 151 km</desc>
<time>2011-03-24T17:48:13.29</time>
<name>7207</name>
</trkpt>
<trkpt lat="49.364535" lon="8.688637">
<ele>168.0</ele>
<speed>51.0</speed>
<course>356.5</course>
<desc>Speed 51.0 km/h Distance 151 km</desc>
<time>2011-03-24T17:48:14.28</time>
<name>7208</name>
</trkpt>
<trkpt lat="49.364642" lon="8.688627">
<ele>168.0</ele>
<speed>42.9</speed>
<course>356.4</course>
<desc>Speed 42.9 km/h Distance 151 km</desc>
<time>2011-03-24T17:48:15.28</time>
<name>7209</name>
</trkpt>
<trkpt lat="49.364745" lon="8.688617">
<ele>167.0</ele>
<speed>40.6</speed>
<course>356.0</course>
<desc>Speed 40.6 km/h Distance 151 km</desc>
<time>2011-03-24T17:48:16.28</time>
<name>7210</name>
</trkpt>
<trkpt lat="49.364822" lon="8.688608">
<ele>167.0</ele>
<speed>29.9</speed>
<course>356.7</course>
<desc>Speed 29.9 km/h Distance 151 km</desc>
<time>2011-03-24T17:48:17.29</time>
<name>7211</name>
</trkpt>
<trkpt lat="49.364878" lon="8.688603">
<ele>167.5</ele>
<speed>21.0</speed>
<course>357.7</course>
<desc>Speed 21.0 km/h Distance 151 km</desc>
<time>2011-03-24T17:48:18.28</time>
<name>7212</name>
</trkpt>
<trkpt lat="49.364930" lon="8.688600">
<ele>167.5</ele>
<speed>19.0</speed>
<course>357.1</course>
<desc>Speed 19.0 km/h Distance 151 km</desc>
<time>2011-03-24T17:48:19.35</time>
<name>7213</name>
</trkpt>
<trkpt lat="49.364972" lon="8.688597">
<ele>167.5</ele>
<speed>15.0</speed>
<course>359.1</course>
<desc>Speed 15.0 km/h Distance 151 km</desc>
<time>2011-03-24T17:48:20.29</time>
<name>7214</name>
</trkpt>
<trkpt lat="49.365003" lon="8.688595">
<ele>167.5</ele>
<speed>12.6</speed>
<course>358.8</course>
<desc>Speed 12.6 km/h Distance 151 km</desc>
<time>2011-03-24T17:48:21.41</time>
<name>7215</name>
</trkpt>
<trkpt lat="49.365030" lon="8.688593">
<ele>168.0</ele>
<speed>11.4</speed>
<course>353.0</course>
<desc>Speed 11.4 km/h Distance 151 km</desc>
<time>2011-03-24T17:48:22.31</time>
<name>7216</name>
</trkpt>
<trkpt lat="49.365048" lon="8.688590">
<ele>168.0</ele>
<speed>6.6</speed>
<course>348.4</course>
<desc>Speed 6.6 km/h Distance 151 km</desc>
<time>2011-03-24T17:48:23.47</time>
<name>7217</name>
</trkpt>
<trkpt lat="49.365058" lon="8.688587">
<ele>167.0</ele>
<speed>3.2</speed>
<course>0.0</course>
<desc>Speed 3.2 km/h Distance 151 km</desc>
<time>2011-03-24T17:48:24.27</time>
<name>7218</name>
</trkpt>
<trkpt lat="49.365063" lon="8.688587">
<ele>167.5</ele>
<speed>1.2</speed>
<course>0.0</course>
<desc>Speed 1.2 km/h Distance 151 km</desc>
<time>2011-03-24T17:48:25.54</time>
<name>7219</name>
</trkpt>
<trkpt lat="49.365063" lon="8.688587">
<ele>167.0</ele>
<speed>0.6</speed>
<course>0.0</course>
<desc>Speed 0.6 km/h Distance 151 km</desc>
<time>2011-03-24T17:48:26.28</time>
<name>7220</name>
</trkpt>
<trkpt lat="49.365063" lon="8.688587">
<ele>167.0</ele>
<speed>0.7</speed>
<course>217.2</course>
<desc>Speed 0.7 km/h Distance 151 km</desc>
<time>2011-03-24T17:48:27.28</time>
<name>7221</name>
</trkpt>
<trkpt lat="49.365062" lon="8.688585">
<ele>166.5</ele>
<speed>0.3</speed>
<course>217.2</course>
<desc>Speed 0.3 km/h Distance 151 km</desc>
<time>2011-03-24T17:48:28.26</time>
<name>7222</name>
</trkpt>
<trkpt lat="49.365062" lon="8.688585">
<ele>166.5</ele>
<speed>0.4</speed>
<course>142.8</course>
<desc>Speed 0.4 km/h Distance 151 km</desc>
<time>2011-03-24T17:48:29.27</time>
<name>7223</name>
</trkpt>
<trkpt lat="49.365060" lon="8.688587">
<ele>166.5</ele>
<speed>1.2</speed>
<course>12.6</course>
<desc>Speed 1.2 km/h Distance 151 km</desc>
<time>2011-03-24T17:48:30.26</time>
<name>7224</name>
</trkpt>
<trkpt lat="49.365062" lon="8.688587">
<ele>166.5</ele>
<speed>0.2</speed>
<course>37.2</course>
<desc>Speed 0.2 km/h Distance 151 km</desc>
<time>2011-03-24T17:48:31.34</time>
<name>7225</name>
</trkpt>
<trkpt lat="49.365063" lon="8.688588">
<ele>166.0</ele>
<speed>0.6</speed>
<course>7.4</course>
<desc>Speed 0.6 km/h Distance 151 km</desc>
<time>2011-03-24T17:48:33.50</time>
<name>7226</name>
</trkpt>
<trkpt lat="49.365070" lon="8.688588">
<ele>166.5</ele>
<speed>0.1</speed>
<course>0.0</course>
<desc>Speed 0.1 km/h Distance 151 km</desc>
<time>2011-03-24T17:48:35.26</time>
<name>7227</name>
</trkpt>
<trkpt lat="49.365073" lon="8.688588">
<ele>166.5</ele>
<speed>0.1</speed>
<course>0.0</course>
<desc>Speed 0.1 km/h Distance 151 km</desc>
<time>2011-03-24T17:48:36.27</time>
<name>7228</name>
</trkpt>
<trkpt lat="49.365077" lon="8.688588">
<ele>166.5</ele>
<speed>0.3</speed>
<course>22.2</course>
<desc>Speed 0.3 km/h Distance 151 km</desc>
<time>2011-03-24T17:48:37.58</time>
<name>7229</name>
</trkpt>
<trkpt lat="49.365082" lon="8.688592">
<ele>167.0</ele>
<speed>0.7</speed>
<course>0.0</course>
<desc>Speed 0.7 km/h Distance 151 km</desc>
<time>2011-03-24T17:48:39.57</time>
<name>7230</name>
</trkpt>
<trkpt lat="49.365090" lon="8.688592">
<ele>167.5</ele>
<speed>0.6</speed>
<course>341.2</course>
<desc>Speed 0.6 km/h Distance 151 km</desc>
<time>2011-03-24T17:48:41.26</time>
<name>7231</name>
</trkpt>
<trkpt lat="49.365093" lon="8.688590">
<ele>167.5</ele>
<speed>0.1</speed>
<course>167.4</course>
<desc>Speed 0.1 km/h Distance 151 km</desc>
<time>2011-03-24T17:48:42.26</time>
<name>7232</name>
</trkpt>
<trkpt lat="49.365092" lon="8.688590">
<ele>167.5</ele>
<speed>1.0</speed>
<course>270.0</course>
<desc>Speed 1.0 km/h Distance 151 km</desc>
<time>2011-03-24T17:48:43.51</time>
<name>7233</name>
</trkpt>
<trkpt lat="49.365092" lon="8.688588">
<ele>167.5</ele>
<speed>0.8</speed>
<course>12.6</course>
<desc>Speed 0.8 km/h Distance 151 km</desc>
<time>2011-03-24T17:48:44.26</time>
<name>7234</name>
</trkpt>
<trkpt lat="49.365093" lon="8.688588">
<ele>168.0</ele>
<speed>0.5</speed>
<course>167.4</course>
<desc>Speed 0.5 km/h Distance 151 km</desc>
<time>2011-03-24T17:48:45.26</time>
<name>7235</name>
</trkpt>
<trkpt lat="49.365090" lon="8.688588">
<ele>168.5</ele>
<speed>0.9</speed>
<course>167.4</course>
<desc>Speed 0.9 km/h Distance 151 km</desc>
<time>2011-03-24T17:48:46.34</time>
<name>7236</name>
</trkpt>
<trkpt lat="49.365088" lon="8.688590">
<ele>168.5</ele>
<speed>0.4</speed>
<course>347.4</course>
<desc>Speed 0.4 km/h Distance 151 km</desc>
<time>2011-03-24T17:48:47.27</time>
<name>7237</name>
</trkpt>
<trkpt lat="49.365090" lon="8.688588">
<ele>169.0</ele>
<speed>0.5</speed>
<course>347.4</course>
<desc>Speed 0.5 km/h Distance 151 km</desc>
<time>2011-03-24T17:48:48.39</time>
<name>7238</name>
</trkpt>
<trkpt lat="49.365090" lon="8.688588">
<ele>169.0</ele>
<speed>0.7</speed>
<course>347.4</course>
<desc>Speed 0.7 km/h Distance 151 km</desc>
<time>2011-03-24T17:48:49.26</time>
<name>7239</name>
</trkpt>
<trkpt lat="49.365092" lon="8.688587">
<ele>169.5</ele>
<speed>0.1</speed>
<course>270.0</course>
<desc>Speed 0.1 km/h Distance 151 km</desc>
<time>2011-03-24T17:48:50.77</time>
<name>7240</name>
</trkpt>
<trkpt lat="49.365092" lon="8.688585">
<ele>169.0</ele>
<speed>0.8</speed>
<course>270.0</course>
<desc>Speed 0.8 km/h Distance 151 km</desc>
<time>2011-03-24T17:48:52.25</time>
<name>7241</name>
</trkpt>
<trkpt lat="49.365092" lon="8.688582">
<ele>168.5</ele>
<speed>1.1</speed>
<course>297.4</course>
<desc>Speed 1.1 km/h Distance 151 km</desc>
<time>2011-03-24T17:48:53.26</time>
<name>7242</name>
</trkpt>
<trkpt lat="49.365093" lon="8.688577">
<ele>167.5</ele>
<speed>0.3</speed>
<course>194.9</course>
<desc>Speed 0.3 km/h Distance 151 km</desc>
<time>2011-03-24T17:48:54.25</time>
<name>7243</name>
</trkpt>
<trkpt lat="49.365085" lon="8.688573">
<ele>166.5</ele>
<speed>1.4</speed>
<course>205.4</course>
<desc>Speed 1.4 km/h Distance 151 km</desc>
<time>2011-03-24T17:48:55.27</time>
<name>7244</name>
</trkpt>
<trkpt lat="49.365080" lon="8.688570">
<ele>166.0</ele>
<speed>0.1</speed>
<course>270.0</course>
<desc>Speed 0.1 km/h Distance 151 km</desc>
<time>2011-03-24T17:48:56.41</time>
<name>7245</name>
</trkpt>
<trkpt lat="49.365080" lon="8.688568">
<ele>166.0</ele>
<speed>0.3</speed>
<course>337.0</course>
<desc>Speed 0.3 km/h Distance 151 km</desc>
<time>2011-03-24T17:48:57.25</time>
<name>7246</name>
</trkpt>
<trkpt lat="49.365083" lon="8.688567">
<ele>166.0</ele>
<speed>0.3</speed>
<course>355.3</course>
<desc>Speed 0.3 km/h Distance 151 km</desc>
<time>2011-03-24T17:48:58.54</time>
<name>7247</name>
</trkpt>
<trkpt lat="49.365095" lon="8.688565">
<ele>166.0</ele>
<speed>1.5</speed>
<course>355.0</course>
<desc>Speed 1.5 km/h Distance 151 km</desc>
<time>2011-03-24T17:48:59.25</time>
<name>7248</name>
</trkpt>
<trkpt lat="49.365120" lon="8.688562">
<ele>166.5</ele>
<speed>10.0</speed>
<course>352.5</course>
<desc>Speed 10.0 km/h Distance 151 km</desc>
<time>2011-03-24T17:49:00.25</time>
<name>7249</name>
</trkpt>
<trkpt lat="49.365277" lon="8.688530">
<ele>166.5</ele>
<speed>29.2</speed>
<course>355.7</course>
<desc>Speed 29.2 km/h Distance 151 km</desc>
<time>2011-03-24T17:49:02.25</time>
<name>7250</name>
</trkpt>
<trkpt lat="49.365363" lon="8.688520">
<ele>166.5</ele>
<speed>33.8</speed>
<course>356.4</course>
<desc>Speed 33.8 km/h Distance 151 km</desc>
<time>2011-03-24T17:49:03.32</time>
<name>7251</name>
</trkpt>
<trkpt lat="49.365587" lon="8.688498">
<ele>168.0</ele>
<speed>43.8</speed>
<course>356.2</course>
<desc>Speed 43.8 km/h Distance 151 km</desc>
<time>2011-03-24T17:49:05.40</time>
<name>7252</name>
</trkpt>
<trkpt lat="49.365833" lon="8.688473">
<ele>167.5</ele>
<speed>50.1</speed>
<course>356.8</course>
<desc>Speed 50.1 km/h Distance 151 km</desc>
<time>2011-03-24T17:49:07.49</time>
<name>7253</name>
</trkpt>
<trkpt lat="49.366120" lon="8.688448">
<ele>168.0</ele>
<speed>60.0</speed>
<course>355.9</course>
<desc>Speed 60.0 km/h Distance 151 km</desc>
<time>2011-03-24T17:49:09.25</time>
<name>7254</name>
</trkpt>
<trkpt lat="49.366270" lon="8.688432">
<ele>167.0</ele>
<speed>60.8</speed>
<course>355.6</course>
<desc>Speed 60.8 km/h Distance 151 km</desc>
<time>2011-03-24T17:49:10.23</time>
<name>7255</name>
</trkpt>
<trkpt lat="49.366440" lon="8.688412">
<ele>166.5</ele>
<speed>69.0</speed>
<course>355.6</course>
<desc>Speed 69.0 km/h Distance 151 km</desc>
<time>2011-03-24T17:49:11.28</time>
<name>7256</name>
</trkpt>
<trkpt lat="49.366610" lon="8.688392">
<ele>166.5</ele>
<speed>67.5</speed>
<course>356.7</course>
<desc>Speed 67.5 km/h Distance 151 km</desc>
<time>2011-03-24T17:49:12.23</time>
<name>7257</name>
</trkpt>
<trkpt lat="49.366780" lon="8.688377">
<ele>166.0</ele>
<speed>70.2</speed>
<course>357.7</course>
<desc>Speed 70.2 km/h Distance 151 km</desc>
<time>2011-03-24T17:49:13.23</time>
<name>7258</name>
</trkpt>
<trkpt lat="49.366967" lon="8.688365">
<ele>165.5</ele>
<speed>74.3</speed>
<course>359.0</course>
<desc>Speed 74.3 km/h Distance 151 km</desc>
<time>2011-03-24T17:49:14.24</time>
<name>7259</name>
</trkpt>
<trkpt lat="49.367155" lon="8.688360">
<ele>165.5</ele>
<speed>75.7</speed>
<course>358.0</course>
<desc>Speed 75.7 km/h Distance 151 km</desc>
<time>2011-03-24T17:49:15.23</time>
<name>7260</name>
</trkpt>
<trkpt lat="49.367347" lon="8.688350">
<ele>165.0</ele>
<speed>76.6</speed>
<course>357.4</course>
<desc>Speed 76.6 km/h Distance 151 km</desc>
<time>2011-03-24T17:49:16.23</time>
<name>7261</name>
</trkpt>
<trkpt lat="49.367537" lon="8.688337">
<ele>164.5</ele>
<speed>76.6</speed>
<course>356.7</course>
<desc>Speed 76.6 km/h Distance 151 km</desc>
<time>2011-03-24T17:49:17.24</time>
<name>7262</name>
</trkpt>
<trkpt lat="49.367728" lon="8.688320">
<ele>164.5</ele>
<speed>76.5</speed>
<course>356.2</course>
<desc>Speed 76.5 km/h Distance 151 km</desc>
<time>2011-03-24T17:49:18.24</time>
<name>7263</name>
</trkpt>
<trkpt lat="49.367907" lon="8.688302">
<ele>164.5</ele>
<speed>71.9</speed>
<course>356.3</course>
<desc>Speed 71.9 km/h Distance 151 km</desc>
<time>2011-03-24T17:49:19.24</time>
<name>7264</name>
</trkpt>
<trkpt lat="49.368073" lon="8.688285">
<ele>164.0</ele>
<speed>67.6</speed>
<course>356.0</course>
<desc>Speed 67.6 km/h Distance 151 km</desc>
<time>2011-03-24T17:49:20.24</time>
<name>7265</name>
</trkpt>
<trkpt lat="49.368228" lon="8.688268">
<ele>164.0</ele>
<speed>62.2</speed>
<course>356.6</course>
<desc>Speed 62.2 km/h Distance 151 km</desc>
<time>2011-03-24T17:49:21.23</time>
<name>7266</name>
</trkpt>
<trkpt lat="49.368373" lon="8.688255">
<ele>164.5</ele>
<speed>59.0</speed>
<course>353.8</course>
<desc>Speed 59.0 km/h Distance 151 km</desc>
<time>2011-03-24T17:49:22.49</time>
<name>7267</name>
</trkpt>
<trkpt lat="49.368685" lon="8.688203">
<ele>164.5</ele>
<speed>71.7</speed>
<course>356.7</course>
<desc>Speed 71.7 km/h Distance 151 km</desc>
<time>2011-03-24T17:49:24.23</time>
<name>7268</name>
</trkpt>
<trkpt lat="49.368947" lon="8.688180">
<ele>164.5</ele>
<speed>53.4</speed>
<course>356.8</course>
<desc>Speed 53.4 km/h Distance 151 km</desc>
<time>2011-03-24T17:49:26.74</time>
<name>7269</name>
</trkpt>
<trkpt lat="49.369195" lon="8.688158">
<ele>164.5</ele>
<speed>48.6</speed>
<course>356.8</course>
<desc>Speed 48.6 km/h Distance 151 km</desc>
<time>2011-03-24T17:49:28.22</time>
<name>7270</name>
</trkpt>
<trkpt lat="49.369407" lon="8.688140">
<ele>164.0</ele>
<speed>41.5</speed>
<course>358.5</course>
<desc>Speed 41.5 km/h Distance 151 km</desc>
<time>2011-03-24T17:49:30.52</time>
<name>7271</name>
</trkpt>
<trkpt lat="49.369615" lon="8.688132">
<ele>162.5</ele>
<speed>40.3</speed>
<course>357.8</course>
<desc>Speed 40.3 km/h Distance 152 km</desc>
<time>2011-03-24T17:49:32.23</time>
<name>7272</name>
</trkpt>
<trkpt lat="49.369785" lon="8.688122">
<ele>161.5</ele>
<speed>32.5</speed>
<course>355.9</course>
<desc>Speed 32.5 km/h Distance 152 km</desc>
<time>2011-03-24T17:49:34.22</time>
<name>7273</name>
</trkpt>
<trkpt lat="49.369950" lon="8.688103">
<ele>161.0</ele>
<speed>32.3</speed>
<course>3.6</course>
<desc>Speed 32.3 km/h Distance 152 km</desc>
<time>2011-03-24T17:49:36.22</time>
<name>7274</name>
</trkpt>
<trkpt lat="49.370022" lon="8.688110">
<ele>160.5</ele>
<speed>28.6</speed>
<course>11.2</course>
<desc>Speed 28.6 km/h Distance 152 km</desc>
<time>2011-03-24T17:49:37.22</time>
<name>7275</name>
</trkpt>
<trkpt lat="49.370098" lon="8.688133">
<ele>160.5</ele>
<speed>30.3</speed>
<course>33.9</course>
<desc>Speed 30.3 km/h Distance 152 km</desc>
<time>2011-03-24T17:49:38.22</time>
<name>7276</name>
</trkpt>
<trkpt lat="49.370152" lon="8.688188">
<ele>159.5</ele>
<speed>25.6</speed>
<course>62.5</course>
<desc>Speed 25.6 km/h Distance 152 km</desc>
<time>2011-03-24T17:49:39.21</time>
<name>7277</name>
</trkpt>
<trkpt lat="49.370182" lon="8.688277">
<ele>158.5</ele>
<speed>26.4</speed>
<course>77.3</course>
<desc>Speed 26.4 km/h Distance 152 km</desc>
<time>2011-03-24T17:49:40.21</time>
<name>7278</name>
</trkpt>
<trkpt lat="49.370200" lon="8.688402">
<ele>158.5</ele>
<speed>32.9</speed>
<course>84.9</course>
<desc>Speed 32.9 km/h Distance 152 km</desc>
<time>2011-03-24T17:49:41.44</time>
<name>7279</name>
</trkpt>
<trkpt lat="49.370218" lon="8.688717">
<ele>159.0</ele>
<speed>46.7</speed>
<course>108.5</course>
<desc>Speed 46.7 km/h Distance 152 km</desc>
<time>2011-03-24T17:49:43.21</time>
<name>7280</name>
</trkpt>
<trkpt lat="49.370190" lon="8.688847">
<ele>159.5</ele>
<speed>35.2</speed>
<course>127.1</course>
<desc>Speed 35.2 km/h Distance 152 km</desc>
<time>2011-03-24T17:49:44.21</time>
<name>7281</name>
</trkpt>
<trkpt lat="49.370137" lon="8.688955">
<ele>159.0</ele>
<speed>34.1</speed>
<course>142.3</course>
<desc>Speed 34.1 km/h Distance 152 km</desc>
<time>2011-03-24T17:49:45.25</time>
<name>7282</name>
</trkpt>
<trkpt lat="49.370048" lon="8.689060">
<ele>159.5</ele>
<speed>43.2</speed>
<course>140.9</course>
<desc>Speed 43.2 km/h Distance 152 km</desc>
<time>2011-03-24T17:49:46.22</time>
<name>7283</name>
</trkpt>
<trkpt lat="49.369968" lon="8.689160">
<ele>161.0</ele>
<speed>40.9</speed>
<course>146.9</course>
<desc>Speed 40.9 km/h Distance 152 km</desc>
<time>2011-03-24T17:49:47.22</time>
<name>7284</name>
</trkpt>
<trkpt lat="49.369888" lon="8.689240">
<ele>161.0</ele>
<speed>36.0</speed>
<course>151.6</course>
<desc>Speed 36.0 km/h Distance 152 km</desc>
<time>2011-03-24T17:49:48.20</time>
<name>7285</name>
</trkpt>
<trkpt lat="49.369810" lon="8.689305">
<ele>162.5</ele>
<speed>35.6</speed>
<course>164.4</course>
<desc>Speed 35.6 km/h Distance 152 km</desc>
<time>2011-03-24T17:49:49.41</time>
<name>7286</name>
</trkpt>
<trkpt lat="49.369643" lon="8.689377">
<ele>164.5</ele>
<speed>29.9</speed>
<course>168.0</course>
<desc>Speed 29.9 km/h Distance 152 km</desc>
<time>2011-03-24T17:49:51.25</time>
<name>7287</name>
</trkpt>
<trkpt lat="49.369572" lon="8.689400">
<ele>165.5</ele>
<speed>30.9</speed>
<course>168.7</course>
<desc>Speed 30.9 km/h Distance 152 km</desc>
<time>2011-03-24T17:49:52.21</time>
<name>7288</name>
</trkpt>
<trkpt lat="49.369490" lon="8.689425">
<ele>166.0</ele>
<speed>35.6</speed>
<course>169.0</course>
<desc>Speed 35.6 km/h Distance 152 km</desc>
<time>2011-03-24T17:49:53.33</time>
<name>7289</name>
</trkpt>
<trkpt lat="49.369395" lon="8.689453">
<ele>167.0</ele>
<speed>38.2</speed>
<course>172.5</course>
<desc>Speed 38.2 km/h Distance 152 km</desc>
<time>2011-03-24T17:49:54.21</time>
<name>7290</name>
</trkpt>
<trkpt lat="49.369297" lon="8.689473">
<ele>167.0</ele>
<speed>39.7</speed>
<course>173.6</course>
<desc>Speed 39.7 km/h Distance 152 km</desc>
<time>2011-03-24T17:49:55.22</time>
<name>7291</name>
</trkpt>
<trkpt lat="49.369200" lon="8.689490">
<ele>168.0</ele>
<speed>39.3</speed>
<course>174.4</course>
<desc>Speed 39.3 km/h Distance 152 km</desc>
<time>2011-03-24T17:49:56.21</time>
<name>7292</name>
</trkpt>
<trkpt lat="49.368978" lon="8.689523">
<ele>168.5</ele>
<speed>38.0</speed>
<course>179.3</course>
<desc>Speed 38.0 km/h Distance 152 km</desc>
<time>2011-03-24T17:49:58.21</time>
<name>7293</name>
</trkpt>
<trkpt lat="49.368888" lon="8.689525">
<ele>168.0</ele>
<speed>37.7</speed>
<course>186.4</course>
<desc>Speed 37.7 km/h Distance 152 km</desc>
<time>2011-03-24T17:49:59.22</time>
<name>7294</name>
</trkpt>
<trkpt lat="49.368782" lon="8.689507">
<ele>170.0</ele>
<speed>28.1</speed>
<course>188.0</course>
<desc>Speed 28.1 km/h Distance 152 km</desc>
<time>2011-03-24T17:50:01.20</time>
<name>7295</name>
</trkpt>
<trkpt lat="49.368720" lon="8.689493">
<ele>170.5</ele>
<speed>25.6</speed>
<course>221.0</course>
<desc>Speed 25.6 km/h Distance 152 km</desc>
<time>2011-03-24T17:50:02.27</time>
<name>7296</name>
</trkpt>
<trkpt lat="49.368680" lon="8.689440">
<ele>170.0</ele>
<speed>22.4</speed>
<course>223.9</course>
<desc>Speed 22.4 km/h Distance 152 km</desc>
<time>2011-03-24T17:50:03.21</time>
<name>7297</name>
</trkpt>
<trkpt lat="49.368645" lon="8.689388">
<ele>171.0</ele>
<speed>19.3</speed>
<course>227.6</course>
<desc>Speed 19.3 km/h Distance 152 km</desc>
<time>2011-03-24T17:50:04.22</time>
<name>7298</name>
</trkpt>
<trkpt lat="49.368613" lon="8.689335">
<ele>171.0</ele>
<speed>18.5</speed>
<course>289.1</course>
<desc>Speed 18.5 km/h Distance 152 km</desc>
<time>2011-03-24T17:50:05.20</time>
<name>7299</name>
</trkpt>
<trkpt lat="49.368625" lon="8.689283">
<ele>170.5</ele>
<speed>14.6</speed>
<course>250.3</course>
<desc>Speed 14.6 km/h Distance 152 km</desc>
<time>2011-03-24T17:50:06.40</time>
<name>7300</name>
</trkpt>
<trkpt lat="49.368613" lon="8.689233">
<ele>171.0</ele>
<speed>14.5</speed>
<course>250.9</course>
<desc>Speed 14.5 km/h Distance 152 km</desc>
<time>2011-03-24T17:50:07.20</time>
<name>7301</name>
</trkpt>
<trkpt lat="49.368602" lon="8.689182">
<ele>171.5</ele>
<speed>15.0</speed>
<course>254.5</course>
<desc>Speed 15.0 km/h Distance 152 km</desc>
<time>2011-03-24T17:50:08.73</time>
<name>7302</name>
</trkpt>
<trkpt lat="49.368573" lon="8.689025">
<ele>174.0</ele>
<speed>23.7</speed>
<course>268.4</course>
<desc>Speed 23.7 km/h Distance 152 km</desc>
<time>2011-03-24T17:50:10.20</time>
<name>7303</name>
</trkpt>
<trkpt lat="49.368572" lon="8.688935">
<ele>174.0</ele>
<speed>23.1</speed>
<course>268.4</course>
<desc>Speed 23.1 km/h Distance 152 km</desc>
<time>2011-03-24T17:50:11.20</time>
<name>7304</name>
</trkpt>
<trkpt lat="49.368570" lon="8.688842">
<ele>174.0</ele>
<speed>24.5</speed>
<course>268.5</course>
<desc>Speed 24.5 km/h Distance 152 km</desc>
<time>2011-03-24T17:50:12.38</time>
<name>7305</name>
</trkpt>
<trkpt lat="49.368568" lon="8.688747">
<ele>173.5</ele>
<speed>24.7</speed>
<course>267.4</course>
<desc>Speed 24.7 km/h Distance 152 km</desc>
<time>2011-03-24T17:50:13.20</time>
<name>7306</name>
</trkpt>
<trkpt lat="49.368565" lon="8.688635">
<ele>173.5</ele>
<speed>29.3</speed>
<course>270.0</course>
<desc>Speed 29.3 km/h Distance 152 km</desc>
<time>2011-03-24T17:50:14.19</time>
<name>7307</name>
</trkpt>
<trkpt lat="49.368565" lon="8.688517">
<ele>173.0</ele>
<speed>30.4</speed>
<course>264.3</course>
<desc>Speed 30.4 km/h Distance 152 km</desc>
<time>2011-03-24T17:50:15.32</time>
<name>7308</name>
</trkpt>
<trkpt lat="49.368542" lon="8.688157">
<ele>175.5</ele>
<speed>45.2</speed>
<course>264.9</course>
<desc>Speed 45.2 km/h Distance 152 km</desc>
<time>2011-03-24T17:50:17.39</time>
<name>7309</name>
</trkpt>
<trkpt lat="49.368517" lon="8.687723">
<ele>178.5</ele>
<speed>58.2</speed>
<course>265.6</course>
<desc>Speed 58.2 km/h Distance 152 km</desc>
<time>2011-03-24T17:50:19.48</time>
<name>7310</name>
</trkpt>
<trkpt lat="49.368492" lon="8.687225">
<ele>177.5</ele>
<speed>65.6</speed>
<course>265.4</course>
<desc>Speed 65.6 km/h Distance 152 km</desc>
<time>2011-03-24T17:50:21.64</time>
<name>7311</name>
</trkpt>
<trkpt lat="49.368445" lon="8.686327">
<ele>178.0</ele>
<speed>78.0</speed>
<course>268.0</course>
<desc>Speed 78.0 km/h Distance 152 km</desc>
<time>2011-03-24T17:50:24.19</time>
<name>7312</name>
</trkpt>
<trkpt lat="49.368438" lon="8.686028">
<ele>177.0</ele>
<speed>79.1</speed>
<course>268.6</course>
<desc>Speed 79.1 km/h Distance 152 km</desc>
<time>2011-03-24T17:50:25.43</time>
<name>7313</name>
</trkpt>
<trkpt lat="49.368428" lon="8.685417">
<ele>175.5</ele>
<speed>81.4</speed>
<course>269.1</course>
<desc>Speed 81.4 km/h Distance 152 km</desc>
<time>2011-03-24T17:50:27.18</time>
<name>7314</name>
</trkpt>
<trkpt lat="49.368425" lon="8.685105">
<ele>174.0</ele>
<speed>83.2</speed>
<course>268.2</course>
<desc>Speed 83.2 km/h Distance 152 km</desc>
<time>2011-03-24T17:50:28.18</time>
<name>7315</name>
</trkpt>
<trkpt lat="49.368407" lon="8.684205">
<ele>171.0</ele>
<speed>76.0</speed>
<course>266.8</course>
<desc>Speed 76.0 km/h Distance 152 km</desc>
<time>2011-03-24T17:50:31.34</time>
<name>7316</name>
</trkpt>
<trkpt lat="49.368397" lon="8.683932">
<ele>170.5</ele>
<speed>72.4</speed>
<course>267.2</course>
<desc>Speed 72.4 km/h Distance 152 km</desc>
<time>2011-03-24T17:50:32.18</time>
<name>7317</name>
</trkpt>
<trkpt lat="49.368388" lon="8.683670">
<ele>170.5</ele>
<speed>68.7</speed>
<course>267.1</course>
<desc>Speed 68.7 km/h Distance 152 km</desc>
<time>2011-03-24T17:50:33.17</time>
<name>7318</name>
</trkpt>
<trkpt lat="49.368380" lon="8.683420">
<ele>170.0</ele>
<speed>65.8</speed>
<course>266.9</course>
<desc>Speed 65.8 km/h Distance 152 km</desc>
<time>2011-03-24T17:50:34.18</time>
<name>7319</name>
</trkpt>
<trkpt lat="49.368372" lon="8.683180">
<ele>169.5</ele>
<speed>63.4</speed>
<course>266.6</course>
<desc>Speed 63.4 km/h Distance 152 km</desc>
<time>2011-03-24T17:50:35.41</time>
<name>7320</name>
</trkpt>
<trkpt lat="49.368353" lon="8.682702">
<ele>168.5</ele>
<speed>63.7</speed>
<course>266.4</course>
<desc>Speed 63.7 km/h Distance 152 km</desc>
<time>2011-03-24T17:50:37.18</time>
<name>7321</name>
</trkpt>
<trkpt lat="49.368343" lon="8.682460">
<ele>168.0</ele>
<speed>64.3</speed>
<course>267.0</course>
<desc>Speed 64.3 km/h Distance 152 km</desc>
<time>2011-03-24T17:50:38.21</time>
<name>7322</name>
</trkpt>
<trkpt lat="49.368335" lon="8.682217">
<ele>167.5</ele>
<speed>64.9</speed>
<course>267.2</course>
<desc>Speed 64.9 km/h Distance 152 km</desc>
<time>2011-03-24T17:50:39.52</time>
<name>7323</name>
</trkpt>
<trkpt lat="49.368320" lon="8.681738">
<ele>166.5</ele>
<speed>62.2</speed>
<course>268.1</course>
<desc>Speed 62.2 km/h Distance 152 km</desc>
<time>2011-03-24T17:50:41.18</time>
<name>7324</name>
</trkpt>
<trkpt lat="49.368315" lon="8.681510">
<ele>166.5</ele>
<speed>59.4</speed>
<course>266.6</course>
<desc>Speed 59.4 km/h Distance 152 km</desc>
<time>2011-03-24T17:50:42.33</time>
<name>7325</name>
</trkpt>
<trkpt lat="49.368307" lon="8.681292">
<ele>166.0</ele>
<speed>56.9</speed>
<course>266.0</course>
<desc>Speed 56.9 km/h Distance 152 km</desc>
<time>2011-03-24T17:50:43.17</time>
<name>7326</name>
</trkpt>
<trkpt lat="49.368297" lon="8.681070">
<ele>165.5</ele>
<speed>57.6</speed>
<course>267.1</course>
<desc>Speed 57.6 km/h Distance 152 km</desc>
<time>2011-03-24T17:50:44.40</time>
<name>7327</name>
</trkpt>
<trkpt lat="49.368282" lon="8.680622">
<ele>165.0</ele>
<speed>59.8</speed>
<course>268.1</course>
<desc>Speed 59.8 km/h Distance 152 km</desc>
<time>2011-03-24T17:50:46.17</time>
<name>7328</name>
</trkpt>
<trkpt lat="49.368277" lon="8.680388">
<ele>164.5</ele>
<speed>61.4</speed>
<course>267.0</course>
<desc>Speed 61.4 km/h Distance 152 km</desc>
<time>2011-03-24T17:50:47.17</time>
<name>7329</name>
</trkpt>
<trkpt lat="49.368268" lon="8.680147">
<ele>164.5</ele>
<speed>63.2</speed>
<course>267.1</course>
<desc>Speed 63.2 km/h Distance 152 km</desc>
<time>2011-03-24T17:50:48.17</time>
<name>7330</name>
</trkpt>
<trkpt lat="49.368260" lon="8.679897">
<ele>164.0</ele>
<speed>65.8</speed>
<course>267.2</course>
<desc>Speed 65.8 km/h Distance 152 km</desc>
<time>2011-03-24T17:50:49.16</time>
<name>7331</name>
</trkpt>
<trkpt lat="49.368252" lon="8.679638">
<ele>164.0</ele>
<speed>67.4</speed>
<course>267.7</course>
<desc>Speed 67.4 km/h Distance 153 km</desc>
<time>2011-03-24T17:50:50.29</time>
<name>7332</name>
</trkpt>
<trkpt lat="49.368245" lon="8.679380">
<ele>164.0</ele>
<speed>67.6</speed>
<course>267.6</course>
<desc>Speed 67.6 km/h Distance 153 km</desc>
<time>2011-03-24T17:50:51.17</time>
<name>7333</name>
</trkpt>
<trkpt lat="49.368238" lon="8.679133">
<ele>164.0</ele>
<speed>64.8</speed>
<course>267.5</course>
<desc>Speed 64.8 km/h Distance 153 km</desc>
<time>2011-03-24T17:50:52.17</time>
<name>7334</name>
</trkpt>
<trkpt lat="49.368232" lon="8.678895">
<ele>164.0</ele>
<speed>62.4</speed>
<course>267.7</course>
<desc>Speed 62.4 km/h Distance 153 km</desc>
<time>2011-03-24T17:50:53.16</time>
<name>7335</name>
</trkpt>
<trkpt lat="49.368213" lon="8.678198">
<ele>164.0</ele>
<speed>60.4</speed>
<course>267.5</course>
<desc>Speed 60.4 km/h Distance 153 km</desc>
<time>2011-03-24T17:50:56.19</time>
<name>7336</name>
</trkpt>
<trkpt lat="49.368207" lon="8.677967">
<ele>163.5</ele>
<speed>60.7</speed>
<course>266.9</course>
<desc>Speed 60.7 km/h Distance 153 km</desc>
<time>2011-03-24T17:50:57.16</time>
<name>7337</name>
</trkpt>
<trkpt lat="49.368198" lon="8.677733">
<ele>164.0</ele>
<speed>61.6</speed>
<course>266.9</course>
<desc>Speed 61.6 km/h Distance 153 km</desc>
<time>2011-03-24T17:50:58.31</time>
<name>7338</name>
</trkpt>
<trkpt lat="49.368190" lon="8.677493">
<ele>164.5</ele>
<speed>62.8</speed>
<course>265.9</course>
<desc>Speed 62.8 km/h Distance 153 km</desc>
<time>2011-03-24T17:50:59.16</time>
<name>7339</name>
</trkpt>
<trkpt lat="49.368178" lon="8.677245">
<ele>165.0</ele>
<speed>65.2</speed>
<course>265.3</course>
<desc>Speed 65.2 km/h Distance 153 km</desc>
<time>2011-03-24T17:51:00.15</time>
<name>7340</name>
</trkpt>
<trkpt lat="49.368165" lon="8.676993">
<ele>165.0</ele>
<speed>66.4</speed>
<course>264.1</course>
<desc>Speed 66.4 km/h Distance 153 km</desc>
<time>2011-03-24T17:51:01.28</time>
<name>7341</name>
</trkpt>
<trkpt lat="49.368148" lon="8.676745">
<ele>165.5</ele>
<speed>65.2</speed>
<course>264.4</course>
<desc>Speed 65.2 km/h Distance 153 km</desc>
<time>2011-03-24T17:51:02.16</time>
<name>7342</name>
</trkpt>
<trkpt lat="49.368133" lon="8.676508">
<ele>165.5</ele>
<speed>62.4</speed>
<course>264.2</course>
<desc>Speed 62.4 km/h Distance 153 km</desc>
<time>2011-03-24T17:51:03.36</time>
<name>7343</name>
</trkpt>
<trkpt lat="49.368103" lon="8.676053">
<ele>165.5</ele>
<speed>60.1</speed>
<course>263.5</course>
<desc>Speed 60.1 km/h Distance 153 km</desc>
<time>2011-03-24T17:51:05.66</time>
<name>7344</name>
</trkpt>
<trkpt lat="49.368070" lon="8.675602">
<ele>166.0</ele>
<speed>59.9</speed>
<course>263.7</course>
<desc>Speed 59.9 km/h Distance 153 km</desc>
<time>2011-03-24T17:51:07.78</time>
<name>7345</name>
</trkpt>
<trkpt lat="49.368018" lon="8.674887">
<ele>167.0</ele>
<speed>65.2</speed>
<course>266.0</course>
<desc>Speed 65.2 km/h Distance 153 km</desc>
<time>2011-03-24T17:51:10.15</time>
<name>7346</name>
</trkpt>
<trkpt lat="49.368007" lon="8.674633">
<ele>167.0</ele>
<speed>67.0</speed>
<course>267.2</course>
<desc>Speed 67.0 km/h Distance 153 km</desc>
<time>2011-03-24T17:51:11.20</time>
<name>7347</name>
</trkpt>
<trkpt lat="49.367998" lon="8.674375">
<ele>167.0</ele>
<speed>67.6</speed>
<course>268.3</course>
<desc>Speed 67.6 km/h Distance 153 km</desc>
<time>2011-03-24T17:51:12.15</time>
<name>7348</name>
</trkpt>
<trkpt lat="49.367993" lon="8.674123">
<ele>167.0</ele>
<speed>66.2</speed>
<course>266.9</course>
<desc>Speed 66.2 km/h Distance 153 km</desc>
<time>2011-03-24T17:51:13.15</time>
<name>7349</name>
</trkpt>
<trkpt lat="49.367985" lon="8.673883">
<ele>167.0</ele>
<speed>63.0</speed>
<course>268.1</course>
<desc>Speed 63.0 km/h Distance 153 km</desc>
<time>2011-03-24T17:51:14.15</time>
<name>7350</name>
</trkpt>
<trkpt lat="49.367980" lon="8.673655">
<ele>167.0</ele>
<speed>59.7</speed>
<course>268.1</course>
<desc>Speed 59.7 km/h Distance 153 km</desc>
<time>2011-03-24T17:51:15.16</time>
<name>7351</name>
</trkpt>
<trkpt lat="49.367975" lon="8.673423">
<ele>167.0</ele>
<speed>60.4</speed>
<course>269.4</course>
<desc>Speed 60.4 km/h Distance 153 km</desc>
<time>2011-03-24T17:51:16.15</time>
<name>7352</name>
</trkpt>
<trkpt lat="49.367973" lon="8.673190">
<ele>166.5</ele>
<speed>60.9</speed>
<course>269.4</course>
<desc>Speed 60.9 km/h Distance 153 km</desc>
<time>2011-03-24T17:51:17.14</time>
<name>7353</name>
</trkpt>
<trkpt lat="49.367972" lon="8.672955">
<ele>166.5</ele>
<speed>61.3</speed>
<course>270.0</course>
<desc>Speed 61.3 km/h Distance 153 km</desc>
<time>2011-03-24T17:51:18.22</time>
<name>7354</name>
</trkpt>
<trkpt lat="49.367972" lon="8.672717">
<ele>166.0</ele>
<speed>62.4</speed>
<course>268.9</course>
<desc>Speed 62.4 km/h Distance 153 km</desc>
<time>2011-03-24T17:51:19.14</time>
<name>7355</name>
</trkpt>
<trkpt lat="49.367968" lon="8.672462">
<ele>165.5</ele>
<speed>66.9</speed>
<course>272.2</course>
<desc>Speed 66.9 km/h Distance 153 km</desc>
<time>2011-03-24T17:51:20.36</time>
<name>7356</name>
</trkpt>
<trkpt lat="49.367982" lon="8.671923">
<ele>164.5</ele>
<speed>71.8</speed>
<course>273.2</course>
<desc>Speed 71.8 km/h Distance 153 km</desc>
<time>2011-03-24T17:51:22.43</time>
<name>7357</name>
</trkpt>
<trkpt lat="49.368002" lon="8.671373">
<ele>164.0</ele>
<speed>73.0</speed>
<course>274.7</course>
<desc>Speed 73.0 km/h Distance 153 km</desc>
<time>2011-03-24T17:51:24.14</time>
<name>7358</name>
</trkpt>
<trkpt lat="49.368017" lon="8.671093">
<ele>163.5</ele>
<speed>73.6</speed>
<course>274.7</course>
<desc>Speed 73.6 km/h Distance 153 km</desc>
<time>2011-03-24T17:51:25.15</time>
<name>7359</name>
</trkpt>
<trkpt lat="49.368032" lon="8.670815">
<ele>163.5</ele>
<speed>73.4</speed>
<course>275.8</course>
<desc>Speed 73.4 km/h Distance 153 km</desc>
<time>2011-03-24T17:51:26.14</time>
<name>7360</name>
</trkpt>
<trkpt lat="49.368050" lon="8.670540">
<ele>163.0</ele>
<speed>72.5</speed>
<course>276.8</course>
<desc>Speed 72.5 km/h Distance 153 km</desc>
<time>2011-03-24T17:51:27.14</time>
<name>7361</name>
</trkpt>
<trkpt lat="49.368092" lon="8.670007">
<ele>162.5</ele>
<speed>69.4</speed>
<course>276.7</course>
<desc>Speed 69.4 km/h Distance 153 km</desc>
<time>2011-03-24T17:51:29.14</time>
<name>7362</name>
</trkpt>
<trkpt lat="49.368112" lon="8.669743">
<ele>162.0</ele>
<speed>69.9</speed>
<course>277.0</course>
<desc>Speed 69.9 km/h Distance 153 km</desc>
<time>2011-03-24T17:51:30.35</time>
<name>7363</name>
</trkpt>
<trkpt lat="49.368153" lon="8.669220">
<ele>162.0</ele>
<speed>68.3</speed>
<course>278.9</course>
<desc>Speed 68.3 km/h Distance 153 km</desc>
<time>2011-03-24T17:51:32.27</time>
<name>7364</name>
</trkpt>
<trkpt lat="49.368205" lon="8.668713">
<ele>162.0</ele>
<speed>67.2</speed>
<course>280.4</course>
<desc>Speed 67.2 km/h Distance 153 km</desc>
<time>2011-03-24T17:51:34.14</time>
<name>7365</name>
</trkpt>
<trkpt lat="49.368235" lon="8.668462">
<ele>161.5</ele>
<speed>66.6</speed>
<course>280.6</course>
<desc>Speed 66.6 km/h Distance 153 km</desc>
<time>2011-03-24T17:51:35.13</time>
<name>7366</name>
</trkpt>
<trkpt lat="49.368265" lon="8.668217">
<ele>161.5</ele>
<speed>64.9</speed>
<course>281.7</course>
<desc>Speed 64.9 km/h Distance 153 km</desc>
<time>2011-03-24T17:51:36.12</time>
<name>7367</name>
</trkpt>
<trkpt lat="49.368297" lon="8.667982">
<ele>161.5</ele>
<speed>63.1</speed>
<course>283.3</course>
<desc>Speed 63.1 km/h Distance 153 km</desc>
<time>2011-03-24T17:51:37.13</time>
<name>7368</name>
</trkpt>
<trkpt lat="49.368333" lon="8.667743">
<ele>161.0</ele>
<speed>64.1</speed>
<course>283.6</course>
<desc>Speed 64.1 km/h Distance 153 km</desc>
<time>2011-03-24T17:51:38.26</time>
<name>7369</name>
</trkpt>
<trkpt lat="49.368370" lon="8.667510">
<ele>161.0</ele>
<speed>63.0</speed>
<course>284.4</course>
<desc>Speed 63.0 km/h Distance 153 km</desc>
<time>2011-03-24T17:51:39.13</time>
<name>7370</name>
</trkpt>
<trkpt lat="49.368408" lon="8.667280">
<ele>161.0</ele>
<speed>62.5</speed>
<course>286.2</course>
<desc>Speed 62.5 km/h Distance 153 km</desc>
<time>2011-03-24T17:51:40.13</time>
<name>7371</name>
</trkpt>
<trkpt lat="49.368452" lon="8.667052">
<ele>160.5</ele>
<speed>62.5</speed>
<course>286.2</course>
<desc>Speed 62.5 km/h Distance 153 km</desc>
<time>2011-03-24T17:51:41.21</time>
<name>7372</name>
</trkpt>
<trkpt lat="49.368495" lon="8.666823">
<ele>159.5</ele>
<speed>61.7</speed>
<course>285.2</course>
<desc>Speed 61.7 km/h Distance 153 km</desc>
<time>2011-03-24T17:51:42.13</time>
<name>7373</name>
</trkpt>
<trkpt lat="49.368535" lon="8.666597">
<ele>159.5</ele>
<speed>61.5</speed>
<course>285.4</course>
<desc>Speed 61.5 km/h Distance 153 km</desc>
<time>2011-03-24T17:51:43.27</time>
<name>7374</name>
</trkpt>
<trkpt lat="49.368575" lon="8.666373">
<ele>159.5</ele>
<speed>61.1</speed>
<course>287.9</course>
<desc>Speed 61.1 km/h Distance 153 km</desc>
<time>2011-03-24T17:51:44.12</time>
<name>7375</name>
</trkpt>
<trkpt lat="49.368622" lon="8.666152">
<ele>159.0</ele>
<speed>60.7</speed>
<course>287.0</course>
<desc>Speed 60.7 km/h Distance 153 km</desc>
<time>2011-03-24T17:51:45.21</time>
<name>7376</name>
</trkpt>
<trkpt lat="49.368665" lon="8.665933">
<ele>159.0</ele>
<speed>60.4</speed>
<course>288.5</course>
<desc>Speed 60.4 km/h Distance 154 km</desc>
<time>2011-03-24T17:51:46.12</time>
<name>7377</name>
</trkpt>
<trkpt lat="49.368713" lon="8.665712">
<ele>158.0</ele>
<speed>60.8</speed>
<course>289.9</course>
<desc>Speed 60.8 km/h Distance 154 km</desc>
<time>2011-03-24T17:51:47.28</time>
<name>7378</name>
</trkpt>
<trkpt lat="49.368818" lon="8.665267">
<ele>156.5</ele>
<speed>61.5</speed>
<course>288.9</course>
<desc>Speed 61.5 km/h Distance 154 km</desc>
<time>2011-03-24T17:51:49.11</time>
<name>7379</name>
</trkpt>
<trkpt lat="49.368870" lon="8.665035">
<ele>156.0</ele>
<speed>63.4</speed>
<course>295.3</course>
<desc>Speed 63.4 km/h Distance 154 km</desc>
<time>2011-03-24T17:51:50.11</time>
<name>7380</name>
</trkpt>
<trkpt lat="49.368937" lon="8.664818">
<ele>156.0</ele>
<speed>62.8</speed>
<course>293.2</course>
<desc>Speed 62.8 km/h Distance 154 km</desc>
<time>2011-03-24T17:51:51.12</time>
<name>7381</name>
</trkpt>
<trkpt lat="49.369000" lon="8.664592">
<ele>157.0</ele>
<speed>64.8</speed>
<course>287.3</course>
<desc>Speed 64.8 km/h Distance 154 km</desc>
<time>2011-03-24T17:51:52.12</time>
<name>7382</name>
</trkpt>
<trkpt lat="49.369048" lon="8.664353">
<ele>157.0</ele>
<speed>65.1</speed>
<course>289.4</course>
<desc>Speed 65.1 km/h Distance 154 km</desc>
<time>2011-03-24T17:51:53.61</time>
<name>7383</name>
</trkpt>
<trkpt lat="49.369218" lon="8.663613">
<ele>155.5</ele>
<speed>67.3</speed>
<course>289.5</course>
<desc>Speed 67.3 km/h Distance 154 km</desc>
<time>2011-03-24T17:51:56.12</time>
<name>7384</name>
</trkpt>
<trkpt lat="49.369272" lon="8.663382">
<ele>155.5</ele>
<speed>64.0</speed>
<course>291.8</course>
<desc>Speed 64.0 km/h Distance 154 km</desc>
<time>2011-03-24T17:51:57.10</time>
<name>7385</name>
</trkpt>
<trkpt lat="49.369335" lon="8.663138">
<ele>156.0</ele>
<speed>67.7</speed>
<course>294.1</course>
<desc>Speed 67.7 km/h Distance 154 km</desc>
<time>2011-03-24T17:51:58.11</time>
<name>7386</name>
</trkpt>
<trkpt lat="49.369403" lon="8.662903">
<ele>156.0</ele>
<speed>68.3</speed>
<course>296.2</course>
<desc>Speed 68.3 km/h Distance 154 km</desc>
<time>2011-03-24T17:51:59.11</time>
<name>7387</name>
</trkpt>
<trkpt lat="49.369482" lon="8.662658">
<ele>155.5</ele>
<speed>67.5</speed>
<course>294.9</course>
<desc>Speed 67.5 km/h Distance 154 km</desc>
<time>2011-03-24T17:52:00.12</time>
<name>7388</name>
</trkpt>
<trkpt lat="49.369553" lon="8.662422">
<ele>155.0</ele>
<speed>66.5</speed>
<course>296.4</course>
<desc>Speed 66.5 km/h Distance 154 km</desc>
<time>2011-03-24T17:52:01.10</time>
<name>7389</name>
</trkpt>
<trkpt lat="49.369627" lon="8.662195">
<ele>155.0</ele>
<speed>66.5</speed>
<course>297.1</course>
<desc>Speed 66.5 km/h Distance 154 km</desc>
<time>2011-03-24T17:52:02.11</time>
<name>7390</name>
</trkpt>
<trkpt lat="49.369702" lon="8.661970">
<ele>155.0</ele>
<speed>67.0</speed>
<course>299.3</course>
<desc>Speed 67.0 km/h Distance 154 km</desc>
<time>2011-03-24T17:52:03.10</time>
<name>7391</name>
</trkpt>
<trkpt lat="49.369785" lon="8.661742">
<ele>155.0</ele>
<speed>67.5</speed>
<course>300.7</course>
<desc>Speed 67.5 km/h Distance 154 km</desc>
<time>2011-03-24T17:52:04.10</time>
<name>7392</name>
</trkpt>
<trkpt lat="49.369873" lon="8.661513">
<ele>154.5</ele>
<speed>67.8</speed>
<course>302.1</course>
<desc>Speed 67.8 km/h Distance 154 km</desc>
<time>2011-03-24T17:52:05.10</time>
<name>7393</name>
</trkpt>
<trkpt lat="49.369963" lon="8.661293">
<ele>153.5</ele>
<speed>68.3</speed>
<course>302.7</course>
<desc>Speed 68.3 km/h Distance 154 km</desc>
<time>2011-03-24T17:52:06.10</time>
<name>7394</name>
</trkpt>
<trkpt lat="49.370052" lon="8.661082">
<ele>153.5</ele>
<speed>68.1</speed>
<course>304.2</course>
<desc>Speed 68.1 km/h Distance 154 km</desc>
<time>2011-03-24T17:52:07.09</time>
<name>7395</name>
</trkpt>
<trkpt lat="49.370147" lon="8.660867">
<ele>153.5</ele>
<speed>67.6</speed>
<course>304.1</course>
<desc>Speed 67.6 km/h Distance 154 km</desc>
<time>2011-03-24T17:52:08.11</time>
<name>7396</name>
</trkpt>
<trkpt lat="49.370247" lon="8.660640">
<ele>153.0</ele>
<speed>69.8</speed>
<course>302.7</course>
<desc>Speed 69.8 km/h Distance 154 km</desc>
<time>2011-03-24T17:52:09.10</time>
<name>7397</name>
</trkpt>
<trkpt lat="49.370340" lon="8.660417">
<ele>153.5</ele>
<speed>70.3</speed>
<course>306.0</course>
<desc>Speed 70.3 km/h Distance 154 km</desc>
<time>2011-03-24T17:52:10.17</time>
<name>7398</name>
</trkpt>
<trkpt lat="49.370445" lon="8.660195">
<ele>152.5</ele>
<speed>70.8</speed>
<course>306.7</course>
<desc>Speed 70.8 km/h Distance 154 km</desc>
<time>2011-03-24T17:52:11.09</time>
<name>7399</name>
</trkpt>
<trkpt lat="49.370553" lon="8.659972">
<ele>152.5</ele>
<speed>71.6</speed>
<course>308.3</course>
<desc>Speed 71.6 km/h Distance 154 km</desc>
<time>2011-03-24T17:52:12.23</time>
<name>7400</name>
</trkpt>
<trkpt lat="49.370785" lon="8.659522">
<ele>152.0</ele>
<speed>74.3</speed>
<course>310.1</course>
<desc>Speed 74.3 km/h Distance 154 km</desc>
<time>2011-03-24T17:52:14.09</time>
<name>7401</name>
</trkpt>
<trkpt lat="49.370907" lon="8.659300">
<ele>152.0</ele>
<speed>75.3</speed>
<course>310.9</course>
<desc>Speed 75.3 km/h Distance 154 km</desc>
<time>2011-03-24T17:52:15.09</time>
<name>7402</name>
</trkpt>
<trkpt lat="49.371032" lon="8.659078">
<ele>152.5</ele>
<speed>75.7</speed>
<course>312.2</course>
<desc>Speed 75.7 km/h Distance 154 km</desc>
<time>2011-03-24T17:52:16.09</time>
<name>7403</name>
</trkpt>
<trkpt lat="49.371162" lon="8.658858">
<ele>153.0</ele>
<speed>76.3</speed>
<course>313.0</course>
<desc>Speed 76.3 km/h Distance 154 km</desc>
<time>2011-03-24T17:52:17.09</time>
<name>7404</name>
</trkpt>
<trkpt lat="49.371293" lon="8.658642">
<ele>153.0</ele>
<speed>76.2</speed>
<course>314.8</course>
<desc>Speed 76.2 km/h Distance 154 km</desc>
<time>2011-03-24T17:52:18.10</time>
<name>7405</name>
</trkpt>
<trkpt lat="49.371430" lon="8.658430">
<ele>153.0</ele>
<speed>77.4</speed>
<course>316.6</course>
<desc>Speed 77.4 km/h Distance 154 km</desc>
<time>2011-03-24T17:52:19.09</time>
<name>7406</name>
</trkpt>
<trkpt lat="49.371570" lon="8.658227">
<ele>153.0</ele>
<speed>77.0</speed>
<course>318.0</course>
<desc>Speed 77.0 km/h Distance 154 km</desc>
<time>2011-03-24T17:52:20.10</time>
<name>7407</name>
</trkpt>
<trkpt lat="49.371713" lon="8.658028">
<ele>152.5</ele>
<speed>77.1</speed>
<course>319.8</course>
<desc>Speed 77.1 km/h Distance 154 km</desc>
<time>2011-03-24T17:52:21.09</time>
<name>7408</name>
</trkpt>
<trkpt lat="49.371858" lon="8.657840">
<ele>152.5</ele>
<speed>76.9</speed>
<course>321.2</course>
<desc>Speed 76.9 km/h Distance 154 km</desc>
<time>2011-03-24T17:52:22.09</time>
<name>7409</name>
</trkpt>
<trkpt lat="49.372007" lon="8.657657">
<ele>152.5</ele>
<speed>76.2</speed>
<course>323.4</course>
<desc>Speed 76.2 km/h Distance 154 km</desc>
<time>2011-03-24T17:52:23.08</time>
<name>7410</name>
</trkpt>
<trkpt lat="49.372162" lon="8.657480">
<ele>151.5</ele>
<speed>74.2</speed>
<course>324.1</course>
<desc>Speed 74.2 km/h Distance 154 km</desc>
<time>2011-03-24T17:52:24.09</time>
<name>7411</name>
</trkpt>
<trkpt lat="49.372312" lon="8.657313">
<ele>151.5</ele>
<speed>73.6</speed>
<course>324.4</course>
<desc>Speed 73.6 km/h Distance 154 km</desc>
<time>2011-03-24T17:52:25.09</time>
<name>7412</name>
</trkpt>
<trkpt lat="49.372460" lon="8.657150">
<ele>151.5</ele>
<speed>72.9</speed>
<course>324.9</course>
<desc>Speed 72.9 km/h Distance 154 km</desc>
<time>2011-03-24T17:52:26.09</time>
<name>7413</name>
</trkpt>
<trkpt lat="49.372610" lon="8.656988">
<ele>151.5</ele>
<speed>72.4</speed>
<course>324.9</course>
<desc>Speed 72.4 km/h Distance 154 km</desc>
<time>2011-03-24T17:52:27.08</time>
<name>7414</name>
</trkpt>
<trkpt lat="49.372758" lon="8.656828">
<ele>151.5</ele>
<speed>72.5</speed>
<course>325.0</course>
<desc>Speed 72.5 km/h Distance 154 km</desc>
<time>2011-03-24T17:52:28.08</time>
<name>7415</name>
</trkpt>
<trkpt lat="49.372910" lon="8.656665">
<ele>151.0</ele>
<speed>73.4</speed>
<course>325.0</course>
<desc>Speed 73.4 km/h Distance 154 km</desc>
<time>2011-03-24T17:52:29.08</time>
<name>7416</name>
</trkpt>
<trkpt lat="49.373062" lon="8.656502">
<ele>151.0</ele>
<speed>74.1</speed>
<course>325.0</course>
<desc>Speed 74.1 km/h Distance 154 km</desc>
<time>2011-03-24T17:52:30.08</time>
<name>7417</name>
</trkpt>
<trkpt lat="49.373215" lon="8.656337">
<ele>151.0</ele>
<speed>74.7</speed>
<course>324.7</course>
<desc>Speed 74.7 km/h Distance 154 km</desc>
<time>2011-03-24T17:52:31.08</time>
<name>7418</name>
</trkpt>
<trkpt lat="49.373367" lon="8.656172">
<ele>151.5</ele>
<speed>75.1</speed>
<course>324.2</course>
<desc>Speed 75.1 km/h Distance 154 km</desc>
<time>2011-03-24T17:52:32.08</time>
<name>7419</name>
</trkpt>
<trkpt lat="49.373520" lon="8.656002">
<ele>151.5</ele>
<speed>75.5</speed>
<course>323.1</course>
<desc>Speed 75.5 km/h Distance 154 km</desc>
<time>2011-03-24T17:52:33.08</time>
<name>7420</name>
</trkpt>
<trkpt lat="49.373672" lon="8.655827">
<ele>151.5</ele>
<speed>76.0</speed>
<course>322.0</course>
<desc>Speed 76.0 km/h Distance 154 km</desc>
<time>2011-03-24T17:52:34.08</time>
<name>7421</name>
</trkpt>
<trkpt lat="49.373965" lon="8.655475">
<ele>151.0</ele>
<speed>73.8</speed>
<course>320.8</course>
<desc>Speed 73.8 km/h Distance 155 km</desc>
<time>2011-03-24T17:52:36.08</time>
<name>7422</name>
</trkpt>
<trkpt lat="49.374110" lon="8.655293">
<ele>151.5</ele>
<speed>74.7</speed>
<course>319.9</course>
<desc>Speed 74.7 km/h Distance 155 km</desc>
<time>2011-03-24T17:52:37.18</time>
<name>7423</name>
</trkpt>
<trkpt lat="49.374252" lon="8.655110">
<ele>152.5</ele>
<speed>74.3</speed>
<course>318.3</course>
<desc>Speed 74.3 km/h Distance 155 km</desc>
<time>2011-03-24T17:52:38.08</time>
<name>7424</name>
</trkpt>
<trkpt lat="49.374392" lon="8.654918">
<ele>153.0</ele>
<speed>75.9</speed>
<course>314.7</course>
<desc>Speed 75.9 km/h Distance 155 km</desc>
<time>2011-03-24T17:52:39.27</time>
<name>7425</name>
</trkpt>
<trkpt lat="49.374663" lon="8.654497">
<ele>153.5</ele>
<speed>76.4</speed>
<course>310.1</course>
<desc>Speed 76.4 km/h Distance 155 km</desc>
<time>2011-03-24T17:52:41.32</time>
<name>7426</name>
</trkpt>
<trkpt lat="49.374913" lon="8.654040">
<ele>154.0</ele>
<speed>79.1</speed>
<course>308.9</course>
<desc>Speed 79.1 km/h Distance 155 km</desc>
<time>2011-03-24T17:52:43.08</time>
<name>7427</name>
</trkpt>
<trkpt lat="49.375038" lon="8.653802">
<ele>154.0</ele>
<speed>80.0</speed>
<course>305.7</course>
<desc>Speed 80.0 km/h Distance 155 km</desc>
<time>2011-03-24T17:52:44.07</time>
<name>7428</name>
</trkpt>
<trkpt lat="49.375148" lon="8.653567">
<ele>154.0</ele>
<speed>75.6</speed>
<course>304.0</course>
<desc>Speed 75.6 km/h Distance 155 km</desc>
<time>2011-03-24T17:52:45.07</time>
<name>7429</name>
</trkpt>
<trkpt lat="49.375250" lon="8.653335">
<ele>154.0</ele>
<speed>73.0</speed>
<course>300.8</course>
<desc>Speed 73.0 km/h Distance 155 km</desc>
<time>2011-03-24T17:52:46.08</time>
<name>7430</name>
</trkpt>
<trkpt lat="49.375328" lon="8.653133">
<ele>155.0</ele>
<speed>60.8</speed>
<course>301.5</course>
<desc>Speed 60.8 km/h Distance 155 km</desc>
<time>2011-03-24T17:52:47.07</time>
<name>7431</name>
</trkpt>
<trkpt lat="49.375413" lon="8.652920">
<ele>155.5</ele>
<speed>66.0</speed>
<course>297.2</course>
<desc>Speed 66.0 km/h Distance 155 km</desc>
<time>2011-03-24T17:52:48.41</time>
<name>7432</name>
</trkpt>
<trkpt lat="49.375577" lon="8.652432">
<ele>155.5</ele>
<speed>76.3</speed>
<course>296.3</course>
<desc>Speed 76.3 km/h Distance 155 km</desc>
<time>2011-03-24T17:52:50.08</time>
<name>7433</name>
</trkpt>
<trkpt lat="49.375658" lon="8.652178">
<ele>156.0</ele>
<speed>73.5</speed>
<course>291.2</course>
<desc>Speed 73.5 km/h Distance 155 km</desc>
<time>2011-03-24T17:52:51.07</time>
<name>7434</name>
</trkpt>
<trkpt lat="49.375735" lon="8.651875">
<ele>154.5</ele>
<speed>84.3</speed>
<course>285.5</course>
<desc>Speed 84.3 km/h Distance 155 km</desc>
<time>2011-03-24T17:52:52.70</time>
<name>7435</name>
</trkpt>
<trkpt lat="49.375993" lon="8.650443">
<ele>155.5</ele>
<speed>101</speed>
<course>277.9</course>
<desc>Speed 101 km/h Distance 155 km</desc>
<time>2011-03-24T17:52:56.07</time>
<name>7436</name>
</trkpt>
<trkpt lat="49.376032" lon="8.650020">
<ele>153.0</ele>
<speed>112</speed>
<course>280.4</course>
<desc>Speed 112 km/h Distance 155 km</desc>
<time>2011-03-24T17:52:57.06</time>
<name>7437</name>
</trkpt>
<trkpt lat="49.376080" lon="8.649617">
<ele>152.5</ele>
<speed>107</speed>
<course>279.1</course>
<desc>Speed 107 km/h Distance 155 km</desc>
<time>2011-03-24T17:52:58.07</time>
<name>7438</name>
</trkpt>
<trkpt lat="49.376207" lon="8.648408">
<ele>155.0</ele>
<speed>104</speed>
<course>272.3</course>
<desc>Speed 104 km/h Distance 155 km</desc>
<time>2011-03-24T17:53:02.08</time>
<name>7439</name>
</trkpt>
<trkpt lat="49.376217" lon="8.648028">
<ele>155.0</ele>
<speed>99.1</speed>
<course>267.2</course>
<desc>Speed 99.1 km/h Distance 155 km</desc>
<time>2011-03-24T17:53:03.08</time>
<name>7440</name>
</trkpt>
<trkpt lat="49.376205" lon="8.647660">
<ele>155.5</ele>
<speed>96.2</speed>
<course>253.2</course>
<desc>Speed 96.2 km/h Distance 155 km</desc>
<time>2011-03-24T17:53:04.08</time>
<name>7441</name>
</trkpt>
<trkpt lat="49.376135" lon="8.647305">
<ele>156.0</ele>
<speed>95.6</speed>
<course>252.2</course>
<desc>Speed 95.6 km/h Distance 155 km</desc>
<time>2011-03-24T17:53:05.08</time>
<name>7442</name>
</trkpt>
<trkpt lat="49.376063" lon="8.646962">
<ele>156.0</ele>
<speed>94.9</speed>
<course>249.3</course>
<desc>Speed 94.9 km/h Distance 155 km</desc>
<time>2011-03-24T17:53:06.14</time>
<name>7443</name>
</trkpt>
<trkpt lat="49.375980" lon="8.646623">
<ele>157.5</ele>
<speed>93.0</speed>
<course>243.4</course>
<desc>Speed 93.0 km/h Distance 155 km</desc>
<time>2011-03-24T17:53:07.07</time>
<name>7444</name>
</trkpt>
<trkpt lat="49.375715" lon="8.645810">
<ele>159.0</ele>
<speed>93.0</speed>
<course>233.2</course>
<desc>Speed 93.0 km/h Distance 155 km</desc>
<time>2011-03-24T17:53:10.25</time>
<name>7445</name>
</trkpt>
<trkpt lat="49.375445" lon="8.645257">
<ele>159.5</ele>
<speed>88.3</speed>
<course>231.0</course>
<desc>Speed 88.3 km/h Distance 155 km</desc>
<time>2011-03-24T17:53:12.32</time>
<name>7446</name>
</trkpt>
<trkpt lat="49.374980" lon="8.644373">
<ele>156.5</ele>
<speed>99.8</speed>
<course>203.8</course>
<desc>Speed 99.8 km/h Distance 155 km</desc>
<time>2011-03-24T17:53:15.07</time>
<name>7447</name>
</trkpt>
<trkpt lat="49.374608" lon="8.644122">
<ele>157.0</ele>
<speed>87.9</speed>
<course>201.7</course>
<desc>Speed 87.9 km/h Distance 155 km</desc>
<time>2011-03-24T17:53:17.06</time>
<name>7448</name>
</trkpt>
<trkpt lat="49.374412" lon="8.644002">
<ele>155.5</ele>
<speed>85.3</speed>
<course>208.1</course>
<desc>Speed 85.3 km/h Distance 155 km</desc>
<time>2011-03-24T17:53:18.16</time>
<name>7449</name>
</trkpt>
<trkpt lat="49.374227" lon="8.643850">
<ele>155.5</ele>
<speed>86.3</speed>
<course>212.8</course>
<desc>Speed 86.3 km/h Distance 156 km</desc>
<time>2011-03-24T17:53:19.07</time>
<name>7450</name>
</trkpt>
<trkpt lat="49.374062" lon="8.643687">
<ele>155.0</ele>
<speed>81.3</speed>
<course>217.3</course>
<desc>Speed 81.3 km/h Distance 156 km</desc>
<time>2011-03-24T17:53:20.18</time>
<name>7451</name>
</trkpt>
<trkpt lat="49.373905" lon="8.643503">
<ele>155.0</ele>
<speed>81.6</speed>
<course>225.3</course>
<desc>Speed 81.6 km/h Distance 156 km</desc>
<time>2011-03-24T17:53:21.06</time>
<name>7452</name>
</trkpt>
<trkpt lat="49.373772" lon="8.643297">
<ele>155.0</ele>
<speed>79.8</speed>
<course>227.2</course>
<desc>Speed 79.8 km/h Distance 156 km</desc>
<time>2011-03-24T17:53:22.21</time>
<name>7453</name>
</trkpt>
<trkpt lat="49.373492" lon="8.642832">
<ele>155.5</ele>
<speed>85.1</speed>
<course>232.8</course>
<desc>Speed 85.1 km/h Distance 156 km</desc>
<time>2011-03-24T17:53:24.06</time>
<name>7454</name>
</trkpt>
<trkpt lat="49.373360" lon="8.642565">
<ele>155.5</ele>
<speed>86.6</speed>
<course>232.7</course>
<desc>Speed 86.6 km/h Distance 156 km</desc>
<time>2011-03-24T17:53:25.06</time>
<name>7455</name>
</trkpt>
<trkpt lat="49.373233" lon="8.642310">
<ele>153.5</ele>
<speed>85.4</speed>
<course>235.7</course>
<desc>Speed 85.4 km/h Distance 156 km</desc>
<time>2011-03-24T17:53:26.07</time>
<name>7456</name>
</trkpt>
<trkpt lat="49.373108" lon="8.642028">
<ele>152.5</ele>
<speed>88.3</speed>
<course>235.9</course>
<desc>Speed 88.3 km/h Distance 156 km</desc>
<time>2011-03-24T17:53:27.07</time>
<name>7457</name>
</trkpt>
<trkpt lat="49.372983" lon="8.641745">
<ele>151.0</ele>
<speed>89.2</speed>
<course>236.3</course>
<desc>Speed 89.2 km/h Distance 156 km</desc>
<time>2011-03-24T17:53:28.05</time>
<name>7458</name>
</trkpt>
<trkpt lat="49.372727" lon="8.641155">
<ele>150.0</ele>
<speed>91.3</speed>
<course>238.5</course>
<desc>Speed 91.3 km/h Distance 156 km</desc>
<time>2011-03-24T17:53:30.05</time>
<name>7459</name>
</trkpt>
<trkpt lat="49.372608" lon="8.640858">
<ele>149.5</ele>
<speed>91.1</speed>
<course>239.3</course>
<desc>Speed 91.1 km/h Distance 156 km</desc>
<time>2011-03-24T17:53:31.06</time>
<name>7460</name>
</trkpt>
<trkpt lat="49.372490" lon="8.640552">
<ele>149.5</ele>
<speed>93.0</speed>
<course>238.4</course>
<desc>Speed 93.0 km/h Distance 156 km</desc>
<time>2011-03-24T17:53:32.06</time>
<name>7461</name>
</trkpt>
<trkpt lat="49.372367" lon="8.640243">
<ele>150.0</ele>
<speed>94.4</speed>
<course>242.2</course>
<desc>Speed 94.4 km/h Distance 156 km</desc>
<time>2011-03-24T17:53:33.30</time>
<name>7462</name>
</trkpt>
<trkpt lat="49.372152" lon="8.639618">
<ele>150.5</ele>
<speed>90.8</speed>
<course>244.3</course>
<desc>Speed 90.8 km/h Distance 156 km</desc>
<time>2011-03-24T17:53:35.16</time>
<name>7463</name>
</trkpt>
<trkpt lat="49.372053" lon="8.639305">
<ele>150.5</ele>
<speed>91.3</speed>
<course>245.5</course>
<desc>Speed 91.3 km/h Distance 156 km</desc>
<time>2011-03-24T17:53:36.04</time>
<name>7464</name>
</trkpt>
<trkpt lat="49.371960" lon="8.638990">
<ele>150.5</ele>
<speed>91.0</speed>
<course>247.7</course>
<desc>Speed 91.0 km/h Distance 156 km</desc>
<time>2011-03-24T17:53:37.05</time>
<name>7465</name>
</trkpt>
<trkpt lat="49.371875" lon="8.638672">
<ele>151.0</ele>
<speed>89.9</speed>
<course>249.0</course>
<desc>Speed 89.9 km/h Distance 156 km</desc>
<time>2011-03-24T17:53:38.05</time>
<name>7466</name>
</trkpt>
<trkpt lat="49.371715" lon="8.638030">
<ele>151.5</ele>
<speed>88.7</speed>
<course>247.1</course>
<desc>Speed 88.7 km/h Distance 156 km</desc>
<time>2011-03-24T17:53:40.04</time>
<name>7467</name>
</trkpt>
<trkpt lat="49.371542" lon="8.637398">
<ele>154.0</ele>
<speed>89.4</speed>
<course>254.3</course>
<desc>Speed 89.4 km/h Distance 156 km</desc>
<time>2011-03-24T17:53:42.05</time>
<name>7468</name>
</trkpt>
<trkpt lat="49.371443" lon="8.636862">
<ele>155.0</ele>
<speed>75.5</speed>
<course>249.5</course>
<desc>Speed 75.5 km/h Distance 156 km</desc>
<time>2011-03-24T17:53:44.04</time>
<name>7469</name>
</trkpt>
<trkpt lat="49.371377" lon="8.636588">
<ele>156.0</ele>
<speed>75.3</speed>
<course>251.6</course>
<desc>Speed 75.3 km/h Distance 156 km</desc>
<time>2011-03-24T17:53:45.05</time>
<name>7470</name>
</trkpt>
<trkpt lat="49.371317" lon="8.636312">
<ele>156.0</ele>
<speed>73.8</speed>
<course>268.4</course>
<desc>Speed 73.8 km/h Distance 156 km</desc>
<time>2011-03-24T17:53:46.04</time>
<name>7471</name>
</trkpt>
<trkpt lat="49.371312" lon="8.636035">
<ele>155.5</ele>
<speed>70.3</speed>
<course>272.6</course>
<desc>Speed 70.3 km/h Distance 156 km</desc>
<time>2011-03-24T17:53:47.04</time>
<name>7472</name>
</trkpt>
<trkpt lat="49.371320" lon="8.635755">
<ele>156.5</ele>
<speed>73.0</speed>
<course>279.5</course>
<desc>Speed 73.0 km/h Distance 156 km</desc>
<time>2011-03-24T17:53:48.04</time>
<name>7473</name>
</trkpt>
<trkpt lat="49.371350" lon="8.635480">
<ele>157.0</ele>
<speed>72.8</speed>
<course>284.9</course>
<desc>Speed 72.8 km/h Distance 156 km</desc>
<time>2011-03-24T17:53:49.04</time>
<name>7474</name>
</trkpt>
<trkpt lat="49.371395" lon="8.635220">
<ele>157.0</ele>
<speed>70.3</speed>
<course>283.1</course>
<desc>Speed 70.3 km/h Distance 156 km</desc>
<time>2011-03-24T17:53:50.12</time>
<name>7475</name>
</trkpt>
<trkpt lat="49.371437" lon="8.634945">
<ele>159.5</ele>
<speed>76.5</speed>
<course>296.7</course>
<desc>Speed 76.5 km/h Distance 156 km</desc>
<time>2011-03-24T17:53:51.03</time>
<name>7476</name>
</trkpt>
<trkpt lat="49.371523" lon="8.634680">
<ele>159.5</ele>
<speed>77.5</speed>
<course>303.9</course>
<desc>Speed 77.5 km/h Distance 156 km</desc>
<time>2011-03-24T17:53:52.23</time>
<name>7477</name>
</trkpt>
<trkpt lat="49.371703" lon="8.634268">
<ele>159.0</ele>
<speed>77.5</speed>
<course>308.8</course>
<desc>Speed 77.5 km/h Distance 156 km</desc>
<time>2011-03-24T17:53:54.29</time>
<name>7478</name>
</trkpt>
<trkpt lat="49.371902" lon="8.633890">
<ele>159.0</ele>
<speed>77.5</speed>
<course>314.3</course>
<desc>Speed 77.5 km/h Distance 156 km</desc>
<time>2011-03-24T17:53:57.03</time>
<name>7479</name>
</trkpt>
<trkpt lat="49.372047" lon="8.633662">
<ele>160.0</ele>
<speed>69.1</speed>
<course>320.7</course>
<desc>Speed 69.1 km/h Distance 156 km</desc>
<time>2011-03-24T17:53:58.03</time>
<name>7480</name>
</trkpt>
<trkpt lat="49.372203" lon="8.633465">
<ele>159.5</ele>
<speed>76.7</speed>
<course>318.3</course>
<desc>Speed 76.7 km/h Distance 156 km</desc>
<time>2011-03-24T17:53:59.03</time>
<name>7481</name>
</trkpt>
<trkpt lat="49.372330" lon="8.633292">
<ele>160.0</ele>
<speed>76.7</speed>
<course>323.6</course>
<desc>Speed 76.7 km/h Distance 156 km</desc>
<time>2011-03-24T17:54:00.03</time>
<name>7482</name>
</trkpt>
<trkpt lat="49.372468" lon="8.633135">
<ele>157.5</ele>
<speed>76.7</speed>
<course>344.0</course>
<desc>Speed 76.7 km/h Distance 156 km</desc>
<time>2011-03-24T17:54:01.03</time>
<name>7483</name>
</trkpt>
<trkpt lat="49.372885" lon="8.632952">
<ele>156.5</ele>
<speed>80.2</speed>
<course>356.0</course>
<desc>Speed 80.2 km/h Distance 156 km</desc>
<time>2011-03-24T17:54:04.03</time>
<name>7484</name>
</trkpt>
<trkpt lat="49.373100" lon="8.632928">
<ele>161.0</ele>
<speed>75.2</speed>
<course>356.5</course>
<desc>Speed 75.2 km/h Distance 157 km</desc>
<time>2011-03-24T17:54:05.03</time>
<name>7485</name>
</trkpt>
<trkpt lat="49.373317" lon="8.632908">
<ele>164.5</ele>
<speed>75.2</speed>
<course>3.5</course>
<desc>Speed 75.2 km/h Distance 157 km</desc>
<time>2011-03-24T17:54:06.03</time>
<name>7486</name>
</trkpt>
<trkpt lat="49.373513" lon="8.632927">
<ele>162.0</ele>
<speed>75.0</speed>
<course>3.3</course>
<desc>Speed 75.0 km/h Distance 157 km</desc>
<time>2011-03-24T17:54:07.03</time>
<name>7487</name>
</trkpt>
<trkpt lat="49.373722" lon="8.632945">
<ele>158.0</ele>
<speed>76.0</speed>
<course>4.6</course>
<desc>Speed 76.0 km/h Distance 157 km</desc>
<time>2011-03-24T17:54:08.04</time>
<name>7488</name>
</trkpt>
<trkpt lat="49.373938" lon="8.632972">
<ele>154.0</ele>
<speed>78.7</speed>
<course>6.1</course>
<desc>Speed 78.7 km/h Distance 157 km</desc>
<time>2011-03-24T17:54:09.02</time>
<name>7489</name>
</trkpt>
<trkpt lat="49.374142" lon="8.633005">
<ele>153.0</ele>
<speed>79.3</speed>
<course>5.2</course>
<desc>Speed 79.3 km/h Distance 157 km</desc>
<time>2011-03-24T17:54:10.03</time>
<name>7490</name>
</trkpt>
<trkpt lat="49.374355" lon="8.633035">
<ele>152.5</ele>
<speed>82.3</speed>
<course>3.5</course>
<desc>Speed 82.3 km/h Distance 157 km</desc>
<time>2011-03-24T17:54:11.02</time>
<name>7491</name>
</trkpt>
<trkpt lat="49.374567" lon="8.633055">
<ele>152.5</ele>
<speed>82.4</speed>
<course>2.7</course>
<desc>Speed 82.4 km/h Distance 157 km</desc>
<time>2011-03-24T17:54:12.02</time>
<name>7492</name>
</trkpt>
<trkpt lat="49.374773" lon="8.633070">
<ele>152.5</ele>
<speed>80.8</speed>
<course>4.7</course>
<desc>Speed 80.8 km/h Distance 157 km</desc>
<time>2011-03-24T17:54:13.22</time>
<name>7493</name>
</trkpt>
<trkpt lat="49.375182" lon="8.633122">
<ele>152.5</ele>
<speed>78.1</speed>
<course>8.7</course>
<desc>Speed 78.1 km/h Distance 157 km</desc>
<time>2011-03-24T17:54:15.29</time>
<name>7494</name>
</trkpt>
<trkpt lat="49.375605" lon="8.633222">
<ele>152.5</ele>
<speed>82.3</speed>
<course>11.2</course>
<desc>Speed 82.3 km/h Distance 157 km</desc>
<time>2011-03-24T17:54:17.64</time>
<name>7495</name>
</trkpt>
<trkpt lat="49.376260" lon="8.633420">
<ele>151.5</ele>
<speed>90.8</speed>
<course>13.2</course>
<desc>Speed 90.8 km/h Distance 157 km</desc>
<time>2011-03-24T17:54:20.01</time>
<name>7496</name>
</trkpt>
<trkpt lat="49.376492" lon="8.633503">
<ele>151.0</ele>
<speed>93.9</speed>
<course>14.6</course>
<desc>Speed 93.9 km/h Distance 157 km</desc>
<time>2011-03-24T17:54:21.31</time>
<name>7497</name>
</trkpt>
<trkpt lat="49.376973" lon="8.633697">
<ele>151.5</ele>
<speed>96.9</speed>
<course>15.6</course>
<desc>Speed 96.9 km/h Distance 157 km</desc>
<time>2011-03-24T17:54:23.36</time>
<name>7498</name>
</trkpt>
<trkpt lat="49.377462" lon="8.633907">
<ele>151.5</ele>
<speed>99.2</speed>
<course>17.2</course>
<desc>Speed 99.2 km/h Distance 157 km</desc>
<time>2011-03-24T17:54:25.26</time>
<name>7499</name>
</trkpt>
<trkpt lat="49.377955" lon="8.634142">
<ele>151.5</ele>
<speed>101</speed>
<course>17.7</course>
<desc>Speed 101 km/h Distance 157 km</desc>
<time>2011-03-24T17:54:27.02</time>
<name>7500</name>
</trkpt>
<trkpt lat="49.378207" lon="8.634265">
<ele>150.5</ele>
<speed>103</speed>
<course>19.1</course>
<desc>Speed 103 km/h Distance 157 km</desc>
<time>2011-03-24T17:54:28.02</time>
<name>7501</name>
</trkpt>
<trkpt lat="49.378452" lon="8.634395">
<ele>151.0</ele>
<speed>102</speed>
<course>19.4</course>
<desc>Speed 102 km/h Distance 157 km</desc>
<time>2011-03-24T17:54:29.01</time>
<name>7502</name>
</trkpt>
<trkpt lat="49.378695" lon="8.634527">
<ele>150.5</ele>
<speed>103</speed>
<course>19.2</course>
<desc>Speed 103 km/h Distance 157 km</desc>
<time>2011-03-24T17:54:30.09</time>
<name>7503</name>
</trkpt>
<trkpt lat="49.378938" lon="8.634657">
<ele>150.5</ele>
<speed>102</speed>
<course>19.8</course>
<desc>Speed 102 km/h Distance 157 km</desc>
<time>2011-03-24T17:54:31.00</time>
<name>7504</name>
</trkpt>
<trkpt lat="49.379177" lon="8.634788">
<ele>150.0</ele>
<speed>99.7</speed>
<course>20.3</course>
<desc>Speed 99.7 km/h Distance 157 km</desc>
<time>2011-03-24T17:54:32.15</time>
<name>7505</name>
</trkpt>
<trkpt lat="49.379640" lon="8.635052">
<ele>150.0</ele>
<speed>97.5</speed>
<course>20.4</course>
<desc>Speed 97.5 km/h Distance 157 km</desc>
<time>2011-03-24T17:54:34.21</time>
<name>7506</name>
</trkpt>
<trkpt lat="49.380103" lon="8.635317">
<ele>150.0</ele>
<speed>97.6</speed>
<course>20.0</course>
<desc>Speed 97.6 km/h Distance 157 km</desc>
<time>2011-03-24T17:54:36.28</time>
<name>7507</name>
</trkpt>
<trkpt lat="49.380575" lon="8.635580">
<ele>148.5</ele>
<speed>96.9</speed>
<course>20.5</course>
<desc>Speed 96.9 km/h Distance 157 km</desc>
<time>2011-03-24T17:54:38.51</time>
<name>7508</name>
</trkpt>
<trkpt lat="49.381262" lon="8.635975">
<ele>149.0</ele>
<speed>96.1</speed>
<course>20.0</course>
<desc>Speed 96.1 km/h Distance 157 km</desc>
<time>2011-03-24T17:54:41.00</time>
<name>7509</name>
</trkpt>
<trkpt lat="49.381492" lon="8.636103">
<ele>149.0</ele>
<speed>97.4</speed>
<course>20.9</course>
<desc>Speed 97.4 km/h Distance 157 km</desc>
<time>2011-03-24T17:54:42.17</time>
<name>7510</name>
</trkpt>
<trkpt lat="49.381947" lon="8.636370">
<ele>152.0</ele>
<speed>97.2</speed>
<course>20.2</course>
<desc>Speed 97.2 km/h Distance 158 km</desc>
<time>2011-03-24T17:54:44.01</time>
<name>7511</name>
</trkpt>
<trkpt lat="49.382180" lon="8.636502">
<ele>152.0</ele>
<speed>98.3</speed>
<course>20.4</course>
<desc>Speed 98.3 km/h Distance 158 km</desc>
<time>2011-03-24T17:54:45.00</time>
<name>7512</name>
</trkpt>
<trkpt lat="49.382413" lon="8.636635">
<ele>152.5</ele>
<speed>98.2</speed>
<course>20.1</course>
<desc>Speed 98.2 km/h Distance 158 km</desc>
<time>2011-03-24T17:54:45.99</time>
<name>7513</name>
</trkpt>
<trkpt lat="49.382650" lon="8.636768">
<ele>152.5</ele>
<speed>98.8</speed>
<course>20.3</course>
<desc>Speed 98.8 km/h Distance 158 km</desc>
<time>2011-03-24T17:54:47.06</time>
<name>7514</name>
</trkpt>
<trkpt lat="49.382885" lon="8.636902">
<ele>152.0</ele>
<speed>99.6</speed>
<course>20.7</course>
<desc>Speed 99.6 km/h Distance 158 km</desc>
<time>2011-03-24T17:54:48.00</time>
<name>7515</name>
</trkpt>
<trkpt lat="49.383120" lon="8.637038">
<ele>152.5</ele>
<speed>99.6</speed>
<course>19.9</course>
<desc>Speed 99.6 km/h Distance 158 km</desc>
<time>2011-03-24T17:54:49.12</time>
<name>7516</name>
</trkpt>
<trkpt lat="49.383593" lon="8.637302">
<ele>153.0</ele>
<speed>101</speed>
<course>19.2</course>
<desc>Speed 101 km/h Distance 158 km</desc>
<time>2011-03-24T17:54:51.18</time>
<name>7517</name>
</trkpt>
<trkpt lat="49.384077" lon="8.637560">
<ele>153.0</ele>
<speed>102</speed>
<course>18.0</course>
<desc>Speed 102 km/h Distance 158 km</desc>
<time>2011-03-24T17:54:53.24</time>
<name>7518</name>
</trkpt>
<trkpt lat="49.384563" lon="8.637803">
<ele>154.0</ele>
<speed>103</speed>
<course>16.1</course>
<desc>Speed 103 km/h Distance 158 km</desc>
<time>2011-03-24T17:54:55.37</time>
<name>7519</name>
</trkpt>
<trkpt lat="49.385053" lon="8.638020">
<ele>154.0</ele>
<speed>102</speed>
<course>14.5</course>
<desc>Speed 102 km/h Distance 158 km</desc>
<time>2011-03-24T17:54:56.99</time>
<name>7520</name>
</trkpt>
<trkpt lat="49.385300" lon="8.638118">
<ele>154.0</ele>
<speed>101</speed>
<course>13.3</course>
<desc>Speed 101 km/h Distance 158 km</desc>
<time>2011-03-24T17:54:57.99</time>
<name>7521</name>
</trkpt>
<trkpt lat="49.385553" lon="8.638210">
<ele>153.5</ele>
<speed>102</speed>
<course>13.4</course>
<desc>Speed 102 km/h Distance 158 km</desc>
<time>2011-03-24T17:54:58.99</time>
<name>7522</name>
</trkpt>
<trkpt lat="49.385800" lon="8.638300">
<ele>153.5</ele>
<speed>101</speed>
<course>12.9</course>
<desc>Speed 101 km/h Distance 158 km</desc>
<time>2011-03-24T17:54:59.98</time>
<name>7523</name>
</trkpt>
<trkpt lat="49.386042" lon="8.638385">
<ele>154.5</ele>
<speed>100</speed>
<course>12.2</course>
<desc>Speed 100 km/h Distance 158 km</desc>
<time>2011-03-24T17:55:00.99</time>
<name>7524</name>
</trkpt>
<trkpt lat="49.386283" lon="8.638465">
<ele>155.0</ele>
<speed>99.5</speed>
<course>11.6</course>
<desc>Speed 99.5 km/h Distance 158 km</desc>
<time>2011-03-24T17:55:01.98</time>
<name>7525</name>
</trkpt>
<trkpt lat="49.386527" lon="8.638542">
<ele>155.0</ele>
<speed>98.4</speed>
<course>10.7</course>
<desc>Speed 98.4 km/h Distance 158 km</desc>
<time>2011-03-24T17:55:02.98</time>
<name>7526</name>
</trkpt>
<trkpt lat="49.386768" lon="8.638612">
<ele>155.5</ele>
<speed>98.8</speed>
<course>8.9</course>
<desc>Speed 98.8 km/h Distance 158 km</desc>
<time>2011-03-24T17:55:03.98</time>
<name>7527</name>
</trkpt>
<trkpt lat="49.387017" lon="8.638672">
<ele>155.0</ele>
<speed>99.6</speed>
<course>8.3</course>
<desc>Speed 99.6 km/h Distance 158 km</desc>
<time>2011-03-24T17:55:04.99</time>
<name>7528</name>
</trkpt>
<trkpt lat="49.387262" lon="8.638727">
<ele>155.5</ele>
<speed>99.3</speed>
<course>8.1</course>
<desc>Speed 99.3 km/h Distance 158 km</desc>
<time>2011-03-24T17:55:05.98</time>
<name>7529</name>
</trkpt>
<trkpt lat="49.387505" lon="8.638780">
<ele>155.5</ele>
<speed>98.0</speed>
<course>7.4</course>
<desc>Speed 98.0 km/h Distance 158 km</desc>
<time>2011-03-24T17:55:06.98</time>
<name>7530</name>
</trkpt>
<trkpt lat="49.387748" lon="8.638828">
<ele>155.0</ele>
<speed>97.6</speed>
<course>6.9</course>
<desc>Speed 97.6 km/h Distance 158 km</desc>
<time>2011-03-24T17:55:07.99</time>
<name>7531</name>
</trkpt>
<trkpt lat="49.387990" lon="8.638873">
<ele>155.0</ele>
<speed>96.7</speed>
<course>6.1</course>
<desc>Speed 96.7 km/h Distance 158 km</desc>
<time>2011-03-24T17:55:08.98</time>
<name>7532</name>
</trkpt>
<trkpt lat="49.388232" lon="8.638913">
<ele>155.0</ele>
<speed>97.0</speed>
<course>4.3</course>
<desc>Speed 97.0 km/h Distance 158 km</desc>
<time>2011-03-24T17:55:10.14</time>
<name>7533</name>
</trkpt>
<trkpt lat="49.388712" lon="8.638968">
<ele>154.5</ele>
<speed>94.9</speed>
<course>2.8</course>
<desc>Speed 94.9 km/h Distance 158 km</desc>
<time>2011-03-24T17:55:12.26</time>
<name>7534</name>
</trkpt>
<trkpt lat="49.389185" lon="8.639003">
<ele>153.5</ele>
<speed>93.8</speed>
<course>1.4</course>
<desc>Speed 93.8 km/h Distance 158 km</desc>
<time>2011-03-24T17:55:14.41</time>
<name>7535</name>
</trkpt>
<trkpt lat="49.389660" lon="8.639022">
<ele>152.0</ele>
<speed>94.0</speed>
<course>359.9</course>
<desc>Speed 94.0 km/h Distance 158 km</desc>
<time>2011-03-24T17:55:16.56</time>
<name>7536</name>
</trkpt>
<trkpt lat="49.390348" lon="8.639020">
<ele>151.0</ele>
<speed>94.9</speed>
<course>357.7</course>
<desc>Speed 94.9 km/h Distance 158 km</desc>
<time>2011-03-24T17:55:18.96</time>
<name>7537</name>
</trkpt>
<trkpt lat="49.390590" lon="8.639005">
<ele>150.5</ele>
<speed>94.9</speed>
<course>357.1</course>
<desc>Speed 94.9 km/h Distance 159 km</desc>
<time>2011-03-24T17:55:19.97</time>
<name>7538</name>
</trkpt>
<trkpt lat="49.390827" lon="8.638987">
<ele>150.5</ele>
<speed>95.3</speed>
<course>356.3</course>
<desc>Speed 95.3 km/h Distance 159 km</desc>
<time>2011-03-24T17:55:20.97</time>
<name>7539</name>
</trkpt>
<trkpt lat="49.391063" lon="8.638963">
<ele>150.5</ele>
<speed>94.9</speed>
<course>355.4</course>
<desc>Speed 94.9 km/h Distance 159 km</desc>
<time>2011-03-24T17:55:21.97</time>
<name>7540</name>
</trkpt>
<trkpt lat="49.391303" lon="8.638933">
<ele>150.0</ele>
<speed>97.4</speed>
<course>355.2</course>
<desc>Speed 97.4 km/h Distance 159 km</desc>
<time>2011-03-24T17:55:22.96</time>
<name>7541</name>
</trkpt>
<trkpt lat="49.391547" lon="8.638902">
<ele>149.5</ele>
<speed>97.8</speed>
<course>355.1</course>
<desc>Speed 97.8 km/h Distance 159 km</desc>
<time>2011-03-24T17:55:23.97</time>
<name>7542</name>
</trkpt>
<trkpt lat="49.391785" lon="8.638870">
<ele>149.0</ele>
<speed>96.0</speed>
<course>354.7</course>
<desc>Speed 96.0 km/h Distance 159 km</desc>
<time>2011-03-24T17:55:25.01</time>
<name>7543</name>
</trkpt>
<trkpt lat="49.392032" lon="8.638835">
<ele>149.5</ele>
<speed>98.9</speed>
<course>355.2</course>
<desc>Speed 98.9 km/h Distance 159 km</desc>
<time>2011-03-24T17:55:25.96</time>
<name>7544</name>
</trkpt>
<trkpt lat="49.392520" lon="8.638772">
<ele>148.5</ele>
<speed>99.3</speed>
<course>355.0</course>
<desc>Speed 99.3 km/h Distance 159 km</desc>
<time>2011-03-24T17:55:27.96</time>
<name>7545</name>
</trkpt>
<trkpt lat="49.393267" lon="8.638672">
<ele>148.5</ele>
<speed>99.9</speed>
<course>353.5</course>
<desc>Speed 99.9 km/h Distance 159 km</desc>
<time>2011-03-24T17:55:30.98</time>
<name>7546</name>
</trkpt>
<trkpt lat="49.393513" lon="8.638628">
<ele>148.5</ele>
<speed>99.3</speed>
<course>353.2</course>
<desc>Speed 99.3 km/h Distance 159 km</desc>
<time>2011-03-24T17:55:31.96</time>
<name>7547</name>
</trkpt>
<trkpt lat="49.393758" lon="8.638583">
<ele>149.0</ele>
<speed>97.8</speed>
<course>353.9</course>
<desc>Speed 97.8 km/h Distance 159 km</desc>
<time>2011-03-24T17:55:32.96</time>
<name>7548</name>
</trkpt>
<trkpt lat="49.393992" lon="8.638545">
<ele>149.5</ele>
<speed>97.5</speed>
<course>354.4</course>
<desc>Speed 97.5 km/h Distance 159 km</desc>
<time>2011-03-24T17:55:33.97</time>
<name>7549</name>
</trkpt>
<trkpt lat="49.394233" lon="8.638508">
<ele>150.5</ele>
<speed>96.2</speed>
<course>354.7</course>
<desc>Speed 96.2 km/h Distance 159 km</desc>
<time>2011-03-24T17:55:34.96</time>
<name>7550</name>
</trkpt>
<trkpt lat="49.394467" lon="8.638475">
<ele>151.0</ele>
<speed>95.5</speed>
<course>354.5</course>
<desc>Speed 95.5 km/h Distance 159 km</desc>
<time>2011-03-24T17:55:35.96</time>
<name>7551</name>
</trkpt>
<trkpt lat="49.394705" lon="8.638440">
<ele>151.0</ele>
<speed>95.8</speed>
<course>355.0</course>
<desc>Speed 95.8 km/h Distance 159 km</desc>
<time>2011-03-24T17:55:36.97</time>
<name>7552</name>
</trkpt>
<trkpt lat="49.394942" lon="8.638408">
<ele>151.5</ele>
<speed>95.0</speed>
<course>355.3</course>
<desc>Speed 95.0 km/h Distance 159 km</desc>
<time>2011-03-24T17:55:37.96</time>
<name>7553</name>
</trkpt>
<trkpt lat="49.395180" lon="8.638378">
<ele>151.5</ele>
<speed>95.1</speed>
<course>354.8</course>
<desc>Speed 95.1 km/h Distance 159 km</desc>
<time>2011-03-24T17:55:38.95</time>
<name>7554</name>
</trkpt>
<trkpt lat="49.395418" lon="8.638345">
<ele>151.5</ele>
<speed>95.1</speed>
<course>355.4</course>
<desc>Speed 95.1 km/h Distance 159 km</desc>
<time>2011-03-24T17:55:40.04</time>
<name>7555</name>
</trkpt>
<trkpt lat="49.395658" lon="8.638315">
<ele>152.0</ele>
<speed>94.9</speed>
<course>355.3</course>
<desc>Speed 94.9 km/h Distance 159 km</desc>
<time>2011-03-24T17:55:40.95</time>
<name>7556</name>
</trkpt>
<trkpt lat="49.395897" lon="8.638285">
<ele>152.5</ele>
<speed>94.9</speed>
<course>354.4</course>
<desc>Speed 94.9 km/h Distance 159 km</desc>
<time>2011-03-24T17:55:42.10</time>
<name>7557</name>
</trkpt>
<trkpt lat="49.396372" lon="8.638213">
<ele>152.5</ele>
<speed>95.8</speed>
<course>354.7</course>
<desc>Speed 95.8 km/h Distance 159 km</desc>
<time>2011-03-24T17:55:44.27</time>
<name>7558</name>
</trkpt>
<trkpt lat="49.396860" lon="8.638143">
<ele>152.5</ele>
<speed>98.5</speed>
<course>355.1</course>
<desc>Speed 98.5 km/h Distance 159 km</desc>
<time>2011-03-24T17:55:45.99</time>
<name>7559</name>
</trkpt>
<trkpt lat="49.397113" lon="8.638110">
<ele>153.0</ele>
<speed>101</speed>
<course>355.6</course>
<desc>Speed 101 km/h Distance 159 km</desc>
<time>2011-03-24T17:55:46.95</time>
<name>7560</name>
</trkpt>
<trkpt lat="49.397368" lon="8.638080">
<ele>153.0</ele>
<speed>102</speed>
<course>355.2</course>
<desc>Speed 102 km/h Distance 159 km</desc>
<time>2011-03-24T17:55:47.95</time>
<name>7561</name>
</trkpt>
<trkpt lat="49.397628" lon="8.638047">
<ele>153.0</ele>
<speed>103</speed>
<course>355.5</course>
<desc>Speed 103 km/h Distance 159 km</desc>
<time>2011-03-24T17:55:48.94</time>
<name>7562</name>
</trkpt>
<trkpt lat="49.397888" lon="8.638015">
<ele>153.0</ele>
<speed>104</speed>
<course>355.5</course>
<desc>Speed 104 km/h Distance 159 km</desc>
<time>2011-03-24T17:55:49.95</time>
<name>7563</name>
</trkpt>
<trkpt lat="49.398148" lon="8.637983">
<ele>153.0</ele>
<speed>103</speed>
<course>355.4</course>
<desc>Speed 103 km/h Distance 159 km</desc>
<time>2011-03-24T17:55:50.94</time>
<name>7564</name>
</trkpt>
<trkpt lat="49.398407" lon="8.637952">
<ele>153.5</ele>
<speed>104</speed>
<course>355.4</course>
<desc>Speed 104 km/h Distance 159 km</desc>
<time>2011-03-24T17:55:51.95</time>
<name>7565</name>
</trkpt>
<trkpt lat="49.398665" lon="8.637920">
<ele>153.5</ele>
<speed>104</speed>
<course>355.0</course>
<desc>Speed 104 km/h Distance 159 km</desc>
<time>2011-03-24T17:55:52.99</time>
<name>7566</name>
</trkpt>
<trkpt lat="49.398927" lon="8.637885">
<ele>154.0</ele>
<speed>104</speed>
<course>355.2</course>
<desc>Speed 104 km/h Distance 159 km</desc>
<time>2011-03-24T17:55:53.94</time>
<name>7567</name>
</trkpt>
<trkpt lat="49.399185" lon="8.637852">
<ele>154.0</ele>
<speed>104</speed>
<course>355.2</course>
<desc>Speed 104 km/h Distance 159 km</desc>
<time>2011-03-24T17:55:55.05</time>
<name>7568</name>
</trkpt>
<trkpt lat="49.399445" lon="8.637818">
<ele>154.0</ele>
<speed>104</speed>
<course>354.8</course>
<desc>Speed 104 km/h Distance 160 km</desc>
<time>2011-03-24T17:55:55.96</time>
<name>7569</name>
</trkpt>
<trkpt lat="49.399705" lon="8.637782">
<ele>153.5</ele>
<speed>104</speed>
<course>355.6</course>
<desc>Speed 104 km/h Distance 160 km</desc>
<time>2011-03-24T17:55:57.12</time>
<name>7570</name>
</trkpt>
<trkpt lat="49.400215" lon="8.637722">
<ele>154.5</ele>
<speed>103</speed>
<course>355.4</course>
<desc>Speed 103 km/h Distance 160 km</desc>
<time>2011-03-24T17:55:59.18</time>
<name>7571</name>
</trkpt>
<trkpt lat="49.400725" lon="8.637658">
<ele>154.5</ele>
<speed>101</speed>
<course>355.1</course>
<desc>Speed 101 km/h Distance 160 km</desc>
<time>2011-03-24T17:56:00.93</time>
<name>7572</name>
</trkpt>
<trkpt lat="49.400980" lon="8.637625">
<ele>154.5</ele>
<speed>102</speed>
<course>354.9</course>
<desc>Speed 102 km/h Distance 160 km</desc>
<time>2011-03-24T17:56:01.93</time>
<name>7573</name>
</trkpt>
<trkpt lat="49.401233" lon="8.637590">
<ele>154.5</ele>
<speed>102</speed>
<course>354.8</course>
<desc>Speed 102 km/h Distance 160 km</desc>
<time>2011-03-24T17:56:02.99</time>
<name>7574</name>
</trkpt>
<trkpt lat="49.401745" lon="8.637518">
<ele>154.5</ele>
<speed>103</speed>
<course>354.5</course>
<desc>Speed 103 km/h Distance 160 km</desc>
<time>2011-03-24T17:56:05.07</time>
<name>7575</name>
</trkpt>
<trkpt lat="49.402252" lon="8.637443">
<ele>154.5</ele>
<speed>101</speed>
<course>354.9</course>
<desc>Speed 101 km/h Distance 160 km</desc>
<time>2011-03-24T17:56:07.12</time>
<name>7576</name>
</trkpt>
<trkpt lat="49.402748" lon="8.637375">
<ele>155.0</ele>
<speed>99.6</speed>
<course>355.4</course>
<desc>Speed 99.6 km/h Distance 160 km</desc>
<time>2011-03-24T17:56:08.93</time>
<name>7577</name>
</trkpt>
<trkpt lat="49.403238" lon="8.637315">
<ele>155.0</ele>
<speed>98.4</speed>
<course>355.4</course>
<desc>Speed 98.4 km/h Distance 160 km</desc>
<time>2011-03-24T17:56:11.02</time>
<name>7578</name>
</trkpt>
<trkpt lat="49.403725" lon="8.637255">
<ele>156.0</ele>
<speed>97.5</speed>
<course>355.1</course>
<desc>Speed 97.5 km/h Distance 160 km</desc>
<time>2011-03-24T17:56:12.92</time>
<name>7579</name>
</trkpt>
<trkpt lat="49.404208" lon="8.637192">
<ele>156.0</ele>
<speed>97.2</speed>
<course>354.8</course>
<desc>Speed 97.2 km/h Distance 160 km</desc>
<time>2011-03-24T17:56:14.92</time>
<name>7580</name>
</trkpt>
<trkpt lat="49.404700" lon="8.637123">
<ele>157.0</ele>
<speed>99.1</speed>
<course>355.1</course>
<desc>Speed 99.1 km/h Distance 160 km</desc>
<time>2011-03-24T17:56:16.92</time>
<name>7581</name>
</trkpt>
<trkpt lat="49.405202" lon="8.637057">
<ele>157.0</ele>
<speed>101</speed>
<course>356.0</course>
<desc>Speed 101 km/h Distance 160 km</desc>
<time>2011-03-24T17:56:18.92</time>
<name>7582</name>
</trkpt>
<trkpt lat="49.405697" lon="8.637003">
<ele>157.5</ele>
<speed>100</speed>
<course>353.1</course>
<desc>Speed 100 km/h Distance 160 km</desc>
<time>2011-03-24T17:56:20.92</time>
<name>7583</name>
</trkpt>
<trkpt lat="49.406165" lon="8.636917">
<ele>157.5</ele>
<speed>96.7</speed>
<course>350.4</course>
<desc>Speed 96.7 km/h Distance 160 km</desc>
<time>2011-03-24T17:56:22.93</time>
<name>7584</name>
</trkpt>
<trkpt lat="49.406653" lon="8.636790">
<ele>158.0</ele>
<speed>98.5</speed>
<course>348.8</course>
<desc>Speed 98.5 km/h Distance 160 km</desc>
<time>2011-03-24T17:56:24.92</time>
<name>7585</name>
</trkpt>
<trkpt lat="49.406895" lon="8.636717">
<ele>158.5</ele>
<speed>98.5</speed>
<course>348.4</course>
<desc>Speed 98.5 km/h Distance 160 km</desc>
<time>2011-03-24T17:56:25.92</time>
<name>7586</name>
</trkpt>
<trkpt lat="49.407138" lon="8.636640">
<ele>158.5</ele>
<speed>98.7</speed>
<course>347.8</course>
<desc>Speed 98.7 km/h Distance 160 km</desc>
<time>2011-03-24T17:56:26.91</time>
<name>7587</name>
</trkpt>
<trkpt lat="49.407383" lon="8.636558">
<ele>158.0</ele>
<speed>99.5</speed>
<course>347.3</course>
<desc>Speed 99.5 km/h Distance 160 km</desc>
<time>2011-03-24T17:56:27.93</time>
<name>7588</name>
</trkpt>
<trkpt lat="49.407628" lon="8.636473">
<ele>158.0</ele>
<speed>99.6</speed>
<course>347.0</course>
<desc>Speed 99.6 km/h Distance 160 km</desc>
<time>2011-03-24T17:56:28.94</time>
<name>7589</name>
</trkpt>
<trkpt lat="49.408120" lon="8.636298">
<ele>156.5</ele>
<speed>99.9</speed>
<course>345.7</course>
<desc>Speed 99.9 km/h Distance 160 km</desc>
<time>2011-03-24T17:56:31.31</time>
<name>7590</name>
</trkpt>
<trkpt lat="49.408848" lon="8.636013">
<ele>155.0</ele>
<speed>98.8</speed>
<course>344.8</course>
<desc>Speed 98.8 km/h Distance 161 km</desc>
<time>2011-03-24T17:56:33.91</time>
<name>7591</name>
</trkpt>
<trkpt lat="49.409088" lon="8.635913">
<ele>155.0</ele>
<speed>98.7</speed>
<course>344.6</course>
<desc>Speed 98.7 km/h Distance 161 km</desc>
<time>2011-03-24T17:56:34.90</time>
<name>7592</name>
</trkpt>
<trkpt lat="49.409325" lon="8.635813">
<ele>155.5</ele>
<speed>98.0</speed>
<course>346.1</course>
<desc>Speed 98.0 km/h Distance 161 km</desc>
<time>2011-03-24T17:56:35.90</time>
<name>7593</name>
</trkpt>
<trkpt lat="49.409575" lon="8.635718">
<ele>152.5</ele>
<speed>98.8</speed>
<course>345.1</course>
<desc>Speed 98.8 km/h Distance 161 km</desc>
<time>2011-03-24T17:56:36.91</time>
<name>7594</name>
</trkpt>
<trkpt lat="49.409807" lon="8.635623">
<ele>154.0</ele>
<speed>95.7</speed>
<course>345.9</course>
<desc>Speed 95.7 km/h Distance 161 km</desc>
<time>2011-03-24T17:56:37.91</time>
<name>7595</name>
</trkpt>
<trkpt lat="49.410043" lon="8.635532">
<ele>153.5</ele>
<speed>97.6</speed>
<course>346.0</course>
<desc>Speed 97.6 km/h Distance 161 km</desc>
<time>2011-03-24T17:56:38.91</time>
<name>7596</name>
</trkpt>
<trkpt lat="49.410287" lon="8.635438">
<ele>152.5</ele>
<speed>99.1</speed>
<course>346.6</course>
<desc>Speed 99.1 km/h Distance 161 km</desc>
<time>2011-03-24T17:56:40.14</time>
<name>7597</name>
</trkpt>
<trkpt lat="49.410777" lon="8.635258">
<ele>148.0</ele>
<speed>97.3</speed>
<course>346.3</course>
<desc>Speed 97.3 km/h Distance 161 km</desc>
<time>2011-03-24T17:56:42.08</time>
<name>7598</name>
</trkpt>
<trkpt lat="49.411253" lon="8.635080">
<ele>147.5</ele>
<speed>97.6</speed>
<course>347.3</course>
<desc>Speed 97.6 km/h Distance 161 km</desc>
<time>2011-03-24T17:56:44.45</time>
<name>7599</name>
</trkpt>
<trkpt lat="49.411970" lon="8.634832">
<ele>148.0</ele>
<speed>97.9</speed>
<course>347.8</course>
<desc>Speed 97.9 km/h Distance 161 km</desc>
<time>2011-03-24T17:56:46.89</time>
<name>7600</name>
</trkpt>
<trkpt lat="49.412207" lon="8.634753">
<ele>149.0</ele>
<speed>97.9</speed>
<course>348.2</course>
<desc>Speed 97.9 km/h Distance 161 km</desc>
<time>2011-03-24T17:56:47.89</time>
<name>7601</name>
</trkpt>
<trkpt lat="49.412445" lon="8.634677">
<ele>150.5</ele>
<speed>98.4</speed>
<course>348.9</course>
<desc>Speed 98.4 km/h Distance 161 km</desc>
<time>2011-03-24T17:56:48.90</time>
<name>7602</name>
</trkpt>
<trkpt lat="49.412927" lon="8.634532">
<ele>154.5</ele>
<speed>99.7</speed>
<course>349.2</course>
<desc>Speed 99.7 km/h Distance 161 km</desc>
<time>2011-03-24T17:56:50.90</time>
<name>7603</name>
</trkpt>
<trkpt lat="49.413170" lon="8.634460">
<ele>155.5</ele>
<speed>99.8</speed>
<course>349.7</course>
<desc>Speed 99.8 km/h Distance 161 km</desc>
<time>2011-03-24T17:56:51.89</time>
<name>7604</name>
</trkpt>
<trkpt lat="49.413415" lon="8.634392">
<ele>157.0</ele>
<speed>99.9</speed>
<course>350.6</course>
<desc>Speed 99.9 km/h Distance 161 km</desc>
<time>2011-03-24T17:56:52.89</time>
<name>7605</name>
</trkpt>
<trkpt lat="49.413665" lon="8.634328">
<ele>157.0</ele>
<speed>101</speed>
<course>350.9</course>
<desc>Speed 101 km/h Distance 161 km</desc>
<time>2011-03-24T17:56:53.89</time>
<name>7606</name>
</trkpt>
<trkpt lat="49.413915" lon="8.634267">
<ele>157.5</ele>
<speed>101</speed>
<course>351.4</course>
<desc>Speed 101 km/h Distance 161 km</desc>
<time>2011-03-24T17:56:54.89</time>
<name>7607</name>
</trkpt>
<trkpt lat="49.414165" lon="8.634208">
<ele>158.0</ele>
<speed>101</speed>
<course>352.5</course>
<desc>Speed 101 km/h Distance 161 km</desc>
<time>2011-03-24T17:56:55.90</time>
<name>7608</name>
</trkpt>
<trkpt lat="49.414667" lon="8.634107">
<ele>159.5</ele>
<speed>101</speed>
<course>353.4</course>
<desc>Speed 101 km/h Distance 161 km</desc>
<time>2011-03-24T17:56:57.89</time>
<name>7609</name>
</trkpt>
<trkpt lat="49.414918" lon="8.634062">
<ele>160.0</ele>
<speed>101</speed>
<course>353.2</course>
<desc>Speed 101 km/h Distance 161 km</desc>
<time>2011-03-24T17:56:58.88</time>
<name>7610</name>
</trkpt>
<trkpt lat="49.415172" lon="8.634015">
<ele>160.0</ele>
<speed>101</speed>
<course>353.6</course>
<desc>Speed 101 km/h Distance 161 km</desc>
<time>2011-03-24T17:56:59.88</time>
<name>7611</name>
</trkpt>
<trkpt lat="49.415423" lon="8.633972">
<ele>160.5</ele>
<speed>101</speed>
<course>353.9</course>
<desc>Speed 101 km/h Distance 161 km</desc>
<time>2011-03-24T17:57:00.88</time>
<name>7612</name>
</trkpt>
<trkpt lat="49.415677" lon="8.633930">
<ele>160.5</ele>
<speed>102</speed>
<course>354.1</course>
<desc>Speed 102 km/h Distance 161 km</desc>
<time>2011-03-24T17:57:01.96</time>
<name>7613</name>
</trkpt>
<trkpt lat="49.415928" lon="8.633890">
<ele>161.0</ele>
<speed>102</speed>
<course>355.9</course>
<desc>Speed 102 km/h Distance 161 km</desc>
<time>2011-03-24T17:57:02.88</time>
<name>7614</name>
</trkpt>
<trkpt lat="49.416433" lon="8.633835">
<ele>162.5</ele>
<speed>102</speed>
<course>356.4</course>
<desc>Speed 102 km/h Distance 161 km</desc>
<time>2011-03-24T17:57:04.88</time>
<name>7615</name>
</trkpt>
<trkpt lat="49.416688" lon="8.633810">
<ele>162.5</ele>
<speed>102</speed>
<course>357.1</course>
<desc>Speed 102 km/h Distance 161 km</desc>
<time>2011-03-24T17:57:05.98</time>
<name>7616</name>
</trkpt>
<trkpt lat="49.416943" lon="8.633790">
<ele>162.5</ele>
<speed>102</speed>
<course>357.3</course>
<desc>Speed 102 km/h Distance 161 km</desc>
<time>2011-03-24T17:57:06.88</time>
<name>7617</name>
</trkpt>
<trkpt lat="49.417198" lon="8.633772">
<ele>162.5</ele>
<speed>102</speed>
<course>357.8</course>
<desc>Speed 102 km/h Distance 162 km</desc>
<time>2011-03-24T17:57:07.87</time>
<name>7618</name>
</trkpt>
<trkpt lat="49.417455" lon="8.633757">
<ele>162.5</ele>
<speed>102</speed>
<course>357.8</course>
<desc>Speed 102 km/h Distance 162 km</desc>
<time>2011-03-24T17:57:08.87</time>
<name>7619</name>
</trkpt>
<trkpt lat="49.417712" lon="8.633742">
<ele>162.5</ele>
<speed>102</speed>
<course>358.3</course>
<desc>Speed 102 km/h Distance 162 km</desc>
<time>2011-03-24T17:57:09.87</time>
<name>7620</name>
</trkpt>
<trkpt lat="49.417968" lon="8.633730">
<ele>162.5</ele>
<speed>102</speed>
<course>358.3</course>
<desc>Speed 102 km/h Distance 162 km</desc>
<time>2011-03-24T17:57:10.87</time>
<name>7621</name>
</trkpt>
<trkpt lat="49.418223" lon="8.633718">
<ele>162.5</ele>
<speed>102</speed>
<course>359.2</course>
<desc>Speed 102 km/h Distance 162 km</desc>
<time>2011-03-24T17:57:11.87</time>
<name>7622</name>
</trkpt>
<trkpt lat="49.418733" lon="8.633707">
<ele>161.5</ele>
<speed>101</speed>
<course>359.5</course>
<desc>Speed 101 km/h Distance 162 km</desc>
<time>2011-03-24T17:57:13.87</time>
<name>7623</name>
</trkpt>
<trkpt lat="49.418987" lon="8.633703">
<ele>161.5</ele>
<speed>101</speed>
<course>0.0</course>
<desc>Speed 101 km/h Distance 162 km</desc>
<time>2011-03-24T17:57:14.98</time>
<name>7624</name>
</trkpt>
<trkpt lat="49.419498" lon="8.633703">
<ele>159.5</ele>
<speed>102</speed>
<course>0.7</course>
<desc>Speed 102 km/h Distance 162 km</desc>
<time>2011-03-24T17:57:16.87</time>
<name>7625</name>
</trkpt>
<trkpt lat="49.419753" lon="8.633708">
<ele>159.0</ele>
<speed>102</speed>
<course>1.5</course>
<desc>Speed 102 km/h Distance 162 km</desc>
<time>2011-03-24T17:57:17.87</time>
<name>7626</name>
</trkpt>
<trkpt lat="49.420008" lon="8.633718">
<ele>159.0</ele>
<speed>102</speed>
<course>2.2</course>
<desc>Speed 102 km/h Distance 162 km</desc>
<time>2011-03-24T17:57:18.87</time>
<name>7627</name>
</trkpt>
<trkpt lat="49.420263" lon="8.633733">
<ele>158.5</ele>
<speed>102</speed>
<course>2.4</course>
<desc>Speed 102 km/h Distance 162 km</desc>
<time>2011-03-24T17:57:19.86</time>
<name>7628</name>
</trkpt>
<trkpt lat="49.420518" lon="8.633750">
<ele>158.0</ele>
<speed>102</speed>
<course>3.1</course>
<desc>Speed 102 km/h Distance 162 km</desc>
<time>2011-03-24T17:57:20.86</time>
<name>7629</name>
</trkpt>
<trkpt lat="49.421032" lon="8.633793">
<ele>157.5</ele>
<speed>103</speed>
<course>3.9</course>
<desc>Speed 103 km/h Distance 162 km</desc>
<time>2011-03-24T17:57:22.86</time>
<name>7630</name>
</trkpt>
<trkpt lat="49.421287" lon="8.633820">
<ele>157.0</ele>
<speed>103</speed>
<course>4.4</course>
<desc>Speed 103 km/h Distance 162 km</desc>
<time>2011-03-24T17:57:23.86</time>
<name>7631</name>
</trkpt>
<trkpt lat="49.421542" lon="8.633850">
<ele>157.5</ele>
<speed>103</speed>
<course>5.0</course>
<desc>Speed 103 km/h Distance 162 km</desc>
<time>2011-03-24T17:57:24.86</time>
<name>7632</name>
</trkpt>
<trkpt lat="49.422065" lon="8.633920">
<ele>157.0</ele>
<speed>107</speed>
<course>6.2</course>
<desc>Speed 107 km/h Distance 162 km</desc>
<time>2011-03-24T17:57:26.86</time>
<name>7633</name>
</trkpt>
<trkpt lat="49.422347" lon="8.633967">
<ele>157.0</ele>
<speed>114</speed>
<course>6.6</course>
<desc>Speed 114 km/h Distance 162 km</desc>
<time>2011-03-24T17:57:27.86</time>
<name>7634</name>
</trkpt>
<trkpt lat="49.422628" lon="8.634017">
<ele>156.5</ele>
<speed>113</speed>
<course>6.8</course>
<desc>Speed 113 km/h Distance 162 km</desc>
<time>2011-03-24T17:57:28.86</time>
<name>7635</name>
</trkpt>
<trkpt lat="49.422902" lon="8.634067">
<ele>156.5</ele>
<speed>111</speed>
<course>7.4</course>
<desc>Speed 111 km/h Distance 162 km</desc>
<time>2011-03-24T17:57:29.86</time>
<name>7636</name>
</trkpt>
<trkpt lat="49.423168" lon="8.634120">
<ele>156.5</ele>
<speed>108</speed>
<course>7.6</course>
<desc>Speed 108 km/h Distance 162 km</desc>
<time>2011-03-24T17:57:30.94</time>
<name>7637</name>
</trkpt>
<trkpt lat="49.423427" lon="8.634173">
<ele>157.0</ele>
<speed>105</speed>
<course>8.0</course>
<desc>Speed 105 km/h Distance 162 km</desc>
<time>2011-03-24T17:57:31.85</time>
<name>7638</name>
</trkpt>
<trkpt lat="49.423922" lon="8.634280">
<ele>157.0</ele>
<speed>98.7</speed>
<course>8.4</course>
<desc>Speed 98.7 km/h Distance 162 km</desc>
<time>2011-03-24T17:57:33.85</time>
<name>7639</name>
</trkpt>
<trkpt lat="49.424165" lon="8.634335">
<ele>157.0</ele>
<speed>98.6</speed>
<course>8.1</course>
<desc>Speed 98.6 km/h Distance 162 km</desc>
<time>2011-03-24T17:57:34.93</time>
<name>7640</name>
</trkpt>
<trkpt lat="49.424410" lon="8.634388">
<ele>156.5</ele>
<speed>99.7</speed>
<course>8.7</course>
<desc>Speed 99.7 km/h Distance 162 km</desc>
<time>2011-03-24T17:57:35.86</time>
<name>7641</name>
</trkpt>
<trkpt lat="49.424657" lon="8.634447">
<ele>156.5</ele>
<speed>99.9</speed>
<course>9.2</course>
<desc>Speed 99.9 km/h Distance 162 km</desc>
<time>2011-03-24T17:57:36.86</time>
<name>7642</name>
</trkpt>
<trkpt lat="49.424905" lon="8.634508">
<ele>156.5</ele>
<speed>100</speed>
<course>10.0</course>
<desc>Speed 100 km/h Distance 162 km</desc>
<time>2011-03-24T17:57:37.85</time>
<name>7643</name>
</trkpt>
<trkpt lat="49.425150" lon="8.634575">
<ele>156.5</ele>
<speed>100.0</speed>
<course>10.9</course>
<desc>Speed 100.0 km/h Distance 162 km</desc>
<time>2011-03-24T17:57:38.85</time>
<name>7644</name>
</trkpt>
<trkpt lat="49.425387" lon="8.634645">
<ele>156.5</ele>
<speed>97.1</speed>
<course>11.7</course>
<desc>Speed 97.1 km/h Distance 162 km</desc>
<time>2011-03-24T17:57:39.85</time>
<name>7645</name>
</trkpt>
<trkpt lat="49.425617" lon="8.634718">
<ele>156.5</ele>
<speed>94.3</speed>
<course>12.0</course>
<desc>Speed 94.3 km/h Distance 162 km</desc>
<time>2011-03-24T17:57:40.85</time>
<name>7646</name>
</trkpt>
<trkpt lat="49.426085" lon="8.634872">
<ele>156.5</ele>
<speed>97.2</speed>
<course>13.2</course>
<desc>Speed 97.2 km/h Distance 163 km</desc>
<time>2011-03-24T17:57:42.85</time>
<name>7647</name>
</trkpt>
<trkpt lat="49.426838" lon="8.635143">
<ele>156.0</ele>
<speed>106</speed>
<course>14.5</course>
<desc>Speed 106 km/h Distance 163 km</desc>
<time>2011-03-24T17:57:46.16</time>
<name>7648</name>
</trkpt>
<trkpt lat="49.427355" lon="8.635348">
<ele>156.0</ele>
<speed>107</speed>
<course>15.6</course>
<desc>Speed 107 km/h Distance 163 km</desc>
<time>2011-03-24T17:57:47.84</time>
<name>7649</name>
</trkpt>
<trkpt lat="49.427840" lon="8.635557">
<ele>156.0</ele>
<speed>98.7</speed>
<course>16.3</course>
<desc>Speed 98.7 km/h Distance 163 km</desc>
<time>2011-03-24T17:57:49.84</time>
<name>7650</name>
</trkpt>
<trkpt lat="49.428295" lon="8.635762">
<ele>156.0</ele>
<speed>93.6</speed>
<course>17.1</course>
<desc>Speed 93.6 km/h Distance 163 km</desc>
<time>2011-03-24T17:57:51.84</time>
<name>7651</name>
</trkpt>
<trkpt lat="49.428742" lon="8.635973">
<ele>155.5</ele>
<speed>93.1</speed>
<course>17.8</course>
<desc>Speed 93.1 km/h Distance 163 km</desc>
<time>2011-03-24T17:57:53.84</time>
<name>7652</name>
</trkpt>
<trkpt lat="49.429183" lon="8.636192">
<ele>156.0</ele>
<speed>93.3</speed>
<course>19.8</course>
<desc>Speed 93.3 km/h Distance 163 km</desc>
<time>2011-03-24T17:57:58.82</time>
<name>7653</name>
</trkpt>
<trkpt lat="49.430997" lon="8.637197">
<ele>156.0</ele>
<speed>95.3</speed>
<course>21.6</course>
<desc>Speed 95.3 km/h Distance 163 km</desc>
<time>2011-03-24T17:58:03.82</time>
<name>7654</name>
</trkpt>
<trkpt lat="49.431235" lon="8.637342">
<ele>155.5</ele>
<speed>102</speed>
<course>22.2</course>
<desc>Speed 102 km/h Distance 163 km</desc>
<time>2011-03-24T17:58:04.82</time>
<name>7655</name>
</trkpt>
<trkpt lat="49.431445" lon="8.637473">
<ele>155.5</ele>
<speed>91.1</speed>
<course>22.1</course>
<desc>Speed 91.1 km/h Distance 163 km</desc>
<time>2011-03-24T17:58:05.77</time>
<name>7656</name>
</trkpt>
<trkpt lat="49.431658" lon="8.637607">
<ele>155.5</ele>
<speed>92.9</speed>
<course>22.7</course>
<desc>Speed 92.9 km/h Distance 163 km</desc>
<time>2011-03-24T17:58:06.82</time>
<name>7657</name>
</trkpt>
<trkpt lat="49.431850" lon="8.637730">
<ele>155.5</ele>
<speed>83.7</speed>
<course>22.8</course>
<desc>Speed 83.7 km/h Distance 163 km</desc>
<time>2011-03-24T17:58:07.77</time>
<name>7658</name>
</trkpt>
<trkpt lat="49.432043" lon="8.637855">
<ele>155.5</ele>
<speed>83.7</speed>
<course>23.2</course>
<desc>Speed 83.7 km/h Distance 163 km</desc>
<time>2011-03-24T17:58:08.80</time>
<name>7659</name>
</trkpt>
<trkpt lat="49.432243" lon="8.637987">
<ele>155.5</ele>
<speed>88.0</speed>
<course>22.9</course>
<desc>Speed 88.0 km/h Distance 163 km</desc>
<time>2011-03-24T17:58:09.81</time>
<name>7660</name>
</trkpt>
<trkpt lat="49.432443" lon="8.638117">
<ele>155.5</ele>
<speed>87.3</speed>
<course>24.1</course>
<desc>Speed 87.3 km/h Distance 163 km</desc>
<time>2011-03-24T17:58:10.80</time>
<name>7661</name>
</trkpt>
<trkpt lat="49.432640" lon="8.638252">
<ele>157.0</ele>
<speed>87.1</speed>
<course>23.8</course>
<desc>Speed 87.1 km/h Distance 163 km</desc>
<time>2011-03-24T17:58:11.83</time>
<name>7662</name>
</trkpt>
<trkpt lat="49.432800" lon="8.638360">
<ele>157.5</ele>
<speed>87.1</speed>
<course>24.0</course>
<desc>Speed 87.1 km/h Distance 163 km</desc>
<time>2011-03-24T17:58:12.77</time>
<name>7663</name>
</trkpt>
<trkpt lat="49.433007" lon="8.638502">
<ele>158.0</ele>
<speed>89.4</speed>
<course>22.7</course>
<desc>Speed 89.4 km/h Distance 163 km</desc>
<time>2011-03-24T17:58:13.77</time>
<name>7664</name>
</trkpt>
<trkpt lat="49.433217" lon="8.638637">
<ele>158.5</ele>
<speed>89.7</speed>
<course>24.8</course>
<desc>Speed 89.7 km/h Distance 163 km</desc>
<time>2011-03-24T17:58:14.76</time>
<name>7665</name>
</trkpt>
<trkpt lat="49.433413" lon="8.638777">
<ele>158.0</ele>
<speed>82.9</speed>
<course>24.0</course>
<desc>Speed 82.9 km/h Distance 163 km</desc>
<time>2011-03-24T17:58:15.76</time>
<name>7666</name>
</trkpt>
<trkpt lat="49.433778" lon="8.639027">
<ele>160.0</ele>
<speed>81.8</speed>
<course>13.6</course>
<desc>Speed 81.8 km/h Distance 163 km</desc>
<time>2011-03-24T17:58:17.76</time>
<name>7667</name>
</trkpt>
<trkpt lat="49.434087" lon="8.639142">
<ele>160.0</ele>
<speed>70.9</speed>
<course>25.2</course>
<desc>Speed 70.9 km/h Distance 163 km</desc>
<time>2011-03-24T17:58:19.80</time>
<name>7668</name>
</trkpt>
<trkpt lat="49.434255" lon="8.639263">
<ele>160.5</ele>
<speed>69.7</speed>
<course>25.7</course>
<desc>Speed 69.7 km/h Distance 163 km</desc>
<time>2011-03-24T17:58:20.81</time>
<name>7669</name>
</trkpt>
<trkpt lat="49.434622" lon="8.639535">
<ele>162.0</ele>
<speed>79.1</speed>
<course>24.9</course>
<desc>Speed 79.1 km/h Distance 164 km</desc>
<time>2011-03-24T17:58:22.80</time>
<name>7670</name>
</trkpt>
<trkpt lat="49.435270" lon="8.639998">
<ele>158.0</ele>
<speed>86.4</speed>
<course>24.6</course>
<desc>Speed 86.4 km/h Distance 164 km</desc>
<time>2011-03-24T17:58:25.74</time>
<name>7671</name>
</trkpt>
<trkpt lat="49.435675" lon="8.640283">
<ele>158.0</ele>
<speed>86.7</speed>
<course>24.6</course>
<desc>Speed 86.7 km/h Distance 164 km</desc>
<time>2011-03-24T17:58:31.91</time>
<name>7672</name>
</trkpt>
<trkpt lat="49.437762" lon="8.641752">
<ele>167.0</ele>
<speed>92.1</speed>
<course>22.9</course>
<desc>Speed 92.1 km/h Distance 164 km</desc>
<time>2011-03-24T17:58:37.74</time>
<name>7673</name>
</trkpt>
<trkpt lat="49.438185" lon="8.642027">
<ele>168.0</ele>
<speed>92.3</speed>
<course>22.1</course>
<desc>Speed 92.3 km/h Distance 164 km</desc>
<time>2011-03-24T17:58:39.73</time>
<name>7674</name>
</trkpt>
<trkpt lat="49.438612" lon="8.642293">
<ele>168.5</ele>
<speed>92.7</speed>
<course>21.5</course>
<desc>Speed 92.7 km/h Distance 164 km</desc>
<time>2011-03-24T17:58:41.73</time>
<name>7675</name>
</trkpt>
<trkpt lat="49.439043" lon="8.642555">
<ele>168.5</ele>
<speed>93.4</speed>
<course>20.9</course>
<desc>Speed 93.4 km/h Distance 164 km</desc>
<time>2011-03-24T17:58:43.73</time>
<name>7676</name>
</trkpt>
<trkpt lat="49.439480" lon="8.642812">
<ele>168.5</ele>
<speed>94.6</speed>
<course>20.7</course>
<desc>Speed 94.6 km/h Distance 164 km</desc>
<time>2011-03-24T17:58:45.73</time>
<name>7677</name>
</trkpt>
<trkpt lat="49.439933" lon="8.643075">
<ele>169.0</ele>
<speed>97.5</speed>
<course>20.5</course>
<desc>Speed 97.5 km/h Distance 164 km</desc>
<time>2011-03-24T17:58:47.73</time>
<name>7678</name>
</trkpt>
<trkpt lat="49.440412" lon="8.643350">
<ele>168.5</ele>
<speed>103</speed>
<course>18.3</course>
<desc>Speed 103 km/h Distance 164 km</desc>
<time>2011-03-24T17:58:49.74</time>
<name>7679</name>
</trkpt>
<trkpt lat="49.440877" lon="8.643587">
<ele>168.5</ele>
<speed>93.3</speed>
<course>18.3</course>
<desc>Speed 93.3 km/h Distance 164 km</desc>
<time>2011-03-24T17:58:51.73</time>
<name>7680</name>
</trkpt>
<trkpt lat="49.441310" lon="8.643807">
<ele>168.0</ele>
<speed>91.2</speed>
<course>17.6</course>
<desc>Speed 91.2 km/h Distance 164 km</desc>
<time>2011-03-24T17:58:53.73</time>
<name>7681</name>
</trkpt>
<trkpt lat="49.441743" lon="8.644018">
<ele>167.5</ele>
<speed>90.9</speed>
<course>16.9</course>
<desc>Speed 90.9 km/h Distance 164 km</desc>
<time>2011-03-24T17:58:55.74</time>
<name>7682</name>
</trkpt>
<trkpt lat="49.442190" lon="8.644227">
<ele>166.5</ele>
<speed>94.1</speed>
<course>16.3</course>
<desc>Speed 94.1 km/h Distance 164 km</desc>
<time>2011-03-24T17:58:57.72</time>
<name>7683</name>
</trkpt>
<trkpt lat="49.442657" lon="8.644437">
<ele>166.0</ele>
<speed>97.8</speed>
<course>15.7</course>
<desc>Speed 97.8 km/h Distance 164 km</desc>
<time>2011-03-24T17:58:59.72</time>
<name>7684</name>
</trkpt>
<trkpt lat="49.443127" lon="8.644640">
<ele>165.5</ele>
<speed>97.7</speed>
<course>14.8</course>
<desc>Speed 97.7 km/h Distance 165 km</desc>
<time>2011-03-24T17:59:01.72</time>
<name>7685</name>
</trkpt>
<trkpt lat="49.443595" lon="8.644830">
<ele>165.0</ele>
<speed>96.5</speed>
<course>13.9</course>
<desc>Speed 96.5 km/h Distance 165 km</desc>
<time>2011-03-24T17:59:03.73</time>
<name>7686</name>
</trkpt>
<trkpt lat="49.444053" lon="8.645005">
<ele>164.0</ele>
<speed>93.9</speed>
<course>13.6</course>
<desc>Speed 93.9 km/h Distance 165 km</desc>
<time>2011-03-24T17:59:05.72</time>
<name>7687</name>
</trkpt>
<trkpt lat="49.444498" lon="8.645170">
<ele>164.0</ele>
<speed>91.5</speed>
<course>12.9</course>
<desc>Speed 91.5 km/h Distance 165 km</desc>
<time>2011-03-24T17:59:07.71</time>
<name>7688</name>
</trkpt>
<trkpt lat="49.444938" lon="8.645325">
<ele>163.0</ele>
<speed>90.5</speed>
<course>12.2</course>
<desc>Speed 90.5 km/h Distance 165 km</desc>
<time>2011-03-24T17:59:09.71</time>
<name>7689</name>
</trkpt>
<trkpt lat="49.445388" lon="8.645475">
<ele>162.5</ele>
<speed>92.7</speed>
<course>11.6</course>
<desc>Speed 92.7 km/h Distance 165 km</desc>
<time>2011-03-24T17:59:11.71</time>
<name>7690</name>
</trkpt>
<trkpt lat="49.445848" lon="8.645620">
<ele>162.0</ele>
<speed>94.8</speed>
<course>11.2</course>
<desc>Speed 94.8 km/h Distance 165 km</desc>
<time>2011-03-24T17:59:13.72</time>
<name>7691</name>
</trkpt>
<trkpt lat="49.446315" lon="8.645762">
<ele>161.5</ele>
<speed>95.9</speed>
<course>10.4</course>
<desc>Speed 95.9 km/h Distance 165 km</desc>
<time>2011-03-24T17:59:15.72</time>
<name>7692</name>
</trkpt>
<trkpt lat="49.446798" lon="8.645898">
<ele>161.5</ele>
<speed>99.3</speed>
<course>9.5</course>
<desc>Speed 99.3 km/h Distance 165 km</desc>
<time>2011-03-24T17:59:17.71</time>
<name>7693</name>
</trkpt>
<trkpt lat="49.447297" lon="8.646027">
<ele>160.5</ele>
<speed>102</speed>
<course>8.7</course>
<desc>Speed 102 km/h Distance 165 km</desc>
<time>2011-03-24T17:59:19.71</time>
<name>7694</name>
</trkpt>
<trkpt lat="49.447813" lon="8.646148">
<ele>160.0</ele>
<speed>106</speed>
<course>8.2</course>
<desc>Speed 106 km/h Distance 165 km</desc>
<time>2011-03-24T17:59:21.71</time>
<name>7695</name>
</trkpt>
<trkpt lat="49.448377" lon="8.646273">
<ele>159.5</ele>
<speed>116</speed>
<course>7.1</course>
<desc>Speed 116 km/h Distance 165 km</desc>
<time>2011-03-24T17:59:23.70</time>
<name>7696</name>
</trkpt>
<trkpt lat="49.448963" lon="8.646385">
<ele>158.5</ele>
<speed>118</speed>
<course>5.8</course>
<desc>Speed 118 km/h Distance 165 km</desc>
<time>2011-03-24T17:59:25.71</time>
<name>7697</name>
</trkpt>
<trkpt lat="49.449540" lon="8.646475">
<ele>158.5</ele>
<speed>116</speed>
<course>5.0</course>
<desc>Speed 116 km/h Distance 165 km</desc>
<time>2011-03-24T17:59:27.70</time>
<name>7698</name>
</trkpt>
<trkpt lat="49.450105" lon="8.646552">
<ele>158.0</ele>
<speed>113</speed>
<course>5.0</course>
<desc>Speed 113 km/h Distance 165 km</desc>
<time>2011-03-24T17:59:29.70</time>
<name>7699</name>
</trkpt>
<trkpt lat="49.450652" lon="8.646625">
<ele>157.5</ele>
<speed>109</speed>
<course>4.0</course>
<desc>Speed 109 km/h Distance 165 km</desc>
<time>2011-03-24T17:59:31.70</time>
<name>7700</name>
</trkpt>
<trkpt lat="49.451192" lon="8.646683">
<ele>157.0</ele>
<speed>107</speed>
<course>3.0</course>
<desc>Speed 107 km/h Distance 165 km</desc>
<time>2011-03-24T17:59:33.70</time>
<name>7701</name>
</trkpt>
<trkpt lat="49.451732" lon="8.646727">
<ele>156.0</ele>
<speed>107</speed>
<course>2.1</course>
<desc>Speed 107 km/h Distance 166 km</desc>
<time>2011-03-24T17:59:35.69</time>
<name>7702</name>
</trkpt>
<trkpt lat="49.452285" lon="8.646758">
<ele>155.5</ele>
<speed>110</speed>
<course>1.8</course>
<desc>Speed 110 km/h Distance 166 km</desc>
<time>2011-03-24T17:59:37.69</time>
<name>7703</name>
</trkpt>
<trkpt lat="49.452845" lon="8.646785">
<ele>155.5</ele>
<speed>112</speed>
<course>1.0</course>
<desc>Speed 112 km/h Distance 166 km</desc>
<time>2011-03-24T17:59:39.69</time>
<name>7704</name>
</trkpt>
<trkpt lat="49.453420" lon="8.646800">
<ele>154.5</ele>
<speed>113</speed>
<course>0.8</course>
<desc>Speed 113 km/h Distance 166 km</desc>
<time>2011-03-24T17:59:41.69</time>
<name>7705</name>
</trkpt>
<trkpt lat="49.453997" lon="8.646812">
<ele>153.5</ele>
<speed>112</speed>
<course>359.7</course>
<desc>Speed 112 km/h Distance 166 km</desc>
<time>2011-03-24T17:59:43.69</time>
<name>7706</name>
</trkpt>
<trkpt lat="49.454550" lon="8.646807">
<ele>153.0</ele>
<speed>110</speed>
<course>358.6</course>
<desc>Speed 110 km/h Distance 166 km</desc>
<time>2011-03-24T17:59:45.69</time>
<name>7707</name>
</trkpt>
<trkpt lat="49.455093" lon="8.646787">
<ele>153.0</ele>
<speed>108</speed>
<course>357.7</course>
<desc>Speed 108 km/h Distance 166 km</desc>
<time>2011-03-24T17:59:47.70</time>
<name>7708</name>
</trkpt>
<trkpt lat="49.455635" lon="8.646753">
<ele>153.0</ele>
<speed>109</speed>
<course>357.5</course>
<desc>Speed 109 km/h Distance 166 km</desc>
<time>2011-03-24T17:59:49.69</time>
<name>7709</name>
</trkpt>
<trkpt lat="49.456165" lon="8.646718">
<ele>153.0</ele>
<speed>106</speed>
<course>356.6</course>
<desc>Speed 106 km/h Distance 166 km</desc>
<time>2011-03-24T17:59:51.69</time>
<name>7710</name>
</trkpt>
<trkpt lat="49.456688" lon="8.646670">
<ele>153.5</ele>
<speed>105</speed>
<course>355.0</course>
<desc>Speed 105 km/h Distance 166 km</desc>
<time>2011-03-24T17:59:53.69</time>
<name>7711</name>
</trkpt>
<trkpt lat="49.457207" lon="8.646600">
<ele>154.0</ele>
<speed>105</speed>
<course>354.8</course>
<desc>Speed 105 km/h Distance 166 km</desc>
<time>2011-03-24T17:59:55.69</time>
<name>7712</name>
</trkpt>
<trkpt lat="49.457732" lon="8.646527">
<ele>154.0</ele>
<speed>106</speed>
<course>354.3</course>
<desc>Speed 106 km/h Distance 166 km</desc>
<time>2011-03-24T17:59:57.68</time>
<name>7713</name>
</trkpt>
<trkpt lat="49.458255" lon="8.646447">
<ele>154.5</ele>
<speed>106</speed>
<course>353.5</course>
<desc>Speed 106 km/h Distance 166 km</desc>
<time>2011-03-24T17:59:59.68</time>
<name>7714</name>
</trkpt>
<trkpt lat="49.458782" lon="8.646355">
<ele>154.5</ele>
<speed>107</speed>
<course>352.8</course>
<desc>Speed 107 km/h Distance 166 km</desc>
<time>2011-03-24T18:00:01.68</time>
<name>7715</name>
</trkpt>
<trkpt lat="49.459310" lon="8.646252">
<ele>156.0</ele>
<speed>108</speed>
<course>352.3</course>
<desc>Speed 108 km/h Distance 166 km</desc>
<time>2011-03-24T18:00:03.68</time>
<name>7716</name>
</trkpt>
<trkpt lat="49.459830" lon="8.646143">
<ele>157.0</ele>
<speed>105</speed>
<course>351.9</course>
<desc>Speed 105 km/h Distance 166 km</desc>
<time>2011-03-24T18:00:05.69</time>
<name>7717</name>
</trkpt>
<trkpt lat="49.460353" lon="8.646028">
<ele>157.5</ele>
<speed>106</speed>
<course>351.7</course>
<desc>Speed 106 km/h Distance 166 km</desc>
<time>2011-03-24T18:00:07.67</time>
<name>7718</name>
</trkpt>
<trkpt lat="49.460885" lon="8.645908">
<ele>157.5</ele>
<speed>108</speed>
<course>351.1</course>
<desc>Speed 108 km/h Distance 167 km</desc>
<time>2011-03-24T18:00:09.67</time>
<name>7719</name>
</trkpt>
<trkpt lat="49.461423" lon="8.645778">
<ele>157.5</ele>
<speed>109</speed>
<course>350.5</course>
<desc>Speed 109 km/h Distance 167 km</desc>
<time>2011-03-24T18:00:11.67</time>
<name>7720</name>
</trkpt>
<trkpt lat="49.461962" lon="8.645640">
<ele>157.5</ele>
<speed>108</speed>
<course>349.7</course>
<desc>Speed 108 km/h Distance 167 km</desc>
<time>2011-03-24T18:00:13.67</time>
<name>7721</name>
</trkpt>
<trkpt lat="49.462500" lon="8.645490">
<ele>157.5</ele>
<speed>109</speed>
<course>349.8</course>
<desc>Speed 109 km/h Distance 167 km</desc>
<time>2011-03-24T18:00:15.66</time>
<name>7722</name>
</trkpt>
<trkpt lat="49.463035" lon="8.645342">
<ele>158.0</ele>
<speed>109</speed>
<course>349.9</course>
<desc>Speed 109 km/h Distance 167 km</desc>
<time>2011-03-24T18:00:17.66</time>
<name>7723</name>
</trkpt>
<trkpt lat="49.463593" lon="8.645188">
<ele>156.0</ele>
<speed>118</speed>
<course>348.5</course>
<desc>Speed 118 km/h Distance 167 km</desc>
<time>2011-03-24T18:00:19.66</time>
<name>7724</name>
</trkpt>
<trkpt lat="49.464138" lon="8.645018">
<ele>156.5</ele>
<speed>113</speed>
<course>347.9</course>
<desc>Speed 113 km/h Distance 167 km</desc>
<time>2011-03-24T18:00:21.67</time>
<name>7725</name>
</trkpt>
<trkpt lat="49.464683" lon="8.644838">
<ele>157.5</ele>
<speed>113</speed>
<course>347.9</course>
<desc>Speed 113 km/h Distance 167 km</desc>
<time>2011-03-24T18:00:23.66</time>
<name>7726</name>
</trkpt>
<trkpt lat="49.465233" lon="8.644657">
<ele>158.0</ele>
<speed>114</speed>
<course>347.5</course>
<desc>Speed 114 km/h Distance 167 km</desc>
<time>2011-03-24T18:00:25.66</time>
<name>7727</name>
</trkpt>
<trkpt lat="49.465783" lon="8.644468">
<ele>158.0</ele>
<speed>113</speed>
<course>347.2</course>
<desc>Speed 113 km/h Distance 167 km</desc>
<time>2011-03-24T18:00:27.66</time>
<name>7728</name>
</trkpt>
<trkpt lat="49.466330" lon="8.644277">
<ele>158.5</ele>
<speed>111</speed>
<course>346.7</course>
<desc>Speed 111 km/h Distance 167 km</desc>
<time>2011-03-24T18:00:29.66</time>
<name>7729</name>
</trkpt>
<trkpt lat="49.466870" lon="8.644080">
<ele>159.0</ele>
<speed>111</speed>
<course>347.2</course>
<desc>Speed 111 km/h Distance 167 km</desc>
<time>2011-03-24T18:00:31.65</time>
<name>7730</name>
</trkpt>
<trkpt lat="49.467408" lon="8.643892">
<ele>159.5</ele>
<speed>110</speed>
<course>347.0</course>
<desc>Speed 110 km/h Distance 167 km</desc>
<time>2011-03-24T18:00:33.65</time>
<name>7731</name>
</trkpt>
<trkpt lat="49.467948" lon="8.643700">
<ele>159.5</ele>
<speed>111</speed>
<course>346.6</course>
<desc>Speed 111 km/h Distance 167 km</desc>
<time>2011-03-24T18:00:35.65</time>
<name>7732</name>
</trkpt>
<trkpt lat="49.468507" lon="8.643495">
<ele>160.0</ele>
<speed>116</speed>
<course>346.2</course>
<desc>Speed 116 km/h Distance 167 km</desc>
<time>2011-03-24T18:00:37.65</time>
<name>7733</name>
</trkpt>
<trkpt lat="49.469135" lon="8.643257">
<ele>160.5</ele>
<speed>131</speed>
<course>346.5</course>
<desc>Speed 131 km/h Distance 167 km</desc>
<time>2011-03-24T18:00:39.65</time>
<name>7734</name>
</trkpt>
<trkpt lat="49.469765" lon="8.643023">
<ele>160.5</ele>
<speed>127</speed>
<course>346.4</course>
<desc>Speed 127 km/h Distance 168 km</desc>
<time>2011-03-24T18:00:41.66</time>
<name>7735</name>
</trkpt>
<trkpt lat="49.470325" lon="8.642815">
<ele>161.0</ele>
<speed>114</speed>
<course>346.5</course>
<desc>Speed 114 km/h Distance 168 km</desc>
<time>2011-03-24T18:00:43.64</time>
<name>7736</name>
</trkpt>
<trkpt lat="49.470867" lon="8.642615">
<ele>161.0</ele>
<speed>111</speed>
<course>346.0</course>
<desc>Speed 111 km/h Distance 168 km</desc>
<time>2011-03-24T18:00:45.64</time>
<name>7737</name>
</trkpt>
<trkpt lat="49.471408" lon="8.642407">
<ele>161.5</ele>
<speed>112</speed>
<course>345.9</course>
<desc>Speed 112 km/h Distance 168 km</desc>
<time>2011-03-24T18:00:47.64</time>
<name>7738</name>
</trkpt>
<trkpt lat="49.471953" lon="8.642197">
<ele>161.5</ele>
<speed>113</speed>
<course>346.6</course>
<desc>Speed 113 km/h Distance 168 km</desc>
<time>2011-03-24T18:00:49.64</time>
<name>7739</name>
</trkpt>
<trkpt lat="49.472498" lon="8.641997">
<ele>161.0</ele>
<speed>113</speed>
<course>346.4</course>
<desc>Speed 113 km/h Distance 168 km</desc>
<time>2011-03-24T18:00:51.64</time>
<name>7740</name>
</trkpt>
<trkpt lat="49.473042" lon="8.641795">
<ele>160.5</ele>
<speed>111</speed>
<course>347.1</course>
<desc>Speed 111 km/h Distance 168 km</desc>
<time>2011-03-24T18:00:53.64</time>
<name>7741</name>
</trkpt>
<trkpt lat="49.473320" lon="8.641697">
<ele>160.0</ele>
<speed>114</speed>
<course>347.4</course>
<desc>Speed 114 km/h Distance 168 km</desc>
<time>2011-03-24T18:00:54.64</time>
<name>7742</name>
</trkpt>
<trkpt lat="49.473597" lon="8.641602">
<ele>159.5</ele>
<speed>115</speed>
<course>348.1</course>
<desc>Speed 115 km/h Distance 168 km</desc>
<time>2011-03-24T18:00:55.65</time>
<name>7743</name>
</trkpt>
<trkpt lat="49.473883" lon="8.641508">
<ele>160.5</ele>
<speed>118</speed>
<course>346.7</course>
<desc>Speed 118 km/h Distance 168 km</desc>
<time>2011-03-24T18:00:56.64</time>
<name>7744</name>
</trkpt>
<trkpt lat="49.474158" lon="8.641408">
<ele>160.5</ele>
<speed>115</speed>
<course>346.7</course>
<desc>Speed 115 km/h Distance 168 km</desc>
<time>2011-03-24T18:00:57.65</time>
<name>7745</name>
</trkpt>
<trkpt lat="49.474438" lon="8.641307">
<ele>161.0</ele>
<speed>115</speed>
<course>347.0</course>
<desc>Speed 115 km/h Distance 168 km</desc>
<time>2011-03-24T18:00:58.63</time>
<name>7746</name>
</trkpt>
<trkpt lat="49.474725" lon="8.641205">
<ele>161.0</ele>
<speed>117</speed>
<course>347.1</course>
<desc>Speed 117 km/h Distance 168 km</desc>
<time>2011-03-24T18:00:59.63</time>
<name>7747</name>
</trkpt>
<trkpt lat="49.475013" lon="8.641103">
<ele>161.5</ele>
<speed>118</speed>
<course>347.5</course>
<desc>Speed 118 km/h Distance 168 km</desc>
<time>2011-03-24T18:01:00.63</time>
<name>7748</name>
</trkpt>
<trkpt lat="49.475302" lon="8.641005">
<ele>162.0</ele>
<speed>117</speed>
<course>347.5</course>
<desc>Speed 117 km/h Distance 168 km</desc>
<time>2011-03-24T18:01:01.63</time>
<name>7749</name>
</trkpt>
<trkpt lat="49.475585" lon="8.640908">
<ele>162.0</ele>
<speed>115</speed>
<course>347.9</course>
<desc>Speed 115 km/h Distance 168 km</desc>
<time>2011-03-24T18:01:02.63</time>
<name>7750</name>
</trkpt>
<trkpt lat="49.475862" lon="8.640817">
<ele>162.5</ele>
<speed>114</speed>
<course>347.8</course>
<desc>Speed 114 km/h Distance 168 km</desc>
<time>2011-03-24T18:01:03.64</time>
<name>7751</name>
</trkpt>
<trkpt lat="49.476137" lon="8.640725">
<ele>162.0</ele>
<speed>114</speed>
<course>348.2</course>
<desc>Speed 114 km/h Distance 168 km</desc>
<time>2011-03-24T18:01:04.63</time>
<name>7752</name>
</trkpt>
<trkpt lat="49.476412" lon="8.640637">
<ele>161.5</ele>
<speed>114</speed>
<course>348.3</course>
<desc>Speed 114 km/h Distance 168 km</desc>
<time>2011-03-24T18:01:05.63</time>
<name>7753</name>
</trkpt>
<trkpt lat="49.476688" lon="8.640548">
<ele>161.5</ele>
<speed>114</speed>
<course>348.3</course>
<desc>Speed 114 km/h Distance 168 km</desc>
<time>2011-03-24T18:01:06.63</time>
<name>7754</name>
</trkpt>
<trkpt lat="49.476965" lon="8.640460">
<ele>161.0</ele>
<speed>114</speed>
<course>348.6</course>
<desc>Speed 114 km/h Distance 168 km</desc>
<time>2011-03-24T18:01:07.63</time>
<name>7755</name>
</trkpt>
<trkpt lat="49.477245" lon="8.640373">
<ele>161.0</ele>
<speed>115</speed>
<course>349.3</course>
<desc>Speed 115 km/h Distance 168 km</desc>
<time>2011-03-24T18:01:08.63</time>
<name>7756</name>
</trkpt>
<trkpt lat="49.477527" lon="8.640292">
<ele>161.0</ele>
<speed>115</speed>
<course>349.3</course>
<desc>Speed 115 km/h Distance 168 km</desc>
<time>2011-03-24T18:01:09.63</time>
<name>7757</name>
</trkpt>
<trkpt lat="49.477807" lon="8.640210">
<ele>161.5</ele>
<speed>114</speed>
<course>349.6</course>
<desc>Speed 114 km/h Distance 168 km</desc>
<time>2011-03-24T18:01:10.64</time>
<name>7758</name>
</trkpt>
<trkpt lat="49.478095" lon="8.640128">
<ele>162.0</ele>
<speed>116</speed>
<course>350.0</course>
<desc>Speed 116 km/h Distance 168 km</desc>
<time>2011-03-24T18:01:11.63</time>
<name>7759</name>
</trkpt>
<trkpt lat="49.478388" lon="8.640048">
<ele>161.5</ele>
<speed>119</speed>
<course>350.1</course>
<desc>Speed 119 km/h Distance 169 km</desc>
<time>2011-03-24T18:01:12.63</time>
<name>7760</name>
</trkpt>
<trkpt lat="49.478700" lon="8.639965">
<ele>162.0</ele>
<speed>126</speed>
<course>350.1</course>
<desc>Speed 126 km/h Distance 169 km</desc>
<time>2011-03-24T18:01:13.63</time>
<name>7761</name>
</trkpt>
<trkpt lat="49.479015" lon="8.639880">
<ele>161.5</ele>
<speed>128</speed>
<course>350.2</course>
<desc>Speed 128 km/h Distance 169 km</desc>
<time>2011-03-24T18:01:14.62</time>
<name>7762</name>
</trkpt>
<trkpt lat="49.479358" lon="8.639788">
<ele>161.0</ele>
<speed>140</speed>
<course>350.5</course>
<desc>Speed 140 km/h Distance 169 km</desc>
<time>2011-03-24T18:01:15.63</time>
<name>7763</name>
</trkpt>
<trkpt lat="49.479707" lon="8.639698">
<ele>161.5</ele>
<speed>141</speed>
<course>350.9</course>
<desc>Speed 141 km/h Distance 169 km</desc>
<time>2011-03-24T18:01:16.64</time>
<name>7764</name>
</trkpt>
<trkpt lat="49.480053" lon="8.639613">
<ele>161.5</ele>
<speed>141</speed>
<course>351.5</course>
<desc>Speed 141 km/h Distance 169 km</desc>
<time>2011-03-24T18:01:17.62</time>
<name>7765</name>
</trkpt>
<trkpt lat="49.480395" lon="8.639535">
<ele>161.0</ele>
<speed>139</speed>
<course>351.9</course>
<desc>Speed 139 km/h Distance 169 km</desc>
<time>2011-03-24T18:01:18.62</time>
<name>7766</name>
</trkpt>
<trkpt lat="49.480728" lon="8.639462">
<ele>161.0</ele>
<speed>134</speed>
<course>352.6</course>
<desc>Speed 134 km/h Distance 169 km</desc>
<time>2011-03-24T18:01:19.63</time>
<name>7767</name>
</trkpt>
<trkpt lat="49.481055" lon="8.639397">
<ele>161.0</ele>
<speed>132</speed>
<course>353.0</course>
<desc>Speed 132 km/h Distance 169 km</desc>
<time>2011-03-24T18:01:20.62</time>
<name>7768</name>
</trkpt>
<trkpt lat="49.481382" lon="8.639335">
<ele>161.0</ele>
<speed>131</speed>
<course>353.3</course>
<desc>Speed 131 km/h Distance 169 km</desc>
<time>2011-03-24T18:01:21.62</time>
<name>7769</name>
</trkpt>
<trkpt lat="49.481707" lon="8.639277">
<ele>160.5</ele>
<speed>131</speed>
<course>353.4</course>
<desc>Speed 131 km/h Distance 169 km</desc>
<time>2011-03-24T18:01:22.62</time>
<name>7770</name>
</trkpt>
<trkpt lat="49.482033" lon="8.639218">
<ele>160.5</ele>
<speed>131</speed>
<course>354.2</course>
<desc>Speed 131 km/h Distance 169 km</desc>
<time>2011-03-24T18:01:23.62</time>
<name>7771</name>
</trkpt>
<trkpt lat="49.482363" lon="8.639167">
<ele>160.0</ele>
<speed>132</speed>
<course>354.2</course>
<desc>Speed 132 km/h Distance 169 km</desc>
<time>2011-03-24T18:01:24.62</time>
<name>7772</name>
</trkpt>
<trkpt lat="49.482695" lon="8.639115">
<ele>160.0</ele>
<speed>133</speed>
<course>354.9</course>
<desc>Speed 133 km/h Distance 169 km</desc>
<time>2011-03-24T18:01:25.62</time>
<name>7773</name>
</trkpt>
<trkpt lat="49.483035" lon="8.639068">
<ele>160.0</ele>
<speed>136</speed>
<course>355.4</course>
<desc>Speed 136 km/h Distance 169 km</desc>
<time>2011-03-24T18:01:26.62</time>
<name>7774</name>
</trkpt>
<trkpt lat="49.483382" lon="8.639025">
<ele>159.5</ele>
<speed>139</speed>
<course>356.0</course>
<desc>Speed 139 km/h Distance 169 km</desc>
<time>2011-03-24T18:01:27.62</time>
<name>7775</name>
</trkpt>
<trkpt lat="49.483750" lon="8.638985">
<ele>159.5</ele>
<speed>147</speed>
<course>356.4</course>
<desc>Speed 147 km/h Distance 169 km</desc>
<time>2011-03-24T18:01:28.62</time>
<name>7776</name>
</trkpt>
<trkpt lat="49.484128" lon="8.638948">
<ele>158.5</ele>
<speed>150</speed>
<course>357.1</course>
<desc>Speed 150 km/h Distance 169 km</desc>
<time>2011-03-24T18:01:29.62</time>
<name>7777</name>
</trkpt>
<trkpt lat="49.484497" lon="8.638920">
<ele>158.0</ele>
<speed>146</speed>
<course>357.6</course>
<desc>Speed 146 km/h Distance 169 km</desc>
<time>2011-03-24T18:01:30.63</time>
<name>7778</name>
</trkpt>
<trkpt lat="49.484853" lon="8.638897">
<ele>157.5</ele>
<speed>142</speed>
<course>358.6</course>
<desc>Speed 142 km/h Distance 169 km</desc>
<time>2011-03-24T18:01:31.62</time>
<name>7779</name>
</trkpt>
<trkpt lat="49.485198" lon="8.638883">
<ele>157.0</ele>
<speed>138</speed>
<course>358.0</course>
<desc>Speed 138 km/h Distance 169 km</desc>
<time>2011-03-24T18:01:32.62</time>
<name>7780</name>
</trkpt>
<trkpt lat="49.485543" lon="8.638865">
<ele>157.0</ele>
<speed>137</speed>
<course>358.6</course>
<desc>Speed 137 km/h Distance 169 km</desc>
<time>2011-03-24T18:01:33.62</time>
<name>7781</name>
</trkpt>
<trkpt lat="49.485887" lon="8.638852">
<ele>157.5</ele>
<speed>137</speed>
<course>358.4</course>
<desc>Speed 137 km/h Distance 169 km</desc>
<time>2011-03-24T18:01:34.61</time>
<name>7782</name>
</trkpt>
<trkpt lat="49.486235" lon="8.638837">
<ele>157.0</ele>
<speed>140</speed>
<course>358.8</course>
<desc>Speed 140 km/h Distance 169 km</desc>
<time>2011-03-24T18:01:35.63</time>
<name>7783</name>
</trkpt>
<trkpt lat="49.486588" lon="8.638825">
<ele>157.0</ele>
<speed>141</speed>
<course>358.8</course>
<desc>Speed 141 km/h Distance 169 km</desc>
<time>2011-03-24T18:01:36.62</time>
<name>7784</name>
</trkpt>
<trkpt lat="49.486962" lon="8.638813">
<ele>156.0</ele>
<speed>149</speed>
<course>359.7</course>
<desc>Speed 149 km/h Distance 169 km</desc>
<time>2011-03-24T18:01:37.62</time>
<name>7785</name>
</trkpt>
<trkpt lat="49.487335" lon="8.638810">
<ele>156.0</ele>
<speed>149</speed>
<course>0.5</course>
<desc>Speed 149 km/h Distance 170 km</desc>
<time>2011-03-24T18:01:38.61</time>
<name>7786</name>
</trkpt>
<trkpt lat="49.487720" lon="8.638815">
<ele>156.0</ele>
<speed>154</speed>
<course>0.6</course>
<desc>Speed 154 km/h Distance 170 km</desc>
<time>2011-03-24T18:01:39.62</time>
<name>7787</name>
</trkpt>
<trkpt lat="49.488128" lon="8.638822">
<ele>155.0</ele>
<speed>164</speed>
<course>0.9</course>
<desc>Speed 164 km/h Distance 170 km</desc>
<time>2011-03-24T18:01:40.62</time>
<name>7788</name>
</trkpt>
<trkpt lat="49.488533" lon="8.638832">
<ele>154.5</ele>
<speed>162</speed>
<course>1.2</course>
<desc>Speed 162 km/h Distance 170 km</desc>
<time>2011-03-24T18:01:41.61</time>
<name>7789</name>
</trkpt>
<trkpt lat="49.488937" lon="8.638845">
<ele>154.5</ele>
<speed>161</speed>
<course>1.2</course>
<desc>Speed 161 km/h Distance 170 km</desc>
<time>2011-03-24T18:01:42.61</time>
<name>7790</name>
</trkpt>
<trkpt lat="49.489347" lon="8.638858">
<ele>154.0</ele>
<speed>165</speed>
<course>1.8</course>
<desc>Speed 165 km/h Distance 170 km</desc>
<time>2011-03-24T18:01:43.62</time>
<name>7791</name>
</trkpt>
<trkpt lat="49.489753" lon="8.638878">
<ele>154.0</ele>
<speed>163</speed>
<course>2.1</course>
<desc>Speed 163 km/h Distance 170 km</desc>
<time>2011-03-24T18:01:44.61</time>
<name>7792</name>
</trkpt>
<trkpt lat="49.490160" lon="8.638902">
<ele>153.5</ele>
<speed>163</speed>
<course>2.3</course>
<desc>Speed 163 km/h Distance 170 km</desc>
<time>2011-03-24T18:01:45.61</time>
<name>7793</name>
</trkpt>
<trkpt lat="49.490568" lon="8.638927">
<ele>153.5</ele>
<speed>163</speed>
<course>2.4</course>
<desc>Speed 163 km/h Distance 170 km</desc>
<time>2011-03-24T18:01:46.61</time>
<name>7794</name>
</trkpt>
<trkpt lat="49.490977" lon="8.638953">
<ele>153.5</ele>
<speed>164</speed>
<course>2.8</course>
<desc>Speed 164 km/h Distance 170 km</desc>
<time>2011-03-24T18:01:47.61</time>
<name>7795</name>
</trkpt>
<trkpt lat="49.491382" lon="8.638983">
<ele>154.0</ele>
<speed>163</speed>
<course>2.7</course>
<desc>Speed 163 km/h Distance 170 km</desc>
<time>2011-03-24T18:01:48.61</time>
<name>7796</name>
</trkpt>
<trkpt lat="49.491792" lon="8.639013">
<ele>154.5</ele>
<speed>164</speed>
<course>2.7</course>
<desc>Speed 164 km/h Distance 170 km</desc>
<time>2011-03-24T18:01:49.61</time>
<name>7797</name>
</trkpt>
<trkpt lat="49.492200" lon="8.639043">
<ele>154.5</ele>
<speed>163</speed>
<course>2.9</course>
<desc>Speed 163 km/h Distance 170 km</desc>
<time>2011-03-24T18:01:50.61</time>
<name>7798</name>
</trkpt>
<trkpt lat="49.492607" lon="8.639075">
<ele>154.0</ele>
<speed>164</speed>
<course>2.9</course>
<desc>Speed 164 km/h Distance 170 km</desc>
<time>2011-03-24T18:01:51.61</time>
<name>7799</name>
</trkpt>
<trkpt lat="49.493012" lon="8.639107">
<ele>154.0</ele>
<speed>162</speed>
<course>3.4</course>
<desc>Speed 162 km/h Distance 170 km</desc>
<time>2011-03-24T18:01:52.61</time>
<name>7800</name>
</trkpt>
<trkpt lat="49.493413" lon="8.639143">
<ele>154.0</ele>
<speed>162</speed>
<course>5.3</course>
<desc>Speed 162 km/h Distance 170 km</desc>
<time>2011-03-24T18:01:53.61</time>
<name>7801</name>
</trkpt>
<trkpt lat="49.493795" lon="8.639198">
<ele>154.5</ele>
<speed>154</speed>
<course>5.5</course>
<desc>Speed 154 km/h Distance 170 km</desc>
<time>2011-03-24T18:01:54.60</time>
<name>7802</name>
</trkpt>
<trkpt lat="49.494187" lon="8.639257">
<ele>155.0</ele>
<speed>159</speed>
<course>5.1</course>
<desc>Speed 159 km/h Distance 170 km</desc>
<time>2011-03-24T18:01:55.62</time>
<name>7803</name>
</trkpt>
<trkpt lat="49.494583" lon="8.639312">
<ele>155.0</ele>
<speed>159</speed>
<course>4.4</course>
<desc>Speed 159 km/h Distance 170 km</desc>
<time>2011-03-24T18:01:56.61</time>
<name>7804</name>
</trkpt>
<trkpt lat="49.494977" lon="8.639358">
<ele>154.5</ele>
<speed>158</speed>
<course>4.1</course>
<desc>Speed 158 km/h Distance 170 km</desc>
<time>2011-03-24T18:01:57.64</time>
<name>7805</name>
</trkpt>
<trkpt lat="49.495680" lon="8.639437">
<ele>155.0</ele>
<speed>153</speed>
<course>3.5</course>
<desc>Speed 153 km/h Distance 170 km</desc>
<time>2011-03-24T18:01:59.60</time>
<name>7806</name>
</trkpt>
<trkpt lat="49.496055" lon="8.639472">
<ele>155.0</ele>
<speed>149</speed>
<course>3.6</course>
<desc>Speed 149 km/h Distance 171 km</desc>
<time>2011-03-24T18:02:00.60</time>
<name>7807</name>
</trkpt>
<trkpt lat="49.496432" lon="8.639508">
<ele>154.0</ele>
<speed>148</speed>
<course>3.5</course>
<desc>Speed 148 km/h Distance 171 km</desc>
<time>2011-03-24T18:02:01.59</time>
<name>7808</name>
</trkpt>
<trkpt lat="49.496788" lon="8.639542">
<ele>154.0</ele>
<speed>143</speed>
<course>4.1</course>
<desc>Speed 143 km/h Distance 171 km</desc>
<time>2011-03-24T18:02:02.61</time>
<name>7809</name>
</trkpt>
<trkpt lat="49.497137" lon="8.639580">
<ele>154.0</ele>
<speed>140</speed>
<course>3.0</course>
<desc>Speed 140 km/h Distance 171 km</desc>
<time>2011-03-24T18:02:03.60</time>
<name>7810</name>
</trkpt>
<trkpt lat="49.497488" lon="8.639608">
<ele>154.5</ele>
<speed>140</speed>
<course>3.4</course>
<desc>Speed 140 km/h Distance 171 km</desc>
<time>2011-03-24T18:02:04.60</time>
<name>7811</name>
</trkpt>
<trkpt lat="49.497855" lon="8.639642">
<ele>152.5</ele>
<speed>143</speed>
<course>3.2</course>
<desc>Speed 143 km/h Distance 171 km</desc>
<time>2011-03-24T18:02:05.65</time>
<name>7812</name>
</trkpt>
<trkpt lat="49.498218" lon="8.639673">
<ele>151.5</ele>
<speed>143</speed>
<course>3.2</course>
<desc>Speed 143 km/h Distance 171 km</desc>
<time>2011-03-24T18:02:06.59</time>
<name>7813</name>
</trkpt>
<trkpt lat="49.498568" lon="8.639703">
<ele>151.5</ele>
<speed>140</speed>
<course>2.1</course>
<desc>Speed 140 km/h Distance 171 km</desc>
<time>2011-03-24T18:02:07.59</time>
<name>7814</name>
</trkpt>
<trkpt lat="49.498928" lon="8.639723">
<ele>151.5</ele>
<speed>144</speed>
<course>1.5</course>
<desc>Speed 144 km/h Distance 171 km</desc>
<time>2011-03-24T18:02:08.59</time>
<name>7815</name>
</trkpt>
<trkpt lat="49.499295" lon="8.639738">
<ele>152.0</ele>
<speed>146</speed>
<course>1.5</course>
<desc>Speed 146 km/h Distance 171 km</desc>
<time>2011-03-24T18:02:09.59</time>
<name>7816</name>
</trkpt>
<trkpt lat="49.499672" lon="8.639753">
<ele>152.5</ele>
<speed>152</speed>
<course>1.8</course>
<desc>Speed 152 km/h Distance 171 km</desc>
<time>2011-03-24T18:02:10.59</time>
<name>7817</name>
</trkpt>
<trkpt lat="49.500060" lon="8.639772">
<ele>152.0</ele>
<speed>154</speed>
<course>1.6</course>
<desc>Speed 154 km/h Distance 171 km</desc>
<time>2011-03-24T18:02:11.60</time>
<name>7818</name>
</trkpt>
<trkpt lat="49.500443" lon="8.639788">
<ele>152.0</ele>
<speed>151</speed>
<course>1.7</course>
<desc>Speed 151 km/h Distance 171 km</desc>
<time>2011-03-24T18:02:12.60</time>
<name>7819</name>
</trkpt>
<trkpt lat="49.500803" lon="8.639805">
<ele>152.0</ele>
<speed>144</speed>
<course>1.6</course>
<desc>Speed 144 km/h Distance 171 km</desc>
<time>2011-03-24T18:02:13.59</time>
<name>7820</name>
</trkpt>
<trkpt lat="49.501153" lon="8.639820">
<ele>151.5</ele>
<speed>139</speed>
<course>1.3</course>
<desc>Speed 139 km/h Distance 171 km</desc>
<time>2011-03-24T18:02:14.59</time>
<name>7821</name>
</trkpt>
<trkpt lat="49.501482" lon="8.639832">
<ele>151.5</ele>
<speed>132</speed>
<course>1.6</course>
<desc>Speed 132 km/h Distance 171 km</desc>
<time>2011-03-24T18:02:15.60</time>
<name>7822</name>
</trkpt>
<trkpt lat="49.501802" lon="8.639845">
<ele>151.5</ele>
<speed>128</speed>
<course>1.4</course>
<desc>Speed 128 km/h Distance 171 km</desc>
<time>2011-03-24T18:02:16.59</time>
<name>7823</name>
</trkpt>
<trkpt lat="49.502118" lon="8.639857">
<ele>152.0</ele>
<speed>127</speed>
<course>0.8</course>
<desc>Speed 127 km/h Distance 171 km</desc>
<time>2011-03-24T18:02:17.58</time>
<name>7824</name>
</trkpt>
<trkpt lat="49.502437" lon="8.639863">
<ele>152.0</ele>
<speed>127</speed>
<course>1.0</course>
<desc>Speed 127 km/h Distance 171 km</desc>
<time>2011-03-24T18:02:18.59</time>
<name>7825</name>
</trkpt>
<trkpt lat="49.502748" lon="8.639872">
<ele>152.0</ele>
<speed>124</speed>
<course>0.4</course>
<desc>Speed 124 km/h Distance 171 km</desc>
<time>2011-03-24T18:02:19.59</time>
<name>7826</name>
</trkpt>
<trkpt lat="49.503063" lon="8.639875">
<ele>151.5</ele>
<speed>125</speed>
<course>0.2</course>
<desc>Speed 125 km/h Distance 171 km</desc>
<time>2011-03-24T18:02:20.60</time>
<name>7827</name>
</trkpt>
<trkpt lat="49.503378" lon="8.639877">
<ele>151.5</ele>
<speed>127</speed>
<course>359.6</course>
<desc>Speed 127 km/h Distance 171 km</desc>
<time>2011-03-24T18:02:21.59</time>
<name>7828</name>
</trkpt>
<trkpt lat="49.503698" lon="8.639873">
<ele>151.0</ele>
<speed>126</speed>
<course>1.2</course>
<desc>Speed 126 km/h Distance 171 km</desc>
<time>2011-03-24T18:02:22.60</time>
<name>7829</name>
</trkpt>
<trkpt lat="49.504007" lon="8.639883">
<ele>151.5</ele>
<speed>124</speed>
<course>0.2</course>
<desc>Speed 124 km/h Distance 171 km</desc>
<time>2011-03-24T18:02:23.60</time>
<name>7830</name>
</trkpt>
<trkpt lat="49.504322" lon="8.639885">
<ele>151.0</ele>
<speed>126</speed>
<course>359.8</course>
<desc>Speed 126 km/h Distance 171 km</desc>
<time>2011-03-24T18:02:24.59</time>
<name>7831</name>
</trkpt>
<trkpt lat="49.504635" lon="8.639883">
<ele>151.0</ele>
<speed>124</speed>
<course>359.4</course>
<desc>Speed 124 km/h Distance 171 km</desc>
<time>2011-03-24T18:02:25.59</time>
<name>7832</name>
</trkpt>
<trkpt lat="49.504948" lon="8.639878">
<ele>150.5</ele>
<speed>123</speed>
<course>359.6</course>
<desc>Speed 123 km/h Distance 171 km</desc>
<time>2011-03-24T18:02:26.59</time>
<name>7833</name>
</trkpt>
<trkpt lat="49.505253" lon="8.639875">
<ele>151.0</ele>
<speed>123</speed>
<course>358.8</course>
<desc>Speed 123 km/h Distance 172 km</desc>
<time>2011-03-24T18:02:27.59</time>
<name>7834</name>
</trkpt>
<trkpt lat="49.505565" lon="8.639865">
<ele>151.0</ele>
<speed>124</speed>
<course>358.4</course>
<desc>Speed 124 km/h Distance 172 km</desc>
<time>2011-03-24T18:02:28.58</time>
<name>7835</name>
</trkpt>
<trkpt lat="49.505880" lon="8.639852">
<ele>151.0</ele>
<speed>126</speed>
<course>358.1</course>
<desc>Speed 126 km/h Distance 172 km</desc>
<time>2011-03-24T18:02:29.58</time>
<name>7836</name>
</trkpt>
<trkpt lat="49.506205" lon="8.639835">
<ele>151.0</ele>
<speed>129</speed>
<course>357.9</course>
<desc>Speed 129 km/h Distance 172 km</desc>
<time>2011-03-24T18:02:30.58</time>
<name>7837</name>
</trkpt>
<trkpt lat="49.506533" lon="8.639817">
<ele>151.0</ele>
<speed>132</speed>
<course>357.8</course>
<desc>Speed 132 km/h Distance 172 km</desc>
<time>2011-03-24T18:02:31.58</time>
<name>7838</name>
</trkpt>
<trkpt lat="49.506870" lon="8.639797">
<ele>151.5</ele>
<speed>135</speed>
<course>357.5</course>
<desc>Speed 135 km/h Distance 172 km</desc>
<time>2011-03-24T18:02:32.58</time>
<name>7839</name>
</trkpt>
<trkpt lat="49.507210" lon="8.639773">
<ele>152.0</ele>
<speed>137</speed>
<course>357.7</course>
<desc>Speed 137 km/h Distance 172 km</desc>
<time>2011-03-24T18:02:33.58</time>
<name>7840</name>
</trkpt>
<trkpt lat="49.507560" lon="8.639752">
<ele>152.0</ele>
<speed>140</speed>
<course>357.2</course>
<desc>Speed 140 km/h Distance 172 km</desc>
<time>2011-03-24T18:02:34.58</time>
<name>7841</name>
</trkpt>
<trkpt lat="49.507933" lon="8.639723">
<ele>151.5</ele>
<speed>149</speed>
<course>357.6</course>
<desc>Speed 149 km/h Distance 172 km</desc>
<time>2011-03-24T18:02:35.59</time>
<name>7842</name>
</trkpt>
<trkpt lat="49.508293" lon="8.639700">
<ele>151.5</ele>
<speed>144</speed>
<course>357.4</course>
<desc>Speed 144 km/h Distance 172 km</desc>
<time>2011-03-24T18:02:36.59</time>
<name>7843</name>
</trkpt>
<trkpt lat="49.508653" lon="8.639675">
<ele>151.5</ele>
<speed>144</speed>
<course>357.6</course>
<desc>Speed 144 km/h Distance 172 km</desc>
<time>2011-03-24T18:02:37.58</time>
<name>7844</name>
</trkpt>
<trkpt lat="49.509012" lon="8.639652">
<ele>151.5</ele>
<speed>143</speed>
<course>356.9</course>
<desc>Speed 143 km/h Distance 172 km</desc>
<time>2011-03-24T18:02:38.58</time>
<name>7845</name>
</trkpt>
<trkpt lat="49.509368" lon="8.639622">
<ele>152.0</ele>
<speed>143</speed>
<course>356.3</course>
<desc>Speed 143 km/h Distance 172 km</desc>
<time>2011-03-24T18:02:39.58</time>
<name>7846</name>
</trkpt>
<trkpt lat="49.509723" lon="8.639587">
<ele>152.5</ele>
<speed>142</speed>
<course>354.6</course>
<desc>Speed 142 km/h Distance 172 km</desc>
<time>2011-03-24T18:02:40.58</time>
<name>7847</name>
</trkpt>
<trkpt lat="49.510078" lon="8.639535">
<ele>152.5</ele>
<speed>142</speed>
<course>355.6</course>
<desc>Speed 142 km/h Distance 172 km</desc>
<time>2011-03-24T18:02:41.58</time>
<name>7848</name>
</trkpt>
<trkpt lat="49.510433" lon="8.639493">
<ele>153.0</ele>
<speed>143</speed>
<course>355.5</course>
<desc>Speed 143 km/h Distance 172 km</desc>
<time>2011-03-24T18:02:42.58</time>
<name>7849</name>
</trkpt>
<trkpt lat="49.510790" lon="8.639450">
<ele>153.0</ele>
<speed>143</speed>
<course>355.5</course>
<desc>Speed 143 km/h Distance 172 km</desc>
<time>2011-03-24T18:02:43.57</time>
<name>7850</name>
</trkpt>
<trkpt lat="49.511147" lon="8.639407">
<ele>153.5</ele>
<speed>143</speed>
<course>355.5</course>
<desc>Speed 143 km/h Distance 172 km</desc>
<time>2011-03-24T18:02:44.57</time>
<name>7851</name>
</trkpt>
<trkpt lat="49.511503" lon="8.639363">
<ele>154.0</ele>
<speed>143</speed>
<course>355.2</course>
<desc>Speed 143 km/h Distance 172 km</desc>
<time>2011-03-24T18:02:45.57</time>
<name>7852</name>
</trkpt>
<trkpt lat="49.511862" lon="8.639317">
<ele>154.5</ele>
<speed>144</speed>
<course>355.1</course>
<desc>Speed 144 km/h Distance 172 km</desc>
<time>2011-03-24T18:02:46.57</time>
<name>7853</name>
</trkpt>
<trkpt lat="49.512217" lon="8.639270">
<ele>154.5</ele>
<speed>143</speed>
<course>354.9</course>
<desc>Speed 143 km/h Distance 172 km</desc>
<time>2011-03-24T18:02:47.58</time>
<name>7854</name>
</trkpt>
<trkpt lat="49.512570" lon="8.639222">
<ele>154.5</ele>
<speed>142</speed>
<course>355.1</course>
<desc>Speed 142 km/h Distance 172 km</desc>
<time>2011-03-24T18:02:48.57</time>
<name>7855</name>
</trkpt>
<trkpt lat="49.512920" lon="8.639175">
<ele>155.0</ele>
<speed>141</speed>
<course>355.6</course>
<desc>Speed 141 km/h Distance 172 km</desc>
<time>2011-03-24T18:02:49.57</time>
<name>7856</name>
</trkpt>
<trkpt lat="49.513268" lon="8.639133">
<ele>155.5</ele>
<speed>140</speed>
<course>355.8</course>
<desc>Speed 140 km/h Distance 172 km</desc>
<time>2011-03-24T18:02:50.57</time>
<name>7857</name>
</trkpt>
<trkpt lat="49.513618" lon="8.639093">
<ele>156.0</ele>
<speed>140</speed>
<course>355.6</course>
<desc>Speed 140 km/h Distance 172 km</desc>
<time>2011-03-24T18:02:51.57</time>
<name>7858</name>
</trkpt>
<trkpt lat="49.513970" lon="8.639052">
<ele>155.5</ele>
<speed>141</speed>
<course>354.7</course>
<desc>Speed 141 km/h Distance 172 km</desc>
<time>2011-03-24T18:02:52.57</time>
<name>7859</name>
</trkpt>
<trkpt lat="49.514317" lon="8.639002">
<ele>155.5</ele>
<speed>140</speed>
<course>354.1</course>
<desc>Speed 140 km/h Distance 173 km</desc>
<time>2011-03-24T18:02:53.57</time>
<name>7860</name>
</trkpt>
<trkpt lat="49.514662" lon="8.638947">
<ele>155.5</ele>
<speed>139</speed>
<course>353.6</course>
<desc>Speed 139 km/h Distance 173 km</desc>
<time>2011-03-24T18:02:54.57</time>
<name>7861</name>
</trkpt>
<trkpt lat="49.515012" lon="8.638887">
<ele>155.0</ele>
<speed>141</speed>
<course>353.2</course>
<desc>Speed 141 km/h Distance 173 km</desc>
<time>2011-03-24T18:02:55.58</time>
<name>7862</name>
</trkpt>
<trkpt lat="49.515358" lon="8.638823">
<ele>155.0</ele>
<speed>140</speed>
<course>352.7</course>
<desc>Speed 140 km/h Distance 173 km</desc>
<time>2011-03-24T18:02:56.58</time>
<name>7863</name>
</trkpt>
<trkpt lat="49.515703" lon="8.638755">
<ele>155.5</ele>
<speed>140</speed>
<course>352.5</course>
<desc>Speed 140 km/h Distance 173 km</desc>
<time>2011-03-24T18:02:57.58</time>
<name>7864</name>
</trkpt>
<trkpt lat="49.516050" lon="8.638685">
<ele>155.5</ele>
<speed>140</speed>
<course>352.1</course>
<desc>Speed 140 km/h Distance 173 km</desc>
<time>2011-03-24T18:02:58.57</time>
<name>7865</name>
</trkpt>
<trkpt lat="49.516395" lon="8.638612">
<ele>155.5</ele>
<speed>140</speed>
<course>351.5</course>
<desc>Speed 140 km/h Distance 173 km</desc>
<time>2011-03-24T18:02:59.57</time>
<name>7866</name>
</trkpt>
<trkpt lat="49.517085" lon="8.638453">
<ele>155.5</ele>
<speed>139</speed>
<course>351.5</course>
<desc>Speed 139 km/h Distance 173 km</desc>
<time>2011-03-24T18:03:01.61</time>
<name>7867</name>
</trkpt>
<trkpt lat="49.517412" lon="8.638378">
<ele>155.5</ele>
<speed>133</speed>
<course>351.1</course>
<desc>Speed 133 km/h Distance 173 km</desc>
<time>2011-03-24T18:03:02.61</time>
<name>7868</name>
</trkpt>
<trkpt lat="49.517728" lon="8.638302">
<ele>155.5</ele>
<speed>128</speed>
<course>351.1</course>
<desc>Speed 128 km/h Distance 173 km</desc>
<time>2011-03-24T18:03:03.61</time>
<name>7869</name>
</trkpt>
<trkpt lat="49.518045" lon="8.638225">
<ele>155.5</ele>
<speed>129</speed>
<course>350.1</course>
<desc>Speed 129 km/h Distance 173 km</desc>
<time>2011-03-24T18:03:04.61</time>
<name>7870</name>
</trkpt>
<trkpt lat="49.518362" lon="8.638140">
<ele>155.5</ele>
<speed>129</speed>
<course>349.4</course>
<desc>Speed 129 km/h Distance 173 km</desc>
<time>2011-03-24T18:03:05.61</time>
<name>7871</name>
</trkpt>
<trkpt lat="49.518685" lon="8.638047">
<ele>155.0</ele>
<speed>131</speed>
<course>349.3</course>
<desc>Speed 131 km/h Distance 173 km</desc>
<time>2011-03-24T18:03:06.62</time>
<name>7872</name>
</trkpt>
<trkpt lat="49.519012" lon="8.637952">
<ele>155.0</ele>
<speed>133</speed>
<course>349.7</course>
<desc>Speed 133 km/h Distance 173 km</desc>
<time>2011-03-24T18:03:07.61</time>
<name>7873</name>
</trkpt>
<trkpt lat="49.519357" lon="8.637855">
<ele>154.5</ele>
<speed>139</speed>
<course>349.1</course>
<desc>Speed 139 km/h Distance 173 km</desc>
<time>2011-03-24T18:03:08.61</time>
<name>7874</name>
</trkpt>
<trkpt lat="49.519688" lon="8.637757">
<ele>156.0</ele>
<speed>134</speed>
<course>350.1</course>
<desc>Speed 134 km/h Distance 173 km</desc>
<time>2011-03-24T18:03:09.61</time>
<name>7875</name>
</trkpt>
<trkpt lat="49.520028" lon="8.637665">
<ele>155.5</ele>
<speed>137</speed>
<course>349.8</course>
<desc>Speed 137 km/h Distance 173 km</desc>
<time>2011-03-24T18:03:10.61</time>
<name>7876</name>
</trkpt>
<trkpt lat="49.520370" lon="8.637570">
<ele>154.5</ele>
<speed>138</speed>
<course>349.4</course>
<desc>Speed 138 km/h Distance 173 km</desc>
<time>2011-03-24T18:03:11.60</time>
<name>7877</name>
</trkpt>
<trkpt lat="49.520712" lon="8.637472">
<ele>154.5</ele>
<speed>139</speed>
<course>349.0</course>
<desc>Speed 139 km/h Distance 173 km</desc>
<time>2011-03-24T18:03:12.61</time>
<name>7878</name>
</trkpt>
<trkpt lat="49.521057" lon="8.637368">
<ele>154.5</ele>
<speed>140</speed>
<course>348.8</course>
<desc>Speed 140 km/h Distance 173 km</desc>
<time>2011-03-24T18:03:13.61</time>
<name>7879</name>
</trkpt>
<trkpt lat="49.521402" lon="8.637263">
<ele>154.0</ele>
<speed>141</speed>
<course>349.0</course>
<desc>Speed 141 km/h Distance 173 km</desc>
<time>2011-03-24T18:03:14.61</time>
<name>7880</name>
</trkpt>
<trkpt lat="49.521742" lon="8.637162">
<ele>156.0</ele>
<speed>139</speed>
<course>348.4</course>
<desc>Speed 139 km/h Distance 173 km</desc>
<time>2011-03-24T18:03:15.61</time>
<name>7881</name>
</trkpt>
<trkpt lat="49.522090" lon="8.637052">
<ele>155.5</ele>
<speed>143</speed>
<course>348.1</course>
<desc>Speed 143 km/h Distance 173 km</desc>
<time>2011-03-24T18:03:16.60</time>
<name>7882</name>
</trkpt>
<trkpt lat="49.522440" lon="8.636938">
<ele>155.0</ele>
<speed>144</speed>
<course>347.8</course>
<desc>Speed 144 km/h Distance 173 km</desc>
<time>2011-03-24T18:03:17.60</time>
<name>7883</name>
</trkpt>
<trkpt lat="49.522790" lon="8.636822">
<ele>154.5</ele>
<speed>144</speed>
<course>347.9</course>
<desc>Speed 144 km/h Distance 173 km</desc>
<time>2011-03-24T18:03:18.60</time>
<name>7884</name>
</trkpt>
<trkpt lat="49.523143" lon="8.636705">
<ele>154.0</ele>
<speed>145</speed>
<course>347.6</course>
<desc>Speed 145 km/h Distance 174 km</desc>
<time>2011-03-24T18:03:19.60</time>
<name>7885</name>
</trkpt>
<trkpt lat="49.523497" lon="8.636585">
<ele>154.0</ele>
<speed>145</speed>
<course>347.3</course>
<desc>Speed 145 km/h Distance 174 km</desc>
<time>2011-03-24T18:03:20.60</time>
<name>7886</name>
</trkpt>
<trkpt lat="49.523848" lon="8.636463">
<ele>153.5</ele>
<speed>145</speed>
<course>347.4</course>
<desc>Speed 145 km/h Distance 174 km</desc>
<time>2011-03-24T18:03:21.60</time>
<name>7887</name>
</trkpt>
<trkpt lat="49.524202" lon="8.636342">
<ele>153.5</ele>
<speed>145</speed>
<course>346.9</course>
<desc>Speed 145 km/h Distance 174 km</desc>
<time>2011-03-24T18:03:22.60</time>
<name>7888</name>
</trkpt>
<trkpt lat="49.524555" lon="8.636215">
<ele>153.0</ele>
<speed>145</speed>
<course>346.6</course>
<desc>Speed 145 km/h Distance 174 km</desc>
<time>2011-03-24T18:03:23.60</time>
<name>7889</name>
</trkpt>
<trkpt lat="49.524905" lon="8.636087">
<ele>153.0</ele>
<speed>145</speed>
<course>346.6</course>
<desc>Speed 145 km/h Distance 174 km</desc>
<time>2011-03-24T18:03:24.60</time>
<name>7890</name>
</trkpt>
<trkpt lat="49.525255" lon="8.635958">
<ele>152.5</ele>
<speed>144</speed>
<course>346.0</course>
<desc>Speed 144 km/h Distance 174 km</desc>
<time>2011-03-24T18:03:25.60</time>
<name>7891</name>
</trkpt>
<trkpt lat="49.525602" lon="8.635825">
<ele>152.5</ele>
<speed>142</speed>
<course>346.0</course>
<desc>Speed 142 km/h Distance 174 km</desc>
<time>2011-03-24T18:03:26.59</time>
<name>7892</name>
</trkpt>
<trkpt lat="49.525943" lon="8.635693">
<ele>152.0</ele>
<speed>141</speed>
<course>345.9</course>
<desc>Speed 141 km/h Distance 174 km</desc>
<time>2011-03-24T18:03:27.59</time>
<name>7893</name>
</trkpt>
<trkpt lat="49.526280" lon="8.635563">
<ele>152.0</ele>
<speed>139</speed>
<course>345.6</course>
<desc>Speed 139 km/h Distance 174 km</desc>
<time>2011-03-24T18:03:28.59</time>
<name>7894</name>
</trkpt>
<trkpt lat="49.526613" lon="8.635432">
<ele>152.0</ele>
<speed>138</speed>
<course>345.7</course>
<desc>Speed 138 km/h Distance 174 km</desc>
<time>2011-03-24T18:03:29.59</time>
<name>7895</name>
</trkpt>
<trkpt lat="49.526943" lon="8.635302">
<ele>151.5</ele>
<speed>136</speed>
<course>346.5</course>
<desc>Speed 136 km/h Distance 174 km</desc>
<time>2011-03-24T18:03:30.59</time>
<name>7896</name>
</trkpt>
<trkpt lat="49.527268" lon="8.635182">
<ele>151.5</ele>
<speed>133</speed>
<course>346.8</course>
<desc>Speed 133 km/h Distance 174 km</desc>
<time>2011-03-24T18:03:31.59</time>
<name>7897</name>
</trkpt>
<trkpt lat="49.527587" lon="8.635067">
<ele>151.0</ele>
<speed>131</speed>
<course>346.1</course>
<desc>Speed 131 km/h Distance 174 km</desc>
<time>2011-03-24T18:03:32.59</time>
<name>7898</name>
</trkpt>
<trkpt lat="49.527892" lon="8.634950">
<ele>150.0</ele>
<speed>126</speed>
<course>345.5</course>
<desc>Speed 126 km/h Distance 174 km</desc>
<time>2011-03-24T18:03:33.59</time>
<name>7899</name>
</trkpt>
<trkpt lat="49.528202" lon="8.634827">
<ele>150.0</ele>
<speed>127</speed>
<course>345.0</course>
<desc>Speed 127 km/h Distance 174 km</desc>
<time>2011-03-24T18:03:34.59</time>
<name>7900</name>
</trkpt>
<trkpt lat="49.528508" lon="8.634700">
<ele>150.0</ele>
<speed>127</speed>
<course>344.9</course>
<desc>Speed 127 km/h Distance 174 km</desc>
<time>2011-03-24T18:03:35.59</time>
<name>7901</name>
</trkpt>
<trkpt lat="49.528813" lon="8.634573">
<ele>150.0</ele>
<speed>127</speed>
<course>344.8</course>
<desc>Speed 127 km/h Distance 174 km</desc>
<time>2011-03-24T18:03:36.59</time>
<name>7902</name>
</trkpt>
<trkpt lat="49.529120" lon="8.634445">
<ele>149.5</ele>
<speed>127</speed>
<course>344.7</course>
<desc>Speed 127 km/h Distance 174 km</desc>
<time>2011-03-24T18:03:37.60</time>
<name>7903</name>
</trkpt>
<trkpt lat="49.529425" lon="8.634317">
<ele>149.5</ele>
<speed>126</speed>
<course>344.3</course>
<desc>Speed 126 km/h Distance 174 km</desc>
<time>2011-03-24T18:03:38.59</time>
<name>7904</name>
</trkpt>
<trkpt lat="49.529728" lon="8.634185">
<ele>149.5</ele>
<speed>126</speed>
<course>344.5</course>
<desc>Speed 126 km/h Distance 174 km</desc>
<time>2011-03-24T18:03:39.59</time>
<name>7905</name>
</trkpt>
<trkpt lat="49.530032" lon="8.634055">
<ele>149.5</ele>
<speed>126</speed>
<course>344.1</course>
<desc>Speed 126 km/h Distance 174 km</desc>
<time>2011-03-24T18:03:40.59</time>
<name>7906</name>
</trkpt>
<trkpt lat="49.530332" lon="8.633923">
<ele>149.5</ele>
<speed>125</speed>
<course>344.1</course>
<desc>Speed 125 km/h Distance 174 km</desc>
<time>2011-03-24T18:03:41.59</time>
<name>7907</name>
</trkpt>
<trkpt lat="49.530632" lon="8.633792">
<ele>149.5</ele>
<speed>125</speed>
<course>343.7</course>
<desc>Speed 125 km/h Distance 174 km</desc>
<time>2011-03-24T18:03:42.59</time>
<name>7908</name>
</trkpt>
<trkpt lat="49.530928" lon="8.633658">
<ele>149.5</ele>
<speed>124</speed>
<course>343.2</course>
<desc>Speed 124 km/h Distance 174 km</desc>
<time>2011-03-24T18:03:43.59</time>
<name>7909</name>
</trkpt>
<trkpt lat="49.531222" lon="8.633522">
<ele>149.5</ele>
<speed>123</speed>
<course>343.2</course>
<desc>Speed 123 km/h Distance 174 km</desc>
<time>2011-03-24T18:03:44.59</time>
<name>7910</name>
</trkpt>
<trkpt lat="49.531515" lon="8.633385">
<ele>149.5</ele>
<speed>123</speed>
<course>343.0</course>
<desc>Speed 123 km/h Distance 174 km</desc>
<time>2011-03-24T18:03:45.59</time>
<name>7911</name>
</trkpt>
<trkpt lat="49.531808" lon="8.633247">
<ele>149.5</ele>
<speed>123</speed>
<course>342.9</course>
<desc>Speed 123 km/h Distance 175 km</desc>
<time>2011-03-24T18:03:46.59</time>
<name>7912</name>
</trkpt>
<trkpt lat="49.532100" lon="8.633108">
<ele>150.0</ele>
<speed>122</speed>
<course>343.3</course>
<desc>Speed 122 km/h Distance 175 km</desc>
<time>2011-03-24T18:03:47.59</time>
<name>7913</name>
</trkpt>
<trkpt lat="49.532392" lon="8.632973">
<ele>150.0</ele>
<speed>121</speed>
<course>343.7</course>
<desc>Speed 121 km/h Distance 175 km</desc>
<time>2011-03-24T18:03:48.59</time>
<name>7914</name>
</trkpt>
<trkpt lat="49.532680" lon="8.632843">
<ele>150.0</ele>
<speed>120</speed>
<course>344.0</course>
<desc>Speed 120 km/h Distance 175 km</desc>
<time>2011-03-24T18:03:49.59</time>
<name>7915</name>
</trkpt>
<trkpt lat="49.532963" lon="8.632718">
<ele>150.0</ele>
<speed>118</speed>
<course>344.3</course>
<desc>Speed 118 km/h Distance 175 km</desc>
<time>2011-03-24T18:03:50.59</time>
<name>7916</name>
</trkpt>
<trkpt lat="49.533243" lon="8.632597">
<ele>150.0</ele>
<speed>116</speed>
<course>344.3</course>
<desc>Speed 116 km/h Distance 175 km</desc>
<time>2011-03-24T18:03:51.59</time>
<name>7917</name>
</trkpt>
<trkpt lat="49.533517" lon="8.632478">
<ele>150.0</ele>
<speed>114</speed>
<course>344.3</course>
<desc>Speed 114 km/h Distance 175 km</desc>
<time>2011-03-24T18:03:52.59</time>
<name>7918</name>
</trkpt>
<trkpt lat="49.533787" lon="8.632362">
<ele>150.0</ele>
<speed>112</speed>
<course>344.1</course>
<desc>Speed 112 km/h Distance 175 km</desc>
<time>2011-03-24T18:03:53.58</time>
<name>7919</name>
</trkpt>
<trkpt lat="49.534053" lon="8.632245">
<ele>150.0</ele>
<speed>112</speed>
<course>344.3</course>
<desc>Speed 112 km/h Distance 175 km</desc>
<time>2011-03-24T18:03:54.58</time>
<name>7920</name>
</trkpt>
<trkpt lat="49.534318" lon="8.632130">
<ele>150.0</ele>
<speed>110</speed>
<course>344.3</course>
<desc>Speed 110 km/h Distance 175 km</desc>
<time>2011-03-24T18:03:55.62</time>
<name>7921</name>
</trkpt>
<trkpt lat="49.534580" lon="8.632017">
<ele>150.5</ele>
<speed>109</speed>
<course>344.3</course>
<desc>Speed 109 km/h Distance 175 km</desc>
<time>2011-03-24T18:03:56.59</time>
<name>7922</name>
</trkpt>
<trkpt lat="49.534845" lon="8.631902">
<ele>150.5</ele>
<speed>110</speed>
<course>344.5</course>
<desc>Speed 110 km/h Distance 175 km</desc>
<time>2011-03-24T18:03:57.58</time>
<name>7923</name>
</trkpt>
<trkpt lat="49.535113" lon="8.631787">
<ele>150.5</ele>
<speed>111</speed>
<course>344.6</course>
<desc>Speed 111 km/h Distance 175 km</desc>
<time>2011-03-24T18:03:58.58</time>
<name>7924</name>
</trkpt>
<trkpt lat="49.535385" lon="8.631672">
<ele>150.5</ele>
<speed>112</speed>
<course>344.9</course>
<desc>Speed 112 km/h Distance 175 km</desc>
<time>2011-03-24T18:03:59.58</time>
<name>7925</name>
</trkpt>
<trkpt lat="49.535662" lon="8.631557">
<ele>150.5</ele>
<speed>114</speed>
<course>346.5</course>
<desc>Speed 114 km/h Distance 175 km</desc>
<time>2011-03-24T18:04:00.58</time>
<name>7926</name>
</trkpt>
<trkpt lat="49.535940" lon="8.631453">
<ele>150.5</ele>
<speed>115</speed>
<course>347.6</course>
<desc>Speed 115 km/h Distance 175 km</desc>
<time>2011-03-24T18:04:01.58</time>
<name>7927</name>
</trkpt>
<trkpt lat="49.536230" lon="8.631355">
<ele>150.5</ele>
<speed>119</speed>
<course>347.3</course>
<desc>Speed 119 km/h Distance 175 km</desc>
<time>2011-03-24T18:04:02.58</time>
<name>7928</name>
</trkpt>
<trkpt lat="49.536528" lon="8.631252">
<ele>150.5</ele>
<speed>123</speed>
<course>347.5</course>
<desc>Speed 123 km/h Distance 175 km</desc>
<time>2011-03-24T18:04:03.58</time>
<name>7929</name>
</trkpt>
<trkpt lat="49.536845" lon="8.631143">
<ele>149.0</ele>
<speed>130</speed>
<course>346.6</course>
<desc>Speed 130 km/h Distance 175 km</desc>
<time>2011-03-24T18:04:04.58</time>
<name>7930</name>
</trkpt>
<trkpt lat="49.537185" lon="8.631018">
<ele>148.0</ele>
<speed>140</speed>
<course>345.8</course>
<desc>Speed 140 km/h Distance 175 km</desc>
<time>2011-03-24T18:04:05.59</time>
<name>7931</name>
</trkpt>
<trkpt lat="49.537523" lon="8.630887">
<ele>147.5</ele>
<speed>139</speed>
<course>346.1</course>
<desc>Speed 139 km/h Distance 175 km</desc>
<time>2011-03-24T18:04:06.57</time>
<name>7932</name>
</trkpt>
<trkpt lat="49.537892" lon="8.630747">
<ele>146.5</ele>
<speed>151</speed>
<course>345.4</course>
<desc>Speed 151 km/h Distance 175 km</desc>
<time>2011-03-24T18:04:07.62</time>
<name>7933</name>
</trkpt>
<trkpt lat="49.538253" lon="8.630602">
<ele>146.5</ele>
<speed>149</speed>
<course>345.2</course>
<desc>Speed 149 km/h Distance 175 km</desc>
<time>2011-03-24T18:04:08.57</time>
<name>7934</name>
</trkpt>
<trkpt lat="49.538633" lon="8.630447">
<ele>147.5</ele>
<speed>157</speed>
<course>345.5</course>
<desc>Speed 157 km/h Distance 175 km</desc>
<time>2011-03-24T18:04:09.58</time>
<name>7935</name>
</trkpt>
<trkpt lat="49.539015" lon="8.630295">
<ele>148.0</ele>
<speed>159</speed>
<course>346.0</course>
<desc>Speed 159 km/h Distance 175 km</desc>
<time>2011-03-24T18:04:10.58</time>
<name>7936</name>
</trkpt>
<trkpt lat="49.539418" lon="8.630140">
<ele>149.0</ele>
<speed>166</speed>
<course>347.0</course>
<desc>Speed 166 km/h Distance 175 km</desc>
<time>2011-03-24T18:04:11.57</time>
<name>7937</name>
</trkpt>
<trkpt lat="49.539798" lon="8.630005">
<ele>149.0</ele>
<speed>157</speed>
<course>346.5</course>
<desc>Speed 157 km/h Distance 175 km</desc>
<time>2011-03-24T18:04:12.57</time>
<name>7938</name>
</trkpt>
<trkpt lat="49.540173" lon="8.629867">
<ele>149.5</ele>
<speed>154</speed>
<course>346.9</course>
<desc>Speed 154 km/h Distance 175 km</desc>
<time>2011-03-24T18:04:13.57</time>
<name>7939</name>
</trkpt>
<trkpt lat="49.540530" lon="8.629738">
<ele>149.5</ele>
<speed>147</speed>
<course>346.3</course>
<desc>Speed 147 km/h Distance 176 km</desc>
<time>2011-03-24T18:04:14.57</time>
<name>7940</name>
</trkpt>
<trkpt lat="49.540872" lon="8.629610">
<ele>151.5</ele>
<speed>141</speed>
<course>346.9</course>
<desc>Speed 141 km/h Distance 176 km</desc>
<time>2011-03-24T18:04:15.57</time>
<name>7941</name>
</trkpt>
<trkpt lat="49.541192" lon="8.629495">
<ele>152.5</ele>
<speed>132</speed>
<course>347.0</course>
<desc>Speed 132 km/h Distance 176 km</desc>
<time>2011-03-24T18:04:16.58</time>
<name>7942</name>
</trkpt>
<trkpt lat="49.541507" lon="8.629383">
<ele>154.5</ele>
<speed>129</speed>
<course>348.5</course>
<desc>Speed 129 km/h Distance 176 km</desc>
<time>2011-03-24T18:04:17.57</time>
<name>7943</name>
</trkpt>
<trkpt lat="49.541808" lon="8.629288">
<ele>154.5</ele>
<speed>123</speed>
<course>349.7</course>
<desc>Speed 123 km/h Distance 176 km</desc>
<time>2011-03-24T18:04:18.58</time>
<name>7944</name>
</trkpt>
<trkpt lat="49.542118" lon="8.629202">
<ele>154.0</ele>
<speed>126</speed>
<course>353.0</course>
<desc>Speed 126 km/h Distance 176 km</desc>
<time>2011-03-24T18:04:19.57</time>
<name>7945</name>
</trkpt>
<trkpt lat="49.542435" lon="8.629142">
<ele>154.5</ele>
<speed>127</speed>
<course>350.6</course>
<desc>Speed 127 km/h Distance 176 km</desc>
<time>2011-03-24T18:04:20.58</time>
<name>7946</name>
</trkpt>
<trkpt lat="49.542750" lon="8.629062">
<ele>155.0</ele>
<speed>129</speed>
<course>349.6</course>
<desc>Speed 129 km/h Distance 176 km</desc>
<time>2011-03-24T18:04:21.57</time>
<name>7947</name>
</trkpt>
<trkpt lat="49.543057" lon="8.628975">
<ele>155.0</ele>
<speed>125</speed>
<course>349.2</course>
<desc>Speed 125 km/h Distance 176 km</desc>
<time>2011-03-24T18:04:22.57</time>
<name>7948</name>
</trkpt>
<trkpt lat="49.543333" lon="8.628893">
<ele>155.0</ele>
<speed>113</speed>
<course>349.9</course>
<desc>Speed 113 km/h Distance 176 km</desc>
<time>2011-03-24T18:04:23.58</time>
<name>7949</name>
</trkpt>
<trkpt lat="49.543607" lon="8.628818">
<ele>155.0</ele>
<speed>111</speed>
<course>351.0</course>
<desc>Speed 111 km/h Distance 176 km</desc>
<time>2011-03-24T18:04:24.57</time>
<name>7950</name>
</trkpt>
<trkpt lat="49.543873" lon="8.628753">
<ele>155.5</ele>
<speed>108</speed>
<course>351.0</course>
<desc>Speed 108 km/h Distance 176 km</desc>
<time>2011-03-24T18:04:25.57</time>
<name>7951</name>
</trkpt>
<trkpt lat="49.544138" lon="8.628688">
<ele>155.5</ele>
<speed>107</speed>
<course>352.3</course>
<desc>Speed 107 km/h Distance 176 km</desc>
<time>2011-03-24T18:04:26.57</time>
<name>7952</name>
</trkpt>
<trkpt lat="49.544395" lon="8.628635">
<ele>156.0</ele>
<speed>103</speed>
<course>352.7</course>
<desc>Speed 103 km/h Distance 176 km</desc>
<time>2011-03-24T18:04:27.57</time>
<name>7953</name>
</trkpt>
<trkpt lat="49.544658" lon="8.628583">
<ele>156.5</ele>
<speed>106</speed>
<course>353.7</course>
<desc>Speed 106 km/h Distance 176 km</desc>
<time>2011-03-24T18:04:28.58</time>
<name>7954</name>
</trkpt>
<trkpt lat="49.544922" lon="8.628538">
<ele>156.5</ele>
<speed>106</speed>
<course>354.1</course>
<desc>Speed 106 km/h Distance 176 km</desc>
<time>2011-03-24T18:04:29.58</time>
<name>7955</name>
</trkpt>
<trkpt lat="49.545182" lon="8.628497">
<ele>156.5</ele>
<speed>104</speed>
<course>354.8</course>
<desc>Speed 104 km/h Distance 176 km</desc>
<time>2011-03-24T18:04:30.57</time>
<name>7956</name>
</trkpt>
<trkpt lat="49.545432" lon="8.628462">
<ele>156.5</ele>
<speed>100</speed>
<course>355.7</course>
<desc>Speed 100 km/h Distance 176 km</desc>
<time>2011-03-24T18:04:31.57</time>
<name>7957</name>
</trkpt>
<trkpt lat="49.545675" lon="8.628433">
<ele>156.5</ele>
<speed>96.7</speed>
<course>356.6</course>
<desc>Speed 96.7 km/h Distance 176 km</desc>
<time>2011-03-24T18:04:32.57</time>
<name>7958</name>
</trkpt>
<trkpt lat="49.545913" lon="8.628412">
<ele>156.5</ele>
<speed>95.3</speed>
<course>357.9</course>
<desc>Speed 95.3 km/h Distance 176 km</desc>
<time>2011-03-24T18:04:33.57</time>
<name>7959</name>
</trkpt>
<trkpt lat="49.546150" lon="8.628398">
<ele>156.0</ele>
<speed>94.9</speed>
<course>0.1</course>
<desc>Speed 94.9 km/h Distance 176 km</desc>
<time>2011-03-24T18:04:34.57</time>
<name>7960</name>
</trkpt>
<trkpt lat="49.546367" lon="8.628398">
<ele>155.5</ele>
<speed>86.5</speed>
<course>0.1</course>
<desc>Speed 86.5 km/h Distance 176 km</desc>
<time>2011-03-24T18:04:35.57</time>
<name>7961</name>
</trkpt>
<trkpt lat="49.546583" lon="8.628398">
<ele>155.5</ele>
<speed>86.8</speed>
<course>1.7</course>
<desc>Speed 86.8 km/h Distance 176 km</desc>
<time>2011-03-24T18:04:36.56</time>
<name>7962</name>
</trkpt>
<trkpt lat="49.546795" lon="8.628408">
<ele>156.0</ele>
<speed>84.2</speed>
<course>5.6</course>
<desc>Speed 84.2 km/h Distance 176 km</desc>
<time>2011-03-24T18:04:37.56</time>
<name>7963</name>
</trkpt>
<trkpt lat="49.546995" lon="8.628438">
<ele>155.5</ele>
<speed>80.3</speed>
<course>11.2</course>
<desc>Speed 80.3 km/h Distance 176 km</desc>
<time>2011-03-24T18:04:38.57</time>
<name>7964</name>
</trkpt>
<trkpt lat="49.547202" lon="8.628502">
<ele>155.0</ele>
<speed>82.4</speed>
<course>19.1</course>
<desc>Speed 82.4 km/h Distance 176 km</desc>
<time>2011-03-24T18:04:39.57</time>
<name>7965</name>
</trkpt>
<trkpt lat="49.547392" lon="8.628603">
<ele>155.0</ele>
<speed>79.5</speed>
<course>24.9</course>
<desc>Speed 79.5 km/h Distance 176 km</desc>
<time>2011-03-24T18:04:40.57</time>
<name>7966</name>
</trkpt>
<trkpt lat="49.547562" lon="8.628725">
<ele>154.5</ele>
<speed>74.3</speed>
<course>11.2</course>
<desc>Speed 74.3 km/h Distance 176 km</desc>
<time>2011-03-24T18:04:41.57</time>
<name>7967</name>
</trkpt>
<trkpt lat="49.547747" lon="8.628782">
<ele>154.0</ele>
<speed>75.7</speed>
<course>19.8</course>
<desc>Speed 75.7 km/h Distance 176 km</desc>
<time>2011-03-24T18:04:42.57</time>
<name>7968</name>
</trkpt>
<trkpt lat="49.547927" lon="8.628882">
<ele>152.5</ele>
<speed>75.0</speed>
<course>60.8</course>
<desc>Speed 75.0 km/h Distance 176 km</desc>
<time>2011-03-24T18:04:43.56</time>
<name>7969</name>
</trkpt>
<trkpt lat="49.548025" lon="8.629153">
<ele>151.5</ele>
<speed>78.6</speed>
<course>67.3</course>
<desc>Speed 78.6 km/h Distance 176 km</desc>
<time>2011-03-24T18:04:44.56</time>
<name>7970</name>
</trkpt>
<trkpt lat="49.548095" lon="8.629412">
<ele>151.0</ele>
<speed>78.6</speed>
<course>39.1</course>
<desc>Speed 78.6 km/h Distance 176 km</desc>
<time>2011-03-24T18:04:45.57</time>
<name>7971</name>
</trkpt>
<trkpt lat="49.548227" lon="8.629577">
<ele>149.0</ele>
<speed>64.3</speed>
<course>29.5</course>
<desc>Speed 64.3 km/h Distance 176 km</desc>
<time>2011-03-24T18:04:46.56</time>
<name>7972</name>
</trkpt>
<trkpt lat="49.548370" lon="8.629702">
<ele>148.5</ele>
<speed>64.8</speed>
<course>35.0</course>
<desc>Speed 64.8 km/h Distance 176 km</desc>
<time>2011-03-24T18:04:47.57</time>
<name>7973</name>
</trkpt>
<trkpt lat="49.548497" lon="8.629838">
<ele>147.5</ele>
<speed>60.9</speed>
<course>49.3</course>
<desc>Speed 60.9 km/h Distance 176 km</desc>
<time>2011-03-24T18:04:48.56</time>
<name>7974</name>
</trkpt>
<trkpt lat="49.548592" lon="8.630008">
<ele>145.0</ele>
<speed>52.1</speed>
<course>64.7</course>
<desc>Speed 52.1 km/h Distance 176 km</desc>
<time>2011-03-24T18:04:49.56</time>
<name>7975</name>
</trkpt>
<trkpt lat="49.548655" lon="8.630215">
<ele>143.0</ele>
<speed>57.2</speed>
<course>71.8</course>
<desc>Speed 57.2 km/h Distance 177 km</desc>
<time>2011-03-24T18:04:50.56</time>
<name>7976</name>
</trkpt>
<trkpt lat="49.548705" lon="8.630450">
<ele>142.5</ele>
<speed>63.4</speed>
<course>70.0</course>
<desc>Speed 63.4 km/h Distance 177 km</desc>
<time>2011-03-24T18:04:51.57</time>
<name>7977</name>
</trkpt>
<trkpt lat="49.548762" lon="8.630690">
<ele>141.0</ele>
<speed>65.3</speed>
<course>69.8</course>
<desc>Speed 65.3 km/h Distance 177 km</desc>
<time>2011-03-24T18:04:52.56</time>
<name>7978</name>
</trkpt>
<trkpt lat="49.548823" lon="8.630948">
<ele>141.0</ele>
<speed>71.2</speed>
<course>85.4</course>
<desc>Speed 71.2 km/h Distance 177 km</desc>
<time>2011-03-24T18:04:53.56</time>
<name>7979</name>
</trkpt>
<trkpt lat="49.548838" lon="8.631237">
<ele>141.5</ele>
<speed>75.0</speed>
<course>88.5</course>
<desc>Speed 75.0 km/h Distance 177 km</desc>
<time>2011-03-24T18:04:54.56</time>
<name>7980</name>
</trkpt>
<trkpt lat="49.548843" lon="8.631540">
<ele>141.5</ele>
<speed>78.2</speed>
<course>88.6</course>
<desc>Speed 78.2 km/h Distance 177 km</desc>
<time>2011-03-24T18:04:55.57</time>
<name>7981</name>
</trkpt>
<trkpt lat="49.548848" lon="8.631847">
<ele>141.5</ele>
<speed>79.4</speed>
<course>84.6</course>
<desc>Speed 79.4 km/h Distance 177 km</desc>
<time>2011-03-24T18:04:56.56</time>
<name>7982</name>
</trkpt>
<trkpt lat="49.548868" lon="8.632172">
<ele>142.0</ele>
<speed>84.1</speed>
<course>85.9</course>
<desc>Speed 84.1 km/h Distance 177 km</desc>
<time>2011-03-24T18:04:57.56</time>
<name>7983</name>
</trkpt>
<trkpt lat="49.548885" lon="8.632532">
<ele>141.5</ele>
<speed>93.5</speed>
<course>84.8</course>
<desc>Speed 93.5 km/h Distance 177 km</desc>
<time>2011-03-24T18:04:58.55</time>
<name>7984</name>
</trkpt>
<trkpt lat="49.548908" lon="8.632930">
<ele>142.0</ele>
<speed>104</speed>
<course>83.9</course>
<desc>Speed 104 km/h Distance 177 km</desc>
<time>2011-03-24T18:04:59.56</time>
<name>7985</name>
</trkpt>
<trkpt lat="49.548938" lon="8.633362">
<ele>142.0</ele>
<speed>113</speed>
<course>80.2</course>
<desc>Speed 113 km/h Distance 177 km</desc>
<time>2011-03-24T18:05:00.55</time>
<name>7986</name>
</trkpt>
<trkpt lat="49.548988" lon="8.633810">
<ele>142.0</ele>
<speed>118</speed>
<course>80.4</course>
<desc>Speed 118 km/h Distance 177 km</desc>
<time>2011-03-24T18:05:01.54</time>
<name>7987</name>
</trkpt>
<trkpt lat="49.549038" lon="8.634267">
<ele>142.0</ele>
<speed>121</speed>
<course>78.4</course>
<desc>Speed 121 km/h Distance 177 km</desc>
<time>2011-03-24T18:05:02.55</time>
<name>7988</name>
</trkpt>
<trkpt lat="49.549093" lon="8.634680">
<ele>142.0</ele>
<speed>110</speed>
<course>73.6</course>
<desc>Speed 110 km/h Distance 177 km</desc>
<time>2011-03-24T18:05:03.55</time>
<name>7989</name>
</trkpt>
<trkpt lat="49.549168" lon="8.635072">
<ele>142.0</ele>
<speed>106</speed>
<course>75.2</course>
<desc>Speed 106 km/h Distance 177 km</desc>
<time>2011-03-24T18:05:04.55</time>
<name>7990</name>
</trkpt>
<trkpt lat="49.549277" lon="8.635705">
<ele>142.5</ele>
<speed>83.4</speed>
<course>77.1</course>
<desc>Speed 83.4 km/h Distance 177 km</desc>
<time>2011-03-24T18:05:06.54</time>
<name>7991</name>
</trkpt>
<trkpt lat="49.549322" lon="8.636008">
<ele>142.5</ele>
<speed>78.6</speed>
<course>68.2</course>
<desc>Speed 78.6 km/h Distance 177 km</desc>
<time>2011-03-24T18:05:07.54</time>
<name>7992</name>
</trkpt>
<trkpt lat="49.549397" lon="8.636297">
<ele>142.5</ele>
<speed>78.8</speed>
<course>63.1</course>
<desc>Speed 78.8 km/h Distance 177 km</desc>
<time>2011-03-24T18:05:08.54</time>
<name>7993</name>
</trkpt>
<trkpt lat="49.549567" lon="8.636813">
<ele>142.0</ele>
<speed>53.9</speed>
<course>59.2</course>
<desc>Speed 53.9 km/h Distance 177 km</desc>
<time>2011-03-24T18:05:10.54</time>
<name>7994</name>
</trkpt>
<trkpt lat="49.549623" lon="8.636960">
<ele>143.0</ele>
<speed>41.9</speed>
<course>57.2</course>
<desc>Speed 41.9 km/h Distance 177 km</desc>
<time>2011-03-24T18:05:11.55</time>
<name>7995</name>
</trkpt>
<trkpt lat="49.549670" lon="8.637072">
<ele>143.5</ele>
<speed>31.6</speed>
<course>57.8</course>
<desc>Speed 31.6 km/h Distance 177 km</desc>
<time>2011-03-24T18:05:12.55</time>
<name>7996</name>
</trkpt>
<trkpt lat="49.549703" lon="8.637153">
<ele>143.5</ele>
<speed>23.9</speed>
<course>57.6</course>
<desc>Speed 23.9 km/h Distance 177 km</desc>
<time>2011-03-24T18:05:13.54</time>
<name>7997</name>
</trkpt>
<trkpt lat="49.549727" lon="8.637210">
<ele>143.0</ele>
<speed>15.9</speed>
<course>55.0</course>
<desc>Speed 15.9 km/h Distance 177 km</desc>
<time>2011-03-24T18:05:14.54</time>
<name>7998</name>
</trkpt>
<trkpt lat="49.549760" lon="8.637283">
<ele>143.0</ele>
<speed>22.2</speed>
<course>58.1</course>
<desc>Speed 22.2 km/h Distance 177 km</desc>
<time>2011-03-24T18:05:15.54</time>
<name>7999</name>
</trkpt>
<trkpt lat="49.549795" lon="8.637370">
<ele>143.5</ele>
<speed>26.3</speed>
<course>55.4</course>
<desc>Speed 26.3 km/h Distance 177 km</desc>
<time>2011-03-24T18:05:16.54</time>
<name>8000</name>
</trkpt>
<trkpt lat="49.549845" lon="8.637482">
<ele>143.5</ele>
<speed>34.8</speed>
<course>58.5</course>
<desc>Speed 34.8 km/h Distance 177 km</desc>
<time>2011-03-24T18:05:17.54</time>
<name>8001</name>
</trkpt>
<trkpt lat="49.549893" lon="8.637603">
<ele>143.5</ele>
<speed>36.2</speed>
<course>55.3</course>
<desc>Speed 36.2 km/h Distance 177 km</desc>
<time>2011-03-24T18:05:18.54</time>
<name>8002</name>
</trkpt>
<trkpt lat="49.549952" lon="8.637733">
<ele>144.0</ele>
<speed>40.0</speed>
<course>55.8</course>
<desc>Speed 40.0 km/h Distance 177 km</desc>
<time>2011-03-24T18:05:19.54</time>
<name>8003</name>
</trkpt>
<trkpt lat="49.550008" lon="8.637862">
<ele>144.0</ele>
<speed>39.9</speed>
<course>56.4</course>
<desc>Speed 39.9 km/h Distance 177 km</desc>
<time>2011-03-24T18:05:20.53</time>
<name>8004</name>
</trkpt>
<trkpt lat="49.550072" lon="8.638008">
<ele>144.5</ele>
<speed>45.3</speed>
<course>53.8</course>
<desc>Speed 45.3 km/h Distance 177 km</desc>
<time>2011-03-24T18:05:21.55</time>
<name>8005</name>
</trkpt>
<trkpt lat="49.550150" lon="8.638173">
<ele>144.5</ele>
<speed>52.8</speed>
<course>51.9</course>
<desc>Speed 52.8 km/h Distance 177 km</desc>
<time>2011-03-24T18:05:22.54</time>
<name>8006</name>
</trkpt>
<trkpt lat="49.550238" lon="8.638347">
<ele>144.0</ele>
<speed>56.4</speed>
<course>50.8</course>
<desc>Speed 56.4 km/h Distance 177 km</desc>
<time>2011-03-24T18:05:23.54</time>
<name>8007</name>
</trkpt>
<trkpt lat="49.550330" lon="8.638520">
<ele>144.0</ele>
<speed>57.5</speed>
<course>49.2</course>
<desc>Speed 57.5 km/h Distance 177 km</desc>
<time>2011-03-24T18:05:24.54</time>
<name>8008</name>
</trkpt>
<trkpt lat="49.550430" lon="8.638698">
<ele>144.5</ele>
<speed>61.0</speed>
<course>46.5</course>
<desc>Speed 61.0 km/h Distance 177 km</desc>
<time>2011-03-24T18:05:25.54</time>
<name>8009</name>
</trkpt>
<trkpt lat="49.550542" lon="8.638880">
<ele>145.0</ele>
<speed>64.8</speed>
<course>43.1</course>
<desc>Speed 64.8 km/h Distance 177 km</desc>
<time>2011-03-24T18:05:26.54</time>
<name>8010</name>
</trkpt>
<trkpt lat="49.550670" lon="8.639065">
<ele>145.0</ele>
<speed>69.6</speed>
<course>42.8</course>
<desc>Speed 69.6 km/h Distance 177 km</desc>
<time>2011-03-24T18:05:27.53</time>
<name>8011</name>
</trkpt>
<trkpt lat="49.550803" lon="8.639255">
<ele>145.0</ele>
<speed>72.7</speed>
<course>41.0</course>
<desc>Speed 72.7 km/h Distance 177 km</desc>
<time>2011-03-24T18:05:28.53</time>
<name>8012</name>
</trkpt>
<trkpt lat="49.550940" lon="8.639438">
<ele>145.0</ele>
<speed>72.5</speed>
<course>39.4</course>
<desc>Speed 72.5 km/h Distance 177 km</desc>
<time>2011-03-24T18:05:29.53</time>
<name>8013</name>
</trkpt>
<trkpt lat="49.551085" lon="8.639622">
<ele>145.5</ele>
<speed>74.3</speed>
<course>37.2</course>
<desc>Speed 74.3 km/h Distance 177 km</desc>
<time>2011-03-24T18:05:30.53</time>
<name>8014</name>
</trkpt>
<trkpt lat="49.551242" lon="8.639805">
<ele>145.5</ele>
<speed>78.0</speed>
<course>35.8</course>
<desc>Speed 78.0 km/h Distance 177 km</desc>
<time>2011-03-24T18:05:31.53</time>
<name>8015</name>
</trkpt>
<trkpt lat="49.551408" lon="8.639990">
<ele>146.0</ele>
<speed>81.6</speed>
<course>33.0</course>
<desc>Speed 81.6 km/h Distance 177 km</desc>
<time>2011-03-24T18:05:32.53</time>
<name>8016</name>
</trkpt>
<trkpt lat="49.551585" lon="8.640167">
<ele>146.5</ele>
<speed>82.9</speed>
<course>31.3</course>
<desc>Speed 82.9 km/h Distance 177 km</desc>
<time>2011-03-24T18:05:33.53</time>
<name>8017</name>
</trkpt>
<trkpt lat="49.551768" lon="8.640338">
<ele>147.0</ele>
<speed>83.4</speed>
<course>30.2</course>
<desc>Speed 83.4 km/h Distance 177 km</desc>
<time>2011-03-24T18:05:34.53</time>
<name>8018</name>
</trkpt>
<trkpt lat="49.551948" lon="8.640500">
<ele>147.0</ele>
<speed>83.9</speed>
<course>28.9</course>
<desc>Speed 83.9 km/h Distance 177 km</desc>
<time>2011-03-24T18:05:35.54</time>
<name>8019</name>
</trkpt>
<trkpt lat="49.552137" lon="8.640660">
<ele>147.5</ele>
<speed>86.0</speed>
<course>27.8</course>
<desc>Speed 86.0 km/h Distance 177 km</desc>
<time>2011-03-24T18:05:36.53</time>
<name>8020</name>
</trkpt>
<trkpt lat="49.552332" lon="8.640818">
<ele>147.5</ele>
<speed>88.4</speed>
<course>26.7</course>
<desc>Speed 88.4 km/h Distance 177 km</desc>
<time>2011-03-24T18:05:37.53</time>
<name>8021</name>
</trkpt>
<trkpt lat="49.552533" lon="8.640975">
<ele>147.5</ele>
<speed>90.5</speed>
<course>25.6</course>
<desc>Speed 90.5 km/h Distance 177 km</desc>
<time>2011-03-24T18:05:38.53</time>
<name>8022</name>
</trkpt>
<trkpt lat="49.552743" lon="8.641130">
<ele>148.0</ele>
<speed>93.0</speed>
<course>25.4</course>
<desc>Speed 93.0 km/h Distance 177 km</desc>
<time>2011-03-24T18:05:39.53</time>
<name>8023</name>
</trkpt>
<trkpt lat="49.552948" lon="8.641280">
<ele>148.0</ele>
<speed>91.2</speed>
<course>24.6</course>
<desc>Speed 91.2 km/h Distance 177 km</desc>
<time>2011-03-24T18:05:40.53</time>
<name>8024</name>
</trkpt>
<trkpt lat="49.553158" lon="8.641428">
<ele>148.0</ele>
<speed>92.1</speed>
<course>25.7</course>
<desc>Speed 92.1 km/h Distance 178 km</desc>
<time>2011-03-24T18:05:41.53</time>
<name>8025</name>
</trkpt>
<trkpt lat="49.553378" lon="8.641592">
<ele>148.0</ele>
<speed>97.7</speed>
<course>26.4</course>
<desc>Speed 97.7 km/h Distance 178 km</desc>
<time>2011-03-24T18:05:42.54</time>
<name>8026</name>
</trkpt>
<trkpt lat="49.553612" lon="8.641770">
<ele>148.0</ele>
<speed>104</speed>
<course>27.1</course>
<desc>Speed 104 km/h Distance 178 km</desc>
<time>2011-03-24T18:05:43.54</time>
<name>8027</name>
</trkpt>
<trkpt lat="49.553848" lon="8.641957">
<ele>148.5</ele>
<speed>106</speed>
<course>27.8</course>
<desc>Speed 106 km/h Distance 178 km</desc>
<time>2011-03-24T18:05:44.53</time>
<name>8028</name>
</trkpt>
<trkpt lat="49.554080" lon="8.642145">
<ele>149.0</ele>
<speed>104</speed>
<course>29.1</course>
<desc>Speed 104 km/h Distance 178 km</desc>
<time>2011-03-24T18:05:45.53</time>
<name>8029</name>
</trkpt>
<trkpt lat="49.554303" lon="8.642337">
<ele>149.0</ele>
<speed>102</speed>
<course>31.9</course>
<desc>Speed 102 km/h Distance 178 km</desc>
<time>2011-03-24T18:05:46.52</time>
<name>8030</name>
</trkpt>
<trkpt lat="49.554515" lon="8.642540">
<ele>149.0</ele>
<speed>99.9</speed>
<course>34.5</course>
<desc>Speed 99.9 km/h Distance 178 km</desc>
<time>2011-03-24T18:05:47.53</time>
<name>8031</name>
</trkpt>
<trkpt lat="49.554717" lon="8.642753">
<ele>149.5</ele>
<speed>98.5</speed>
<course>37.1</course>
<desc>Speed 98.5 km/h Distance 178 km</desc>
<time>2011-03-24T18:05:48.52</time>
<name>8032</name>
</trkpt>
<trkpt lat="49.554908" lon="8.642977">
<ele>149.5</ele>
<speed>96.3</speed>
<course>39.8</course>
<desc>Speed 96.3 km/h Distance 178 km</desc>
<time>2011-03-24T18:05:49.52</time>
<name>8033</name>
</trkpt>
<trkpt lat="49.555090" lon="8.643210">
<ele>149.5</ele>
<speed>94.8</speed>
<course>41.9</course>
<desc>Speed 94.8 km/h Distance 178 km</desc>
<time>2011-03-24T18:05:50.52</time>
<name>8034</name>
</trkpt>
<trkpt lat="49.555265" lon="8.643452">
<ele>150.0</ele>
<speed>94.0</speed>
<course>44.9</course>
<desc>Speed 94.0 km/h Distance 178 km</desc>
<time>2011-03-24T18:05:51.52</time>
<name>8035</name>
</trkpt>
<trkpt lat="49.555427" lon="8.643700">
<ele>149.5</ele>
<speed>91.8</speed>
<course>46.4</course>
<desc>Speed 91.8 km/h Distance 178 km</desc>
<time>2011-03-24T18:05:52.52</time>
<name>8036</name>
</trkpt>
<trkpt lat="49.555583" lon="8.643953">
<ele>149.5</ele>
<speed>90.9</speed>
<course>48.9</course>
<desc>Speed 90.9 km/h Distance 178 km</desc>
<time>2011-03-24T18:05:53.52</time>
<name>8037</name>
</trkpt>
<trkpt lat="49.555725" lon="8.644203">
<ele>150.0</ele>
<speed>86.2</speed>
<course>50.3</course>
<desc>Speed 86.2 km/h Distance 178 km</desc>
<time>2011-03-24T18:05:54.52</time>
<name>8038</name>
</trkpt>
<trkpt lat="49.555855" lon="8.644445">
<ele>150.5</ele>
<speed>81.7</speed>
<course>53.1</course>
<desc>Speed 81.7 km/h Distance 178 km</desc>
<time>2011-03-24T18:05:55.54</time>
<name>8039</name>
</trkpt>
<trkpt lat="49.555973" lon="8.644688">
<ele>151.0</ele>
<speed>78.9</speed>
<course>53.7</course>
<desc>Speed 78.9 km/h Distance 178 km</desc>
<time>2011-03-24T18:05:56.53</time>
<name>8040</name>
</trkpt>
<trkpt lat="49.556088" lon="8.644930">
<ele>151.0</ele>
<speed>77.8</speed>
<course>56.0</course>
<desc>Speed 77.8 km/h Distance 178 km</desc>
<time>2011-03-24T18:05:57.53</time>
<name>8041</name>
</trkpt>
<trkpt lat="49.556193" lon="8.645170">
<ele>151.5</ele>
<speed>76.4</speed>
<course>58.5</course>
<desc>Speed 76.4 km/h Distance 178 km</desc>
<time>2011-03-24T18:05:58.53</time>
<name>8042</name>
</trkpt>
<trkpt lat="49.556293" lon="8.645422">
<ele>151.0</ele>
<speed>76.7</speed>
<course>60.6</course>
<desc>Speed 76.7 km/h Distance 178 km</desc>
<time>2011-03-24T18:05:59.53</time>
<name>8043</name>
</trkpt>
<trkpt lat="49.556383" lon="8.645668">
<ele>151.0</ele>
<speed>73.7</speed>
<course>62.3</course>
<desc>Speed 73.7 km/h Distance 178 km</desc>
<time>2011-03-24T18:06:00.52</time>
<name>8044</name>
</trkpt>
<trkpt lat="49.556465" lon="8.645908">
<ele>151.5</ele>
<speed>70.5</speed>
<course>64.7</course>
<desc>Speed 70.5 km/h Distance 178 km</desc>
<time>2011-03-24T18:06:01.53</time>
<name>8045</name>
</trkpt>
<trkpt lat="49.556535" lon="8.646137">
<ele>151.0</ele>
<speed>65.9</speed>
<course>68.1</course>
<desc>Speed 65.9 km/h Distance 178 km</desc>
<time>2011-03-24T18:06:02.51</time>
<name>8046</name>
</trkpt>
<trkpt lat="49.556593" lon="8.646360">
<ele>152.0</ele>
<speed>62.4</speed>
<course>69.2</course>
<desc>Speed 62.4 km/h Distance 178 km</desc>
<time>2011-03-24T18:06:03.52</time>
<name>8047</name>
</trkpt>
<trkpt lat="49.556645" lon="8.646570">
<ele>152.0</ele>
<speed>59.0</speed>
<course>72.9</course>
<desc>Speed 59.0 km/h Distance 178 km</desc>
<time>2011-03-24T18:06:04.51</time>
<name>8048</name>
</trkpt>
<trkpt lat="49.556687" lon="8.646778">
<ele>153.5</ele>
<speed>56.6</speed>
<course>68.9</course>
<desc>Speed 56.6 km/h Distance 178 km</desc>
<time>2011-03-24T18:06:05.51</time>
<name>8049</name>
</trkpt>
<trkpt lat="49.556735" lon="8.646972">
<ele>153.5</ele>
<speed>53.9</speed>
<course>70.6</course>
<desc>Speed 53.9 km/h Distance 178 km</desc>
<time>2011-03-24T18:06:06.51</time>
<name>8050</name>
</trkpt>
<trkpt lat="49.556778" lon="8.647162">
<ele>154.0</ele>
<speed>52.7</speed>
<course>71.6</course>
<desc>Speed 52.7 km/h Distance 178 km</desc>
<time>2011-03-24T18:06:07.52</time>
<name>8051</name>
</trkpt>
<trkpt lat="49.556818" lon="8.647347">
<ele>154.0</ele>
<speed>50.4</speed>
<course>78.2</course>
<desc>Speed 50.4 km/h Distance 178 km</desc>
<time>2011-03-24T18:06:08.51</time>
<name>8052</name>
</trkpt>
<trkpt lat="49.556842" lon="8.647518">
<ele>154.0</ele>
<speed>45.9</speed>
<course>77.3</course>
<desc>Speed 45.9 km/h Distance 178 km</desc>
<time>2011-03-24T18:06:09.51</time>
<name>8053</name>
</trkpt>
<trkpt lat="49.556862" lon="8.647655">
<ele>154.0</ele>
<speed>36.2</speed>
<course>73.4</course>
<desc>Speed 36.2 km/h Distance 178 km</desc>
<time>2011-03-24T18:06:10.51</time>
<name>8054</name>
</trkpt>
<trkpt lat="49.556882" lon="8.647758">
<ele>153.0</ele>
<speed>28.1</speed>
<course>83.1</course>
<desc>Speed 28.1 km/h Distance 178 km</desc>
<time>2011-03-24T18:06:11.51</time>
<name>8055</name>
</trkpt>
<trkpt lat="49.556888" lon="8.647843">
<ele>153.5</ele>
<speed>22.1</speed>
<course>81.8</course>
<desc>Speed 22.1 km/h Distance 178 km</desc>
<time>2011-03-24T18:06:12.51</time>
<name>8056</name>
</trkpt>
<trkpt lat="49.556893" lon="8.647897">
<ele>154.5</ele>
<speed>14.2</speed>
<course>80.0</course>
<desc>Speed 14.2 km/h Distance 178 km</desc>
<time>2011-03-24T18:06:13.50</time>
<name>8057</name>
</trkpt>
<trkpt lat="49.556900" lon="8.647955">
<ele>154.5</ele>
<speed>15.2</speed>
<course>83.5</course>
<desc>Speed 15.2 km/h Distance 178 km</desc>
<time>2011-03-24T18:06:14.51</time>
<name>8058</name>
</trkpt>
<trkpt lat="49.556903" lon="8.648000">
<ele>155.0</ele>
<speed>11.5</speed>
<course>85.4</course>
<desc>Speed 11.5 km/h Distance 178 km</desc>
<time>2011-03-24T18:06:15.50</time>
<name>8059</name>
</trkpt>
<trkpt lat="49.556905" lon="8.648032">
<ele>155.0</ele>
<speed>7.9</speed>
<course>192.6</course>
<desc>Speed 7.9 km/h Distance 178 km</desc>
<time>2011-03-24T18:06:16.51</time>
<name>8060</name>
</trkpt>
<trkpt lat="49.556900" lon="8.648030">
<ele>155.5</ele>
<speed>1.5</speed>
<course>90.0</course>
<desc>Speed 1.5 km/h Distance 178 km</desc>
<time>2011-03-24T18:06:17.51</time>
<name>8061</name>
</trkpt>
<trkpt lat="49.556900" lon="8.648032">
<ele>155.5</ele>
<speed>0.3</speed>
<course>90.0</course>
<desc>Speed 0.3 km/h Distance 178 km</desc>
<time>2011-03-24T18:06:18.50</time>
<name>8062</name>
</trkpt>
<trkpt lat="49.556900" lon="8.648035">
<ele>155.5</ele>
<speed>0.2</speed>
<course>90.0</course>
<desc>Speed 0.2 km/h Distance 178 km</desc>
<time>2011-03-24T18:06:19.50</time>
<name>8063</name>
</trkpt>
<trkpt lat="49.556900" lon="8.648035">
<ele>155.5</ele>
<speed>0.1</speed>
<course>29.2</course>
<desc>Speed 0.1 km/h Distance 178 km</desc>
<time>2011-03-24T18:06:20.50</time>
<name>8064</name>
</trkpt>
<trkpt lat="49.556902" lon="8.648037">
<ele>155.5</ele>
<speed>0.1</speed>
<course>90.0</course>
<desc>Speed 0.1 km/h Distance 178 km</desc>
<time>2011-03-24T18:06:21.51</time>
<name>8065</name>
</trkpt>
<trkpt lat="49.556902" lon="8.648038">
<ele>155.5</ele>
<speed>0.3</speed>
<course>90.0</course>
<desc>Speed 0.3 km/h Distance 178 km</desc>
<time>2011-03-24T18:06:22.51</time>
<name>8066</name>
</trkpt>
<trkpt lat="49.556902" lon="8.648038">
<ele>155.5</ele>
<speed>0.2</speed>
<course>90.0</course>
<desc>Speed 0.2 km/h Distance 178 km</desc>
<time>2011-03-24T18:06:23.50</time>
<name>8067</name>
</trkpt>
<trkpt lat="49.556902" lon="8.648040">
<ele>155.5</ele>
<speed>0.2</speed>
<course>90.0</course>
<desc>Speed 0.2 km/h Distance 178 km</desc>
<time>2011-03-24T18:06:24.50</time>
<name>8068</name>
</trkpt>
<trkpt lat="49.556902" lon="8.648040">
<ele>155.5</ele>
<speed>0.2</speed>
<course>90.0</course>
<desc>Speed 0.2 km/h Distance 178 km</desc>
<time>2011-03-24T18:06:25.51</time>
<name>8069</name>
</trkpt>
<trkpt lat="49.556902" lon="8.648040">
<ele>155.5</ele>
<speed>0.1</speed>
<course>90.0</course>
<desc>Speed 0.1 km/h Distance 178 km</desc>
<time>2011-03-24T18:06:26.51</time>
<name>8070</name>
</trkpt>
<trkpt lat="49.556902" lon="8.648040">
<ele>155.0</ele>
<speed>0.0</speed>
<course>90.0</course>
<desc>Speed 0.0 km/h Distance 178 km</desc>
<time>2011-03-24T18:06:27.51</time>
<name>8071</name>
</trkpt>
<trkpt lat="49.556902" lon="8.648040">
<ele>155.0</ele>
<speed>0.2</speed>
<course>12.6</course>
<desc>Speed 0.2 km/h Distance 178 km</desc>
<time>2011-03-24T18:06:28.51</time>
<name>8072</name>
</trkpt>
<trkpt lat="49.556903" lon="8.648040">
<ele>154.5</ele>
<speed>0.1</speed>
<course>90.0</course>
<desc>Speed 0.1 km/h Distance 178 km</desc>
<time>2011-03-24T18:06:29.51</time>
<name>8073</name>
</trkpt>
<trkpt lat="49.556903" lon="8.648042">
<ele>154.5</ele>
<speed>0.3</speed>
<course>167.4</course>
<desc>Speed 0.3 km/h Distance 178 km</desc>
<time>2011-03-24T18:06:30.51</time>
<name>8074</name>
</trkpt>
<trkpt lat="49.556902" lon="8.648042">
<ele>154.5</ele>
<speed>0.2</speed>
<course>167.4</course>
<desc>Speed 0.2 km/h Distance 178 km</desc>
<time>2011-03-24T18:06:31.51</time>
<name>8075</name>
</trkpt>
<trkpt lat="49.556902" lon="8.648042">
<ele>154.5</ele>
<speed>0.1</speed>
<course>167.4</course>
<desc>Speed 0.1 km/h Distance 178 km</desc>
<time>2011-03-24T18:06:32.51</time>
<name>8076</name>
</trkpt>
<trkpt lat="49.556902" lon="8.648042">
<ele>154.5</ele>
<speed>0.1</speed>
<course>90.0</course>
<desc>Speed 0.1 km/h Distance 178 km</desc>
<time>2011-03-24T18:06:33.51</time>
<name>8077</name>
</trkpt>
<trkpt lat="49.556902" lon="8.648043">
<ele>154.5</ele>
<speed>0.1</speed>
<course>167.4</course>
<desc>Speed 0.1 km/h Distance 178 km</desc>
<time>2011-03-24T18:06:34.50</time>
<name>8078</name>
</trkpt>
<trkpt lat="49.556900" lon="8.648043">
<ele>154.5</ele>
<speed>0.1</speed>
<course>12.6</course>
<desc>Speed 0.1 km/h Distance 178 km</desc>
<time>2011-03-24T18:06:35.49</time>
<name>8079</name>
</trkpt>
<trkpt lat="49.556902" lon="8.648043">
<ele>154.5</ele>
<speed>0.1</speed>
<course>12.6</course>
<desc>Speed 0.1 km/h Distance 178 km</desc>
<time>2011-03-24T18:06:36.51</time>
<name>8080</name>
</trkpt>
<trkpt lat="49.556902" lon="8.648043">
<ele>154.5</ele>
<speed>0.1</speed>
<course>12.6</course>
<desc>Speed 0.1 km/h Distance 178 km</desc>
<time>2011-03-24T18:06:37.51</time>
<name>8081</name>
</trkpt>
<trkpt lat="49.556902" lon="8.648043">
<ele>154.5</ele>
<speed>0.1</speed>
<course>90.0</course>
<desc>Speed 0.1 km/h Distance 178 km</desc>
<time>2011-03-24T18:06:38.50</time>
<name>8082</name>
</trkpt>
<trkpt lat="49.556902" lon="8.648045">
<ele>154.5</ele>
<speed>0.1</speed>
<course>270.0</course>
<desc>Speed 0.1 km/h Distance 178 km</desc>
<time>2011-03-24T18:06:39.50</time>
<name>8083</name>
</trkpt>
<trkpt lat="49.556902" lon="8.648043">
<ele>154.5</ele>
<speed>0.1</speed>
<course>270.0</course>
<desc>Speed 0.1 km/h Distance 178 km</desc>
<time>2011-03-24T18:06:40.50</time>
<name>8084</name>
</trkpt>
<trkpt lat="49.556902" lon="8.648043">
<ele>154.5</ele>
<speed>0.2</speed>
<course>270.0</course>
<desc>Speed 0.2 km/h Distance 178 km</desc>
<time>2011-03-24T18:06:41.50</time>
<name>8085</name>
</trkpt>
<trkpt lat="49.556902" lon="8.648043">
<ele>154.5</ele>
<speed>0.1</speed>
<course>270.0</course>
<desc>Speed 0.1 km/h Distance 178 km</desc>
<time>2011-03-24T18:06:42.50</time>
<name>8086</name>
</trkpt>
<trkpt lat="49.556902" lon="8.648043">
<ele>154.5</ele>
<speed>0.1</speed>
<course>90.0</course>
<desc>Speed 0.1 km/h Distance 178 km</desc>
<time>2011-03-24T18:06:43.50</time>
<name>8087</name>
</trkpt>
<trkpt lat="49.556902" lon="8.648045">
<ele>154.5</ele>
<speed>0.2</speed>
<course>90.0</course>
<desc>Speed 0.2 km/h Distance 178 km</desc>
<time>2011-03-24T18:06:44.50</time>
<name>8088</name>
</trkpt>
<trkpt lat="49.556902" lon="8.648045">
<ele>154.5</ele>
<speed>0.2</speed>
<course>90.0</course>
<desc>Speed 0.2 km/h Distance 178 km</desc>
<time>2011-03-24T18:06:45.50</time>
<name>8089</name>
</trkpt>
<trkpt lat="49.556902" lon="8.648045">
<ele>154.5</ele>
<speed>0.2</speed>
<course>90.0</course>
<desc>Speed 0.2 km/h Distance 178 km</desc>
<time>2011-03-24T18:06:46.50</time>
<name>8090</name>
</trkpt>
<trkpt lat="49.556902" lon="8.648045">
<ele>154.5</ele>
<speed>0.4</speed>
<course>77.6</course>
<desc>Speed 0.4 km/h Distance 178 km</desc>
<time>2011-03-24T18:06:47.50</time>
<name>8091</name>
</trkpt>
<trkpt lat="49.556903" lon="8.648057">
<ele>155.0</ele>
<speed>2.8</speed>
<course>80.8</course>
<desc>Speed 2.8 km/h Distance 178 km</desc>
<time>2011-03-24T18:06:48.50</time>
<name>8092</name>
</trkpt>
<trkpt lat="49.556907" lon="8.648088">
<ele>155.0</ele>
<speed>8.1</speed>
<course>74.1</course>
<desc>Speed 8.1 km/h Distance 178 km</desc>
<time>2011-03-24T18:06:49.49</time>
<name>8093</name>
</trkpt>
<trkpt lat="49.556918" lon="8.648152">
<ele>154.0</ele>
<speed>17.2</speed>
<course>78.9</course>
<desc>Speed 17.2 km/h Distance 178 km</desc>
<time>2011-03-24T18:06:50.50</time>
<name>8094</name>
</trkpt>
<trkpt lat="49.556930" lon="8.648243">
<ele>152.5</ele>
<speed>24.0</speed>
<course>80.8</course>
<desc>Speed 24.0 km/h Distance 178 km</desc>
<time>2011-03-24T18:06:51.49</time>
<name>8095</name>
</trkpt>
<trkpt lat="49.556940" lon="8.648338">
<ele>152.5</ele>
<speed>24.7</speed>
<course>80.9</course>
<desc>Speed 24.7 km/h Distance 178 km</desc>
<time>2011-03-24T18:06:52.49</time>
<name>8096</name>
</trkpt>
<trkpt lat="49.556950" lon="8.648435">
<ele>153.0</ele>
<speed>25.3</speed>
<course>78.3</course>
<desc>Speed 25.3 km/h Distance 178 km</desc>
<time>2011-03-24T18:06:53.49</time>
<name>8097</name>
</trkpt>
<trkpt lat="49.556962" lon="8.648522">
<ele>153.0</ele>
<speed>22.7</speed>
<course>71.8</course>
<desc>Speed 22.7 km/h Distance 178 km</desc>
<time>2011-03-24T18:06:54.49</time>
<name>8098</name>
</trkpt>
<trkpt lat="49.556978" lon="8.648600">
<ele>153.0</ele>
<speed>21.6</speed>
<course>54.0</course>
<desc>Speed 21.6 km/h Distance 178 km</desc>
<time>2011-03-24T18:06:55.50</time>
<name>8099</name>
</trkpt>
<trkpt lat="49.557018" lon="8.648685">
<ele>154.0</ele>
<speed>27.2</speed>
<course>34.4</course>
<desc>Speed 27.2 km/h Distance 178 km</desc>
<time>2011-03-24T18:06:56.49</time>
<name>8100</name>
</trkpt>
<trkpt lat="49.557080" lon="8.648750">
<ele>155.0</ele>
<speed>30.0</speed>
<course>8.5</course>
<desc>Speed 30.0 km/h Distance 178 km</desc>
<time>2011-03-24T18:06:57.49</time>
<name>8101</name>
</trkpt>
<trkpt lat="49.557167" lon="8.648770">
<ele>155.0</ele>
<speed>34.5</speed>
<course>352.0</course>
<desc>Speed 34.5 km/h Distance 178 km</desc>
<time>2011-03-24T18:06:58.49</time>
<name>8102</name>
</trkpt>
<trkpt lat="49.557412" lon="8.648717">
<ele>155.5</ele>
<speed>49.2</speed>
<course>355.2</course>
<desc>Speed 49.2 km/h Distance 178 km</desc>
<time>2011-03-24T18:07:00.49</time>
<name>8103</name>
</trkpt>
<trkpt lat="49.557540" lon="8.648700">
<ele>155.5</ele>
<speed>50.6</speed>
<course>357.6</course>
<desc>Speed 50.6 km/h Distance 178 km</desc>
<time>2011-03-24T18:07:01.50</time>
<name>8104</name>
</trkpt>
<trkpt lat="49.557673" lon="8.648692">
<ele>155.5</ele>
<speed>52.7</speed>
<course>357.7</course>
<desc>Speed 52.7 km/h Distance 178 km</desc>
<time>2011-03-24T18:07:02.50</time>
<name>8105</name>
</trkpt>
<trkpt lat="49.557805" lon="8.648683">
<ele>155.5</ele>
<speed>52.7</speed>
<course>358.6</course>
<desc>Speed 52.7 km/h Distance 178 km</desc>
<time>2011-03-24T18:07:03.49</time>
<name>8106</name>
</trkpt>
<trkpt lat="49.557938" lon="8.648678">
<ele>155.5</ele>
<speed>52.3</speed>
<course>0.4</course>
<desc>Speed 52.3 km/h Distance 178 km</desc>
<time>2011-03-24T18:07:04.49</time>
<name>8107</name>
</trkpt>
<trkpt lat="49.558070" lon="8.648678">
<ele>155.5</ele>
<speed>52.5</speed>
<course>0.1</course>
<desc>Speed 52.5 km/h Distance 178 km</desc>
<time>2011-03-24T18:07:05.50</time>
<name>8108</name>
</trkpt>
<trkpt lat="49.558203" lon="8.648678">
<ele>155.5</ele>
<speed>53.1</speed>
<course>0.5</course>
<desc>Speed 53.1 km/h Distance 178 km</desc>
<time>2011-03-24T18:07:06.48</time>
<name>8109</name>
</trkpt>
<trkpt lat="49.558338" lon="8.648680">
<ele>155.5</ele>
<speed>53.2</speed>
<course>1.8</course>
<desc>Speed 53.2 km/h Distance 178 km</desc>
<time>2011-03-24T18:07:07.50</time>
<name>8110</name>
</trkpt>
<trkpt lat="49.558473" lon="8.648687">
<ele>156.0</ele>
<speed>54.4</speed>
<course>2.2</course>
<desc>Speed 54.4 km/h Distance 178 km</desc>
<time>2011-03-24T18:07:08.48</time>
<name>8111</name>
</trkpt>
<trkpt lat="49.558612" lon="8.648695">
<ele>156.0</ele>
<speed>55.0</speed>
<course>2.6</course>
<desc>Speed 55.0 km/h Distance 178 km</desc>
<time>2011-03-24T18:07:09.49</time>
<name>8112</name>
</trkpt>
<trkpt lat="49.558752" lon="8.648705">
<ele>156.0</ele>
<speed>55.7</speed>
<course>3.5</course>
<desc>Speed 55.7 km/h Distance 178 km</desc>
<time>2011-03-24T18:07:10.48</time>
<name>8113</name>
</trkpt>
<trkpt lat="49.558892" lon="8.648718">
<ele>156.0</ele>
<speed>55.7</speed>
<course>4.6</course>
<desc>Speed 55.7 km/h Distance 178 km</desc>
<time>2011-03-24T18:07:11.48</time>
<name>8114</name>
</trkpt>
<trkpt lat="49.559025" lon="8.648735">
<ele>156.5</ele>
<speed>53.2</speed>
<course>5.1</course>
<desc>Speed 53.2 km/h Distance 178 km</desc>
<time>2011-03-24T18:07:12.48</time>
<name>8115</name>
</trkpt>
<trkpt lat="49.559158" lon="8.648753">
<ele>156.5</ele>
<speed>53.0</speed>
<course>6.6</course>
<desc>Speed 53.0 km/h Distance 178 km</desc>
<time>2011-03-24T18:07:13.48</time>
<name>8116</name>
</trkpt>
<trkpt lat="49.559290" lon="8.648777">
<ele>156.5</ele>
<speed>52.3</speed>
<course>7.7</course>
<desc>Speed 52.3 km/h Distance 178 km</desc>
<time>2011-03-24T18:07:14.48</time>
<name>8117</name>
</trkpt>
<trkpt lat="49.559418" lon="8.648803">
<ele>156.5</ele>
<speed>51.8</speed>
<course>9.4</course>
<desc>Speed 51.8 km/h Distance 179 km</desc>
<time>2011-03-24T18:07:15.48</time>
<name>8118</name>
</trkpt>
<trkpt lat="49.559548" lon="8.648837">
<ele>156.5</ele>
<speed>52.5</speed>
<course>10.0</course>
<desc>Speed 52.5 km/h Distance 179 km</desc>
<time>2011-03-24T18:07:16.48</time>
<name>8119</name>
</trkpt>
<trkpt lat="49.559683" lon="8.648873">
<ele>157.0</ele>
<speed>54.2</speed>
<course>10.8</course>
<desc>Speed 54.2 km/h Distance 179 km</desc>
<time>2011-03-24T18:07:17.49</time>
<name>8120</name>
</trkpt>
<trkpt lat="49.559820" lon="8.648913">
<ele>157.5</ele>
<speed>56.3</speed>
<course>11.1</course>
<desc>Speed 56.3 km/h Distance 179 km</desc>
<time>2011-03-24T18:07:18.49</time>
<name>8121</name>
</trkpt>
<trkpt lat="49.559963" lon="8.648957">
<ele>157.5</ele>
<speed>57.7</speed>
<course>12.1</course>
<desc>Speed 57.7 km/h Distance 179 km</desc>
<time>2011-03-24T18:07:19.48</time>
<name>8122</name>
</trkpt>
<trkpt lat="49.560110" lon="8.649005">
<ele>158.0</ele>
<speed>59.5</speed>
<course>13.2</course>
<desc>Speed 59.5 km/h Distance 179 km</desc>
<time>2011-03-24T18:07:20.48</time>
<name>8123</name>
</trkpt>
<trkpt lat="49.560262" lon="8.649060">
<ele>158.5</ele>
<speed>62.2</speed>
<course>14.8</course>
<desc>Speed 62.2 km/h Distance 179 km</desc>
<time>2011-03-24T18:07:21.48</time>
<name>8124</name>
</trkpt>
<trkpt lat="49.560417" lon="8.649123">
<ele>158.5</ele>
<speed>64.4</speed>
<course>16.5</course>
<desc>Speed 64.4 km/h Distance 179 km</desc>
<time>2011-03-24T18:07:22.48</time>
<name>8125</name>
</trkpt>
<trkpt lat="49.560573" lon="8.649195">
<ele>159.0</ele>
<speed>65.4</speed>
<course>17.4</course>
<desc>Speed 65.4 km/h Distance 179 km</desc>
<time>2011-03-24T18:07:23.47</time>
<name>8126</name>
</trkpt>
<trkpt lat="49.560732" lon="8.649272">
<ele>159.0</ele>
<speed>65.7</speed>
<course>18.1</course>
<desc>Speed 65.7 km/h Distance 179 km</desc>
<time>2011-03-24T18:07:24.48</time>
<name>8127</name>
</trkpt>
<trkpt lat="49.560890" lon="8.649352">
<ele>159.0</ele>
<speed>66.5</speed>
<course>18.9</course>
<desc>Speed 66.5 km/h Distance 179 km</desc>
<time>2011-03-24T18:07:25.48</time>
<name>8128</name>
</trkpt>
<trkpt lat="49.561048" lon="8.649435">
<ele>159.0</ele>
<speed>66.7</speed>
<course>19.2</course>
<desc>Speed 66.7 km/h Distance 179 km</desc>
<time>2011-03-24T18:07:26.48</time>
<name>8129</name>
</trkpt>
<trkpt lat="49.561207" lon="8.649520">
<ele>159.0</ele>
<speed>67.4</speed>
<course>19.7</course>
<desc>Speed 67.4 km/h Distance 179 km</desc>
<time>2011-03-24T18:07:27.47</time>
<name>8130</name>
</trkpt>
<trkpt lat="49.561370" lon="8.649610">
<ele>159.0</ele>
<speed>68.6</speed>
<course>20.7</course>
<desc>Speed 68.6 km/h Distance 179 km</desc>
<time>2011-03-24T18:07:28.48</time>
<name>8131</name>
</trkpt>
<trkpt lat="49.561530" lon="8.649703">
<ele>159.0</ele>
<speed>69.6</speed>
<course>22.0</course>
<desc>Speed 69.6 km/h Distance 179 km</desc>
<time>2011-03-24T18:07:29.48</time>
<name>8132</name>
</trkpt>
<trkpt lat="49.561693" lon="8.649805">
<ele>159.0</ele>
<speed>70.6</speed>
<course>23.0</course>
<desc>Speed 70.6 km/h Distance 179 km</desc>
<time>2011-03-24T18:07:30.47</time>
<name>8133</name>
</trkpt>
<trkpt lat="49.561857" lon="8.649912">
<ele>159.0</ele>
<speed>72.0</speed>
<course>23.3</course>
<desc>Speed 72.0 km/h Distance 179 km</desc>
<time>2011-03-24T18:07:31.47</time>
<name>8134</name>
</trkpt>
<trkpt lat="49.562020" lon="8.650020">
<ele>158.5</ele>
<speed>71.7</speed>
<course>24.3</course>
<desc>Speed 71.7 km/h Distance 179 km</desc>
<time>2011-03-24T18:07:32.47</time>
<name>8135</name>
</trkpt>
<trkpt lat="49.562178" lon="8.650130">
<ele>158.5</ele>
<speed>69.2</speed>
<course>25.6</course>
<desc>Speed 69.2 km/h Distance 179 km</desc>
<time>2011-03-24T18:07:33.47</time>
<name>8136</name>
</trkpt>
<trkpt lat="49.562338" lon="8.650248">
<ele>158.5</ele>
<speed>70.8</speed>
<course>25.5</course>
<desc>Speed 70.8 km/h Distance 179 km</desc>
<time>2011-03-24T18:07:34.47</time>
<name>8137</name>
</trkpt>
<trkpt lat="49.562502" lon="8.650368">
<ele>158.0</ele>
<speed>72.4</speed>
<course>26.5</course>
<desc>Speed 72.4 km/h Distance 179 km</desc>
<time>2011-03-24T18:07:35.48</time>
<name>8138</name>
</trkpt>
<trkpt lat="49.562667" lon="8.650495">
<ele>158.0</ele>
<speed>73.1</speed>
<course>26.8</course>
<desc>Speed 73.1 km/h Distance 179 km</desc>
<time>2011-03-24T18:07:36.47</time>
<name>8139</name>
</trkpt>
<trkpt lat="49.562833" lon="8.650625">
<ele>157.5</ele>
<speed>74.9</speed>
<course>26.7</course>
<desc>Speed 74.9 km/h Distance 179 km</desc>
<time>2011-03-24T18:07:37.47</time>
<name>8140</name>
</trkpt>
<trkpt lat="49.563003" lon="8.650757">
<ele>157.0</ele>
<speed>75.9</speed>
<course>27.0</course>
<desc>Speed 75.9 km/h Distance 179 km</desc>
<time>2011-03-24T18:07:38.47</time>
<name>8141</name>
</trkpt>
<trkpt lat="49.563175" lon="8.650892">
<ele>156.5</ele>
<speed>76.6</speed>
<course>27.3</course>
<desc>Speed 76.6 km/h Distance 179 km</desc>
<time>2011-03-24T18:07:39.47</time>
<name>8142</name>
</trkpt>
<trkpt lat="49.563347" lon="8.651028">
<ele>156.5</ele>
<speed>77.2</speed>
<course>27.4</course>
<desc>Speed 77.2 km/h Distance 179 km</desc>
<time>2011-03-24T18:07:40.47</time>
<name>8143</name>
</trkpt>
<trkpt lat="49.563520" lon="8.651167">
<ele>156.0</ele>
<speed>77.9</speed>
<course>26.6</course>
<desc>Speed 77.9 km/h Distance 179 km</desc>
<time>2011-03-24T18:07:41.47</time>
<name>8144</name>
</trkpt>
<trkpt lat="49.563697" lon="8.651303">
<ele>156.0</ele>
<speed>78.7</speed>
<course>26.2</course>
<desc>Speed 78.7 km/h Distance 179 km</desc>
<time>2011-03-24T18:07:42.47</time>
<name>8145</name>
</trkpt>
<trkpt lat="49.563875" lon="8.651438">
<ele>156.0</ele>
<speed>79.5</speed>
<course>25.7</course>
<desc>Speed 79.5 km/h Distance 179 km</desc>
<time>2011-03-24T18:07:43.48</time>
<name>8146</name>
</trkpt>
<trkpt lat="49.564055" lon="8.651572">
<ele>156.0</ele>
<speed>80.3</speed>
<course>25.5</course>
<desc>Speed 80.3 km/h Distance 179 km</desc>
<time>2011-03-24T18:07:44.47</time>
<name>8147</name>
</trkpt>
<trkpt lat="49.564237" lon="8.651705">
<ele>156.0</ele>
<speed>80.5</speed>
<course>24.5</course>
<desc>Speed 80.5 km/h Distance 179 km</desc>
<time>2011-03-24T18:07:45.47</time>
<name>8148</name>
</trkpt>
<trkpt lat="49.564422" lon="8.651835">
<ele>155.5</ele>
<speed>81.6</speed>
<course>24.3</course>
<desc>Speed 81.6 km/h Distance 179 km</desc>
<time>2011-03-24T18:07:46.47</time>
<name>8149</name>
</trkpt>
<trkpt lat="49.564608" lon="8.651965">
<ele>155.5</ele>
<speed>82.0</speed>
<course>23.8</course>
<desc>Speed 82.0 km/h Distance 179 km</desc>
<time>2011-03-24T18:07:47.47</time>
<name>8150</name>
</trkpt>
<trkpt lat="49.564797" lon="8.652093">
<ele>155.5</ele>
<speed>82.3</speed>
<course>23.2</course>
<desc>Speed 82.3 km/h Distance 179 km</desc>
<time>2011-03-24T18:07:48.47</time>
<name>8151</name>
</trkpt>
<trkpt lat="49.564983" lon="8.652217">
<ele>155.5</ele>
<speed>81.5</speed>
<course>21.3</course>
<desc>Speed 81.5 km/h Distance 179 km</desc>
<time>2011-03-24T18:07:49.46</time>
<name>8152</name>
</trkpt>
<trkpt lat="49.565175" lon="8.652332">
<ele>155.5</ele>
<speed>82.3</speed>
<course>20.5</course>
<desc>Speed 82.3 km/h Distance 179 km</desc>
<time>2011-03-24T18:07:50.46</time>
<name>8153</name>
</trkpt>
<trkpt lat="49.565368" lon="8.652443">
<ele>155.5</ele>
<speed>82.8</speed>
<course>19.8</course>
<desc>Speed 82.8 km/h Distance 179 km</desc>
<time>2011-03-24T18:07:51.46</time>
<name>8154</name>
</trkpt>
<trkpt lat="49.565563" lon="8.652552">
<ele>155.5</ele>
<speed>83.0</speed>
<course>19.1</course>
<desc>Speed 83.0 km/h Distance 179 km</desc>
<time>2011-03-24T18:07:52.46</time>
<name>8155</name>
</trkpt>
<trkpt lat="49.565760" lon="8.652657">
<ele>155.5</ele>
<speed>83.4</speed>
<course>18.9</course>
<desc>Speed 83.4 km/h Distance 179 km</desc>
<time>2011-03-24T18:07:53.46</time>
<name>8156</name>
</trkpt>
<trkpt lat="49.565958" lon="8.652762">
<ele>155.0</ele>
<speed>83.9</speed>
<course>18.2</course>
<desc>Speed 83.9 km/h Distance 179 km</desc>
<time>2011-03-24T18:07:54.46</time>
<name>8157</name>
</trkpt>
<trkpt lat="49.566158" lon="8.652863">
<ele>155.0</ele>
<speed>84.1</speed>
<course>18.2</course>
<desc>Speed 84.1 km/h Distance 179 km</desc>
<time>2011-03-24T18:07:55.48</time>
<name>8158</name>
</trkpt>
<trkpt lat="49.566358" lon="8.652965">
<ele>154.5</ele>
<speed>84.7</speed>
<course>18.0</course>
<desc>Speed 84.7 km/h Distance 179 km</desc>
<time>2011-03-24T18:07:56.47</time>
<name>8159</name>
</trkpt>
<trkpt lat="49.566558" lon="8.653065">
<ele>154.5</ele>
<speed>84.4</speed>
<course>18.2</course>
<desc>Speed 84.4 km/h Distance 179 km</desc>
<time>2011-03-24T18:07:57.46</time>
<name>8160</name>
</trkpt>
<trkpt lat="49.566758" lon="8.653167">
<ele>154.0</ele>
<speed>84.1</speed>
<course>18.4</course>
<desc>Speed 84.1 km/h Distance 179 km</desc>
<time>2011-03-24T18:07:58.46</time>
<name>8161</name>
</trkpt>
<trkpt lat="49.566957" lon="8.653268">
<ele>153.5</ele>
<speed>83.4</speed>
<course>19.4</course>
<desc>Speed 83.4 km/h Distance 179 km</desc>
<time>2011-03-24T18:07:59.46</time>
<name>8162</name>
</trkpt>
<trkpt lat="49.567338" lon="8.653475">
<ele>153.5</ele>
<speed>80.4</speed>
<course>19.1</course>
<desc>Speed 80.4 km/h Distance 179 km</desc>
<time>2011-03-24T18:08:01.46</time>
<name>8163</name>
</trkpt>
<trkpt lat="49.567528" lon="8.653577">
<ele>152.5</ele>
<speed>80.2</speed>
<course>21.0</course>
<desc>Speed 80.2 km/h Distance 179 km</desc>
<time>2011-03-24T18:08:02.46</time>
<name>8164</name>
</trkpt>
<trkpt lat="49.567712" lon="8.653685">
<ele>152.5</ele>
<speed>78.5</speed>
<course>24.5</course>
<desc>Speed 78.5 km/h Distance 179 km</desc>
<time>2011-03-24T18:08:03.47</time>
<name>8165</name>
</trkpt>
<trkpt lat="49.567885" lon="8.653807">
<ele>153.5</ele>
<speed>76.0</speed>
<course>28.3</course>
<desc>Speed 76.0 km/h Distance 180 km</desc>
<time>2011-03-24T18:08:04.47</time>
<name>8166</name>
</trkpt>
<trkpt lat="49.568042" lon="8.653937">
<ele>152.0</ele>
<speed>70.9</speed>
<course>29.4</course>
<desc>Speed 70.9 km/h Distance 180 km</desc>
<time>2011-03-24T18:08:05.46</time>
<name>8167</name>
</trkpt>
<trkpt lat="49.568208" lon="8.654082">
<ele>152.0</ele>
<speed>76.7</speed>
<course>31.9</course>
<desc>Speed 76.7 km/h Distance 180 km</desc>
<time>2011-03-24T18:08:06.46</time>
<name>8168</name>
</trkpt>
<trkpt lat="49.568370" lon="8.654237">
<ele>152.0</ele>
<speed>76.3</speed>
<course>33.0</course>
<desc>Speed 76.3 km/h Distance 180 km</desc>
<time>2011-03-24T18:08:07.45</time>
<name>8169</name>
</trkpt>
<trkpt lat="49.568537" lon="8.654403">
<ele>152.5</ele>
<speed>79.9</speed>
<course>39.2</course>
<desc>Speed 79.9 km/h Distance 180 km</desc>
<time>2011-03-24T18:08:08.45</time>
<name>8170</name>
</trkpt>
<trkpt lat="49.568693" lon="8.654600">
<ele>152.5</ele>
<speed>80.4</speed>
<course>41.9</course>
<desc>Speed 80.4 km/h Distance 180 km</desc>
<time>2011-03-24T18:08:09.45</time>
<name>8171</name>
</trkpt>
<trkpt lat="49.568845" lon="8.654810">
<ele>153.0</ele>
<speed>81.9</speed>
<course>43.7</course>
<desc>Speed 81.9 km/h Distance 180 km</desc>
<time>2011-03-24T18:08:10.46</time>
<name>8172</name>
</trkpt>
<trkpt lat="49.568993" lon="8.655028">
<ele>153.5</ele>
<speed>82.3</speed>
<course>46.7</course>
<desc>Speed 82.3 km/h Distance 180 km</desc>
<time>2011-03-24T18:08:11.45</time>
<name>8173</name>
</trkpt>
<trkpt lat="49.569135" lon="8.655260">
<ele>154.5</ele>
<speed>82.4</speed>
<course>52.9</course>
<desc>Speed 82.4 km/h Distance 180 km</desc>
<time>2011-03-24T18:08:12.45</time>
<name>8174</name>
</trkpt>
<trkpt lat="49.569262" lon="8.655518">
<ele>154.5</ele>
<speed>83.8</speed>
<course>57.0</course>
<desc>Speed 83.8 km/h Distance 180 km</desc>
<time>2011-03-24T18:08:13.45</time>
<name>8175</name>
</trkpt>
<trkpt lat="49.569377" lon="8.655792">
<ele>154.5</ele>
<speed>84.9</speed>
<course>58.6</course>
<desc>Speed 84.9 km/h Distance 180 km</desc>
<time>2011-03-24T18:08:14.46</time>
<name>8176</name>
</trkpt>
<trkpt lat="49.569485" lon="8.656065">
<ele>155.0</ele>
<speed>83.3</speed>
<course>65.2</course>
<desc>Speed 83.3 km/h Distance 180 km</desc>
<time>2011-03-24T18:08:15.45</time>
<name>8177</name>
</trkpt>
<trkpt lat="49.569568" lon="8.656343">
<ele>156.5</ele>
<speed>79.3</speed>
<course>66.1</course>
<desc>Speed 79.3 km/h Distance 180 km</desc>
<time>2011-03-24T18:08:16.46</time>
<name>8178</name>
</trkpt>
<trkpt lat="49.569652" lon="8.656633">
<ele>157.0</ele>
<speed>81.8</speed>
<course>71.3</course>
<desc>Speed 81.8 km/h Distance 180 km</desc>
<time>2011-03-24T18:08:17.45</time>
<name>8179</name>
</trkpt>
<trkpt lat="49.569717" lon="8.656930">
<ele>159.0</ele>
<speed>80.9</speed>
<course>71.9</course>
<desc>Speed 80.9 km/h Distance 180 km</desc>
<time>2011-03-24T18:08:18.45</time>
<name>8180</name>
</trkpt>
<trkpt lat="49.569778" lon="8.657222">
<ele>159.0</ele>
<speed>79.0</speed>
<course>74.6</course>
<desc>Speed 79.0 km/h Distance 180 km</desc>
<time>2011-03-24T18:08:19.45</time>
<name>8181</name>
</trkpt>
<trkpt lat="49.569830" lon="8.657512">
<ele>159.0</ele>
<speed>77.8</speed>
<course>76.5</course>
<desc>Speed 77.8 km/h Distance 180 km</desc>
<time>2011-03-24T18:08:20.45</time>
<name>8182</name>
</trkpt>
<trkpt lat="49.569875" lon="8.657800">
<ele>159.0</ele>
<speed>77.0</speed>
<course>77.9</course>
<desc>Speed 77.0 km/h Distance 180 km</desc>
<time>2011-03-24T18:08:21.45</time>
<name>8183</name>
</trkpt>
<trkpt lat="49.569915" lon="8.658087">
<ele>159.0</ele>
<speed>76.3</speed>
<course>79.8</course>
<desc>Speed 76.3 km/h Distance 180 km</desc>
<time>2011-03-24T18:08:22.45</time>
<name>8184</name>
</trkpt>
<trkpt lat="49.569948" lon="8.658373">
<ele>159.0</ele>
<speed>75.9</speed>
<course>80.2</course>
<desc>Speed 75.9 km/h Distance 180 km</desc>
<time>2011-03-24T18:08:23.45</time>
<name>8185</name>
</trkpt>
<trkpt lat="49.569980" lon="8.658657">
<ele>159.0</ele>
<speed>74.9</speed>
<course>80.6</course>
<desc>Speed 74.9 km/h Distance 180 km</desc>
<time>2011-03-24T18:08:24.45</time>
<name>8186</name>
</trkpt>
<trkpt lat="49.570010" lon="8.658935">
<ele>159.0</ele>
<speed>73.5</speed>
<course>81.0</course>
<desc>Speed 73.5 km/h Distance 180 km</desc>
<time>2011-03-24T18:08:25.47</time>
<name>8187</name>
</trkpt>
<trkpt lat="49.570038" lon="8.659210">
<ele>159.0</ele>
<speed>72.7</speed>
<course>81.0</course>
<desc>Speed 72.7 km/h Distance 180 km</desc>
<time>2011-03-24T18:08:26.45</time>
<name>8188</name>
</trkpt>
<trkpt lat="49.570067" lon="8.659485">
<ele>158.5</ele>
<speed>72.5</speed>
<course>82.5</course>
<desc>Speed 72.5 km/h Distance 180 km</desc>
<time>2011-03-24T18:08:27.44</time>
<name>8189</name>
</trkpt>
<trkpt lat="49.570090" lon="8.659760">
<ele>158.5</ele>
<speed>72.4</speed>
<course>83.6</course>
<desc>Speed 72.4 km/h Distance 180 km</desc>
<time>2011-03-24T18:08:28.45</time>
<name>8190</name>
</trkpt>
<trkpt lat="49.570110" lon="8.660037">
<ele>158.0</ele>
<speed>72.2</speed>
<course>83.7</course>
<desc>Speed 72.2 km/h Distance 180 km</desc>
<time>2011-03-24T18:08:29.45</time>
<name>8191</name>
</trkpt>
<trkpt lat="49.570130" lon="8.660315">
<ele>158.0</ele>
<speed>72.5</speed>
<course>80.4</course>
<desc>Speed 72.5 km/h Distance 180 km</desc>
<time>2011-03-24T18:08:30.44</time>
<name>8192</name>
</trkpt>
<trkpt lat="49.570160" lon="8.660588">
<ele>158.0</ele>
<speed>71.8</speed>
<course>76.7</course>
<desc>Speed 71.8 km/h Distance 180 km</desc>
<time>2011-03-24T18:08:31.45</time>
<name>8193</name>
</trkpt>
<trkpt lat="49.570200" lon="8.660850">
<ele>157.5</ele>
<speed>70.1</speed>
<course>70.8</course>
<desc>Speed 70.1 km/h Distance 180 km</desc>
<time>2011-03-24T18:08:32.44</time>
<name>8194</name>
</trkpt>
<trkpt lat="49.570253" lon="8.661087">
<ele>156.5</ele>
<speed>65.2</speed>
<course>72.7</course>
<desc>Speed 65.2 km/h Distance 180 km</desc>
<time>2011-03-24T18:08:33.44</time>
<name>8195</name>
</trkpt>
<trkpt lat="49.570300" lon="8.661318">
<ele>156.0</ele>
<speed>62.9</speed>
<course>83.5</course>
<desc>Speed 62.9 km/h Distance 180 km</desc>
<time>2011-03-24T18:08:34.44</time>
<name>8196</name>
</trkpt>
<trkpt lat="49.570317" lon="8.661543">
<ele>156.5</ele>
<speed>58.9</speed>
<course>96.3</course>
<desc>Speed 58.9 km/h Distance 180 km</desc>
<time>2011-03-24T18:08:35.44</time>
<name>8197</name>
</trkpt>
<trkpt lat="49.570302" lon="8.661753">
<ele>157.5</ele>
<speed>55.5</speed>
<course>101.0</course>
<desc>Speed 55.5 km/h Distance 180 km</desc>
<time>2011-03-24T18:08:36.45</time>
<name>8198</name>
</trkpt>
<trkpt lat="49.570277" lon="8.661952">
<ele>156.5</ele>
<speed>53.0</speed>
<course>92.9</course>
<desc>Speed 53.0 km/h Distance 180 km</desc>
<time>2011-03-24T18:08:37.45</time>
<name>8199</name>
</trkpt>
<trkpt lat="49.570270" lon="8.662153">
<ele>155.5</ele>
<speed>53.1</speed>
<course>81.2</course>
<desc>Speed 53.1 km/h Distance 180 km</desc>
<time>2011-03-24T18:08:38.44</time>
<name>8200</name>
</trkpt>
<trkpt lat="49.570290" lon="8.662353">
<ele>156.0</ele>
<speed>52.7</speed>
<course>77.3</course>
<desc>Speed 52.7 km/h Distance 180 km</desc>
<time>2011-03-24T18:08:39.44</time>
<name>8201</name>
</trkpt>
<trkpt lat="49.570318" lon="8.662547">
<ele>155.0</ele>
<speed>51.8</speed>
<course>83.5</course>
<desc>Speed 51.8 km/h Distance 180 km</desc>
<time>2011-03-24T18:08:40.44</time>
<name>8202</name>
</trkpt>
<trkpt lat="49.570333" lon="8.662750">
<ele>154.0</ele>
<speed>14.4</speed>
<course>79.4</course>
<desc>Speed 14.4 km/h Distance 180 km</desc>
<time>2011-03-24T18:08:43.44</time>
<name>8203</name>
</trkpt>
<trkpt lat="49.570340" lon="8.662805">
<ele>154.0</ele>
<speed>11.0</speed>
<course>82.4</course>
<desc>Speed 11.0 km/h Distance 180 km</desc>
<time>2011-03-24T18:08:44.44</time>
<name>8204</name>
</trkpt>
<trkpt lat="49.570343" lon="8.662843">
<ele>154.0</ele>
<speed>7.7</speed>
<course>76.3</course>
<desc>Speed 7.7 km/h Distance 180 km</desc>
<time>2011-03-24T18:08:45.43</time>
<name>8205</name>
</trkpt>
<trkpt lat="49.570348" lon="8.662875">
<ele>154.0</ele>
<speed>6.8</speed>
<course>76.3</course>
<desc>Speed 6.8 km/h Distance 180 km</desc>
<time>2011-03-24T18:08:46.43</time>
<name>8206</name>
</trkpt>
<trkpt lat="49.570353" lon="8.662907">
<ele>154.0</ele>
<speed>7.8</speed>
<course>78.8</course>
<desc>Speed 7.8 km/h Distance 180 km</desc>
<time>2011-03-24T18:08:47.43</time>
<name>8207</name>
</trkpt>
<trkpt lat="49.570360" lon="8.662958">
<ele>154.5</ele>
<speed>12.9</speed>
<course>78.1</course>
<desc>Speed 12.9 km/h Distance 180 km</desc>
<time>2011-03-24T18:08:48.43</time>
<name>8208</name>
</trkpt>
<trkpt lat="49.570372" lon="8.663043">
<ele>153.5</ele>
<speed>21.0</speed>
<course>81.9</course>
<desc>Speed 21.0 km/h Distance 180 km</desc>
<time>2011-03-24T18:08:49.43</time>
<name>8209</name>
</trkpt>
<trkpt lat="49.570380" lon="8.663133">
<ele>153.5</ele>
<speed>21.0</speed>
<course>77.6</course>
<desc>Speed 21.0 km/h Distance 180 km</desc>
<time>2011-03-24T18:08:50.44</time>
<name>8210</name>
</trkpt>
<trkpt lat="49.570393" lon="8.663227">
<ele>153.5</ele>
<speed>22.4</speed>
<course>50.7</course>
<desc>Speed 22.4 km/h Distance 180 km</desc>
<time>2011-03-24T18:08:51.43</time>
<name>8211</name>
</trkpt>
<trkpt lat="49.570437" lon="8.663308">
<ele>152.5</ele>
<speed>26.7</speed>
<course>17.6</course>
<desc>Speed 26.7 km/h Distance 180 km</desc>
<time>2011-03-24T18:08:52.43</time>
<name>8212</name>
</trkpt>
<trkpt lat="49.570512" lon="8.663345">
<ele>152.0</ele>
<speed>30.9</speed>
<course>3.7</course>
<desc>Speed 30.9 km/h Distance 180 km</desc>
<time>2011-03-24T18:08:53.43</time>
<name>8213</name>
</trkpt>
<trkpt lat="49.570595" lon="8.663353">
<ele>151.0</ele>
<speed>33.1</speed>
<course>348.2</course>
<desc>Speed 33.1 km/h Distance 180 km</desc>
<time>2011-03-24T18:08:54.44</time>
<name>8214</name>
</trkpt>
<trkpt lat="49.570698" lon="8.663320">
<ele>151.0</ele>
<speed>41.4</speed>
<course>350.3</course>
<desc>Speed 41.4 km/h Distance 180 km</desc>
<time>2011-03-24T18:08:55.46</time>
<name>8215</name>
</trkpt>
<trkpt lat="49.570800" lon="8.663293">
<ele>151.0</ele>
<speed>41.1</speed>
<course>351.9</course>
<desc>Speed 41.1 km/h Distance 180 km</desc>
<time>2011-03-24T18:08:56.43</time>
<name>8216</name>
</trkpt>
<trkpt lat="49.570898" lon="8.663272">
<ele>151.5</ele>
<speed>40.2</speed>
<course>353.2</course>
<desc>Speed 40.2 km/h Distance 180 km</desc>
<time>2011-03-24T18:08:57.43</time>
<name>8217</name>
</trkpt>
<trkpt lat="49.570998" lon="8.663253">
<ele>151.5</ele>
<speed>40.1</speed>
<course>349.6</course>
<desc>Speed 40.1 km/h Distance 180 km</desc>
<time>2011-03-24T18:08:58.43</time>
<name>8218</name>
</trkpt>
<trkpt lat="49.571098" lon="8.663225">
<ele>151.5</ele>
<speed>40.5</speed>
<course>349.0</course>
<desc>Speed 40.5 km/h Distance 180 km</desc>
<time>2011-03-24T18:08:59.43</time>
<name>8219</name>
</trkpt>
<trkpt lat="49.571198" lon="8.663195">
<ele>151.5</ele>
<speed>40.6</speed>
<course>348.6</course>
<desc>Speed 40.6 km/h Distance 180 km</desc>
<time>2011-03-24T18:09:00.44</time>
<name>8220</name>
</trkpt>
<trkpt lat="49.571295" lon="8.663165">
<ele>151.5</ele>
<speed>39.8</speed>
<course>346.2</course>
<desc>Speed 39.8 km/h Distance 180 km</desc>
<time>2011-03-24T18:09:01.44</time>
<name>8221</name>
</trkpt>
<trkpt lat="49.571392" lon="8.663128">
<ele>151.5</ele>
<speed>40.9</speed>
<course>343.2</course>
<desc>Speed 40.9 km/h Distance 180 km</desc>
<time>2011-03-24T18:09:02.43</time>
<name>8222</name>
</trkpt>
<trkpt lat="49.571485" lon="8.663085">
<ele>152.0</ele>
<speed>40.6</speed>
<course>334.8</course>
<desc>Speed 40.6 km/h Distance 180 km</desc>
<time>2011-03-24T18:09:03.43</time>
<name>8223</name>
</trkpt>
<trkpt lat="49.571577" lon="8.663018">
<ele>152.5</ele>
<speed>39.9</speed>
<course>332.2</course>
<desc>Speed 39.9 km/h Distance 180 km</desc>
<time>2011-03-24T18:09:04.44</time>
<name>8224</name>
</trkpt>
<trkpt lat="49.571665" lon="8.662947">
<ele>153.0</ele>
<speed>39.9</speed>
<course>330.2</course>
<desc>Speed 39.9 km/h Distance 180 km</desc>
<time>2011-03-24T18:09:05.43</time>
<name>8225</name>
</trkpt>
<trkpt lat="49.571752" lon="8.662870">
<ele>153.0</ele>
<speed>40.2</speed>
<course>330.1</course>
<desc>Speed 40.2 km/h Distance 180 km</desc>
<time>2011-03-24T18:09:06.43</time>
<name>8226</name>
</trkpt>
<trkpt lat="49.571840" lon="8.662792">
<ele>153.5</ele>
<speed>40.4</speed>
<course>332.1</course>
<desc>Speed 40.4 km/h Distance 180 km</desc>
<time>2011-03-24T18:09:07.43</time>
<name>8227</name>
</trkpt>
<trkpt lat="49.571922" lon="8.662725">
<ele>153.5</ele>
<speed>37.6</speed>
<course>350.2</course>
<desc>Speed 37.6 km/h Distance 180 km</desc>
<time>2011-03-24T18:09:08.43</time>
<name>8228</name>
</trkpt>
<trkpt lat="49.572003" lon="8.662703">
<ele>152.0</ele>
<speed>32.9</speed>
<course>7.9</course>
<desc>Speed 32.9 km/h Distance 180 km</desc>
<time>2011-03-24T18:09:09.44</time>
<name>8229</name>
</trkpt>
<trkpt lat="49.572088" lon="8.662722">
<ele>152.0</ele>
<speed>34.7</speed>
<course>27.2</course>
<desc>Speed 34.7 km/h Distance 180 km</desc>
<time>2011-03-24T18:09:10.43</time>
<name>8230</name>
</trkpt>
<trkpt lat="49.572168" lon="8.662785">
<ele>152.0</ele>
<speed>35.0</speed>
<course>32.0</course>
<desc>Speed 35.0 km/h Distance 181 km</desc>
<time>2011-03-24T18:09:11.42</time>
<name>8231</name>
</trkpt>
<trkpt lat="49.572258" lon="8.662872">
<ele>152.5</ele>
<speed>42.0</speed>
<course>24.4</course>
<desc>Speed 42.0 km/h Distance 181 km</desc>
<time>2011-03-24T18:09:12.43</time>
<name>8232</name>
</trkpt>
<trkpt lat="49.572358" lon="8.662942">
<ele>152.0</ele>
<speed>43.6</speed>
<course>11.0</course>
<desc>Speed 43.6 km/h Distance 181 km</desc>
<time>2011-03-24T18:09:13.42</time>
<name>8233</name>
</trkpt>
<trkpt lat="49.572470" lon="8.662975">
<ele>152.0</ele>
<speed>45.1</speed>
<course>2.6</course>
<desc>Speed 45.1 km/h Distance 181 km</desc>
<time>2011-03-24T18:09:14.42</time>
<name>8234</name>
</trkpt>
<trkpt lat="49.572590" lon="8.662983">
<ele>152.5</ele>
<speed>47.6</speed>
<course>354.5</course>
<desc>Speed 47.6 km/h Distance 181 km</desc>
<time>2011-03-24T18:09:15.43</time>
<name>8235</name>
</trkpt>
<trkpt lat="49.572690" lon="8.662968">
<ele>152.5</ele>
<speed>39.5</speed>
<course>354.8</course>
<desc>Speed 39.5 km/h Distance 181 km</desc>
<time>2011-03-24T18:09:16.43</time>
<name>8236</name>
</trkpt>
<trkpt lat="49.572808" lon="8.662952">
<ele>152.0</ele>
<speed>47.1</speed>
<course>353.3</course>
<desc>Speed 47.1 km/h Distance 181 km</desc>
<time>2011-03-24T18:09:17.43</time>
<name>8237</name>
</trkpt>
<trkpt lat="49.572928" lon="8.662930">
<ele>151.5</ele>
<speed>48.4</speed>
<course>351.2</course>
<desc>Speed 48.4 km/h Distance 181 km</desc>
<time>2011-03-24T18:09:18.42</time>
<name>8238</name>
</trkpt>
<trkpt lat="49.573047" lon="8.662902">
<ele>151.5</ele>
<speed>47.6</speed>
<course>351.7</course>
<desc>Speed 47.6 km/h Distance 181 km</desc>
<time>2011-03-24T18:09:19.42</time>
<name>8239</name>
</trkpt>
<trkpt lat="49.573165" lon="8.662875">
<ele>151.5</ele>
<speed>48.1</speed>
<course>351.7</course>
<desc>Speed 48.1 km/h Distance 181 km</desc>
<time>2011-03-24T18:09:20.43</time>
<name>8240</name>
</trkpt>
<trkpt lat="49.573283" lon="8.662848">
<ele>151.0</ele>
<speed>48.2</speed>
<course>352.7</course>
<desc>Speed 48.2 km/h Distance 181 km</desc>
<time>2011-03-24T18:09:21.42</time>
<name>8241</name>
</trkpt>
<trkpt lat="49.573402" lon="8.662825">
<ele>151.0</ele>
<speed>47.5</speed>
<course>352.2</course>
<desc>Speed 47.5 km/h Distance 181 km</desc>
<time>2011-03-24T18:09:22.42</time>
<name>8242</name>
</trkpt>
<trkpt lat="49.573520" lon="8.662800">
<ele>151.0</ele>
<speed>47.5</speed>
<course>350.9</course>
<desc>Speed 47.5 km/h Distance 181 km</desc>
<time>2011-03-24T18:09:23.43</time>
<name>8243</name>
</trkpt>
<trkpt lat="49.573642" lon="8.662770">
<ele>151.5</ele>
<speed>49.4</speed>
<course>351.9</course>
<desc>Speed 49.4 km/h Distance 181 km</desc>
<time>2011-03-24T18:09:24.43</time>
<name>8244</name>
</trkpt>
<trkpt lat="49.573770" lon="8.662742">
<ele>151.0</ele>
<speed>51.0</speed>
<course>352.5</course>
<desc>Speed 51.0 km/h Distance 181 km</desc>
<time>2011-03-24T18:09:25.42</time>
<name>8245</name>
</trkpt>
<trkpt lat="49.573902" lon="8.662715">
<ele>151.0</ele>
<speed>52.5</speed>
<course>352.1</course>
<desc>Speed 52.5 km/h Distance 181 km</desc>
<time>2011-03-24T18:09:26.42</time>
<name>8246</name>
</trkpt>
<trkpt lat="49.574033" lon="8.662687">
<ele>151.0</ele>
<speed>52.8</speed>
<course>351.7</course>
<desc>Speed 52.8 km/h Distance 181 km</desc>
<time>2011-03-24T18:09:27.42</time>
<name>8247</name>
</trkpt>
<trkpt lat="49.574167" lon="8.662657">
<ele>151.5</ele>
<speed>54.0</speed>
<course>351.4</course>
<desc>Speed 54.0 km/h Distance 181 km</desc>
<time>2011-03-24T18:09:28.42</time>
<name>8248</name>
</trkpt>
<trkpt lat="49.574302" lon="8.662625">
<ele>151.5</ele>
<speed>54.1</speed>
<course>350.5</course>
<desc>Speed 54.1 km/h Distance 181 km</desc>
<time>2011-03-24T18:09:29.42</time>
<name>8249</name>
</trkpt>
<trkpt lat="49.574437" lon="8.662590">
<ele>151.5</ele>
<speed>55.0</speed>
<course>350.7</course>
<desc>Speed 55.0 km/h Distance 181 km</desc>
<time>2011-03-24T18:09:30.41</time>
<name>8250</name>
</trkpt>
<trkpt lat="49.574575" lon="8.662555">
<ele>151.5</ele>
<speed>55.4</speed>
<course>350.2</course>
<desc>Speed 55.4 km/h Distance 181 km</desc>
<time>2011-03-24T18:09:31.42</time>
<name>8251</name>
</trkpt>
<trkpt lat="49.574713" lon="8.662518">
<ele>151.5</ele>
<speed>56.0</speed>
<course>350.9</course>
<desc>Speed 56.0 km/h Distance 181 km</desc>
<time>2011-03-24T18:09:32.42</time>
<name>8252</name>
</trkpt>
<trkpt lat="49.574855" lon="8.662483">
<ele>151.0</ele>
<speed>56.7</speed>
<course>346.7</course>
<desc>Speed 56.7 km/h Distance 181 km</desc>
<time>2011-03-24T18:09:33.42</time>
<name>8253</name>
</trkpt>
<trkpt lat="49.574992" lon="8.662433">
<ele>151.5</ele>
<speed>56.1</speed>
<course>344.5</course>
<desc>Speed 56.1 km/h Distance 181 km</desc>
<time>2011-03-24T18:09:34.41</time>
<name>8254</name>
</trkpt>
<trkpt lat="49.575128" lon="8.662375">
<ele>151.0</ele>
<speed>56.4</speed>
<course>342.3</course>
<desc>Speed 56.4 km/h Distance 181 km</desc>
<time>2011-03-24T18:09:35.41</time>
<name>8255</name>
</trkpt>
<trkpt lat="49.575253" lon="8.662313">
<ele>151.0</ele>
<speed>52.2</speed>
<course>340.6</course>
<desc>Speed 52.2 km/h Distance 181 km</desc>
<time>2011-03-24T18:09:36.41</time>
<name>8256</name>
</trkpt>
<trkpt lat="49.575367" lon="8.662252">
<ele>151.0</ele>
<speed>48.0</speed>
<course>338.2</course>
<desc>Speed 48.0 km/h Distance 181 km</desc>
<time>2011-03-24T18:09:37.41</time>
<name>8257</name>
</trkpt>
<trkpt lat="49.575458" lon="8.662195">
<ele>150.5</ele>
<speed>39.3</speed>
<course>339.5</course>
<desc>Speed 39.3 km/h Distance 181 km</desc>
<time>2011-03-24T18:09:38.41</time>
<name>8258</name>
</trkpt>
<trkpt lat="49.575533" lon="8.662152">
<ele>150.0</ele>
<speed>32.4</speed>
<course>337.7</course>
<desc>Speed 32.4 km/h Distance 181 km</desc>
<time>2011-03-24T18:09:39.41</time>
<name>8259</name>
</trkpt>
<trkpt lat="49.575583" lon="8.662120">
<ele>151.0</ele>
<speed>22.6</speed>
<course>11.1</course>
<desc>Speed 22.6 km/h Distance 181 km</desc>
<time>2011-03-24T18:09:40.41</time>
<name>8260</name>
</trkpt>
<trkpt lat="49.575638" lon="8.662137">
<ele>153.5</ele>
<speed>16.7</speed>
<course>48.6</course>
<desc>Speed 16.7 km/h Distance 181 km</desc>
<time>2011-03-24T18:09:42.42</time>
<name>8261</name>
</trkpt>
<trkpt lat="49.575652" lon="8.662160">
<ele>153.5</ele>
<speed>9.3</speed>
<course>84.1</course>
<desc>Speed 9.3 km/h Distance 181 km</desc>
<time>2011-03-24T18:09:43.42</time>
<name>8262</name>
</trkpt>
<trkpt lat="49.575653" lon="8.662185">
<ele>153.0</ele>
<speed>6.1</speed>
<course>90.0</course>
<desc>Speed 6.1 km/h Distance 181 km</desc>
<time>2011-03-24T18:09:44.42</time>
<name>8263</name>
</trkpt>
<trkpt lat="49.575653" lon="8.662238">
<ele>151.0</ele>
<speed>13.6</speed>
<course>137.4</course>
<desc>Speed 13.6 km/h Distance 181 km</desc>
<time>2011-03-24T18:09:45.41</time>
<name>8264</name>
</trkpt>
<trkpt lat="49.575613" lon="8.662295">
<ele>151.5</ele>
<speed>21.4</speed>
<course>133.6</course>
<desc>Speed 21.4 km/h Distance 181 km</desc>
<time>2011-03-24T18:09:46.42</time>
<name>8265</name>
</trkpt>
<trkpt lat="49.575578" lon="8.662352">
<ele>151.5</ele>
<speed>20.1</speed>
<course>74.1</course>
<desc>Speed 20.1 km/h Distance 181 km</desc>
<time>2011-03-24T18:09:47.42</time>
<name>8266</name>
</trkpt>
<trkpt lat="49.575587" lon="8.662397">
<ele>151.5</ele>
<speed>12.0</speed>
<course>257.6</course>
<desc>Speed 12.0 km/h Distance 181 km</desc>
<time>2011-03-24T18:09:48.42</time>
<name>8267</name>
</trkpt>
<trkpt lat="49.575585" lon="8.662385">
<ele>151.5</ele>
<speed>3.4</speed>
<course>265.1</course>
<desc>Speed 3.4 km/h Distance 181 km</desc>
<time>2011-03-24T18:09:49.41</time>
<name>8268</name>
</trkpt>
<trkpt lat="49.575583" lon="8.662355">
<ele>151.5</ele>
<speed>8.1</speed>
<course>265.4</course>
<desc>Speed 8.1 km/h Distance 181 km</desc>
<time>2011-03-24T18:09:50.41</time>
<name>8269</name>
</trkpt>
<trkpt lat="49.575582" lon="8.662323">
<ele>151.5</ele>
<speed>8.5</speed>
<course>1.2</course>
<desc>Speed 8.5 km/h Distance 181 km</desc>
<time>2011-03-24T18:09:51.41</time>
<name>8270</name>
</trkpt>
<trkpt lat="49.575588" lon="8.662323">
<ele>151.5</ele>
<speed>0.7</speed>
<course>47.4</course>
<desc>Speed 0.7 km/h Distance 181 km</desc>
<time>2011-03-24T18:09:52.41</time>
<name>8271</name>
</trkpt>
<trkpt lat="49.575593" lon="8.662332">
<ele>151.0</ele>
<speed>2.3</speed>
<course>132.6</course>
<desc>Speed 2.3 km/h Distance 181 km</desc>
<time>2011-03-24T18:09:53.43</time>
<name>8272</name>
</trkpt>
<trkpt lat="49.575588" lon="8.662340">
<ele>151.5</ele>
<speed>1.6</speed>
<course>52.4</course>
<desc>Speed 1.6 km/h Distance 181 km</desc>
<time>2011-03-24T18:09:54.41</time>
<name>8273</name>
</trkpt>
<trkpt lat="49.575592" lon="8.662347">
<ele>151.5</ele>
<speed>1.6</speed>
<course>90.0</course>
<desc>Speed 1.6 km/h Distance 181 km</desc>
<time>2011-03-24T18:09:55.43</time>
<name>8274</name>
</trkpt>
<trkpt lat="49.575592" lon="8.662360">
<ele>153.0</ele>
<speed>2.0</speed>
<course>125.0</course>
<desc>Speed 2.0 km/h Distance 181 km</desc>
<time>2011-03-24T18:09:56.40</time>
<name>8275</name>
</trkpt>
<trkpt lat="49.575583" lon="8.662378">
<ele>153.5</ele>
<speed>4.5</speed>
<course>342.5</course>
<desc>Speed 4.5 km/h Distance 181 km</desc>
<time>2011-03-24T18:09:57.41</time>
<name>8276</name>
</trkpt>
<trkpt lat="49.575645" lon="8.662348">
<ele>154.0</ele>
<speed>0.5</speed>
<course>44.5</course>
<desc>Speed 0.5 km/h Distance 181 km</desc>
<time>2011-03-24T18:09:59.40</time>
<name>8277</name>
</trkpt>
<trkpt lat="49.575648" lon="8.662353">
<ele>154.5</ele>
<speed>0.1</speed>
<course>150.8</course>
<desc>Speed 0.1 km/h Distance 181 km</desc>
<time>2011-03-24T18:10:00.41</time>
<name>8278</name>
</trkpt>
<trkpt lat="49.575647" lon="8.662355">
<ele>155.0</ele>
<speed>0.8</speed>
<course>346.7</course>
<desc>Speed 0.8 km/h Distance 181 km</desc>
<time>2011-03-24T18:10:01.41</time>
<name>8279</name>
</trkpt>
<trkpt lat="49.575665" lon="8.662348">
<ele>155.0</ele>
<speed>0.3</speed>
<course>346.0</course>
<desc>Speed 0.3 km/h Distance 181 km</desc>
<time>2011-03-24T18:10:02.41</time>
<name>8280</name>
</trkpt>
<trkpt lat="49.575687" lon="8.662340">
<ele>155.5</ele>
<speed>0.1</speed>
<course>346.7</course>
<desc>Speed 0.1 km/h Distance 181 km</desc>
<time>2011-03-24T18:10:03.41</time>
<name>8281</name>
</trkpt>
<trkpt lat="49.575705" lon="8.662333">
<ele>155.5</ele>
<speed>0.2</speed>
<course>344.0</course>
<desc>Speed 0.2 km/h Distance 181 km</desc>
<time>2011-03-24T18:10:04.40</time>
<name>8282</name>
</trkpt>
<trkpt lat="49.575720" lon="8.662327">
<ele>155.5</ele>
<speed>0.2</speed>
<course>346.5</course>
<desc>Speed 0.2 km/h Distance 181 km</desc>
<time>2011-03-24T18:10:05.40</time>
<name>8283</name>
</trkpt>
<trkpt lat="49.575733" lon="8.662322">
<ele>156.0</ele>
<speed>0.4</speed>
<course>345.1</course>
<desc>Speed 0.4 km/h Distance 181 km</desc>
<time>2011-03-24T18:10:06.39</time>
<name>8284</name>
</trkpt>
<trkpt lat="49.575742" lon="8.662318">
<ele>156.0</ele>
<speed>0.4</speed>
<course>12.6</course>
<desc>Speed 0.4 km/h Distance 181 km</desc>
<time>2011-03-24T18:10:07.40</time>
<name>8285</name>
</trkpt>
<trkpt lat="49.575743" lon="8.662318">
<ele>156.0</ele>
<speed>0.4</speed>
<course>347.4</course>
<desc>Speed 0.4 km/h Distance 181 km</desc>
<time>2011-03-24T18:10:08.40</time>
<name>8286</name>
</trkpt>
<trkpt lat="49.575747" lon="8.662317">
<ele>156.0</ele>
<speed>0.1</speed>
<course>0.0</course>
<desc>Speed 0.1 km/h Distance 181 km</desc>
<time>2011-03-24T18:10:09.40</time>
<name>8287</name>
</trkpt>
<trkpt lat="49.575750" lon="8.662317">
<ele>156.0</ele>
<speed>0.4</speed>
<course>29.2</course>
<desc>Speed 0.4 km/h Distance 181 km</desc>
<time>2011-03-24T18:10:10.39</time>
<name>8288</name>
</trkpt>
<trkpt lat="49.575752" lon="8.662318">
<ele>156.0</ele>
<speed>0.2</speed>
<course>29.2</course>
<desc>Speed 0.2 km/h Distance 181 km</desc>
<time>2011-03-24T18:10:11.40</time>
<name>8289</name>
</trkpt>
<trkpt lat="49.575752" lon="8.662320">
<ele>156.5</ele>
<speed>0.1</speed>
<course>330.8</course>
<desc>Speed 0.1 km/h Distance 181 km</desc>
<time>2011-03-24T18:10:12.40</time>
<name>8290</name>
</trkpt>
<trkpt lat="49.575753" lon="8.662318">
<ele>156.5</ele>
<speed>0.3</speed>
<course>34.1</course>
<desc>Speed 0.3 km/h Distance 181 km</desc>
<time>2011-03-24T18:10:13.39</time>
<name>8291</name>
</trkpt>
<trkpt lat="49.575758" lon="8.662323">
<ele>157.0</ele>
<speed>0.9</speed>
<course>7.4</course>
<desc>Speed 0.9 km/h Distance 181 km</desc>
<time>2011-03-24T18:10:14.39</time>
<name>8292</name>
</trkpt>
<trkpt lat="49.575765" lon="8.662323">
<ele>157.0</ele>
<speed>0.2</speed>
<course>12.6</course>
<desc>Speed 0.2 km/h Distance 181 km</desc>
<time>2011-03-24T18:10:15.40</time>
<name>8293</name>
</trkpt>
<trkpt lat="49.575770" lon="8.662325">
<ele>157.0</ele>
<speed>0.5</speed>
<course>337.0</course>
<desc>Speed 0.5 km/h Distance 181 km</desc>
<time>2011-03-24T18:10:16.39</time>
<name>8294</name>
</trkpt>
<trkpt lat="49.575773" lon="8.662323">
<ele>157.0</ele>
<speed>0.7</speed>
<course>347.4</course>
<desc>Speed 0.7 km/h Distance 181 km</desc>
<time>2011-03-24T18:10:17.39</time>
<name>8295</name>
</trkpt>
<trkpt lat="49.575777" lon="8.662322">
<ele>157.0</ele>
<speed>0.3</speed>
<course>37.2</course>
<desc>Speed 0.3 km/h Distance 181 km</desc>
<time>2011-03-24T18:10:18.39</time>
<name>8296</name>
</trkpt>
<trkpt lat="49.575778" lon="8.662323">
<ele>157.0</ele>
<speed>0.1</speed>
<course>270.0</course>
<desc>Speed 0.1 km/h Distance 181 km</desc>
<time>2011-03-24T18:10:19.39</time>
<name>8297</name>
</trkpt>
<trkpt lat="49.575778" lon="8.662322">
<ele>157.0</ele>
<speed>0.1</speed>
<course>12.6</course>
<desc>Speed 0.1 km/h Distance 181 km</desc>
<time>2011-03-24T18:10:20.39</time>
<name>8298</name>
</trkpt>
<trkpt lat="49.575780" lon="8.662322">
<ele>157.0</ele>
<speed>0.1</speed>
<course>90.0</course>
<desc>Speed 0.1 km/h Distance 181 km</desc>
<time>2011-03-24T18:10:21.39</time>
<name>8299</name>
</trkpt>
<trkpt lat="49.575780" lon="8.662323">
<ele>157.0</ele>
<speed>0.4</speed>
<course>90.0</course>
<desc>Speed 0.4 km/h Distance 181 km</desc>
<time>2011-03-24T18:10:22.38</time>
<name>8300</name>
</trkpt>
<trkpt lat="49.575780" lon="8.662323">
<ele>157.0</ele>
<speed>0.1</speed>
<course>12.6</course>
<desc>Speed 0.1 km/h Distance 181 km</desc>
<time>2011-03-24T18:10:23.38</time>
<name>8301</name>
</trkpt>
<trkpt lat="49.575782" lon="8.662323">
<ele>157.0</ele>
<speed>0.0</speed>
<course>12.6</course>
<desc>Speed 0.0 km/h Distance 181 km</desc>
<time>2011-03-24T18:10:24.39</time>
<name>8302</name>
</trkpt>
<trkpt lat="49.575782" lon="8.662323">
<ele>157.5</ele>
<speed>0.4</speed>
<course>0.0</course>
<desc>Speed 0.4 km/h Distance 181 km</desc>
<time>2011-03-24T18:10:25.39</time>
<name>8303</name>
</trkpt>
<trkpt lat="49.575783" lon="8.662323">
<ele>157.5</ele>
<speed>0.0</speed>
<course>0.0</course>
<desc>Speed 0.0 km/h Distance 181 km</desc>
<time>2011-03-24T18:10:26.39</time>
<name>8304</name>
</trkpt>
<trkpt lat="49.575783" lon="8.662323">
<ele>157.5</ele>
<speed>0.6</speed>
<course>270.0</course>
<desc>Speed 0.6 km/h Distance 181 km</desc>
<time>2011-03-24T18:10:27.38</time>
<name>8305</name>
</trkpt>
<trkpt lat="49.575783" lon="8.662322">
<ele>157.5</ele>
<speed>0.8</speed>
<course>90.0</course>
<desc>Speed 0.8 km/h Distance 181 km</desc>
<time>2011-03-24T18:10:28.38</time>
<name>8306</name>
</trkpt>
<trkpt lat="49.575783" lon="8.662323">
<ele>157.5</ele>
<speed>0.3</speed>
<course>90.0</course>
<desc>Speed 0.3 km/h Distance 181 km</desc>
<time>2011-03-24T18:10:29.38</time>
<name>8307</name>
</trkpt>
<trkpt lat="49.575783" lon="8.662325">
<ele>157.5</ele>
<speed>0.0</speed>
<course>37.2</course>
<desc>Speed 0.0 km/h Distance 181 km</desc>
<time>2011-03-24T18:10:30.38</time>
<name>8308</name>
</trkpt>
<trkpt lat="49.575785" lon="8.662327">
<ele>157.5</ele>
<speed>0.6</speed>
<course>37.2</course>
<desc>Speed 0.6 km/h Distance 181 km</desc>
<time>2011-03-24T18:10:31.39</time>
<name>8309</name>
</trkpt>
<trkpt lat="49.575785" lon="8.662327">
<ele>157.5</ele>
<speed>0.1</speed>
<course>37.2</course>
<desc>Speed 0.1 km/h Distance 181 km</desc>
<time>2011-03-24T18:10:32.39</time>
<name>8310</name>
</trkpt>
<trkpt lat="49.575785" lon="8.662327">
<ele>157.5</ele>
<speed>0.2</speed>
<course>37.2</course>
<desc>Speed 0.2 km/h Distance 181 km</desc>
<time>2011-03-24T18:10:33.39</time>
<name>8311</name>
</trkpt>
<trkpt lat="49.575785" lon="8.662327">
<ele>157.5</ele>
<speed>0.5</speed>
<course>37.2</course>
<desc>Speed 0.5 km/h Distance 181 km</desc>
<time>2011-03-24T18:10:34.38</time>
<name>8312</name>
</trkpt>
<trkpt lat="49.575785" lon="8.662327">
<ele>157.5</ele>
<speed>0.4</speed>
<course>12.6</course>
<desc>Speed 0.4 km/h Distance 181 km</desc>
<time>2011-03-24T18:10:35.39</time>
<name>8313</name>
</trkpt>
<trkpt lat="49.575787" lon="8.662327">
<ele>157.5</ele>
<speed>0.5</speed>
<course>12.6</course>
<desc>Speed 0.5 km/h Distance 181 km</desc>
<time>2011-03-24T18:10:36.39</time>
<name>8314</name>
</trkpt>
<trkpt lat="49.575787" lon="8.662327">
<ele>157.5</ele>
<speed>0.4</speed>
<course>12.6</course>
<desc>Speed 0.4 km/h Distance 181 km</desc>
<time>2011-03-24T18:10:37.38</time>
<name>8315</name>
</trkpt>
<trkpt lat="49.575787" lon="8.662327">
<ele>157.5</ele>
<speed>0.3</speed>
<course>270.0</course>
<desc>Speed 0.3 km/h Distance 181 km</desc>
<time>2011-03-24T18:10:38.38</time>
<name>8316</name>
</trkpt>
<trkpt lat="49.575787" lon="8.662325">
<ele>157.5</ele>
<speed>0.1</speed>
<course>217.2</course>
<desc>Speed 0.1 km/h Distance 181 km</desc>
<time>2011-03-24T18:10:39.39</time>
<name>8317</name>
</trkpt>
<trkpt lat="49.575785" lon="8.662323">
<ele>158.0</ele>
<speed>0.3</speed>
<course>217.2</course>
<desc>Speed 0.3 km/h Distance 181 km</desc>
<time>2011-03-24T18:10:40.39</time>
<name>8318</name>
</trkpt>
<trkpt lat="49.575783" lon="8.662322">
<ele>158.0</ele>
<speed>0.4</speed>
<course>270.0</course>
<desc>Speed 0.4 km/h Distance 181 km</desc>
<time>2011-03-24T18:10:41.39</time>
<name>8319</name>
</trkpt>
<trkpt lat="49.575783" lon="8.662320">
<ele>158.0</ele>
<speed>0.1</speed>
<course>270.0</course>
<desc>Speed 0.1 km/h Distance 181 km</desc>
<time>2011-03-24T18:10:42.39</time>
<name>8320</name>
</trkpt>
<trkpt lat="49.575783" lon="8.662318">
<ele>158.0</ele>
<speed>0.1</speed>
<course>270.0</course>
<desc>Speed 0.1 km/h Distance 181 km</desc>
<time>2011-03-24T18:10:43.39</time>
<name>8321</name>
</trkpt>
<trkpt lat="49.575783" lon="8.662318">
<ele>158.5</ele>
<speed>0.4</speed>
<course>180.0</course>
<desc>Speed 0.4 km/h Distance 181 km</desc>
<time>2011-03-24T18:10:44.39</time>
<name>8322</name>
</trkpt>
<trkpt lat="49.575782" lon="8.662318">
<ele>158.5</ele>
<speed>0.1</speed>
<course>180.0</course>
<desc>Speed 0.1 km/h Distance 181 km</desc>
<time>2011-03-24T18:10:45.39</time>
<name>8323</name>
</trkpt>
<trkpt lat="49.575782" lon="8.662318">
<ele>158.5</ele>
<speed>0.1</speed>
<course>180.0</course>
<desc>Speed 0.1 km/h Distance 181 km</desc>
<time>2011-03-24T18:10:46.38</time>
<name>8324</name>
</trkpt>
<trkpt lat="49.575782" lon="8.662317">
<ele>158.5</ele>
<speed>0.2</speed>
<course>180.0</course>
<desc>Speed 0.2 km/h Distance 181 km</desc>
<time>2011-03-24T18:10:47.38</time>
<name>8325</name>
</trkpt>
<trkpt lat="49.575782" lon="8.662317">
<ele>158.5</ele>
<speed>0.3</speed>
<course>180.0</course>
<desc>Speed 0.3 km/h Distance 181 km</desc>
<time>2011-03-24T18:10:48.39</time>
<name>8326</name>
</trkpt>
<trkpt lat="49.575782" lon="8.662317">
<ele>158.5</ele>
<speed>0.3</speed>
<course>180.0</course>
<desc>Speed 0.3 km/h Distance 181 km</desc>
<time>2011-03-24T18:10:49.38</time>
<name>8327</name>
</trkpt>
<trkpt lat="49.575782" lon="8.662317">
<ele>158.5</ele>
<speed>0.3</speed>
<course>167.4</course>
<desc>Speed 0.3 km/h Distance 181 km</desc>
<time>2011-03-24T18:10:50.38</time>
<name>8328</name>
</trkpt>
<trkpt lat="49.575780" lon="8.662317">
<ele>158.5</ele>
<speed>0.4</speed>
<course>167.4</course>
<desc>Speed 0.4 km/h Distance 181 km</desc>
<time>2011-03-24T18:10:51.38</time>
<name>8329</name>
</trkpt>
<trkpt lat="49.575780" lon="8.662317">
<ele>158.5</ele>
<speed>0.4</speed>
<course>270.0</course>
<desc>Speed 0.4 km/h Distance 181 km</desc>
<time>2011-03-24T18:10:52.38</time>
<name>8330</name>
</trkpt>
<trkpt lat="49.575780" lon="8.662315">
<ele>159.0</ele>
<speed>0.4</speed>
<course>270.0</course>
<desc>Speed 0.4 km/h Distance 181 km</desc>
<time>2011-03-24T18:10:53.38</time>
<name>8331</name>
</trkpt>
<trkpt lat="49.575780" lon="8.662315">
<ele>159.0</ele>
<speed>0.1</speed>
<course>90.0</course>
<desc>Speed 0.1 km/h Distance 181 km</desc>
<time>2011-03-24T18:10:54.38</time>
<name>8332</name>
</trkpt>
<trkpt lat="49.575780" lon="8.662317">
<ele>159.0</ele>
<speed>0.3</speed>
<course>90.0</course>
<desc>Speed 0.3 km/h Distance 181 km</desc>
<time>2011-03-24T18:10:55.39</time>
<name>8333</name>
</trkpt>
<trkpt lat="49.575780" lon="8.662317">
<ele>159.0</ele>
<speed>0.3</speed>
<course>90.0</course>
<desc>Speed 0.3 km/h Distance 181 km</desc>
<time>2011-03-24T18:10:56.38</time>
<name>8334</name>
</trkpt>
<trkpt lat="49.575780" lon="8.662317">
<ele>159.0</ele>
<speed>0.7</speed>
<course>51.9</course>
<desc>Speed 0.7 km/h Distance 181 km</desc>
<time>2011-03-24T18:10:57.38</time>
<name>8335</name>
</trkpt>
<trkpt lat="49.575782" lon="8.662320">
<ele>159.0</ele>
<speed>1.0</speed>
<course>117.4</course>
<desc>Speed 1.0 km/h Distance 181 km</desc>
<time>2011-03-24T18:10:58.37</time>
<name>8336</name>
</trkpt>
<trkpt lat="49.575780" lon="8.662325">
<ele>159.5</ele>
<speed>0.4</speed>
<course>148.4</course>
<desc>Speed 0.4 km/h Distance 181 km</desc>
<time>2011-03-24T18:10:59.37</time>
<name>8337</name>
</trkpt>
<trkpt lat="49.575777" lon="8.662328">
<ele>160.0</ele>
<speed>0.1</speed>
<course>135.5</course>
<desc>Speed 0.1 km/h Distance 181 km</desc>
<time>2011-03-24T18:11:00.37</time>
<name>8338</name>
</trkpt>
<trkpt lat="49.575773" lon="8.662333">
<ele>160.5</ele>
<speed>0.7</speed>
<course>90.0</course>
<desc>Speed 0.7 km/h Distance 181 km</desc>
<time>2011-03-24T18:11:01.37</time>
<name>8339</name>
</trkpt>
<trkpt lat="49.575773" lon="8.662335">
<ele>160.5</ele>
<speed>0.4</speed>
<course>142.8</course>
<desc>Speed 0.4 km/h Distance 181 km</desc>
<time>2011-03-24T18:11:02.37</time>
<name>8340</name>
</trkpt>
<trkpt lat="49.575772" lon="8.662337">
<ele>160.5</ele>
<speed>0.5</speed>
<course>90.0</course>
<desc>Speed 0.5 km/h Distance 181 km</desc>
<time>2011-03-24T18:11:03.37</time>
<name>8341</name>
</trkpt>
<trkpt lat="49.575772" lon="8.662340">
<ele>160.5</ele>
<speed>0.3</speed>
<course>183.7</course>
<desc>Speed 0.3 km/h Distance 181 km</desc>
<time>2011-03-24T18:11:04.37</time>
<name>8342</name>
</trkpt>
<trkpt lat="49.575753" lon="8.662338">
<ele>160.5</ele>
<speed>7.7</speed>
<course>90.0</course>
<desc>Speed 7.7 km/h Distance 181 km</desc>
<time>2011-03-24T18:11:05.37</time>
<name>8343</name>
</trkpt>
<trkpt lat="49.575753" lon="8.662340">
<ele>160.5</ele>
<speed>0.4</speed>
<course>90.0</course>
<desc>Speed 0.4 km/h Distance 181 km</desc>
<time>2011-03-24T18:11:06.37</time>
<name>8344</name>
</trkpt>
<trkpt lat="49.575753" lon="8.662342">
<ele>160.5</ele>
<speed>0.3</speed>
<course>90.0</course>
<desc>Speed 0.3 km/h Distance 181 km</desc>
<time>2011-03-24T18:11:07.36</time>
<name>8345</name>
</trkpt>
<trkpt lat="49.575753" lon="8.662345">
<ele>160.5</ele>
<speed>0.6</speed>
<course>12.6</course>
<desc>Speed 0.6 km/h Distance 181 km</desc>
<time>2011-03-24T18:11:08.36</time>
<name>8346</name>
</trkpt>
<trkpt lat="49.575773" lon="8.662352">
<ele>160.5</ele>
<speed>8.2</speed>
<course>18.8</course>
<desc>Speed 8.2 km/h Distance 181 km</desc>
<time>2011-03-24T18:11:09.36</time>
<name>8347</name>
</trkpt>
<trkpt lat="49.575780" lon="8.662355">
<ele>160.0</ele>
<speed>3.0</speed>
<course>18.8</course>
<desc>Speed 3.0 km/h Distance 181 km</desc>
<time>2011-03-24T18:11:10.36</time>
<name>8348</name>
</trkpt>
<trkpt lat="49.575780" lon="8.662355">
<ele>160.0</ele>
<speed>1.3</speed>
<course>116.6</course>
<desc>Speed 1.3 km/h Distance 181 km</desc>
<time>2011-03-24T18:11:11.36</time>
<name>8349</name>
</trkpt>
<trkpt lat="49.575778" lon="8.662360">
<ele>160.0</ele>
<speed>1.0</speed>
<course>172.6</course>
<desc>Speed 1.0 km/h Distance 181 km</desc>
<time>2011-03-24T18:11:12.36</time>
<name>8350</name>
</trkpt>
<trkpt lat="49.575772" lon="8.662362">
<ele>160.0</ele>
<speed>0.9</speed>
<course>192.6</course>
<desc>Speed 0.9 km/h Distance 181 km</desc>
<time>2011-03-24T18:11:13.36</time>
<name>8351</name>
</trkpt>
<trkpt lat="49.575767" lon="8.662360">
<ele>160.5</ele>
<speed>0.6</speed>
<course>167.4</course>
<desc>Speed 0.6 km/h Distance 181 km</desc>
<time>2011-03-24T18:11:14.36</time>
<name>8352</name>
</trkpt>
<trkpt lat="49.575765" lon="8.662360">
<ele>160.5</ele>
<speed>0.6</speed>
<course>90.0</course>
<desc>Speed 0.6 km/h Distance 181 km</desc>
<time>2011-03-24T18:11:15.36</time>
<name>8353</name>
</trkpt>
<trkpt lat="49.575765" lon="8.662363">
<ele>160.5</ele>
<speed>0.6</speed>
<course>187.7</course>
<desc>Speed 0.6 km/h Distance 181 km</desc>
<time>2011-03-24T18:11:16.36</time>
<name>8354</name>
</trkpt>
<trkpt lat="49.575757" lon="8.662362">
<ele>160.5</ele>
<speed>2.2</speed>
<course>167.4</course>
<desc>Speed 2.2 km/h Distance 181 km</desc>
<time>2011-03-24T18:11:17.36</time>
<name>8355</name>
</trkpt>
<trkpt lat="49.575753" lon="8.662362">
<ele>160.0</ele>
<speed>1.2</speed>
<course>180.0</course>
<desc>Speed 1.2 km/h Distance 181 km</desc>
<time>2011-03-24T18:11:18.36</time>
<name>8356</name>
</trkpt>
<trkpt lat="49.575748" lon="8.662362">
<ele>160.0</ele>
<speed>1.8</speed>
<course>175.6</course>
<desc>Speed 1.8 km/h Distance 181 km</desc>
<time>2011-03-24T18:11:19.36</time>
<name>8357</name>
</trkpt>
<trkpt lat="49.575738" lon="8.662362">
<ele>160.0</ele>
<speed>3.0</speed>
<course>154.6</course>
<desc>Speed 3.0 km/h Distance 181 km</desc>
<time>2011-03-24T18:11:20.36</time>
<name>8358</name>
</trkpt>
<trkpt lat="49.575733" lon="8.662365">
<ele>160.0</ele>
<speed>1.6</speed>
<course>126.1</course>
<desc>Speed 1.6 km/h Distance 181 km</desc>
<time>2011-03-24T18:11:21.36</time>
<name>8359</name>
</trkpt>
<trkpt lat="49.575732" lon="8.662368">
<ele>159.5</ele>
<speed>0.3</speed>
<course>117.4</course>
<desc>Speed 0.3 km/h Distance 181 km</desc>
<time>2011-03-24T18:11:22.36</time>
<name>8360</name>
</trkpt>
<trkpt lat="49.575730" lon="8.662373">
<ele>159.5</ele>
<speed>0.2</speed>
<course>52.4</course>
<desc>Speed 0.2 km/h Distance 181 km</desc>
<time>2011-03-24T18:11:23.36</time>
<name>8361</name>
</trkpt>
<trkpt lat="49.575733" lon="8.662380">
<ele>159.5</ele>
<speed>2.6</speed>
<course>167.4</course>
<desc>Speed 2.6 km/h Distance 181 km</desc>
<time>2011-03-24T18:11:24.36</time>
<name>8362</name>
</trkpt>
<trkpt lat="49.575730" lon="8.662380">
<ele>159.5</ele>
<speed>0.9</speed>
<course>171.9</course>
<desc>Speed 0.9 km/h Distance 181 km</desc>
<time>2011-03-24T18:11:25.36</time>
<name>8363</name>
</trkpt>
<trkpt lat="49.575725" lon="8.662382">
<ele>159.5</ele>
<speed>1.2</speed>
<course>172.6</course>
<desc>Speed 1.2 km/h Distance 181 km</desc>
<time>2011-03-24T18:11:26.36</time>
<name>8364</name>
</trkpt>
<trkpt lat="49.575718" lon="8.662383">
<ele>159.5</ele>
<speed>1.1</speed>
<course>167.4</course>
<desc>Speed 1.1 km/h Distance 181 km</desc>
<time>2011-03-24T18:11:27.36</time>
<name>8365</name>
</trkpt>
<trkpt lat="49.575717" lon="8.662383">
<ele>159.5</ele>
<speed>0.7</speed>
<course>156.2</course>
<desc>Speed 0.7 km/h Distance 181 km</desc>
<time>2011-03-24T18:11:28.36</time>
<name>8366</name>
</trkpt>
<trkpt lat="49.575712" lon="8.662387">
<ele>159.5</ele>
<speed>0.5</speed>
<course>156.2</course>
<desc>Speed 0.5 km/h Distance 181 km</desc>
<time>2011-03-24T18:11:29.36</time>
<name>8367</name>
</trkpt>
<trkpt lat="49.575712" lon="8.662387">
<ele>159.5</ele>
<speed>0.3</speed>
<course>167.4</course>
<desc>Speed 0.3 km/h Distance 181 km</desc>
<time>2011-03-24T18:11:30.36</time>
<name>8368</name>
</trkpt>
<trkpt lat="49.575710" lon="8.662387">
<ele>159.5</ele>
<speed>0.4</speed>
<course>44.5</course>
<desc>Speed 0.4 km/h Distance 181 km</desc>
<time>2011-03-24T18:11:31.36</time>
<name>8369</name>
</trkpt>
<trkpt lat="49.575713" lon="8.662392">
<ele>159.5</ele>
<speed>2.1</speed>
<course>44.5</course>
<desc>Speed 2.1 km/h Distance 181 km</desc>
<time>2011-03-24T18:11:32.36</time>
<name>8370</name>
</trkpt>
<trkpt lat="49.575713" lon="8.662392">
<ele>159.5</ele>
<speed>0.1</speed>
<course>167.4</course>
<desc>Speed 0.1 km/h Distance 181 km</desc>
<time>2011-03-24T18:11:33.35</time>
<name>8371</name>
</trkpt>
<trkpt lat="49.575712" lon="8.662393">
<ele>159.5</ele>
<speed>0.7</speed>
<course>10.2</course>
<desc>Speed 0.7 km/h Distance 181 km</desc>
<time>2011-03-24T18:11:34.36</time>
<name>8372</name>
</trkpt>
<trkpt lat="49.575730" lon="8.662398">
<ele>159.5</ele>
<speed>7.2</speed>
<course>187.8</course>
<desc>Speed 7.2 km/h Distance 181 km</desc>
<time>2011-03-24T18:11:35.36</time>
<name>8373</name>
</trkpt>
<trkpt lat="49.575707" lon="8.662393">
<ele>159.5</ele>
<speed>9.3</speed>
<course>178.8</course>
<desc>Speed 9.3 km/h Distance 181 km</desc>
<time>2011-03-24T18:11:36.35</time>
<name>8374</name>
</trkpt>
<trkpt lat="49.575700" lon="8.662393">
<ele>159.5</ele>
<speed>3.0</speed>
<course>7.4</course>
<desc>Speed 3.0 km/h Distance 181 km</desc>
<time>2011-03-24T18:11:37.36</time>
<name>8375</name>
</trkpt>
<trkpt lat="49.575707" lon="8.662395">
<ele>159.5</ele>
<speed>3.0</speed>
<course>7.4</course>
<desc>Speed 3.0 km/h Distance 181 km</desc>
<time>2011-03-24T18:11:38.35</time>
<name>8376</name>
</trkpt>
<trkpt lat="49.575707" lon="8.662395">
<ele>159.5</ele>
<speed>0.2</speed>
<course>192.6</course>
<desc>Speed 0.2 km/h Distance 181 km</desc>
<time>2011-03-24T18:11:39.36</time>
<name>8377</name>
</trkpt>
<trkpt lat="49.575702" lon="8.662393">
<ele>159.5</ele>
<speed>0.9</speed>
<course>167.4</course>
<desc>Speed 0.9 km/h Distance 181 km</desc>
<time>2011-03-24T18:11:40.35</time>
<name>8378</name>
</trkpt>
<trkpt lat="49.575700" lon="8.662393">
<ele>159.5</ele>
<speed>0.3</speed>
<course>270.0</course>
<desc>Speed 0.3 km/h Distance 181 km</desc>
<time>2011-03-24T18:11:41.36</time>
<name>8379</name>
</trkpt>
<trkpt lat="49.575700" lon="8.662392">
<ele>159.5</ele>
<speed>0.2</speed>
<course>150.8</course>
<desc>Speed 0.2 km/h Distance 181 km</desc>
<time>2011-03-24T18:11:42.35</time>
<name>8380</name>
</trkpt>
<trkpt lat="49.575698" lon="8.662393">
<ele>159.5</ele>
<speed>0.3</speed>
<course>192.6</course>
<desc>Speed 0.3 km/h Distance 181 km</desc>
<time>2011-03-24T18:11:43.35</time>
<name>8381</name>
</trkpt>
<trkpt lat="49.575697" lon="8.662392">
<ele>159.5</ele>
<speed>0.4</speed>
<course>180.0</course>
<desc>Speed 0.4 km/h Distance 181 km</desc>
<time>2011-03-24T18:11:44.35</time>
<name>8382</name>
</trkpt>
<trkpt lat="49.575693" lon="8.662392">
<ele>159.5</ele>
<speed>0.3</speed>
<course>167.4</course>
<desc>Speed 0.3 km/h Distance 181 km</desc>
<time>2011-03-24T18:11:45.35</time>
<name>8383</name>
</trkpt>
<trkpt lat="49.575692" lon="8.662392">
<ele>159.5</ele>
<speed>0.1</speed>
<course>167.4</course>
<desc>Speed 0.1 km/h Distance 181 km</desc>
<time>2011-03-24T18:11:46.35</time>
<name>8384</name>
</trkpt>
<trkpt lat="49.575692" lon="8.662392">
<ele>159.5</ele>
<speed>0.5</speed>
<course>192.6</course>
<desc>Speed 0.5 km/h Distance 181 km</desc>
<time>2011-03-24T18:11:47.35</time>
<name>8385</name>
</trkpt>
<trkpt lat="49.575685" lon="8.662390">
<ele>159.5</ele>
<speed>2.5</speed>
<course>198.8</course>
<desc>Speed 2.5 km/h Distance 181 km</desc>
<time>2011-03-24T18:11:48.35</time>
<name>8386</name>
</trkpt>
<trkpt lat="49.575682" lon="8.662388">
<ele>159.5</ele>
<speed>0.1</speed>
<course>167.4</course>
<desc>Speed 0.1 km/h Distance 181 km</desc>
<time>2011-03-24T18:11:49.35</time>
<name>8387</name>
</trkpt>
<trkpt lat="49.575678" lon="8.662388">
<ele>159.5</ele>
<speed>0.5</speed>
<course>192.6</course>
<desc>Speed 0.5 km/h Distance 181 km</desc>
<time>2011-03-24T18:11:50.35</time>
<name>8388</name>
</trkpt>
<trkpt lat="49.575673" lon="8.662387">
<ele>159.5</ele>
<speed>0.4</speed>
<course>187.4</course>
<desc>Speed 0.4 km/h Distance 181 km</desc>
<time>2011-03-24T18:11:51.36</time>
<name>8389</name>
</trkpt>
<trkpt lat="49.575667" lon="8.662385">
<ele>160.0</ele>
<speed>0.3</speed>
<course>198.8</course>
<desc>Speed 0.3 km/h Distance 181 km</desc>
<time>2011-03-24T18:11:52.35</time>
<name>8390</name>
</trkpt>
<trkpt lat="49.575660" lon="8.662382">
<ele>160.0</ele>
<speed>0.6</speed>
<course>198.8</course>
<desc>Speed 0.6 km/h Distance 181 km</desc>
<time>2011-03-24T18:11:53.35</time>
<name>8391</name>
</trkpt>
<trkpt lat="49.575660" lon="8.662382">
<ele>160.0</ele>
<speed>0.3</speed>
<course>217.2</course>
<desc>Speed 0.3 km/h Distance 181 km</desc>
<time>2011-03-24T18:11:54.35</time>
<name>8392</name>
</trkpt>
<trkpt lat="49.575658" lon="8.662380">
<ele>160.0</ele>
<speed>0.9</speed>
<course>270.0</course>
<desc>Speed 0.9 km/h Distance 181 km</desc>
<time>2011-03-24T18:11:55.37</time>
<name>8393</name>
</trkpt>
<trkpt lat="49.575658" lon="8.662378">
<ele>160.0</ele>
<speed>0.5</speed>
<course>270.0</course>
<desc>Speed 0.5 km/h Distance 181 km</desc>
<time>2011-03-24T18:11:56.35</time>
<name>8394</name>
</trkpt>
<trkpt lat="49.575658" lon="8.662378">
<ele>160.0</ele>
<speed>0.5</speed>
<course>270.0</course>
<desc>Speed 0.5 km/h Distance 181 km</desc>
<time>2011-03-24T18:11:57.35</time>
<name>8395</name>
</trkpt>
<trkpt lat="49.575658" lon="8.662378">
<ele>160.0</ele>
<speed>0.2</speed>
<course>270.0</course>
<desc>Speed 0.2 km/h Distance 181 km</desc>
<time>2011-03-24T18:11:58.35</time>
<name>8396</name>
</trkpt>
<trkpt lat="49.575658" lon="8.662378">
<ele>160.0</ele>
<speed>0.6</speed>
<course>4.4</course>
<desc>Speed 0.6 km/h Distance 181 km</desc>
<time>2011-03-24T18:11:59.35</time>
<name>8397</name>
</trkpt>
<trkpt lat="49.575668" lon="8.662380">
<ele>160.0</ele>
<speed>3.9</speed>
<course>180.0</course>
<desc>Speed 3.9 km/h Distance 181 km</desc>
<time>2011-03-24T18:12:00.35</time>
<name>8398</name>
</trkpt>
<trkpt lat="49.575667" lon="8.662380">
<ele>160.0</ele>
<speed>0.4</speed>
<course>5.0</course>
<desc>Speed 0.4 km/h Distance 181 km</desc>
<time>2011-03-24T18:12:01.35</time>
<name>8399</name>
</trkpt>
<trkpt lat="49.575675" lon="8.662382">
<ele>160.5</ele>
<speed>3.1</speed>
<course>13.8</course>
<desc>Speed 3.1 km/h Distance 181 km</desc>
<time>2011-03-24T18:12:02.35</time>
<name>8400</name>
</trkpt>
<trkpt lat="49.575683" lon="8.662385">
<ele>160.5</ele>
<speed>3.4</speed>
<course>192.6</course>
<desc>Speed 3.4 km/h Distance 181 km</desc>
<time>2011-03-24T18:12:03.35</time>
<name>8401</name>
</trkpt>
<trkpt lat="49.575682" lon="8.662383">
<ele>160.5</ele>
<speed>0.9</speed>
<course>5.0</course>
<desc>Speed 0.9 km/h Distance 181 km</desc>
<time>2011-03-24T18:12:04.35</time>
<name>8402</name>
</trkpt>
<trkpt lat="49.575690" lon="8.662385">
<ele>160.5</ele>
<speed>2.7</speed>
<course>322.8</course>
<desc>Speed 2.7 km/h Distance 181 km</desc>
<time>2011-03-24T18:12:05.35</time>
<name>8403</name>
</trkpt>
<trkpt lat="49.575692" lon="8.662383">
<ele>160.5</ele>
<speed>1.3</speed>
<course>270.0</course>
<desc>Speed 1.3 km/h Distance 181 km</desc>
<time>2011-03-24T18:12:06.35</time>
<name>8404</name>
</trkpt>
<trkpt lat="49.575692" lon="8.662380">
<ele>160.5</ele>
<speed>1.6</speed>
<course>12.6</course>
<desc>Speed 1.6 km/h Distance 181 km</desc>
<time>2011-03-24T18:12:07.35</time>
<name>8405</name>
</trkpt>
<trkpt lat="49.575695" lon="8.662380">
<ele>160.5</ele>
<speed>1.7</speed>
<course>167.4</course>
<desc>Speed 1.7 km/h Distance 181 km</desc>
<time>2011-03-24T18:12:08.35</time>
<name>8406</name>
</trkpt>
<trkpt lat="49.575692" lon="8.662380">
<ele>160.5</ele>
<speed>1.8</speed>
<course>231.9</course>
<desc>Speed 1.8 km/h Distance 181 km</desc>
<time>2011-03-24T18:12:09.35</time>
<name>8407</name>
</trkpt>
<trkpt lat="49.575690" lon="8.662377">
<ele>160.5</ele>
<speed>0.4</speed>
<course>270.0</course>
<desc>Speed 0.4 km/h Distance 181 km</desc>
<time>2011-03-24T18:12:10.34</time>
<name>8408</name>
</trkpt>
<trkpt lat="49.575690" lon="8.662373">
<ele>160.5</ele>
<speed>0.3</speed>
<course>233.9</course>
<desc>Speed 0.3 km/h Distance 181 km</desc>
<time>2011-03-24T18:12:11.35</time>
<name>8409</name>
</trkpt>
<trkpt lat="49.575688" lon="8.662370">
<ele>160.5</ele>
<speed>0.4</speed>
<course>23.0</course>
<desc>Speed 0.4 km/h Distance 181 km</desc>
<time>2011-03-24T18:12:12.35</time>
<name>8410</name>
</trkpt>
<trkpt lat="49.575692" lon="8.662372">
<ele>160.5</ele>
<speed>0.4</speed>
<course>12.6</course>
<desc>Speed 0.4 km/h Distance 181 km</desc>
<time>2011-03-24T18:12:13.35</time>
<name>8411</name>
</trkpt>
<trkpt lat="49.575695" lon="8.662372">
<ele>160.5</ele>
<speed>0.1</speed>
<course>12.6</course>
<desc>Speed 0.1 km/h Distance 181 km</desc>
<time>2011-03-24T18:12:14.35</time>
<name>8412</name>
</trkpt>
<trkpt lat="49.575695" lon="8.662372">
<ele>160.5</ele>
<speed>0.5</speed>
<course>167.4</course>
<desc>Speed 0.5 km/h Distance 181 km</desc>
<time>2011-03-24T18:12:15.35</time>
<name>8413</name>
</trkpt>
<trkpt lat="49.575693" lon="8.662372">
<ele>160.5</ele>
<speed>0.7</speed>
<course>167.4</course>
<desc>Speed 0.7 km/h Distance 181 km</desc>
<time>2011-03-24T18:12:16.35</time>
<name>8414</name>
</trkpt>
<trkpt lat="49.575693" lon="8.662372">
<ele>160.5</ele>
<speed>0.3</speed>
<course>90.0</course>
<desc>Speed 0.3 km/h Distance 181 km</desc>
<time>2011-03-24T18:12:17.34</time>
<name>8415</name>
</trkpt>
<trkpt lat="49.575693" lon="8.662373">
<ele>160.5</ele>
<speed>0.7</speed>
<course>90.0</course>
<desc>Speed 0.7 km/h Distance 181 km</desc>
<time>2011-03-24T18:12:18.34</time>
<name>8416</name>
</trkpt>
<trkpt lat="49.575693" lon="8.662373">
<ele>160.5</ele>
<speed>0.3</speed>
<course>90.0</course>
<desc>Speed 0.3 km/h Distance 181 km</desc>
<time>2011-03-24T18:12:19.34</time>
<name>8417</name>
</trkpt>
<trkpt lat="49.575693" lon="8.662373">
<ele>160.5</ele>
<speed>0.1</speed>
<course>189.6</course>
<desc>Speed 0.1 km/h Distance 181 km</desc>
<time>2011-03-24T18:12:20.34</time>
<name>8418</name>
</trkpt>
<trkpt lat="49.575685" lon="8.662372">
<ele>160.5</ele>
<speed>3.6</speed>
<course>188.8</course>
<desc>Speed 3.6 km/h Distance 181 km</desc>
<time>2011-03-24T18:12:21.34</time>
<name>8419</name>
</trkpt>
<trkpt lat="49.575650" lon="8.662363">
<ele>160.5</ele>
<speed>14.1</speed>
<course>7.4</course>
<desc>Speed 14.1 km/h Distance 181 km</desc>
<time>2011-03-24T18:12:22.34</time>
<name>8420</name>
</trkpt>
<trkpt lat="49.575657" lon="8.662365">
<ele>160.5</ele>
<speed>2.8</speed>
<course>12.6</course>
<desc>Speed 2.8 km/h Distance 181 km</desc>
<time>2011-03-24T18:12:23.34</time>
<name>8421</name>
</trkpt>
<trkpt lat="49.575658" lon="8.662365">
<ele>160.5</ele>
<speed>0.4</speed>
<course>12.6</course>
<desc>Speed 0.4 km/h Distance 181 km</desc>
<time>2011-03-24T18:12:24.33</time>
<name>8422</name>
</trkpt>
<trkpt lat="49.575658" lon="8.662365">
<ele>160.5</ele>
<speed>0.1</speed>
<course>270.0</course>
<desc>Speed 0.1 km/h Distance 181 km</desc>
<time>2011-03-24T18:12:25.33</time>
<name>8423</name>
</trkpt>
<trkpt lat="49.575658" lon="8.662363">
<ele>160.5</ele>
<speed>0.5</speed>
<course>270.0</course>
<desc>Speed 0.5 km/h Distance 181 km</desc>
<time>2011-03-24T18:12:26.34</time>
<name>8424</name>
</trkpt>
<trkpt lat="49.575658" lon="8.662363">
<ele>160.5</ele>
<speed>0.1</speed>
<course>37.2</course>
<desc>Speed 0.1 km/h Distance 181 km</desc>
<time>2011-03-24T18:12:27.34</time>
<name>8425</name>
</trkpt>
<trkpt lat="49.575660" lon="8.662365">
<ele>160.5</ele>
<speed>0.3</speed>
<course>270.0</course>
<desc>Speed 0.3 km/h Distance 181 km</desc>
<time>2011-03-24T18:12:28.34</time>
<name>8426</name>
</trkpt>
<trkpt lat="49.575660" lon="8.662363">
<ele>160.5</ele>
<speed>0.2</speed>
<course>217.2</course>
<desc>Speed 0.2 km/h Distance 181 km</desc>
<time>2011-03-24T18:12:29.34</time>
<name>8427</name>
</trkpt>
<trkpt lat="49.575658" lon="8.662362">
<ele>160.5</ele>
<speed>0.8</speed>
<course>270.0</course>
<desc>Speed 0.8 km/h Distance 181 km</desc>
<time>2011-03-24T18:12:30.34</time>
<name>8428</name>
</trkpt>
<trkpt lat="49.575658" lon="8.662360">
<ele>161.0</ele>
<speed>0.3</speed>
<course>18.8</course>
<desc>Speed 0.3 km/h Distance 181 km</desc>
<time>2011-03-24T18:12:31.33</time>
<name>8429</name>
</trkpt>
<trkpt lat="49.575662" lon="8.662362">
<ele>160.5</ele>
<speed>0.7</speed>
<course>90.0</course>
<desc>Speed 0.7 km/h Distance 181 km</desc>
<time>2011-03-24T18:12:32.34</time>
<name>8430</name>
</trkpt>
<trkpt lat="49.575662" lon="8.662363">
<ele>160.5</ele>
<speed>0.4</speed>
<course>29.2</course>
<desc>Speed 0.4 km/h Distance 181 km</desc>
<time>2011-03-24T18:12:33.34</time>
<name>8431</name>
</trkpt>
<trkpt lat="49.575663" lon="8.662365">
<ele>160.5</ele>
<speed>0.4</speed>
<course>231.9</course>
<desc>Speed 0.4 km/h Distance 181 km</desc>
<time>2011-03-24T18:12:34.34</time>
<name>8432</name>
</trkpt>
<trkpt lat="49.575662" lon="8.662362">
<ele>160.5</ele>
<speed>0.5</speed>
<course>90.0</course>
<desc>Speed 0.5 km/h Distance 181 km</desc>
<time>2011-03-24T18:12:35.34</time>
<name>8433</name>
</trkpt>
<trkpt lat="49.575662" lon="8.662363">
<ele>160.5</ele>
<speed>0.3</speed>
<course>167.4</course>
<desc>Speed 0.3 km/h Distance 181 km</desc>
<time>2011-03-24T18:12:36.34</time>
<name>8434</name>
</trkpt>
<trkpt lat="49.575660" lon="8.662363">
<ele>160.5</ele>
<speed>0.5</speed>
<course>12.6</course>
<desc>Speed 0.5 km/h Distance 181 km</desc>
<time>2011-03-24T18:12:37.34</time>
<name>8435</name>
</trkpt>
<trkpt lat="49.575662" lon="8.662363">
<ele>160.5</ele>
<speed>0.5</speed>
<course>12.6</course>
<desc>Speed 0.5 km/h Distance 181 km</desc>
<time>2011-03-24T18:12:38.33</time>
<name>8436</name>
</trkpt>
<trkpt lat="49.575662" lon="8.662363">
<ele>160.5</ele>
<speed>0.2</speed>
<course>29.2</course>
<desc>Speed 0.2 km/h Distance 181 km</desc>
<time>2011-03-24T18:12:39.34</time>
<name>8437</name>
</trkpt>
<trkpt lat="49.575663" lon="8.662365">
<ele>160.5</ele>
<speed>0.5</speed>
<course>29.2</course>
<desc>Speed 0.5 km/h Distance 181 km</desc>
<time>2011-03-24T18:12:40.34</time>
<name>8438</name>
</trkpt>
<trkpt lat="49.575663" lon="8.662365">
<ele>160.5</ele>
<speed>0.2</speed>
<course>12.6</course>
<desc>Speed 0.2 km/h Distance 181 km</desc>
<time>2011-03-24T18:12:41.33</time>
<name>8439</name>
</trkpt>
<trkpt lat="49.575665" lon="8.662365">
<ele>160.5</ele>
<speed>0.2</speed>
<course>12.6</course>
<desc>Speed 0.2 km/h Distance 181 km</desc>
<time>2011-03-24T18:12:42.33</time>
<name>8440</name>
</trkpt>
<trkpt lat="49.575668" lon="8.662367">
<ele>160.5</ele>
<speed>0.6</speed>
<course>0.0</course>
<desc>Speed 0.6 km/h Distance 181 km</desc>
<time>2011-03-24T18:12:43.33</time>
<name>8441</name>
</trkpt>
<trkpt lat="49.575670" lon="8.662367">
<ele>160.5</ele>
<speed>0.4</speed>
<course>29.2</course>
<desc>Speed 0.4 km/h Distance 181 km</desc>
<time>2011-03-24T18:12:44.33</time>
<name>8442</name>
</trkpt>
<trkpt lat="49.575672" lon="8.662368">
<ele>160.5</ele>
<speed>0.2</speed>
<course>12.6</course>
<desc>Speed 0.2 km/h Distance 181 km</desc>
<time>2011-03-24T18:12:45.33</time>
<name>8443</name>
</trkpt>
<trkpt lat="49.575673" lon="8.662368">
<ele>160.5</ele>
<speed>0.4</speed>
<course>12.6</course>
<desc>Speed 0.4 km/h Distance 181 km</desc>
<time>2011-03-24T18:12:46.33</time>
<name>8444</name>
</trkpt>
<trkpt lat="49.575675" lon="8.662370">
<ele>160.5</ele>
<speed>0.4</speed>
<course>12.6</course>
<desc>Speed 0.4 km/h Distance 181 km</desc>
<time>2011-03-24T18:12:47.33</time>
<name>8445</name>
</trkpt>
<trkpt lat="49.575675" lon="8.662370">
<ele>160.5</ele>
<speed>0.3</speed>
<course>12.6</course>
<desc>Speed 0.3 km/h Distance 181 km</desc>
<time>2011-03-24T18:12:48.33</time>
<name>8446</name>
</trkpt>
<trkpt lat="49.575675" lon="8.662370">
<ele>160.5</ele>
<speed>0.1</speed>
<course>12.6</course>
<desc>Speed 0.1 km/h Distance 181 km</desc>
<time>2011-03-24T18:12:49.33</time>
<name>8447</name>
</trkpt>
<trkpt lat="49.575675" lon="8.662370">
<ele>160.5</ele>
<speed>0.3</speed>
<course>12.6</course>
<desc>Speed 0.3 km/h Distance 181 km</desc>
<time>2011-03-24T18:12:50.33</time>
<name>8448</name>
</trkpt>
<trkpt lat="49.575675" lon="8.662370">
<ele>160.5</ele>
<speed>0.6</speed>
<course>12.6</course>
<desc>Speed 0.6 km/h Distance 181 km</desc>
<time>2011-03-24T18:12:51.33</time>
<name>8449</name>
</trkpt>
<trkpt lat="49.575675" lon="8.662370">
<ele>160.5</ele>
<speed>0.4</speed>
<course>12.6</course>
<desc>Speed 0.4 km/h Distance 181 km</desc>
<time>2011-03-24T18:12:52.33</time>
<name>8450</name>
</trkpt>
<trkpt lat="49.575675" lon="8.662370">
<ele>160.5</ele>
<speed>0.5</speed>
<course>12.6</course>
<desc>Speed 0.5 km/h Distance 181 km</desc>
<time>2011-03-24T18:12:53.33</time>
<name>8451</name>
</trkpt>
<trkpt lat="49.575675" lon="8.662370">
<ele>160.5</ele>
<speed>0.1</speed>
<course>12.6</course>
<desc>Speed 0.1 km/h Distance 181 km</desc>
<time>2011-03-24T18:12:54.33</time>
<name>8452</name>
</trkpt>
<trkpt lat="49.575675" lon="8.662372">
<ele>160.5</ele>
<speed>0.4</speed>
<course>12.6</course>
<desc>Speed 0.4 km/h Distance 181 km</desc>
<time>2011-03-24T18:12:55.35</time>
<name>8453</name>
</trkpt>
<trkpt lat="49.575675" lon="8.662372">
<ele>160.0</ele>
<speed>0.3</speed>
<course>12.6</course>
<desc>Speed 0.3 km/h Distance 181 km</desc>
<time>2011-03-24T18:12:56.33</time>
<name>8454</name>
</trkpt>
<trkpt lat="49.575675" lon="8.662372">
<ele>160.0</ele>
<speed>0.4</speed>
<course>12.6</course>
<desc>Speed 0.4 km/h Distance 181 km</desc>
<time>2011-03-24T18:12:57.33</time>
<name>8455</name>
</trkpt>
<trkpt lat="49.575675" lon="8.662372">
<ele>160.0</ele>
<speed>0.3</speed>
<course>12.6</course>
<desc>Speed 0.3 km/h Distance 181 km</desc>
<time>2011-03-24T18:12:58.33</time>
<name>8456</name>
</trkpt>
<trkpt lat="49.575675" lon="8.662372">
<ele>160.0</ele>
<speed>0.5</speed>
<course>12.6</course>
<desc>Speed 0.5 km/h Distance 181 km</desc>
<time>2011-03-24T18:12:59.33</time>
<name>8457</name>
</trkpt>
<trkpt lat="49.575675" lon="8.662372">
<ele>160.0</ele>
<speed>0.4</speed>
<course>12.6</course>
<desc>Speed 0.4 km/h Distance 181 km</desc>
<time>2011-03-24T18:13:00.94</time>
<name>8458</name>
</trkpt>
<trkpt lat="49.575675" lon="8.662372">
<ele>160.0</ele>
<speed>0.5</speed>
<course>12.6</course>
<desc>Speed 0.5 km/h Distance 181 km</desc>
<time>2011-03-24T18:13:02.32</time>
<name>8459</name>
</trkpt>
<trkpt lat="49.575675" lon="8.662372">
<ele>160.0</ele>
<speed>0.4</speed>
<course>12.6</course>
<desc>Speed 0.4 km/h Distance 181 km</desc>
<time>2011-03-24T18:13:03.32</time>
<name>8460</name>
</trkpt>
<trkpt lat="49.575675" lon="8.662372">
<ele>160.0</ele>
<speed>0.4</speed>
<course>12.6</course>
<desc>Speed 0.4 km/h Distance 181 km</desc>
<time>2011-03-24T18:13:04.33</time>
<name>8461</name>
</trkpt>
<trkpt lat="49.575675" lon="8.662372">
<ele>160.0</ele>
<speed>0.4</speed>
<course>12.6</course>
<desc>Speed 0.4 km/h Distance 181 km</desc>
<time>2011-03-24T18:13:05.32</time>
<name>8462</name>
</trkpt>
<trkpt lat="49.575675" lon="8.662372">
<ele>160.0</ele>
<speed>0.3</speed>
<course>117.4</course>
<desc>Speed 0.3 km/h Distance 181 km</desc>
<time>2011-03-24T18:13:06.32</time>
<name>8463</name>
</trkpt>
<trkpt lat="49.575673" lon="8.662377">
<ele>160.0</ele>
<speed>0.8</speed>
<course>128.1</course>
<desc>Speed 0.8 km/h Distance 181 km</desc>
<time>2011-03-24T18:13:07.32</time>
<name>8464</name>
</trkpt>
<trkpt lat="49.575672" lon="8.662380">
<ele>159.5</ele>
<speed>0.3</speed>
<course>128.1</course>
<desc>Speed 0.3 km/h Distance 181 km</desc>
<time>2011-03-24T18:13:08.32</time>
<name>8465</name>
</trkpt>
<trkpt lat="49.575670" lon="8.662383">
<ele>159.5</ele>
<speed>0.6</speed>
<course>128.1</course>
<desc>Speed 0.6 km/h Distance 181 km</desc>
<time>2011-03-24T18:13:09.32</time>
<name>8466</name>
</trkpt>
<trkpt lat="49.575670" lon="8.662383">
<ele>159.5</ele>
<speed>0.2</speed>
<course>90.0</course>
<desc>Speed 0.2 km/h Distance 181 km</desc>
<time>2011-03-24T18:13:10.32</time>
<name>8467</name>
</trkpt>
<trkpt lat="49.575670" lon="8.662385">
<ele>159.0</ele>
<speed>0.5</speed>
<course>90.0</course>
<desc>Speed 0.5 km/h Distance 181 km</desc>
<time>2011-03-24T18:13:11.32</time>
<name>8468</name>
</trkpt>
<trkpt lat="49.575670" lon="8.662385">
<ele>159.0</ele>
<speed>0.2</speed>
<course>90.0</course>
<desc>Speed 0.2 km/h Distance 181 km</desc>
<time>2011-03-24T18:13:12.32</time>
<name>8469</name>
</trkpt>
<trkpt lat="49.575670" lon="8.662385">
<ele>159.0</ele>
<speed>0.4</speed>
<course>90.0</course>
<desc>Speed 0.4 km/h Distance 181 km</desc>
<time>2011-03-24T18:13:13.32</time>
<name>8470</name>
</trkpt>
<trkpt lat="49.575670" lon="8.662387">
<ele>159.0</ele>
<speed>0.4</speed>
<course>90.0</course>
<desc>Speed 0.4 km/h Distance 181 km</desc>
<time>2011-03-24T18:13:14.32</time>
<name>8471</name>
</trkpt>
<trkpt lat="49.575670" lon="8.662388">
<ele>159.0</ele>
<speed>0.4</speed>
<course>90.0</course>
<desc>Speed 0.4 km/h Distance 181 km</desc>
<time>2011-03-24T18:13:15.32</time>
<name>8472</name>
</trkpt>
<trkpt lat="49.575670" lon="8.662388">
<ele>159.0</ele>
<speed>0.3</speed>
<course>12.6</course>
<desc>Speed 0.3 km/h Distance 181 km</desc>
<time>2011-03-24T18:13:16.32</time>
<name>8473</name>
</trkpt>
<trkpt lat="49.575672" lon="8.662388">
<ele>159.0</ele>
<speed>0.5</speed>
<course>12.6</course>
<desc>Speed 0.5 km/h Distance 181 km</desc>
<time>2011-03-24T18:13:17.32</time>
<name>8474</name>
</trkpt>
<trkpt lat="49.575672" lon="8.662388">
<ele>159.0</ele>
<speed>0.3</speed>
<course>12.6</course>
<desc>Speed 0.3 km/h Distance 181 km</desc>
<time>2011-03-24T18:13:18.32</time>
<name>8475</name>
</trkpt>
<trkpt lat="49.575672" lon="8.662388">
<ele>159.0</ele>
<speed>0.4</speed>
<course>90.0</course>
<desc>Speed 0.4 km/h Distance 181 km</desc>
<time>2011-03-24T18:13:19.32</time>
<name>8476</name>
</trkpt>
<trkpt lat="49.575672" lon="8.662390">
<ele>159.0</ele>
<speed>0.4</speed>
<course>12.6</course>
<desc>Speed 0.4 km/h Distance 181 km</desc>
<time>2011-03-24T18:13:20.32</time>
<name>8477</name>
</trkpt>
<trkpt lat="49.575673" lon="8.662390">
<ele>159.0</ele>
<speed>0.4</speed>
<course>12.6</course>
<desc>Speed 0.4 km/h Distance 181 km</desc>
<time>2011-03-24T18:13:21.32</time>
<name>8478</name>
</trkpt>
<trkpt lat="49.575673" lon="8.662390">
<ele>158.5</ele>
<speed>0.4</speed>
<course>12.6</course>
<desc>Speed 0.4 km/h Distance 181 km</desc>
<time>2011-03-24T18:13:22.32</time>
<name>8479</name>
</trkpt>
<trkpt lat="49.575673" lon="8.662390">
<ele>158.5</ele>
<speed>0.4</speed>
<course>12.6</course>
<desc>Speed 0.4 km/h Distance 181 km</desc>
<time>2011-03-24T18:13:23.31</time>
<name>8480</name>
</trkpt>
<trkpt lat="49.575673" lon="8.662390">
<ele>158.5</ele>
<speed>0.4</speed>
<course>12.6</course>
<desc>Speed 0.4 km/h Distance 181 km</desc>
<time>2011-03-24T18:13:24.31</time>
<name>8481</name>
</trkpt>
<trkpt lat="49.575673" lon="8.662390">
<ele>158.5</ele>
<speed>0.3</speed>
<course>12.6</course>
<desc>Speed 0.3 km/h Distance 181 km</desc>
<time>2011-03-24T18:13:25.31</time>
<name>8482</name>
</trkpt>
<trkpt lat="49.575673" lon="8.662390">
<ele>158.5</ele>
<speed>0.4</speed>
<course>0.0</course>
<desc>Speed 0.4 km/h Distance 181 km</desc>
<time>2011-03-24T18:13:26.31</time>
<name>8483</name>
</trkpt>
<trkpt lat="49.575675" lon="8.662390">
<ele>158.5</ele>
<speed>0.4</speed>
<course>0.0</course>
<desc>Speed 0.4 km/h Distance 181 km</desc>
<time>2011-03-24T18:13:27.31</time>
<name>8484</name>
</trkpt>
<trkpt lat="49.575675" lon="8.662390">
<ele>158.5</ele>
<speed>0.4</speed>
<course>0.0</course>
<desc>Speed 0.4 km/h Distance 181 km</desc>
<time>2011-03-24T18:13:28.31</time>
<name>8485</name>
</trkpt>
<trkpt lat="49.575675" lon="8.662390">
<ele>158.5</ele>
<speed>0.3</speed>
<course>0.0</course>
<desc>Speed 0.3 km/h Distance 181 km</desc>
<time>2011-03-24T18:13:29.31</time>
<name>8486</name>
</trkpt>
<trkpt lat="49.575675" lon="8.662390">
<ele>158.5</ele>
<speed>0.3</speed>
<course>0.0</course>
<desc>Speed 0.3 km/h Distance 181 km</desc>
<time>2011-03-24T18:13:30.32</time>
<name>8487</name>
</trkpt>
<trkpt lat="49.575675" lon="8.662390">
<ele>158.5</ele>
<speed>0.3</speed>
<course>0.0</course>
<desc>Speed 0.3 km/h Distance 181 km</desc>
<time>2011-03-24T18:13:31.31</time>
<name>8488</name>
</trkpt>
<trkpt lat="49.575677" lon="8.662390">
<ele>158.5</ele>
<speed>0.3</speed>
<course>0.0</course>
<desc>Speed 0.3 km/h Distance 181 km</desc>
<time>2011-03-24T18:13:32.31</time>
<name>8489</name>
</trkpt>
<trkpt lat="49.575677" lon="8.662390">
<ele>158.5</ele>
<speed>0.5</speed>
<course>0.0</course>
<desc>Speed 0.5 km/h Distance 181 km</desc>
<time>2011-03-24T18:13:33.31</time>
<name>8490</name>
</trkpt>
<trkpt lat="49.575677" lon="8.662390">
<ele>158.5</ele>
<speed>0.4</speed>
<course>0.0</course>
<desc>Speed 0.4 km/h Distance 181 km</desc>
<time>2011-03-24T18:13:34.32</time>
<name>8491</name>
</trkpt>
<trkpt lat="49.575677" lon="8.662390">
<ele>158.5</ele>
<speed>0.5</speed>
<course>0.0</course>
<desc>Speed 0.5 km/h Distance 181 km</desc>
<time>2011-03-24T18:13:35.31</time>
<name>8492</name>
</trkpt>
<trkpt lat="49.575677" lon="8.662390">
<ele>158.5</ele>
<speed>0.3</speed>
<course>0.0</course>
<desc>Speed 0.3 km/h Distance 181 km</desc>
<time>2011-03-24T18:13:36.31</time>
<name>8493</name>
</trkpt>
<trkpt lat="49.575677" lon="8.662390">
<ele>158.5</ele>
<speed>0.2</speed>
<course>0.0</course>
<desc>Speed 0.2 km/h Distance 181 km</desc>
<time>2011-03-24T18:13:37.31</time>
<name>8494</name>
</trkpt>
<trkpt lat="49.575677" lon="8.662390">
<ele>158.5</ele>
<speed>0.3</speed>
<course>12.6</course>
<desc>Speed 0.3 km/h Distance 181 km</desc>
<time>2011-03-24T18:13:38.31</time>
<name>8495</name>
</trkpt>
<trkpt lat="49.575678" lon="8.662390">
<ele>158.5</ele>
<speed>0.4</speed>
<course>12.6</course>
<desc>Speed 0.4 km/h Distance 181 km</desc>
<time>2011-03-24T18:13:39.31</time>
<name>8496</name>
</trkpt>
<trkpt lat="49.575678" lon="8.662390">
<ele>158.5</ele>
<speed>0.3</speed>
<course>12.6</course>
<desc>Speed 0.3 km/h Distance 181 km</desc>
<time>2011-03-24T18:13:40.31</time>
<name>8497</name>
</trkpt>
<trkpt lat="49.575678" lon="8.662390">
<ele>158.5</ele>
<speed>0.3</speed>
<course>117.4</course>
<desc>Speed 0.3 km/h Distance 181 km</desc>
<time>2011-03-24T18:13:41.31</time>
<name>8498</name>
</trkpt>
<trkpt lat="49.575677" lon="8.662395">
<ele>158.5</ele>
<speed>1.0</speed>
<course>130.6</course>
<desc>Speed 1.0 km/h Distance 181 km</desc>
<time>2011-03-24T18:13:42.31</time>
<name>8499</name>
</trkpt>
<trkpt lat="49.575675" lon="8.662398">
<ele>158.5</ele>
<speed>1.3</speed>
<course>288.3</course>
<desc>Speed 1.3 km/h Distance 181 km</desc>
<time>2011-03-24T18:13:43.31</time>
<name>8500</name>
</trkpt>
<trkpt lat="49.575680" lon="8.662375">
<ele>158.5</ele>
<speed>6.6</speed>
<course>287.1</course>
<desc>Speed 6.6 km/h Distance 181 km</desc>
<time>2011-03-24T18:13:44.31</time>
<name>8501</name>
</trkpt>
<trkpt lat="49.575682" lon="8.662367">
<ele>158.5</ele>
<speed>2.4</speed>
<course>12.6</course>
<desc>Speed 2.4 km/h Distance 181 km</desc>
<time>2011-03-24T18:13:45.30</time>
<name>8502</name>
</trkpt>
<trkpt lat="49.575683" lon="8.662368">
<ele>158.5</ele>
<speed>0.4</speed>
<course>37.2</course>
<desc>Speed 0.4 km/h Distance 181 km</desc>
<time>2011-03-24T18:13:46.31</time>
<name>8503</name>
</trkpt>
<trkpt lat="49.575685" lon="8.662370">
<ele>158.0</ele>
<speed>0.4</speed>
<course>306.1</course>
<desc>Speed 0.4 km/h Distance 181 km</desc>
<time>2011-03-24T18:13:47.31</time>
<name>8504</name>
</trkpt>
<trkpt lat="49.575687" lon="8.662367">
<ele>158.0</ele>
<speed>1.4</speed>
<course>90.0</course>
<desc>Speed 1.4 km/h Distance 181 km</desc>
<time>2011-03-24T18:13:48.31</time>
<name>8505</name>
</trkpt>
<trkpt lat="49.575687" lon="8.662370">
<ele>158.0</ele>
<speed>0.6</speed>
<course>90.0</course>
<desc>Speed 0.6 km/h Distance 181 km</desc>
<time>2011-03-24T18:13:49.31</time>
<name>8506</name>
</trkpt>
<trkpt lat="49.575687" lon="8.662372">
<ele>158.0</ele>
<speed>0.5</speed>
<course>110.9</course>
<desc>Speed 0.5 km/h Distance 181 km</desc>
<time>2011-03-24T18:13:50.31</time>
<name>8507</name>
</trkpt>
<trkpt lat="49.575685" lon="8.662378">
<ele>158.0</ele>
<speed>1.6</speed>
<course>37.2</course>
<desc>Speed 1.6 km/h Distance 181 km</desc>
<time>2011-03-24T18:13:51.30</time>
<name>8508</name>
</trkpt>
<trkpt lat="49.575687" lon="8.662380">
<ele>158.0</ele>
<speed>0.5</speed>
<course>90.0</course>
<desc>Speed 0.5 km/h Distance 181 km</desc>
<time>2011-03-24T18:13:52.30</time>
<name>8509</name>
</trkpt>
<trkpt lat="49.575687" lon="8.662382">
<ele>158.0</ele>
<speed>0.5</speed>
<course>99.2</course>
<desc>Speed 0.5 km/h Distance 181 km</desc>
<time>2011-03-24T18:13:53.30</time>
<name>8510</name>
</trkpt>
<trkpt lat="49.575683" lon="8.662413">
<ele>157.5</ele>
<speed>0.5</speed>
<course>104.6</course>
<desc>Speed 0.5 km/h Distance 181 km</desc>
<time>2011-03-24T18:13:54.30</time>
<name>8511</name>
</trkpt>
<trkpt lat="49.575682" lon="8.662423">
<ele>157.5</ele>
<speed>0.9</speed>
<course>117.4</course>
<desc>Speed 0.9 km/h Distance 181 km</desc>
<time>2011-03-24T18:13:55.32</time>
<name>8512</name>
</trkpt>
<trkpt lat="49.575680" lon="8.662428">
<ele>157.0</ele>
<speed>0.6</speed>
<course>104.4</course>
<desc>Speed 0.6 km/h Distance 181 km</desc>
<time>2011-03-24T18:13:56.30</time>
<name>8513</name>
</trkpt>
<trkpt lat="49.575678" lon="8.662438">
<ele>157.0</ele>
<speed>0.7</speed>
<course>90.0</course>
<desc>Speed 0.7 km/h Distance 181 km</desc>
<time>2011-03-24T18:13:57.30</time>
<name>8514</name>
</trkpt>
<trkpt lat="49.575678" lon="8.662440">
<ele>157.0</ele>
<speed>0.4</speed>
<course>90.0</course>
<desc>Speed 0.4 km/h Distance 181 km</desc>
<time>2011-03-24T18:13:58.30</time>
<name>8515</name>
</trkpt>
<trkpt lat="49.575678" lon="8.662442">
<ele>157.0</ele>
<speed>0.5</speed>
<course>90.0</course>
<desc>Speed 0.5 km/h Distance 181 km</desc>
<time>2011-03-24T18:13:59.30</time>
<name>8516</name>
</trkpt>
<trkpt lat="49.575678" lon="8.662442">
<ele>157.0</ele>
<speed>0.3</speed>
<course>90.0</course>
<desc>Speed 0.3 km/h Distance 181 km</desc>
<time>2011-03-24T18:14:00.31</time>
<name>8517</name>
</trkpt>
<trkpt lat="49.575678" lon="8.662445">
<ele>157.0</ele>
<speed>0.6</speed>
<course>90.0</course>
<desc>Speed 0.6 km/h Distance 181 km</desc>
<time>2011-03-24T18:14:01.30</time>
<name>8518</name>
</trkpt>
<trkpt lat="49.575678" lon="8.662447">
<ele>157.0</ele>
<speed>0.1</speed>
<course>37.2</course>
<desc>Speed 0.1 km/h Distance 181 km</desc>
<time>2011-03-24T18:14:02.30</time>
<name>8519</name>
</trkpt>
<trkpt lat="49.575680" lon="8.662448">
<ele>157.0</ele>
<speed>0.2</speed>
<course>37.2</course>
<desc>Speed 0.2 km/h Distance 181 km</desc>
<time>2011-03-24T18:14:03.30</time>
<name>8520</name>
</trkpt>
<trkpt lat="49.575680" lon="8.662448">
<ele>157.0</ele>
<speed>0.4</speed>
<course>90.0</course>
<desc>Speed 0.4 km/h Distance 181 km</desc>
<time>2011-03-24T18:14:04.30</time>
<name>8521</name>
</trkpt>
<trkpt lat="49.575680" lon="8.662450">
<ele>157.0</ele>
<speed>0.4</speed>
<course>90.0</course>
<desc>Speed 0.4 km/h Distance 181 km</desc>
<time>2011-03-24T18:14:05.30</time>
<name>8522</name>
</trkpt>
<trkpt lat="49.575680" lon="8.662450">
<ele>157.0</ele>
<speed>0.5</speed>
<course>90.0</course>
<desc>Speed 0.5 km/h Distance 181 km</desc>
<time>2011-03-24T18:14:06.30</time>
<name>8523</name>
</trkpt>
<trkpt lat="49.575680" lon="8.662452">
<ele>157.0</ele>
<speed>0.3</speed>
<course>330.8</course>
<desc>Speed 0.3 km/h Distance 181 km</desc>
<time>2011-03-24T18:14:07.30</time>
<name>8524</name>
</trkpt>
<trkpt lat="49.575682" lon="8.662450">
<ele>157.0</ele>
<speed>0.3</speed>
<course>330.8</course>
<desc>Speed 0.3 km/h Distance 181 km</desc>
<time>2011-03-24T18:14:08.30</time>
<name>8525</name>
</trkpt>
<trkpt lat="49.575682" lon="8.662448">
<ele>157.0</ele>
<speed>0.6</speed>
<course>330.8</course>
<desc>Speed 0.6 km/h Distance 181 km</desc>
<time>2011-03-24T18:14:09.30</time>
<name>8526</name>
</trkpt>
<trkpt lat="49.575682" lon="8.662447">
<ele>157.0</ele>
<speed>0.4</speed>
<course>330.8</course>
<desc>Speed 0.4 km/h Distance 181 km</desc>
<time>2011-03-24T18:14:10.30</time>
<name>8527</name>
</trkpt>
<trkpt lat="49.575682" lon="8.662445">
<ele>157.0</ele>
<speed>0.4</speed>
<course>330.8</course>
<desc>Speed 0.4 km/h Distance 181 km</desc>
<time>2011-03-24T18:14:11.30</time>
<name>8528</name>
</trkpt>
<trkpt lat="49.575682" lon="8.662445">
<ele>157.0</ele>
<speed>0.5</speed>
<course>330.8</course>
<desc>Speed 0.5 km/h Distance 181 km</desc>
<time>2011-03-24T18:14:12.29</time>
<name>8529</name>
</trkpt>
<trkpt lat="49.575682" lon="8.662447">
<ele>157.0</ele>
<speed>0.4</speed>
<course>291.6</course>
<desc>Speed 0.4 km/h Distance 181 km</desc>
<time>2011-03-24T18:14:13.29</time>
<name>8530</name>
</trkpt>
<trkpt lat="49.575683" lon="8.662440">
<ele>157.5</ele>
<speed>0.2</speed>
<course>270.0</course>
<desc>Speed 0.2 km/h Distance 181 km</desc>
<time>2011-03-24T18:14:14.29</time>
<name>8531</name>
</trkpt>
<trkpt lat="49.575683" lon="8.662435">
<ele>157.5</ele>
<speed>0.5</speed>
<course>270.0</course>
<desc>Speed 0.5 km/h Distance 181 km</desc>
<time>2011-03-24T18:14:15.30</time>
<name>8532</name>
</trkpt>
<trkpt lat="49.575683" lon="8.662435">
<ele>157.5</ele>
<speed>0.5</speed>
<course>270.0</course>
<desc>Speed 0.5 km/h Distance 181 km</desc>
<time>2011-03-24T18:14:16.30</time>
<name>8533</name>
</trkpt>
<trkpt lat="49.575683" lon="8.662433">
<ele>157.5</ele>
<speed>0.3</speed>
<course>270.0</course>
<desc>Speed 0.3 km/h Distance 181 km</desc>
<time>2011-03-24T18:14:17.29</time>
<name>8534</name>
</trkpt>
<trkpt lat="49.575683" lon="8.662433">
<ele>157.5</ele>
<speed>0.1</speed>
<course>270.0</course>
<desc>Speed 0.1 km/h Distance 181 km</desc>
<time>2011-03-24T18:14:18.30</time>
<name>8535</name>
</trkpt>
<trkpt lat="49.575683" lon="8.662435">
<ele>157.5</ele>
<speed>0.5</speed>
<course>270.0</course>
<desc>Speed 0.5 km/h Distance 181 km</desc>
<time>2011-03-24T18:14:19.29</time>
<name>8536</name>
</trkpt>
<trkpt lat="49.575683" lon="8.662435">
<ele>157.5</ele>
<speed>0.4</speed>
<course>132.6</course>
<desc>Speed 0.4 km/h Distance 181 km</desc>
<time>2011-03-24T18:14:20.30</time>
<name>8537</name>
</trkpt>
<trkpt lat="49.575678" lon="8.662443">
<ele>157.0</ele>
<speed>1.3</speed>
<course>119.3</course>
<desc>Speed 1.3 km/h Distance 181 km</desc>
<time>2011-03-24T18:14:21.30</time>
<name>8538</name>
</trkpt>
<trkpt lat="49.575672" lon="8.662462">
<ele>156.0</ele>
<speed>3.0</speed>
<course>270.0</course>
<desc>Speed 3.0 km/h Distance 181 km</desc>
<time>2011-03-24T18:14:22.29</time>
<name>8539</name>
</trkpt>
<trkpt lat="49.575672" lon="8.662455">
<ele>156.0</ele>
<speed>2.0</speed>
<course>90.0</course>
<desc>Speed 2.0 km/h Distance 181 km</desc>
<time>2011-03-24T18:14:23.30</time>
<name>8540</name>
</trkpt>
<trkpt lat="49.575672" lon="8.662458">
<ele>155.5</ele>
<speed>0.5</speed>
<course>125.0</course>
<desc>Speed 0.5 km/h Distance 181 km</desc>
<time>2011-03-24T18:14:24.29</time>
<name>8541</name>
</trkpt>
<trkpt lat="49.575663" lon="8.662477">
<ele>155.0</ele>
<speed>3.0</speed>
<course>113.8</course>
<desc>Speed 3.0 km/h Distance 181 km</desc>
<time>2011-03-24T18:14:25.29</time>
<name>8542</name>
</trkpt>
<trkpt lat="49.575657" lon="8.662500">
<ele>153.5</ele>
<speed>4.8</speed>
<course>127.6</course>
<desc>Speed 4.8 km/h Distance 181 km</desc>
<time>2011-03-24T18:14:26.29</time>
<name>8543</name>
</trkpt>
<trkpt lat="49.575650" lon="8.662513">
<ele>153.0</ele>
<speed>2.3</speed>
<course>270.0</course>
<desc>Speed 2.3 km/h Distance 181 km</desc>
<time>2011-03-24T18:14:27.29</time>
<name>8544</name>
</trkpt>
<trkpt lat="49.575650" lon="8.662508">
<ele>153.0</ele>
<speed>0.9</speed>
<course>180.0</course>
<desc>Speed 0.9 km/h Distance 181 km</desc>
<time>2011-03-24T18:14:28.29</time>
<name>8545</name>
</trkpt>
<trkpt lat="49.575648" lon="8.662508">
<ele>153.0</ele>
<speed>0.4</speed>
<course>90.0</course>
<desc>Speed 0.4 km/h Distance 181 km</desc>
<time>2011-03-24T18:14:29.29</time>
<name>8546</name>
</trkpt>
<trkpt lat="49.575648" lon="8.662510">
<ele>152.5</ele>
<speed>0.4</speed>
<course>132.9</course>
<desc>Speed 0.4 km/h Distance 181 km</desc>
<time>2011-03-24T18:14:30.29</time>
<name>8547</name>
</trkpt>
<trkpt lat="49.575643" lon="8.662518">
<ele>152.5</ele>
<speed>1.3</speed>
<course>144.5</course>
<desc>Speed 1.3 km/h Distance 181 km</desc>
<time>2011-03-24T18:14:31.29</time>
<name>8548</name>
</trkpt>
<trkpt lat="49.575640" lon="8.662522">
<ele>152.0</ele>
<speed>1.0</speed>
<course>130.0</course>
<desc>Speed 1.0 km/h Distance 181 km</desc>
<time>2011-03-24T18:14:32.29</time>
<name>8549</name>
</trkpt>
<trkpt lat="49.575630" lon="8.662540">
<ele>151.0</ele>
<speed>3.0</speed>
<course>126.1</course>
<desc>Speed 3.0 km/h Distance 181 km</desc>
<time>2011-03-24T18:14:33.29</time>
<name>8550</name>
</trkpt>
<trkpt lat="49.575628" lon="8.662543">
<ele>150.5</ele>
<speed>0.9</speed>
<course>231.9</course>
<desc>Speed 0.9 km/h Distance 181 km</desc>
<time>2011-03-24T18:14:34.29</time>
<name>8551</name>
</trkpt>
<trkpt lat="49.575627" lon="8.662540">
<ele>150.5</ele>
<speed>1.0</speed>
<course>270.0</course>
<desc>Speed 1.0 km/h Distance 181 km</desc>
<time>2011-03-24T18:14:35.29</time>
<name>8552</name>
</trkpt>
<trkpt lat="49.575627" lon="8.662537">
<ele>150.5</ele>
<speed>0.6</speed>
<course>270.0</course>
<desc>Speed 0.6 km/h Distance 181 km</desc>
<time>2011-03-24T18:14:36.29</time>
<name>8553</name>
</trkpt>
<trkpt lat="49.575627" lon="8.662537">
<ele>150.5</ele>
<speed>0.8</speed>
<course>280.9</course>
<desc>Speed 0.8 km/h Distance 181 km</desc>
<time>2011-03-24T18:14:37.29</time>
<name>8554</name>
</trkpt>
<trkpt lat="49.575628" lon="8.662523">
<ele>151.0</ele>
<speed>0.4</speed>
<course>291.1</course>
<desc>Speed 0.4 km/h Distance 181 km</desc>
<time>2011-03-24T18:14:38.29</time>
<name>8555</name>
</trkpt>
<trkpt lat="49.575632" lon="8.662510">
<ele>152.0</ele>
<speed>1.1</speed>
<course>291.3</course>
<desc>Speed 1.1 km/h Distance 181 km</desc>
<time>2011-03-24T18:14:39.29</time>
<name>8556</name>
</trkpt>
<trkpt lat="49.575633" lon="8.662503">
<ele>152.5</ele>
<speed>0.5</speed>
<course>270.0</course>
<desc>Speed 0.5 km/h Distance 181 km</desc>
<time>2011-03-24T18:14:40.29</time>
<name>8557</name>
</trkpt>
<trkpt lat="49.575633" lon="8.662500">
<ele>152.5</ele>
<speed>0.4</speed>
<course>128.1</course>
<desc>Speed 0.4 km/h Distance 181 km</desc>
<time>2011-03-24T18:14:41.29</time>
<name>8558</name>
</trkpt>
<trkpt lat="49.575632" lon="8.662503">
<ele>152.0</ele>
<speed>1.7</speed>
<course>128.1</course>
<desc>Speed 1.7 km/h Distance 181 km</desc>
<time>2011-03-24T18:14:42.29</time>
<name>8559</name>
</trkpt>
<trkpt lat="49.575628" lon="8.662510">
<ele>152.0</ele>
<speed>2.6</speed>
<course>117.4</course>
<desc>Speed 2.6 km/h Distance 181 km</desc>
<time>2011-03-24T18:14:43.29</time>
<name>8560</name>
</trkpt>
<trkpt lat="49.575627" lon="8.662515">
<ele>151.5</ele>
<speed>2.0</speed>
<course>209.2</course>
<desc>Speed 2.0 km/h Distance 181 km</desc>
<time>2011-03-24T18:14:44.28</time>
<name>8561</name>
</trkpt>
<trkpt lat="49.575625" lon="8.662513">
<ele>152.0</ele>
<speed>1.3</speed>
<course>130.6</course>
<desc>Speed 1.3 km/h Distance 181 km</desc>
<time>2011-03-24T18:14:45.29</time>
<name>8562</name>
</trkpt>
<trkpt lat="49.575623" lon="8.662517">
<ele>151.5</ele>
<speed>3.0</speed>
<course>128.1</course>
<desc>Speed 3.0 km/h Distance 181 km</desc>
<time>2011-03-24T18:14:46.28</time>
<name>8563</name>
</trkpt>
<trkpt lat="49.575622" lon="8.662520">
<ele>151.5</ele>
<speed>2.0</speed>
<course>297.4</course>
<desc>Speed 2.0 km/h Distance 181 km</desc>
<time>2011-03-24T18:14:47.28</time>
<name>8564</name>
</trkpt>
<trkpt lat="49.575623" lon="8.662515">
<ele>151.5</ele>
<speed>0.3</speed>
<course>128.1</course>
<desc>Speed 0.3 km/h Distance 181 km</desc>
<time>2011-03-24T18:14:48.28</time>
<name>8565</name>
</trkpt>
<trkpt lat="49.575622" lon="8.662518">
<ele>151.0</ele>
<speed>1.2</speed>
<course>128.1</course>
<desc>Speed 1.2 km/h Distance 181 km</desc>
<time>2011-03-24T18:14:49.28</time>
<name>8566</name>
</trkpt>
<trkpt lat="49.575622" lon="8.662518">
<ele>151.0</ele>
<speed>0.4</speed>
<course>270.0</course>
<desc>Speed 0.4 km/h Distance 181 km</desc>
<time>2011-03-24T18:14:50.28</time>
<name>8567</name>
</trkpt>
<trkpt lat="49.575622" lon="8.662515">
<ele>151.5</ele>
<speed>0.5</speed>
<course>12.6</course>
<desc>Speed 0.5 km/h Distance 181 km</desc>
<time>2011-03-24T18:14:51.28</time>
<name>8568</name>
</trkpt>
<trkpt lat="49.575623" lon="8.662515">
<ele>151.5</ele>
<speed>0.6</speed>
<course>298.3</course>
<desc>Speed 0.6 km/h Distance 181 km</desc>
<time>2011-03-24T18:14:52.28</time>
<name>8569</name>
</trkpt>
<trkpt lat="49.575625" lon="8.662510">
<ele>151.5</ele>
<speed>0.5</speed>
<course>270.0</course>
<desc>Speed 0.5 km/h Distance 181 km</desc>
<time>2011-03-24T18:14:53.28</time>
<name>8570</name>
</trkpt>
<trkpt lat="49.575625" lon="8.662507">
<ele>151.5</ele>
<speed>0.7</speed>
<course>167.4</course>
<desc>Speed 0.7 km/h Distance 181 km</desc>
<time>2011-03-24T18:14:54.28</time>
<name>8571</name>
</trkpt>
<trkpt lat="49.575623" lon="8.662508">
<ele>151.5</ele>
<speed>1.2</speed>
<course>0.0</course>
<desc>Speed 1.2 km/h Distance 181 km</desc>
<time>2011-03-24T18:14:55.30</time>
<name>8572</name>
</trkpt>
<trkpt lat="49.575625" lon="8.662508">
<ele>151.5</ele>
<speed>0.7</speed>
<course>167.4</course>
<desc>Speed 0.7 km/h Distance 181 km</desc>
<time>2011-03-24T18:14:56.28</time>
<name>8573</name>
</trkpt>
<trkpt lat="49.575623" lon="8.662510">
<ele>151.0</ele>
<speed>0.7</speed>
<course>167.4</course>
<desc>Speed 0.7 km/h Distance 181 km</desc>
<time>2011-03-24T18:14:57.28</time>
<name>8574</name>
</trkpt>
<trkpt lat="49.575623" lon="8.662512">
<ele>151.0</ele>
<speed>0.1</speed>
<course>167.4</course>
<desc>Speed 0.1 km/h Distance 181 km</desc>
<time>2011-03-24T18:14:58.28</time>
<name>8575</name>
</trkpt>
<trkpt lat="49.575623" lon="8.662513">
<ele>151.0</ele>
<speed>0.4</speed>
<course>135.5</course>
<desc>Speed 0.4 km/h Distance 181 km</desc>
<time>2011-03-24T18:14:59.28</time>
<name>8576</name>
</trkpt>
<trkpt lat="49.575620" lon="8.662518">
<ele>150.5</ele>
<speed>1.3</speed>
<course>270.0</course>
<desc>Speed 1.3 km/h Distance 181 km</desc>
<time>2011-03-24T18:15:00.28</time>
<name>8577</name>
</trkpt>
<trkpt lat="49.575620" lon="8.662517">
<ele>150.5</ele>
<speed>0.6</speed>
<course>128.1</course>
<desc>Speed 0.6 km/h Distance 181 km</desc>
<time>2011-03-24T18:15:01.28</time>
<name>8578</name>
</trkpt>
<trkpt lat="49.575618" lon="8.662520">
<ele>150.0</ele>
<speed>0.6</speed>
<course>110.9</course>
<desc>Speed 0.6 km/h Distance 181 km</desc>
<time>2011-03-24T18:15:02.28</time>
<name>8579</name>
</trkpt>
<trkpt lat="49.575617" lon="8.662527">
<ele>149.5</ele>
<speed>1.3</speed>
<course>128.1</course>
<desc>Speed 1.3 km/h Distance 181 km</desc>
<time>2011-03-24T18:15:03.27</time>
<name>8580</name>
</trkpt>
<trkpt lat="49.575615" lon="8.662530">
<ele>149.0</ele>
<speed>0.8</speed>
<course>270.0</course>
<desc>Speed 0.8 km/h Distance 181 km</desc>
<time>2011-03-24T18:15:04.28</time>
<name>8581</name>
</trkpt>
<trkpt lat="49.575615" lon="8.662528">
<ele>149.0</ele>
<speed>0.3</speed>
<course>270.0</course>
<desc>Speed 0.3 km/h Distance 181 km</desc>
<time>2011-03-24T18:15:05.28</time>
<name>8582</name>
</trkpt>
<trkpt lat="49.575615" lon="8.662528">
<ele>149.0</ele>
<speed>0.5</speed>
<course>128.1</course>
<desc>Speed 0.5 km/h Distance 181 km</desc>
<time>2011-03-24T18:15:06.28</time>
<name>8583</name>
</trkpt>
<trkpt lat="49.575613" lon="8.662532">
<ele>148.5</ele>
<speed>0.5</speed>
<course>128.1</course>
<desc>Speed 0.5 km/h Distance 181 km</desc>
<time>2011-03-24T18:15:07.28</time>
<name>8584</name>
</trkpt>
<trkpt lat="49.575613" lon="8.662532">
<ele>148.5</ele>
<speed>0.6</speed>
<course>90.0</course>
<desc>Speed 0.6 km/h Distance 181 km</desc>
<time>2011-03-24T18:15:08.28</time>
<name>8585</name>
</trkpt>
<trkpt lat="49.575613" lon="8.662533">
<ele>148.5</ele>
<speed>0.6</speed>
<course>0.0</course>
<desc>Speed 0.6 km/h Distance 181 km</desc>
<time>2011-03-24T18:15:09.27</time>
<name>8586</name>
</trkpt>
<trkpt lat="49.575615" lon="8.662533">
<ele>148.5</ele>
<speed>0.7</speed>
<course>90.0</course>
<desc>Speed 0.7 km/h Distance 181 km</desc>
<time>2011-03-24T18:15:10.27</time>
<name>8587</name>
</trkpt>
<trkpt lat="49.575615" lon="8.662535">
<ele>148.5</ele>
<speed>0.5</speed>
<course>90.0</course>
<desc>Speed 0.5 km/h Distance 181 km</desc>
<time>2011-03-24T18:15:11.27</time>
<name>8588</name>
</trkpt>
<trkpt lat="49.575615" lon="8.662535">
<ele>148.5</ele>
<speed>0.4</speed>
<course>90.0</course>
<desc>Speed 0.4 km/h Distance 181 km</desc>
<time>2011-03-24T18:15:12.27</time>
<name>8589</name>
</trkpt>
<trkpt lat="49.575615" lon="8.662537">
<ele>148.0</ele>
<speed>0.3</speed>
<course>90.0</course>
<desc>Speed 0.3 km/h Distance 181 km</desc>
<time>2011-03-24T18:15:13.27</time>
<name>8590</name>
</trkpt>
<trkpt lat="49.575615" lon="8.662538">
<ele>148.0</ele>
<speed>0.3</speed>
<course>127.9</course>
<desc>Speed 0.3 km/h Distance 181 km</desc>
<time>2011-03-24T18:15:14.27</time>
<name>8591</name>
</trkpt>
<trkpt lat="49.575610" lon="8.662548">
<ele>147.5</ele>
<speed>1.7</speed>
<course>117.4</course>
<desc>Speed 1.7 km/h Distance 181 km</desc>
<time>2011-03-24T18:15:15.27</time>
<name>8592</name>
</trkpt>
<trkpt lat="49.575608" lon="8.662553">
<ele>147.0</ele>
<speed>0.1</speed>
<course>90.0</course>
<desc>Speed 0.1 km/h Distance 181 km</desc>
<time>2011-03-24T18:15:16.27</time>
<name>8593</name>
</trkpt>
<trkpt lat="49.575608" lon="8.662555">
<ele>147.0</ele>
<speed>0.4</speed>
<course>90.0</course>
<desc>Speed 0.4 km/h Distance 181 km</desc>
<time>2011-03-24T18:15:17.27</time>
<name>8594</name>
</trkpt>
<trkpt lat="49.575608" lon="8.662557">
<ele>147.0</ele>
<speed>0.4</speed>
<course>90.0</course>
<desc>Speed 0.4 km/h Distance 181 km</desc>
<time>2011-03-24T18:15:18.27</time>
<name>8595</name>
</trkpt>
<trkpt lat="49.575608" lon="8.662558">
<ele>147.0</ele>
<speed>0.4</speed>
<course>12.6</course>
<desc>Speed 0.4 km/h Distance 181 km</desc>
<time>2011-03-24T18:15:19.28</time>
<name>8596</name>
</trkpt>
<trkpt lat="49.575610" lon="8.662558">
<ele>147.0</ele>
<speed>0.4</speed>
<course>12.6</course>
<desc>Speed 0.4 km/h Distance 181 km</desc>
<time>2011-03-24T18:15:20.27</time>
<name>8597</name>
</trkpt>
<trkpt lat="49.575610" lon="8.662557">
<ele>147.0</ele>
<speed>0.4</speed>
<course>293.9</course>
<desc>Speed 0.4 km/h Distance 181 km</desc>
<time>2011-03-24T18:15:22.29</time>
<name>8598</name>
</trkpt>
<trkpt lat="49.575613" lon="8.662545">
<ele>147.5</ele>
<speed>0.4</speed>
<course>315.5</course>
<desc>Speed 0.4 km/h Distance 181 km</desc>
<time>2011-03-24T18:15:23.59</time>
<name>8599</name>
</trkpt>
<trkpt lat="49.575617" lon="8.662540">
<ele>148.0</ele>
<speed>0.4</speed>
<course>308.1</course>
<desc>Speed 0.4 km/h Distance 181 km</desc>
<time>2011-03-24T18:15:24.29</time>
<name>8600</name>
</trkpt>
<trkpt lat="49.575618" lon="8.662537">
<ele>148.0</ele>
<speed>0.4</speed>
<course>308.1</course>
<desc>Speed 0.4 km/h Distance 181 km</desc>
<time>2011-03-24T18:15:26.25</time>
<name>8601</name>
</trkpt>
</trkseg>
</trk>
</gpx>
